<?xml version="1.0" encoding="UTF-8" standalone="no" ?>
<gpx xmlns="http://www.topografix.com/GPX/1/1" xmlns:xsi="http://www.w3.org/2001/XMLSchema-instance" xsi:schemaLocation="http://www.topografix.com/GPX/1/1 http://www.topografix.com/GPX/1/1/gpx.xsd" version="1.1" creator="VisuGPX - https://www.visugpx.com">
  <metadata>
    <name>T'i tour improvisé</name>
    <desc><![CDATA[T'i tour improviséT'i tour improviséT'i tour improviséT'i tour improvisé]]></desc>
  </metadata>
  <wpt lat="47.54429" lon="6.7799">
    <ele>370.7</ele>
    <name><![CDATA[Point de cheminement 1]]></name>
    <desc><![CDATA[]]></desc>
  </wpt>
  <wpt lat="47.56672" lon="6.78682">
    <ele>475.8</ele>
    <name><![CDATA[Point de cheminement 2]]></name>
    <desc><![CDATA[]]></desc>
  </wpt>
  <wpt lat="47.56555" lon="6.77391">
    <ele>381.9</ele>
    <name><![CDATA[Point de cheminement 3]]></name>
    <desc><![CDATA[]]></desc>
  </wpt>
  <wpt lat="47.54682" lon="6.75941">
    <ele>462.5</ele>
    <name><![CDATA[Point de cheminement 4]]></name>
    <desc><![CDATA[]]></desc>
  </wpt>
  <wpt lat="47.52467" lon="6.76935">
    <ele>453.5</ele>
    <name><![CDATA[Point de cheminement 5]]></name>
    <desc><![CDATA[]]></desc>
  </wpt>
  <trk>
    <name><![CDATA[18 Rue Antoine Coysevox]]></name>
    <desc><![CDATA[]]></desc>
    <trkseg>
      <trkpt lat="47.5179" lon="6.77479">
        <ele>442.3</ele>
        <time>2017-07-30T07:42:23.372Z</time>
      </trkpt>
      <trkpt lat="47.51791" lon="6.77482">
        <ele>439.6</ele>
        <time>2017-07-30T07:42:24.372Z</time>
      </trkpt>
      <trkpt lat="47.51796" lon="6.77472">
        <ele>435.9</ele>
        <time>2017-07-30T07:42:25.376Z</time>
      </trkpt>
      <trkpt lat="47.51809" lon="6.77487">
        <ele>438</ele>
        <time>2017-07-30T07:42:26.391Z</time>
      </trkpt>
      <trkpt lat="47.51806" lon="6.77491">
        <ele>443.6</ele>
        <time>2017-07-30T07:42:36.386Z</time>
      </trkpt>
      <trkpt lat="47.51801" lon="6.77484">
        <ele>435.8</ele>
        <time>2017-07-30T07:42:37.390Z</time>
      </trkpt>
      <trkpt lat="47.51801" lon="6.77484">
        <ele>441.8</ele>
        <time>2017-07-30T07:42:46.999Z</time>
      </trkpt>
      <trkpt lat="47.5181" lon="6.77478">
        <ele>442.8</ele>
        <time>2017-07-30T07:42:47.999Z</time>
      </trkpt>
      <trkpt lat="47.5181" lon="6.77478">
        <ele>446.5</ele>
        <time>2017-07-30T07:42:53.999Z</time>
      </trkpt>
      <trkpt lat="47.51811" lon="6.77463">
        <ele>445.3</ele>
        <time>2017-07-30T07:42:54.999Z</time>
      </trkpt>
      <trkpt lat="47.51811" lon="6.77463">
        <ele>444</ele>
        <time>2017-07-30T07:43:07.999Z</time>
      </trkpt>
      <trkpt lat="47.51806" lon="6.77468">
        <ele>444</ele>
        <time>2017-07-30T07:43:08.999Z</time>
      </trkpt>
      <trkpt lat="47.51806" lon="6.77468">
        <ele>442.1</ele>
        <time>2017-07-30T07:43:41.999Z</time>
      </trkpt>
      <trkpt lat="47.51805" lon="6.7748">
        <ele>442</ele>
        <time>2017-07-30T07:43:42.999Z</time>
      </trkpt>
      <trkpt lat="47.51805" lon="6.7748">
        <ele>436</ele>
        <time>2017-07-30T07:45:48.999Z</time>
      </trkpt>
      <trkpt lat="47.51788" lon="6.77493">
        <ele>435.9</ele>
        <time>2017-07-30T07:45:49.999Z</time>
      </trkpt>
      <trkpt lat="47.51785" lon="6.77492">
        <ele>435.9</ele>
        <time>2017-07-30T07:45:50.999Z</time>
      </trkpt>
      <trkpt lat="47.51782" lon="6.77491">
        <ele>435.8</ele>
        <time>2017-07-30T07:45:51.999Z</time>
      </trkpt>
      <trkpt lat="47.51778" lon="6.77489">
        <ele>435.8</ele>
        <time>2017-07-30T07:45:52.999Z</time>
      </trkpt>
      <trkpt lat="47.51775" lon="6.77489">
        <ele>435.9</ele>
        <time>2017-07-30T07:45:53.999Z</time>
      </trkpt>
      <trkpt lat="47.51771" lon="6.77487">
        <ele>436</ele>
        <time>2017-07-30T07:45:54.999Z</time>
      </trkpt>
      <trkpt lat="47.51768" lon="6.77487">
        <ele>436</ele>
        <time>2017-07-30T07:45:55.999Z</time>
      </trkpt>
      <trkpt lat="47.51766" lon="6.77486">
        <ele>436.1</ele>
        <time>2017-07-30T07:45:56.999Z</time>
      </trkpt>
      <trkpt lat="47.51763" lon="6.77487">
        <ele>436.1</ele>
        <time>2017-07-30T07:45:57.999Z</time>
      </trkpt>
      <trkpt lat="47.5176" lon="6.77487">
        <ele>436.2</ele>
        <time>2017-07-30T07:45:58.999Z</time>
      </trkpt>
      <trkpt lat="47.51758" lon="6.77487">
        <ele>436.2</ele>
        <time>2017-07-30T07:45:59.999Z</time>
      </trkpt>
      <trkpt lat="47.51754" lon="6.77487">
        <ele>436.3</ele>
        <time>2017-07-30T07:46:00.999Z</time>
      </trkpt>
      <trkpt lat="47.5175" lon="6.77487">
        <ele>436.3</ele>
        <time>2017-07-30T07:46:01.999Z</time>
      </trkpt>
      <trkpt lat="47.51747" lon="6.77486">
        <ele>436.4</ele>
        <time>2017-07-30T07:46:02.999Z</time>
      </trkpt>
      <trkpt lat="47.51742" lon="6.77483">
        <ele>436.6</ele>
        <time>2017-07-30T07:46:04.999Z</time>
      </trkpt>
      <trkpt lat="47.51739" lon="6.77483">
        <ele>436.8</ele>
        <time>2017-07-30T07:46:07.999Z</time>
      </trkpt>
      <trkpt lat="47.51737" lon="6.77484">
        <ele>436.8</ele>
        <time>2017-07-30T07:46:08.999Z</time>
      </trkpt>
      <trkpt lat="47.51736" lon="6.77486">
        <ele>436.9</ele>
        <time>2017-07-30T07:46:10.999Z</time>
      </trkpt>
      <trkpt lat="47.51731" lon="6.7749">
        <ele>437</ele>
        <time>2017-07-30T07:46:13.999Z</time>
      </trkpt>
      <trkpt lat="47.51723" lon="6.77515">
        <ele>437</ele>
        <time>2017-07-30T07:46:21.999Z</time>
      </trkpt>
      <trkpt lat="47.51722" lon="6.77519">
        <ele>436.9</ele>
        <time>2017-07-30T07:46:22.999Z</time>
      </trkpt>
      <trkpt lat="47.51721" lon="6.77524">
        <ele>436.9</ele>
        <time>2017-07-30T07:46:23.999Z</time>
      </trkpt>
      <trkpt lat="47.51719" lon="6.77534">
        <ele>436.9</ele>
        <time>2017-07-30T07:46:25.999Z</time>
      </trkpt>
      <trkpt lat="47.51718" lon="6.77544">
        <ele>436.8</ele>
        <time>2017-07-30T07:46:27.999Z</time>
      </trkpt>
      <trkpt lat="47.51717" lon="6.77548">
        <ele>436.8</ele>
        <time>2017-07-30T07:46:28.999Z</time>
      </trkpt>
      <trkpt lat="47.51716" lon="6.77551">
        <ele>436.8</ele>
        <time>2017-07-30T07:46:29.999Z</time>
      </trkpt>
      <trkpt lat="47.51714" lon="6.77551">
        <ele>436.8</ele>
        <time>2017-07-30T07:46:30.999Z</time>
      </trkpt>
      <trkpt lat="47.51711" lon="6.77549">
        <ele>436.8</ele>
        <time>2017-07-30T07:46:31.999Z</time>
      </trkpt>
      <trkpt lat="47.51709" lon="6.77546">
        <ele>436.6</ele>
        <time>2017-07-30T07:46:32.999Z</time>
      </trkpt>
      <trkpt lat="47.51707" lon="6.77544">
        <ele>436.5</ele>
        <time>2017-07-30T07:46:33.999Z</time>
      </trkpt>
      <trkpt lat="47.51705" lon="6.77544">
        <ele>436.4</ele>
        <time>2017-07-30T07:46:34.999Z</time>
      </trkpt>
      <trkpt lat="47.51699" lon="6.77544">
        <ele>436.2</ele>
        <time>2017-07-30T07:46:36.999Z</time>
      </trkpt>
      <trkpt lat="47.51695" lon="6.77543">
        <ele>436</ele>
        <time>2017-07-30T07:46:38.999Z</time>
      </trkpt>
      <trkpt lat="47.51693" lon="6.77543">
        <ele>436</ele>
        <time>2017-07-30T07:46:39.999Z</time>
      </trkpt>
      <trkpt lat="47.5169" lon="6.77542">
        <ele>435.9</ele>
        <time>2017-07-30T07:46:40.999Z</time>
      </trkpt>
      <trkpt lat="47.51687" lon="6.77541">
        <ele>435.8</ele>
        <time>2017-07-30T07:46:41.999Z</time>
      </trkpt>
      <trkpt lat="47.51684" lon="6.77536">
        <ele>434.6</ele>
        <time>2017-07-30T07:46:42.999Z</time>
      </trkpt>
      <trkpt lat="47.51682" lon="6.77533">
        <ele>434.6</ele>
        <time>2017-07-30T07:46:43.999Z</time>
      </trkpt>
      <trkpt lat="47.51678" lon="6.7753">
        <ele>434.5</ele>
        <time>2017-07-30T07:46:44.999Z</time>
      </trkpt>
      <trkpt lat="47.51675" lon="6.77527">
        <ele>434.4</ele>
        <time>2017-07-30T07:46:45.999Z</time>
      </trkpt>
      <trkpt lat="47.51673" lon="6.77522">
        <ele>434.4</ele>
        <time>2017-07-30T07:46:46.999Z</time>
      </trkpt>
      <trkpt lat="47.5167" lon="6.77517">
        <ele>434.3</ele>
        <time>2017-07-30T07:46:47.999Z</time>
      </trkpt>
      <trkpt lat="47.51667" lon="6.77513">
        <ele>434.3</ele>
        <time>2017-07-30T07:46:48.999Z</time>
      </trkpt>
      <trkpt lat="47.51664" lon="6.77509">
        <ele>434.2</ele>
        <time>2017-07-30T07:46:49.999Z</time>
      </trkpt>
      <trkpt lat="47.51662" lon="6.77504">
        <ele>434</ele>
        <time>2017-07-30T07:46:50.999Z</time>
      </trkpt>
      <trkpt lat="47.5166" lon="6.775">
        <ele>433.9</ele>
        <time>2017-07-30T07:46:51.999Z</time>
      </trkpt>
      <trkpt lat="47.51658" lon="6.77496">
        <ele>433.8</ele>
        <time>2017-07-30T07:46:52.999Z</time>
      </trkpt>
      <trkpt lat="47.51655" lon="6.77492">
        <ele>433.6</ele>
        <time>2017-07-30T07:46:53.999Z</time>
      </trkpt>
      <trkpt lat="47.51652" lon="6.77488">
        <ele>433.6</ele>
        <time>2017-07-30T07:46:54.999Z</time>
      </trkpt>
      <trkpt lat="47.51649" lon="6.77485">
        <ele>433.5</ele>
        <time>2017-07-30T07:46:55.999Z</time>
      </trkpt>
      <trkpt lat="47.51646" lon="6.77482">
        <ele>433.4</ele>
        <time>2017-07-30T07:46:56.999Z</time>
      </trkpt>
      <trkpt lat="47.51643" lon="6.77479">
        <ele>432.5</ele>
        <time>2017-07-30T07:46:57.999Z</time>
      </trkpt>
      <trkpt lat="47.5164" lon="6.77475">
        <ele>431.7</ele>
        <time>2017-07-30T07:46:58.999Z</time>
      </trkpt>
      <trkpt lat="47.51637" lon="6.77472">
        <ele>431.4</ele>
        <time>2017-07-30T07:46:59.999Z</time>
      </trkpt>
      <trkpt lat="47.51634" lon="6.77468">
        <ele>431.4</ele>
        <time>2017-07-30T07:47:00.999Z</time>
      </trkpt>
      <trkpt lat="47.5163" lon="6.77463">
        <ele>431.4</ele>
        <time>2017-07-30T07:47:01.999Z</time>
      </trkpt>
      <trkpt lat="47.51626" lon="6.7746">
        <ele>431.3</ele>
        <time>2017-07-30T07:47:02.999Z</time>
      </trkpt>
      <trkpt lat="47.51622" lon="6.77456">
        <ele>431.6</ele>
        <time>2017-07-30T07:47:03.999Z</time>
      </trkpt>
      <trkpt lat="47.51619" lon="6.77452">
        <ele>431.3</ele>
        <time>2017-07-30T07:47:04.999Z</time>
      </trkpt>
      <trkpt lat="47.51617" lon="6.77445">
        <ele>431.5</ele>
        <time>2017-07-30T07:47:05.999Z</time>
      </trkpt>
      <trkpt lat="47.51616" lon="6.7744">
        <ele>431.5</ele>
        <time>2017-07-30T07:47:06.999Z</time>
      </trkpt>
      <trkpt lat="47.51618" lon="6.77435">
        <ele>431.3</ele>
        <time>2017-07-30T07:47:07.999Z</time>
      </trkpt>
      <trkpt lat="47.51621" lon="6.77429">
        <ele>428.8</ele>
        <time>2017-07-30T07:47:08.999Z</time>
      </trkpt>
      <trkpt lat="47.51624" lon="6.77424">
        <ele>426.4</ele>
        <time>2017-07-30T07:47:09.999Z</time>
      </trkpt>
      <trkpt lat="47.51626" lon="6.77418">
        <ele>424.7</ele>
        <time>2017-07-30T07:47:10.999Z</time>
      </trkpt>
      <trkpt lat="47.51629" lon="6.77413">
        <ele>423.2</ele>
        <time>2017-07-30T07:47:11.999Z</time>
      </trkpt>
      <trkpt lat="47.51631" lon="6.77408">
        <ele>422.2</ele>
        <time>2017-07-30T07:47:12.999Z</time>
      </trkpt>
      <trkpt lat="47.51633" lon="6.77403">
        <ele>421.5</ele>
        <time>2017-07-30T07:47:13.999Z</time>
      </trkpt>
      <trkpt lat="47.51636" lon="6.774">
        <ele>421.5</ele>
        <time>2017-07-30T07:47:14.999Z</time>
      </trkpt>
      <trkpt lat="47.51638" lon="6.77395">
        <ele>421.5</ele>
        <time>2017-07-30T07:47:15.999Z</time>
      </trkpt>
      <trkpt lat="47.51641" lon="6.77389">
        <ele>421.5</ele>
        <time>2017-07-30T07:47:16.999Z</time>
      </trkpt>
      <trkpt lat="47.51645" lon="6.77385">
        <ele>421.9</ele>
        <time>2017-07-30T07:47:17.999Z</time>
      </trkpt>
      <trkpt lat="47.51647" lon="6.77382">
        <ele>421.8</ele>
        <time>2017-07-30T07:47:18.999Z</time>
      </trkpt>
      <trkpt lat="47.5165" lon="6.77379">
        <ele>421.7</ele>
        <time>2017-07-30T07:47:19.999Z</time>
      </trkpt>
      <trkpt lat="47.51653" lon="6.77376">
        <ele>421.7</ele>
        <time>2017-07-30T07:47:20.999Z</time>
      </trkpt>
      <trkpt lat="47.51657" lon="6.77372">
        <ele>421.6</ele>
        <time>2017-07-30T07:47:21.999Z</time>
      </trkpt>
      <trkpt lat="47.5166" lon="6.77369">
        <ele>421.6</ele>
        <time>2017-07-30T07:47:22.999Z</time>
      </trkpt>
      <trkpt lat="47.51661" lon="6.77366">
        <ele>421.6</ele>
        <time>2017-07-30T07:47:23.999Z</time>
      </trkpt>
      <trkpt lat="47.51665" lon="6.77363">
        <ele>420.8</ele>
        <time>2017-07-30T07:47:24.999Z</time>
      </trkpt>
      <trkpt lat="47.51668" lon="6.77361">
        <ele>420.7</ele>
        <time>2017-07-30T07:47:25.999Z</time>
      </trkpt>
      <trkpt lat="47.5167" lon="6.77359">
        <ele>420.7</ele>
        <time>2017-07-30T07:47:26.999Z</time>
      </trkpt>
      <trkpt lat="47.51674" lon="6.77357">
        <ele>420.6</ele>
        <time>2017-07-30T07:47:27.999Z</time>
      </trkpt>
      <trkpt lat="47.51677" lon="6.77355">
        <ele>420.6</ele>
        <time>2017-07-30T07:47:28.999Z</time>
      </trkpt>
      <trkpt lat="47.51681" lon="6.77353">
        <ele>420.9</ele>
        <time>2017-07-30T07:47:29.999Z</time>
      </trkpt>
      <trkpt lat="47.51685" lon="6.77352">
        <ele>421</ele>
        <time>2017-07-30T07:47:30.999Z</time>
      </trkpt>
      <trkpt lat="47.51689" lon="6.77351">
        <ele>421</ele>
        <time>2017-07-30T07:47:31.999Z</time>
      </trkpt>
      <trkpt lat="47.51692" lon="6.77351">
        <ele>421.1</ele>
        <time>2017-07-30T07:47:32.999Z</time>
      </trkpt>
      <trkpt lat="47.51695" lon="6.7735">
        <ele>421.2</ele>
        <time>2017-07-30T07:47:33.999Z</time>
      </trkpt>
      <trkpt lat="47.51699" lon="6.77349">
        <ele>421.3</ele>
        <time>2017-07-30T07:47:34.999Z</time>
      </trkpt>
      <trkpt lat="47.51702" lon="6.77348">
        <ele>421.4</ele>
        <time>2017-07-30T07:47:35.999Z</time>
      </trkpt>
      <trkpt lat="47.51705" lon="6.77348">
        <ele>421.6</ele>
        <time>2017-07-30T07:47:36.999Z</time>
      </trkpt>
      <trkpt lat="47.51709" lon="6.77348">
        <ele>421.8</ele>
        <time>2017-07-30T07:47:37.999Z</time>
      </trkpt>
      <trkpt lat="47.51714" lon="6.77349">
        <ele>423.6</ele>
        <time>2017-07-30T07:47:38.999Z</time>
      </trkpt>
      <trkpt lat="47.51718" lon="6.7735">
        <ele>424.7</ele>
        <time>2017-07-30T07:47:39.999Z</time>
      </trkpt>
      <trkpt lat="47.51722" lon="6.7735">
        <ele>424.8</ele>
        <time>2017-07-30T07:47:40.999Z</time>
      </trkpt>
      <trkpt lat="47.51725" lon="6.7735">
        <ele>424.9</ele>
        <time>2017-07-30T07:47:41.999Z</time>
      </trkpt>
      <trkpt lat="47.51729" lon="6.77351">
        <ele>425</ele>
        <time>2017-07-30T07:47:42.999Z</time>
      </trkpt>
      <trkpt lat="47.51733" lon="6.77352">
        <ele>425.2</ele>
        <time>2017-07-30T07:47:43.999Z</time>
      </trkpt>
      <trkpt lat="47.51737" lon="6.77353">
        <ele>425.3</ele>
        <time>2017-07-30T07:47:44.999Z</time>
      </trkpt>
      <trkpt lat="47.5174" lon="6.77354">
        <ele>425.5</ele>
        <time>2017-07-30T07:47:45.999Z</time>
      </trkpt>
      <trkpt lat="47.51744" lon="6.77356">
        <ele>427</ele>
        <time>2017-07-30T07:47:46.999Z</time>
      </trkpt>
      <trkpt lat="47.51748" lon="6.77359">
        <ele>428</ele>
        <time>2017-07-30T07:47:47.999Z</time>
      </trkpt>
      <trkpt lat="47.51752" lon="6.7736">
        <ele>428.6</ele>
        <time>2017-07-30T07:47:48.999Z</time>
      </trkpt>
      <trkpt lat="47.51756" lon="6.77362">
        <ele>429.4</ele>
        <time>2017-07-30T07:47:49.999Z</time>
      </trkpt>
      <trkpt lat="47.5176" lon="6.77364">
        <ele>430.1</ele>
        <time>2017-07-30T07:47:50.999Z</time>
      </trkpt>
      <trkpt lat="47.51764" lon="6.77367">
        <ele>430.7</ele>
        <time>2017-07-30T07:47:51.999Z</time>
      </trkpt>
      <trkpt lat="47.51769" lon="6.77369">
        <ele>431.2</ele>
        <time>2017-07-30T07:47:52.999Z</time>
      </trkpt>
      <trkpt lat="47.51773" lon="6.7737">
        <ele>432.1</ele>
        <time>2017-07-30T07:47:53.999Z</time>
      </trkpt>
      <trkpt lat="47.51778" lon="6.77373">
        <ele>433</ele>
        <time>2017-07-30T07:47:54.999Z</time>
      </trkpt>
      <trkpt lat="47.51784" lon="6.77377">
        <ele>433.6</ele>
        <time>2017-07-30T07:47:55.999Z</time>
      </trkpt>
      <trkpt lat="47.51789" lon="6.7738">
        <ele>433.7</ele>
        <time>2017-07-30T07:47:56.999Z</time>
      </trkpt>
      <trkpt lat="47.51793" lon="6.77384">
        <ele>433.7</ele>
        <time>2017-07-30T07:47:57.999Z</time>
      </trkpt>
      <trkpt lat="47.51798" lon="6.77388">
        <ele>434</ele>
        <time>2017-07-30T07:47:58.999Z</time>
      </trkpt>
      <trkpt lat="47.51804" lon="6.77392">
        <ele>434.6</ele>
        <time>2017-07-30T07:47:59.999Z</time>
      </trkpt>
      <trkpt lat="47.5181" lon="6.77397">
        <ele>434.3</ele>
        <time>2017-07-30T07:48:00.999Z</time>
      </trkpt>
      <trkpt lat="47.51815" lon="6.77404">
        <ele>434.5</ele>
        <time>2017-07-30T07:48:01.999Z</time>
      </trkpt>
      <trkpt lat="47.5182" lon="6.77411">
        <ele>434.7</ele>
        <time>2017-07-30T07:48:02.999Z</time>
      </trkpt>
      <trkpt lat="47.51825" lon="6.77417">
        <ele>434.2</ele>
        <time>2017-07-30T07:48:03.999Z</time>
      </trkpt>
      <trkpt lat="47.5183" lon="6.77423">
        <ele>434.2</ele>
        <time>2017-07-30T07:48:04.999Z</time>
      </trkpt>
      <trkpt lat="47.51835" lon="6.77427">
        <ele>433.9</ele>
        <time>2017-07-30T07:48:05.999Z</time>
      </trkpt>
      <trkpt lat="47.5184" lon="6.77432">
        <ele>433.6</ele>
        <time>2017-07-30T07:48:06.999Z</time>
      </trkpt>
      <trkpt lat="47.51845" lon="6.77435">
        <ele>432.7</ele>
        <time>2017-07-30T07:48:07.999Z</time>
      </trkpt>
      <trkpt lat="47.51851" lon="6.77437">
        <ele>432.2</ele>
        <time>2017-07-30T07:48:08.999Z</time>
      </trkpt>
      <trkpt lat="47.51856" lon="6.77439">
        <ele>432</ele>
        <time>2017-07-30T07:48:09.999Z</time>
      </trkpt>
      <trkpt lat="47.51862" lon="6.77439">
        <ele>431.3</ele>
        <time>2017-07-30T07:48:10.999Z</time>
      </trkpt>
      <trkpt lat="47.51866" lon="6.77438">
        <ele>430.7</ele>
        <time>2017-07-30T07:48:11.999Z</time>
      </trkpt>
      <trkpt lat="47.51871" lon="6.77435">
        <ele>430.2</ele>
        <time>2017-07-30T07:48:12.999Z</time>
      </trkpt>
      <trkpt lat="47.51876" lon="6.77433">
        <ele>430.2</ele>
        <time>2017-07-30T07:48:13.999Z</time>
      </trkpt>
      <trkpt lat="47.5188" lon="6.77431">
        <ele>430.1</ele>
        <time>2017-07-30T07:48:14.999Z</time>
      </trkpt>
      <trkpt lat="47.51884" lon="6.77428">
        <ele>429.8</ele>
        <time>2017-07-30T07:48:15.999Z</time>
      </trkpt>
      <trkpt lat="47.51889" lon="6.77425">
        <ele>429.2</ele>
        <time>2017-07-30T07:48:16.999Z</time>
      </trkpt>
      <trkpt lat="47.51892" lon="6.7742">
        <ele>428.1</ele>
        <time>2017-07-30T07:48:17.999Z</time>
      </trkpt>
      <trkpt lat="47.51897" lon="6.77416">
        <ele>426.8</ele>
        <time>2017-07-30T07:48:18.999Z</time>
      </trkpt>
      <trkpt lat="47.51901" lon="6.77413">
        <ele>425.7</ele>
        <time>2017-07-30T07:48:19.999Z</time>
      </trkpt>
      <trkpt lat="47.51906" lon="6.7741">
        <ele>424.4</ele>
        <time>2017-07-30T07:48:20.999Z</time>
      </trkpt>
      <trkpt lat="47.51911" lon="6.77406">
        <ele>424</ele>
        <time>2017-07-30T07:48:21.999Z</time>
      </trkpt>
      <trkpt lat="47.51917" lon="6.77403">
        <ele>423.6</ele>
        <time>2017-07-30T07:48:22.999Z</time>
      </trkpt>
      <trkpt lat="47.51923" lon="6.77401">
        <ele>423.1</ele>
        <time>2017-07-30T07:48:23.999Z</time>
      </trkpt>
      <trkpt lat="47.51929" lon="6.774">
        <ele>422.7</ele>
        <time>2017-07-30T07:48:24.999Z</time>
      </trkpt>
      <trkpt lat="47.51935" lon="6.77401">
        <ele>423.3</ele>
        <time>2017-07-30T07:48:25.999Z</time>
      </trkpt>
      <trkpt lat="47.5194" lon="6.774">
        <ele>423.9</ele>
        <time>2017-07-30T07:48:26.999Z</time>
      </trkpt>
      <trkpt lat="47.51944" lon="6.77401">
        <ele>424.2</ele>
        <time>2017-07-30T07:48:27.999Z</time>
      </trkpt>
      <trkpt lat="47.5195" lon="6.77402">
        <ele>424.3</ele>
        <time>2017-07-30T07:48:28.999Z</time>
      </trkpt>
      <trkpt lat="47.51956" lon="6.77404">
        <ele>424.3</ele>
        <time>2017-07-30T07:48:29.999Z</time>
      </trkpt>
      <trkpt lat="47.51961" lon="6.77406">
        <ele>424.6</ele>
        <time>2017-07-30T07:48:30.999Z</time>
      </trkpt>
      <trkpt lat="47.51966" lon="6.77408">
        <ele>424.9</ele>
        <time>2017-07-30T07:48:31.999Z</time>
      </trkpt>
      <trkpt lat="47.51971" lon="6.77411">
        <ele>425.2</ele>
        <time>2017-07-30T07:48:32.999Z</time>
      </trkpt>
      <trkpt lat="47.51975" lon="6.77414">
        <ele>425.8</ele>
        <time>2017-07-30T07:48:33.999Z</time>
      </trkpt>
      <trkpt lat="47.51978" lon="6.77417">
        <ele>426.5</ele>
        <time>2017-07-30T07:48:34.999Z</time>
      </trkpt>
      <trkpt lat="47.51981" lon="6.77421">
        <ele>426.5</ele>
        <time>2017-07-30T07:48:35.999Z</time>
      </trkpt>
      <trkpt lat="47.51984" lon="6.77423">
        <ele>426.5</ele>
        <time>2017-07-30T07:48:36.999Z</time>
      </trkpt>
      <trkpt lat="47.51988" lon="6.77426">
        <ele>426.6</ele>
        <time>2017-07-30T07:48:37.999Z</time>
      </trkpt>
      <trkpt lat="47.51992" lon="6.77429">
        <ele>426.7</ele>
        <time>2017-07-30T07:48:38.999Z</time>
      </trkpt>
      <trkpt lat="47.51996" lon="6.77432">
        <ele>426.8</ele>
        <time>2017-07-30T07:48:39.999Z</time>
      </trkpt>
      <trkpt lat="47.52001" lon="6.77436">
        <ele>426.9</ele>
        <time>2017-07-30T07:48:40.999Z</time>
      </trkpt>
      <trkpt lat="47.52005" lon="6.7744">
        <ele>428.4</ele>
        <time>2017-07-30T07:48:41.999Z</time>
      </trkpt>
      <trkpt lat="47.52007" lon="6.77444">
        <ele>429.3</ele>
        <time>2017-07-30T07:48:42.999Z</time>
      </trkpt>
      <trkpt lat="47.52009" lon="6.7745">
        <ele>429.4</ele>
        <time>2017-07-30T07:48:43.999Z</time>
      </trkpt>
      <trkpt lat="47.52008" lon="6.77458">
        <ele>429.4</ele>
        <time>2017-07-30T07:48:44.999Z</time>
      </trkpt>
      <trkpt lat="47.52007" lon="6.77465">
        <ele>429.5</ele>
        <time>2017-07-30T07:48:45.999Z</time>
      </trkpt>
      <trkpt lat="47.52006" lon="6.77471">
        <ele>429.6</ele>
        <time>2017-07-30T07:48:46.999Z</time>
      </trkpt>
      <trkpt lat="47.52004" lon="6.77477">
        <ele>430.3</ele>
        <time>2017-07-30T07:48:47.999Z</time>
      </trkpt>
      <trkpt lat="47.52002" lon="6.77485">
        <ele>431.3</ele>
        <time>2017-07-30T07:48:48.999Z</time>
      </trkpt>
      <trkpt lat="47.51999" lon="6.77492">
        <ele>432.8</ele>
        <time>2017-07-30T07:48:49.999Z</time>
      </trkpt>
      <trkpt lat="47.51996" lon="6.77498">
        <ele>433.7</ele>
        <time>2017-07-30T07:48:50.999Z</time>
      </trkpt>
      <trkpt lat="47.51993" lon="6.77505">
        <ele>434.3</ele>
        <time>2017-07-30T07:48:51.999Z</time>
      </trkpt>
      <trkpt lat="47.51991" lon="6.77511">
        <ele>434.8</ele>
        <time>2017-07-30T07:48:52.999Z</time>
      </trkpt>
      <trkpt lat="47.5199" lon="6.77517">
        <ele>435.4</ele>
        <time>2017-07-30T07:48:53.999Z</time>
      </trkpt>
      <trkpt lat="47.5199" lon="6.77522">
        <ele>435.4</ele>
        <time>2017-07-30T07:48:54.999Z</time>
      </trkpt>
      <trkpt lat="47.51992" lon="6.77527">
        <ele>435.3</ele>
        <time>2017-07-30T07:48:56.999Z</time>
      </trkpt>
      <trkpt lat="47.51994" lon="6.77528">
        <ele>434.2</ele>
        <time>2017-07-30T07:48:57.999Z</time>
      </trkpt>
      <trkpt lat="47.51996" lon="6.77528">
        <ele>433</ele>
        <time>2017-07-30T07:48:58.999Z</time>
      </trkpt>
      <trkpt lat="47.51999" lon="6.77528">
        <ele>433</ele>
        <time>2017-07-30T07:48:59.999Z</time>
      </trkpt>
      <trkpt lat="47.52001" lon="6.77529">
        <ele>432.9</ele>
        <time>2017-07-30T07:49:00.999Z</time>
      </trkpt>
      <trkpt lat="47.52004" lon="6.77531">
        <ele>432.9</ele>
        <time>2017-07-30T07:49:01.999Z</time>
      </trkpt>
      <trkpt lat="47.52007" lon="6.77532">
        <ele>432.9</ele>
        <time>2017-07-30T07:49:02.999Z</time>
      </trkpt>
      <trkpt lat="47.52009" lon="6.77533">
        <ele>433</ele>
        <time>2017-07-30T07:49:03.999Z</time>
      </trkpt>
      <trkpt lat="47.52012" lon="6.77533">
        <ele>433.1</ele>
        <time>2017-07-30T07:49:04.999Z</time>
      </trkpt>
      <trkpt lat="47.52016" lon="6.77534">
        <ele>433.2</ele>
        <time>2017-07-30T07:49:05.999Z</time>
      </trkpt>
      <trkpt lat="47.5202" lon="6.77534">
        <ele>433.3</ele>
        <time>2017-07-30T07:49:06.999Z</time>
      </trkpt>
      <trkpt lat="47.52025" lon="6.77534">
        <ele>433.4</ele>
        <time>2017-07-30T07:49:07.999Z</time>
      </trkpt>
      <trkpt lat="47.52028" lon="6.77534">
        <ele>433.6</ele>
        <time>2017-07-30T07:49:08.999Z</time>
      </trkpt>
      <trkpt lat="47.52032" lon="6.77534">
        <ele>433.7</ele>
        <time>2017-07-30T07:49:09.999Z</time>
      </trkpt>
      <trkpt lat="47.52036" lon="6.77534">
        <ele>433.8</ele>
        <time>2017-07-30T07:49:10.999Z</time>
      </trkpt>
      <trkpt lat="47.52042" lon="6.77534">
        <ele>433.7</ele>
        <time>2017-07-30T07:49:11.999Z</time>
      </trkpt>
      <trkpt lat="47.52049" lon="6.77535">
        <ele>433.7</ele>
        <time>2017-07-30T07:49:12.999Z</time>
      </trkpt>
      <trkpt lat="47.52056" lon="6.77537">
        <ele>433.7</ele>
        <time>2017-07-30T07:49:13.999Z</time>
      </trkpt>
      <trkpt lat="47.5206" lon="6.77538">
        <ele>433.7</ele>
        <time>2017-07-30T07:49:14.999Z</time>
      </trkpt>
      <trkpt lat="47.52064" lon="6.77538">
        <ele>433.7</ele>
        <time>2017-07-30T07:49:15.999Z</time>
      </trkpt>
      <trkpt lat="47.52068" lon="6.77539">
        <ele>433.7</ele>
        <time>2017-07-30T07:49:16.999Z</time>
      </trkpt>
      <trkpt lat="47.52072" lon="6.77541">
        <ele>433</ele>
        <time>2017-07-30T07:49:17.999Z</time>
      </trkpt>
      <trkpt lat="47.52077" lon="6.77543">
        <ele>433</ele>
        <time>2017-07-30T07:49:18.999Z</time>
      </trkpt>
      <trkpt lat="47.52082" lon="6.77546">
        <ele>433</ele>
        <time>2017-07-30T07:49:19.999Z</time>
      </trkpt>
      <trkpt lat="47.52086" lon="6.7755">
        <ele>433</ele>
        <time>2017-07-30T07:49:20.999Z</time>
      </trkpt>
      <trkpt lat="47.5209" lon="6.77556">
        <ele>433.1</ele>
        <time>2017-07-30T07:49:21.999Z</time>
      </trkpt>
      <trkpt lat="47.52092" lon="6.77563">
        <ele>433.8</ele>
        <time>2017-07-30T07:49:22.999Z</time>
      </trkpt>
      <trkpt lat="47.52094" lon="6.77572">
        <ele>434.6</ele>
        <time>2017-07-30T07:49:23.999Z</time>
      </trkpt>
      <trkpt lat="47.52095" lon="6.7758">
        <ele>434.6</ele>
        <time>2017-07-30T07:49:24.999Z</time>
      </trkpt>
      <trkpt lat="47.52096" lon="6.77587">
        <ele>434.6</ele>
        <time>2017-07-30T07:49:25.999Z</time>
      </trkpt>
      <trkpt lat="47.52096" lon="6.77594">
        <ele>434.7</ele>
        <time>2017-07-30T07:49:26.999Z</time>
      </trkpt>
      <trkpt lat="47.52096" lon="6.77601">
        <ele>435</ele>
        <time>2017-07-30T07:49:27.999Z</time>
      </trkpt>
      <trkpt lat="47.52097" lon="6.77609">
        <ele>435.3</ele>
        <time>2017-07-30T07:49:28.999Z</time>
      </trkpt>
      <trkpt lat="47.52098" lon="6.77615">
        <ele>435.4</ele>
        <time>2017-07-30T07:49:29.999Z</time>
      </trkpt>
      <trkpt lat="47.52098" lon="6.77623">
        <ele>436</ele>
        <time>2017-07-30T07:49:30.999Z</time>
      </trkpt>
      <trkpt lat="47.52097" lon="6.77631">
        <ele>436.1</ele>
        <time>2017-07-30T07:49:31.999Z</time>
      </trkpt>
      <trkpt lat="47.52097" lon="6.77638">
        <ele>436.9</ele>
        <time>2017-07-30T07:49:32.999Z</time>
      </trkpt>
      <trkpt lat="47.52097" lon="6.77645">
        <ele>437</ele>
        <time>2017-07-30T07:49:33.999Z</time>
      </trkpt>
      <trkpt lat="47.52097" lon="6.77651">
        <ele>436.6</ele>
        <time>2017-07-30T07:49:34.999Z</time>
      </trkpt>
      <trkpt lat="47.52097" lon="6.77658">
        <ele>437</ele>
        <time>2017-07-30T07:49:35.999Z</time>
      </trkpt>
      <trkpt lat="47.52097" lon="6.77664">
        <ele>437.2</ele>
        <time>2017-07-30T07:49:36.999Z</time>
      </trkpt>
      <trkpt lat="47.52097" lon="6.7767">
        <ele>437.1</ele>
        <time>2017-07-30T07:49:37.999Z</time>
      </trkpt>
      <trkpt lat="47.52101" lon="6.77671">
        <ele>436.7</ele>
        <time>2017-07-30T07:49:38.999Z</time>
      </trkpt>
      <trkpt lat="47.52105" lon="6.77671">
        <ele>436.7</ele>
        <time>2017-07-30T07:49:39.999Z</time>
      </trkpt>
      <trkpt lat="47.52108" lon="6.77667">
        <ele>436.9</ele>
        <time>2017-07-30T07:49:40.999Z</time>
      </trkpt>
      <trkpt lat="47.52113" lon="6.77663">
        <ele>437.3</ele>
        <time>2017-07-30T07:49:41.999Z</time>
      </trkpt>
      <trkpt lat="47.52119" lon="6.7766">
        <ele>437.3</ele>
        <time>2017-07-30T07:49:42.999Z</time>
      </trkpt>
      <trkpt lat="47.52123" lon="6.77656">
        <ele>436.1</ele>
        <time>2017-07-30T07:49:43.999Z</time>
      </trkpt>
      <trkpt lat="47.52128" lon="6.77653">
        <ele>434.9</ele>
        <time>2017-07-30T07:49:44.999Z</time>
      </trkpt>
      <trkpt lat="47.52134" lon="6.77649">
        <ele>435.1</ele>
        <time>2017-07-30T07:49:45.999Z</time>
      </trkpt>
      <trkpt lat="47.5214" lon="6.77643">
        <ele>435.4</ele>
        <time>2017-07-30T07:49:46.999Z</time>
      </trkpt>
      <trkpt lat="47.52147" lon="6.77638">
        <ele>435.6</ele>
        <time>2017-07-30T07:49:47.999Z</time>
      </trkpt>
      <trkpt lat="47.52154" lon="6.77634">
        <ele>436.2</ele>
        <time>2017-07-30T07:49:48.999Z</time>
      </trkpt>
      <trkpt lat="47.5216" lon="6.7763">
        <ele>437.8</ele>
        <time>2017-07-30T07:49:49.999Z</time>
      </trkpt>
      <trkpt lat="47.52166" lon="6.77626">
        <ele>438</ele>
        <time>2017-07-30T07:49:50.999Z</time>
      </trkpt>
      <trkpt lat="47.52171" lon="6.77622">
        <ele>438</ele>
        <time>2017-07-30T07:49:51.999Z</time>
      </trkpt>
      <trkpt lat="47.52176" lon="6.77618">
        <ele>437.9</ele>
        <time>2017-07-30T07:49:52.999Z</time>
      </trkpt>
      <trkpt lat="47.52182" lon="6.77615">
        <ele>437</ele>
        <time>2017-07-30T07:49:53.999Z</time>
      </trkpt>
      <trkpt lat="47.52186" lon="6.77612">
        <ele>436</ele>
        <time>2017-07-30T07:49:54.999Z</time>
      </trkpt>
      <trkpt lat="47.5219" lon="6.77608">
        <ele>434.6</ele>
        <time>2017-07-30T07:49:55.999Z</time>
      </trkpt>
      <trkpt lat="47.52196" lon="6.77604">
        <ele>433.1</ele>
        <time>2017-07-30T07:49:56.999Z</time>
      </trkpt>
      <trkpt lat="47.52201" lon="6.77601">
        <ele>432.4</ele>
        <time>2017-07-30T07:49:57.999Z</time>
      </trkpt>
      <trkpt lat="47.52207" lon="6.77597">
        <ele>431.6</ele>
        <time>2017-07-30T07:49:58.999Z</time>
      </trkpt>
      <trkpt lat="47.52213" lon="6.77593">
        <ele>430.9</ele>
        <time>2017-07-30T07:49:59.999Z</time>
      </trkpt>
      <trkpt lat="47.52219" lon="6.7759">
        <ele>430.4</ele>
        <time>2017-07-30T07:50:00.999Z</time>
      </trkpt>
      <trkpt lat="47.52224" lon="6.77586">
        <ele>429.8</ele>
        <time>2017-07-30T07:50:01.999Z</time>
      </trkpt>
      <trkpt lat="47.52229" lon="6.77583">
        <ele>429.1</ele>
        <time>2017-07-30T07:50:02.999Z</time>
      </trkpt>
      <trkpt lat="47.52235" lon="6.77578">
        <ele>429.2</ele>
        <time>2017-07-30T07:50:03.999Z</time>
      </trkpt>
      <trkpt lat="47.52239" lon="6.77575">
        <ele>428.8</ele>
        <time>2017-07-30T07:50:04.999Z</time>
      </trkpt>
      <trkpt lat="47.52244" lon="6.77572">
        <ele>428.6</ele>
        <time>2017-07-30T07:50:05.999Z</time>
      </trkpt>
      <trkpt lat="47.52249" lon="6.77569">
        <ele>428.6</ele>
        <time>2017-07-30T07:50:06.999Z</time>
      </trkpt>
      <trkpt lat="47.52253" lon="6.77566">
        <ele>428.5</ele>
        <time>2017-07-30T07:50:07.999Z</time>
      </trkpt>
      <trkpt lat="47.52257" lon="6.77563">
        <ele>428.4</ele>
        <time>2017-07-30T07:50:08.999Z</time>
      </trkpt>
      <trkpt lat="47.52263" lon="6.7756">
        <ele>428.6</ele>
        <time>2017-07-30T07:50:09.999Z</time>
      </trkpt>
      <trkpt lat="47.52267" lon="6.77556">
        <ele>428.7</ele>
        <time>2017-07-30T07:50:10.999Z</time>
      </trkpt>
      <trkpt lat="47.5227" lon="6.77552">
        <ele>428.8</ele>
        <time>2017-07-30T07:50:11.999Z</time>
      </trkpt>
      <trkpt lat="47.52274" lon="6.7755">
        <ele>429.2</ele>
        <time>2017-07-30T07:50:12.999Z</time>
      </trkpt>
      <trkpt lat="47.52278" lon="6.77547">
        <ele>429.5</ele>
        <time>2017-07-30T07:50:13.999Z</time>
      </trkpt>
      <trkpt lat="47.52285" lon="6.77545">
        <ele>429.6</ele>
        <time>2017-07-30T07:50:14.999Z</time>
      </trkpt>
      <trkpt lat="47.5229" lon="6.77543">
        <ele>429.7</ele>
        <time>2017-07-30T07:50:15.999Z</time>
      </trkpt>
      <trkpt lat="47.52294" lon="6.7754">
        <ele>430</ele>
        <time>2017-07-30T07:50:16.999Z</time>
      </trkpt>
      <trkpt lat="47.52299" lon="6.77537">
        <ele>430</ele>
        <time>2017-07-30T07:50:17.999Z</time>
      </trkpt>
      <trkpt lat="47.52303" lon="6.77535">
        <ele>429.6</ele>
        <time>2017-07-30T07:50:18.999Z</time>
      </trkpt>
      <trkpt lat="47.52308" lon="6.77533">
        <ele>429</ele>
        <time>2017-07-30T07:50:19.999Z</time>
      </trkpt>
      <trkpt lat="47.52311" lon="6.7753">
        <ele>428.5</ele>
        <time>2017-07-30T07:50:20.999Z</time>
      </trkpt>
      <trkpt lat="47.52315" lon="6.77527">
        <ele>428.4</ele>
        <time>2017-07-30T07:50:21.999Z</time>
      </trkpt>
      <trkpt lat="47.52319" lon="6.77524">
        <ele>428.2</ele>
        <time>2017-07-30T07:50:22.999Z</time>
      </trkpt>
      <trkpt lat="47.52323" lon="6.77522">
        <ele>428.2</ele>
        <time>2017-07-30T07:50:23.999Z</time>
      </trkpt>
      <trkpt lat="47.52328" lon="6.77519">
        <ele>428.2</ele>
        <time>2017-07-30T07:50:24.999Z</time>
      </trkpt>
      <trkpt lat="47.52332" lon="6.77517">
        <ele>427.7</ele>
        <time>2017-07-30T07:50:25.999Z</time>
      </trkpt>
      <trkpt lat="47.52336" lon="6.77514">
        <ele>427</ele>
        <time>2017-07-30T07:50:26.999Z</time>
      </trkpt>
      <trkpt lat="47.5234" lon="6.77511">
        <ele>426.1</ele>
        <time>2017-07-30T07:50:27.999Z</time>
      </trkpt>
      <trkpt lat="47.52343" lon="6.77509">
        <ele>425.6</ele>
        <time>2017-07-30T07:50:28.999Z</time>
      </trkpt>
      <trkpt lat="47.52346" lon="6.77507">
        <ele>425.2</ele>
        <time>2017-07-30T07:50:29.999Z</time>
      </trkpt>
      <trkpt lat="47.52351" lon="6.77505">
        <ele>424.9</ele>
        <time>2017-07-30T07:50:30.999Z</time>
      </trkpt>
      <trkpt lat="47.52356" lon="6.77503">
        <ele>424.8</ele>
        <time>2017-07-30T07:50:31.999Z</time>
      </trkpt>
      <trkpt lat="47.52361" lon="6.77499">
        <ele>424.6</ele>
        <time>2017-07-30T07:50:32.999Z</time>
      </trkpt>
      <trkpt lat="47.52364" lon="6.77496">
        <ele>424.3</ele>
        <time>2017-07-30T07:50:33.999Z</time>
      </trkpt>
      <trkpt lat="47.52367" lon="6.77494">
        <ele>424.3</ele>
        <time>2017-07-30T07:50:34.999Z</time>
      </trkpt>
      <trkpt lat="47.52372" lon="6.77492">
        <ele>424.8</ele>
        <time>2017-07-30T07:50:35.999Z</time>
      </trkpt>
      <trkpt lat="47.52377" lon="6.77489">
        <ele>425.7</ele>
        <time>2017-07-30T07:50:36.999Z</time>
      </trkpt>
      <trkpt lat="47.52382" lon="6.77486">
        <ele>425.7</ele>
        <time>2017-07-30T07:50:37.999Z</time>
      </trkpt>
      <trkpt lat="47.52387" lon="6.77482">
        <ele>425.7</ele>
        <time>2017-07-30T07:50:38.999Z</time>
      </trkpt>
      <trkpt lat="47.52392" lon="6.77476">
        <ele>425.6</ele>
        <time>2017-07-30T07:50:39.999Z</time>
      </trkpt>
      <trkpt lat="47.52396" lon="6.77472">
        <ele>426.4</ele>
        <time>2017-07-30T07:50:40.999Z</time>
      </trkpt>
      <trkpt lat="47.52401" lon="6.77467">
        <ele>427.1</ele>
        <time>2017-07-30T07:50:41.999Z</time>
      </trkpt>
      <trkpt lat="47.52405" lon="6.77461">
        <ele>426.5</ele>
        <time>2017-07-30T07:50:42.999Z</time>
      </trkpt>
      <trkpt lat="47.5241" lon="6.77455">
        <ele>426.2</ele>
        <time>2017-07-30T07:50:43.999Z</time>
      </trkpt>
      <trkpt lat="47.52415" lon="6.7745">
        <ele>425.6</ele>
        <time>2017-07-30T07:50:44.999Z</time>
      </trkpt>
      <trkpt lat="47.52421" lon="6.77447">
        <ele>424.6</ele>
        <time>2017-07-30T07:50:45.999Z</time>
      </trkpt>
      <trkpt lat="47.52427" lon="6.77445">
        <ele>424.5</ele>
        <time>2017-07-30T07:50:46.999Z</time>
      </trkpt>
      <trkpt lat="47.52434" lon="6.77446">
        <ele>424.6</ele>
        <time>2017-07-30T07:50:47.999Z</time>
      </trkpt>
      <trkpt lat="47.52442" lon="6.77447">
        <ele>425.9</ele>
        <time>2017-07-30T07:50:48.999Z</time>
      </trkpt>
      <trkpt lat="47.52446" lon="6.77448">
        <ele>426</ele>
        <time>2017-07-30T07:50:49.999Z</time>
      </trkpt>
      <trkpt lat="47.52449" lon="6.77449">
        <ele>426</ele>
        <time>2017-07-30T07:50:50.999Z</time>
      </trkpt>
      <trkpt lat="47.52453" lon="6.77448">
        <ele>426.2</ele>
        <time>2017-07-30T07:50:51.999Z</time>
      </trkpt>
      <trkpt lat="47.52456" lon="6.77448">
        <ele>426.3</ele>
        <time>2017-07-30T07:50:52.999Z</time>
      </trkpt>
      <trkpt lat="47.52459" lon="6.77447">
        <ele>426.4</ele>
        <time>2017-07-30T07:50:53.999Z</time>
      </trkpt>
      <trkpt lat="47.52462" lon="6.77446">
        <ele>426.6</ele>
        <time>2017-07-30T07:50:54.999Z</time>
      </trkpt>
      <trkpt lat="47.52465" lon="6.77446">
        <ele>426.8</ele>
        <time>2017-07-30T07:50:55.999Z</time>
      </trkpt>
      <trkpt lat="47.52468" lon="6.77446">
        <ele>427.1</ele>
        <time>2017-07-30T07:50:56.999Z</time>
      </trkpt>
      <trkpt lat="47.52471" lon="6.77447">
        <ele>427.3</ele>
        <time>2017-07-30T07:50:57.999Z</time>
      </trkpt>
      <trkpt lat="47.52475" lon="6.77448">
        <ele>427.5</ele>
        <time>2017-07-30T07:50:58.999Z</time>
      </trkpt>
      <trkpt lat="47.5248" lon="6.7745">
        <ele>427.8</ele>
        <time>2017-07-30T07:50:59.999Z</time>
      </trkpt>
      <trkpt lat="47.52484" lon="6.77452">
        <ele>428.1</ele>
        <time>2017-07-30T07:51:00.999Z</time>
      </trkpt>
      <trkpt lat="47.5249" lon="6.77453">
        <ele>428.4</ele>
        <time>2017-07-30T07:51:01.999Z</time>
      </trkpt>
      <trkpt lat="47.52494" lon="6.77453">
        <ele>428.7</ele>
        <time>2017-07-30T07:51:02.999Z</time>
      </trkpt>
      <trkpt lat="47.52498" lon="6.77453">
        <ele>429</ele>
        <time>2017-07-30T07:51:03.999Z</time>
      </trkpt>
      <trkpt lat="47.52502" lon="6.77454">
        <ele>429.2</ele>
        <time>2017-07-30T07:51:04.999Z</time>
      </trkpt>
      <trkpt lat="47.52506" lon="6.77454">
        <ele>429.4</ele>
        <time>2017-07-30T07:51:05.999Z</time>
      </trkpt>
      <trkpt lat="47.5251" lon="6.77455">
        <ele>429.6</ele>
        <time>2017-07-30T07:51:06.999Z</time>
      </trkpt>
      <trkpt lat="47.52513" lon="6.77455">
        <ele>429.8</ele>
        <time>2017-07-30T07:51:07.999Z</time>
      </trkpt>
      <trkpt lat="47.52516" lon="6.77454">
        <ele>430.1</ele>
        <time>2017-07-30T07:51:09.999Z</time>
      </trkpt>
      <trkpt lat="47.5252" lon="6.77454">
        <ele>430.2</ele>
        <time>2017-07-30T07:51:10.999Z</time>
      </trkpt>
      <trkpt lat="47.52524" lon="6.77455">
        <ele>430.3</ele>
        <time>2017-07-30T07:51:11.999Z</time>
      </trkpt>
      <trkpt lat="47.52528" lon="6.77455">
        <ele>430.4</ele>
        <time>2017-07-30T07:51:12.999Z</time>
      </trkpt>
      <trkpt lat="47.52532" lon="6.77454">
        <ele>430.5</ele>
        <time>2017-07-30T07:51:13.999Z</time>
      </trkpt>
      <trkpt lat="47.52537" lon="6.77456">
        <ele>430.6</ele>
        <time>2017-07-30T07:51:14.999Z</time>
      </trkpt>
      <trkpt lat="47.52542" lon="6.77458">
        <ele>430.8</ele>
        <time>2017-07-30T07:51:15.999Z</time>
      </trkpt>
      <trkpt lat="47.52547" lon="6.77459">
        <ele>430.9</ele>
        <time>2017-07-30T07:51:16.999Z</time>
      </trkpt>
      <trkpt lat="47.5255" lon="6.77458">
        <ele>431.1</ele>
        <time>2017-07-30T07:51:17.999Z</time>
      </trkpt>
      <trkpt lat="47.52553" lon="6.77457">
        <ele>431.2</ele>
        <time>2017-07-30T07:51:18.999Z</time>
      </trkpt>
      <trkpt lat="47.52556" lon="6.77457">
        <ele>431.4</ele>
        <time>2017-07-30T07:51:19.999Z</time>
      </trkpt>
      <trkpt lat="47.52559" lon="6.77457">
        <ele>431.6</ele>
        <time>2017-07-30T07:51:20.999Z</time>
      </trkpt>
      <trkpt lat="47.52563" lon="6.77458">
        <ele>431.8</ele>
        <time>2017-07-30T07:51:21.999Z</time>
      </trkpt>
      <trkpt lat="47.52568" lon="6.7746">
        <ele>432</ele>
        <time>2017-07-30T07:51:22.999Z</time>
      </trkpt>
      <trkpt lat="47.52573" lon="6.77461">
        <ele>432.2</ele>
        <time>2017-07-30T07:51:23.999Z</time>
      </trkpt>
      <trkpt lat="47.52578" lon="6.77461">
        <ele>432.5</ele>
        <time>2017-07-30T07:51:24.999Z</time>
      </trkpt>
      <trkpt lat="47.52581" lon="6.7746">
        <ele>432.7</ele>
        <time>2017-07-30T07:51:25.999Z</time>
      </trkpt>
      <trkpt lat="47.52586" lon="6.77463">
        <ele>432.9</ele>
        <time>2017-07-30T07:51:26.999Z</time>
      </trkpt>
      <trkpt lat="47.5259" lon="6.77466">
        <ele>433.1</ele>
        <time>2017-07-30T07:51:27.999Z</time>
      </trkpt>
      <trkpt lat="47.52594" lon="6.77471">
        <ele>433.3</ele>
        <time>2017-07-30T07:51:28.999Z</time>
      </trkpt>
      <trkpt lat="47.52597" lon="6.77476">
        <ele>433.5</ele>
        <time>2017-07-30T07:51:29.999Z</time>
      </trkpt>
      <trkpt lat="47.52601" lon="6.77478">
        <ele>433.8</ele>
        <time>2017-07-30T07:51:30.999Z</time>
      </trkpt>
      <trkpt lat="47.52604" lon="6.7748">
        <ele>433.9</ele>
        <time>2017-07-30T07:51:31.999Z</time>
      </trkpt>
      <trkpt lat="47.52606" lon="6.7748">
        <ele>434</ele>
        <time>2017-07-30T07:51:32.999Z</time>
      </trkpt>
      <trkpt lat="47.52609" lon="6.77476">
        <ele>434.9</ele>
        <time>2017-07-30T07:51:37.999Z</time>
      </trkpt>
      <trkpt lat="47.52613" lon="6.77469">
        <ele>435.6</ele>
        <time>2017-07-30T07:51:38.999Z</time>
      </trkpt>
      <trkpt lat="47.52614" lon="6.77464">
        <ele>435.7</ele>
        <time>2017-07-30T07:51:39.999Z</time>
      </trkpt>
      <trkpt lat="47.52618" lon="6.77459">
        <ele>435.7</ele>
        <time>2017-07-30T07:51:40.999Z</time>
      </trkpt>
      <trkpt lat="47.52623" lon="6.77454">
        <ele>436.1</ele>
        <time>2017-07-30T07:51:41.999Z</time>
      </trkpt>
      <trkpt lat="47.52628" lon="6.77451">
        <ele>436</ele>
        <time>2017-07-30T07:51:42.999Z</time>
      </trkpt>
      <trkpt lat="47.5263" lon="6.77449">
        <ele>435.9</ele>
        <time>2017-07-30T07:51:43.999Z</time>
      </trkpt>
      <trkpt lat="47.52634" lon="6.77446">
        <ele>435.9</ele>
        <time>2017-07-30T07:51:44.999Z</time>
      </trkpt>
      <trkpt lat="47.52639" lon="6.77442">
        <ele>435.8</ele>
        <time>2017-07-30T07:51:45.999Z</time>
      </trkpt>
      <trkpt lat="47.52642" lon="6.7744">
        <ele>435.7</ele>
        <time>2017-07-30T07:51:46.999Z</time>
      </trkpt>
      <trkpt lat="47.52646" lon="6.77437">
        <ele>435.6</ele>
        <time>2017-07-30T07:51:47.999Z</time>
      </trkpt>
      <trkpt lat="47.52648" lon="6.77436">
        <ele>435.6</ele>
        <time>2017-07-30T07:51:48.999Z</time>
      </trkpt>
      <trkpt lat="47.52653" lon="6.77433">
        <ele>435.6</ele>
        <time>2017-07-30T07:51:49.999Z</time>
      </trkpt>
      <trkpt lat="47.5266" lon="6.77431">
        <ele>435.7</ele>
        <time>2017-07-30T07:51:50.999Z</time>
      </trkpt>
      <trkpt lat="47.52667" lon="6.77429">
        <ele>435.8</ele>
        <time>2017-07-30T07:51:51.999Z</time>
      </trkpt>
      <trkpt lat="47.52672" lon="6.77432">
        <ele>435.8</ele>
        <time>2017-07-30T07:51:52.999Z</time>
      </trkpt>
      <trkpt lat="47.52675" lon="6.77434">
        <ele>436</ele>
        <time>2017-07-30T07:51:53.999Z</time>
      </trkpt>
      <trkpt lat="47.52679" lon="6.77435">
        <ele>436.1</ele>
        <time>2017-07-30T07:51:54.999Z</time>
      </trkpt>
      <trkpt lat="47.52684" lon="6.77438">
        <ele>436.3</ele>
        <time>2017-07-30T07:51:55.999Z</time>
      </trkpt>
      <trkpt lat="47.52688" lon="6.77439">
        <ele>436.5</ele>
        <time>2017-07-30T07:51:57.999Z</time>
      </trkpt>
      <trkpt lat="47.52691" lon="6.7744">
        <ele>436.6</ele>
        <time>2017-07-30T07:51:58.999Z</time>
      </trkpt>
      <trkpt lat="47.52694" lon="6.77442">
        <ele>436.8</ele>
        <time>2017-07-30T07:52:00.999Z</time>
      </trkpt>
      <trkpt lat="47.52697" lon="6.77444">
        <ele>436.9</ele>
        <time>2017-07-30T07:52:01.999Z</time>
      </trkpt>
      <trkpt lat="47.52699" lon="6.77446">
        <ele>436.9</ele>
        <time>2017-07-30T07:52:02.999Z</time>
      </trkpt>
      <trkpt lat="47.52701" lon="6.77447">
        <ele>437.1</ele>
        <time>2017-07-30T07:52:03.999Z</time>
      </trkpt>
      <trkpt lat="47.52704" lon="6.77448">
        <ele>437.4</ele>
        <time>2017-07-30T07:52:05.999Z</time>
      </trkpt>
      <trkpt lat="47.52706" lon="6.77449">
        <ele>437.7</ele>
        <time>2017-07-30T07:52:06.999Z</time>
      </trkpt>
      <trkpt lat="47.52709" lon="6.77451">
        <ele>438</ele>
        <time>2017-07-30T07:52:07.999Z</time>
      </trkpt>
      <trkpt lat="47.52711" lon="6.77453">
        <ele>438.3</ele>
        <time>2017-07-30T07:52:08.999Z</time>
      </trkpt>
      <trkpt lat="47.52713" lon="6.77456">
        <ele>438.6</ele>
        <time>2017-07-30T07:52:09.999Z</time>
      </trkpt>
      <trkpt lat="47.52716" lon="6.77457">
        <ele>438.9</ele>
        <time>2017-07-30T07:52:10.999Z</time>
      </trkpt>
      <trkpt lat="47.52718" lon="6.77458">
        <ele>439.2</ele>
        <time>2017-07-30T07:52:11.999Z</time>
      </trkpt>
      <trkpt lat="47.52723" lon="6.77461">
        <ele>439.5</ele>
        <time>2017-07-30T07:52:12.999Z</time>
      </trkpt>
      <trkpt lat="47.52725" lon="6.77465">
        <ele>439.8</ele>
        <time>2017-07-30T07:52:13.999Z</time>
      </trkpt>
      <trkpt lat="47.52728" lon="6.77468">
        <ele>440.1</ele>
        <time>2017-07-30T07:52:14.999Z</time>
      </trkpt>
      <trkpt lat="47.52729" lon="6.77471">
        <ele>440.5</ele>
        <time>2017-07-30T07:52:15.999Z</time>
      </trkpt>
      <trkpt lat="47.52732" lon="6.77473">
        <ele>440.8</ele>
        <time>2017-07-30T07:52:16.999Z</time>
      </trkpt>
      <trkpt lat="47.52736" lon="6.77476">
        <ele>441.1</ele>
        <time>2017-07-30T07:52:17.999Z</time>
      </trkpt>
      <trkpt lat="47.52739" lon="6.77479">
        <ele>441.5</ele>
        <time>2017-07-30T07:52:18.999Z</time>
      </trkpt>
      <trkpt lat="47.52745" lon="6.77489">
        <ele>441.7</ele>
        <time>2017-07-30T07:52:19.999Z</time>
      </trkpt>
      <trkpt lat="47.52747" lon="6.77492">
        <ele>442</ele>
        <time>2017-07-30T07:52:20.999Z</time>
      </trkpt>
      <trkpt lat="47.52751" lon="6.77497">
        <ele>442.2</ele>
        <time>2017-07-30T07:52:21.999Z</time>
      </trkpt>
      <trkpt lat="47.52755" lon="6.77503">
        <ele>442.4</ele>
        <time>2017-07-30T07:52:22.999Z</time>
      </trkpt>
      <trkpt lat="47.5276" lon="6.77503">
        <ele>442.7</ele>
        <time>2017-07-30T07:52:23.999Z</time>
      </trkpt>
      <trkpt lat="47.52763" lon="6.77503">
        <ele>442.9</ele>
        <time>2017-07-30T07:52:24.999Z</time>
      </trkpt>
      <trkpt lat="47.52765" lon="6.77503">
        <ele>443</ele>
        <time>2017-07-30T07:52:25.999Z</time>
      </trkpt>
      <trkpt lat="47.52768" lon="6.77503">
        <ele>443.3</ele>
        <time>2017-07-30T07:52:26.999Z</time>
      </trkpt>
      <trkpt lat="47.52772" lon="6.77503">
        <ele>443.5</ele>
        <time>2017-07-30T07:52:27.999Z</time>
      </trkpt>
      <trkpt lat="47.52776" lon="6.77503">
        <ele>443.6</ele>
        <time>2017-07-30T07:52:28.999Z</time>
      </trkpt>
      <trkpt lat="47.5278" lon="6.77504">
        <ele>443.9</ele>
        <time>2017-07-30T07:52:29.999Z</time>
      </trkpt>
      <trkpt lat="47.52785" lon="6.77505">
        <ele>444.1</ele>
        <time>2017-07-30T07:52:30.999Z</time>
      </trkpt>
      <trkpt lat="47.5279" lon="6.77508">
        <ele>444.3</ele>
        <time>2017-07-30T07:52:31.999Z</time>
      </trkpt>
      <trkpt lat="47.52795" lon="6.77509">
        <ele>444.4</ele>
        <time>2017-07-30T07:52:32.999Z</time>
      </trkpt>
      <trkpt lat="47.52801" lon="6.77513">
        <ele>444.6</ele>
        <time>2017-07-30T07:52:33.999Z</time>
      </trkpt>
      <trkpt lat="47.52805" lon="6.77516">
        <ele>444.8</ele>
        <time>2017-07-30T07:52:34.999Z</time>
      </trkpt>
      <trkpt lat="47.5281" lon="6.77519">
        <ele>444.8</ele>
        <time>2017-07-30T07:52:35.999Z</time>
      </trkpt>
      <trkpt lat="47.52813" lon="6.77522">
        <ele>444.9</ele>
        <time>2017-07-30T07:52:36.999Z</time>
      </trkpt>
      <trkpt lat="47.52816" lon="6.77523">
        <ele>445.1</ele>
        <time>2017-07-30T07:52:37.999Z</time>
      </trkpt>
      <trkpt lat="47.52819" lon="6.77527">
        <ele>445.2</ele>
        <time>2017-07-30T07:52:38.999Z</time>
      </trkpt>
      <trkpt lat="47.52822" lon="6.77527">
        <ele>445.2</ele>
        <time>2017-07-30T07:52:39.999Z</time>
      </trkpt>
      <trkpt lat="47.52825" lon="6.77528">
        <ele>445.3</ele>
        <time>2017-07-30T07:52:40.999Z</time>
      </trkpt>
      <trkpt lat="47.52827" lon="6.77529">
        <ele>445.3</ele>
        <time>2017-07-30T07:52:41.999Z</time>
      </trkpt>
      <trkpt lat="47.52833" lon="6.77529">
        <ele>445.4</ele>
        <time>2017-07-30T07:52:42.999Z</time>
      </trkpt>
      <trkpt lat="47.52836" lon="6.77531">
        <ele>445.5</ele>
        <time>2017-07-30T07:52:43.999Z</time>
      </trkpt>
      <trkpt lat="47.52839" lon="6.77533">
        <ele>445.6</ele>
        <time>2017-07-30T07:52:44.999Z</time>
      </trkpt>
      <trkpt lat="47.52843" lon="6.77534">
        <ele>445.7</ele>
        <time>2017-07-30T07:52:45.999Z</time>
      </trkpt>
      <trkpt lat="47.52846" lon="6.77535">
        <ele>445.7</ele>
        <time>2017-07-30T07:52:46.999Z</time>
      </trkpt>
      <trkpt lat="47.52851" lon="6.77535">
        <ele>445.8</ele>
        <time>2017-07-30T07:52:47.999Z</time>
      </trkpt>
      <trkpt lat="47.52857" lon="6.77537">
        <ele>445.9</ele>
        <time>2017-07-30T07:52:48.999Z</time>
      </trkpt>
      <trkpt lat="47.52859" lon="6.77539">
        <ele>446.1</ele>
        <time>2017-07-30T07:52:49.999Z</time>
      </trkpt>
      <trkpt lat="47.5286" lon="6.77542">
        <ele>446.3</ele>
        <time>2017-07-30T07:52:50.999Z</time>
      </trkpt>
      <trkpt lat="47.52863" lon="6.77543">
        <ele>446.7</ele>
        <time>2017-07-30T07:52:52.999Z</time>
      </trkpt>
      <trkpt lat="47.52866" lon="6.77542">
        <ele>446.9</ele>
        <time>2017-07-30T07:52:53.999Z</time>
      </trkpt>
      <trkpt lat="47.5287" lon="6.77541">
        <ele>447.1</ele>
        <time>2017-07-30T07:52:54.999Z</time>
      </trkpt>
      <trkpt lat="47.52875" lon="6.77539">
        <ele>447.3</ele>
        <time>2017-07-30T07:52:55.999Z</time>
      </trkpt>
      <trkpt lat="47.5288" lon="6.77537">
        <ele>447.4</ele>
        <time>2017-07-30T07:52:56.999Z</time>
      </trkpt>
      <trkpt lat="47.52886" lon="6.77537">
        <ele>447.5</ele>
        <time>2017-07-30T07:52:57.999Z</time>
      </trkpt>
      <trkpt lat="47.52893" lon="6.77537">
        <ele>447.6</ele>
        <time>2017-07-30T07:52:58.999Z</time>
      </trkpt>
      <trkpt lat="47.529" lon="6.77538">
        <ele>447.8</ele>
        <time>2017-07-30T07:52:59.999Z</time>
      </trkpt>
      <trkpt lat="47.52904" lon="6.77538">
        <ele>447.8</ele>
        <time>2017-07-30T07:53:00.999Z</time>
      </trkpt>
      <trkpt lat="47.5291" lon="6.77536">
        <ele>447.8</ele>
        <time>2017-07-30T07:53:01.999Z</time>
      </trkpt>
      <trkpt lat="47.52916" lon="6.77538">
        <ele>447.8</ele>
        <time>2017-07-30T07:53:02.999Z</time>
      </trkpt>
      <trkpt lat="47.5292" lon="6.7754">
        <ele>447.7</ele>
        <time>2017-07-30T07:53:03.999Z</time>
      </trkpt>
      <trkpt lat="47.52925" lon="6.77543">
        <ele>447.7</ele>
        <time>2017-07-30T07:53:04.999Z</time>
      </trkpt>
      <trkpt lat="47.52931" lon="6.77544">
        <ele>447.6</ele>
        <time>2017-07-30T07:53:05.999Z</time>
      </trkpt>
      <trkpt lat="47.52935" lon="6.77545">
        <ele>447.6</ele>
        <time>2017-07-30T07:53:06.999Z</time>
      </trkpt>
      <trkpt lat="47.52939" lon="6.77544">
        <ele>447.5</ele>
        <time>2017-07-30T07:53:07.999Z</time>
      </trkpt>
      <trkpt lat="47.52943" lon="6.77544">
        <ele>447.5</ele>
        <time>2017-07-30T07:53:08.999Z</time>
      </trkpt>
      <trkpt lat="47.52946" lon="6.77545">
        <ele>447.5</ele>
        <time>2017-07-30T07:53:09.999Z</time>
      </trkpt>
      <trkpt lat="47.52952" lon="6.77547">
        <ele>447.4</ele>
        <time>2017-07-30T07:53:10.999Z</time>
      </trkpt>
      <trkpt lat="47.52958" lon="6.77549">
        <ele>447.4</ele>
        <time>2017-07-30T07:53:11.999Z</time>
      </trkpt>
      <trkpt lat="47.52962" lon="6.7755">
        <ele>447.4</ele>
        <time>2017-07-30T07:53:12.999Z</time>
      </trkpt>
      <trkpt lat="47.52966" lon="6.7755">
        <ele>447.5</ele>
        <time>2017-07-30T07:53:13.999Z</time>
      </trkpt>
      <trkpt lat="47.52969" lon="6.77551">
        <ele>447.5</ele>
        <time>2017-07-30T07:53:14.999Z</time>
      </trkpt>
      <trkpt lat="47.52972" lon="6.77551">
        <ele>447.6</ele>
        <time>2017-07-30T07:53:15.999Z</time>
      </trkpt>
      <trkpt lat="47.52976" lon="6.77552">
        <ele>447.7</ele>
        <time>2017-07-30T07:53:16.999Z</time>
      </trkpt>
      <trkpt lat="47.52979" lon="6.77553">
        <ele>447.9</ele>
        <time>2017-07-30T07:53:17.999Z</time>
      </trkpt>
      <trkpt lat="47.52984" lon="6.77554">
        <ele>448.1</ele>
        <time>2017-07-30T07:53:18.999Z</time>
      </trkpt>
      <trkpt lat="47.52988" lon="6.77554">
        <ele>448.2</ele>
        <time>2017-07-30T07:53:19.999Z</time>
      </trkpt>
      <trkpt lat="47.52992" lon="6.77553">
        <ele>449.9</ele>
        <time>2017-07-30T07:53:20.999Z</time>
      </trkpt>
      <trkpt lat="47.52995" lon="6.77552">
        <ele>450</ele>
        <time>2017-07-30T07:53:21.999Z</time>
      </trkpt>
      <trkpt lat="47.52998" lon="6.77552">
        <ele>450.1</ele>
        <time>2017-07-30T07:53:22.999Z</time>
      </trkpt>
      <trkpt lat="47.53002" lon="6.77551">
        <ele>450.2</ele>
        <time>2017-07-30T07:53:23.999Z</time>
      </trkpt>
      <trkpt lat="47.53006" lon="6.77551">
        <ele>450.2</ele>
        <time>2017-07-30T07:53:24.999Z</time>
      </trkpt>
      <trkpt lat="47.53012" lon="6.77551">
        <ele>450.3</ele>
        <time>2017-07-30T07:53:25.999Z</time>
      </trkpt>
      <trkpt lat="47.53016" lon="6.77553">
        <ele>450.4</ele>
        <time>2017-07-30T07:53:26.999Z</time>
      </trkpt>
      <trkpt lat="47.53021" lon="6.77555">
        <ele>450.5</ele>
        <time>2017-07-30T07:53:27.999Z</time>
      </trkpt>
      <trkpt lat="47.53025" lon="6.77557">
        <ele>450.6</ele>
        <time>2017-07-30T07:53:28.999Z</time>
      </trkpt>
      <trkpt lat="47.53029" lon="6.77558">
        <ele>450.6</ele>
        <time>2017-07-30T07:53:29.999Z</time>
      </trkpt>
      <trkpt lat="47.53035" lon="6.77559">
        <ele>450.6</ele>
        <time>2017-07-30T07:53:30.999Z</time>
      </trkpt>
      <trkpt lat="47.53041" lon="6.77562">
        <ele>450.7</ele>
        <time>2017-07-30T07:53:31.999Z</time>
      </trkpt>
      <trkpt lat="47.53045" lon="6.77564">
        <ele>450.7</ele>
        <time>2017-07-30T07:53:32.999Z</time>
      </trkpt>
      <trkpt lat="47.53051" lon="6.77568">
        <ele>450.8</ele>
        <time>2017-07-30T07:53:33.999Z</time>
      </trkpt>
      <trkpt lat="47.53055" lon="6.77571">
        <ele>450.9</ele>
        <time>2017-07-30T07:53:34.999Z</time>
      </trkpt>
      <trkpt lat="47.53058" lon="6.77572">
        <ele>451</ele>
        <time>2017-07-30T07:53:35.999Z</time>
      </trkpt>
      <trkpt lat="47.5306" lon="6.77573">
        <ele>451.1</ele>
        <time>2017-07-30T07:53:36.999Z</time>
      </trkpt>
      <trkpt lat="47.53064" lon="6.77573">
        <ele>451.2</ele>
        <time>2017-07-30T07:53:37.999Z</time>
      </trkpt>
      <trkpt lat="47.53067" lon="6.77574">
        <ele>451.4</ele>
        <time>2017-07-30T07:53:38.999Z</time>
      </trkpt>
      <trkpt lat="47.53073" lon="6.77575">
        <ele>451.5</ele>
        <time>2017-07-30T07:53:39.999Z</time>
      </trkpt>
      <trkpt lat="47.53079" lon="6.77575">
        <ele>451.7</ele>
        <time>2017-07-30T07:53:40.999Z</time>
      </trkpt>
      <trkpt lat="47.53083" lon="6.77576">
        <ele>451.8</ele>
        <time>2017-07-30T07:53:41.999Z</time>
      </trkpt>
      <trkpt lat="47.53088" lon="6.77579">
        <ele>452</ele>
        <time>2017-07-30T07:53:42.999Z</time>
      </trkpt>
      <trkpt lat="47.5309" lon="6.77581">
        <ele>452.1</ele>
        <time>2017-07-30T07:53:43.999Z</time>
      </trkpt>
      <trkpt lat="47.53094" lon="6.77586">
        <ele>452.3</ele>
        <time>2017-07-30T07:53:44.999Z</time>
      </trkpt>
      <trkpt lat="47.53097" lon="6.77589">
        <ele>452.6</ele>
        <time>2017-07-30T07:53:45.999Z</time>
      </trkpt>
      <trkpt lat="47.53102" lon="6.77594">
        <ele>452.8</ele>
        <time>2017-07-30T07:53:46.999Z</time>
      </trkpt>
      <trkpt lat="47.53105" lon="6.77597">
        <ele>453</ele>
        <time>2017-07-30T07:53:47.999Z</time>
      </trkpt>
      <trkpt lat="47.53109" lon="6.776">
        <ele>453.3</ele>
        <time>2017-07-30T07:53:48.999Z</time>
      </trkpt>
      <trkpt lat="47.53112" lon="6.77609">
        <ele>453.5</ele>
        <time>2017-07-30T07:53:49.999Z</time>
      </trkpt>
      <trkpt lat="47.53112" lon="6.77612">
        <ele>453.9</ele>
        <time>2017-07-30T07:53:50.999Z</time>
      </trkpt>
      <trkpt lat="47.53114" lon="6.7762">
        <ele>454.2</ele>
        <time>2017-07-30T07:53:51.999Z</time>
      </trkpt>
      <trkpt lat="47.53116" lon="6.77625">
        <ele>454.5</ele>
        <time>2017-07-30T07:53:52.999Z</time>
      </trkpt>
      <trkpt lat="47.53117" lon="6.77632">
        <ele>454.7</ele>
        <time>2017-07-30T07:53:53.999Z</time>
      </trkpt>
      <trkpt lat="47.53118" lon="6.77636">
        <ele>454.9</ele>
        <time>2017-07-30T07:53:54.999Z</time>
      </trkpt>
      <trkpt lat="47.53119" lon="6.7764">
        <ele>455.2</ele>
        <time>2017-07-30T07:53:55.999Z</time>
      </trkpt>
      <trkpt lat="47.5312" lon="6.77645">
        <ele>455.6</ele>
        <time>2017-07-30T07:53:56.999Z</time>
      </trkpt>
      <trkpt lat="47.53121" lon="6.77649">
        <ele>455.8</ele>
        <time>2017-07-30T07:53:57.999Z</time>
      </trkpt>
      <trkpt lat="47.53121" lon="6.77654">
        <ele>456</ele>
        <time>2017-07-30T07:53:58.999Z</time>
      </trkpt>
      <trkpt lat="47.53122" lon="6.77661">
        <ele>456.3</ele>
        <time>2017-07-30T07:53:59.999Z</time>
      </trkpt>
      <trkpt lat="47.53122" lon="6.77666">
        <ele>456.6</ele>
        <time>2017-07-30T07:54:00.999Z</time>
      </trkpt>
      <trkpt lat="47.53122" lon="6.77675">
        <ele>456.9</ele>
        <time>2017-07-30T07:54:01.999Z</time>
      </trkpt>
      <trkpt lat="47.53124" lon="6.77685">
        <ele>457.2</ele>
        <time>2017-07-30T07:54:02.999Z</time>
      </trkpt>
      <trkpt lat="47.53126" lon="6.77691">
        <ele>457.5</ele>
        <time>2017-07-30T07:54:03.999Z</time>
      </trkpt>
      <trkpt lat="47.53131" lon="6.777">
        <ele>457.9</ele>
        <time>2017-07-30T07:54:04.999Z</time>
      </trkpt>
      <trkpt lat="47.53133" lon="6.77704">
        <ele>458.3</ele>
        <time>2017-07-30T07:54:05.999Z</time>
      </trkpt>
      <trkpt lat="47.53134" lon="6.77709">
        <ele>458.6</ele>
        <time>2017-07-30T07:54:06.999Z</time>
      </trkpt>
      <trkpt lat="47.53135" lon="6.77713">
        <ele>458.9</ele>
        <time>2017-07-30T07:54:07.999Z</time>
      </trkpt>
      <trkpt lat="47.53137" lon="6.77718">
        <ele>459.3</ele>
        <time>2017-07-30T07:54:08.999Z</time>
      </trkpt>
      <trkpt lat="47.5314" lon="6.77724">
        <ele>459.6</ele>
        <time>2017-07-30T07:54:09.999Z</time>
      </trkpt>
      <trkpt lat="47.53142" lon="6.77731">
        <ele>463.4</ele>
        <time>2017-07-30T07:54:10.999Z</time>
      </trkpt>
      <trkpt lat="47.53145" lon="6.77737">
        <ele>466.5</ele>
        <time>2017-07-30T07:54:11.999Z</time>
      </trkpt>
      <trkpt lat="47.53147" lon="6.77741">
        <ele>466.7</ele>
        <time>2017-07-30T07:54:12.999Z</time>
      </trkpt>
      <trkpt lat="47.5315" lon="6.77746">
        <ele>466.9</ele>
        <time>2017-07-30T07:54:13.999Z</time>
      </trkpt>
      <trkpt lat="47.53153" lon="6.77751">
        <ele>467.1</ele>
        <time>2017-07-30T07:54:14.999Z</time>
      </trkpt>
      <trkpt lat="47.53155" lon="6.77756">
        <ele>467.3</ele>
        <time>2017-07-30T07:54:15.999Z</time>
      </trkpt>
      <trkpt lat="47.53157" lon="6.77762">
        <ele>467.5</ele>
        <time>2017-07-30T07:54:16.999Z</time>
      </trkpt>
      <trkpt lat="47.53159" lon="6.77769">
        <ele>467.6</ele>
        <time>2017-07-30T07:54:17.999Z</time>
      </trkpt>
      <trkpt lat="47.53161" lon="6.77779">
        <ele>467.9</ele>
        <time>2017-07-30T07:54:18.999Z</time>
      </trkpt>
      <trkpt lat="47.53163" lon="6.77785">
        <ele>468.1</ele>
        <time>2017-07-30T07:54:19.999Z</time>
      </trkpt>
      <trkpt lat="47.53166" lon="6.77796">
        <ele>468.3</ele>
        <time>2017-07-30T07:54:20.999Z</time>
      </trkpt>
      <trkpt lat="47.53167" lon="6.77805">
        <ele>468.6</ele>
        <time>2017-07-30T07:54:21.999Z</time>
      </trkpt>
      <trkpt lat="47.53167" lon="6.77812">
        <ele>468.9</ele>
        <time>2017-07-30T07:54:22.999Z</time>
      </trkpt>
      <trkpt lat="47.53164" lon="6.77822">
        <ele>469.1</ele>
        <time>2017-07-30T07:54:23.999Z</time>
      </trkpt>
      <trkpt lat="47.53162" lon="6.77835">
        <ele>471.1</ele>
        <time>2017-07-30T07:54:24.999Z</time>
      </trkpt>
      <trkpt lat="47.53162" lon="6.77847">
        <ele>472.3</ele>
        <time>2017-07-30T07:54:25.999Z</time>
      </trkpt>
      <trkpt lat="47.53163" lon="6.7786">
        <ele>472.7</ele>
        <time>2017-07-30T07:54:26.999Z</time>
      </trkpt>
      <trkpt lat="47.53164" lon="6.77875">
        <ele>473.2</ele>
        <time>2017-07-30T07:54:27.999Z</time>
      </trkpt>
      <trkpt lat="47.53164" lon="6.77891">
        <ele>472.7</ele>
        <time>2017-07-30T07:54:28.999Z</time>
      </trkpt>
      <trkpt lat="47.53165" lon="6.77905">
        <ele>471.9</ele>
        <time>2017-07-30T07:54:29.999Z</time>
      </trkpt>
      <trkpt lat="47.53167" lon="6.77925">
        <ele>469.2</ele>
        <time>2017-07-30T07:54:30.999Z</time>
      </trkpt>
      <trkpt lat="47.53165" lon="6.77943">
        <ele>465.8</ele>
        <time>2017-07-30T07:54:31.999Z</time>
      </trkpt>
      <trkpt lat="47.53164" lon="6.77957">
        <ele>462.1</ele>
        <time>2017-07-30T07:54:32.999Z</time>
      </trkpt>
      <trkpt lat="47.53165" lon="6.77969">
        <ele>459.1</ele>
        <time>2017-07-30T07:54:33.999Z</time>
      </trkpt>
      <trkpt lat="47.53167" lon="6.77981">
        <ele>457</ele>
        <time>2017-07-30T07:54:34.999Z</time>
      </trkpt>
      <trkpt lat="47.53169" lon="6.77994">
        <ele>455.2</ele>
        <time>2017-07-30T07:54:35.999Z</time>
      </trkpt>
      <trkpt lat="47.53173" lon="6.78006">
        <ele>453.8</ele>
        <time>2017-07-30T07:54:36.999Z</time>
      </trkpt>
      <trkpt lat="47.53175" lon="6.78018">
        <ele>451.8</ele>
        <time>2017-07-30T07:54:37.999Z</time>
      </trkpt>
      <trkpt lat="47.53177" lon="6.78031">
        <ele>450.2</ele>
        <time>2017-07-30T07:54:38.999Z</time>
      </trkpt>
      <trkpt lat="47.53178" lon="6.78045">
        <ele>448.7</ele>
        <time>2017-07-30T07:54:39.999Z</time>
      </trkpt>
      <trkpt lat="47.53179" lon="6.78058">
        <ele>447.2</ele>
        <time>2017-07-30T07:54:40.999Z</time>
      </trkpt>
      <trkpt lat="47.5318" lon="6.78072">
        <ele>446.4</ele>
        <time>2017-07-30T07:54:41.999Z</time>
      </trkpt>
      <trkpt lat="47.53181" lon="6.78086">
        <ele>445.8</ele>
        <time>2017-07-30T07:54:42.999Z</time>
      </trkpt>
      <trkpt lat="47.53181" lon="6.781">
        <ele>445.5</ele>
        <time>2017-07-30T07:54:43.999Z</time>
      </trkpt>
      <trkpt lat="47.53181" lon="6.78117">
        <ele>444.8</ele>
        <time>2017-07-30T07:54:44.999Z</time>
      </trkpt>
      <trkpt lat="47.53182" lon="6.78131">
        <ele>444</ele>
        <time>2017-07-30T07:54:45.999Z</time>
      </trkpt>
      <trkpt lat="47.53182" lon="6.78146">
        <ele>443.9</ele>
        <time>2017-07-30T07:54:46.999Z</time>
      </trkpt>
      <trkpt lat="47.53182" lon="6.7816">
        <ele>444</ele>
        <time>2017-07-30T07:54:47.999Z</time>
      </trkpt>
      <trkpt lat="47.53183" lon="6.78173">
        <ele>444.4</ele>
        <time>2017-07-30T07:54:48.999Z</time>
      </trkpt>
      <trkpt lat="47.53183" lon="6.78182">
        <ele>444.4</ele>
        <time>2017-07-30T07:54:49.999Z</time>
      </trkpt>
      <trkpt lat="47.53184" lon="6.7819">
        <ele>443.6</ele>
        <time>2017-07-30T07:54:50.999Z</time>
      </trkpt>
      <trkpt lat="47.53182" lon="6.78199">
        <ele>443.5</ele>
        <time>2017-07-30T07:54:51.999Z</time>
      </trkpt>
      <trkpt lat="47.5318" lon="6.78207">
        <ele>443.4</ele>
        <time>2017-07-30T07:54:52.999Z</time>
      </trkpt>
      <trkpt lat="47.53178" lon="6.78215">
        <ele>442.2</ele>
        <time>2017-07-30T07:54:53.999Z</time>
      </trkpt>
      <trkpt lat="47.53175" lon="6.78227">
        <ele>441.3</ele>
        <time>2017-07-30T07:54:54.999Z</time>
      </trkpt>
      <trkpt lat="47.53171" lon="6.78241">
        <ele>439.9</ele>
        <time>2017-07-30T07:54:55.999Z</time>
      </trkpt>
      <trkpt lat="47.53168" lon="6.78251">
        <ele>438.6</ele>
        <time>2017-07-30T07:54:56.999Z</time>
      </trkpt>
      <trkpt lat="47.53163" lon="6.78261">
        <ele>437.8</ele>
        <time>2017-07-30T07:54:57.999Z</time>
      </trkpt>
      <trkpt lat="47.53159" lon="6.78269">
        <ele>436.6</ele>
        <time>2017-07-30T07:54:58.999Z</time>
      </trkpt>
      <trkpt lat="47.53155" lon="6.78277">
        <ele>436</ele>
        <time>2017-07-30T07:54:59.999Z</time>
      </trkpt>
      <trkpt lat="47.5315" lon="6.78285">
        <ele>436.1</ele>
        <time>2017-07-30T07:55:00.999Z</time>
      </trkpt>
      <trkpt lat="47.53144" lon="6.78294">
        <ele>435.1</ele>
        <time>2017-07-30T07:55:01.999Z</time>
      </trkpt>
      <trkpt lat="47.53137" lon="6.78302">
        <ele>435</ele>
        <time>2017-07-30T07:55:02.999Z</time>
      </trkpt>
      <trkpt lat="47.53131" lon="6.78311">
        <ele>434.9</ele>
        <time>2017-07-30T07:55:03.999Z</time>
      </trkpt>
      <trkpt lat="47.53127" lon="6.78314">
        <ele>434.7</ele>
        <time>2017-07-30T07:55:04.999Z</time>
      </trkpt>
      <trkpt lat="47.53125" lon="6.78322">
        <ele>433.5</ele>
        <time>2017-07-30T07:55:05.999Z</time>
      </trkpt>
      <trkpt lat="47.53122" lon="6.7833">
        <ele>432.7</ele>
        <time>2017-07-30T07:55:06.999Z</time>
      </trkpt>
      <trkpt lat="47.53118" lon="6.78338">
        <ele>431.6</ele>
        <time>2017-07-30T07:55:07.999Z</time>
      </trkpt>
      <trkpt lat="47.53114" lon="6.78347">
        <ele>430.4</ele>
        <time>2017-07-30T07:55:08.999Z</time>
      </trkpt>
      <trkpt lat="47.53109" lon="6.78351">
        <ele>430.4</ele>
        <time>2017-07-30T07:55:09.999Z</time>
      </trkpt>
      <trkpt lat="47.53103" lon="6.78358">
        <ele>429.6</ele>
        <time>2017-07-30T07:55:10.999Z</time>
      </trkpt>
      <trkpt lat="47.53095" lon="6.78363">
        <ele>428.7</ele>
        <time>2017-07-30T07:55:11.999Z</time>
      </trkpt>
      <trkpt lat="47.53089" lon="6.78366">
        <ele>428.6</ele>
        <time>2017-07-30T07:55:12.999Z</time>
      </trkpt>
      <trkpt lat="47.53084" lon="6.78369">
        <ele>428.6</ele>
        <time>2017-07-30T07:55:13.999Z</time>
      </trkpt>
      <trkpt lat="47.53078" lon="6.78371">
        <ele>428.6</ele>
        <time>2017-07-30T07:55:14.999Z</time>
      </trkpt>
      <trkpt lat="47.53073" lon="6.78372">
        <ele>428.6</ele>
        <time>2017-07-30T07:55:15.999Z</time>
      </trkpt>
      <trkpt lat="47.53066" lon="6.78374">
        <ele>428.6</ele>
        <time>2017-07-30T07:55:16.999Z</time>
      </trkpt>
      <trkpt lat="47.53058" lon="6.78376">
        <ele>428.5</ele>
        <time>2017-07-30T07:55:17.999Z</time>
      </trkpt>
      <trkpt lat="47.5305" lon="6.7838">
        <ele>428.5</ele>
        <time>2017-07-30T07:55:18.999Z</time>
      </trkpt>
      <trkpt lat="47.53044" lon="6.78383">
        <ele>428.3</ele>
        <time>2017-07-30T07:55:19.999Z</time>
      </trkpt>
      <trkpt lat="47.53038" lon="6.78386">
        <ele>428.1</ele>
        <time>2017-07-30T07:55:20.999Z</time>
      </trkpt>
      <trkpt lat="47.53032" lon="6.78391">
        <ele>428</ele>
        <time>2017-07-30T07:55:21.999Z</time>
      </trkpt>
      <trkpt lat="47.53027" lon="6.784">
        <ele>425.7</ele>
        <time>2017-07-30T07:55:22.999Z</time>
      </trkpt>
      <trkpt lat="47.53023" lon="6.78409">
        <ele>423.2</ele>
        <time>2017-07-30T07:55:23.999Z</time>
      </trkpt>
      <trkpt lat="47.53019" lon="6.78417">
        <ele>420.2</ele>
        <time>2017-07-30T07:55:24.999Z</time>
      </trkpt>
      <trkpt lat="47.53014" lon="6.78423">
        <ele>420</ele>
        <time>2017-07-30T07:55:25.999Z</time>
      </trkpt>
      <trkpt lat="47.5301" lon="6.78426">
        <ele>419.7</ele>
        <time>2017-07-30T07:55:28.999Z</time>
      </trkpt>
      <trkpt lat="47.53008" lon="6.78429">
        <ele>419.6</ele>
        <time>2017-07-30T07:55:29.999Z</time>
      </trkpt>
      <trkpt lat="47.53008" lon="6.78429">
        <ele>419.4</ele>
        <time>2017-07-30T07:55:34.999Z</time>
      </trkpt>
      <trkpt lat="47.52995" lon="6.78431">
        <ele>419.2</ele>
        <time>2017-07-30T07:55:35.999Z</time>
      </trkpt>
      <trkpt lat="47.52995" lon="6.78431">
        <ele>419</ele>
        <time>2017-07-30T07:55:36.999Z</time>
      </trkpt>
      <trkpt lat="47.52986" lon="6.7843">
        <ele>418.8</ele>
        <time>2017-07-30T07:55:37.999Z</time>
      </trkpt>
      <trkpt lat="47.52983" lon="6.78431">
        <ele>418.5</ele>
        <time>2017-07-30T07:55:38.999Z</time>
      </trkpt>
      <trkpt lat="47.5298" lon="6.78433">
        <ele>418.2</ele>
        <time>2017-07-30T07:55:39.999Z</time>
      </trkpt>
      <trkpt lat="47.52978" lon="6.78435">
        <ele>418</ele>
        <time>2017-07-30T07:55:40.999Z</time>
      </trkpt>
      <trkpt lat="47.52975" lon="6.78437">
        <ele>417.9</ele>
        <time>2017-07-30T07:55:41.999Z</time>
      </trkpt>
      <trkpt lat="47.52972" lon="6.7844">
        <ele>417.7</ele>
        <time>2017-07-30T07:55:42.999Z</time>
      </trkpt>
      <trkpt lat="47.52968" lon="6.78443">
        <ele>417.6</ele>
        <time>2017-07-30T07:55:43.999Z</time>
      </trkpt>
      <trkpt lat="47.52966" lon="6.78445">
        <ele>417.4</ele>
        <time>2017-07-30T07:55:44.999Z</time>
      </trkpt>
      <trkpt lat="47.52965" lon="6.78448">
        <ele>417.3</ele>
        <time>2017-07-30T07:55:45.999Z</time>
      </trkpt>
      <trkpt lat="47.52964" lon="6.78454">
        <ele>416.7</ele>
        <time>2017-07-30T07:55:49.999Z</time>
      </trkpt>
      <trkpt lat="47.52965" lon="6.78456">
        <ele>416.4</ele>
        <time>2017-07-30T07:55:50.999Z</time>
      </trkpt>
      <trkpt lat="47.52967" lon="6.7846">
        <ele>416</ele>
        <time>2017-07-30T07:55:52.999Z</time>
      </trkpt>
      <trkpt lat="47.52968" lon="6.78461">
        <ele>415.7</ele>
        <time>2017-07-30T07:55:53.999Z</time>
      </trkpt>
      <trkpt lat="47.52969" lon="6.78463">
        <ele>412.9</ele>
        <time>2017-07-30T07:56:09.999Z</time>
      </trkpt>
      <trkpt lat="47.52976" lon="6.78474">
        <ele>412.7</ele>
        <time>2017-07-30T07:56:10.999Z</time>
      </trkpt>
      <trkpt lat="47.52978" lon="6.78477">
        <ele>412.3</ele>
        <time>2017-07-30T07:56:11.999Z</time>
      </trkpt>
      <trkpt lat="47.52978" lon="6.78481">
        <ele>412.2</ele>
        <time>2017-07-30T07:56:12.999Z</time>
      </trkpt>
      <trkpt lat="47.52978" lon="6.78486">
        <ele>412</ele>
        <time>2017-07-30T07:56:13.999Z</time>
      </trkpt>
      <trkpt lat="47.52979" lon="6.78491">
        <ele>411.9</ele>
        <time>2017-07-30T07:56:14.999Z</time>
      </trkpt>
      <trkpt lat="47.52979" lon="6.78497">
        <ele>411.7</ele>
        <time>2017-07-30T07:56:15.999Z</time>
      </trkpt>
      <trkpt lat="47.52977" lon="6.78502">
        <ele>411.6</ele>
        <time>2017-07-30T07:56:16.999Z</time>
      </trkpt>
      <trkpt lat="47.52975" lon="6.78506">
        <ele>410.9</ele>
        <time>2017-07-30T07:56:17.999Z</time>
      </trkpt>
      <trkpt lat="47.52973" lon="6.78512">
        <ele>410.9</ele>
        <time>2017-07-30T07:56:18.999Z</time>
      </trkpt>
      <trkpt lat="47.52972" lon="6.78518">
        <ele>410.9</ele>
        <time>2017-07-30T07:56:20.999Z</time>
      </trkpt>
      <trkpt lat="47.52973" lon="6.78521">
        <ele>410.8</ele>
        <time>2017-07-30T07:56:21.999Z</time>
      </trkpt>
      <trkpt lat="47.52972" lon="6.78526">
        <ele>410.5</ele>
        <time>2017-07-30T07:56:23.999Z</time>
      </trkpt>
      <trkpt lat="47.52972" lon="6.78529">
        <ele>410.4</ele>
        <time>2017-07-30T07:56:24.999Z</time>
      </trkpt>
      <trkpt lat="47.52973" lon="6.78533">
        <ele>410.2</ele>
        <time>2017-07-30T07:56:26.999Z</time>
      </trkpt>
      <trkpt lat="47.52975" lon="6.78534">
        <ele>410</ele>
        <time>2017-07-30T07:56:27.999Z</time>
      </trkpt>
      <trkpt lat="47.52977" lon="6.78534">
        <ele>409.7</ele>
        <time>2017-07-30T07:56:28.999Z</time>
      </trkpt>
      <trkpt lat="47.52979" lon="6.78533">
        <ele>409.4</ele>
        <time>2017-07-30T07:56:29.999Z</time>
      </trkpt>
      <trkpt lat="47.52983" lon="6.78532">
        <ele>408.8</ele>
        <time>2017-07-30T07:56:31.999Z</time>
      </trkpt>
      <trkpt lat="47.52984" lon="6.78532">
        <ele>408.4</ele>
        <time>2017-07-30T07:56:32.999Z</time>
      </trkpt>
      <trkpt lat="47.52988" lon="6.78529">
        <ele>407.6</ele>
        <time>2017-07-30T07:56:34.999Z</time>
      </trkpt>
      <trkpt lat="47.5299" lon="6.78527">
        <ele>407.3</ele>
        <time>2017-07-30T07:56:35.999Z</time>
      </trkpt>
      <trkpt lat="47.52992" lon="6.78525">
        <ele>406.9</ele>
        <time>2017-07-30T07:56:36.999Z</time>
      </trkpt>
      <trkpt lat="47.52994" lon="6.78523">
        <ele>406.7</ele>
        <time>2017-07-30T07:56:37.999Z</time>
      </trkpt>
      <trkpt lat="47.52996" lon="6.78521">
        <ele>406.3</ele>
        <time>2017-07-30T07:56:38.999Z</time>
      </trkpt>
      <trkpt lat="47.53007" lon="6.78513">
        <ele>405.4</ele>
        <time>2017-07-30T07:56:42.999Z</time>
      </trkpt>
      <trkpt lat="47.53011" lon="6.78511">
        <ele>405.2</ele>
        <time>2017-07-30T07:56:43.999Z</time>
      </trkpt>
      <trkpt lat="47.53031" lon="6.78507">
        <ele>400.3</ele>
        <time>2017-07-30T07:56:47.999Z</time>
      </trkpt>
      <trkpt lat="47.53037" lon="6.78506">
        <ele>399.6</ele>
        <time>2017-07-30T07:56:48.999Z</time>
      </trkpt>
      <trkpt lat="47.53042" lon="6.78505">
        <ele>399.2</ele>
        <time>2017-07-30T07:56:49.999Z</time>
      </trkpt>
      <trkpt lat="47.53049" lon="6.78504">
        <ele>398.6</ele>
        <time>2017-07-30T07:56:50.999Z</time>
      </trkpt>
      <trkpt lat="47.53056" lon="6.78504">
        <ele>398.1</ele>
        <time>2017-07-30T07:56:51.999Z</time>
      </trkpt>
      <trkpt lat="47.53063" lon="6.78504">
        <ele>397.9</ele>
        <time>2017-07-30T07:56:52.999Z</time>
      </trkpt>
      <trkpt lat="47.5307" lon="6.78505">
        <ele>398.1</ele>
        <time>2017-07-30T07:56:53.999Z</time>
      </trkpt>
      <trkpt lat="47.53078" lon="6.78505">
        <ele>398.1</ele>
        <time>2017-07-30T07:56:54.999Z</time>
      </trkpt>
      <trkpt lat="47.53086" lon="6.78504">
        <ele>398.4</ele>
        <time>2017-07-30T07:56:55.999Z</time>
      </trkpt>
      <trkpt lat="47.53094" lon="6.78503">
        <ele>399.4</ele>
        <time>2017-07-30T07:56:56.999Z</time>
      </trkpt>
      <trkpt lat="47.53102" lon="6.78502">
        <ele>399.3</ele>
        <time>2017-07-30T07:56:57.999Z</time>
      </trkpt>
      <trkpt lat="47.53109" lon="6.78501">
        <ele>399.4</ele>
        <time>2017-07-30T07:56:58.999Z</time>
      </trkpt>
      <trkpt lat="47.53117" lon="6.785">
        <ele>398.6</ele>
        <time>2017-07-30T07:56:59.999Z</time>
      </trkpt>
      <trkpt lat="47.53124" lon="6.78499">
        <ele>398.2</ele>
        <time>2017-07-30T07:57:00.999Z</time>
      </trkpt>
      <trkpt lat="47.53131" lon="6.78498">
        <ele>397.9</ele>
        <time>2017-07-30T07:57:01.999Z</time>
      </trkpt>
      <trkpt lat="47.53138" lon="6.78496">
        <ele>397.7</ele>
        <time>2017-07-30T07:57:02.999Z</time>
      </trkpt>
      <trkpt lat="47.53144" lon="6.78495">
        <ele>397</ele>
        <time>2017-07-30T07:57:03.999Z</time>
      </trkpt>
      <trkpt lat="47.5315" lon="6.78494">
        <ele>396.2</ele>
        <time>2017-07-30T07:57:04.999Z</time>
      </trkpt>
      <trkpt lat="47.53156" lon="6.78494">
        <ele>395.4</ele>
        <time>2017-07-30T07:57:05.999Z</time>
      </trkpt>
      <trkpt lat="47.53161" lon="6.78493">
        <ele>395.8</ele>
        <time>2017-07-30T07:57:06.999Z</time>
      </trkpt>
      <trkpt lat="47.53166" lon="6.78492">
        <ele>395.8</ele>
        <time>2017-07-30T07:57:08.000Z</time>
      </trkpt>
      <trkpt lat="47.53169" lon="6.78491">
        <ele>395.9</ele>
        <time>2017-07-30T07:57:08.999Z</time>
      </trkpt>
      <trkpt lat="47.53173" lon="6.78491">
        <ele>395.9</ele>
        <time>2017-07-30T07:57:09.999Z</time>
      </trkpt>
      <trkpt lat="47.53177" lon="6.78491">
        <ele>395.9</ele>
        <time>2017-07-30T07:57:11.000Z</time>
      </trkpt>
      <trkpt lat="47.5318" lon="6.7849">
        <ele>395.8</ele>
        <time>2017-07-30T07:57:12.000Z</time>
      </trkpt>
      <trkpt lat="47.53184" lon="6.7849">
        <ele>395.8</ele>
        <time>2017-07-30T07:57:13.000Z</time>
      </trkpt>
      <trkpt lat="47.53188" lon="6.78489">
        <ele>395.8</ele>
        <time>2017-07-30T07:57:14.000Z</time>
      </trkpt>
      <trkpt lat="47.53191" lon="6.78488">
        <ele>395.7</ele>
        <time>2017-07-30T07:57:15.000Z</time>
      </trkpt>
      <trkpt lat="47.53195" lon="6.78487">
        <ele>395.7</ele>
        <time>2017-07-30T07:57:16.000Z</time>
      </trkpt>
      <trkpt lat="47.532" lon="6.78486">
        <ele>395.5</ele>
        <time>2017-07-30T07:57:17.000Z</time>
      </trkpt>
      <trkpt lat="47.53205" lon="6.78485">
        <ele>394.5</ele>
        <time>2017-07-30T07:57:18.000Z</time>
      </trkpt>
      <trkpt lat="47.53209" lon="6.78483">
        <ele>393.2</ele>
        <time>2017-07-30T07:57:19.000Z</time>
      </trkpt>
      <trkpt lat="47.53214" lon="6.78482">
        <ele>391.9</ele>
        <time>2017-07-30T07:57:20.000Z</time>
      </trkpt>
      <trkpt lat="47.53219" lon="6.7848">
        <ele>391.5</ele>
        <time>2017-07-30T07:57:21.000Z</time>
      </trkpt>
      <trkpt lat="47.53222" lon="6.78479">
        <ele>390.6</ele>
        <time>2017-07-30T07:57:22.000Z</time>
      </trkpt>
      <trkpt lat="47.53227" lon="6.78479">
        <ele>389.9</ele>
        <time>2017-07-30T07:57:23.000Z</time>
      </trkpt>
      <trkpt lat="47.53233" lon="6.78478">
        <ele>389.9</ele>
        <time>2017-07-30T07:57:24.000Z</time>
      </trkpt>
      <trkpt lat="47.53239" lon="6.78477">
        <ele>390.2</ele>
        <time>2017-07-30T07:57:25.000Z</time>
      </trkpt>
      <trkpt lat="47.53246" lon="6.78475">
        <ele>390.8</ele>
        <time>2017-07-30T07:57:26.000Z</time>
      </trkpt>
      <trkpt lat="47.53253" lon="6.78474">
        <ele>391.5</ele>
        <time>2017-07-30T07:57:27.000Z</time>
      </trkpt>
      <trkpt lat="47.5326" lon="6.78472">
        <ele>392.4</ele>
        <time>2017-07-30T07:57:28.000Z</time>
      </trkpt>
      <trkpt lat="47.53268" lon="6.7847">
        <ele>392.7</ele>
        <time>2017-07-30T07:57:29.000Z</time>
      </trkpt>
      <trkpt lat="47.53275" lon="6.78469">
        <ele>392.8</ele>
        <time>2017-07-30T07:57:30.000Z</time>
      </trkpt>
      <trkpt lat="47.53282" lon="6.78468">
        <ele>392.6</ele>
        <time>2017-07-30T07:57:31.000Z</time>
      </trkpt>
      <trkpt lat="47.53288" lon="6.78467">
        <ele>392.8</ele>
        <time>2017-07-30T07:57:32.000Z</time>
      </trkpt>
      <trkpt lat="47.53294" lon="6.78468">
        <ele>393</ele>
        <time>2017-07-30T07:57:33.000Z</time>
      </trkpt>
      <trkpt lat="47.53301" lon="6.78468">
        <ele>392.5</ele>
        <time>2017-07-30T07:57:34.000Z</time>
      </trkpt>
      <trkpt lat="47.53307" lon="6.78467">
        <ele>392.1</ele>
        <time>2017-07-30T07:57:35.000Z</time>
      </trkpt>
      <trkpt lat="47.53313" lon="6.78466">
        <ele>392.3</ele>
        <time>2017-07-30T07:57:36.000Z</time>
      </trkpt>
      <trkpt lat="47.53317" lon="6.78466">
        <ele>392.4</ele>
        <time>2017-07-30T07:57:37.000Z</time>
      </trkpt>
      <trkpt lat="47.53321" lon="6.78466">
        <ele>392.8</ele>
        <time>2017-07-30T07:57:38.000Z</time>
      </trkpt>
      <trkpt lat="47.53325" lon="6.78465">
        <ele>392.8</ele>
        <time>2017-07-30T07:57:39.000Z</time>
      </trkpt>
      <trkpt lat="47.5333" lon="6.78465">
        <ele>392.8</ele>
        <time>2017-07-30T07:57:40.000Z</time>
      </trkpt>
      <trkpt lat="47.53335" lon="6.78464">
        <ele>392.8</ele>
        <time>2017-07-30T07:57:41.000Z</time>
      </trkpt>
      <trkpt lat="47.53339" lon="6.78464">
        <ele>392.8</ele>
        <time>2017-07-30T07:57:42.000Z</time>
      </trkpt>
      <trkpt lat="47.53342" lon="6.78463">
        <ele>392.7</ele>
        <time>2017-07-30T07:57:43.000Z</time>
      </trkpt>
      <trkpt lat="47.53345" lon="6.78463">
        <ele>392.6</ele>
        <time>2017-07-30T07:57:44.000Z</time>
      </trkpt>
      <trkpt lat="47.53348" lon="6.78463">
        <ele>392.6</ele>
        <time>2017-07-30T07:57:45.000Z</time>
      </trkpt>
      <trkpt lat="47.53351" lon="6.78461">
        <ele>392.5</ele>
        <time>2017-07-30T07:57:46.000Z</time>
      </trkpt>
      <trkpt lat="47.53356" lon="6.78459">
        <ele>392.4</ele>
        <time>2017-07-30T07:57:47.000Z</time>
      </trkpt>
      <trkpt lat="47.5336" lon="6.78457">
        <ele>392.2</ele>
        <time>2017-07-30T07:57:48.000Z</time>
      </trkpt>
      <trkpt lat="47.53365" lon="6.78455">
        <ele>391.2</ele>
        <time>2017-07-30T07:57:49.000Z</time>
      </trkpt>
      <trkpt lat="47.5337" lon="6.78453">
        <ele>390.2</ele>
        <time>2017-07-30T07:57:50.000Z</time>
      </trkpt>
      <trkpt lat="47.53373" lon="6.78452">
        <ele>389.6</ele>
        <time>2017-07-30T07:57:51.000Z</time>
      </trkpt>
      <trkpt lat="47.53376" lon="6.78451">
        <ele>389</ele>
        <time>2017-07-30T07:57:52.000Z</time>
      </trkpt>
      <trkpt lat="47.5338" lon="6.78448">
        <ele>387.9</ele>
        <time>2017-07-30T07:57:53.000Z</time>
      </trkpt>
      <trkpt lat="47.53384" lon="6.78445">
        <ele>388.4</ele>
        <time>2017-07-30T07:57:54.000Z</time>
      </trkpt>
      <trkpt lat="47.53388" lon="6.78442">
        <ele>388.4</ele>
        <time>2017-07-30T07:57:55.000Z</time>
      </trkpt>
      <trkpt lat="47.53392" lon="6.78436">
        <ele>388.7</ele>
        <time>2017-07-30T07:57:56.000Z</time>
      </trkpt>
      <trkpt lat="47.53396" lon="6.78431">
        <ele>389.1</ele>
        <time>2017-07-30T07:57:57.000Z</time>
      </trkpt>
      <trkpt lat="47.534" lon="6.78425">
        <ele>389.3</ele>
        <time>2017-07-30T07:57:58.000Z</time>
      </trkpt>
      <trkpt lat="47.53403" lon="6.78419">
        <ele>389.5</ele>
        <time>2017-07-30T07:57:59.000Z</time>
      </trkpt>
      <trkpt lat="47.53407" lon="6.78413">
        <ele>389.2</ele>
        <time>2017-07-30T07:58:00.000Z</time>
      </trkpt>
      <trkpt lat="47.53411" lon="6.78406">
        <ele>388.9</ele>
        <time>2017-07-30T07:58:01.000Z</time>
      </trkpt>
      <trkpt lat="47.53415" lon="6.784">
        <ele>388.9</ele>
        <time>2017-07-30T07:58:02.000Z</time>
      </trkpt>
      <trkpt lat="47.53419" lon="6.78394">
        <ele>388.9</ele>
        <time>2017-07-30T07:58:03.000Z</time>
      </trkpt>
      <trkpt lat="47.53423" lon="6.78387">
        <ele>389.1</ele>
        <time>2017-07-30T07:58:04.000Z</time>
      </trkpt>
      <trkpt lat="47.53428" lon="6.78379">
        <ele>389.2</ele>
        <time>2017-07-30T07:58:05.000Z</time>
      </trkpt>
      <trkpt lat="47.53432" lon="6.78371">
        <ele>389.5</ele>
        <time>2017-07-30T07:58:06.000Z</time>
      </trkpt>
      <trkpt lat="47.53437" lon="6.78361">
        <ele>388.9</ele>
        <time>2017-07-30T07:58:07.000Z</time>
      </trkpt>
      <trkpt lat="47.53442" lon="6.78349">
        <ele>388.5</ele>
        <time>2017-07-30T07:58:08.000Z</time>
      </trkpt>
      <trkpt lat="47.53447" lon="6.78338">
        <ele>388.6</ele>
        <time>2017-07-30T07:58:09.000Z</time>
      </trkpt>
      <trkpt lat="47.53452" lon="6.78327">
        <ele>388.3</ele>
        <time>2017-07-30T07:58:10.000Z</time>
      </trkpt>
      <trkpt lat="47.53457" lon="6.78316">
        <ele>387.9</ele>
        <time>2017-07-30T07:58:11.000Z</time>
      </trkpt>
      <trkpt lat="47.53465" lon="6.78309">
        <ele>387.8</ele>
        <time>2017-07-30T07:58:12.000Z</time>
      </trkpt>
      <trkpt lat="47.53473" lon="6.78301">
        <ele>387.8</ele>
        <time>2017-07-30T07:58:13.000Z</time>
      </trkpt>
      <trkpt lat="47.53481" lon="6.78293">
        <ele>387.5</ele>
        <time>2017-07-30T07:58:14.000Z</time>
      </trkpt>
      <trkpt lat="47.53489" lon="6.78285">
        <ele>386.7</ele>
        <time>2017-07-30T07:58:15.000Z</time>
      </trkpt>
      <trkpt lat="47.53496" lon="6.78277">
        <ele>385.7</ele>
        <time>2017-07-30T07:58:16.000Z</time>
      </trkpt>
      <trkpt lat="47.53504" lon="6.78268">
        <ele>384.5</ele>
        <time>2017-07-30T07:58:17.000Z</time>
      </trkpt>
      <trkpt lat="47.53513" lon="6.78258">
        <ele>383.5</ele>
        <time>2017-07-30T07:58:18.000Z</time>
      </trkpt>
      <trkpt lat="47.53522" lon="6.7825">
        <ele>383.3</ele>
        <time>2017-07-30T07:58:19.000Z</time>
      </trkpt>
      <trkpt lat="47.53531" lon="6.78242">
        <ele>382.5</ele>
        <time>2017-07-30T07:58:20.000Z</time>
      </trkpt>
      <trkpt lat="47.53539" lon="6.78234">
        <ele>381.2</ele>
        <time>2017-07-30T07:58:21.000Z</time>
      </trkpt>
      <trkpt lat="47.53545" lon="6.78228">
        <ele>379.1</ele>
        <time>2017-07-30T07:58:22.000Z</time>
      </trkpt>
      <trkpt lat="47.53551" lon="6.78222">
        <ele>377.3</ele>
        <time>2017-07-30T07:58:23.000Z</time>
      </trkpt>
      <trkpt lat="47.53556" lon="6.78218">
        <ele>375.4</ele>
        <time>2017-07-30T07:58:24.000Z</time>
      </trkpt>
      <trkpt lat="47.53563" lon="6.78216">
        <ele>374.3</ele>
        <time>2017-07-30T07:58:25.000Z</time>
      </trkpt>
      <trkpt lat="47.53569" lon="6.78214">
        <ele>373.4</ele>
        <time>2017-07-30T07:58:26.000Z</time>
      </trkpt>
      <trkpt lat="47.53575" lon="6.78212">
        <ele>373.2</ele>
        <time>2017-07-30T07:58:27.000Z</time>
      </trkpt>
      <trkpt lat="47.53578" lon="6.78205">
        <ele>373</ele>
        <time>2017-07-30T07:58:28.000Z</time>
      </trkpt>
      <trkpt lat="47.53582" lon="6.78197">
        <ele>372.8</ele>
        <time>2017-07-30T07:58:29.000Z</time>
      </trkpt>
      <trkpt lat="47.53586" lon="6.7819">
        <ele>372.3</ele>
        <time>2017-07-30T07:58:30.000Z</time>
      </trkpt>
      <trkpt lat="47.53591" lon="6.78185">
        <ele>372</ele>
        <time>2017-07-30T07:58:31.000Z</time>
      </trkpt>
      <trkpt lat="47.53596" lon="6.7818">
        <ele>371.8</ele>
        <time>2017-07-30T07:58:32.000Z</time>
      </trkpt>
      <trkpt lat="47.53602" lon="6.78174">
        <ele>372.1</ele>
        <time>2017-07-30T07:58:33.000Z</time>
      </trkpt>
      <trkpt lat="47.53607" lon="6.78168">
        <ele>371.4</ele>
        <time>2017-07-30T07:58:34.000Z</time>
      </trkpt>
      <trkpt lat="47.53612" lon="6.78162">
        <ele>370.6</ele>
        <time>2017-07-30T07:58:35.000Z</time>
      </trkpt>
      <trkpt lat="47.53618" lon="6.78156">
        <ele>370.1</ele>
        <time>2017-07-30T07:58:36.000Z</time>
      </trkpt>
      <trkpt lat="47.53623" lon="6.7815">
        <ele>369.2</ele>
        <time>2017-07-30T07:58:37.000Z</time>
      </trkpt>
      <trkpt lat="47.53628" lon="6.78144">
        <ele>368.9</ele>
        <time>2017-07-30T07:58:38.000Z</time>
      </trkpt>
      <trkpt lat="47.53632" lon="6.78139">
        <ele>368.9</ele>
        <time>2017-07-30T07:58:39.000Z</time>
      </trkpt>
      <trkpt lat="47.53637" lon="6.78132">
        <ele>369</ele>
        <time>2017-07-30T07:58:40.000Z</time>
      </trkpt>
      <trkpt lat="47.53642" lon="6.78127">
        <ele>368.4</ele>
        <time>2017-07-30T07:58:41.000Z</time>
      </trkpt>
      <trkpt lat="47.53647" lon="6.78122">
        <ele>367.7</ele>
        <time>2017-07-30T07:58:42.000Z</time>
      </trkpt>
      <trkpt lat="47.53652" lon="6.78117">
        <ele>367.6</ele>
        <time>2017-07-30T07:58:43.000Z</time>
      </trkpt>
      <trkpt lat="47.53657" lon="6.78112">
        <ele>367.5</ele>
        <time>2017-07-30T07:58:44.000Z</time>
      </trkpt>
      <trkpt lat="47.53663" lon="6.78107">
        <ele>367.6</ele>
        <time>2017-07-30T07:58:45.000Z</time>
      </trkpt>
      <trkpt lat="47.5367" lon="6.78102">
        <ele>367.5</ele>
        <time>2017-07-30T07:58:46.000Z</time>
      </trkpt>
      <trkpt lat="47.53676" lon="6.78098">
        <ele>366.6</ele>
        <time>2017-07-30T07:58:47.000Z</time>
      </trkpt>
      <trkpt lat="47.53682" lon="6.78094">
        <ele>365.5</ele>
        <time>2017-07-30T07:58:48.000Z</time>
      </trkpt>
      <trkpt lat="47.53688" lon="6.7809">
        <ele>364.5</ele>
        <time>2017-07-30T07:58:49.000Z</time>
      </trkpt>
      <trkpt lat="47.53694" lon="6.78086">
        <ele>364.4</ele>
        <time>2017-07-30T07:58:50.000Z</time>
      </trkpt>
      <trkpt lat="47.537" lon="6.78082">
        <ele>364.8</ele>
        <time>2017-07-30T07:58:51.000Z</time>
      </trkpt>
      <trkpt lat="47.53705" lon="6.78077">
        <ele>364.5</ele>
        <time>2017-07-30T07:58:52.000Z</time>
      </trkpt>
      <trkpt lat="47.53711" lon="6.78073">
        <ele>364.6</ele>
        <time>2017-07-30T07:58:53.000Z</time>
      </trkpt>
      <trkpt lat="47.53716" lon="6.78067">
        <ele>364.3</ele>
        <time>2017-07-30T07:58:54.000Z</time>
      </trkpt>
      <trkpt lat="47.5372" lon="6.78061">
        <ele>364.1</ele>
        <time>2017-07-30T07:58:55.000Z</time>
      </trkpt>
      <trkpt lat="47.53724" lon="6.78056">
        <ele>363.8</ele>
        <time>2017-07-30T07:58:56.000Z</time>
      </trkpt>
      <trkpt lat="47.53729" lon="6.78051">
        <ele>363.5</ele>
        <time>2017-07-30T07:58:57.000Z</time>
      </trkpt>
      <trkpt lat="47.53734" lon="6.78046">
        <ele>364.4</ele>
        <time>2017-07-30T07:58:58.000Z</time>
      </trkpt>
      <trkpt lat="47.53739" lon="6.78042">
        <ele>365.1</ele>
        <time>2017-07-30T07:58:59.000Z</time>
      </trkpt>
      <trkpt lat="47.53744" lon="6.78037">
        <ele>365.2</ele>
        <time>2017-07-30T07:59:00.000Z</time>
      </trkpt>
      <trkpt lat="47.53749" lon="6.78032">
        <ele>365.4</ele>
        <time>2017-07-30T07:59:01.000Z</time>
      </trkpt>
      <trkpt lat="47.53753" lon="6.78028">
        <ele>365</ele>
        <time>2017-07-30T07:59:02.000Z</time>
      </trkpt>
      <trkpt lat="47.53758" lon="6.78024">
        <ele>364.9</ele>
        <time>2017-07-30T07:59:03.000Z</time>
      </trkpt>
      <trkpt lat="47.53763" lon="6.78019">
        <ele>364.5</ele>
        <time>2017-07-30T07:59:04.000Z</time>
      </trkpt>
      <trkpt lat="47.53767" lon="6.78015">
        <ele>365.4</ele>
        <time>2017-07-30T07:59:05.000Z</time>
      </trkpt>
      <trkpt lat="47.53772" lon="6.7801">
        <ele>364.7</ele>
        <time>2017-07-30T07:59:06.000Z</time>
      </trkpt>
      <trkpt lat="47.53777" lon="6.78006">
        <ele>364.4</ele>
        <time>2017-07-30T07:59:07.000Z</time>
      </trkpt>
      <trkpt lat="47.53781" lon="6.78002">
        <ele>364.3</ele>
        <time>2017-07-30T07:59:08.000Z</time>
      </trkpt>
      <trkpt lat="47.53784" lon="6.77999">
        <ele>364.3</ele>
        <time>2017-07-30T07:59:09.000Z</time>
      </trkpt>
      <trkpt lat="47.53787" lon="6.77994">
        <ele>364.5</ele>
        <time>2017-07-30T07:59:10.000Z</time>
      </trkpt>
      <trkpt lat="47.5379" lon="6.7799">
        <ele>364.7</ele>
        <time>2017-07-30T07:59:11.000Z</time>
      </trkpt>
      <trkpt lat="47.53792" lon="6.77985">
        <ele>364.8</ele>
        <time>2017-07-30T07:59:12.000Z</time>
      </trkpt>
      <trkpt lat="47.53795" lon="6.77981">
        <ele>365.6</ele>
        <time>2017-07-30T07:59:13.000Z</time>
      </trkpt>
      <trkpt lat="47.53797" lon="6.77977">
        <ele>366.3</ele>
        <time>2017-07-30T07:59:14.000Z</time>
      </trkpt>
      <trkpt lat="47.538" lon="6.77973">
        <ele>368</ele>
        <time>2017-07-30T07:59:15.000Z</time>
      </trkpt>
      <trkpt lat="47.53802" lon="6.77968">
        <ele>368.4</ele>
        <time>2017-07-30T07:59:16.000Z</time>
      </trkpt>
      <trkpt lat="47.53805" lon="6.77962">
        <ele>368.4</ele>
        <time>2017-07-30T07:59:17.000Z</time>
      </trkpt>
      <trkpt lat="47.53808" lon="6.77958">
        <ele>368.9</ele>
        <time>2017-07-30T07:59:18.000Z</time>
      </trkpt>
      <trkpt lat="47.53811" lon="6.77953">
        <ele>369.7</ele>
        <time>2017-07-30T07:59:19.000Z</time>
      </trkpt>
      <trkpt lat="47.53813" lon="6.77949">
        <ele>370.1</ele>
        <time>2017-07-30T07:59:20.000Z</time>
      </trkpt>
      <trkpt lat="47.53815" lon="6.77945">
        <ele>371</ele>
        <time>2017-07-30T07:59:21.000Z</time>
      </trkpt>
      <trkpt lat="47.53818" lon="6.77941">
        <ele>371.6</ele>
        <time>2017-07-30T07:59:22.000Z</time>
      </trkpt>
      <trkpt lat="47.53821" lon="6.77935">
        <ele>372.2</ele>
        <time>2017-07-30T07:59:23.000Z</time>
      </trkpt>
      <trkpt lat="47.53824" lon="6.77931">
        <ele>372.4</ele>
        <time>2017-07-30T07:59:24.000Z</time>
      </trkpt>
      <trkpt lat="47.53827" lon="6.77927">
        <ele>372.6</ele>
        <time>2017-07-30T07:59:25.000Z</time>
      </trkpt>
      <trkpt lat="47.53831" lon="6.77922">
        <ele>371.6</ele>
        <time>2017-07-30T07:59:26.000Z</time>
      </trkpt>
      <trkpt lat="47.53836" lon="6.77917">
        <ele>370.8</ele>
        <time>2017-07-30T07:59:27.000Z</time>
      </trkpt>
      <trkpt lat="47.53842" lon="6.77915">
        <ele>370.6</ele>
        <time>2017-07-30T07:59:28.000Z</time>
      </trkpt>
      <trkpt lat="47.5385" lon="6.77913">
        <ele>370.6</ele>
        <time>2017-07-30T07:59:29.000Z</time>
      </trkpt>
      <trkpt lat="47.53857" lon="6.77916">
        <ele>371.3</ele>
        <time>2017-07-30T07:59:30.000Z</time>
      </trkpt>
      <trkpt lat="47.53865" lon="6.7792">
        <ele>371.9</ele>
        <time>2017-07-30T07:59:31.000Z</time>
      </trkpt>
      <trkpt lat="47.53872" lon="6.77925">
        <ele>372.4</ele>
        <time>2017-07-30T07:59:32.000Z</time>
      </trkpt>
      <trkpt lat="47.53879" lon="6.77931">
        <ele>372.5</ele>
        <time>2017-07-30T07:59:33.000Z</time>
      </trkpt>
      <trkpt lat="47.53887" lon="6.77937">
        <ele>372.1</ele>
        <time>2017-07-30T07:59:34.000Z</time>
      </trkpt>
      <trkpt lat="47.53893" lon="6.77942">
        <ele>371.8</ele>
        <time>2017-07-30T07:59:35.000Z</time>
      </trkpt>
      <trkpt lat="47.53898" lon="6.77948">
        <ele>371.8</ele>
        <time>2017-07-30T07:59:36.000Z</time>
      </trkpt>
      <trkpt lat="47.53903" lon="6.77954">
        <ele>372</ele>
        <time>2017-07-30T07:59:37.000Z</time>
      </trkpt>
      <trkpt lat="47.53909" lon="6.77956">
        <ele>372.7</ele>
        <time>2017-07-30T07:59:38.000Z</time>
      </trkpt>
      <trkpt lat="47.53915" lon="6.77958">
        <ele>373</ele>
        <time>2017-07-30T07:59:39.000Z</time>
      </trkpt>
      <trkpt lat="47.53921" lon="6.77959">
        <ele>373.3</ele>
        <time>2017-07-30T07:59:40.000Z</time>
      </trkpt>
      <trkpt lat="47.53927" lon="6.77959">
        <ele>373.7</ele>
        <time>2017-07-30T07:59:41.000Z</time>
      </trkpt>
      <trkpt lat="47.53934" lon="6.77959">
        <ele>373.6</ele>
        <time>2017-07-30T07:59:42.000Z</time>
      </trkpt>
      <trkpt lat="47.5394" lon="6.77958">
        <ele>373.5</ele>
        <time>2017-07-30T07:59:43.000Z</time>
      </trkpt>
      <trkpt lat="47.53947" lon="6.77957">
        <ele>373</ele>
        <time>2017-07-30T07:59:44.000Z</time>
      </trkpt>
      <trkpt lat="47.53955" lon="6.77957">
        <ele>372</ele>
        <time>2017-07-30T07:59:45.000Z</time>
      </trkpt>
      <trkpt lat="47.53962" lon="6.77955">
        <ele>371</ele>
        <time>2017-07-30T07:59:46.000Z</time>
      </trkpt>
      <trkpt lat="47.53967" lon="6.77955">
        <ele>369.9</ele>
        <time>2017-07-30T07:59:47.000Z</time>
      </trkpt>
      <trkpt lat="47.53974" lon="6.77953">
        <ele>369.3</ele>
        <time>2017-07-30T07:59:48.000Z</time>
      </trkpt>
      <trkpt lat="47.5398" lon="6.77953">
        <ele>368.3</ele>
        <time>2017-07-30T07:59:49.000Z</time>
      </trkpt>
      <trkpt lat="47.53987" lon="6.77953">
        <ele>367.5</ele>
        <time>2017-07-30T07:59:50.000Z</time>
      </trkpt>
      <trkpt lat="47.53994" lon="6.77953">
        <ele>366.5</ele>
        <time>2017-07-30T07:59:51.000Z</time>
      </trkpt>
      <trkpt lat="47.53999" lon="6.77952">
        <ele>364.9</ele>
        <time>2017-07-30T07:59:52.000Z</time>
      </trkpt>
      <trkpt lat="47.54006" lon="6.77951">
        <ele>364.4</ele>
        <time>2017-07-30T07:59:53.000Z</time>
      </trkpt>
      <trkpt lat="47.54012" lon="6.77951">
        <ele>364.5</ele>
        <time>2017-07-30T07:59:54.000Z</time>
      </trkpt>
      <trkpt lat="47.54018" lon="6.7795">
        <ele>364.3</ele>
        <time>2017-07-30T07:59:55.000Z</time>
      </trkpt>
      <trkpt lat="47.54025" lon="6.7795">
        <ele>363.5</ele>
        <time>2017-07-30T07:59:56.000Z</time>
      </trkpt>
      <trkpt lat="47.54031" lon="6.7795">
        <ele>362.5</ele>
        <time>2017-07-30T07:59:57.000Z</time>
      </trkpt>
      <trkpt lat="47.54037" lon="6.7795">
        <ele>362.1</ele>
        <time>2017-07-30T07:59:58.000Z</time>
      </trkpt>
      <trkpt lat="47.54043" lon="6.7795">
        <ele>361.6</ele>
        <time>2017-07-30T07:59:59.000Z</time>
      </trkpt>
      <trkpt lat="47.5405" lon="6.7795">
        <ele>361.3</ele>
        <time>2017-07-30T08:00:00.000Z</time>
      </trkpt>
      <trkpt lat="47.54057" lon="6.77951">
        <ele>361.7</ele>
        <time>2017-07-30T08:00:01.000Z</time>
      </trkpt>
      <trkpt lat="47.54063" lon="6.77951">
        <ele>361.7</ele>
        <time>2017-07-30T08:00:02.000Z</time>
      </trkpt>
      <trkpt lat="47.54069" lon="6.77952">
        <ele>361.2</ele>
        <time>2017-07-30T08:00:03.000Z</time>
      </trkpt>
      <trkpt lat="47.54075" lon="6.77953">
        <ele>360.4</ele>
        <time>2017-07-30T08:00:04.000Z</time>
      </trkpt>
      <trkpt lat="47.5408" lon="6.77953">
        <ele>359.4</ele>
        <time>2017-07-30T08:00:05.000Z</time>
      </trkpt>
      <trkpt lat="47.54086" lon="6.77953">
        <ele>358.5</ele>
        <time>2017-07-30T08:00:06.000Z</time>
      </trkpt>
      <trkpt lat="47.54091" lon="6.77954">
        <ele>358.3</ele>
        <time>2017-07-30T08:00:07.000Z</time>
      </trkpt>
      <trkpt lat="47.54096" lon="6.77954">
        <ele>357.8</ele>
        <time>2017-07-30T08:00:08.000Z</time>
      </trkpt>
      <trkpt lat="47.54101" lon="6.77955">
        <ele>358</ele>
        <time>2017-07-30T08:00:09.000Z</time>
      </trkpt>
      <trkpt lat="47.54107" lon="6.77956">
        <ele>359.1</ele>
        <time>2017-07-30T08:00:10.000Z</time>
      </trkpt>
      <trkpt lat="47.54113" lon="6.77957">
        <ele>359.9</ele>
        <time>2017-07-30T08:00:11.000Z</time>
      </trkpt>
      <trkpt lat="47.54119" lon="6.77957">
        <ele>360.4</ele>
        <time>2017-07-30T08:00:12.000Z</time>
      </trkpt>
      <trkpt lat="47.54124" lon="6.77959">
        <ele>360.5</ele>
        <time>2017-07-30T08:00:13.000Z</time>
      </trkpt>
      <trkpt lat="47.5413" lon="6.7796">
        <ele>361</ele>
        <time>2017-07-30T08:00:14.000Z</time>
      </trkpt>
      <trkpt lat="47.54135" lon="6.7796">
        <ele>361.3</ele>
        <time>2017-07-30T08:00:15.000Z</time>
      </trkpt>
      <trkpt lat="47.54141" lon="6.7796">
        <ele>361.7</ele>
        <time>2017-07-30T08:00:16.000Z</time>
      </trkpt>
      <trkpt lat="47.54146" lon="6.77961">
        <ele>361.4</ele>
        <time>2017-07-30T08:00:17.000Z</time>
      </trkpt>
      <trkpt lat="47.54151" lon="6.77962">
        <ele>361.8</ele>
        <time>2017-07-30T08:00:18.000Z</time>
      </trkpt>
      <trkpt lat="47.54157" lon="6.77963">
        <ele>362.3</ele>
        <time>2017-07-30T08:00:19.000Z</time>
      </trkpt>
      <trkpt lat="47.54162" lon="6.77963">
        <ele>363</ele>
        <time>2017-07-30T08:00:20.000Z</time>
      </trkpt>
      <trkpt lat="47.54166" lon="6.77963">
        <ele>362.6</ele>
        <time>2017-07-30T08:00:21.000Z</time>
      </trkpt>
      <trkpt lat="47.54171" lon="6.77963">
        <ele>363.1</ele>
        <time>2017-07-30T08:00:22.000Z</time>
      </trkpt>
      <trkpt lat="47.54175" lon="6.77963">
        <ele>363.7</ele>
        <time>2017-07-30T08:00:23.000Z</time>
      </trkpt>
      <trkpt lat="47.54179" lon="6.77963">
        <ele>364.6</ele>
        <time>2017-07-30T08:00:24.000Z</time>
      </trkpt>
      <trkpt lat="47.54184" lon="6.77963">
        <ele>365.5</ele>
        <time>2017-07-30T08:00:25.000Z</time>
      </trkpt>
      <trkpt lat="47.5419" lon="6.77963">
        <ele>366.5</ele>
        <time>2017-07-30T08:00:26.000Z</time>
      </trkpt>
      <trkpt lat="47.54195" lon="6.77963">
        <ele>367.5</ele>
        <time>2017-07-30T08:00:27.000Z</time>
      </trkpt>
      <trkpt lat="47.54201" lon="6.77963">
        <ele>367.4</ele>
        <time>2017-07-30T08:00:28.000Z</time>
      </trkpt>
      <trkpt lat="47.54207" lon="6.77963">
        <ele>367.2</ele>
        <time>2017-07-30T08:00:29.000Z</time>
      </trkpt>
      <trkpt lat="47.54212" lon="6.77964">
        <ele>367.2</ele>
        <time>2017-07-30T08:00:30.000Z</time>
      </trkpt>
      <trkpt lat="47.54219" lon="6.77965">
        <ele>367.2</ele>
        <time>2017-07-30T08:00:31.000Z</time>
      </trkpt>
      <trkpt lat="47.54224" lon="6.77966">
        <ele>367.1</ele>
        <time>2017-07-30T08:00:32.000Z</time>
      </trkpt>
      <trkpt lat="47.54228" lon="6.77965">
        <ele>367.5</ele>
        <time>2017-07-30T08:00:33.000Z</time>
      </trkpt>
      <trkpt lat="47.54233" lon="6.77964">
        <ele>368.1</ele>
        <time>2017-07-30T08:00:34.000Z</time>
      </trkpt>
      <trkpt lat="47.54237" lon="6.77963">
        <ele>368.6</ele>
        <time>2017-07-30T08:00:35.000Z</time>
      </trkpt>
      <trkpt lat="47.54243" lon="6.77965">
        <ele>368.2</ele>
        <time>2017-07-30T08:00:36.000Z</time>
      </trkpt>
      <trkpt lat="47.54249" lon="6.77966">
        <ele>367.6</ele>
        <time>2017-07-30T08:00:37.000Z</time>
      </trkpt>
      <trkpt lat="47.54256" lon="6.77965">
        <ele>367.6</ele>
        <time>2017-07-30T08:00:38.000Z</time>
      </trkpt>
      <trkpt lat="47.54262" lon="6.77966">
        <ele>367.6</ele>
        <time>2017-07-30T08:00:39.000Z</time>
      </trkpt>
      <trkpt lat="47.54267" lon="6.77967">
        <ele>367.9</ele>
        <time>2017-07-30T08:00:40.000Z</time>
      </trkpt>
      <trkpt lat="47.54271" lon="6.77968">
        <ele>367.6</ele>
        <time>2017-07-30T08:00:41.000Z</time>
      </trkpt>
      <trkpt lat="47.54275" lon="6.77969">
        <ele>367.8</ele>
        <time>2017-07-30T08:00:42.000Z</time>
      </trkpt>
      <trkpt lat="47.5428" lon="6.7797">
        <ele>367.7</ele>
        <time>2017-07-30T08:00:43.000Z</time>
      </trkpt>
      <trkpt lat="47.54285" lon="6.77971">
        <ele>368</ele>
        <time>2017-07-30T08:00:44.000Z</time>
      </trkpt>
      <trkpt lat="47.54291" lon="6.77973">
        <ele>367.9</ele>
        <time>2017-07-30T08:00:45.000Z</time>
      </trkpt>
      <trkpt lat="47.54296" lon="6.77974">
        <ele>367.5</ele>
        <time>2017-07-30T08:00:46.000Z</time>
      </trkpt>
      <trkpt lat="47.54301" lon="6.77975">
        <ele>367.7</ele>
        <time>2017-07-30T08:00:47.000Z</time>
      </trkpt>
      <trkpt lat="47.54305" lon="6.77976">
        <ele>368</ele>
        <time>2017-07-30T08:00:48.000Z</time>
      </trkpt>
      <trkpt lat="47.54309" lon="6.77978">
        <ele>368.5</ele>
        <time>2017-07-30T08:00:49.000Z</time>
      </trkpt>
      <trkpt lat="47.54314" lon="6.7798">
        <ele>369.4</ele>
        <time>2017-07-30T08:00:50.000Z</time>
      </trkpt>
      <trkpt lat="47.54319" lon="6.77979">
        <ele>369.4</ele>
        <time>2017-07-30T08:00:51.000Z</time>
      </trkpt>
      <trkpt lat="47.54324" lon="6.77979">
        <ele>369.8</ele>
        <time>2017-07-30T08:00:52.000Z</time>
      </trkpt>
      <trkpt lat="47.5433" lon="6.77978">
        <ele>370.5</ele>
        <time>2017-07-30T08:00:53.000Z</time>
      </trkpt>
      <trkpt lat="47.54336" lon="6.77978">
        <ele>370.9</ele>
        <time>2017-07-30T08:00:54.000Z</time>
      </trkpt>
      <trkpt lat="47.54342" lon="6.77979">
        <ele>371.7</ele>
        <time>2017-07-30T08:00:55.000Z</time>
      </trkpt>
      <trkpt lat="47.54348" lon="6.7798">
        <ele>371.6</ele>
        <time>2017-07-30T08:00:56.000Z</time>
      </trkpt>
      <trkpt lat="47.54354" lon="6.77981">
        <ele>371.6</ele>
        <time>2017-07-30T08:00:57.000Z</time>
      </trkpt>
      <trkpt lat="47.5436" lon="6.77982">
        <ele>371.5</ele>
        <time>2017-07-30T08:00:58.000Z</time>
      </trkpt>
      <trkpt lat="47.54365" lon="6.77983">
        <ele>371.4</ele>
        <time>2017-07-30T08:00:59.000Z</time>
      </trkpt>
      <trkpt lat="47.5437" lon="6.77984">
        <ele>371.3</ele>
        <time>2017-07-30T08:01:00.000Z</time>
      </trkpt>
      <trkpt lat="47.54376" lon="6.77984">
        <ele>370.7</ele>
        <time>2017-07-30T08:01:01.000Z</time>
      </trkpt>
      <trkpt lat="47.54383" lon="6.77985">
        <ele>370.8</ele>
        <time>2017-07-30T08:01:02.000Z</time>
      </trkpt>
      <trkpt lat="47.54391" lon="6.77986">
        <ele>370.3</ele>
        <time>2017-07-30T08:01:03.000Z</time>
      </trkpt>
      <trkpt lat="47.54397" lon="6.77987">
        <ele>370</ele>
        <time>2017-07-30T08:01:04.000Z</time>
      </trkpt>
      <trkpt lat="47.54403" lon="6.77988">
        <ele>370.1</ele>
        <time>2017-07-30T08:01:05.000Z</time>
      </trkpt>
      <trkpt lat="47.54409" lon="6.77988">
        <ele>369.6</ele>
        <time>2017-07-30T08:01:06.000Z</time>
      </trkpt>
      <trkpt lat="47.54415" lon="6.77989">
        <ele>369.9</ele>
        <time>2017-07-30T08:01:07.000Z</time>
      </trkpt>
      <trkpt lat="47.54422" lon="6.7799">
        <ele>370.4</ele>
        <time>2017-07-30T08:01:08.000Z</time>
      </trkpt>
      <trkpt lat="47.54429" lon="6.7799">
        <ele>370.7</ele>
        <time>2017-07-30T08:01:09.000Z</time>
      </trkpt>
      <trkpt lat="47.54436" lon="6.7799">
        <ele>371.1</ele>
        <time>2017-07-30T08:01:10.000Z</time>
      </trkpt>
      <trkpt lat="47.54441" lon="6.77992">
        <ele>371.5</ele>
        <time>2017-07-30T08:01:11.000Z</time>
      </trkpt>
      <trkpt lat="47.54445" lon="6.77993">
        <ele>372</ele>
        <time>2017-07-30T08:01:12.000Z</time>
      </trkpt>
      <trkpt lat="47.54451" lon="6.77995">
        <ele>372.6</ele>
        <time>2017-07-30T08:01:13.000Z</time>
      </trkpt>
      <trkpt lat="47.54457" lon="6.77996">
        <ele>372.5</ele>
        <time>2017-07-30T08:01:14.000Z</time>
      </trkpt>
      <trkpt lat="47.54462" lon="6.77996">
        <ele>372.7</ele>
        <time>2017-07-30T08:01:15.000Z</time>
      </trkpt>
      <trkpt lat="47.54468" lon="6.77996">
        <ele>372.7</ele>
        <time>2017-07-30T08:01:16.000Z</time>
      </trkpt>
      <trkpt lat="47.54475" lon="6.77996">
        <ele>372.7</ele>
        <time>2017-07-30T08:01:17.000Z</time>
      </trkpt>
      <trkpt lat="47.5448" lon="6.77996">
        <ele>373</ele>
        <time>2017-07-30T08:01:18.000Z</time>
      </trkpt>
      <trkpt lat="47.54485" lon="6.77996">
        <ele>374.2</ele>
        <time>2017-07-30T08:01:19.000Z</time>
      </trkpt>
      <trkpt lat="47.5449" lon="6.77997">
        <ele>375</ele>
        <time>2017-07-30T08:01:20.000Z</time>
      </trkpt>
      <trkpt lat="47.54497" lon="6.77997">
        <ele>375.2</ele>
        <time>2017-07-30T08:01:21.000Z</time>
      </trkpt>
      <trkpt lat="47.54503" lon="6.77998">
        <ele>376.2</ele>
        <time>2017-07-30T08:01:22.000Z</time>
      </trkpt>
      <trkpt lat="47.54509" lon="6.77999">
        <ele>376.4</ele>
        <time>2017-07-30T08:01:23.000Z</time>
      </trkpt>
      <trkpt lat="47.54515" lon="6.78">
        <ele>377</ele>
        <time>2017-07-30T08:01:24.000Z</time>
      </trkpt>
      <trkpt lat="47.54521" lon="6.78001">
        <ele>376.8</ele>
        <time>2017-07-30T08:01:25.000Z</time>
      </trkpt>
      <trkpt lat="47.54526" lon="6.78002">
        <ele>376.4</ele>
        <time>2017-07-30T08:01:26.000Z</time>
      </trkpt>
      <trkpt lat="47.54531" lon="6.78002">
        <ele>375.4</ele>
        <time>2017-07-30T08:01:27.000Z</time>
      </trkpt>
      <trkpt lat="47.54538" lon="6.78002">
        <ele>374.9</ele>
        <time>2017-07-30T08:01:28.000Z</time>
      </trkpt>
      <trkpt lat="47.54543" lon="6.78003">
        <ele>374.7</ele>
        <time>2017-07-30T08:01:29.000Z</time>
      </trkpt>
      <trkpt lat="47.54548" lon="6.78003">
        <ele>374.2</ele>
        <time>2017-07-30T08:01:30.000Z</time>
      </trkpt>
      <trkpt lat="47.54554" lon="6.78004">
        <ele>374</ele>
        <time>2017-07-30T08:01:31.000Z</time>
      </trkpt>
      <trkpt lat="47.54559" lon="6.78005">
        <ele>373.9</ele>
        <time>2017-07-30T08:01:32.000Z</time>
      </trkpt>
      <trkpt lat="47.54565" lon="6.78005">
        <ele>373.6</ele>
        <time>2017-07-30T08:01:33.000Z</time>
      </trkpt>
      <trkpt lat="47.54571" lon="6.78007">
        <ele>373.6</ele>
        <time>2017-07-30T08:01:34.000Z</time>
      </trkpt>
      <trkpt lat="47.54576" lon="6.78008">
        <ele>373.9</ele>
        <time>2017-07-30T08:01:35.000Z</time>
      </trkpt>
      <trkpt lat="47.54581" lon="6.78009">
        <ele>373.6</ele>
        <time>2017-07-30T08:01:36.000Z</time>
      </trkpt>
      <trkpt lat="47.54586" lon="6.7801">
        <ele>373.4</ele>
        <time>2017-07-30T08:01:37.000Z</time>
      </trkpt>
      <trkpt lat="47.54592" lon="6.78011">
        <ele>373.2</ele>
        <time>2017-07-30T08:01:38.000Z</time>
      </trkpt>
      <trkpt lat="47.54597" lon="6.78012">
        <ele>373.1</ele>
        <time>2017-07-30T08:01:39.000Z</time>
      </trkpt>
      <trkpt lat="47.54602" lon="6.78013">
        <ele>373.3</ele>
        <time>2017-07-30T08:01:40.000Z</time>
      </trkpt>
      <trkpt lat="47.54608" lon="6.78014">
        <ele>373.7</ele>
        <time>2017-07-30T08:01:41.000Z</time>
      </trkpt>
      <trkpt lat="47.54613" lon="6.78015">
        <ele>374.6</ele>
        <time>2017-07-30T08:01:42.000Z</time>
      </trkpt>
      <trkpt lat="47.54619" lon="6.78016">
        <ele>374.8</ele>
        <time>2017-07-30T08:01:43.000Z</time>
      </trkpt>
      <trkpt lat="47.54624" lon="6.78016">
        <ele>375</ele>
        <time>2017-07-30T08:01:44.000Z</time>
      </trkpt>
      <trkpt lat="47.54629" lon="6.78017">
        <ele>375.3</ele>
        <time>2017-07-30T08:01:45.000Z</time>
      </trkpt>
      <trkpt lat="47.54636" lon="6.78019">
        <ele>375.8</ele>
        <time>2017-07-30T08:01:46.000Z</time>
      </trkpt>
      <trkpt lat="47.54642" lon="6.78022">
        <ele>376.6</ele>
        <time>2017-07-30T08:01:47.000Z</time>
      </trkpt>
      <trkpt lat="47.54647" lon="6.78024">
        <ele>377.1</ele>
        <time>2017-07-30T08:01:48.000Z</time>
      </trkpt>
      <trkpt lat="47.54653" lon="6.78027">
        <ele>378.2</ele>
        <time>2017-07-30T08:01:49.000Z</time>
      </trkpt>
      <trkpt lat="47.54661" lon="6.7803">
        <ele>378.6</ele>
        <time>2017-07-30T08:01:50.000Z</time>
      </trkpt>
      <trkpt lat="47.54667" lon="6.78033">
        <ele>379.1</ele>
        <time>2017-07-30T08:01:51.000Z</time>
      </trkpt>
      <trkpt lat="47.54674" lon="6.78034">
        <ele>379.3</ele>
        <time>2017-07-30T08:01:52.000Z</time>
      </trkpt>
      <trkpt lat="47.54681" lon="6.78034">
        <ele>378.8</ele>
        <time>2017-07-30T08:01:53.000Z</time>
      </trkpt>
      <trkpt lat="47.54702" lon="6.78036">
        <ele>376.1</ele>
        <time>2017-07-30T08:01:56.000Z</time>
      </trkpt>
      <trkpt lat="47.54707" lon="6.78035">
        <ele>375</ele>
        <time>2017-07-30T08:01:57.000Z</time>
      </trkpt>
      <trkpt lat="47.54712" lon="6.78031">
        <ele>373.6</ele>
        <time>2017-07-30T08:01:58.000Z</time>
      </trkpt>
      <trkpt lat="47.54735" lon="6.78018">
        <ele>368.9</ele>
        <time>2017-07-30T08:02:02.000Z</time>
      </trkpt>
      <trkpt lat="47.54755" lon="6.78006">
        <ele>366.5</ele>
        <time>2017-07-30T08:02:05.000Z</time>
      </trkpt>
      <trkpt lat="47.54761" lon="6.78003">
        <ele>365.3</ele>
        <time>2017-07-30T08:02:06.000Z</time>
      </trkpt>
      <trkpt lat="47.54768" lon="6.77999">
        <ele>364.8</ele>
        <time>2017-07-30T08:02:07.000Z</time>
      </trkpt>
      <trkpt lat="47.54774" lon="6.77999">
        <ele>365.7</ele>
        <time>2017-07-30T08:02:08.000Z</time>
      </trkpt>
      <trkpt lat="47.54779" lon="6.78">
        <ele>366.4</ele>
        <time>2017-07-30T08:02:09.000Z</time>
      </trkpt>
      <trkpt lat="47.54784" lon="6.78002">
        <ele>366.7</ele>
        <time>2017-07-30T08:02:10.000Z</time>
      </trkpt>
      <trkpt lat="47.54785" lon="6.78012">
        <ele>367.8</ele>
        <time>2017-07-30T08:02:11.000Z</time>
      </trkpt>
      <trkpt lat="47.54785" lon="6.78022">
        <ele>368.8</ele>
        <time>2017-07-30T08:02:12.000Z</time>
      </trkpt>
      <trkpt lat="47.54786" lon="6.78033">
        <ele>369.6</ele>
        <time>2017-07-30T08:02:13.000Z</time>
      </trkpt>
      <trkpt lat="47.54786" lon="6.78044">
        <ele>370.1</ele>
        <time>2017-07-30T08:02:14.000Z</time>
      </trkpt>
      <trkpt lat="47.54786" lon="6.78055">
        <ele>370.8</ele>
        <time>2017-07-30T08:02:15.000Z</time>
      </trkpt>
      <trkpt lat="47.54784" lon="6.78065">
        <ele>371.3</ele>
        <time>2017-07-30T08:02:16.000Z</time>
      </trkpt>
      <trkpt lat="47.54783" lon="6.78074">
        <ele>371.9</ele>
        <time>2017-07-30T08:02:17.000Z</time>
      </trkpt>
      <trkpt lat="47.54782" lon="6.78085">
        <ele>372.6</ele>
        <time>2017-07-30T08:02:18.000Z</time>
      </trkpt>
      <trkpt lat="47.5478" lon="6.78096">
        <ele>373.2</ele>
        <time>2017-07-30T08:02:19.000Z</time>
      </trkpt>
      <trkpt lat="47.54778" lon="6.78105">
        <ele>374.1</ele>
        <time>2017-07-30T08:02:20.000Z</time>
      </trkpt>
      <trkpt lat="47.54775" lon="6.78114">
        <ele>374.5</ele>
        <time>2017-07-30T08:02:21.000Z</time>
      </trkpt>
      <trkpt lat="47.54772" lon="6.78122">
        <ele>374.6</ele>
        <time>2017-07-30T08:02:22.000Z</time>
      </trkpt>
      <trkpt lat="47.54768" lon="6.78131">
        <ele>375</ele>
        <time>2017-07-30T08:02:23.000Z</time>
      </trkpt>
      <trkpt lat="47.54765" lon="6.78139">
        <ele>374.8</ele>
        <time>2017-07-30T08:02:24.000Z</time>
      </trkpt>
      <trkpt lat="47.54763" lon="6.78144">
        <ele>374.9</ele>
        <time>2017-07-30T08:02:25.000Z</time>
      </trkpt>
      <trkpt lat="47.5476" lon="6.78151">
        <ele>374.8</ele>
        <time>2017-07-30T08:02:26.000Z</time>
      </trkpt>
      <trkpt lat="47.54758" lon="6.78159">
        <ele>374.8</ele>
        <time>2017-07-30T08:02:27.000Z</time>
      </trkpt>
      <trkpt lat="47.54755" lon="6.78168">
        <ele>374.6</ele>
        <time>2017-07-30T08:02:28.000Z</time>
      </trkpt>
      <trkpt lat="47.54752" lon="6.78175">
        <ele>374.4</ele>
        <time>2017-07-30T08:02:29.000Z</time>
      </trkpt>
      <trkpt lat="47.54749" lon="6.78182">
        <ele>374.5</ele>
        <time>2017-07-30T08:02:30.000Z</time>
      </trkpt>
      <trkpt lat="47.54746" lon="6.78189">
        <ele>374.4</ele>
        <time>2017-07-30T08:02:31.000Z</time>
      </trkpt>
      <trkpt lat="47.54743" lon="6.78197">
        <ele>373.8</ele>
        <time>2017-07-30T08:02:32.000Z</time>
      </trkpt>
      <trkpt lat="47.54741" lon="6.78204">
        <ele>372.9</ele>
        <time>2017-07-30T08:02:33.000Z</time>
      </trkpt>
      <trkpt lat="47.54738" lon="6.78211">
        <ele>372.6</ele>
        <time>2017-07-30T08:02:34.000Z</time>
      </trkpt>
      <trkpt lat="47.54735" lon="6.78219">
        <ele>373</ele>
        <time>2017-07-30T08:02:35.000Z</time>
      </trkpt>
      <trkpt lat="47.54733" lon="6.78225">
        <ele>373.3</ele>
        <time>2017-07-30T08:02:36.000Z</time>
      </trkpt>
      <trkpt lat="47.5473" lon="6.78233">
        <ele>373</ele>
        <time>2017-07-30T08:02:37.000Z</time>
      </trkpt>
      <trkpt lat="47.54728" lon="6.78241">
        <ele>373.4</ele>
        <time>2017-07-30T08:02:38.000Z</time>
      </trkpt>
      <trkpt lat="47.54725" lon="6.78248">
        <ele>373.3</ele>
        <time>2017-07-30T08:02:39.000Z</time>
      </trkpt>
      <trkpt lat="47.54722" lon="6.78256">
        <ele>373.5</ele>
        <time>2017-07-30T08:02:40.000Z</time>
      </trkpt>
      <trkpt lat="47.5472" lon="6.78264">
        <ele>373.4</ele>
        <time>2017-07-30T08:02:41.000Z</time>
      </trkpt>
      <trkpt lat="47.54718" lon="6.78272">
        <ele>373.3</ele>
        <time>2017-07-30T08:02:42.000Z</time>
      </trkpt>
      <trkpt lat="47.54715" lon="6.78279">
        <ele>373</ele>
        <time>2017-07-30T08:02:43.000Z</time>
      </trkpt>
      <trkpt lat="47.54713" lon="6.78287">
        <ele>372.9</ele>
        <time>2017-07-30T08:02:44.000Z</time>
      </trkpt>
      <trkpt lat="47.5471" lon="6.78294">
        <ele>372.7</ele>
        <time>2017-07-30T08:02:45.000Z</time>
      </trkpt>
      <trkpt lat="47.54708" lon="6.78301">
        <ele>371.6</ele>
        <time>2017-07-30T08:02:46.000Z</time>
      </trkpt>
      <trkpt lat="47.54706" lon="6.78307">
        <ele>371.2</ele>
        <time>2017-07-30T08:02:47.000Z</time>
      </trkpt>
      <trkpt lat="47.54704" lon="6.78313">
        <ele>370.8</ele>
        <time>2017-07-30T08:02:48.000Z</time>
      </trkpt>
      <trkpt lat="47.54702" lon="6.78321">
        <ele>370.6</ele>
        <time>2017-07-30T08:02:49.000Z</time>
      </trkpt>
      <trkpt lat="47.547" lon="6.78327">
        <ele>370.5</ele>
        <time>2017-07-30T08:02:50.000Z</time>
      </trkpt>
      <trkpt lat="47.54698" lon="6.78336">
        <ele>370.9</ele>
        <time>2017-07-30T08:02:51.000Z</time>
      </trkpt>
      <trkpt lat="47.54695" lon="6.78343">
        <ele>371.2</ele>
        <time>2017-07-30T08:02:52.000Z</time>
      </trkpt>
      <trkpt lat="47.54693" lon="6.7835">
        <ele>371.7</ele>
        <time>2017-07-30T08:02:53.000Z</time>
      </trkpt>
      <trkpt lat="47.54689" lon="6.78356">
        <ele>372.1</ele>
        <time>2017-07-30T08:02:54.000Z</time>
      </trkpt>
      <trkpt lat="47.54685" lon="6.78362">
        <ele>373.1</ele>
        <time>2017-07-30T08:02:55.000Z</time>
      </trkpt>
      <trkpt lat="47.54682" lon="6.78368">
        <ele>373.6</ele>
        <time>2017-07-30T08:02:56.000Z</time>
      </trkpt>
      <trkpt lat="47.54678" lon="6.78373">
        <ele>374.3</ele>
        <time>2017-07-30T08:02:57.000Z</time>
      </trkpt>
      <trkpt lat="47.54674" lon="6.78376">
        <ele>374.3</ele>
        <time>2017-07-30T08:02:58.000Z</time>
      </trkpt>
      <trkpt lat="47.54669" lon="6.7838">
        <ele>374.2</ele>
        <time>2017-07-30T08:02:59.000Z</time>
      </trkpt>
      <trkpt lat="47.54665" lon="6.78384">
        <ele>374</ele>
        <time>2017-07-30T08:03:00.000Z</time>
      </trkpt>
      <trkpt lat="47.54661" lon="6.78388">
        <ele>373.4</ele>
        <time>2017-07-30T08:03:01.000Z</time>
      </trkpt>
      <trkpt lat="47.54656" lon="6.78392">
        <ele>373.5</ele>
        <time>2017-07-30T08:03:02.000Z</time>
      </trkpt>
      <trkpt lat="47.54652" lon="6.78396">
        <ele>373.7</ele>
        <time>2017-07-30T08:03:03.000Z</time>
      </trkpt>
      <trkpt lat="47.54649" lon="6.78402">
        <ele>374.1</ele>
        <time>2017-07-30T08:03:04.000Z</time>
      </trkpt>
      <trkpt lat="47.54646" lon="6.78406">
        <ele>373.4</ele>
        <time>2017-07-30T08:03:05.000Z</time>
      </trkpt>
      <trkpt lat="47.54645" lon="6.7841">
        <ele>373.1</ele>
        <time>2017-07-30T08:03:06.000Z</time>
      </trkpt>
      <trkpt lat="47.54643" lon="6.78415">
        <ele>372.4</ele>
        <time>2017-07-30T08:03:07.000Z</time>
      </trkpt>
      <trkpt lat="47.54642" lon="6.78419">
        <ele>371.4</ele>
        <time>2017-07-30T08:03:08.000Z</time>
      </trkpt>
      <trkpt lat="47.5464" lon="6.78425">
        <ele>371</ele>
        <time>2017-07-30T08:03:09.000Z</time>
      </trkpt>
      <trkpt lat="47.54639" lon="6.7843">
        <ele>370.9</ele>
        <time>2017-07-30T08:03:10.000Z</time>
      </trkpt>
      <trkpt lat="47.54638" lon="6.78436">
        <ele>370.9</ele>
        <time>2017-07-30T08:03:11.000Z</time>
      </trkpt>
      <trkpt lat="47.54637" lon="6.78441">
        <ele>370.6</ele>
        <time>2017-07-30T08:03:12.000Z</time>
      </trkpt>
      <trkpt lat="47.54635" lon="6.78448">
        <ele>370.6</ele>
        <time>2017-07-30T08:03:13.000Z</time>
      </trkpt>
      <trkpt lat="47.54634" lon="6.78453">
        <ele>370.6</ele>
        <time>2017-07-30T08:03:14.000Z</time>
      </trkpt>
      <trkpt lat="47.54632" lon="6.78459">
        <ele>370.2</ele>
        <time>2017-07-30T08:03:15.000Z</time>
      </trkpt>
      <trkpt lat="47.54631" lon="6.78463">
        <ele>370.2</ele>
        <time>2017-07-30T08:03:16.000Z</time>
      </trkpt>
      <trkpt lat="47.54631" lon="6.78471">
        <ele>370.1</ele>
        <time>2017-07-30T08:03:17.000Z</time>
      </trkpt>
      <trkpt lat="47.54634" lon="6.78478">
        <ele>368.7</ele>
        <time>2017-07-30T08:03:18.000Z</time>
      </trkpt>
      <trkpt lat="47.54632" lon="6.78484">
        <ele>368.3</ele>
        <time>2017-07-30T08:03:19.000Z</time>
      </trkpt>
      <trkpt lat="47.54631" lon="6.78489">
        <ele>368.4</ele>
        <time>2017-07-30T08:03:20.000Z</time>
      </trkpt>
      <trkpt lat="47.5463" lon="6.78494">
        <ele>368.5</ele>
        <time>2017-07-30T08:03:21.000Z</time>
      </trkpt>
      <trkpt lat="47.54629" lon="6.78497">
        <ele>368.6</ele>
        <time>2017-07-30T08:03:22.000Z</time>
      </trkpt>
      <trkpt lat="47.54629" lon="6.78501">
        <ele>368.8</ele>
        <time>2017-07-30T08:03:23.000Z</time>
      </trkpt>
      <trkpt lat="47.54629" lon="6.78505">
        <ele>369</ele>
        <time>2017-07-30T08:03:24.000Z</time>
      </trkpt>
      <trkpt lat="47.54629" lon="6.78509">
        <ele>369.2</ele>
        <time>2017-07-30T08:03:25.000Z</time>
      </trkpt>
      <trkpt lat="47.5463" lon="6.78514">
        <ele>371</ele>
        <time>2017-07-30T08:03:26.000Z</time>
      </trkpt>
      <trkpt lat="47.54633" lon="6.78517">
        <ele>371.5</ele>
        <time>2017-07-30T08:03:27.000Z</time>
      </trkpt>
      <trkpt lat="47.54636" lon="6.7852">
        <ele>371.1</ele>
        <time>2017-07-30T08:03:28.000Z</time>
      </trkpt>
      <trkpt lat="47.54641" lon="6.78523">
        <ele>370.7</ele>
        <time>2017-07-30T08:03:29.000Z</time>
      </trkpt>
      <trkpt lat="47.54646" lon="6.78527">
        <ele>369.9</ele>
        <time>2017-07-30T08:03:30.000Z</time>
      </trkpt>
      <trkpt lat="47.5465" lon="6.7853">
        <ele>368.9</ele>
        <time>2017-07-30T08:03:31.000Z</time>
      </trkpt>
      <trkpt lat="47.54654" lon="6.78533">
        <ele>368</ele>
        <time>2017-07-30T08:03:32.000Z</time>
      </trkpt>
      <trkpt lat="47.5466" lon="6.78538">
        <ele>367.6</ele>
        <time>2017-07-30T08:03:33.000Z</time>
      </trkpt>
      <trkpt lat="47.54663" lon="6.78543">
        <ele>367.5</ele>
        <time>2017-07-30T08:03:34.000Z</time>
      </trkpt>
      <trkpt lat="47.54667" lon="6.78548">
        <ele>367.5</ele>
        <time>2017-07-30T08:03:35.000Z</time>
      </trkpt>
      <trkpt lat="47.54669" lon="6.78553">
        <ele>367.6</ele>
        <time>2017-07-30T08:03:36.000Z</time>
      </trkpt>
      <trkpt lat="47.54672" lon="6.78559">
        <ele>367</ele>
        <time>2017-07-30T08:03:37.000Z</time>
      </trkpt>
      <trkpt lat="47.54674" lon="6.78563">
        <ele>366.9</ele>
        <time>2017-07-30T08:03:38.000Z</time>
      </trkpt>
      <trkpt lat="47.54675" lon="6.78568">
        <ele>366.7</ele>
        <time>2017-07-30T08:03:39.000Z</time>
      </trkpt>
      <trkpt lat="47.54677" lon="6.78574">
        <ele>365.9</ele>
        <time>2017-07-30T08:03:40.000Z</time>
      </trkpt>
      <trkpt lat="47.54679" lon="6.7858">
        <ele>365.9</ele>
        <time>2017-07-30T08:03:41.000Z</time>
      </trkpt>
      <trkpt lat="47.5468" lon="6.78584">
        <ele>365.9</ele>
        <time>2017-07-30T08:03:42.000Z</time>
      </trkpt>
      <trkpt lat="47.54682" lon="6.7859">
        <ele>365.8</ele>
        <time>2017-07-30T08:03:43.000Z</time>
      </trkpt>
      <trkpt lat="47.54684" lon="6.78596">
        <ele>365.5</ele>
        <time>2017-07-30T08:03:44.000Z</time>
      </trkpt>
      <trkpt lat="47.54686" lon="6.78602">
        <ele>365.6</ele>
        <time>2017-07-30T08:03:45.000Z</time>
      </trkpt>
      <trkpt lat="47.54687" lon="6.78608">
        <ele>365.6</ele>
        <time>2017-07-30T08:03:46.000Z</time>
      </trkpt>
      <trkpt lat="47.54689" lon="6.78614">
        <ele>365.8</ele>
        <time>2017-07-30T08:03:47.000Z</time>
      </trkpt>
      <trkpt lat="47.54689" lon="6.78619">
        <ele>365.9</ele>
        <time>2017-07-30T08:03:48.000Z</time>
      </trkpt>
      <trkpt lat="47.5469" lon="6.78623">
        <ele>366.1</ele>
        <time>2017-07-30T08:03:49.000Z</time>
      </trkpt>
      <trkpt lat="47.54691" lon="6.78628">
        <ele>366.3</ele>
        <time>2017-07-30T08:03:50.000Z</time>
      </trkpt>
      <trkpt lat="47.54692" lon="6.78632">
        <ele>366.4</ele>
        <time>2017-07-30T08:03:51.000Z</time>
      </trkpt>
      <trkpt lat="47.54693" lon="6.78636">
        <ele>366.5</ele>
        <time>2017-07-30T08:03:52.000Z</time>
      </trkpt>
      <trkpt lat="47.54694" lon="6.78639">
        <ele>366.6</ele>
        <time>2017-07-30T08:03:53.000Z</time>
      </trkpt>
      <trkpt lat="47.54696" lon="6.78645">
        <ele>366.7</ele>
        <time>2017-07-30T08:03:54.000Z</time>
      </trkpt>
      <trkpt lat="47.54697" lon="6.78651">
        <ele>366.8</ele>
        <time>2017-07-30T08:03:55.000Z</time>
      </trkpt>
      <trkpt lat="47.54698" lon="6.78656">
        <ele>366.9</ele>
        <time>2017-07-30T08:03:56.000Z</time>
      </trkpt>
      <trkpt lat="47.54699" lon="6.7866">
        <ele>367</ele>
        <time>2017-07-30T08:03:57.000Z</time>
      </trkpt>
      <trkpt lat="47.547" lon="6.78665">
        <ele>367.1</ele>
        <time>2017-07-30T08:03:58.000Z</time>
      </trkpt>
      <trkpt lat="47.54701" lon="6.7867">
        <ele>367.2</ele>
        <time>2017-07-30T08:03:59.000Z</time>
      </trkpt>
      <trkpt lat="47.54702" lon="6.78675">
        <ele>367.4</ele>
        <time>2017-07-30T08:04:00.000Z</time>
      </trkpt>
      <trkpt lat="47.54703" lon="6.78679">
        <ele>367.5</ele>
        <time>2017-07-30T08:04:01.000Z</time>
      </trkpt>
      <trkpt lat="47.54704" lon="6.78682">
        <ele>367.6</ele>
        <time>2017-07-30T08:04:02.000Z</time>
      </trkpt>
      <trkpt lat="47.54705" lon="6.78684">
        <ele>367.7</ele>
        <time>2017-07-30T08:04:03.000Z</time>
      </trkpt>
      <trkpt lat="47.54707" lon="6.78688">
        <ele>367.9</ele>
        <time>2017-07-30T08:04:04.000Z</time>
      </trkpt>
      <trkpt lat="47.54708" lon="6.78692">
        <ele>368</ele>
        <time>2017-07-30T08:04:05.000Z</time>
      </trkpt>
      <trkpt lat="47.5471" lon="6.78697">
        <ele>368.1</ele>
        <time>2017-07-30T08:04:06.000Z</time>
      </trkpt>
      <trkpt lat="47.54712" lon="6.78701">
        <ele>368.3</ele>
        <time>2017-07-30T08:04:07.000Z</time>
      </trkpt>
      <trkpt lat="47.54714" lon="6.78705">
        <ele>368.5</ele>
        <time>2017-07-30T08:04:08.000Z</time>
      </trkpt>
      <trkpt lat="47.54715" lon="6.78711">
        <ele>368.8</ele>
        <time>2017-07-30T08:04:09.000Z</time>
      </trkpt>
      <trkpt lat="47.54716" lon="6.78714">
        <ele>369</ele>
        <time>2017-07-30T08:04:10.000Z</time>
      </trkpt>
      <trkpt lat="47.54717" lon="6.78718">
        <ele>369.2</ele>
        <time>2017-07-30T08:04:11.000Z</time>
      </trkpt>
      <trkpt lat="47.54719" lon="6.78723">
        <ele>369.4</ele>
        <time>2017-07-30T08:04:12.000Z</time>
      </trkpt>
      <trkpt lat="47.5472" lon="6.78726">
        <ele>369.6</ele>
        <time>2017-07-30T08:04:13.000Z</time>
      </trkpt>
      <trkpt lat="47.5472" lon="6.7873">
        <ele>369.8</ele>
        <time>2017-07-30T08:04:14.000Z</time>
      </trkpt>
      <trkpt lat="47.54722" lon="6.78734">
        <ele>370.1</ele>
        <time>2017-07-30T08:04:15.000Z</time>
      </trkpt>
      <trkpt lat="47.54723" lon="6.78738">
        <ele>370.3</ele>
        <time>2017-07-30T08:04:16.000Z</time>
      </trkpt>
      <trkpt lat="47.54723" lon="6.78742">
        <ele>370.5</ele>
        <time>2017-07-30T08:04:17.000Z</time>
      </trkpt>
      <trkpt lat="47.54725" lon="6.78746">
        <ele>370.7</ele>
        <time>2017-07-30T08:04:18.000Z</time>
      </trkpt>
      <trkpt lat="47.54726" lon="6.78749">
        <ele>370.8</ele>
        <time>2017-07-30T08:04:19.000Z</time>
      </trkpt>
      <trkpt lat="47.54727" lon="6.78752">
        <ele>371</ele>
        <time>2017-07-30T08:04:20.000Z</time>
      </trkpt>
      <trkpt lat="47.54728" lon="6.78755">
        <ele>371.2</ele>
        <time>2017-07-30T08:04:21.000Z</time>
      </trkpt>
      <trkpt lat="47.54729" lon="6.78758">
        <ele>371.4</ele>
        <time>2017-07-30T08:04:22.000Z</time>
      </trkpt>
      <trkpt lat="47.54731" lon="6.7876">
        <ele>371.5</ele>
        <time>2017-07-30T08:04:23.000Z</time>
      </trkpt>
      <trkpt lat="47.54732" lon="6.78764">
        <ele>371.7</ele>
        <time>2017-07-30T08:04:24.000Z</time>
      </trkpt>
      <trkpt lat="47.54734" lon="6.78769">
        <ele>371.9</ele>
        <time>2017-07-30T08:04:25.000Z</time>
      </trkpt>
      <trkpt lat="47.54735" lon="6.78773">
        <ele>372.1</ele>
        <time>2017-07-30T08:04:26.000Z</time>
      </trkpt>
      <trkpt lat="47.54737" lon="6.78777">
        <ele>372.3</ele>
        <time>2017-07-30T08:04:27.000Z</time>
      </trkpt>
      <trkpt lat="47.54738" lon="6.78782">
        <ele>372.5</ele>
        <time>2017-07-30T08:04:28.000Z</time>
      </trkpt>
      <trkpt lat="47.5474" lon="6.78787">
        <ele>372.7</ele>
        <time>2017-07-30T08:04:29.000Z</time>
      </trkpt>
      <trkpt lat="47.54741" lon="6.78791">
        <ele>372.8</ele>
        <time>2017-07-30T08:04:30.000Z</time>
      </trkpt>
      <trkpt lat="47.54742" lon="6.78794">
        <ele>373</ele>
        <time>2017-07-30T08:04:31.000Z</time>
      </trkpt>
      <trkpt lat="47.54743" lon="6.78798">
        <ele>373.2</ele>
        <time>2017-07-30T08:04:32.000Z</time>
      </trkpt>
      <trkpt lat="47.54745" lon="6.78802">
        <ele>373.4</ele>
        <time>2017-07-30T08:04:33.000Z</time>
      </trkpt>
      <trkpt lat="47.54745" lon="6.78805">
        <ele>373.5</ele>
        <time>2017-07-30T08:04:34.000Z</time>
      </trkpt>
      <trkpt lat="47.54747" lon="6.78811">
        <ele>373.8</ele>
        <time>2017-07-30T08:04:36.000Z</time>
      </trkpt>
      <trkpt lat="47.54747" lon="6.78814">
        <ele>373.9</ele>
        <time>2017-07-30T08:04:37.000Z</time>
      </trkpt>
      <trkpt lat="47.54748" lon="6.7882">
        <ele>374.1</ele>
        <time>2017-07-30T08:04:39.000Z</time>
      </trkpt>
      <trkpt lat="47.54748" lon="6.78823">
        <ele>374.2</ele>
        <time>2017-07-30T08:04:40.000Z</time>
      </trkpt>
      <trkpt lat="47.54749" lon="6.78829">
        <ele>374.5</ele>
        <time>2017-07-30T08:04:42.000Z</time>
      </trkpt>
      <trkpt lat="47.5475" lon="6.78832">
        <ele>374.5</ele>
        <time>2017-07-30T08:04:43.000Z</time>
      </trkpt>
      <trkpt lat="47.5475" lon="6.78835">
        <ele>374.7</ele>
        <time>2017-07-30T08:04:44.000Z</time>
      </trkpt>
      <trkpt lat="47.54751" lon="6.78839">
        <ele>374.8</ele>
        <time>2017-07-30T08:04:45.000Z</time>
      </trkpt>
      <trkpt lat="47.54752" lon="6.78845">
        <ele>375.2</ele>
        <time>2017-07-30T08:04:47.000Z</time>
      </trkpt>
      <trkpt lat="47.54752" lon="6.78849">
        <ele>375.3</ele>
        <time>2017-07-30T08:04:48.000Z</time>
      </trkpt>
      <trkpt lat="47.54753" lon="6.78852">
        <ele>375.5</ele>
        <time>2017-07-30T08:04:49.000Z</time>
      </trkpt>
      <trkpt lat="47.54754" lon="6.78855">
        <ele>375.7</ele>
        <time>2017-07-30T08:04:50.000Z</time>
      </trkpt>
      <trkpt lat="47.54755" lon="6.7886">
        <ele>376</ele>
        <time>2017-07-30T08:04:52.000Z</time>
      </trkpt>
      <trkpt lat="47.54756" lon="6.78864">
        <ele>376.1</ele>
        <time>2017-07-30T08:04:53.000Z</time>
      </trkpt>
      <trkpt lat="47.54757" lon="6.78868">
        <ele>376.4</ele>
        <time>2017-07-30T08:04:55.000Z</time>
      </trkpt>
      <trkpt lat="47.54758" lon="6.78871">
        <ele>376.5</ele>
        <time>2017-07-30T08:04:56.000Z</time>
      </trkpt>
      <trkpt lat="47.54759" lon="6.78876">
        <ele>376.7</ele>
        <time>2017-07-30T08:04:58.000Z</time>
      </trkpt>
      <trkpt lat="47.54759" lon="6.7888">
        <ele>376.8</ele>
        <time>2017-07-30T08:04:59.000Z</time>
      </trkpt>
      <trkpt lat="47.54759" lon="6.78885">
        <ele>377.2</ele>
        <time>2017-07-30T08:05:01.000Z</time>
      </trkpt>
      <trkpt lat="47.54759" lon="6.78888">
        <ele>377.4</ele>
        <time>2017-07-30T08:05:02.000Z</time>
      </trkpt>
      <trkpt lat="47.5476" lon="6.78892">
        <ele>377.5</ele>
        <time>2017-07-30T08:05:03.000Z</time>
      </trkpt>
      <trkpt lat="47.5476" lon="6.78895">
        <ele>377.7</ele>
        <time>2017-07-30T08:05:04.000Z</time>
      </trkpt>
      <trkpt lat="47.54761" lon="6.789">
        <ele>378</ele>
        <time>2017-07-30T08:05:06.000Z</time>
      </trkpt>
      <trkpt lat="47.54762" lon="6.78903">
        <ele>378.2</ele>
        <time>2017-07-30T08:05:07.000Z</time>
      </trkpt>
      <trkpt lat="47.54763" lon="6.78907">
        <ele>378.4</ele>
        <time>2017-07-30T08:05:08.000Z</time>
      </trkpt>
      <trkpt lat="47.54764" lon="6.78911">
        <ele>378.6</ele>
        <time>2017-07-30T08:05:09.000Z</time>
      </trkpt>
      <trkpt lat="47.54764" lon="6.78914">
        <ele>378.8</ele>
        <time>2017-07-30T08:05:10.000Z</time>
      </trkpt>
      <trkpt lat="47.54765" lon="6.78918">
        <ele>379</ele>
        <time>2017-07-30T08:05:11.000Z</time>
      </trkpt>
      <trkpt lat="47.54767" lon="6.78923">
        <ele>379.3</ele>
        <time>2017-07-30T08:05:13.000Z</time>
      </trkpt>
      <trkpt lat="47.54767" lon="6.78925">
        <ele>379.4</ele>
        <time>2017-07-30T08:05:14.000Z</time>
      </trkpt>
      <trkpt lat="47.54769" lon="6.78928">
        <ele>379.5</ele>
        <time>2017-07-30T08:05:15.000Z</time>
      </trkpt>
      <trkpt lat="47.5477" lon="6.78931">
        <ele>379.7</ele>
        <time>2017-07-30T08:05:16.000Z</time>
      </trkpt>
      <trkpt lat="47.54772" lon="6.78935">
        <ele>379.8</ele>
        <time>2017-07-30T08:05:17.000Z</time>
      </trkpt>
      <trkpt lat="47.54773" lon="6.78938">
        <ele>379.9</ele>
        <time>2017-07-30T08:05:18.000Z</time>
      </trkpt>
      <trkpt lat="47.54775" lon="6.78942">
        <ele>380</ele>
        <time>2017-07-30T08:05:19.000Z</time>
      </trkpt>
      <trkpt lat="47.54777" lon="6.78945">
        <ele>380.2</ele>
        <time>2017-07-30T08:05:20.000Z</time>
      </trkpt>
      <trkpt lat="47.54778" lon="6.7895">
        <ele>380.6</ele>
        <time>2017-07-30T08:05:22.000Z</time>
      </trkpt>
      <trkpt lat="47.54779" lon="6.78951">
        <ele>380.8</ele>
        <time>2017-07-30T08:05:23.000Z</time>
      </trkpt>
      <trkpt lat="47.54782" lon="6.78954">
        <ele>381.3</ele>
        <time>2017-07-30T08:05:25.000Z</time>
      </trkpt>
      <trkpt lat="47.54783" lon="6.78957">
        <ele>381.6</ele>
        <time>2017-07-30T08:05:26.000Z</time>
      </trkpt>
      <trkpt lat="47.54785" lon="6.78962">
        <ele>382.5</ele>
        <time>2017-07-30T08:05:29.000Z</time>
      </trkpt>
      <trkpt lat="47.54786" lon="6.78963">
        <ele>382.7</ele>
        <time>2017-07-30T08:05:30.000Z</time>
      </trkpt>
      <trkpt lat="47.54787" lon="6.78967">
        <ele>383.2</ele>
        <time>2017-07-30T08:05:32.000Z</time>
      </trkpt>
      <trkpt lat="47.54788" lon="6.78969">
        <ele>383.5</ele>
        <time>2017-07-30T08:05:33.000Z</time>
      </trkpt>
      <trkpt lat="47.54789" lon="6.78973">
        <ele>383.8</ele>
        <time>2017-07-30T08:05:34.000Z</time>
      </trkpt>
      <trkpt lat="47.54791" lon="6.78976">
        <ele>384</ele>
        <time>2017-07-30T08:05:35.000Z</time>
      </trkpt>
      <trkpt lat="47.54793" lon="6.78981">
        <ele>384.3</ele>
        <time>2017-07-30T08:05:36.000Z</time>
      </trkpt>
      <trkpt lat="47.54794" lon="6.78984">
        <ele>384.5</ele>
        <time>2017-07-30T08:05:37.000Z</time>
      </trkpt>
      <trkpt lat="47.54795" lon="6.78987">
        <ele>384.7</ele>
        <time>2017-07-30T08:05:38.000Z</time>
      </trkpt>
      <trkpt lat="47.54797" lon="6.78992">
        <ele>384.9</ele>
        <time>2017-07-30T08:05:39.000Z</time>
      </trkpt>
      <trkpt lat="47.54798" lon="6.78996">
        <ele>385.2</ele>
        <time>2017-07-30T08:05:40.000Z</time>
      </trkpt>
      <trkpt lat="47.54799" lon="6.78999">
        <ele>385.4</ele>
        <time>2017-07-30T08:05:41.000Z</time>
      </trkpt>
      <trkpt lat="47.54801" lon="6.79002">
        <ele>385.7</ele>
        <time>2017-07-30T08:05:42.000Z</time>
      </trkpt>
      <trkpt lat="47.54802" lon="6.79006">
        <ele>386</ele>
        <time>2017-07-30T08:05:43.000Z</time>
      </trkpt>
      <trkpt lat="47.54803" lon="6.79011">
        <ele>386.3</ele>
        <time>2017-07-30T08:05:44.000Z</time>
      </trkpt>
      <trkpt lat="47.54804" lon="6.79015">
        <ele>386.6</ele>
        <time>2017-07-30T08:05:45.000Z</time>
      </trkpt>
      <trkpt lat="47.54805" lon="6.7902">
        <ele>386.9</ele>
        <time>2017-07-30T08:05:46.000Z</time>
      </trkpt>
      <trkpt lat="47.54806" lon="6.79025">
        <ele>390</ele>
        <time>2017-07-30T08:05:47.000Z</time>
      </trkpt>
      <trkpt lat="47.54807" lon="6.79029">
        <ele>390.3</ele>
        <time>2017-07-30T08:05:48.000Z</time>
      </trkpt>
      <trkpt lat="47.54808" lon="6.79032">
        <ele>390.6</ele>
        <time>2017-07-30T08:05:49.000Z</time>
      </trkpt>
      <trkpt lat="47.5481" lon="6.79036">
        <ele>390.9</ele>
        <time>2017-07-30T08:05:50.000Z</time>
      </trkpt>
      <trkpt lat="47.54811" lon="6.79041">
        <ele>391.1</ele>
        <time>2017-07-30T08:05:51.000Z</time>
      </trkpt>
      <trkpt lat="47.54811" lon="6.79045">
        <ele>391.4</ele>
        <time>2017-07-30T08:05:52.000Z</time>
      </trkpt>
      <trkpt lat="47.54812" lon="6.79048">
        <ele>391.7</ele>
        <time>2017-07-30T08:05:53.000Z</time>
      </trkpt>
      <trkpt lat="47.54813" lon="6.79052">
        <ele>392</ele>
        <time>2017-07-30T08:05:54.000Z</time>
      </trkpt>
      <trkpt lat="47.54814" lon="6.79056">
        <ele>392.2</ele>
        <time>2017-07-30T08:05:55.000Z</time>
      </trkpt>
      <trkpt lat="47.54815" lon="6.7906">
        <ele>392.4</ele>
        <time>2017-07-30T08:05:56.000Z</time>
      </trkpt>
      <trkpt lat="47.54816" lon="6.79063">
        <ele>392.6</ele>
        <time>2017-07-30T08:05:57.000Z</time>
      </trkpt>
      <trkpt lat="47.54818" lon="6.79068">
        <ele>393</ele>
        <time>2017-07-30T08:05:59.000Z</time>
      </trkpt>
      <trkpt lat="47.54819" lon="6.79071">
        <ele>393.2</ele>
        <time>2017-07-30T08:06:00.000Z</time>
      </trkpt>
      <trkpt lat="47.5482" lon="6.79074">
        <ele>393.4</ele>
        <time>2017-07-30T08:06:01.000Z</time>
      </trkpt>
      <trkpt lat="47.54821" lon="6.79077">
        <ele>393.6</ele>
        <time>2017-07-30T08:06:02.000Z</time>
      </trkpt>
      <trkpt lat="47.54823" lon="6.79083">
        <ele>394</ele>
        <time>2017-07-30T08:06:04.000Z</time>
      </trkpt>
      <trkpt lat="47.54824" lon="6.79086">
        <ele>394.2</ele>
        <time>2017-07-30T08:06:05.000Z</time>
      </trkpt>
      <trkpt lat="47.54826" lon="6.79089">
        <ele>394.3</ele>
        <time>2017-07-30T08:06:06.000Z</time>
      </trkpt>
      <trkpt lat="47.54827" lon="6.79092">
        <ele>394.5</ele>
        <time>2017-07-30T08:06:07.000Z</time>
      </trkpt>
      <trkpt lat="47.54829" lon="6.79095">
        <ele>394.7</ele>
        <time>2017-07-30T08:06:08.000Z</time>
      </trkpt>
      <trkpt lat="47.54831" lon="6.791">
        <ele>394.9</ele>
        <time>2017-07-30T08:06:09.000Z</time>
      </trkpt>
      <trkpt lat="47.54833" lon="6.79104">
        <ele>395.1</ele>
        <time>2017-07-30T08:06:10.000Z</time>
      </trkpt>
      <trkpt lat="47.54835" lon="6.79107">
        <ele>395.4</ele>
        <time>2017-07-30T08:06:11.000Z</time>
      </trkpt>
      <trkpt lat="47.54836" lon="6.7911">
        <ele>395.5</ele>
        <time>2017-07-30T08:06:12.000Z</time>
      </trkpt>
      <trkpt lat="47.54838" lon="6.79113">
        <ele>395.8</ele>
        <time>2017-07-30T08:06:13.000Z</time>
      </trkpt>
      <trkpt lat="47.54839" lon="6.79115">
        <ele>396</ele>
        <time>2017-07-30T08:06:14.000Z</time>
      </trkpt>
      <trkpt lat="47.5484" lon="6.7912">
        <ele>396.1</ele>
        <time>2017-07-30T08:06:15.000Z</time>
      </trkpt>
      <trkpt lat="47.54842" lon="6.79126">
        <ele>396.4</ele>
        <time>2017-07-30T08:06:17.000Z</time>
      </trkpt>
      <trkpt lat="47.54843" lon="6.7913">
        <ele>396.5</ele>
        <time>2017-07-30T08:06:18.000Z</time>
      </trkpt>
      <trkpt lat="47.54845" lon="6.79134">
        <ele>396.6</ele>
        <time>2017-07-30T08:06:19.000Z</time>
      </trkpt>
      <trkpt lat="47.54847" lon="6.79138">
        <ele>396.7</ele>
        <time>2017-07-30T08:06:20.000Z</time>
      </trkpt>
      <trkpt lat="47.54848" lon="6.79142">
        <ele>396.8</ele>
        <time>2017-07-30T08:06:21.000Z</time>
      </trkpt>
      <trkpt lat="47.54849" lon="6.79146">
        <ele>396.9</ele>
        <time>2017-07-30T08:06:22.000Z</time>
      </trkpt>
      <trkpt lat="47.54851" lon="6.79151">
        <ele>397.1</ele>
        <time>2017-07-30T08:06:23.000Z</time>
      </trkpt>
      <trkpt lat="47.54852" lon="6.79157">
        <ele>397.4</ele>
        <time>2017-07-30T08:06:24.000Z</time>
      </trkpt>
      <trkpt lat="47.54853" lon="6.79162">
        <ele>397.6</ele>
        <time>2017-07-30T08:06:25.000Z</time>
      </trkpt>
      <trkpt lat="47.54855" lon="6.79168">
        <ele>397.8</ele>
        <time>2017-07-30T08:06:26.000Z</time>
      </trkpt>
      <trkpt lat="47.54856" lon="6.79173">
        <ele>398.1</ele>
        <time>2017-07-30T08:06:27.000Z</time>
      </trkpt>
      <trkpt lat="47.54857" lon="6.79178">
        <ele>398.3</ele>
        <time>2017-07-30T08:06:28.000Z</time>
      </trkpt>
      <trkpt lat="47.54859" lon="6.79183">
        <ele>398.5</ele>
        <time>2017-07-30T08:06:29.000Z</time>
      </trkpt>
      <trkpt lat="47.5486" lon="6.79189">
        <ele>398.7</ele>
        <time>2017-07-30T08:06:30.000Z</time>
      </trkpt>
      <trkpt lat="47.54862" lon="6.79195">
        <ele>399</ele>
        <time>2017-07-30T08:06:31.000Z</time>
      </trkpt>
      <trkpt lat="47.54863" lon="6.792">
        <ele>399.2</ele>
        <time>2017-07-30T08:06:32.000Z</time>
      </trkpt>
      <trkpt lat="47.54864" lon="6.79206">
        <ele>399.4</ele>
        <time>2017-07-30T08:06:33.000Z</time>
      </trkpt>
      <trkpt lat="47.54865" lon="6.7921">
        <ele>399.6</ele>
        <time>2017-07-30T08:06:34.000Z</time>
      </trkpt>
      <trkpt lat="47.54866" lon="6.79215">
        <ele>399.8</ele>
        <time>2017-07-30T08:06:35.000Z</time>
      </trkpt>
      <trkpt lat="47.54867" lon="6.7922">
        <ele>401.3</ele>
        <time>2017-07-30T08:06:36.000Z</time>
      </trkpt>
      <trkpt lat="47.54869" lon="6.79227">
        <ele>402.2</ele>
        <time>2017-07-30T08:06:37.000Z</time>
      </trkpt>
      <trkpt lat="47.5487" lon="6.79232">
        <ele>402.2</ele>
        <time>2017-07-30T08:06:38.000Z</time>
      </trkpt>
      <trkpt lat="47.54871" lon="6.79238">
        <ele>402.8</ele>
        <time>2017-07-30T08:06:39.000Z</time>
      </trkpt>
      <trkpt lat="47.54873" lon="6.79244">
        <ele>402.8</ele>
        <time>2017-07-30T08:06:40.000Z</time>
      </trkpt>
      <trkpt lat="47.54874" lon="6.7925">
        <ele>403.4</ele>
        <time>2017-07-30T08:06:41.000Z</time>
      </trkpt>
      <trkpt lat="47.54875" lon="6.79256">
        <ele>404.2</ele>
        <time>2017-07-30T08:06:42.000Z</time>
      </trkpt>
      <trkpt lat="47.54876" lon="6.79262">
        <ele>404.6</ele>
        <time>2017-07-30T08:06:43.000Z</time>
      </trkpt>
      <trkpt lat="47.54878" lon="6.79268">
        <ele>405.1</ele>
        <time>2017-07-30T08:06:44.000Z</time>
      </trkpt>
      <trkpt lat="47.5488" lon="6.79275">
        <ele>405</ele>
        <time>2017-07-30T08:06:45.000Z</time>
      </trkpt>
      <trkpt lat="47.54882" lon="6.79281">
        <ele>405.1</ele>
        <time>2017-07-30T08:06:46.000Z</time>
      </trkpt>
      <trkpt lat="47.54884" lon="6.79288">
        <ele>405.1</ele>
        <time>2017-07-30T08:06:47.000Z</time>
      </trkpt>
      <trkpt lat="47.54886" lon="6.79294">
        <ele>404.8</ele>
        <time>2017-07-30T08:06:48.000Z</time>
      </trkpt>
      <trkpt lat="47.54887" lon="6.79301">
        <ele>405.4</ele>
        <time>2017-07-30T08:06:49.000Z</time>
      </trkpt>
      <trkpt lat="47.54889" lon="6.79308">
        <ele>406.1</ele>
        <time>2017-07-30T08:06:50.000Z</time>
      </trkpt>
      <trkpt lat="47.5489" lon="6.79315">
        <ele>407.4</ele>
        <time>2017-07-30T08:06:51.000Z</time>
      </trkpt>
      <trkpt lat="47.54892" lon="6.79324">
        <ele>408</ele>
        <time>2017-07-30T08:06:52.000Z</time>
      </trkpt>
      <trkpt lat="47.54894" lon="6.79333">
        <ele>408</ele>
        <time>2017-07-30T08:06:53.000Z</time>
      </trkpt>
      <trkpt lat="47.54897" lon="6.79343">
        <ele>407.8</ele>
        <time>2017-07-30T08:06:54.000Z</time>
      </trkpt>
      <trkpt lat="47.54901" lon="6.7935">
        <ele>407.1</ele>
        <time>2017-07-30T08:06:55.000Z</time>
      </trkpt>
      <trkpt lat="47.54906" lon="6.79353">
        <ele>406.9</ele>
        <time>2017-07-30T08:06:56.000Z</time>
      </trkpt>
      <trkpt lat="47.5491" lon="6.79352">
        <ele>405.8</ele>
        <time>2017-07-30T08:06:57.000Z</time>
      </trkpt>
      <trkpt lat="47.54913" lon="6.7935">
        <ele>403.9</ele>
        <time>2017-07-30T08:06:58.000Z</time>
      </trkpt>
      <trkpt lat="47.54917" lon="6.79348">
        <ele>403.8</ele>
        <time>2017-07-30T08:06:59.000Z</time>
      </trkpt>
      <trkpt lat="47.54921" lon="6.79346">
        <ele>403.7</ele>
        <time>2017-07-30T08:07:00.000Z</time>
      </trkpt>
      <trkpt lat="47.54923" lon="6.79345">
        <ele>403.6</ele>
        <time>2017-07-30T08:07:01.000Z</time>
      </trkpt>
      <trkpt lat="47.54926" lon="6.79344">
        <ele>403.6</ele>
        <time>2017-07-30T08:07:02.000Z</time>
      </trkpt>
      <trkpt lat="47.5493" lon="6.79342">
        <ele>403.5</ele>
        <time>2017-07-30T08:07:04.000Z</time>
      </trkpt>
      <trkpt lat="47.54932" lon="6.79342">
        <ele>403.4</ele>
        <time>2017-07-30T08:07:05.000Z</time>
      </trkpt>
      <trkpt lat="47.54934" lon="6.79341">
        <ele>403.4</ele>
        <time>2017-07-30T08:07:06.000Z</time>
      </trkpt>
      <trkpt lat="47.54937" lon="6.79341">
        <ele>403.4</ele>
        <time>2017-07-30T08:07:07.000Z</time>
      </trkpt>
      <trkpt lat="47.5494" lon="6.7934">
        <ele>403.4</ele>
        <time>2017-07-30T08:07:08.000Z</time>
      </trkpt>
      <trkpt lat="47.54942" lon="6.79338">
        <ele>403.4</ele>
        <time>2017-07-30T08:07:09.000Z</time>
      </trkpt>
      <trkpt lat="47.54945" lon="6.79338">
        <ele>403.4</ele>
        <time>2017-07-30T08:07:10.000Z</time>
      </trkpt>
      <trkpt lat="47.54948" lon="6.79337">
        <ele>403.4</ele>
        <time>2017-07-30T08:07:11.000Z</time>
      </trkpt>
      <trkpt lat="47.5495" lon="6.79336">
        <ele>403.5</ele>
        <time>2017-07-30T08:07:12.000Z</time>
      </trkpt>
      <trkpt lat="47.54953" lon="6.79336">
        <ele>403.5</ele>
        <time>2017-07-30T08:07:13.000Z</time>
      </trkpt>
      <trkpt lat="47.54956" lon="6.79334">
        <ele>403.5</ele>
        <time>2017-07-30T08:07:14.000Z</time>
      </trkpt>
      <trkpt lat="47.54959" lon="6.79334">
        <ele>403.5</ele>
        <time>2017-07-30T08:07:15.000Z</time>
      </trkpt>
      <trkpt lat="47.54961" lon="6.79335">
        <ele>403.6</ele>
        <time>2017-07-30T08:07:16.000Z</time>
      </trkpt>
      <trkpt lat="47.54964" lon="6.79335">
        <ele>403.7</ele>
        <time>2017-07-30T08:07:17.000Z</time>
      </trkpt>
      <trkpt lat="47.54968" lon="6.79336">
        <ele>403.8</ele>
        <time>2017-07-30T08:07:19.000Z</time>
      </trkpt>
      <trkpt lat="47.54971" lon="6.79338">
        <ele>403.9</ele>
        <time>2017-07-30T08:07:20.000Z</time>
      </trkpt>
      <trkpt lat="47.54974" lon="6.7934">
        <ele>404</ele>
        <time>2017-07-30T08:07:21.000Z</time>
      </trkpt>
      <trkpt lat="47.54977" lon="6.79342">
        <ele>404</ele>
        <time>2017-07-30T08:07:22.000Z</time>
      </trkpt>
      <trkpt lat="47.54979" lon="6.79344">
        <ele>404.1</ele>
        <time>2017-07-30T08:07:23.000Z</time>
      </trkpt>
      <trkpt lat="47.54982" lon="6.79346">
        <ele>404.3</ele>
        <time>2017-07-30T08:07:24.000Z</time>
      </trkpt>
      <trkpt lat="47.54985" lon="6.79347">
        <ele>404.4</ele>
        <time>2017-07-30T08:07:25.000Z</time>
      </trkpt>
      <trkpt lat="47.54987" lon="6.79349">
        <ele>404.5</ele>
        <time>2017-07-30T08:07:26.000Z</time>
      </trkpt>
      <trkpt lat="47.5499" lon="6.79351">
        <ele>404.6</ele>
        <time>2017-07-30T08:07:27.000Z</time>
      </trkpt>
      <trkpt lat="47.54992" lon="6.79353">
        <ele>404.7</ele>
        <time>2017-07-30T08:07:28.000Z</time>
      </trkpt>
      <trkpt lat="47.54994" lon="6.79355">
        <ele>404.7</ele>
        <time>2017-07-30T08:07:29.000Z</time>
      </trkpt>
      <trkpt lat="47.54996" lon="6.79358">
        <ele>404.8</ele>
        <time>2017-07-30T08:07:30.000Z</time>
      </trkpt>
      <trkpt lat="47.54998" lon="6.7936">
        <ele>404.9</ele>
        <time>2017-07-30T08:07:31.000Z</time>
      </trkpt>
      <trkpt lat="47.55" lon="6.79363">
        <ele>405</ele>
        <time>2017-07-30T08:07:32.000Z</time>
      </trkpt>
      <trkpt lat="47.55002" lon="6.79367">
        <ele>405.1</ele>
        <time>2017-07-30T08:07:33.000Z</time>
      </trkpt>
      <trkpt lat="47.55003" lon="6.7937">
        <ele>405.2</ele>
        <time>2017-07-30T08:07:34.000Z</time>
      </trkpt>
      <trkpt lat="47.55005" lon="6.79374">
        <ele>405.2</ele>
        <time>2017-07-30T08:07:35.000Z</time>
      </trkpt>
      <trkpt lat="47.55006" lon="6.79378">
        <ele>405.3</ele>
        <time>2017-07-30T08:07:36.000Z</time>
      </trkpt>
      <trkpt lat="47.55007" lon="6.79383">
        <ele>405.3</ele>
        <time>2017-07-30T08:07:37.000Z</time>
      </trkpt>
      <trkpt lat="47.55008" lon="6.79387">
        <ele>405.5</ele>
        <time>2017-07-30T08:07:38.000Z</time>
      </trkpt>
      <trkpt lat="47.55009" lon="6.79392">
        <ele>405.5</ele>
        <time>2017-07-30T08:07:39.000Z</time>
      </trkpt>
      <trkpt lat="47.55009" lon="6.79397">
        <ele>405.6</ele>
        <time>2017-07-30T08:07:40.000Z</time>
      </trkpt>
      <trkpt lat="47.5501" lon="6.79403">
        <ele>405.7</ele>
        <time>2017-07-30T08:07:41.000Z</time>
      </trkpt>
      <trkpt lat="47.55011" lon="6.79408">
        <ele>405.7</ele>
        <time>2017-07-30T08:07:42.000Z</time>
      </trkpt>
      <trkpt lat="47.55012" lon="6.79414">
        <ele>405.7</ele>
        <time>2017-07-30T08:07:43.000Z</time>
      </trkpt>
      <trkpt lat="47.55012" lon="6.79421">
        <ele>405.9</ele>
        <time>2017-07-30T08:07:44.000Z</time>
      </trkpt>
      <trkpt lat="47.55012" lon="6.79428">
        <ele>406.8</ele>
        <time>2017-07-30T08:07:45.000Z</time>
      </trkpt>
      <trkpt lat="47.55012" lon="6.79435">
        <ele>407.3</ele>
        <time>2017-07-30T08:07:46.000Z</time>
      </trkpt>
      <trkpt lat="47.55012" lon="6.79441">
        <ele>408</ele>
        <time>2017-07-30T08:07:47.000Z</time>
      </trkpt>
      <trkpt lat="47.55012" lon="6.79449">
        <ele>408.6</ele>
        <time>2017-07-30T08:07:48.000Z</time>
      </trkpt>
      <trkpt lat="47.55012" lon="6.79458">
        <ele>409.3</ele>
        <time>2017-07-30T08:07:49.000Z</time>
      </trkpt>
      <trkpt lat="47.55012" lon="6.79467">
        <ele>409.9</ele>
        <time>2017-07-30T08:07:50.000Z</time>
      </trkpt>
      <trkpt lat="47.55013" lon="6.79475">
        <ele>410.5</ele>
        <time>2017-07-30T08:07:51.000Z</time>
      </trkpt>
      <trkpt lat="47.55014" lon="6.79481">
        <ele>410.5</ele>
        <time>2017-07-30T08:07:52.000Z</time>
      </trkpt>
      <trkpt lat="47.55015" lon="6.79487">
        <ele>410.7</ele>
        <time>2017-07-30T08:07:53.000Z</time>
      </trkpt>
      <trkpt lat="47.55016" lon="6.79492">
        <ele>410.7</ele>
        <time>2017-07-30T08:07:54.000Z</time>
      </trkpt>
      <trkpt lat="47.55016" lon="6.79497">
        <ele>410.7</ele>
        <time>2017-07-30T08:07:55.000Z</time>
      </trkpt>
      <trkpt lat="47.55016" lon="6.79502">
        <ele>410.8</ele>
        <time>2017-07-30T08:07:56.000Z</time>
      </trkpt>
      <trkpt lat="47.55016" lon="6.79506">
        <ele>410.8</ele>
        <time>2017-07-30T08:07:57.000Z</time>
      </trkpt>
      <trkpt lat="47.55017" lon="6.79509">
        <ele>410.9</ele>
        <time>2017-07-30T08:07:58.000Z</time>
      </trkpt>
      <trkpt lat="47.55017" lon="6.79512">
        <ele>410.9</ele>
        <time>2017-07-30T08:07:59.000Z</time>
      </trkpt>
      <trkpt lat="47.55017" lon="6.79516">
        <ele>411</ele>
        <time>2017-07-30T08:08:00.000Z</time>
      </trkpt>
      <trkpt lat="47.55018" lon="6.7952">
        <ele>411</ele>
        <time>2017-07-30T08:08:01.000Z</time>
      </trkpt>
      <trkpt lat="47.55019" lon="6.79523">
        <ele>411</ele>
        <time>2017-07-30T08:08:02.000Z</time>
      </trkpt>
      <trkpt lat="47.5502" lon="6.79529">
        <ele>411</ele>
        <time>2017-07-30T08:08:04.000Z</time>
      </trkpt>
      <trkpt lat="47.5502" lon="6.79531">
        <ele>410.9</ele>
        <time>2017-07-30T08:08:05.000Z</time>
      </trkpt>
      <trkpt lat="47.55021" lon="6.79535">
        <ele>410.8</ele>
        <time>2017-07-30T08:08:07.000Z</time>
      </trkpt>
      <trkpt lat="47.55021" lon="6.79538">
        <ele>410.8</ele>
        <time>2017-07-30T08:08:08.000Z</time>
      </trkpt>
      <trkpt lat="47.55021" lon="6.79541">
        <ele>411.2</ele>
        <time>2017-07-30T08:08:39.000Z</time>
      </trkpt>
      <trkpt lat="47.55015" lon="6.79559">
        <ele>411.1</ele>
        <time>2017-07-30T08:08:40.000Z</time>
      </trkpt>
      <trkpt lat="47.55015" lon="6.79559">
        <ele>409.5</ele>
        <time>2017-07-30T08:09:01.000Z</time>
      </trkpt>
      <trkpt lat="47.55013" lon="6.79573">
        <ele>409.3</ele>
        <time>2017-07-30T08:09:02.000Z</time>
      </trkpt>
      <trkpt lat="47.55013" lon="6.79573">
        <ele>409</ele>
        <time>2017-07-30T08:09:06.000Z</time>
      </trkpt>
      <trkpt lat="47.55012" lon="6.79589">
        <ele>408.9</ele>
        <time>2017-07-30T08:09:07.000Z</time>
      </trkpt>
      <trkpt lat="47.55012" lon="6.79589">
        <ele>409</ele>
        <time>2017-07-30T08:09:09.000Z</time>
      </trkpt>
      <trkpt lat="47.5501" lon="6.79603">
        <ele>409</ele>
        <time>2017-07-30T08:09:10.000Z</time>
      </trkpt>
      <trkpt lat="47.5501" lon="6.79608">
        <ele>409.1</ele>
        <time>2017-07-30T08:09:11.000Z</time>
      </trkpt>
      <trkpt lat="47.55011" lon="6.79612">
        <ele>409.1</ele>
        <time>2017-07-30T08:09:12.000Z</time>
      </trkpt>
      <trkpt lat="47.55012" lon="6.79616">
        <ele>409.2</ele>
        <time>2017-07-30T08:09:13.000Z</time>
      </trkpt>
      <trkpt lat="47.55013" lon="6.79621">
        <ele>409.2</ele>
        <time>2017-07-30T08:09:14.000Z</time>
      </trkpt>
      <trkpt lat="47.55013" lon="6.79626">
        <ele>409.3</ele>
        <time>2017-07-30T08:09:15.000Z</time>
      </trkpt>
      <trkpt lat="47.55013" lon="6.79631">
        <ele>409.3</ele>
        <time>2017-07-30T08:09:16.000Z</time>
      </trkpt>
      <trkpt lat="47.55013" lon="6.79636">
        <ele>409.4</ele>
        <time>2017-07-30T08:09:17.000Z</time>
      </trkpt>
      <trkpt lat="47.55013" lon="6.7964">
        <ele>409.5</ele>
        <time>2017-07-30T08:09:18.000Z</time>
      </trkpt>
      <trkpt lat="47.55017" lon="6.79642">
        <ele>409.6</ele>
        <time>2017-07-30T08:09:20.000Z</time>
      </trkpt>
      <trkpt lat="47.55019" lon="6.79642">
        <ele>409.6</ele>
        <time>2017-07-30T08:09:21.000Z</time>
      </trkpt>
      <trkpt lat="47.55021" lon="6.79643">
        <ele>408.5</ele>
        <time>2017-07-30T08:09:47.000Z</time>
      </trkpt>
      <trkpt lat="47.55033" lon="6.79632">
        <ele>408.6</ele>
        <time>2017-07-30T08:09:48.000Z</time>
      </trkpt>
      <trkpt lat="47.55033" lon="6.79632">
        <ele>409.1</ele>
        <time>2017-07-30T08:09:55.000Z</time>
      </trkpt>
      <trkpt lat="47.55044" lon="6.79622">
        <ele>409.2</ele>
        <time>2017-07-30T08:09:56.000Z</time>
      </trkpt>
      <trkpt lat="47.55044" lon="6.79622">
        <ele>409.6</ele>
        <time>2017-07-30T08:10:06.000Z</time>
      </trkpt>
      <trkpt lat="47.55053" lon="6.79609">
        <ele>409.5</ele>
        <time>2017-07-30T08:10:07.000Z</time>
      </trkpt>
      <trkpt lat="47.55053" lon="6.79609">
        <ele>409.6</ele>
        <time>2017-07-30T08:10:12.000Z</time>
      </trkpt>
      <trkpt lat="47.55061" lon="6.79595">
        <ele>409.6</ele>
        <time>2017-07-30T08:10:13.000Z</time>
      </trkpt>
      <trkpt lat="47.55065" lon="6.79591">
        <ele>410.8</ele>
        <time>2017-07-30T08:10:21.000Z</time>
      </trkpt>
      <trkpt lat="47.55072" lon="6.79583">
        <ele>410.9</ele>
        <time>2017-07-30T08:10:22.000Z</time>
      </trkpt>
      <trkpt lat="47.55074" lon="6.79582">
        <ele>412.8</ele>
        <time>2017-07-30T08:10:32.000Z</time>
      </trkpt>
      <trkpt lat="47.55082" lon="6.7957">
        <ele>412.9</ele>
        <time>2017-07-30T08:10:33.000Z</time>
      </trkpt>
      <trkpt lat="47.55082" lon="6.7957">
        <ele>413.4</ele>
        <time>2017-07-30T08:10:42.000Z</time>
      </trkpt>
      <trkpt lat="47.55091" lon="6.7956">
        <ele>413.5</ele>
        <time>2017-07-30T08:10:43.000Z</time>
      </trkpt>
      <trkpt lat="47.55091" lon="6.7956">
        <ele>415.4</ele>
        <time>2017-07-30T08:10:55.000Z</time>
      </trkpt>
      <trkpt lat="47.55104" lon="6.79544">
        <ele>415.6</ele>
        <time>2017-07-30T08:10:56.000Z</time>
      </trkpt>
      <trkpt lat="47.55104" lon="6.79544">
        <ele>416</ele>
        <time>2017-07-30T08:11:00.000Z</time>
      </trkpt>
      <trkpt lat="47.55113" lon="6.79535">
        <ele>416.1</ele>
        <time>2017-07-30T08:11:01.000Z</time>
      </trkpt>
      <trkpt lat="47.55113" lon="6.79535">
        <ele>416.7</ele>
        <time>2017-07-30T08:11:06.000Z</time>
      </trkpt>
      <trkpt lat="47.55129" lon="6.79532">
        <ele>416.8</ele>
        <time>2017-07-30T08:11:07.000Z</time>
      </trkpt>
      <trkpt lat="47.55129" lon="6.79532">
        <ele>418</ele>
        <time>2017-07-30T08:11:21.000Z</time>
      </trkpt>
      <trkpt lat="47.55143" lon="6.79518">
        <ele>418.1</ele>
        <time>2017-07-30T08:11:22.000Z</time>
      </trkpt>
      <trkpt lat="47.55143" lon="6.79518">
        <ele>418.6</ele>
        <time>2017-07-30T08:11:27.000Z</time>
      </trkpt>
      <trkpt lat="47.5515" lon="6.7951">
        <ele>418.6</ele>
        <time>2017-07-30T08:11:28.000Z</time>
      </trkpt>
      <trkpt lat="47.55153" lon="6.79508">
        <ele>418.8</ele>
        <time>2017-07-30T08:11:31.000Z</time>
      </trkpt>
      <trkpt lat="47.55155" lon="6.79507">
        <ele>418.8</ele>
        <time>2017-07-30T08:11:32.000Z</time>
      </trkpt>
      <trkpt lat="47.55157" lon="6.79505">
        <ele>418.8</ele>
        <time>2017-07-30T08:11:34.000Z</time>
      </trkpt>
      <trkpt lat="47.55159" lon="6.79503">
        <ele>418.9</ele>
        <time>2017-07-30T08:11:35.000Z</time>
      </trkpt>
      <trkpt lat="47.55163" lon="6.79501">
        <ele>419</ele>
        <time>2017-07-30T08:11:37.000Z</time>
      </trkpt>
      <trkpt lat="47.55165" lon="6.79499">
        <ele>419.1</ele>
        <time>2017-07-30T08:11:38.000Z</time>
      </trkpt>
      <trkpt lat="47.55167" lon="6.79497">
        <ele>419.2</ele>
        <time>2017-07-30T08:11:39.000Z</time>
      </trkpt>
      <trkpt lat="47.55168" lon="6.79495">
        <ele>419.2</ele>
        <time>2017-07-30T08:11:40.000Z</time>
      </trkpt>
      <trkpt lat="47.5517" lon="6.79493">
        <ele>419.2</ele>
        <time>2017-07-30T08:11:41.000Z</time>
      </trkpt>
      <trkpt lat="47.55172" lon="6.79491">
        <ele>419.3</ele>
        <time>2017-07-30T08:11:42.000Z</time>
      </trkpt>
      <trkpt lat="47.55174" lon="6.7949">
        <ele>419.4</ele>
        <time>2017-07-30T08:11:43.000Z</time>
      </trkpt>
      <trkpt lat="47.55177" lon="6.79488">
        <ele>419.4</ele>
        <time>2017-07-30T08:11:44.000Z</time>
      </trkpt>
      <trkpt lat="47.5518" lon="6.79485">
        <ele>419.5</ele>
        <time>2017-07-30T08:11:45.000Z</time>
      </trkpt>
      <trkpt lat="47.55183" lon="6.79483">
        <ele>419.6</ele>
        <time>2017-07-30T08:11:46.000Z</time>
      </trkpt>
      <trkpt lat="47.55187" lon="6.7948">
        <ele>419.9</ele>
        <time>2017-07-30T08:11:49.000Z</time>
      </trkpt>
      <trkpt lat="47.55188" lon="6.79479">
        <ele>420</ele>
        <time>2017-07-30T08:11:50.000Z</time>
      </trkpt>
      <trkpt lat="47.55192" lon="6.79476">
        <ele>420.2</ele>
        <time>2017-07-30T08:11:52.000Z</time>
      </trkpt>
      <trkpt lat="47.55197" lon="6.79473">
        <ele>420.3</ele>
        <time>2017-07-30T08:11:53.000Z</time>
      </trkpt>
      <trkpt lat="47.552" lon="6.79471">
        <ele>420.5</ele>
        <time>2017-07-30T08:11:55.000Z</time>
      </trkpt>
      <trkpt lat="47.55205" lon="6.79468">
        <ele>420.6</ele>
        <time>2017-07-30T08:11:56.000Z</time>
      </trkpt>
      <trkpt lat="47.55208" lon="6.79464">
        <ele>420.7</ele>
        <time>2017-07-30T08:11:57.000Z</time>
      </trkpt>
      <trkpt lat="47.55212" lon="6.7946">
        <ele>420.8</ele>
        <time>2017-07-30T08:11:58.000Z</time>
      </trkpt>
      <trkpt lat="47.55215" lon="6.79456">
        <ele>420.8</ele>
        <time>2017-07-30T08:11:59.000Z</time>
      </trkpt>
      <trkpt lat="47.5522" lon="6.79452">
        <ele>420.9</ele>
        <time>2017-07-30T08:12:00.000Z</time>
      </trkpt>
      <trkpt lat="47.55222" lon="6.79448">
        <ele>421</ele>
        <time>2017-07-30T08:12:01.000Z</time>
      </trkpt>
      <trkpt lat="47.55223" lon="6.79447">
        <ele>420.9</ele>
        <time>2017-07-30T08:12:02.000Z</time>
      </trkpt>
      <trkpt lat="47.55225" lon="6.79443">
        <ele>421</ele>
        <time>2017-07-30T08:12:05.000Z</time>
      </trkpt>
      <trkpt lat="47.55227" lon="6.79441">
        <ele>421.1</ele>
        <time>2017-07-30T08:12:06.000Z</time>
      </trkpt>
      <trkpt lat="47.5523" lon="6.79438">
        <ele>421.1</ele>
        <time>2017-07-30T08:12:07.000Z</time>
      </trkpt>
      <trkpt lat="47.55233" lon="6.79433">
        <ele>420.9</ele>
        <time>2017-07-30T08:12:08.000Z</time>
      </trkpt>
      <trkpt lat="47.55235" lon="6.79429">
        <ele>420.7</ele>
        <time>2017-07-30T08:12:11.000Z</time>
      </trkpt>
      <trkpt lat="47.55237" lon="6.79428">
        <ele>420.7</ele>
        <time>2017-07-30T08:12:12.000Z</time>
      </trkpt>
      <trkpt lat="47.55242" lon="6.79424">
        <ele>420.7</ele>
        <time>2017-07-30T08:12:13.000Z</time>
      </trkpt>
      <trkpt lat="47.55248" lon="6.79422">
        <ele>420.9</ele>
        <time>2017-07-30T08:12:14.000Z</time>
      </trkpt>
      <trkpt lat="47.55254" lon="6.79419">
        <ele>421</ele>
        <time>2017-07-30T08:12:15.000Z</time>
      </trkpt>
      <trkpt lat="47.55259" lon="6.79417">
        <ele>421.1</ele>
        <time>2017-07-30T08:12:16.000Z</time>
      </trkpt>
      <trkpt lat="47.55261" lon="6.79416">
        <ele>421.3</ele>
        <time>2017-07-30T08:12:19.000Z</time>
      </trkpt>
      <trkpt lat="47.55266" lon="6.79415">
        <ele>421.3</ele>
        <time>2017-07-30T08:12:20.000Z</time>
      </trkpt>
      <trkpt lat="47.5527" lon="6.79412">
        <ele>421.4</ele>
        <time>2017-07-30T08:12:21.000Z</time>
      </trkpt>
      <trkpt lat="47.55274" lon="6.7941">
        <ele>421.6</ele>
        <time>2017-07-30T08:12:22.000Z</time>
      </trkpt>
      <trkpt lat="47.55275" lon="6.79405">
        <ele>421.8</ele>
        <time>2017-07-30T08:12:23.000Z</time>
      </trkpt>
      <trkpt lat="47.55278" lon="6.7941">
        <ele>421.4</ele>
        <time>2017-07-30T08:12:39.000Z</time>
      </trkpt>
      <trkpt lat="47.55279" lon="6.79412">
        <ele>421.3</ele>
        <time>2017-07-30T08:12:40.000Z</time>
      </trkpt>
      <trkpt lat="47.55281" lon="6.79416">
        <ele>421</ele>
        <time>2017-07-30T08:12:42.000Z</time>
      </trkpt>
      <trkpt lat="47.55283" lon="6.79417">
        <ele>421</ele>
        <time>2017-07-30T08:12:43.000Z</time>
      </trkpt>
      <trkpt lat="47.55286" lon="6.7942">
        <ele>420.8</ele>
        <time>2017-07-30T08:12:44.000Z</time>
      </trkpt>
      <trkpt lat="47.5529" lon="6.79422">
        <ele>420.8</ele>
        <time>2017-07-30T08:12:45.000Z</time>
      </trkpt>
      <trkpt lat="47.55293" lon="6.79424">
        <ele>420.8</ele>
        <time>2017-07-30T08:12:46.000Z</time>
      </trkpt>
      <trkpt lat="47.55295" lon="6.79427">
        <ele>421</ele>
        <time>2017-07-30T08:12:47.000Z</time>
      </trkpt>
      <trkpt lat="47.55298" lon="6.79434">
        <ele>421.2</ele>
        <time>2017-07-30T08:12:48.000Z</time>
      </trkpt>
      <trkpt lat="47.55303" lon="6.79437">
        <ele>421.4</ele>
        <time>2017-07-30T08:12:49.000Z</time>
      </trkpt>
      <trkpt lat="47.55306" lon="6.79441">
        <ele>421.7</ele>
        <time>2017-07-30T08:12:50.000Z</time>
      </trkpt>
      <trkpt lat="47.55308" lon="6.79441">
        <ele>421.9</ele>
        <time>2017-07-30T08:12:51.000Z</time>
      </trkpt>
      <trkpt lat="47.5531" lon="6.79444">
        <ele>422.1</ele>
        <time>2017-07-30T08:12:52.000Z</time>
      </trkpt>
      <trkpt lat="47.55311" lon="6.79448">
        <ele>422.4</ele>
        <time>2017-07-30T08:12:53.000Z</time>
      </trkpt>
      <trkpt lat="47.55312" lon="6.79458">
        <ele>422.6</ele>
        <time>2017-07-30T08:12:54.000Z</time>
      </trkpt>
      <trkpt lat="47.55312" lon="6.79466">
        <ele>422.8</ele>
        <time>2017-07-30T08:12:55.000Z</time>
      </trkpt>
      <trkpt lat="47.55312" lon="6.79472">
        <ele>422.9</ele>
        <time>2017-07-30T08:12:56.000Z</time>
      </trkpt>
      <trkpt lat="47.55315" lon="6.79477">
        <ele>423</ele>
        <time>2017-07-30T08:12:57.000Z</time>
      </trkpt>
      <trkpt lat="47.55316" lon="6.7948">
        <ele>423.2</ele>
        <time>2017-07-30T08:12:59.000Z</time>
      </trkpt>
      <trkpt lat="47.55316" lon="6.79484">
        <ele>423.3</ele>
        <time>2017-07-30T08:13:00.000Z</time>
      </trkpt>
      <trkpt lat="47.55315" lon="6.79487">
        <ele>423.5</ele>
        <time>2017-07-30T08:13:01.000Z</time>
      </trkpt>
      <trkpt lat="47.55314" lon="6.7949">
        <ele>423.7</ele>
        <time>2017-07-30T08:13:02.000Z</time>
      </trkpt>
      <trkpt lat="47.55312" lon="6.79496">
        <ele>423.9</ele>
        <time>2017-07-30T08:13:04.000Z</time>
      </trkpt>
      <trkpt lat="47.55311" lon="6.79498">
        <ele>423.8</ele>
        <time>2017-07-30T08:13:05.000Z</time>
      </trkpt>
      <trkpt lat="47.55309" lon="6.79503">
        <ele>423.7</ele>
        <time>2017-07-30T08:13:07.000Z</time>
      </trkpt>
      <trkpt lat="47.55307" lon="6.79506">
        <ele>423.7</ele>
        <time>2017-07-30T08:13:08.000Z</time>
      </trkpt>
      <trkpt lat="47.55305" lon="6.7951">
        <ele>423.2</ele>
        <time>2017-07-30T08:13:10.000Z</time>
      </trkpt>
      <trkpt lat="47.55305" lon="6.79514">
        <ele>423</ele>
        <time>2017-07-30T08:13:11.000Z</time>
      </trkpt>
      <trkpt lat="47.55305" lon="6.79519">
        <ele>422.9</ele>
        <time>2017-07-30T08:13:12.000Z</time>
      </trkpt>
      <trkpt lat="47.55304" lon="6.79522">
        <ele>423</ele>
        <time>2017-07-30T08:13:13.000Z</time>
      </trkpt>
      <trkpt lat="47.55303" lon="6.79528">
        <ele>423.1</ele>
        <time>2017-07-30T08:13:15.000Z</time>
      </trkpt>
      <trkpt lat="47.55303" lon="6.7953">
        <ele>423.2</ele>
        <time>2017-07-30T08:13:16.000Z</time>
      </trkpt>
      <trkpt lat="47.55304" lon="6.79534">
        <ele>423.5</ele>
        <time>2017-07-30T08:13:17.000Z</time>
      </trkpt>
      <trkpt lat="47.55305" lon="6.79539">
        <ele>423.9</ele>
        <time>2017-07-30T08:13:18.000Z</time>
      </trkpt>
      <trkpt lat="47.55305" lon="6.79543">
        <ele>424.2</ele>
        <time>2017-07-30T08:13:19.000Z</time>
      </trkpt>
      <trkpt lat="47.55307" lon="6.79549">
        <ele>424.4</ele>
        <time>2017-07-30T08:13:20.000Z</time>
      </trkpt>
      <trkpt lat="47.55308" lon="6.79553">
        <ele>424.7</ele>
        <time>2017-07-30T08:13:22.000Z</time>
      </trkpt>
      <trkpt lat="47.55309" lon="6.79556">
        <ele>424.9</ele>
        <time>2017-07-30T08:13:23.000Z</time>
      </trkpt>
      <trkpt lat="47.55309" lon="6.79562">
        <ele>425.2</ele>
        <time>2017-07-30T08:13:26.000Z</time>
      </trkpt>
      <trkpt lat="47.5531" lon="6.79563">
        <ele>425.3</ele>
        <time>2017-07-30T08:13:27.000Z</time>
      </trkpt>
      <trkpt lat="47.55311" lon="6.79566">
        <ele>426.1</ele>
        <time>2017-07-30T08:13:31.000Z</time>
      </trkpt>
      <trkpt lat="47.5531" lon="6.79572">
        <ele>426.4</ele>
        <time>2017-07-30T08:13:32.000Z</time>
      </trkpt>
      <trkpt lat="47.55314" lon="6.79572">
        <ele>428.5</ele>
        <time>2017-07-30T08:13:40.000Z</time>
      </trkpt>
      <trkpt lat="47.55316" lon="6.79572">
        <ele>428.8</ele>
        <time>2017-07-30T08:13:41.000Z</time>
      </trkpt>
      <trkpt lat="47.55317" lon="6.79577">
        <ele>429.9</ele>
        <time>2017-07-30T08:13:45.000Z</time>
      </trkpt>
      <trkpt lat="47.55317" lon="6.7958">
        <ele>430</ele>
        <time>2017-07-30T08:13:46.000Z</time>
      </trkpt>
      <trkpt lat="47.55319" lon="6.79584">
        <ele>430.8</ele>
        <time>2017-07-30T08:13:49.000Z</time>
      </trkpt>
      <trkpt lat="47.55321" lon="6.79584">
        <ele>431</ele>
        <time>2017-07-30T08:13:50.000Z</time>
      </trkpt>
      <trkpt lat="47.55325" lon="6.79584">
        <ele>431.2</ele>
        <time>2017-07-30T08:13:51.000Z</time>
      </trkpt>
      <trkpt lat="47.55329" lon="6.79583">
        <ele>431.8</ele>
        <time>2017-07-30T08:13:53.000Z</time>
      </trkpt>
      <trkpt lat="47.55332" lon="6.79583">
        <ele>432.1</ele>
        <time>2017-07-30T08:13:54.000Z</time>
      </trkpt>
      <trkpt lat="47.55336" lon="6.79584">
        <ele>432.7</ele>
        <time>2017-07-30T08:13:56.000Z</time>
      </trkpt>
      <trkpt lat="47.55338" lon="6.79585">
        <ele>433</ele>
        <time>2017-07-30T08:13:57.000Z</time>
      </trkpt>
      <trkpt lat="47.55341" lon="6.79585">
        <ele>433.5</ele>
        <time>2017-07-30T08:13:59.000Z</time>
      </trkpt>
      <trkpt lat="47.55343" lon="6.79585">
        <ele>433.8</ele>
        <time>2017-07-30T08:14:00.000Z</time>
      </trkpt>
      <trkpt lat="47.55345" lon="6.79585">
        <ele>433.9</ele>
        <time>2017-07-30T08:14:01.000Z</time>
      </trkpt>
      <trkpt lat="47.55348" lon="6.79584">
        <ele>434.1</ele>
        <time>2017-07-30T08:14:02.000Z</time>
      </trkpt>
      <trkpt lat="47.55351" lon="6.79586">
        <ele>434.2</ele>
        <time>2017-07-30T08:14:03.000Z</time>
      </trkpt>
      <trkpt lat="47.55354" lon="6.79589">
        <ele>434.3</ele>
        <time>2017-07-30T08:14:04.000Z</time>
      </trkpt>
      <trkpt lat="47.55356" lon="6.79593">
        <ele>434.4</ele>
        <time>2017-07-30T08:14:05.000Z</time>
      </trkpt>
      <trkpt lat="47.55358" lon="6.79593">
        <ele>434.5</ele>
        <time>2017-07-30T08:14:06.000Z</time>
      </trkpt>
      <trkpt lat="47.55361" lon="6.79596">
        <ele>434.6</ele>
        <time>2017-07-30T08:14:08.000Z</time>
      </trkpt>
      <trkpt lat="47.55362" lon="6.79597">
        <ele>434.7</ele>
        <time>2017-07-30T08:14:09.000Z</time>
      </trkpt>
      <trkpt lat="47.55366" lon="6.79596">
        <ele>434.7</ele>
        <time>2017-07-30T08:14:11.000Z</time>
      </trkpt>
      <trkpt lat="47.55368" lon="6.79595">
        <ele>434.8</ele>
        <time>2017-07-30T08:14:12.000Z</time>
      </trkpt>
      <trkpt lat="47.55371" lon="6.79594">
        <ele>434.7</ele>
        <time>2017-07-30T08:14:13.000Z</time>
      </trkpt>
      <trkpt lat="47.55373" lon="6.79593">
        <ele>434.7</ele>
        <time>2017-07-30T08:14:14.000Z</time>
      </trkpt>
      <trkpt lat="47.55376" lon="6.7959">
        <ele>434.4</ele>
        <time>2017-07-30T08:14:17.000Z</time>
      </trkpt>
      <trkpt lat="47.55379" lon="6.79587">
        <ele>434.3</ele>
        <time>2017-07-30T08:14:18.000Z</time>
      </trkpt>
      <trkpt lat="47.55381" lon="6.79584">
        <ele>434.3</ele>
        <time>2017-07-30T08:14:19.000Z</time>
      </trkpt>
      <trkpt lat="47.55384" lon="6.79581">
        <ele>434.4</ele>
        <time>2017-07-30T08:14:20.000Z</time>
      </trkpt>
      <trkpt lat="47.55386" lon="6.79578">
        <ele>434.4</ele>
        <time>2017-07-30T08:14:21.000Z</time>
      </trkpt>
      <trkpt lat="47.55389" lon="6.79575">
        <ele>434.4</ele>
        <time>2017-07-30T08:14:22.000Z</time>
      </trkpt>
      <trkpt lat="47.55392" lon="6.79573">
        <ele>434.3</ele>
        <time>2017-07-30T08:14:23.000Z</time>
      </trkpt>
      <trkpt lat="47.55395" lon="6.79572">
        <ele>434.3</ele>
        <time>2017-07-30T08:14:24.000Z</time>
      </trkpt>
      <trkpt lat="47.55398" lon="6.7957">
        <ele>434.4</ele>
        <time>2017-07-30T08:14:25.000Z</time>
      </trkpt>
      <trkpt lat="47.55401" lon="6.79569">
        <ele>434.3</ele>
        <time>2017-07-30T08:14:26.000Z</time>
      </trkpt>
      <trkpt lat="47.55403" lon="6.79568">
        <ele>434.3</ele>
        <time>2017-07-30T08:14:27.000Z</time>
      </trkpt>
      <trkpt lat="47.55405" lon="6.79567">
        <ele>434.2</ele>
        <time>2017-07-30T08:14:28.000Z</time>
      </trkpt>
      <trkpt lat="47.55407" lon="6.79566">
        <ele>434.2</ele>
        <time>2017-07-30T08:14:29.000Z</time>
      </trkpt>
      <trkpt lat="47.55409" lon="6.79564">
        <ele>434.3</ele>
        <time>2017-07-30T08:14:30.000Z</time>
      </trkpt>
      <trkpt lat="47.55412" lon="6.79561">
        <ele>434.2</ele>
        <time>2017-07-30T08:14:32.000Z</time>
      </trkpt>
      <trkpt lat="47.55414" lon="6.7956">
        <ele>434.1</ele>
        <time>2017-07-30T08:14:33.000Z</time>
      </trkpt>
      <trkpt lat="47.55418" lon="6.79561">
        <ele>433.7</ele>
        <time>2017-07-30T08:14:37.000Z</time>
      </trkpt>
      <trkpt lat="47.55421" lon="6.79563">
        <ele>433.6</ele>
        <time>2017-07-30T08:14:38.000Z</time>
      </trkpt>
      <trkpt lat="47.55424" lon="6.7956">
        <ele>433.6</ele>
        <time>2017-07-30T08:14:39.000Z</time>
      </trkpt>
      <trkpt lat="47.55427" lon="6.79559">
        <ele>433.6</ele>
        <time>2017-07-30T08:14:40.000Z</time>
      </trkpt>
      <trkpt lat="47.55428" lon="6.79558">
        <ele>433.6</ele>
        <time>2017-07-30T08:14:41.000Z</time>
      </trkpt>
      <trkpt lat="47.5543" lon="6.79555">
        <ele>433.6</ele>
        <time>2017-07-30T08:14:42.000Z</time>
      </trkpt>
      <trkpt lat="47.55433" lon="6.79551">
        <ele>433.5</ele>
        <time>2017-07-30T08:14:43.000Z</time>
      </trkpt>
      <trkpt lat="47.55436" lon="6.79548">
        <ele>433.5</ele>
        <time>2017-07-30T08:14:44.000Z</time>
      </trkpt>
      <trkpt lat="47.55438" lon="6.79548">
        <ele>433.3</ele>
        <time>2017-07-30T08:14:45.000Z</time>
      </trkpt>
      <trkpt lat="47.55443" lon="6.79545">
        <ele>433.2</ele>
        <time>2017-07-30T08:14:46.000Z</time>
      </trkpt>
      <trkpt lat="47.55445" lon="6.79542">
        <ele>433.1</ele>
        <time>2017-07-30T08:14:48.000Z</time>
      </trkpt>
      <trkpt lat="47.55447" lon="6.79541">
        <ele>433</ele>
        <time>2017-07-30T08:14:49.000Z</time>
      </trkpt>
      <trkpt lat="47.5545" lon="6.79537">
        <ele>432.8</ele>
        <time>2017-07-30T08:14:52.000Z</time>
      </trkpt>
      <trkpt lat="47.55451" lon="6.79535">
        <ele>432.8</ele>
        <time>2017-07-30T08:14:53.000Z</time>
      </trkpt>
      <trkpt lat="47.55452" lon="6.79534">
        <ele>432.9</ele>
        <time>2017-07-30T08:14:54.000Z</time>
      </trkpt>
      <trkpt lat="47.55455" lon="6.7953">
        <ele>433.1</ele>
        <time>2017-07-30T08:14:55.000Z</time>
      </trkpt>
      <trkpt lat="47.55455" lon="6.7953">
        <ele>433.3</ele>
        <time>2017-07-30T08:14:56.000Z</time>
      </trkpt>
      <trkpt lat="47.55459" lon="6.79528">
        <ele>433.6</ele>
        <time>2017-07-30T08:14:57.000Z</time>
      </trkpt>
      <trkpt lat="47.55463" lon="6.79526">
        <ele>434.5</ele>
        <time>2017-07-30T08:15:00.000Z</time>
      </trkpt>
      <trkpt lat="47.55464" lon="6.79526">
        <ele>434.8</ele>
        <time>2017-07-30T08:15:01.000Z</time>
      </trkpt>
      <trkpt lat="47.55468" lon="6.79527">
        <ele>435.1</ele>
        <time>2017-07-30T08:15:02.000Z</time>
      </trkpt>
      <trkpt lat="47.55471" lon="6.79527">
        <ele>435.5</ele>
        <time>2017-07-30T08:15:03.000Z</time>
      </trkpt>
      <trkpt lat="47.55474" lon="6.79527">
        <ele>435.8</ele>
        <time>2017-07-30T08:15:04.000Z</time>
      </trkpt>
      <trkpt lat="47.55477" lon="6.79527">
        <ele>436.1</ele>
        <time>2017-07-30T08:15:05.000Z</time>
      </trkpt>
      <trkpt lat="47.55479" lon="6.79526">
        <ele>436.7</ele>
        <time>2017-07-30T08:15:08.000Z</time>
      </trkpt>
      <trkpt lat="47.55481" lon="6.79525">
        <ele>436.8</ele>
        <time>2017-07-30T08:15:09.000Z</time>
      </trkpt>
      <trkpt lat="47.55485" lon="6.79524">
        <ele>437.4</ele>
        <time>2017-07-30T08:15:12.000Z</time>
      </trkpt>
      <trkpt lat="47.55487" lon="6.79524">
        <ele>437.5</ele>
        <time>2017-07-30T08:15:13.000Z</time>
      </trkpt>
      <trkpt lat="47.55491" lon="6.79524">
        <ele>437.7</ele>
        <time>2017-07-30T08:15:15.000Z</time>
      </trkpt>
      <trkpt lat="47.55492" lon="6.79524">
        <ele>437.7</ele>
        <time>2017-07-30T08:15:16.000Z</time>
      </trkpt>
      <trkpt lat="47.55496" lon="6.79527">
        <ele>438.4</ele>
        <time>2017-07-30T08:15:22.000Z</time>
      </trkpt>
      <trkpt lat="47.55496" lon="6.79526">
        <ele>438.4</ele>
        <time>2017-07-30T08:15:23.000Z</time>
      </trkpt>
      <trkpt lat="47.55499" lon="6.79524">
        <ele>438.6</ele>
        <time>2017-07-30T08:15:24.000Z</time>
      </trkpt>
      <trkpt lat="47.55504" lon="6.79523">
        <ele>438.7</ele>
        <time>2017-07-30T08:15:25.000Z</time>
      </trkpt>
      <trkpt lat="47.55507" lon="6.79523">
        <ele>438.9</ele>
        <time>2017-07-30T08:15:26.000Z</time>
      </trkpt>
      <trkpt lat="47.55509" lon="6.79522">
        <ele>439.1</ele>
        <time>2017-07-30T08:15:27.000Z</time>
      </trkpt>
      <trkpt lat="47.55513" lon="6.79521">
        <ele>439.4</ele>
        <time>2017-07-30T08:15:29.000Z</time>
      </trkpt>
      <trkpt lat="47.55516" lon="6.7952">
        <ele>439.4</ele>
        <time>2017-07-30T08:15:30.000Z</time>
      </trkpt>
      <trkpt lat="47.55521" lon="6.79519">
        <ele>439.5</ele>
        <time>2017-07-30T08:15:31.000Z</time>
      </trkpt>
      <trkpt lat="47.55522" lon="6.79519">
        <ele>439.6</ele>
        <time>2017-07-30T08:15:32.000Z</time>
      </trkpt>
      <trkpt lat="47.55526" lon="6.7952">
        <ele>439.7</ele>
        <time>2017-07-30T08:15:33.000Z</time>
      </trkpt>
      <trkpt lat="47.55529" lon="6.79521">
        <ele>439.7</ele>
        <time>2017-07-30T08:15:34.000Z</time>
      </trkpt>
      <trkpt lat="47.55532" lon="6.79521">
        <ele>439.9</ele>
        <time>2017-07-30T08:15:35.000Z</time>
      </trkpt>
      <trkpt lat="47.55535" lon="6.79521">
        <ele>440</ele>
        <time>2017-07-30T08:15:36.000Z</time>
      </trkpt>
      <trkpt lat="47.55537" lon="6.79521">
        <ele>440.1</ele>
        <time>2017-07-30T08:15:37.000Z</time>
      </trkpt>
      <trkpt lat="47.55541" lon="6.79522">
        <ele>440.5</ele>
        <time>2017-07-30T08:15:39.000Z</time>
      </trkpt>
      <trkpt lat="47.55542" lon="6.79523">
        <ele>440.6</ele>
        <time>2017-07-30T08:15:40.000Z</time>
      </trkpt>
      <trkpt lat="47.55545" lon="6.79523">
        <ele>441</ele>
        <time>2017-07-30T08:15:42.000Z</time>
      </trkpt>
      <trkpt lat="47.55549" lon="6.79523">
        <ele>441.2</ele>
        <time>2017-07-30T08:15:43.000Z</time>
      </trkpt>
      <trkpt lat="47.55553" lon="6.79523">
        <ele>441.6</ele>
        <time>2017-07-30T08:15:45.000Z</time>
      </trkpt>
      <trkpt lat="47.55558" lon="6.79524">
        <ele>441.7</ele>
        <time>2017-07-30T08:15:46.000Z</time>
      </trkpt>
      <trkpt lat="47.55562" lon="6.79525">
        <ele>441.9</ele>
        <time>2017-07-30T08:15:48.000Z</time>
      </trkpt>
      <trkpt lat="47.55564" lon="6.79525">
        <ele>441.9</ele>
        <time>2017-07-30T08:15:49.000Z</time>
      </trkpt>
      <trkpt lat="47.55567" lon="6.79524">
        <ele>441.9</ele>
        <time>2017-07-30T08:15:51.000Z</time>
      </trkpt>
      <trkpt lat="47.55569" lon="6.79524">
        <ele>441.9</ele>
        <time>2017-07-30T08:15:52.000Z</time>
      </trkpt>
      <trkpt lat="47.55572" lon="6.79524">
        <ele>441.8</ele>
        <time>2017-07-30T08:15:53.000Z</time>
      </trkpt>
      <trkpt lat="47.55575" lon="6.79524">
        <ele>441.8</ele>
        <time>2017-07-30T08:15:54.000Z</time>
      </trkpt>
      <trkpt lat="47.55578" lon="6.79526">
        <ele>441.9</ele>
        <time>2017-07-30T08:15:55.000Z</time>
      </trkpt>
      <trkpt lat="47.55581" lon="6.79527">
        <ele>441.9</ele>
        <time>2017-07-30T08:15:56.000Z</time>
      </trkpt>
      <trkpt lat="47.55584" lon="6.79529">
        <ele>442</ele>
        <time>2017-07-30T08:15:57.000Z</time>
      </trkpt>
      <trkpt lat="47.55586" lon="6.79529">
        <ele>442</ele>
        <time>2017-07-30T08:15:58.000Z</time>
      </trkpt>
      <trkpt lat="47.55589" lon="6.7953">
        <ele>442.1</ele>
        <time>2017-07-30T08:16:00.000Z</time>
      </trkpt>
      <trkpt lat="47.55592" lon="6.79529">
        <ele>442.1</ele>
        <time>2017-07-30T08:16:01.000Z</time>
      </trkpt>
      <trkpt lat="47.55595" lon="6.79528">
        <ele>442.2</ele>
        <time>2017-07-30T08:16:03.000Z</time>
      </trkpt>
      <trkpt lat="47.55597" lon="6.79529">
        <ele>442.2</ele>
        <time>2017-07-30T08:16:04.000Z</time>
      </trkpt>
      <trkpt lat="47.556" lon="6.79528">
        <ele>442.2</ele>
        <time>2017-07-30T08:16:05.000Z</time>
      </trkpt>
      <trkpt lat="47.55603" lon="6.79527">
        <ele>442.3</ele>
        <time>2017-07-30T08:16:06.000Z</time>
      </trkpt>
      <trkpt lat="47.55606" lon="6.79526">
        <ele>442.3</ele>
        <time>2017-07-30T08:16:07.000Z</time>
      </trkpt>
      <trkpt lat="47.55608" lon="6.79526">
        <ele>442.4</ele>
        <time>2017-07-30T08:16:08.000Z</time>
      </trkpt>
      <trkpt lat="47.55611" lon="6.79527">
        <ele>442.6</ele>
        <time>2017-07-30T08:16:09.000Z</time>
      </trkpt>
      <trkpt lat="47.55613" lon="6.79527">
        <ele>442.8</ele>
        <time>2017-07-30T08:16:10.000Z</time>
      </trkpt>
      <trkpt lat="47.55615" lon="6.79527">
        <ele>443</ele>
        <time>2017-07-30T08:16:11.000Z</time>
      </trkpt>
      <trkpt lat="47.55618" lon="6.79525">
        <ele>443.2</ele>
        <time>2017-07-30T08:16:12.000Z</time>
      </trkpt>
      <trkpt lat="47.55622" lon="6.79524">
        <ele>443.6</ele>
        <time>2017-07-30T08:16:14.000Z</time>
      </trkpt>
      <trkpt lat="47.55623" lon="6.79524">
        <ele>443.9</ele>
        <time>2017-07-30T08:16:15.000Z</time>
      </trkpt>
      <trkpt lat="47.55627" lon="6.79522">
        <ele>444.4</ele>
        <time>2017-07-30T08:16:17.000Z</time>
      </trkpt>
      <trkpt lat="47.5563" lon="6.79521">
        <ele>444.7</ele>
        <time>2017-07-30T08:16:18.000Z</time>
      </trkpt>
      <trkpt lat="47.55637" lon="6.79519">
        <ele>445</ele>
        <time>2017-07-30T08:16:19.000Z</time>
      </trkpt>
      <trkpt lat="47.55643" lon="6.79518">
        <ele>445.2</ele>
        <time>2017-07-30T08:16:20.000Z</time>
      </trkpt>
      <trkpt lat="47.55648" lon="6.79518">
        <ele>445.4</ele>
        <time>2017-07-30T08:16:21.000Z</time>
      </trkpt>
      <trkpt lat="47.55655" lon="6.79519">
        <ele>445.5</ele>
        <time>2017-07-30T08:16:22.000Z</time>
      </trkpt>
      <trkpt lat="47.55659" lon="6.79519">
        <ele>445.6</ele>
        <time>2017-07-30T08:16:23.000Z</time>
      </trkpt>
      <trkpt lat="47.55662" lon="6.7952">
        <ele>445.7</ele>
        <time>2017-07-30T08:16:24.000Z</time>
      </trkpt>
      <trkpt lat="47.55665" lon="6.79521">
        <ele>445.9</ele>
        <time>2017-07-30T08:16:25.000Z</time>
      </trkpt>
      <trkpt lat="47.55668" lon="6.79521">
        <ele>446</ele>
        <time>2017-07-30T08:16:26.000Z</time>
      </trkpt>
      <trkpt lat="47.55671" lon="6.79523">
        <ele>446.2</ele>
        <time>2017-07-30T08:16:27.000Z</time>
      </trkpt>
      <trkpt lat="47.55674" lon="6.79525">
        <ele>446.4</ele>
        <time>2017-07-30T08:16:28.000Z</time>
      </trkpt>
      <trkpt lat="47.55677" lon="6.79525">
        <ele>446.5</ele>
        <time>2017-07-30T08:16:29.000Z</time>
      </trkpt>
      <trkpt lat="47.55679" lon="6.79526">
        <ele>446.8</ele>
        <time>2017-07-30T08:16:30.000Z</time>
      </trkpt>
      <trkpt lat="47.55683" lon="6.79524">
        <ele>449.7</ele>
        <time>2017-07-30T08:16:42.000Z</time>
      </trkpt>
      <trkpt lat="47.55685" lon="6.79525">
        <ele>450.4</ele>
        <time>2017-07-30T08:16:43.000Z</time>
      </trkpt>
      <trkpt lat="47.5569" lon="6.79523">
        <ele>451.1</ele>
        <time>2017-07-30T08:16:44.000Z</time>
      </trkpt>
      <trkpt lat="47.55695" lon="6.7952">
        <ele>451.6</ele>
        <time>2017-07-30T08:16:45.000Z</time>
      </trkpt>
      <trkpt lat="47.557" lon="6.79519">
        <ele>452</ele>
        <time>2017-07-30T08:16:46.000Z</time>
      </trkpt>
      <trkpt lat="47.55703" lon="6.79521">
        <ele>452.6</ele>
        <time>2017-07-30T08:16:48.000Z</time>
      </trkpt>
      <trkpt lat="47.55705" lon="6.79522">
        <ele>452.7</ele>
        <time>2017-07-30T08:16:49.000Z</time>
      </trkpt>
      <trkpt lat="47.55708" lon="6.79523">
        <ele>452.9</ele>
        <time>2017-07-30T08:16:50.000Z</time>
      </trkpt>
      <trkpt lat="47.55711" lon="6.79523">
        <ele>453.1</ele>
        <time>2017-07-30T08:16:51.000Z</time>
      </trkpt>
      <trkpt lat="47.55716" lon="6.79524">
        <ele>454.8</ele>
        <time>2017-07-30T08:16:52.000Z</time>
      </trkpt>
      <trkpt lat="47.55722" lon="6.79526">
        <ele>456.3</ele>
        <time>2017-07-30T08:16:53.000Z</time>
      </trkpt>
      <trkpt lat="47.55725" lon="6.79527">
        <ele>456.3</ele>
        <time>2017-07-30T08:16:54.000Z</time>
      </trkpt>
      <trkpt lat="47.55729" lon="6.79527">
        <ele>456.4</ele>
        <time>2017-07-30T08:16:55.000Z</time>
      </trkpt>
      <trkpt lat="47.55735" lon="6.79528">
        <ele>456.5</ele>
        <time>2017-07-30T08:16:56.000Z</time>
      </trkpt>
      <trkpt lat="47.55738" lon="6.79528">
        <ele>456.5</ele>
        <time>2017-07-30T08:16:57.000Z</time>
      </trkpt>
      <trkpt lat="47.55745" lon="6.79529">
        <ele>456.6</ele>
        <time>2017-07-30T08:16:58.000Z</time>
      </trkpt>
      <trkpt lat="47.55749" lon="6.79529">
        <ele>457.4</ele>
        <time>2017-07-30T08:16:59.000Z</time>
      </trkpt>
      <trkpt lat="47.55752" lon="6.79528">
        <ele>457.4</ele>
        <time>2017-07-30T08:17:00.000Z</time>
      </trkpt>
      <trkpt lat="47.55755" lon="6.79527">
        <ele>457.4</ele>
        <time>2017-07-30T08:17:01.000Z</time>
      </trkpt>
      <trkpt lat="47.55759" lon="6.79525">
        <ele>457.4</ele>
        <time>2017-07-30T08:17:02.000Z</time>
      </trkpt>
      <trkpt lat="47.55762" lon="6.79528">
        <ele>457.4</ele>
        <time>2017-07-30T08:17:03.000Z</time>
      </trkpt>
      <trkpt lat="47.55767" lon="6.7953">
        <ele>457.4</ele>
        <time>2017-07-30T08:17:04.000Z</time>
      </trkpt>
      <trkpt lat="47.55773" lon="6.79534">
        <ele>457.5</ele>
        <time>2017-07-30T08:17:05.000Z</time>
      </trkpt>
      <trkpt lat="47.55779" lon="6.79535">
        <ele>457.5</ele>
        <time>2017-07-30T08:17:06.000Z</time>
      </trkpt>
      <trkpt lat="47.55782" lon="6.7954">
        <ele>457.6</ele>
        <time>2017-07-30T08:17:07.000Z</time>
      </trkpt>
      <trkpt lat="47.55785" lon="6.79544">
        <ele>457.7</ele>
        <time>2017-07-30T08:17:08.000Z</time>
      </trkpt>
      <trkpt lat="47.55791" lon="6.79545">
        <ele>457.8</ele>
        <time>2017-07-30T08:17:09.000Z</time>
      </trkpt>
      <trkpt lat="47.55796" lon="6.79545">
        <ele>457.9</ele>
        <time>2017-07-30T08:17:10.000Z</time>
      </trkpt>
      <trkpt lat="47.558" lon="6.79545">
        <ele>458</ele>
        <time>2017-07-30T08:17:11.000Z</time>
      </trkpt>
      <trkpt lat="47.55804" lon="6.79548">
        <ele>458</ele>
        <time>2017-07-30T08:17:12.000Z</time>
      </trkpt>
      <trkpt lat="47.55808" lon="6.79553">
        <ele>458.1</ele>
        <time>2017-07-30T08:17:13.000Z</time>
      </trkpt>
      <trkpt lat="47.55814" lon="6.79557">
        <ele>458.2</ele>
        <time>2017-07-30T08:17:14.000Z</time>
      </trkpt>
      <trkpt lat="47.55819" lon="6.7956">
        <ele>458.2</ele>
        <time>2017-07-30T08:17:15.000Z</time>
      </trkpt>
      <trkpt lat="47.55827" lon="6.7956">
        <ele>458.3</ele>
        <time>2017-07-30T08:17:16.000Z</time>
      </trkpt>
      <trkpt lat="47.55836" lon="6.79554">
        <ele>458.3</ele>
        <time>2017-07-30T08:17:17.000Z</time>
      </trkpt>
      <trkpt lat="47.55844" lon="6.79547">
        <ele>458.2</ele>
        <time>2017-07-30T08:17:18.000Z</time>
      </trkpt>
      <trkpt lat="47.55851" lon="6.79545">
        <ele>458</ele>
        <time>2017-07-30T08:17:19.000Z</time>
      </trkpt>
      <trkpt lat="47.55858" lon="6.79543">
        <ele>457.9</ele>
        <time>2017-07-30T08:17:20.000Z</time>
      </trkpt>
      <trkpt lat="47.55865" lon="6.7954">
        <ele>457.8</ele>
        <time>2017-07-30T08:17:21.000Z</time>
      </trkpt>
      <trkpt lat="47.55873" lon="6.79536">
        <ele>457.7</ele>
        <time>2017-07-30T08:17:22.000Z</time>
      </trkpt>
      <trkpt lat="47.55881" lon="6.79538">
        <ele>457.6</ele>
        <time>2017-07-30T08:17:23.000Z</time>
      </trkpt>
      <trkpt lat="47.55886" lon="6.7954">
        <ele>457.6</ele>
        <time>2017-07-30T08:17:24.000Z</time>
      </trkpt>
      <trkpt lat="47.55899" lon="6.79543">
        <ele>457.5</ele>
        <time>2017-07-30T08:17:25.000Z</time>
      </trkpt>
      <trkpt lat="47.55906" lon="6.79545">
        <ele>457.3</ele>
        <time>2017-07-30T08:17:26.000Z</time>
      </trkpt>
      <trkpt lat="47.5591" lon="6.79547">
        <ele>457.1</ele>
        <time>2017-07-30T08:17:27.000Z</time>
      </trkpt>
      <trkpt lat="47.55915" lon="6.7955">
        <ele>456.8</ele>
        <time>2017-07-30T08:17:28.000Z</time>
      </trkpt>
      <trkpt lat="47.55917" lon="6.79552">
        <ele>456.5</ele>
        <time>2017-07-30T08:17:29.000Z</time>
      </trkpt>
      <trkpt lat="47.55919" lon="6.79555">
        <ele>456.3</ele>
        <time>2017-07-30T08:17:30.000Z</time>
      </trkpt>
      <trkpt lat="47.5592" lon="6.79558">
        <ele>456.1</ele>
        <time>2017-07-30T08:17:31.000Z</time>
      </trkpt>
      <trkpt lat="47.5592" lon="6.79562">
        <ele>455.8</ele>
        <time>2017-07-30T08:17:32.000Z</time>
      </trkpt>
      <trkpt lat="47.5592" lon="6.79567">
        <ele>455.6</ele>
        <time>2017-07-30T08:17:33.000Z</time>
      </trkpt>
      <trkpt lat="47.55919" lon="6.79572">
        <ele>455.3</ele>
        <time>2017-07-30T08:17:34.000Z</time>
      </trkpt>
      <trkpt lat="47.55919" lon="6.79578">
        <ele>455.1</ele>
        <time>2017-07-30T08:17:35.000Z</time>
      </trkpt>
      <trkpt lat="47.55919" lon="6.79588">
        <ele>455</ele>
        <time>2017-07-30T08:17:36.000Z</time>
      </trkpt>
      <trkpt lat="47.55919" lon="6.79593">
        <ele>454.8</ele>
        <time>2017-07-30T08:17:37.000Z</time>
      </trkpt>
      <trkpt lat="47.5592" lon="6.79596">
        <ele>454.6</ele>
        <time>2017-07-30T08:17:38.000Z</time>
      </trkpt>
      <trkpt lat="47.5592" lon="6.79601">
        <ele>454.3</ele>
        <time>2017-07-30T08:17:39.000Z</time>
      </trkpt>
      <trkpt lat="47.55922" lon="6.7961">
        <ele>454</ele>
        <time>2017-07-30T08:17:40.000Z</time>
      </trkpt>
      <trkpt lat="47.55923" lon="6.7962">
        <ele>453.6</ele>
        <time>2017-07-30T08:17:41.000Z</time>
      </trkpt>
      <trkpt lat="47.55925" lon="6.79629">
        <ele>453.2</ele>
        <time>2017-07-30T08:17:42.000Z</time>
      </trkpt>
      <trkpt lat="47.55926" lon="6.79638">
        <ele>452.9</ele>
        <time>2017-07-30T08:17:43.000Z</time>
      </trkpt>
      <trkpt lat="47.55928" lon="6.79644">
        <ele>452.4</ele>
        <time>2017-07-30T08:17:44.000Z</time>
      </trkpt>
      <trkpt lat="47.55929" lon="6.79648">
        <ele>452</ele>
        <time>2017-07-30T08:17:45.000Z</time>
      </trkpt>
      <trkpt lat="47.55932" lon="6.79651">
        <ele>451.5</ele>
        <time>2017-07-30T08:17:46.000Z</time>
      </trkpt>
      <trkpt lat="47.55935" lon="6.79653">
        <ele>447.6</ele>
        <time>2017-07-30T08:17:47.000Z</time>
      </trkpt>
      <trkpt lat="47.55938" lon="6.79656">
        <ele>447.3</ele>
        <time>2017-07-30T08:17:48.000Z</time>
      </trkpt>
      <trkpt lat="47.5594" lon="6.79658">
        <ele>445</ele>
        <time>2017-07-30T08:17:49.000Z</time>
      </trkpt>
      <trkpt lat="47.55943" lon="6.79662">
        <ele>444.6</ele>
        <time>2017-07-30T08:17:52.000Z</time>
      </trkpt>
      <trkpt lat="47.55944" lon="6.79662">
        <ele>444.5</ele>
        <time>2017-07-30T08:17:53.000Z</time>
      </trkpt>
      <trkpt lat="47.5594" lon="6.79661">
        <ele>443.8</ele>
        <time>2017-07-30T08:17:58.000Z</time>
      </trkpt>
      <trkpt lat="47.55939" lon="6.79662">
        <ele>443.4</ele>
        <time>2017-07-30T08:17:59.000Z</time>
      </trkpt>
      <trkpt lat="47.55936" lon="6.79662">
        <ele>442.9</ele>
        <time>2017-07-30T08:18:01.000Z</time>
      </trkpt>
      <trkpt lat="47.55935" lon="6.79663">
        <ele>442.8</ele>
        <time>2017-07-30T08:18:02.000Z</time>
      </trkpt>
      <trkpt lat="47.55931" lon="6.79663">
        <ele>442</ele>
        <time>2017-07-30T08:18:07.000Z</time>
      </trkpt>
      <trkpt lat="47.5593" lon="6.7966">
        <ele>441.9</ele>
        <time>2017-07-30T08:18:08.000Z</time>
      </trkpt>
      <trkpt lat="47.55929" lon="6.79654">
        <ele>441.8</ele>
        <time>2017-07-30T08:18:09.000Z</time>
      </trkpt>
      <trkpt lat="47.55928" lon="6.79649">
        <ele>441.7</ele>
        <time>2017-07-30T08:18:10.000Z</time>
      </trkpt>
      <trkpt lat="47.55925" lon="6.79643">
        <ele>441.5</ele>
        <time>2017-07-30T08:18:11.000Z</time>
      </trkpt>
      <trkpt lat="47.55922" lon="6.79638">
        <ele>441.4</ele>
        <time>2017-07-30T08:18:12.000Z</time>
      </trkpt>
      <trkpt lat="47.5592" lon="6.79632">
        <ele>441.3</ele>
        <time>2017-07-30T08:18:13.000Z</time>
      </trkpt>
      <trkpt lat="47.55919" lon="6.79626">
        <ele>441.3</ele>
        <time>2017-07-30T08:18:14.000Z</time>
      </trkpt>
      <trkpt lat="47.55919" lon="6.79621">
        <ele>441.2</ele>
        <time>2017-07-30T08:18:15.000Z</time>
      </trkpt>
      <trkpt lat="47.55917" lon="6.79616">
        <ele>441.1</ele>
        <time>2017-07-30T08:18:16.000Z</time>
      </trkpt>
      <trkpt lat="47.55916" lon="6.7961">
        <ele>441</ele>
        <time>2017-07-30T08:18:17.000Z</time>
      </trkpt>
      <trkpt lat="47.55915" lon="6.79604">
        <ele>440.9</ele>
        <time>2017-07-30T08:18:18.000Z</time>
      </trkpt>
      <trkpt lat="47.55914" lon="6.79598">
        <ele>440.8</ele>
        <time>2017-07-30T08:18:19.000Z</time>
      </trkpt>
      <trkpt lat="47.55913" lon="6.79592">
        <ele>440.6</ele>
        <time>2017-07-30T08:18:20.000Z</time>
      </trkpt>
      <trkpt lat="47.55913" lon="6.79586">
        <ele>440.4</ele>
        <time>2017-07-30T08:18:21.000Z</time>
      </trkpt>
      <trkpt lat="47.55911" lon="6.7958">
        <ele>440.2</ele>
        <time>2017-07-30T08:18:22.000Z</time>
      </trkpt>
      <trkpt lat="47.55911" lon="6.79574">
        <ele>440</ele>
        <time>2017-07-30T08:18:23.000Z</time>
      </trkpt>
      <trkpt lat="47.5591" lon="6.7957">
        <ele>439.8</ele>
        <time>2017-07-30T08:18:24.000Z</time>
      </trkpt>
      <trkpt lat="47.5591" lon="6.79566">
        <ele>439.5</ele>
        <time>2017-07-30T08:18:25.000Z</time>
      </trkpt>
      <trkpt lat="47.55909" lon="6.79563">
        <ele>439.3</ele>
        <time>2017-07-30T08:18:26.000Z</time>
      </trkpt>
      <trkpt lat="47.55908" lon="6.79559">
        <ele>439.1</ele>
        <time>2017-07-30T08:18:27.000Z</time>
      </trkpt>
      <trkpt lat="47.55907" lon="6.79555">
        <ele>438.9</ele>
        <time>2017-07-30T08:18:28.000Z</time>
      </trkpt>
      <trkpt lat="47.55907" lon="6.7955">
        <ele>438.7</ele>
        <time>2017-07-30T08:18:29.000Z</time>
      </trkpt>
      <trkpt lat="47.55907" lon="6.79545">
        <ele>438.5</ele>
        <time>2017-07-30T08:18:30.000Z</time>
      </trkpt>
      <trkpt lat="47.55906" lon="6.79541">
        <ele>438.3</ele>
        <time>2017-07-30T08:18:31.000Z</time>
      </trkpt>
      <trkpt lat="47.55907" lon="6.79535">
        <ele>438.2</ele>
        <time>2017-07-30T08:18:32.000Z</time>
      </trkpt>
      <trkpt lat="47.55907" lon="6.79531">
        <ele>438</ele>
        <time>2017-07-30T08:18:33.000Z</time>
      </trkpt>
      <trkpt lat="47.55907" lon="6.79527">
        <ele>437.8</ele>
        <time>2017-07-30T08:18:34.000Z</time>
      </trkpt>
      <trkpt lat="47.55906" lon="6.79523">
        <ele>437.7</ele>
        <time>2017-07-30T08:18:35.000Z</time>
      </trkpt>
      <trkpt lat="47.55906" lon="6.79519">
        <ele>437.5</ele>
        <time>2017-07-30T08:18:36.000Z</time>
      </trkpt>
      <trkpt lat="47.55905" lon="6.79513">
        <ele>437.3</ele>
        <time>2017-07-30T08:18:38.000Z</time>
      </trkpt>
      <trkpt lat="47.55905" lon="6.79511">
        <ele>437.2</ele>
        <time>2017-07-30T08:18:39.000Z</time>
      </trkpt>
      <trkpt lat="47.55905" lon="6.79505">
        <ele>436.8</ele>
        <time>2017-07-30T08:18:41.000Z</time>
      </trkpt>
      <trkpt lat="47.55906" lon="6.79502">
        <ele>436.7</ele>
        <time>2017-07-30T08:18:42.000Z</time>
      </trkpt>
      <trkpt lat="47.55906" lon="6.79498">
        <ele>436.6</ele>
        <time>2017-07-30T08:18:43.000Z</time>
      </trkpt>
      <trkpt lat="47.55908" lon="6.79492">
        <ele>436.5</ele>
        <time>2017-07-30T08:18:44.000Z</time>
      </trkpt>
      <trkpt lat="47.55909" lon="6.7949">
        <ele>436.4</ele>
        <time>2017-07-30T08:18:45.000Z</time>
      </trkpt>
      <trkpt lat="47.5591" lon="6.79486">
        <ele>436.4</ele>
        <time>2017-07-30T08:18:46.000Z</time>
      </trkpt>
      <trkpt lat="47.55911" lon="6.79483">
        <ele>436.4</ele>
        <time>2017-07-30T08:18:47.000Z</time>
      </trkpt>
      <trkpt lat="47.55913" lon="6.79477">
        <ele>436.3</ele>
        <time>2017-07-30T08:18:48.000Z</time>
      </trkpt>
      <trkpt lat="47.55915" lon="6.79471">
        <ele>436.3</ele>
        <time>2017-07-30T08:18:49.000Z</time>
      </trkpt>
      <trkpt lat="47.55918" lon="6.79466">
        <ele>436.2</ele>
        <time>2017-07-30T08:18:50.000Z</time>
      </trkpt>
      <trkpt lat="47.55919" lon="6.79462">
        <ele>436.1</ele>
        <time>2017-07-30T08:18:51.000Z</time>
      </trkpt>
      <trkpt lat="47.5592" lon="6.79458">
        <ele>436</ele>
        <time>2017-07-30T08:18:52.000Z</time>
      </trkpt>
      <trkpt lat="47.5592" lon="6.79454">
        <ele>436</ele>
        <time>2017-07-30T08:18:53.000Z</time>
      </trkpt>
      <trkpt lat="47.55919" lon="6.79449">
        <ele>435.7</ele>
        <time>2017-07-30T08:18:56.000Z</time>
      </trkpt>
      <trkpt lat="47.55919" lon="6.79447">
        <ele>435.6</ele>
        <time>2017-07-30T08:18:57.000Z</time>
      </trkpt>
      <trkpt lat="47.55918" lon="6.79443">
        <ele>435.4</ele>
        <time>2017-07-30T08:18:58.000Z</time>
      </trkpt>
      <trkpt lat="47.55918" lon="6.7944">
        <ele>435.2</ele>
        <time>2017-07-30T08:18:59.000Z</time>
      </trkpt>
      <trkpt lat="47.55919" lon="6.79435">
        <ele>435</ele>
        <time>2017-07-30T08:19:00.000Z</time>
      </trkpt>
      <trkpt lat="47.55919" lon="6.79431">
        <ele>434.7</ele>
        <time>2017-07-30T08:19:01.000Z</time>
      </trkpt>
      <trkpt lat="47.55918" lon="6.79426">
        <ele>434.4</ele>
        <time>2017-07-30T08:19:02.000Z</time>
      </trkpt>
      <trkpt lat="47.55919" lon="6.79423">
        <ele>434</ele>
        <time>2017-07-30T08:19:03.000Z</time>
      </trkpt>
      <trkpt lat="47.55918" lon="6.79417">
        <ele>433.5</ele>
        <time>2017-07-30T08:19:05.000Z</time>
      </trkpt>
      <trkpt lat="47.55918" lon="6.79414">
        <ele>433.3</ele>
        <time>2017-07-30T08:19:06.000Z</time>
      </trkpt>
      <trkpt lat="47.55917" lon="6.7941">
        <ele>433.2</ele>
        <time>2017-07-30T08:19:07.000Z</time>
      </trkpt>
      <trkpt lat="47.55917" lon="6.79405">
        <ele>433.1</ele>
        <time>2017-07-30T08:19:08.000Z</time>
      </trkpt>
      <trkpt lat="47.55917" lon="6.79401">
        <ele>433</ele>
        <time>2017-07-30T08:19:09.000Z</time>
      </trkpt>
      <trkpt lat="47.55917" lon="6.79396">
        <ele>432.9</ele>
        <time>2017-07-30T08:19:10.000Z</time>
      </trkpt>
      <trkpt lat="47.55916" lon="6.79391">
        <ele>432.8</ele>
        <time>2017-07-30T08:19:11.000Z</time>
      </trkpt>
      <trkpt lat="47.55916" lon="6.79386">
        <ele>432.6</ele>
        <time>2017-07-30T08:19:12.000Z</time>
      </trkpt>
      <trkpt lat="47.55915" lon="6.79381">
        <ele>432.5</ele>
        <time>2017-07-30T08:19:13.000Z</time>
      </trkpt>
      <trkpt lat="47.55914" lon="6.79376">
        <ele>432.5</ele>
        <time>2017-07-30T08:19:14.000Z</time>
      </trkpt>
      <trkpt lat="47.55913" lon="6.79371">
        <ele>432.5</ele>
        <time>2017-07-30T08:19:15.000Z</time>
      </trkpt>
      <trkpt lat="47.55914" lon="6.79367">
        <ele>432.5</ele>
        <time>2017-07-30T08:19:16.000Z</time>
      </trkpt>
      <trkpt lat="47.55913" lon="6.79362">
        <ele>432.5</ele>
        <time>2017-07-30T08:19:17.000Z</time>
      </trkpt>
      <trkpt lat="47.55913" lon="6.79356">
        <ele>432.5</ele>
        <time>2017-07-30T08:19:18.000Z</time>
      </trkpt>
      <trkpt lat="47.55911" lon="6.79351">
        <ele>432.5</ele>
        <time>2017-07-30T08:19:19.000Z</time>
      </trkpt>
      <trkpt lat="47.5591" lon="6.79345">
        <ele>432.6</ele>
        <time>2017-07-30T08:19:20.000Z</time>
      </trkpt>
      <trkpt lat="47.55908" lon="6.79341">
        <ele>432.6</ele>
        <time>2017-07-30T08:19:21.000Z</time>
      </trkpt>
      <trkpt lat="47.55907" lon="6.79336">
        <ele>432.7</ele>
        <time>2017-07-30T08:19:22.000Z</time>
      </trkpt>
      <trkpt lat="47.55906" lon="6.79332">
        <ele>432.7</ele>
        <time>2017-07-30T08:19:23.000Z</time>
      </trkpt>
      <trkpt lat="47.55906" lon="6.79325">
        <ele>432.6</ele>
        <time>2017-07-30T08:19:24.000Z</time>
      </trkpt>
      <trkpt lat="47.55906" lon="6.7932">
        <ele>432.7</ele>
        <time>2017-07-30T08:19:25.000Z</time>
      </trkpt>
      <trkpt lat="47.55905" lon="6.79312">
        <ele>432.7</ele>
        <time>2017-07-30T08:19:26.000Z</time>
      </trkpt>
      <trkpt lat="47.55903" lon="6.79305">
        <ele>432.8</ele>
        <time>2017-07-30T08:19:27.000Z</time>
      </trkpt>
      <trkpt lat="47.55904" lon="6.79299">
        <ele>432.8</ele>
        <time>2017-07-30T08:19:28.000Z</time>
      </trkpt>
      <trkpt lat="47.55902" lon="6.79292">
        <ele>432.8</ele>
        <time>2017-07-30T08:19:29.000Z</time>
      </trkpt>
      <trkpt lat="47.55901" lon="6.79286">
        <ele>433</ele>
        <time>2017-07-30T08:19:30.000Z</time>
      </trkpt>
      <trkpt lat="47.559" lon="6.79279">
        <ele>433.1</ele>
        <time>2017-07-30T08:19:31.000Z</time>
      </trkpt>
      <trkpt lat="47.559" lon="6.79274">
        <ele>433.1</ele>
        <time>2017-07-30T08:19:32.000Z</time>
      </trkpt>
      <trkpt lat="47.55899" lon="6.79269">
        <ele>433.1</ele>
        <time>2017-07-30T08:19:33.000Z</time>
      </trkpt>
      <trkpt lat="47.55899" lon="6.79263">
        <ele>433.2</ele>
        <time>2017-07-30T08:19:34.000Z</time>
      </trkpt>
      <trkpt lat="47.55898" lon="6.79257">
        <ele>433.2</ele>
        <time>2017-07-30T08:19:35.000Z</time>
      </trkpt>
      <trkpt lat="47.55898" lon="6.7925">
        <ele>433.3</ele>
        <time>2017-07-30T08:19:36.000Z</time>
      </trkpt>
      <trkpt lat="47.55897" lon="6.79244">
        <ele>433.7</ele>
        <time>2017-07-30T08:19:37.000Z</time>
      </trkpt>
      <trkpt lat="47.55895" lon="6.7924">
        <ele>433.7</ele>
        <time>2017-07-30T08:19:38.000Z</time>
      </trkpt>
      <trkpt lat="47.55894" lon="6.79236">
        <ele>433.8</ele>
        <time>2017-07-30T08:19:39.000Z</time>
      </trkpt>
      <trkpt lat="47.55893" lon="6.79232">
        <ele>433.9</ele>
        <time>2017-07-30T08:19:40.000Z</time>
      </trkpt>
      <trkpt lat="47.55892" lon="6.79228">
        <ele>433.8</ele>
        <time>2017-07-30T08:19:41.000Z</time>
      </trkpt>
      <trkpt lat="47.55891" lon="6.79224">
        <ele>433.9</ele>
        <time>2017-07-30T08:19:42.000Z</time>
      </trkpt>
      <trkpt lat="47.5589" lon="6.79219">
        <ele>433.9</ele>
        <time>2017-07-30T08:19:43.000Z</time>
      </trkpt>
      <trkpt lat="47.55889" lon="6.79214">
        <ele>433.9</ele>
        <time>2017-07-30T08:19:44.000Z</time>
      </trkpt>
      <trkpt lat="47.55889" lon="6.79208">
        <ele>434</ele>
        <time>2017-07-30T08:19:45.000Z</time>
      </trkpt>
      <trkpt lat="47.5589" lon="6.79203">
        <ele>434</ele>
        <time>2017-07-30T08:19:46.000Z</time>
      </trkpt>
      <trkpt lat="47.5589" lon="6.79199">
        <ele>434</ele>
        <time>2017-07-30T08:19:47.000Z</time>
      </trkpt>
      <trkpt lat="47.55889" lon="6.79194">
        <ele>434.2</ele>
        <time>2017-07-30T08:19:48.000Z</time>
      </trkpt>
      <trkpt lat="47.55887" lon="6.7919">
        <ele>436.2</ele>
        <time>2017-07-30T08:19:49.000Z</time>
      </trkpt>
      <trkpt lat="47.55886" lon="6.79186">
        <ele>436.5</ele>
        <time>2017-07-30T08:19:50.000Z</time>
      </trkpt>
      <trkpt lat="47.55886" lon="6.79181">
        <ele>436.7</ele>
        <time>2017-07-30T08:19:51.000Z</time>
      </trkpt>
      <trkpt lat="47.55885" lon="6.79174">
        <ele>436.9</ele>
        <time>2017-07-30T08:19:52.000Z</time>
      </trkpt>
      <trkpt lat="47.55885" lon="6.79164">
        <ele>437</ele>
        <time>2017-07-30T08:19:53.000Z</time>
      </trkpt>
      <trkpt lat="47.55885" lon="6.79156">
        <ele>437.1</ele>
        <time>2017-07-30T08:19:54.000Z</time>
      </trkpt>
      <trkpt lat="47.55885" lon="6.79151">
        <ele>437.1</ele>
        <time>2017-07-30T08:19:55.000Z</time>
      </trkpt>
      <trkpt lat="47.55883" lon="6.79142">
        <ele>437.3</ele>
        <time>2017-07-30T08:19:56.000Z</time>
      </trkpt>
      <trkpt lat="47.55883" lon="6.79139">
        <ele>437.4</ele>
        <time>2017-07-30T08:19:57.000Z</time>
      </trkpt>
      <trkpt lat="47.55883" lon="6.79135">
        <ele>437.5</ele>
        <time>2017-07-30T08:19:58.000Z</time>
      </trkpt>
      <trkpt lat="47.55883" lon="6.79132">
        <ele>437.6</ele>
        <time>2017-07-30T08:19:59.000Z</time>
      </trkpt>
      <trkpt lat="47.55883" lon="6.79128">
        <ele>437.7</ele>
        <time>2017-07-30T08:20:00.000Z</time>
      </trkpt>
      <trkpt lat="47.55882" lon="6.79124">
        <ele>437.8</ele>
        <time>2017-07-30T08:20:01.000Z</time>
      </trkpt>
      <trkpt lat="47.55882" lon="6.79121">
        <ele>437.9</ele>
        <time>2017-07-30T08:20:02.000Z</time>
      </trkpt>
      <trkpt lat="47.5588" lon="6.79116">
        <ele>438.2</ele>
        <time>2017-07-30T08:20:04.000Z</time>
      </trkpt>
      <trkpt lat="47.55881" lon="6.79113">
        <ele>438.3</ele>
        <time>2017-07-30T08:20:05.000Z</time>
      </trkpt>
      <trkpt lat="47.55881" lon="6.7911">
        <ele>438.5</ele>
        <time>2017-07-30T08:20:06.000Z</time>
      </trkpt>
      <trkpt lat="47.55884" lon="6.79107">
        <ele>438.6</ele>
        <time>2017-07-30T08:20:07.000Z</time>
      </trkpt>
      <trkpt lat="47.55888" lon="6.79102">
        <ele>440.2</ele>
        <time>2017-07-30T08:20:08.000Z</time>
      </trkpt>
      <trkpt lat="47.55895" lon="6.79092">
        <ele>441.4</ele>
        <time>2017-07-30T08:20:09.000Z</time>
      </trkpt>
      <trkpt lat="47.559" lon="6.79088">
        <ele>441.7</ele>
        <time>2017-07-30T08:20:10.000Z</time>
      </trkpt>
      <trkpt lat="47.55906" lon="6.79086">
        <ele>440.7</ele>
        <time>2017-07-30T08:20:11.000Z</time>
      </trkpt>
      <trkpt lat="47.55912" lon="6.79083">
        <ele>440</ele>
        <time>2017-07-30T08:20:12.000Z</time>
      </trkpt>
      <trkpt lat="47.55918" lon="6.7908">
        <ele>440.4</ele>
        <time>2017-07-30T08:20:13.000Z</time>
      </trkpt>
      <trkpt lat="47.55923" lon="6.79076">
        <ele>439.6</ele>
        <time>2017-07-30T08:20:14.000Z</time>
      </trkpt>
      <trkpt lat="47.55927" lon="6.79073">
        <ele>439.6</ele>
        <time>2017-07-30T08:20:15.000Z</time>
      </trkpt>
      <trkpt lat="47.55931" lon="6.79072">
        <ele>439.6</ele>
        <time>2017-07-30T08:20:16.000Z</time>
      </trkpt>
      <trkpt lat="47.55934" lon="6.79072">
        <ele>439.6</ele>
        <time>2017-07-30T08:20:17.000Z</time>
      </trkpt>
      <trkpt lat="47.55938" lon="6.79071">
        <ele>439.6</ele>
        <time>2017-07-30T08:20:18.000Z</time>
      </trkpt>
      <trkpt lat="47.55941" lon="6.7907">
        <ele>439.6</ele>
        <time>2017-07-30T08:20:19.000Z</time>
      </trkpt>
      <trkpt lat="47.55944" lon="6.79071">
        <ele>439.5</ele>
        <time>2017-07-30T08:20:20.000Z</time>
      </trkpt>
      <trkpt lat="47.55949" lon="6.79072">
        <ele>439.3</ele>
        <time>2017-07-30T08:20:21.000Z</time>
      </trkpt>
      <trkpt lat="47.55953" lon="6.79073">
        <ele>439.1</ele>
        <time>2017-07-30T08:20:22.000Z</time>
      </trkpt>
      <trkpt lat="47.55956" lon="6.79074">
        <ele>438.9</ele>
        <time>2017-07-30T08:20:23.000Z</time>
      </trkpt>
      <trkpt lat="47.55958" lon="6.79075">
        <ele>438.8</ele>
        <time>2017-07-30T08:20:24.000Z</time>
      </trkpt>
      <trkpt lat="47.5596" lon="6.79077">
        <ele>438.6</ele>
        <time>2017-07-30T08:20:25.000Z</time>
      </trkpt>
      <trkpt lat="47.55963" lon="6.79079">
        <ele>438.5</ele>
        <time>2017-07-30T08:20:26.000Z</time>
      </trkpt>
      <trkpt lat="47.55965" lon="6.7908">
        <ele>438.4</ele>
        <time>2017-07-30T08:20:27.000Z</time>
      </trkpt>
      <trkpt lat="47.55968" lon="6.79081">
        <ele>438.4</ele>
        <time>2017-07-30T08:20:28.000Z</time>
      </trkpt>
      <trkpt lat="47.5597" lon="6.79082">
        <ele>438.3</ele>
        <time>2017-07-30T08:20:29.000Z</time>
      </trkpt>
      <trkpt lat="47.55973" lon="6.79084">
        <ele>438.3</ele>
        <time>2017-07-30T08:20:30.000Z</time>
      </trkpt>
      <trkpt lat="47.55976" lon="6.79086">
        <ele>438.3</ele>
        <time>2017-07-30T08:20:31.000Z</time>
      </trkpt>
      <trkpt lat="47.55978" lon="6.79087">
        <ele>438.2</ele>
        <time>2017-07-30T08:20:32.000Z</time>
      </trkpt>
      <trkpt lat="47.55981" lon="6.79087">
        <ele>438.1</ele>
        <time>2017-07-30T08:20:33.000Z</time>
      </trkpt>
      <trkpt lat="47.55985" lon="6.79087">
        <ele>437.8</ele>
        <time>2017-07-30T08:20:35.000Z</time>
      </trkpt>
      <trkpt lat="47.55987" lon="6.79087">
        <ele>437.7</ele>
        <time>2017-07-30T08:20:36.000Z</time>
      </trkpt>
      <trkpt lat="47.5599" lon="6.79086">
        <ele>437.6</ele>
        <time>2017-07-30T08:20:37.000Z</time>
      </trkpt>
      <trkpt lat="47.55993" lon="6.79086">
        <ele>437.6</ele>
        <time>2017-07-30T08:20:38.000Z</time>
      </trkpt>
      <trkpt lat="47.55997" lon="6.79086">
        <ele>437.5</ele>
        <time>2017-07-30T08:20:40.000Z</time>
      </trkpt>
      <trkpt lat="47.55999" lon="6.79086">
        <ele>437.6</ele>
        <time>2017-07-30T08:20:41.000Z</time>
      </trkpt>
      <trkpt lat="47.56002" lon="6.79087">
        <ele>437.7</ele>
        <time>2017-07-30T08:20:42.000Z</time>
      </trkpt>
      <trkpt lat="47.56004" lon="6.79087">
        <ele>437.8</ele>
        <time>2017-07-30T08:20:43.000Z</time>
      </trkpt>
      <trkpt lat="47.56008" lon="6.79086">
        <ele>437.8</ele>
        <time>2017-07-30T08:20:45.000Z</time>
      </trkpt>
      <trkpt lat="47.5601" lon="6.79085">
        <ele>437.8</ele>
        <time>2017-07-30T08:20:46.000Z</time>
      </trkpt>
      <trkpt lat="47.56014" lon="6.79085">
        <ele>437.8</ele>
        <time>2017-07-30T08:20:48.000Z</time>
      </trkpt>
      <trkpt lat="47.56016" lon="6.79085">
        <ele>437.9</ele>
        <time>2017-07-30T08:20:49.000Z</time>
      </trkpt>
      <trkpt lat="47.5602" lon="6.79084">
        <ele>438.1</ele>
        <time>2017-07-30T08:20:51.000Z</time>
      </trkpt>
      <trkpt lat="47.56022" lon="6.79084">
        <ele>438.3</ele>
        <time>2017-07-30T08:20:52.000Z</time>
      </trkpt>
      <trkpt lat="47.56026" lon="6.79084">
        <ele>438.5</ele>
        <time>2017-07-30T08:20:54.000Z</time>
      </trkpt>
      <trkpt lat="47.56029" lon="6.79083">
        <ele>438.7</ele>
        <time>2017-07-30T08:20:55.000Z</time>
      </trkpt>
      <trkpt lat="47.56032" lon="6.79083">
        <ele>438.8</ele>
        <time>2017-07-30T08:20:56.000Z</time>
      </trkpt>
      <trkpt lat="47.56034" lon="6.79083">
        <ele>438.8</ele>
        <time>2017-07-30T08:20:57.000Z</time>
      </trkpt>
      <trkpt lat="47.56038" lon="6.79082">
        <ele>438.9</ele>
        <time>2017-07-30T08:20:59.000Z</time>
      </trkpt>
      <trkpt lat="47.5604" lon="6.79082">
        <ele>439</ele>
        <time>2017-07-30T08:21:00.000Z</time>
      </trkpt>
      <trkpt lat="47.56042" lon="6.79082">
        <ele>439.1</ele>
        <time>2017-07-30T08:21:01.000Z</time>
      </trkpt>
      <trkpt lat="47.56045" lon="6.79081">
        <ele>439.2</ele>
        <time>2017-07-30T08:21:02.000Z</time>
      </trkpt>
      <trkpt lat="47.56047" lon="6.79081">
        <ele>439.3</ele>
        <time>2017-07-30T08:21:03.000Z</time>
      </trkpt>
      <trkpt lat="47.56049" lon="6.79081">
        <ele>439.4</ele>
        <time>2017-07-30T08:21:04.000Z</time>
      </trkpt>
      <trkpt lat="47.56054" lon="6.79081">
        <ele>439.6</ele>
        <time>2017-07-30T08:21:06.000Z</time>
      </trkpt>
      <trkpt lat="47.56056" lon="6.79081">
        <ele>439.7</ele>
        <time>2017-07-30T08:21:07.000Z</time>
      </trkpt>
      <trkpt lat="47.56059" lon="6.79081">
        <ele>440</ele>
        <time>2017-07-30T08:21:09.000Z</time>
      </trkpt>
      <trkpt lat="47.56062" lon="6.79081">
        <ele>440.1</ele>
        <time>2017-07-30T08:21:10.000Z</time>
      </trkpt>
      <trkpt lat="47.56066" lon="6.79082">
        <ele>440.2</ele>
        <time>2017-07-30T08:21:12.000Z</time>
      </trkpt>
      <trkpt lat="47.56068" lon="6.79083">
        <ele>440.3</ele>
        <time>2017-07-30T08:21:13.000Z</time>
      </trkpt>
      <trkpt lat="47.56072" lon="6.79081">
        <ele>440.5</ele>
        <time>2017-07-30T08:21:15.000Z</time>
      </trkpt>
      <trkpt lat="47.56074" lon="6.79081">
        <ele>440.6</ele>
        <time>2017-07-30T08:21:16.000Z</time>
      </trkpt>
      <trkpt lat="47.56078" lon="6.7908">
        <ele>440.7</ele>
        <time>2017-07-30T08:21:18.000Z</time>
      </trkpt>
      <trkpt lat="47.5608" lon="6.7908">
        <ele>440.9</ele>
        <time>2017-07-30T08:21:19.000Z</time>
      </trkpt>
      <trkpt lat="47.56084" lon="6.79079">
        <ele>441.1</ele>
        <time>2017-07-30T08:21:21.000Z</time>
      </trkpt>
      <trkpt lat="47.56086" lon="6.79079">
        <ele>441.3</ele>
        <time>2017-07-30T08:21:22.000Z</time>
      </trkpt>
      <trkpt lat="47.56088" lon="6.79078">
        <ele>441.5</ele>
        <time>2017-07-30T08:21:23.000Z</time>
      </trkpt>
      <trkpt lat="47.5609" lon="6.79079">
        <ele>441.6</ele>
        <time>2017-07-30T08:21:24.000Z</time>
      </trkpt>
      <trkpt lat="47.56093" lon="6.79079">
        <ele>441.6</ele>
        <time>2017-07-30T08:21:25.000Z</time>
      </trkpt>
      <trkpt lat="47.56095" lon="6.79079">
        <ele>441.7</ele>
        <time>2017-07-30T08:21:26.000Z</time>
      </trkpt>
      <trkpt lat="47.56098" lon="6.79078">
        <ele>441.7</ele>
        <time>2017-07-30T08:21:27.000Z</time>
      </trkpt>
      <trkpt lat="47.56101" lon="6.79078">
        <ele>441.8</ele>
        <time>2017-07-30T08:21:28.000Z</time>
      </trkpt>
      <trkpt lat="47.56103" lon="6.79078">
        <ele>441.8</ele>
        <time>2017-07-30T08:21:29.000Z</time>
      </trkpt>
      <trkpt lat="47.56106" lon="6.79078">
        <ele>441.9</ele>
        <time>2017-07-30T08:21:30.000Z</time>
      </trkpt>
      <trkpt lat="47.56109" lon="6.79079">
        <ele>442</ele>
        <time>2017-07-30T08:21:31.000Z</time>
      </trkpt>
      <trkpt lat="47.56111" lon="6.7908">
        <ele>442.1</ele>
        <time>2017-07-30T08:21:32.000Z</time>
      </trkpt>
      <trkpt lat="47.56114" lon="6.7908">
        <ele>442.1</ele>
        <time>2017-07-30T08:21:33.000Z</time>
      </trkpt>
      <trkpt lat="47.56117" lon="6.79082">
        <ele>442.2</ele>
        <time>2017-07-30T08:21:34.000Z</time>
      </trkpt>
      <trkpt lat="47.5612" lon="6.79083">
        <ele>442.2</ele>
        <time>2017-07-30T08:21:35.000Z</time>
      </trkpt>
      <trkpt lat="47.56123" lon="6.79085">
        <ele>442.3</ele>
        <time>2017-07-30T08:21:36.000Z</time>
      </trkpt>
      <trkpt lat="47.56127" lon="6.79087">
        <ele>442.4</ele>
        <time>2017-07-30T08:21:37.000Z</time>
      </trkpt>
      <trkpt lat="47.5613" lon="6.79089">
        <ele>442.4</ele>
        <time>2017-07-30T08:21:38.000Z</time>
      </trkpt>
      <trkpt lat="47.56133" lon="6.79091">
        <ele>442.4</ele>
        <time>2017-07-30T08:21:39.000Z</time>
      </trkpt>
      <trkpt lat="47.56135" lon="6.79093">
        <ele>442.5</ele>
        <time>2017-07-30T08:21:40.000Z</time>
      </trkpt>
      <trkpt lat="47.56138" lon="6.79096">
        <ele>442.5</ele>
        <time>2017-07-30T08:21:41.000Z</time>
      </trkpt>
      <trkpt lat="47.56141" lon="6.79099">
        <ele>442.5</ele>
        <time>2017-07-30T08:21:42.000Z</time>
      </trkpt>
      <trkpt lat="47.56144" lon="6.79103">
        <ele>442.8</ele>
        <time>2017-07-30T08:21:43.000Z</time>
      </trkpt>
      <trkpt lat="47.56147" lon="6.79107">
        <ele>443.2</ele>
        <time>2017-07-30T08:21:44.000Z</time>
      </trkpt>
      <trkpt lat="47.56151" lon="6.79111">
        <ele>443.3</ele>
        <time>2017-07-30T08:21:45.000Z</time>
      </trkpt>
      <trkpt lat="47.56154" lon="6.79114">
        <ele>443.4</ele>
        <time>2017-07-30T08:21:46.000Z</time>
      </trkpt>
      <trkpt lat="47.56157" lon="6.79118">
        <ele>444.2</ele>
        <time>2017-07-30T08:21:47.000Z</time>
      </trkpt>
      <trkpt lat="47.56161" lon="6.7912">
        <ele>444.3</ele>
        <time>2017-07-30T08:21:48.000Z</time>
      </trkpt>
      <trkpt lat="47.56164" lon="6.79123">
        <ele>444.3</ele>
        <time>2017-07-30T08:21:49.000Z</time>
      </trkpt>
      <trkpt lat="47.56168" lon="6.79126">
        <ele>445.1</ele>
        <time>2017-07-30T08:21:50.000Z</time>
      </trkpt>
      <trkpt lat="47.56172" lon="6.79128">
        <ele>445.8</ele>
        <time>2017-07-30T08:21:51.000Z</time>
      </trkpt>
      <trkpt lat="47.56176" lon="6.79129">
        <ele>446.3</ele>
        <time>2017-07-30T08:21:52.000Z</time>
      </trkpt>
      <trkpt lat="47.5618" lon="6.79131">
        <ele>446.1</ele>
        <time>2017-07-30T08:21:53.000Z</time>
      </trkpt>
      <trkpt lat="47.56184" lon="6.79132">
        <ele>446</ele>
        <time>2017-07-30T08:21:54.000Z</time>
      </trkpt>
      <trkpt lat="47.56188" lon="6.79133">
        <ele>445.7</ele>
        <time>2017-07-30T08:21:55.000Z</time>
      </trkpt>
      <trkpt lat="47.56191" lon="6.79134">
        <ele>445.5</ele>
        <time>2017-07-30T08:21:56.000Z</time>
      </trkpt>
      <trkpt lat="47.56195" lon="6.79135">
        <ele>445.5</ele>
        <time>2017-07-30T08:21:57.000Z</time>
      </trkpt>
      <trkpt lat="47.56198" lon="6.79135">
        <ele>445</ele>
        <time>2017-07-30T08:21:58.000Z</time>
      </trkpt>
      <trkpt lat="47.56202" lon="6.79136">
        <ele>445</ele>
        <time>2017-07-30T08:21:59.000Z</time>
      </trkpt>
      <trkpt lat="47.56205" lon="6.79136">
        <ele>445</ele>
        <time>2017-07-30T08:22:00.000Z</time>
      </trkpt>
      <trkpt lat="47.56209" lon="6.79137">
        <ele>444.9</ele>
        <time>2017-07-30T08:22:01.000Z</time>
      </trkpt>
      <trkpt lat="47.56213" lon="6.79137">
        <ele>444.8</ele>
        <time>2017-07-30T08:22:02.000Z</time>
      </trkpt>
      <trkpt lat="47.56216" lon="6.79137">
        <ele>444.7</ele>
        <time>2017-07-30T08:22:03.000Z</time>
      </trkpt>
      <trkpt lat="47.5622" lon="6.79137">
        <ele>444.6</ele>
        <time>2017-07-30T08:22:04.000Z</time>
      </trkpt>
      <trkpt lat="47.56224" lon="6.79137">
        <ele>444.5</ele>
        <time>2017-07-30T08:22:05.000Z</time>
      </trkpt>
      <trkpt lat="47.56228" lon="6.79136">
        <ele>444.4</ele>
        <time>2017-07-30T08:22:06.000Z</time>
      </trkpt>
      <trkpt lat="47.56231" lon="6.79136">
        <ele>444.3</ele>
        <time>2017-07-30T08:22:07.000Z</time>
      </trkpt>
      <trkpt lat="47.56234" lon="6.79134">
        <ele>444.2</ele>
        <time>2017-07-30T08:22:08.000Z</time>
      </trkpt>
      <trkpt lat="47.56237" lon="6.79134">
        <ele>444.1</ele>
        <time>2017-07-30T08:22:09.000Z</time>
      </trkpt>
      <trkpt lat="47.5624" lon="6.79133">
        <ele>444.1</ele>
        <time>2017-07-30T08:22:10.000Z</time>
      </trkpt>
      <trkpt lat="47.56243" lon="6.79132">
        <ele>444</ele>
        <time>2017-07-30T08:22:11.000Z</time>
      </trkpt>
      <trkpt lat="47.56247" lon="6.79131">
        <ele>444</ele>
        <time>2017-07-30T08:22:12.000Z</time>
      </trkpt>
      <trkpt lat="47.56251" lon="6.7913">
        <ele>444</ele>
        <time>2017-07-30T08:22:13.000Z</time>
      </trkpt>
      <trkpt lat="47.56254" lon="6.7913">
        <ele>444</ele>
        <time>2017-07-30T08:22:14.000Z</time>
      </trkpt>
      <trkpt lat="47.56258" lon="6.7913">
        <ele>444</ele>
        <time>2017-07-30T08:22:15.000Z</time>
      </trkpt>
      <trkpt lat="47.56263" lon="6.79129">
        <ele>444</ele>
        <time>2017-07-30T08:22:16.000Z</time>
      </trkpt>
      <trkpt lat="47.56267" lon="6.79127">
        <ele>444.1</ele>
        <time>2017-07-30T08:22:17.000Z</time>
      </trkpt>
      <trkpt lat="47.56271" lon="6.79126">
        <ele>443.8</ele>
        <time>2017-07-30T08:22:18.000Z</time>
      </trkpt>
      <trkpt lat="47.56275" lon="6.79125">
        <ele>444</ele>
        <time>2017-07-30T08:22:19.000Z</time>
      </trkpt>
      <trkpt lat="47.56279" lon="6.79125">
        <ele>443.5</ele>
        <time>2017-07-30T08:22:20.000Z</time>
      </trkpt>
      <trkpt lat="47.56284" lon="6.79124">
        <ele>442.8</ele>
        <time>2017-07-30T08:22:21.000Z</time>
      </trkpt>
      <trkpt lat="47.5629" lon="6.79124">
        <ele>442.1</ele>
        <time>2017-07-30T08:22:22.000Z</time>
      </trkpt>
      <trkpt lat="47.56296" lon="6.79124">
        <ele>441.9</ele>
        <time>2017-07-30T08:22:23.000Z</time>
      </trkpt>
      <trkpt lat="47.56302" lon="6.79124">
        <ele>441.3</ele>
        <time>2017-07-30T08:22:24.000Z</time>
      </trkpt>
      <trkpt lat="47.56309" lon="6.79123">
        <ele>440.4</ele>
        <time>2017-07-30T08:22:25.000Z</time>
      </trkpt>
      <trkpt lat="47.56316" lon="6.79123">
        <ele>439.4</ele>
        <time>2017-07-30T08:22:26.000Z</time>
      </trkpt>
      <trkpt lat="47.56324" lon="6.79122">
        <ele>438.4</ele>
        <time>2017-07-30T08:22:27.000Z</time>
      </trkpt>
      <trkpt lat="47.56332" lon="6.79121">
        <ele>438.1</ele>
        <time>2017-07-30T08:22:28.000Z</time>
      </trkpt>
      <trkpt lat="47.56341" lon="6.7912">
        <ele>437.7</ele>
        <time>2017-07-30T08:22:29.000Z</time>
      </trkpt>
      <trkpt lat="47.5635" lon="6.7912">
        <ele>436.7</ele>
        <time>2017-07-30T08:22:30.000Z</time>
      </trkpt>
      <trkpt lat="47.56357" lon="6.79119">
        <ele>435.6</ele>
        <time>2017-07-30T08:22:31.000Z</time>
      </trkpt>
      <trkpt lat="47.56365" lon="6.79118">
        <ele>434.6</ele>
        <time>2017-07-30T08:22:32.000Z</time>
      </trkpt>
      <trkpt lat="47.56372" lon="6.79118">
        <ele>434.2</ele>
        <time>2017-07-30T08:22:33.000Z</time>
      </trkpt>
      <trkpt lat="47.5638" lon="6.79121">
        <ele>433.7</ele>
        <time>2017-07-30T08:22:34.000Z</time>
      </trkpt>
      <trkpt lat="47.56386" lon="6.7912">
        <ele>433</ele>
        <time>2017-07-30T08:22:35.000Z</time>
      </trkpt>
      <trkpt lat="47.56391" lon="6.7912">
        <ele>432</ele>
        <time>2017-07-30T08:22:36.000Z</time>
      </trkpt>
      <trkpt lat="47.56396" lon="6.79121">
        <ele>431.1</ele>
        <time>2017-07-30T08:22:37.000Z</time>
      </trkpt>
      <trkpt lat="47.564" lon="6.79122">
        <ele>430.2</ele>
        <time>2017-07-30T08:22:38.000Z</time>
      </trkpt>
      <trkpt lat="47.56405" lon="6.79123">
        <ele>429.7</ele>
        <time>2017-07-30T08:22:39.000Z</time>
      </trkpt>
      <trkpt lat="47.5641" lon="6.79124">
        <ele>430</ele>
        <time>2017-07-30T08:22:40.000Z</time>
      </trkpt>
      <trkpt lat="47.56415" lon="6.79126">
        <ele>430.4</ele>
        <time>2017-07-30T08:22:41.000Z</time>
      </trkpt>
      <trkpt lat="47.56421" lon="6.79127">
        <ele>430.2</ele>
        <time>2017-07-30T08:22:42.000Z</time>
      </trkpt>
      <trkpt lat="47.56426" lon="6.79129">
        <ele>429.7</ele>
        <time>2017-07-30T08:22:43.000Z</time>
      </trkpt>
      <trkpt lat="47.5643" lon="6.7913">
        <ele>429.2</ele>
        <time>2017-07-30T08:22:44.000Z</time>
      </trkpt>
      <trkpt lat="47.56434" lon="6.79132">
        <ele>428.9</ele>
        <time>2017-07-30T08:22:45.000Z</time>
      </trkpt>
      <trkpt lat="47.56437" lon="6.79133">
        <ele>428.9</ele>
        <time>2017-07-30T08:22:46.000Z</time>
      </trkpt>
      <trkpt lat="47.56441" lon="6.79135">
        <ele>428.9</ele>
        <time>2017-07-30T08:22:47.000Z</time>
      </trkpt>
      <trkpt lat="47.56444" lon="6.79135">
        <ele>429.1</ele>
        <time>2017-07-30T08:22:48.000Z</time>
      </trkpt>
      <trkpt lat="47.56446" lon="6.79135">
        <ele>429.1</ele>
        <time>2017-07-30T08:22:49.000Z</time>
      </trkpt>
      <trkpt lat="47.56446" lon="6.79135">
        <ele>431.9</ele>
        <time>2017-07-30T08:23:00.000Z</time>
      </trkpt>
      <trkpt lat="47.56456" lon="6.79128">
        <ele>432.2</ele>
        <time>2017-07-30T08:23:01.000Z</time>
      </trkpt>
      <trkpt lat="47.5646" lon="6.79129">
        <ele>432.8</ele>
        <time>2017-07-30T08:23:03.000Z</time>
      </trkpt>
      <trkpt lat="47.56462" lon="6.79129">
        <ele>433.2</ele>
        <time>2017-07-30T08:23:04.000Z</time>
      </trkpt>
      <trkpt lat="47.56464" lon="6.7913">
        <ele>433.6</ele>
        <time>2017-07-30T08:23:05.000Z</time>
      </trkpt>
      <trkpt lat="47.56467" lon="6.79131">
        <ele>433.9</ele>
        <time>2017-07-30T08:23:06.000Z</time>
      </trkpt>
      <trkpt lat="47.56469" lon="6.79131">
        <ele>434.3</ele>
        <time>2017-07-30T08:23:07.000Z</time>
      </trkpt>
      <trkpt lat="47.56473" lon="6.79132">
        <ele>434.6</ele>
        <time>2017-07-30T08:23:08.000Z</time>
      </trkpt>
      <trkpt lat="47.56476" lon="6.79132">
        <ele>434.9</ele>
        <time>2017-07-30T08:23:09.000Z</time>
      </trkpt>
      <trkpt lat="47.56479" lon="6.79133">
        <ele>435.2</ele>
        <time>2017-07-30T08:23:10.000Z</time>
      </trkpt>
      <trkpt lat="47.56482" lon="6.79133">
        <ele>435.5</ele>
        <time>2017-07-30T08:23:11.000Z</time>
      </trkpt>
      <trkpt lat="47.56486" lon="6.79134">
        <ele>435.7</ele>
        <time>2017-07-30T08:23:12.000Z</time>
      </trkpt>
      <trkpt lat="47.5649" lon="6.79135">
        <ele>435.9</ele>
        <time>2017-07-30T08:23:13.000Z</time>
      </trkpt>
      <trkpt lat="47.56494" lon="6.79136">
        <ele>436.2</ele>
        <time>2017-07-30T08:23:14.000Z</time>
      </trkpt>
      <trkpt lat="47.56497" lon="6.79137">
        <ele>436.5</ele>
        <time>2017-07-30T08:23:15.000Z</time>
      </trkpt>
      <trkpt lat="47.565" lon="6.79138">
        <ele>436.8</ele>
        <time>2017-07-30T08:23:16.000Z</time>
      </trkpt>
      <trkpt lat="47.56503" lon="6.7914">
        <ele>437.1</ele>
        <time>2017-07-30T08:23:17.000Z</time>
      </trkpt>
      <trkpt lat="47.56506" lon="6.79142">
        <ele>437.5</ele>
        <time>2017-07-30T08:23:18.000Z</time>
      </trkpt>
      <trkpt lat="47.56509" lon="6.79144">
        <ele>437.8</ele>
        <time>2017-07-30T08:23:19.000Z</time>
      </trkpt>
      <trkpt lat="47.56512" lon="6.79146">
        <ele>438.2</ele>
        <time>2017-07-30T08:23:20.000Z</time>
      </trkpt>
      <trkpt lat="47.56514" lon="6.79146">
        <ele>438.4</ele>
        <time>2017-07-30T08:23:21.000Z</time>
      </trkpt>
      <trkpt lat="47.56517" lon="6.79147">
        <ele>438.7</ele>
        <time>2017-07-30T08:23:22.000Z</time>
      </trkpt>
      <trkpt lat="47.56521" lon="6.79147">
        <ele>439</ele>
        <time>2017-07-30T08:23:23.000Z</time>
      </trkpt>
      <trkpt lat="47.56524" lon="6.79148">
        <ele>439.3</ele>
        <time>2017-07-30T08:23:24.000Z</time>
      </trkpt>
      <trkpt lat="47.56527" lon="6.79148">
        <ele>439.7</ele>
        <time>2017-07-30T08:23:25.000Z</time>
      </trkpt>
      <trkpt lat="47.5653" lon="6.79148">
        <ele>440.2</ele>
        <time>2017-07-30T08:23:26.000Z</time>
      </trkpt>
      <trkpt lat="47.56532" lon="6.79149">
        <ele>440.6</ele>
        <time>2017-07-30T08:23:27.000Z</time>
      </trkpt>
      <trkpt lat="47.56535" lon="6.79149">
        <ele>441</ele>
        <time>2017-07-30T08:23:28.000Z</time>
      </trkpt>
      <trkpt lat="47.56538" lon="6.79151">
        <ele>441.4</ele>
        <time>2017-07-30T08:23:29.000Z</time>
      </trkpt>
      <trkpt lat="47.5654" lon="6.79153">
        <ele>441.8</ele>
        <time>2017-07-30T08:23:30.000Z</time>
      </trkpt>
      <trkpt lat="47.56544" lon="6.79155">
        <ele>442.2</ele>
        <time>2017-07-30T08:23:31.000Z</time>
      </trkpt>
      <trkpt lat="47.56547" lon="6.79156">
        <ele>442.6</ele>
        <time>2017-07-30T08:23:32.000Z</time>
      </trkpt>
      <trkpt lat="47.56551" lon="6.79157">
        <ele>443</ele>
        <time>2017-07-30T08:23:33.000Z</time>
      </trkpt>
      <trkpt lat="47.56554" lon="6.7916">
        <ele>443.4</ele>
        <time>2017-07-30T08:23:34.000Z</time>
      </trkpt>
      <trkpt lat="47.56558" lon="6.79162">
        <ele>443.9</ele>
        <time>2017-07-30T08:23:35.000Z</time>
      </trkpt>
      <trkpt lat="47.56561" lon="6.79165">
        <ele>444.2</ele>
        <time>2017-07-30T08:23:36.000Z</time>
      </trkpt>
      <trkpt lat="47.56564" lon="6.79167">
        <ele>444.6</ele>
        <time>2017-07-30T08:23:37.000Z</time>
      </trkpt>
      <trkpt lat="47.56567" lon="6.79168">
        <ele>444.9</ele>
        <time>2017-07-30T08:23:38.000Z</time>
      </trkpt>
      <trkpt lat="47.56571" lon="6.79171">
        <ele>445.2</ele>
        <time>2017-07-30T08:23:39.000Z</time>
      </trkpt>
      <trkpt lat="47.56574" lon="6.79173">
        <ele>445.4</ele>
        <time>2017-07-30T08:23:40.000Z</time>
      </trkpt>
      <trkpt lat="47.5658" lon="6.79176">
        <ele>445.8</ele>
        <time>2017-07-30T08:23:41.000Z</time>
      </trkpt>
      <trkpt lat="47.56585" lon="6.79177">
        <ele>446.2</ele>
        <time>2017-07-30T08:23:42.000Z</time>
      </trkpt>
      <trkpt lat="47.56591" lon="6.79176">
        <ele>449.8</ele>
        <time>2017-07-30T08:23:43.000Z</time>
      </trkpt>
      <trkpt lat="47.56597" lon="6.79174">
        <ele>452.5</ele>
        <time>2017-07-30T08:23:44.000Z</time>
      </trkpt>
      <trkpt lat="47.56601" lon="6.79174">
        <ele>452.7</ele>
        <time>2017-07-30T08:23:45.000Z</time>
      </trkpt>
      <trkpt lat="47.56607" lon="6.79171">
        <ele>452.8</ele>
        <time>2017-07-30T08:23:46.000Z</time>
      </trkpt>
      <trkpt lat="47.56613" lon="6.7917">
        <ele>453</ele>
        <time>2017-07-30T08:23:47.000Z</time>
      </trkpt>
      <trkpt lat="47.56621" lon="6.79168">
        <ele>454.2</ele>
        <time>2017-07-30T08:23:48.000Z</time>
      </trkpt>
      <trkpt lat="47.56631" lon="6.79167">
        <ele>454.7</ele>
        <time>2017-07-30T08:23:49.000Z</time>
      </trkpt>
      <trkpt lat="47.56638" lon="6.79167">
        <ele>454.7</ele>
        <time>2017-07-30T08:23:50.000Z</time>
      </trkpt>
      <trkpt lat="47.56639" lon="6.79167">
        <ele>454.7</ele>
        <time>2017-07-30T08:23:53.000Z</time>
      </trkpt>
      <trkpt lat="47.56642" lon="6.79165">
        <ele>454.8</ele>
        <time>2017-07-30T08:23:54.000Z</time>
      </trkpt>
      <trkpt lat="47.56646" lon="6.79164">
        <ele>455</ele>
        <time>2017-07-30T08:23:55.000Z</time>
      </trkpt>
      <trkpt lat="47.5665" lon="6.79162">
        <ele>455.1</ele>
        <time>2017-07-30T08:23:56.000Z</time>
      </trkpt>
      <trkpt lat="47.56657" lon="6.7916">
        <ele>455.1</ele>
        <time>2017-07-30T08:23:57.000Z</time>
      </trkpt>
      <trkpt lat="47.56663" lon="6.79159">
        <ele>455</ele>
        <time>2017-07-30T08:23:58.000Z</time>
      </trkpt>
      <trkpt lat="47.56669" lon="6.79157">
        <ele>454.9</ele>
        <time>2017-07-30T08:23:59.000Z</time>
      </trkpt>
      <trkpt lat="47.56673" lon="6.79156">
        <ele>454.6</ele>
        <time>2017-07-30T08:24:00.000Z</time>
      </trkpt>
      <trkpt lat="47.56676" lon="6.79155">
        <ele>454.4</ele>
        <time>2017-07-30T08:24:01.000Z</time>
      </trkpt>
      <trkpt lat="47.56678" lon="6.79153">
        <ele>454.3</ele>
        <time>2017-07-30T08:24:02.000Z</time>
      </trkpt>
      <trkpt lat="47.56682" lon="6.7915">
        <ele>454.3</ele>
        <time>2017-07-30T08:24:03.000Z</time>
      </trkpt>
      <trkpt lat="47.56686" lon="6.79147">
        <ele>454.2</ele>
        <time>2017-07-30T08:24:04.000Z</time>
      </trkpt>
      <trkpt lat="47.56689" lon="6.79143">
        <ele>454.1</ele>
        <time>2017-07-30T08:24:05.000Z</time>
      </trkpt>
      <trkpt lat="47.56692" lon="6.7914">
        <ele>454</ele>
        <time>2017-07-30T08:24:06.000Z</time>
      </trkpt>
      <trkpt lat="47.56694" lon="6.79137">
        <ele>453.9</ele>
        <time>2017-07-30T08:24:07.000Z</time>
      </trkpt>
      <trkpt lat="47.56697" lon="6.79134">
        <ele>453.8</ele>
        <time>2017-07-30T08:24:08.000Z</time>
      </trkpt>
      <trkpt lat="47.567" lon="6.7913">
        <ele>453.7</ele>
        <time>2017-07-30T08:24:09.000Z</time>
      </trkpt>
      <trkpt lat="47.56702" lon="6.79127">
        <ele>453.6</ele>
        <time>2017-07-30T08:24:10.000Z</time>
      </trkpt>
      <trkpt lat="47.56702" lon="6.79127">
        <ele>453.4</ele>
        <time>2017-07-30T08:24:18.000Z</time>
      </trkpt>
      <trkpt lat="47.56707" lon="6.7911">
        <ele>453.3</ele>
        <time>2017-07-30T08:24:19.000Z</time>
      </trkpt>
      <trkpt lat="47.56707" lon="6.7911">
        <ele>453.3</ele>
        <time>2017-07-30T08:24:20.000Z</time>
      </trkpt>
      <trkpt lat="47.56709" lon="6.79104">
        <ele>453.2</ele>
        <time>2017-07-30T08:24:21.000Z</time>
      </trkpt>
      <trkpt lat="47.56712" lon="6.79099">
        <ele>453.1</ele>
        <time>2017-07-30T08:24:22.000Z</time>
      </trkpt>
      <trkpt lat="47.56715" lon="6.79094">
        <ele>453.1</ele>
        <time>2017-07-30T08:24:23.000Z</time>
      </trkpt>
      <trkpt lat="47.56718" lon="6.79089">
        <ele>453.2</ele>
        <time>2017-07-30T08:24:24.000Z</time>
      </trkpt>
      <trkpt lat="47.56722" lon="6.79084">
        <ele>453.2</ele>
        <time>2017-07-30T08:24:25.000Z</time>
      </trkpt>
      <trkpt lat="47.56726" lon="6.79078">
        <ele>453.3</ele>
        <time>2017-07-30T08:24:26.000Z</time>
      </trkpt>
      <trkpt lat="47.5673" lon="6.79072">
        <ele>453.4</ele>
        <time>2017-07-30T08:24:27.000Z</time>
      </trkpt>
      <trkpt lat="47.56734" lon="6.79066">
        <ele>453.5</ele>
        <time>2017-07-30T08:24:28.000Z</time>
      </trkpt>
      <trkpt lat="47.56736" lon="6.79062">
        <ele>453.5</ele>
        <time>2017-07-30T08:24:29.000Z</time>
      </trkpt>
      <trkpt lat="47.56737" lon="6.7906">
        <ele>453.6</ele>
        <time>2017-07-30T08:24:30.000Z</time>
      </trkpt>
      <trkpt lat="47.56738" lon="6.79059">
        <ele>454.4</ele>
        <time>2017-07-30T08:24:37.000Z</time>
      </trkpt>
      <trkpt lat="47.56749" lon="6.79046">
        <ele>454.5</ele>
        <time>2017-07-30T08:24:38.000Z</time>
      </trkpt>
      <trkpt lat="47.56749" lon="6.79046">
        <ele>454.9</ele>
        <time>2017-07-30T08:24:49.000Z</time>
      </trkpt>
      <trkpt lat="47.5676" lon="6.79016">
        <ele>455</ele>
        <time>2017-07-30T08:24:50.000Z</time>
      </trkpt>
      <trkpt lat="47.5676" lon="6.79016">
        <ele>454.9</ele>
        <time>2017-07-30T08:24:55.000Z</time>
      </trkpt>
      <trkpt lat="47.56761" lon="6.78993">
        <ele>454.9</ele>
        <time>2017-07-30T08:24:56.000Z</time>
      </trkpt>
      <trkpt lat="47.56761" lon="6.7899">
        <ele>454.8</ele>
        <time>2017-07-30T08:24:57.000Z</time>
      </trkpt>
      <trkpt lat="47.56762" lon="6.78987">
        <ele>454.8</ele>
        <time>2017-07-30T08:24:58.000Z</time>
      </trkpt>
      <trkpt lat="47.56763" lon="6.78981">
        <ele>454.7</ele>
        <time>2017-07-30T08:25:00.000Z</time>
      </trkpt>
      <trkpt lat="47.56763" lon="6.78978">
        <ele>454.7</ele>
        <time>2017-07-30T08:25:01.000Z</time>
      </trkpt>
      <trkpt lat="47.56763" lon="6.78973">
        <ele>454.9</ele>
        <time>2017-07-30T08:25:04.000Z</time>
      </trkpt>
      <trkpt lat="47.56763" lon="6.78971">
        <ele>454.8</ele>
        <time>2017-07-30T08:25:05.000Z</time>
      </trkpt>
      <trkpt lat="47.56762" lon="6.78968">
        <ele>454.9</ele>
        <time>2017-07-30T08:25:06.000Z</time>
      </trkpt>
      <trkpt lat="47.56763" lon="6.78964">
        <ele>455</ele>
        <time>2017-07-30T08:25:07.000Z</time>
      </trkpt>
      <trkpt lat="47.56764" lon="6.7896">
        <ele>455.2</ele>
        <time>2017-07-30T08:25:08.000Z</time>
      </trkpt>
      <trkpt lat="47.56763" lon="6.78957">
        <ele>455.3</ele>
        <time>2017-07-30T08:25:09.000Z</time>
      </trkpt>
      <trkpt lat="47.5676" lon="6.78952">
        <ele>455.7</ele>
        <time>2017-07-30T08:25:11.000Z</time>
      </trkpt>
      <trkpt lat="47.56759" lon="6.78949">
        <ele>455.9</ele>
        <time>2017-07-30T08:25:12.000Z</time>
      </trkpt>
      <trkpt lat="47.56758" lon="6.78944">
        <ele>456.2</ele>
        <time>2017-07-30T08:25:14.000Z</time>
      </trkpt>
      <trkpt lat="47.56757" lon="6.78941">
        <ele>456.4</ele>
        <time>2017-07-30T08:25:15.000Z</time>
      </trkpt>
      <trkpt lat="47.56755" lon="6.78936">
        <ele>456.7</ele>
        <time>2017-07-30T08:25:17.000Z</time>
      </trkpt>
      <trkpt lat="47.56754" lon="6.78933">
        <ele>456.9</ele>
        <time>2017-07-30T08:25:18.000Z</time>
      </trkpt>
      <trkpt lat="47.56753" lon="6.7893">
        <ele>457.1</ele>
        <time>2017-07-30T08:25:19.000Z</time>
      </trkpt>
      <trkpt lat="47.56751" lon="6.78927">
        <ele>457.3</ele>
        <time>2017-07-30T08:25:20.000Z</time>
      </trkpt>
      <trkpt lat="47.5675" lon="6.78923">
        <ele>457.6</ele>
        <time>2017-07-30T08:25:22.000Z</time>
      </trkpt>
      <trkpt lat="47.56749" lon="6.78921">
        <ele>457.7</ele>
        <time>2017-07-30T08:25:23.000Z</time>
      </trkpt>
      <trkpt lat="47.56749" lon="6.78918">
        <ele>460.4</ele>
        <time>2017-07-30T08:25:35.000Z</time>
      </trkpt>
      <trkpt lat="47.5674" lon="6.78892">
        <ele>460.6</ele>
        <time>2017-07-30T08:25:36.000Z</time>
      </trkpt>
      <trkpt lat="47.5674" lon="6.78892">
        <ele>460.7</ele>
        <time>2017-07-30T08:25:37.000Z</time>
      </trkpt>
      <trkpt lat="47.56737" lon="6.78884">
        <ele>460.9</ele>
        <time>2017-07-30T08:25:38.000Z</time>
      </trkpt>
      <trkpt lat="47.56736" lon="6.78878">
        <ele>461.2</ele>
        <time>2017-07-30T08:25:40.000Z</time>
      </trkpt>
      <trkpt lat="47.56735" lon="6.78876">
        <ele>461.5</ele>
        <time>2017-07-30T08:25:41.000Z</time>
      </trkpt>
      <trkpt lat="47.56733" lon="6.78871">
        <ele>461.9</ele>
        <time>2017-07-30T08:25:43.000Z</time>
      </trkpt>
      <trkpt lat="47.56733" lon="6.78868">
        <ele>462.2</ele>
        <time>2017-07-30T08:25:44.000Z</time>
      </trkpt>
      <trkpt lat="47.56733" lon="6.78863">
        <ele>462.6</ele>
        <time>2017-07-30T08:25:45.000Z</time>
      </trkpt>
      <trkpt lat="47.56733" lon="6.78859">
        <ele>463</ele>
        <time>2017-07-30T08:25:46.000Z</time>
      </trkpt>
      <trkpt lat="47.56733" lon="6.78854">
        <ele>463.4</ele>
        <time>2017-07-30T08:25:47.000Z</time>
      </trkpt>
      <trkpt lat="47.56731" lon="6.7885">
        <ele>463.7</ele>
        <time>2017-07-30T08:25:48.000Z</time>
      </trkpt>
      <trkpt lat="47.56727" lon="6.78846">
        <ele>464.1</ele>
        <time>2017-07-30T08:25:49.000Z</time>
      </trkpt>
      <trkpt lat="47.56726" lon="6.78842">
        <ele>464.4</ele>
        <time>2017-07-30T08:25:50.000Z</time>
      </trkpt>
      <trkpt lat="47.56725" lon="6.78838">
        <ele>464.6</ele>
        <time>2017-07-30T08:25:51.000Z</time>
      </trkpt>
      <trkpt lat="47.56723" lon="6.78835">
        <ele>464.8</ele>
        <time>2017-07-30T08:25:52.000Z</time>
      </trkpt>
      <trkpt lat="47.56721" lon="6.78832">
        <ele>465</ele>
        <time>2017-07-30T08:25:53.000Z</time>
      </trkpt>
      <trkpt lat="47.5672" lon="6.78829">
        <ele>465.2</ele>
        <time>2017-07-30T08:25:54.000Z</time>
      </trkpt>
      <trkpt lat="47.5672" lon="6.78826">
        <ele>465.4</ele>
        <time>2017-07-30T08:25:55.000Z</time>
      </trkpt>
      <trkpt lat="47.56719" lon="6.78822">
        <ele>465.7</ele>
        <time>2017-07-30T08:25:56.000Z</time>
      </trkpt>
      <trkpt lat="47.56717" lon="6.78818">
        <ele>466.1</ele>
        <time>2017-07-30T08:25:57.000Z</time>
      </trkpt>
      <trkpt lat="47.56716" lon="6.78814">
        <ele>466.4</ele>
        <time>2017-07-30T08:25:58.000Z</time>
      </trkpt>
      <trkpt lat="47.56715" lon="6.78812">
        <ele>466.6</ele>
        <time>2017-07-30T08:25:59.000Z</time>
      </trkpt>
      <trkpt lat="47.56712" lon="6.78809">
        <ele>466.9</ele>
        <time>2017-07-30T08:26:00.000Z</time>
      </trkpt>
      <trkpt lat="47.5671" lon="6.78805">
        <ele>467.2</ele>
        <time>2017-07-30T08:26:01.000Z</time>
      </trkpt>
      <trkpt lat="47.56707" lon="6.788">
        <ele>467.6</ele>
        <time>2017-07-30T08:26:02.000Z</time>
      </trkpt>
      <trkpt lat="47.56706" lon="6.78796">
        <ele>467.9</ele>
        <time>2017-07-30T08:26:03.000Z</time>
      </trkpt>
      <trkpt lat="47.56705" lon="6.78791">
        <ele>468.1</ele>
        <time>2017-07-30T08:26:04.000Z</time>
      </trkpt>
      <trkpt lat="47.56705" lon="6.78786">
        <ele>468.4</ele>
        <time>2017-07-30T08:26:05.000Z</time>
      </trkpt>
      <trkpt lat="47.56705" lon="6.78783">
        <ele>468.8</ele>
        <time>2017-07-30T08:26:06.000Z</time>
      </trkpt>
      <trkpt lat="47.56704" lon="6.78779">
        <ele>469.1</ele>
        <time>2017-07-30T08:26:07.000Z</time>
      </trkpt>
      <trkpt lat="47.56704" lon="6.78775">
        <ele>469.4</ele>
        <time>2017-07-30T08:26:08.000Z</time>
      </trkpt>
      <trkpt lat="47.56703" lon="6.78772">
        <ele>469.7</ele>
        <time>2017-07-30T08:26:09.000Z</time>
      </trkpt>
      <trkpt lat="47.56702" lon="6.78769">
        <ele>470</ele>
        <time>2017-07-30T08:26:10.000Z</time>
      </trkpt>
      <trkpt lat="47.56701" lon="6.78766">
        <ele>470.2</ele>
        <time>2017-07-30T08:26:11.000Z</time>
      </trkpt>
      <trkpt lat="47.56699" lon="6.78761">
        <ele>470.6</ele>
        <time>2017-07-30T08:26:12.000Z</time>
      </trkpt>
      <trkpt lat="47.56698" lon="6.78758">
        <ele>470.9</ele>
        <time>2017-07-30T08:26:13.000Z</time>
      </trkpt>
      <trkpt lat="47.56696" lon="6.78754">
        <ele>471.2</ele>
        <time>2017-07-30T08:26:14.000Z</time>
      </trkpt>
      <trkpt lat="47.56695" lon="6.78751">
        <ele>471.5</ele>
        <time>2017-07-30T08:26:15.000Z</time>
      </trkpt>
      <trkpt lat="47.56692" lon="6.78748">
        <ele>471.9</ele>
        <time>2017-07-30T08:26:16.000Z</time>
      </trkpt>
      <trkpt lat="47.5669" lon="6.78745">
        <ele>472.2</ele>
        <time>2017-07-30T08:26:17.000Z</time>
      </trkpt>
      <trkpt lat="47.56688" lon="6.78742">
        <ele>472.5</ele>
        <time>2017-07-30T08:26:18.000Z</time>
      </trkpt>
      <trkpt lat="47.56688" lon="6.78739">
        <ele>472.8</ele>
        <time>2017-07-30T08:26:19.000Z</time>
      </trkpt>
      <trkpt lat="47.56688" lon="6.78735">
        <ele>473.1</ele>
        <time>2017-07-30T08:26:20.000Z</time>
      </trkpt>
      <trkpt lat="47.56687" lon="6.78729">
        <ele>473.4</ele>
        <time>2017-07-30T08:26:21.000Z</time>
      </trkpt>
      <trkpt lat="47.56686" lon="6.78724">
        <ele>473.6</ele>
        <time>2017-07-30T08:26:22.000Z</time>
      </trkpt>
      <trkpt lat="47.56683" lon="6.7872">
        <ele>473.9</ele>
        <time>2017-07-30T08:26:23.000Z</time>
      </trkpt>
      <trkpt lat="47.56683" lon="6.78716">
        <ele>474.1</ele>
        <time>2017-07-30T08:26:24.000Z</time>
      </trkpt>
      <trkpt lat="47.5668" lon="6.78711">
        <ele>474.5</ele>
        <time>2017-07-30T08:26:26.000Z</time>
      </trkpt>
      <trkpt lat="47.5668" lon="6.78707">
        <ele>474.7</ele>
        <time>2017-07-30T08:26:27.000Z</time>
      </trkpt>
      <trkpt lat="47.56677" lon="6.78702">
        <ele>474.8</ele>
        <time>2017-07-30T08:26:28.000Z</time>
      </trkpt>
      <trkpt lat="47.56675" lon="6.78698">
        <ele>475</ele>
        <time>2017-07-30T08:26:29.000Z</time>
      </trkpt>
      <trkpt lat="47.56673" lon="6.78692">
        <ele>475.4</ele>
        <time>2017-07-30T08:26:31.000Z</time>
      </trkpt>
      <trkpt lat="47.56672" lon="6.78687">
        <ele>475.5</ele>
        <time>2017-07-30T08:26:32.000Z</time>
      </trkpt>
      <trkpt lat="47.56672" lon="6.78682">
        <ele>475.8</ele>
        <time>2017-07-30T08:26:33.000Z</time>
      </trkpt>
      <trkpt lat="47.56671" lon="6.78678">
        <ele>475.9</ele>
        <time>2017-07-30T08:26:34.000Z</time>
      </trkpt>
      <trkpt lat="47.56668" lon="6.7867">
        <ele>476</ele>
        <time>2017-07-30T08:26:35.000Z</time>
      </trkpt>
      <trkpt lat="47.56665" lon="6.78664">
        <ele>476.1</ele>
        <time>2017-07-30T08:26:36.000Z</time>
      </trkpt>
      <trkpt lat="47.56662" lon="6.78659">
        <ele>476.3</ele>
        <time>2017-07-30T08:26:37.000Z</time>
      </trkpt>
      <trkpt lat="47.5666" lon="6.78653">
        <ele>476.4</ele>
        <time>2017-07-30T08:26:38.000Z</time>
      </trkpt>
      <trkpt lat="47.56657" lon="6.78647">
        <ele>476.4</ele>
        <time>2017-07-30T08:26:39.000Z</time>
      </trkpt>
      <trkpt lat="47.56656" lon="6.78642">
        <ele>476.5</ele>
        <time>2017-07-30T08:26:40.000Z</time>
      </trkpt>
      <trkpt lat="47.56654" lon="6.78638">
        <ele>476.5</ele>
        <time>2017-07-30T08:26:41.000Z</time>
      </trkpt>
      <trkpt lat="47.56652" lon="6.78634">
        <ele>476.6</ele>
        <time>2017-07-30T08:26:42.000Z</time>
      </trkpt>
      <trkpt lat="47.5665" lon="6.7863">
        <ele>476.6</ele>
        <time>2017-07-30T08:26:43.000Z</time>
      </trkpt>
      <trkpt lat="47.56648" lon="6.78625">
        <ele>476.7</ele>
        <time>2017-07-30T08:26:44.000Z</time>
      </trkpt>
      <trkpt lat="47.56645" lon="6.78619">
        <ele>476.8</ele>
        <time>2017-07-30T08:26:45.000Z</time>
      </trkpt>
      <trkpt lat="47.56645" lon="6.78611">
        <ele>477</ele>
        <time>2017-07-30T08:26:46.000Z</time>
      </trkpt>
      <trkpt lat="47.56646" lon="6.78603">
        <ele>477.1</ele>
        <time>2017-07-30T08:26:47.000Z</time>
      </trkpt>
      <trkpt lat="47.56646" lon="6.78596">
        <ele>477.2</ele>
        <time>2017-07-30T08:26:48.000Z</time>
      </trkpt>
      <trkpt lat="47.56645" lon="6.7859">
        <ele>477.2</ele>
        <time>2017-07-30T08:26:49.000Z</time>
      </trkpt>
      <trkpt lat="47.56644" lon="6.78584">
        <ele>477.3</ele>
        <time>2017-07-30T08:26:50.000Z</time>
      </trkpt>
      <trkpt lat="47.56644" lon="6.78577">
        <ele>477.4</ele>
        <time>2017-07-30T08:26:51.000Z</time>
      </trkpt>
      <trkpt lat="47.56644" lon="6.7857">
        <ele>477.4</ele>
        <time>2017-07-30T08:26:52.000Z</time>
      </trkpt>
      <trkpt lat="47.56644" lon="6.78564">
        <ele>477.3</ele>
        <time>2017-07-30T08:26:53.000Z</time>
      </trkpt>
      <trkpt lat="47.56644" lon="6.78559">
        <ele>477.3</ele>
        <time>2017-07-30T08:26:54.000Z</time>
      </trkpt>
      <trkpt lat="47.56645" lon="6.78554">
        <ele>477.3</ele>
        <time>2017-07-30T08:26:55.000Z</time>
      </trkpt>
      <trkpt lat="47.56645" lon="6.78549">
        <ele>477.2</ele>
        <time>2017-07-30T08:26:56.000Z</time>
      </trkpt>
      <trkpt lat="47.56645" lon="6.78544">
        <ele>477.2</ele>
        <time>2017-07-30T08:26:57.000Z</time>
      </trkpt>
      <trkpt lat="47.56645" lon="6.78539">
        <ele>477.3</ele>
        <time>2017-07-30T08:26:58.000Z</time>
      </trkpt>
      <trkpt lat="47.56646" lon="6.78534">
        <ele>477.3</ele>
        <time>2017-07-30T08:26:59.000Z</time>
      </trkpt>
      <trkpt lat="47.56647" lon="6.7853">
        <ele>477.4</ele>
        <time>2017-07-30T08:27:00.000Z</time>
      </trkpt>
      <trkpt lat="47.56648" lon="6.78524">
        <ele>477.5</ele>
        <time>2017-07-30T08:27:01.000Z</time>
      </trkpt>
      <trkpt lat="47.56649" lon="6.78519">
        <ele>477.6</ele>
        <time>2017-07-30T08:27:02.000Z</time>
      </trkpt>
      <trkpt lat="47.56649" lon="6.78513">
        <ele>477.7</ele>
        <time>2017-07-30T08:27:03.000Z</time>
      </trkpt>
      <trkpt lat="47.5665" lon="6.7851">
        <ele>477.7</ele>
        <time>2017-07-30T08:27:04.000Z</time>
      </trkpt>
      <trkpt lat="47.56653" lon="6.78506">
        <ele>477.8</ele>
        <time>2017-07-30T08:27:05.000Z</time>
      </trkpt>
      <trkpt lat="47.56655" lon="6.78502">
        <ele>479.3</ele>
        <time>2017-07-30T08:27:06.000Z</time>
      </trkpt>
      <trkpt lat="47.56656" lon="6.78497">
        <ele>480.7</ele>
        <time>2017-07-30T08:27:07.000Z</time>
      </trkpt>
      <trkpt lat="47.56655" lon="6.78493">
        <ele>480.9</ele>
        <time>2017-07-30T08:27:08.000Z</time>
      </trkpt>
      <trkpt lat="47.56655" lon="6.78487">
        <ele>481.1</ele>
        <time>2017-07-30T08:27:09.000Z</time>
      </trkpt>
      <trkpt lat="47.56654" lon="6.78481">
        <ele>481.3</ele>
        <time>2017-07-30T08:27:10.000Z</time>
      </trkpt>
      <trkpt lat="47.56652" lon="6.78474">
        <ele>481.5</ele>
        <time>2017-07-30T08:27:11.000Z</time>
      </trkpt>
      <trkpt lat="47.56651" lon="6.78466">
        <ele>481.7</ele>
        <time>2017-07-30T08:27:12.000Z</time>
      </trkpt>
      <trkpt lat="47.56651" lon="6.78461">
        <ele>481.8</ele>
        <time>2017-07-30T08:27:13.000Z</time>
      </trkpt>
      <trkpt lat="47.5665" lon="6.78455">
        <ele>482</ele>
        <time>2017-07-30T08:27:14.000Z</time>
      </trkpt>
      <trkpt lat="47.56649" lon="6.78451">
        <ele>482.1</ele>
        <time>2017-07-30T08:27:15.000Z</time>
      </trkpt>
      <trkpt lat="47.56648" lon="6.78446">
        <ele>482.3</ele>
        <time>2017-07-30T08:27:16.000Z</time>
      </trkpt>
      <trkpt lat="47.56646" lon="6.78441">
        <ele>482.3</ele>
        <time>2017-07-30T08:27:17.000Z</time>
      </trkpt>
      <trkpt lat="47.56644" lon="6.78437">
        <ele>482.4</ele>
        <time>2017-07-30T08:27:18.000Z</time>
      </trkpt>
      <trkpt lat="47.56641" lon="6.78434">
        <ele>482.4</ele>
        <time>2017-07-30T08:27:19.000Z</time>
      </trkpt>
      <trkpt lat="47.56638" lon="6.78429">
        <ele>482.5</ele>
        <time>2017-07-30T08:27:20.000Z</time>
      </trkpt>
      <trkpt lat="47.56635" lon="6.78425">
        <ele>482.5</ele>
        <time>2017-07-30T08:27:21.000Z</time>
      </trkpt>
      <trkpt lat="47.56633" lon="6.78421">
        <ele>482.5</ele>
        <time>2017-07-30T08:27:22.000Z</time>
      </trkpt>
      <trkpt lat="47.56631" lon="6.78415">
        <ele>482.6</ele>
        <time>2017-07-30T08:27:23.000Z</time>
      </trkpt>
      <trkpt lat="47.5663" lon="6.78409">
        <ele>482.7</ele>
        <time>2017-07-30T08:27:24.000Z</time>
      </trkpt>
      <trkpt lat="47.56627" lon="6.78403">
        <ele>482.8</ele>
        <time>2017-07-30T08:27:25.000Z</time>
      </trkpt>
      <trkpt lat="47.56625" lon="6.78398">
        <ele>482.9</ele>
        <time>2017-07-30T08:27:26.000Z</time>
      </trkpt>
      <trkpt lat="47.56623" lon="6.78393">
        <ele>482.9</ele>
        <time>2017-07-30T08:27:27.000Z</time>
      </trkpt>
      <trkpt lat="47.5662" lon="6.78388">
        <ele>483</ele>
        <time>2017-07-30T08:27:28.000Z</time>
      </trkpt>
      <trkpt lat="47.56617" lon="6.78383">
        <ele>484.7</ele>
        <time>2017-07-30T08:27:29.000Z</time>
      </trkpt>
      <trkpt lat="47.56612" lon="6.78377">
        <ele>485.8</ele>
        <time>2017-07-30T08:27:30.000Z</time>
      </trkpt>
      <trkpt lat="47.56609" lon="6.78372">
        <ele>487</ele>
        <time>2017-07-30T08:27:31.000Z</time>
      </trkpt>
      <trkpt lat="47.56606" lon="6.78366">
        <ele>488.2</ele>
        <time>2017-07-30T08:27:32.000Z</time>
      </trkpt>
      <trkpt lat="47.56605" lon="6.78359">
        <ele>488.3</ele>
        <time>2017-07-30T08:27:33.000Z</time>
      </trkpt>
      <trkpt lat="47.56604" lon="6.78352">
        <ele>488.2</ele>
        <time>2017-07-30T08:27:34.000Z</time>
      </trkpt>
      <trkpt lat="47.566" lon="6.78345">
        <ele>488.9</ele>
        <time>2017-07-30T08:27:35.000Z</time>
      </trkpt>
      <trkpt lat="47.56599" lon="6.78339">
        <ele>488.8</ele>
        <time>2017-07-30T08:27:36.000Z</time>
      </trkpt>
      <trkpt lat="47.56599" lon="6.78333">
        <ele>488.8</ele>
        <time>2017-07-30T08:27:37.000Z</time>
      </trkpt>
      <trkpt lat="47.566" lon="6.78326">
        <ele>488.8</ele>
        <time>2017-07-30T08:27:38.000Z</time>
      </trkpt>
      <trkpt lat="47.56601" lon="6.78317">
        <ele>488.9</ele>
        <time>2017-07-30T08:27:39.000Z</time>
      </trkpt>
      <trkpt lat="47.56602" lon="6.78308">
        <ele>488.9</ele>
        <time>2017-07-30T08:27:40.000Z</time>
      </trkpt>
      <trkpt lat="47.56602" lon="6.78301">
        <ele>488.7</ele>
        <time>2017-07-30T08:27:41.000Z</time>
      </trkpt>
      <trkpt lat="47.56603" lon="6.78291">
        <ele>487.7</ele>
        <time>2017-07-30T08:27:42.000Z</time>
      </trkpt>
      <trkpt lat="47.56602" lon="6.78285">
        <ele>487.7</ele>
        <time>2017-07-30T08:27:43.000Z</time>
      </trkpt>
      <trkpt lat="47.56603" lon="6.78278">
        <ele>488.2</ele>
        <time>2017-07-30T08:27:44.000Z</time>
      </trkpt>
      <trkpt lat="47.56606" lon="6.78269">
        <ele>489</ele>
        <time>2017-07-30T08:27:45.000Z</time>
      </trkpt>
      <trkpt lat="47.56608" lon="6.78259">
        <ele>489.4</ele>
        <time>2017-07-30T08:27:46.000Z</time>
      </trkpt>
      <trkpt lat="47.56611" lon="6.78252">
        <ele>489.5</ele>
        <time>2017-07-30T08:27:47.000Z</time>
      </trkpt>
      <trkpt lat="47.56612" lon="6.78244">
        <ele>489.6</ele>
        <time>2017-07-30T08:27:48.000Z</time>
      </trkpt>
      <trkpt lat="47.56615" lon="6.78236">
        <ele>489.6</ele>
        <time>2017-07-30T08:27:49.000Z</time>
      </trkpt>
      <trkpt lat="47.56617" lon="6.78232">
        <ele>489.7</ele>
        <time>2017-07-30T08:27:50.000Z</time>
      </trkpt>
      <trkpt lat="47.56618" lon="6.78227">
        <ele>489.7</ele>
        <time>2017-07-30T08:27:51.000Z</time>
      </trkpt>
      <trkpt lat="47.56619" lon="6.7822">
        <ele>489.8</ele>
        <time>2017-07-30T08:27:52.000Z</time>
      </trkpt>
      <trkpt lat="47.5662" lon="6.78213">
        <ele>489.7</ele>
        <time>2017-07-30T08:27:53.000Z</time>
      </trkpt>
      <trkpt lat="47.56622" lon="6.7821">
        <ele>487.9</ele>
        <time>2017-07-30T08:28:02.000Z</time>
      </trkpt>
      <trkpt lat="47.56661" lon="6.78187">
        <ele>487.6</ele>
        <time>2017-07-30T08:28:03.000Z</time>
      </trkpt>
      <trkpt lat="47.56661" lon="6.78187">
        <ele>487.1</ele>
        <time>2017-07-30T08:28:05.000Z</time>
      </trkpt>
      <trkpt lat="47.56673" lon="6.78192">
        <ele>486.9</ele>
        <time>2017-07-30T08:28:06.000Z</time>
      </trkpt>
      <trkpt lat="47.56673" lon="6.78192">
        <ele>486.2</ele>
        <time>2017-07-30T08:28:08.000Z</time>
      </trkpt>
      <trkpt lat="47.5668" lon="6.78194">
        <ele>485.8</ele>
        <time>2017-07-30T08:28:09.000Z</time>
      </trkpt>
      <trkpt lat="47.56683" lon="6.78196">
        <ele>485.1</ele>
        <time>2017-07-30T08:28:11.000Z</time>
      </trkpt>
      <trkpt lat="47.56685" lon="6.78197">
        <ele>484.8</ele>
        <time>2017-07-30T08:28:12.000Z</time>
      </trkpt>
      <trkpt lat="47.56687" lon="6.78197">
        <ele>484.6</ele>
        <time>2017-07-30T08:28:13.000Z</time>
      </trkpt>
      <trkpt lat="47.5669" lon="6.78197">
        <ele>484.3</ele>
        <time>2017-07-30T08:28:14.000Z</time>
      </trkpt>
      <trkpt lat="47.56693" lon="6.78197">
        <ele>483.7</ele>
        <time>2017-07-30T08:28:17.000Z</time>
      </trkpt>
      <trkpt lat="47.56696" lon="6.78198">
        <ele>483.5</ele>
        <time>2017-07-30T08:28:18.000Z</time>
      </trkpt>
      <trkpt lat="47.56699" lon="6.78199">
        <ele>483.3</ele>
        <time>2017-07-30T08:28:19.000Z</time>
      </trkpt>
      <trkpt lat="47.56701" lon="6.782">
        <ele>483.1</ele>
        <time>2017-07-30T08:28:20.000Z</time>
      </trkpt>
      <trkpt lat="47.56704" lon="6.78202">
        <ele>482.7</ele>
        <time>2017-07-30T08:28:22.000Z</time>
      </trkpt>
      <trkpt lat="47.56706" lon="6.78202">
        <ele>482.6</ele>
        <time>2017-07-30T08:28:23.000Z</time>
      </trkpt>
      <trkpt lat="47.56711" lon="6.78204">
        <ele>482.4</ele>
        <time>2017-07-30T08:28:25.000Z</time>
      </trkpt>
      <trkpt lat="47.56712" lon="6.78205">
        <ele>482.2</ele>
        <time>2017-07-30T08:28:26.000Z</time>
      </trkpt>
      <trkpt lat="47.56716" lon="6.78207">
        <ele>482.1</ele>
        <time>2017-07-30T08:28:28.000Z</time>
      </trkpt>
      <trkpt lat="47.56718" lon="6.78207">
        <ele>482</ele>
        <time>2017-07-30T08:28:29.000Z</time>
      </trkpt>
      <trkpt lat="47.56721" lon="6.78209">
        <ele>481.9</ele>
        <time>2017-07-30T08:28:31.000Z</time>
      </trkpt>
      <trkpt lat="47.56723" lon="6.7821">
        <ele>481.9</ele>
        <time>2017-07-30T08:28:32.000Z</time>
      </trkpt>
      <trkpt lat="47.56726" lon="6.78212">
        <ele>481.9</ele>
        <time>2017-07-30T08:28:34.000Z</time>
      </trkpt>
      <trkpt lat="47.56727" lon="6.78212">
        <ele>481.9</ele>
        <time>2017-07-30T08:28:35.000Z</time>
      </trkpt>
      <trkpt lat="47.56729" lon="6.78214">
        <ele>482</ele>
        <time>2017-07-30T08:28:40.000Z</time>
      </trkpt>
      <trkpt lat="47.56741" lon="6.78219">
        <ele>482</ele>
        <time>2017-07-30T08:28:41.000Z</time>
      </trkpt>
      <trkpt lat="47.56744" lon="6.7822">
        <ele>482</ele>
        <time>2017-07-30T08:28:42.000Z</time>
      </trkpt>
      <trkpt lat="47.56748" lon="6.78222">
        <ele>482</ele>
        <time>2017-07-30T08:28:43.000Z</time>
      </trkpt>
      <trkpt lat="47.56751" lon="6.78223">
        <ele>482</ele>
        <time>2017-07-30T08:28:44.000Z</time>
      </trkpt>
      <trkpt lat="47.56754" lon="6.78225">
        <ele>482</ele>
        <time>2017-07-30T08:28:45.000Z</time>
      </trkpt>
      <trkpt lat="47.56757" lon="6.78227">
        <ele>482</ele>
        <time>2017-07-30T08:28:46.000Z</time>
      </trkpt>
      <trkpt lat="47.56758" lon="6.78229">
        <ele>482</ele>
        <time>2017-07-30T08:28:47.000Z</time>
      </trkpt>
      <trkpt lat="47.5676" lon="6.7823">
        <ele>481.7</ele>
        <time>2017-07-30T08:28:49.000Z</time>
      </trkpt>
      <trkpt lat="47.56764" lon="6.78234">
        <ele>481.6</ele>
        <time>2017-07-30T08:28:50.000Z</time>
      </trkpt>
      <trkpt lat="47.56767" lon="6.78237">
        <ele>481.4</ele>
        <time>2017-07-30T08:28:51.000Z</time>
      </trkpt>
      <trkpt lat="47.5677" lon="6.78238">
        <ele>481.4</ele>
        <time>2017-07-30T08:28:52.000Z</time>
      </trkpt>
      <trkpt lat="47.56773" lon="6.78241">
        <ele>481.2</ele>
        <time>2017-07-30T08:28:54.000Z</time>
      </trkpt>
      <trkpt lat="47.56775" lon="6.78241">
        <ele>481.1</ele>
        <time>2017-07-30T08:28:55.000Z</time>
      </trkpt>
      <trkpt lat="47.56778" lon="6.78242">
        <ele>481</ele>
        <time>2017-07-30T08:28:57.000Z</time>
      </trkpt>
      <trkpt lat="47.5678" lon="6.78243">
        <ele>481</ele>
        <time>2017-07-30T08:28:58.000Z</time>
      </trkpt>
      <trkpt lat="47.56783" lon="6.78243">
        <ele>481</ele>
        <time>2017-07-30T08:28:59.000Z</time>
      </trkpt>
      <trkpt lat="47.56786" lon="6.78243">
        <ele>481</ele>
        <time>2017-07-30T08:29:00.000Z</time>
      </trkpt>
      <trkpt lat="47.5679" lon="6.78243">
        <ele>481.1</ele>
        <time>2017-07-30T08:29:01.000Z</time>
      </trkpt>
      <trkpt lat="47.56794" lon="6.78244">
        <ele>481.1</ele>
        <time>2017-07-30T08:29:02.000Z</time>
      </trkpt>
      <trkpt lat="47.56797" lon="6.78246">
        <ele>481.1</ele>
        <time>2017-07-30T08:29:03.000Z</time>
      </trkpt>
      <trkpt lat="47.568" lon="6.78248">
        <ele>481</ele>
        <time>2017-07-30T08:29:04.000Z</time>
      </trkpt>
      <trkpt lat="47.56804" lon="6.78249">
        <ele>480.9</ele>
        <time>2017-07-30T08:29:05.000Z</time>
      </trkpt>
      <trkpt lat="47.56809" lon="6.78252">
        <ele>480.8</ele>
        <time>2017-07-30T08:29:06.000Z</time>
      </trkpt>
      <trkpt lat="47.56811" lon="6.78254">
        <ele>480.8</ele>
        <time>2017-07-30T08:29:07.000Z</time>
      </trkpt>
      <trkpt lat="47.56814" lon="6.78255">
        <ele>480.8</ele>
        <time>2017-07-30T08:29:08.000Z</time>
      </trkpt>
      <trkpt lat="47.56817" lon="6.78256">
        <ele>480.8</ele>
        <time>2017-07-30T08:29:09.000Z</time>
      </trkpt>
      <trkpt lat="47.5682" lon="6.78258">
        <ele>480.8</ele>
        <time>2017-07-30T08:29:10.000Z</time>
      </trkpt>
      <trkpt lat="47.56822" lon="6.7826">
        <ele>480.8</ele>
        <time>2017-07-30T08:29:11.000Z</time>
      </trkpt>
      <trkpt lat="47.56826" lon="6.78262">
        <ele>480.9</ele>
        <time>2017-07-30T08:29:12.000Z</time>
      </trkpt>
      <trkpt lat="47.56828" lon="6.78264">
        <ele>480.9</ele>
        <time>2017-07-30T08:29:13.000Z</time>
      </trkpt>
      <trkpt lat="47.56831" lon="6.78266">
        <ele>481</ele>
        <time>2017-07-30T08:29:14.000Z</time>
      </trkpt>
      <trkpt lat="47.56834" lon="6.78268">
        <ele>481.2</ele>
        <time>2017-07-30T08:29:15.000Z</time>
      </trkpt>
      <trkpt lat="47.56837" lon="6.7827">
        <ele>481.4</ele>
        <time>2017-07-30T08:29:16.000Z</time>
      </trkpt>
      <trkpt lat="47.5684" lon="6.78272">
        <ele>481.6</ele>
        <time>2017-07-30T08:29:17.000Z</time>
      </trkpt>
      <trkpt lat="47.56843" lon="6.78273">
        <ele>481.7</ele>
        <time>2017-07-30T08:29:18.000Z</time>
      </trkpt>
      <trkpt lat="47.56845" lon="6.78275">
        <ele>481.9</ele>
        <time>2017-07-30T08:29:19.000Z</time>
      </trkpt>
      <trkpt lat="47.56847" lon="6.78277">
        <ele>482.1</ele>
        <time>2017-07-30T08:29:20.000Z</time>
      </trkpt>
      <trkpt lat="47.56849" lon="6.78278">
        <ele>482.3</ele>
        <time>2017-07-30T08:29:21.000Z</time>
      </trkpt>
      <trkpt lat="47.56853" lon="6.78278">
        <ele>482.5</ele>
        <time>2017-07-30T08:29:22.000Z</time>
      </trkpt>
      <trkpt lat="47.56856" lon="6.78279">
        <ele>482.7</ele>
        <time>2017-07-30T08:29:23.000Z</time>
      </trkpt>
      <trkpt lat="47.56861" lon="6.7828">
        <ele>482.9</ele>
        <time>2017-07-30T08:29:24.000Z</time>
      </trkpt>
      <trkpt lat="47.56865" lon="6.78282">
        <ele>483</ele>
        <time>2017-07-30T08:29:25.000Z</time>
      </trkpt>
      <trkpt lat="47.56871" lon="6.78283">
        <ele>483.1</ele>
        <time>2017-07-30T08:29:26.000Z</time>
      </trkpt>
      <trkpt lat="47.56875" lon="6.78285">
        <ele>483.2</ele>
        <time>2017-07-30T08:29:27.000Z</time>
      </trkpt>
      <trkpt lat="47.56878" lon="6.78287">
        <ele>483.3</ele>
        <time>2017-07-30T08:29:28.000Z</time>
      </trkpt>
      <trkpt lat="47.56881" lon="6.78288">
        <ele>483.4</ele>
        <time>2017-07-30T08:29:29.000Z</time>
      </trkpt>
      <trkpt lat="47.56884" lon="6.78291">
        <ele>483.6</ele>
        <time>2017-07-30T08:29:30.000Z</time>
      </trkpt>
      <trkpt lat="47.56888" lon="6.78293">
        <ele>483.7</ele>
        <time>2017-07-30T08:29:31.000Z</time>
      </trkpt>
      <trkpt lat="47.56891" lon="6.78296">
        <ele>483.8</ele>
        <time>2017-07-30T08:29:32.000Z</time>
      </trkpt>
      <trkpt lat="47.56895" lon="6.78298">
        <ele>483.8</ele>
        <time>2017-07-30T08:29:33.000Z</time>
      </trkpt>
      <trkpt lat="47.56899" lon="6.78299">
        <ele>485.3</ele>
        <time>2017-07-30T08:29:34.000Z</time>
      </trkpt>
      <trkpt lat="47.56903" lon="6.78301">
        <ele>485.5</ele>
        <time>2017-07-30T08:29:35.000Z</time>
      </trkpt>
      <trkpt lat="47.56908" lon="6.78302">
        <ele>486</ele>
        <time>2017-07-30T08:29:36.000Z</time>
      </trkpt>
      <trkpt lat="47.56913" lon="6.78303">
        <ele>486.1</ele>
        <time>2017-07-30T08:29:37.000Z</time>
      </trkpt>
      <trkpt lat="47.56916" lon="6.78305">
        <ele>486.1</ele>
        <time>2017-07-30T08:29:38.000Z</time>
      </trkpt>
      <trkpt lat="47.5692" lon="6.78307">
        <ele>486.1</ele>
        <time>2017-07-30T08:29:39.000Z</time>
      </trkpt>
      <trkpt lat="47.56925" lon="6.78307">
        <ele>485.8</ele>
        <time>2017-07-30T08:29:40.000Z</time>
      </trkpt>
      <trkpt lat="47.56929" lon="6.78308">
        <ele>485.3</ele>
        <time>2017-07-30T08:29:41.000Z</time>
      </trkpt>
      <trkpt lat="47.56932" lon="6.78309">
        <ele>485.2</ele>
        <time>2017-07-30T08:29:42.000Z</time>
      </trkpt>
      <trkpt lat="47.56936" lon="6.78311">
        <ele>485.3</ele>
        <time>2017-07-30T08:29:43.000Z</time>
      </trkpt>
      <trkpt lat="47.56941" lon="6.78312">
        <ele>484.7</ele>
        <time>2017-07-30T08:29:44.000Z</time>
      </trkpt>
      <trkpt lat="47.56945" lon="6.78313">
        <ele>485.4</ele>
        <time>2017-07-30T08:29:45.000Z</time>
      </trkpt>
      <trkpt lat="47.5695" lon="6.78314">
        <ele>485</ele>
        <time>2017-07-30T08:29:46.000Z</time>
      </trkpt>
      <trkpt lat="47.56953" lon="6.78315">
        <ele>484.9</ele>
        <time>2017-07-30T08:29:47.000Z</time>
      </trkpt>
      <trkpt lat="47.56958" lon="6.78317">
        <ele>484.2</ele>
        <time>2017-07-30T08:29:48.000Z</time>
      </trkpt>
      <trkpt lat="47.56966" lon="6.78321">
        <ele>484</ele>
        <time>2017-07-30T08:29:49.000Z</time>
      </trkpt>
      <trkpt lat="47.56971" lon="6.78323">
        <ele>483.9</ele>
        <time>2017-07-30T08:29:50.000Z</time>
      </trkpt>
      <trkpt lat="47.56975" lon="6.78325">
        <ele>484</ele>
        <time>2017-07-30T08:29:51.000Z</time>
      </trkpt>
      <trkpt lat="47.56979" lon="6.78327">
        <ele>483.9</ele>
        <time>2017-07-30T08:29:52.000Z</time>
      </trkpt>
      <trkpt lat="47.56985" lon="6.7833">
        <ele>483.9</ele>
        <time>2017-07-30T08:29:53.000Z</time>
      </trkpt>
      <trkpt lat="47.5699" lon="6.78332">
        <ele>483.9</ele>
        <time>2017-07-30T08:29:54.000Z</time>
      </trkpt>
      <trkpt lat="47.56996" lon="6.78335">
        <ele>483.9</ele>
        <time>2017-07-30T08:29:55.000Z</time>
      </trkpt>
      <trkpt lat="47.57" lon="6.78338">
        <ele>483.8</ele>
        <time>2017-07-30T08:29:56.000Z</time>
      </trkpt>
      <trkpt lat="47.57004" lon="6.78341">
        <ele>483.9</ele>
        <time>2017-07-30T08:29:57.000Z</time>
      </trkpt>
      <trkpt lat="47.57009" lon="6.78345">
        <ele>484</ele>
        <time>2017-07-30T08:29:58.000Z</time>
      </trkpt>
      <trkpt lat="47.57013" lon="6.78349">
        <ele>484</ele>
        <time>2017-07-30T08:29:59.000Z</time>
      </trkpt>
      <trkpt lat="47.57017" lon="6.78354">
        <ele>484</ele>
        <time>2017-07-30T08:30:00.000Z</time>
      </trkpt>
      <trkpt lat="47.5702" lon="6.78358">
        <ele>484.1</ele>
        <time>2017-07-30T08:30:01.000Z</time>
      </trkpt>
      <trkpt lat="47.57022" lon="6.78363">
        <ele>484.2</ele>
        <time>2017-07-30T08:30:02.000Z</time>
      </trkpt>
      <trkpt lat="47.57025" lon="6.78367">
        <ele>484.3</ele>
        <time>2017-07-30T08:30:03.000Z</time>
      </trkpt>
      <trkpt lat="47.57029" lon="6.78373">
        <ele>484.4</ele>
        <time>2017-07-30T08:30:04.000Z</time>
      </trkpt>
      <trkpt lat="47.57033" lon="6.78376">
        <ele>484.6</ele>
        <time>2017-07-30T08:30:05.000Z</time>
      </trkpt>
      <trkpt lat="47.57036" lon="6.78377">
        <ele>484.8</ele>
        <time>2017-07-30T08:30:06.000Z</time>
      </trkpt>
      <trkpt lat="47.57039" lon="6.78379">
        <ele>484.8</ele>
        <time>2017-07-30T08:30:07.000Z</time>
      </trkpt>
      <trkpt lat="47.57042" lon="6.78381">
        <ele>484.9</ele>
        <time>2017-07-30T08:30:08.000Z</time>
      </trkpt>
      <trkpt lat="47.57046" lon="6.78383">
        <ele>485.1</ele>
        <time>2017-07-30T08:30:09.000Z</time>
      </trkpt>
      <trkpt lat="47.5705" lon="6.78386">
        <ele>485.2</ele>
        <time>2017-07-30T08:30:10.000Z</time>
      </trkpt>
      <trkpt lat="47.57054" lon="6.78388">
        <ele>485.3</ele>
        <time>2017-07-30T08:30:11.000Z</time>
      </trkpt>
      <trkpt lat="47.57057" lon="6.78391">
        <ele>485.3</ele>
        <time>2017-07-30T08:30:12.000Z</time>
      </trkpt>
      <trkpt lat="47.5706" lon="6.78395">
        <ele>485.4</ele>
        <time>2017-07-30T08:30:13.000Z</time>
      </trkpt>
      <trkpt lat="47.57064" lon="6.78402">
        <ele>485.5</ele>
        <time>2017-07-30T08:30:14.000Z</time>
      </trkpt>
      <trkpt lat="47.57066" lon="6.78405">
        <ele>485.5</ele>
        <time>2017-07-30T08:30:15.000Z</time>
      </trkpt>
      <trkpt lat="47.57071" lon="6.7841">
        <ele>485.6</ele>
        <time>2017-07-30T08:30:16.000Z</time>
      </trkpt>
      <trkpt lat="47.57073" lon="6.78415">
        <ele>485.8</ele>
        <time>2017-07-30T08:30:21.000Z</time>
      </trkpt>
      <trkpt lat="47.57071" lon="6.78419">
        <ele>485.8</ele>
        <time>2017-07-30T08:30:22.000Z</time>
      </trkpt>
      <trkpt lat="47.57069" lon="6.78428">
        <ele>485.8</ele>
        <time>2017-07-30T08:30:23.000Z</time>
      </trkpt>
      <trkpt lat="47.57073" lon="6.7843">
        <ele>485.8</ele>
        <time>2017-07-30T08:30:28.000Z</time>
      </trkpt>
      <trkpt lat="47.57076" lon="6.78429">
        <ele>485.8</ele>
        <time>2017-07-30T08:30:29.000Z</time>
      </trkpt>
      <trkpt lat="47.57077" lon="6.78426">
        <ele>485.8</ele>
        <time>2017-07-30T08:30:30.000Z</time>
      </trkpt>
      <trkpt lat="47.57078" lon="6.78421">
        <ele>484.7</ele>
        <time>2017-07-30T08:30:31.000Z</time>
      </trkpt>
      <trkpt lat="47.57079" lon="6.78416">
        <ele>484.4</ele>
        <time>2017-07-30T08:30:33.000Z</time>
      </trkpt>
      <trkpt lat="47.5708" lon="6.78413">
        <ele>484.2</ele>
        <time>2017-07-30T08:30:34.000Z</time>
      </trkpt>
      <trkpt lat="47.57084" lon="6.78415">
        <ele>483.5</ele>
        <time>2017-07-30T08:30:37.000Z</time>
      </trkpt>
      <trkpt lat="47.57088" lon="6.78414">
        <ele>483.4</ele>
        <time>2017-07-30T08:30:38.000Z</time>
      </trkpt>
      <trkpt lat="47.57092" lon="6.78413">
        <ele>483.2</ele>
        <time>2017-07-30T08:30:39.000Z</time>
      </trkpt>
      <trkpt lat="47.57095" lon="6.78406">
        <ele>483.1</ele>
        <time>2017-07-30T08:30:40.000Z</time>
      </trkpt>
      <trkpt lat="47.57097" lon="6.78397">
        <ele>482.9</ele>
        <time>2017-07-30T08:30:41.000Z</time>
      </trkpt>
      <trkpt lat="47.57097" lon="6.7839">
        <ele>482.6</ele>
        <time>2017-07-30T08:30:42.000Z</time>
      </trkpt>
      <trkpt lat="47.57094" lon="6.78385">
        <ele>480.9</ele>
        <time>2017-07-30T08:30:43.000Z</time>
      </trkpt>
      <trkpt lat="47.57092" lon="6.78383">
        <ele>478.9</ele>
        <time>2017-07-30T08:30:44.000Z</time>
      </trkpt>
      <trkpt lat="47.57091" lon="6.7838">
        <ele>478.6</ele>
        <time>2017-07-30T08:30:45.000Z</time>
      </trkpt>
      <trkpt lat="47.5709" lon="6.78377">
        <ele>476</ele>
        <time>2017-07-30T08:30:46.000Z</time>
      </trkpt>
      <trkpt lat="47.5709" lon="6.78373">
        <ele>472.6</ele>
        <time>2017-07-30T08:30:47.000Z</time>
      </trkpt>
      <trkpt lat="47.57089" lon="6.78367">
        <ele>470.5</ele>
        <time>2017-07-30T08:30:48.000Z</time>
      </trkpt>
      <trkpt lat="47.57089" lon="6.7836">
        <ele>469.6</ele>
        <time>2017-07-30T08:30:49.000Z</time>
      </trkpt>
      <trkpt lat="47.5709" lon="6.78351">
        <ele>468.4</ele>
        <time>2017-07-30T08:30:50.000Z</time>
      </trkpt>
      <trkpt lat="47.57088" lon="6.78345">
        <ele>467.2</ele>
        <time>2017-07-30T08:30:51.000Z</time>
      </trkpt>
      <trkpt lat="47.57086" lon="6.7834">
        <ele>467</ele>
        <time>2017-07-30T08:30:52.000Z</time>
      </trkpt>
      <trkpt lat="47.57086" lon="6.78335">
        <ele>467</ele>
        <time>2017-07-30T08:30:53.000Z</time>
      </trkpt>
      <trkpt lat="47.57084" lon="6.78329">
        <ele>467.5</ele>
        <time>2017-07-30T08:30:54.000Z</time>
      </trkpt>
      <trkpt lat="47.57082" lon="6.78322">
        <ele>468.8</ele>
        <time>2017-07-30T08:30:55.000Z</time>
      </trkpt>
      <trkpt lat="47.5708" lon="6.78316">
        <ele>469.6</ele>
        <time>2017-07-30T08:30:56.000Z</time>
      </trkpt>
      <trkpt lat="47.57077" lon="6.78308">
        <ele>470.3</ele>
        <time>2017-07-30T08:30:57.000Z</time>
      </trkpt>
      <trkpt lat="47.57075" lon="6.78298">
        <ele>471.1</ele>
        <time>2017-07-30T08:30:58.000Z</time>
      </trkpt>
      <trkpt lat="47.57077" lon="6.7829">
        <ele>471.1</ele>
        <time>2017-07-30T08:30:59.000Z</time>
      </trkpt>
      <trkpt lat="47.57077" lon="6.78279">
        <ele>471</ele>
        <time>2017-07-30T08:31:00.000Z</time>
      </trkpt>
      <trkpt lat="47.57077" lon="6.7827">
        <ele>471</ele>
        <time>2017-07-30T08:31:01.000Z</time>
      </trkpt>
      <trkpt lat="47.5708" lon="6.78259">
        <ele>470.9</ele>
        <time>2017-07-30T08:31:02.000Z</time>
      </trkpt>
      <trkpt lat="47.57081" lon="6.78246">
        <ele>470.4</ele>
        <time>2017-07-30T08:31:03.000Z</time>
      </trkpt>
      <trkpt lat="47.57081" lon="6.78239">
        <ele>469.5</ele>
        <time>2017-07-30T08:31:04.000Z</time>
      </trkpt>
      <trkpt lat="47.57079" lon="6.78232">
        <ele>469.4</ele>
        <time>2017-07-30T08:31:05.000Z</time>
      </trkpt>
      <trkpt lat="47.57077" lon="6.78226">
        <ele>469.2</ele>
        <time>2017-07-30T08:31:06.000Z</time>
      </trkpt>
      <trkpt lat="47.57072" lon="6.78215">
        <ele>469.2</ele>
        <time>2017-07-30T08:31:07.000Z</time>
      </trkpt>
      <trkpt lat="47.5707" lon="6.78198">
        <ele>469.6</ele>
        <time>2017-07-30T08:31:08.000Z</time>
      </trkpt>
      <trkpt lat="47.57062" lon="6.78195">
        <ele>469.7</ele>
        <time>2017-07-30T08:31:09.000Z</time>
      </trkpt>
      <trkpt lat="47.57062" lon="6.78187">
        <ele>469.6</ele>
        <time>2017-07-30T08:31:10.000Z</time>
      </trkpt>
      <trkpt lat="47.57062" lon="6.78179">
        <ele>469.4</ele>
        <time>2017-07-30T08:31:11.000Z</time>
      </trkpt>
      <trkpt lat="47.57058" lon="6.78166">
        <ele>469.1</ele>
        <time>2017-07-30T08:31:12.000Z</time>
      </trkpt>
      <trkpt lat="47.57053" lon="6.78153">
        <ele>466.1</ele>
        <time>2017-07-30T08:31:13.000Z</time>
      </trkpt>
      <trkpt lat="47.57047" lon="6.78141">
        <ele>462.7</ele>
        <time>2017-07-30T08:31:14.000Z</time>
      </trkpt>
      <trkpt lat="47.57043" lon="6.78131">
        <ele>459.7</ele>
        <time>2017-07-30T08:31:15.000Z</time>
      </trkpt>
      <trkpt lat="47.5704" lon="6.78122">
        <ele>457.5</ele>
        <time>2017-07-30T08:31:16.000Z</time>
      </trkpt>
      <trkpt lat="47.57038" lon="6.78115">
        <ele>457.3</ele>
        <time>2017-07-30T08:31:17.000Z</time>
      </trkpt>
      <trkpt lat="47.57037" lon="6.7811">
        <ele>457.1</ele>
        <time>2017-07-30T08:31:18.000Z</time>
      </trkpt>
      <trkpt lat="47.57035" lon="6.78101">
        <ele>456.8</ele>
        <time>2017-07-30T08:31:19.000Z</time>
      </trkpt>
      <trkpt lat="47.57033" lon="6.78097">
        <ele>456.5</ele>
        <time>2017-07-30T08:31:20.000Z</time>
      </trkpt>
      <trkpt lat="47.5703" lon="6.78086">
        <ele>456.1</ele>
        <time>2017-07-30T08:31:21.000Z</time>
      </trkpt>
      <trkpt lat="47.5703" lon="6.78076">
        <ele>455.7</ele>
        <time>2017-07-30T08:31:22.000Z</time>
      </trkpt>
      <trkpt lat="47.57032" lon="6.78063">
        <ele>455.3</ele>
        <time>2017-07-30T08:31:23.000Z</time>
      </trkpt>
      <trkpt lat="47.57037" lon="6.78049">
        <ele>454.8</ele>
        <time>2017-07-30T08:31:24.000Z</time>
      </trkpt>
      <trkpt lat="47.57041" lon="6.78036">
        <ele>451.2</ele>
        <time>2017-07-30T08:31:25.000Z</time>
      </trkpt>
      <trkpt lat="47.57044" lon="6.78021">
        <ele>448.5</ele>
        <time>2017-07-30T08:31:26.000Z</time>
      </trkpt>
      <trkpt lat="47.57045" lon="6.78011">
        <ele>444.7</ele>
        <time>2017-07-30T08:31:27.000Z</time>
      </trkpt>
      <trkpt lat="47.57052" lon="6.78">
        <ele>443</ele>
        <time>2017-07-30T08:31:28.000Z</time>
      </trkpt>
      <trkpt lat="47.57058" lon="6.77992">
        <ele>443</ele>
        <time>2017-07-30T08:31:29.000Z</time>
      </trkpt>
      <trkpt lat="47.57062" lon="6.77987">
        <ele>442.7</ele>
        <time>2017-07-30T08:31:30.000Z</time>
      </trkpt>
      <trkpt lat="47.57063" lon="6.77983">
        <ele>442.4</ele>
        <time>2017-07-30T08:31:31.000Z</time>
      </trkpt>
      <trkpt lat="47.57065" lon="6.77979">
        <ele>442.1</ele>
        <time>2017-07-30T08:31:32.000Z</time>
      </trkpt>
      <trkpt lat="47.57068" lon="6.77973">
        <ele>439.2</ele>
        <time>2017-07-30T08:31:33.000Z</time>
      </trkpt>
      <trkpt lat="47.57074" lon="6.77964">
        <ele>437.1</ele>
        <time>2017-07-30T08:31:34.000Z</time>
      </trkpt>
      <trkpt lat="47.5708" lon="6.77957">
        <ele>435.7</ele>
        <time>2017-07-30T08:31:35.000Z</time>
      </trkpt>
      <trkpt lat="47.57084" lon="6.77948">
        <ele>435.6</ele>
        <time>2017-07-30T08:31:36.000Z</time>
      </trkpt>
      <trkpt lat="47.57088" lon="6.77941">
        <ele>435.3</ele>
        <time>2017-07-30T08:31:37.000Z</time>
      </trkpt>
      <trkpt lat="47.57093" lon="6.77938">
        <ele>435</ele>
        <time>2017-07-30T08:31:38.000Z</time>
      </trkpt>
      <trkpt lat="47.57099" lon="6.77937">
        <ele>434.6</ele>
        <time>2017-07-30T08:31:39.000Z</time>
      </trkpt>
      <trkpt lat="47.57103" lon="6.77934">
        <ele>434.2</ele>
        <time>2017-07-30T08:31:40.000Z</time>
      </trkpt>
      <trkpt lat="47.57107" lon="6.77932">
        <ele>432.8</ele>
        <time>2017-07-30T08:31:43.000Z</time>
      </trkpt>
      <trkpt lat="47.57108" lon="6.77931">
        <ele>432.2</ele>
        <time>2017-07-30T08:31:44.000Z</time>
      </trkpt>
      <trkpt lat="47.57112" lon="6.77925">
        <ele>431.6</ele>
        <time>2017-07-30T08:31:45.000Z</time>
      </trkpt>
      <trkpt lat="47.57116" lon="6.77922">
        <ele>431</ele>
        <time>2017-07-30T08:31:46.000Z</time>
      </trkpt>
      <trkpt lat="47.57121" lon="6.7792">
        <ele>430.5</ele>
        <time>2017-07-30T08:31:47.000Z</time>
      </trkpt>
      <trkpt lat="47.57126" lon="6.77918">
        <ele>429.9</ele>
        <time>2017-07-30T08:31:48.000Z</time>
      </trkpt>
      <trkpt lat="47.57129" lon="6.77913">
        <ele>429.3</ele>
        <time>2017-07-30T08:31:49.000Z</time>
      </trkpt>
      <trkpt lat="47.57133" lon="6.77907">
        <ele>428.7</ele>
        <time>2017-07-30T08:31:50.000Z</time>
      </trkpt>
      <trkpt lat="47.57139" lon="6.77902">
        <ele>428</ele>
        <time>2017-07-30T08:31:51.000Z</time>
      </trkpt>
      <trkpt lat="47.57141" lon="6.77895">
        <ele>427.5</ele>
        <time>2017-07-30T08:31:52.000Z</time>
      </trkpt>
      <trkpt lat="47.57144" lon="6.77889">
        <ele>426.9</ele>
        <time>2017-07-30T08:31:53.000Z</time>
      </trkpt>
      <trkpt lat="47.5715" lon="6.7789">
        <ele>426.2</ele>
        <time>2017-07-30T08:31:54.000Z</time>
      </trkpt>
      <trkpt lat="47.57154" lon="6.77893">
        <ele>425.5</ele>
        <time>2017-07-30T08:31:55.000Z</time>
      </trkpt>
      <trkpt lat="47.57156" lon="6.77892">
        <ele>424.9</ele>
        <time>2017-07-30T08:31:56.000Z</time>
      </trkpt>
      <trkpt lat="47.5716" lon="6.77884">
        <ele>424.3</ele>
        <time>2017-07-30T08:31:57.000Z</time>
      </trkpt>
      <trkpt lat="47.57164" lon="6.77874">
        <ele>423.7</ele>
        <time>2017-07-30T08:31:58.000Z</time>
      </trkpt>
      <trkpt lat="47.57168" lon="6.77865">
        <ele>423</ele>
        <time>2017-07-30T08:31:59.000Z</time>
      </trkpt>
      <trkpt lat="47.57172" lon="6.77857">
        <ele>422.4</ele>
        <time>2017-07-30T08:32:00.000Z</time>
      </trkpt>
      <trkpt lat="47.57178" lon="6.77847">
        <ele>421.7</ele>
        <time>2017-07-30T08:32:01.000Z</time>
      </trkpt>
      <trkpt lat="47.57188" lon="6.77832">
        <ele>421.1</ele>
        <time>2017-07-30T08:32:02.000Z</time>
      </trkpt>
      <trkpt lat="47.57198" lon="6.77825">
        <ele>416.4</ele>
        <time>2017-07-30T08:32:03.000Z</time>
      </trkpt>
      <trkpt lat="47.57203" lon="6.77823">
        <ele>416.1</ele>
        <time>2017-07-30T08:32:04.000Z</time>
      </trkpt>
      <trkpt lat="47.57207" lon="6.7782">
        <ele>415.7</ele>
        <time>2017-07-30T08:32:05.000Z</time>
      </trkpt>
      <trkpt lat="47.57212" lon="6.77816">
        <ele>415.4</ele>
        <time>2017-07-30T08:32:06.000Z</time>
      </trkpt>
      <trkpt lat="47.57215" lon="6.77816">
        <ele>415</ele>
        <time>2017-07-30T08:32:07.000Z</time>
      </trkpt>
      <trkpt lat="47.57218" lon="6.77817">
        <ele>414.6</ele>
        <time>2017-07-30T08:32:08.000Z</time>
      </trkpt>
      <trkpt lat="47.57221" lon="6.77817">
        <ele>414.2</ele>
        <time>2017-07-30T08:32:09.000Z</time>
      </trkpt>
      <trkpt lat="47.57225" lon="6.77818">
        <ele>413.8</ele>
        <time>2017-07-30T08:32:10.000Z</time>
      </trkpt>
      <trkpt lat="47.57229" lon="6.77818">
        <ele>413.5</ele>
        <time>2017-07-30T08:32:10.999Z</time>
      </trkpt>
      <trkpt lat="47.57232" lon="6.77818">
        <ele>413.2</ele>
        <time>2017-07-30T08:32:11.999Z</time>
      </trkpt>
      <trkpt lat="47.57234" lon="6.77818">
        <ele>413</ele>
        <time>2017-07-30T08:32:12.999Z</time>
      </trkpt>
      <trkpt lat="47.5724" lon="6.77818">
        <ele>412.7</ele>
        <time>2017-07-30T08:32:13.999Z</time>
      </trkpt>
      <trkpt lat="47.57243" lon="6.77819">
        <ele>412.3</ele>
        <time>2017-07-30T08:32:14.999Z</time>
      </trkpt>
      <trkpt lat="47.57245" lon="6.7782">
        <ele>412</ele>
        <time>2017-07-30T08:32:15.999Z</time>
      </trkpt>
      <trkpt lat="47.5725" lon="6.7782">
        <ele>411.6</ele>
        <time>2017-07-30T08:32:16.999Z</time>
      </trkpt>
      <trkpt lat="47.57252" lon="6.77819">
        <ele>411.2</ele>
        <time>2017-07-30T08:32:17.999Z</time>
      </trkpt>
      <trkpt lat="47.57255" lon="6.77818">
        <ele>410.9</ele>
        <time>2017-07-30T08:32:18.999Z</time>
      </trkpt>
      <trkpt lat="47.57258" lon="6.77818">
        <ele>410.6</ele>
        <time>2017-07-30T08:32:19.999Z</time>
      </trkpt>
      <trkpt lat="47.5726" lon="6.77819">
        <ele>410.4</ele>
        <time>2017-07-30T08:32:20.999Z</time>
      </trkpt>
      <trkpt lat="47.57265" lon="6.77822">
        <ele>410.2</ele>
        <time>2017-07-30T08:32:21.999Z</time>
      </trkpt>
      <trkpt lat="47.57267" lon="6.77824">
        <ele>410.1</ele>
        <time>2017-07-30T08:32:22.999Z</time>
      </trkpt>
      <trkpt lat="47.57269" lon="6.77825">
        <ele>409.9</ele>
        <time>2017-07-30T08:32:23.999Z</time>
      </trkpt>
      <trkpt lat="47.57271" lon="6.77826">
        <ele>409.9</ele>
        <time>2017-07-30T08:32:24.999Z</time>
      </trkpt>
      <trkpt lat="47.57274" lon="6.77826">
        <ele>409.8</ele>
        <time>2017-07-30T08:32:25.999Z</time>
      </trkpt>
      <trkpt lat="47.57278" lon="6.77827">
        <ele>409.7</ele>
        <time>2017-07-30T08:32:26.999Z</time>
      </trkpt>
      <trkpt lat="47.57282" lon="6.77829">
        <ele>409.6</ele>
        <time>2017-07-30T08:32:27.999Z</time>
      </trkpt>
      <trkpt lat="47.57285" lon="6.77831">
        <ele>409.5</ele>
        <time>2017-07-30T08:32:28.999Z</time>
      </trkpt>
      <trkpt lat="47.57288" lon="6.77834">
        <ele>409.4</ele>
        <time>2017-07-30T08:32:29.999Z</time>
      </trkpt>
      <trkpt lat="47.57291" lon="6.77837">
        <ele>409.2</ele>
        <time>2017-07-30T08:32:30.999Z</time>
      </trkpt>
      <trkpt lat="47.57295" lon="6.77838">
        <ele>409.1</ele>
        <time>2017-07-30T08:32:31.999Z</time>
      </trkpt>
      <trkpt lat="47.57299" lon="6.7784">
        <ele>409</ele>
        <time>2017-07-30T08:32:32.999Z</time>
      </trkpt>
      <trkpt lat="47.57303" lon="6.77842">
        <ele>408.8</ele>
        <time>2017-07-30T08:32:33.999Z</time>
      </trkpt>
      <trkpt lat="47.57306" lon="6.77845">
        <ele>408.6</ele>
        <time>2017-07-30T08:32:34.999Z</time>
      </trkpt>
      <trkpt lat="47.57311" lon="6.7785">
        <ele>408.4</ele>
        <time>2017-07-30T08:32:35.999Z</time>
      </trkpt>
      <trkpt lat="47.57314" lon="6.77852">
        <ele>408.2</ele>
        <time>2017-07-30T08:32:36.999Z</time>
      </trkpt>
      <trkpt lat="47.57317" lon="6.77854">
        <ele>408.1</ele>
        <time>2017-07-30T08:32:37.999Z</time>
      </trkpt>
      <trkpt lat="47.5732" lon="6.77856">
        <ele>407.9</ele>
        <time>2017-07-30T08:32:38.999Z</time>
      </trkpt>
      <trkpt lat="47.57325" lon="6.77858">
        <ele>407.7</ele>
        <time>2017-07-30T08:32:39.999Z</time>
      </trkpt>
      <trkpt lat="47.57328" lon="6.77858">
        <ele>407.5</ele>
        <time>2017-07-30T08:32:40.999Z</time>
      </trkpt>
      <trkpt lat="47.5733" lon="6.77859">
        <ele>407.3</ele>
        <time>2017-07-30T08:32:41.999Z</time>
      </trkpt>
      <trkpt lat="47.57334" lon="6.77862">
        <ele>407.1</ele>
        <time>2017-07-30T08:32:43.999Z</time>
      </trkpt>
      <trkpt lat="47.57335" lon="6.77863">
        <ele>407</ele>
        <time>2017-07-30T08:32:44.999Z</time>
      </trkpt>
      <trkpt lat="47.57339" lon="6.77861">
        <ele>403.2</ele>
        <time>2017-07-30T08:34:03.999Z</time>
      </trkpt>
      <trkpt lat="47.57341" lon="6.77862">
        <ele>402.9</ele>
        <time>2017-07-30T08:34:04.999Z</time>
      </trkpt>
      <trkpt lat="47.57343" lon="6.77863">
        <ele>402.7</ele>
        <time>2017-07-30T08:34:05.999Z</time>
      </trkpt>
      <trkpt lat="47.57345" lon="6.77865">
        <ele>402.6</ele>
        <time>2017-07-30T08:34:06.999Z</time>
      </trkpt>
      <trkpt lat="47.57348" lon="6.77866">
        <ele>402.4</ele>
        <time>2017-07-30T08:34:07.999Z</time>
      </trkpt>
      <trkpt lat="47.57351" lon="6.77869">
        <ele>402.1</ele>
        <time>2017-07-30T08:34:08.999Z</time>
      </trkpt>
      <trkpt lat="47.57354" lon="6.77871">
        <ele>401.9</ele>
        <time>2017-07-30T08:34:09.999Z</time>
      </trkpt>
      <trkpt lat="47.57357" lon="6.77875">
        <ele>400</ele>
        <time>2017-07-30T08:34:10.999Z</time>
      </trkpt>
      <trkpt lat="47.5736" lon="6.77879">
        <ele>399.9</ele>
        <time>2017-07-30T08:34:11.999Z</time>
      </trkpt>
      <trkpt lat="47.57364" lon="6.77881">
        <ele>399.7</ele>
        <time>2017-07-30T08:34:12.999Z</time>
      </trkpt>
      <trkpt lat="47.57368" lon="6.77884">
        <ele>397.9</ele>
        <time>2017-07-30T08:34:13.999Z</time>
      </trkpt>
      <trkpt lat="47.57373" lon="6.77886">
        <ele>395.9</ele>
        <time>2017-07-30T08:34:14.999Z</time>
      </trkpt>
      <trkpt lat="47.57377" lon="6.77888">
        <ele>394.3</ele>
        <time>2017-07-30T08:34:15.999Z</time>
      </trkpt>
      <trkpt lat="47.57381" lon="6.77891">
        <ele>393.9</ele>
        <time>2017-07-30T08:34:16.999Z</time>
      </trkpt>
      <trkpt lat="47.57384" lon="6.77894">
        <ele>393.4</ele>
        <time>2017-07-30T08:34:17.999Z</time>
      </trkpt>
      <trkpt lat="47.57388" lon="6.77898">
        <ele>392.5</ele>
        <time>2017-07-30T08:34:18.999Z</time>
      </trkpt>
      <trkpt lat="47.57391" lon="6.77901">
        <ele>392.2</ele>
        <time>2017-07-30T08:34:19.999Z</time>
      </trkpt>
      <trkpt lat="47.57395" lon="6.77904">
        <ele>391.8</ele>
        <time>2017-07-30T08:34:20.999Z</time>
      </trkpt>
      <trkpt lat="47.57398" lon="6.77909">
        <ele>392.6</ele>
        <time>2017-07-30T08:34:21.999Z</time>
      </trkpt>
      <trkpt lat="47.57401" lon="6.77914">
        <ele>392.7</ele>
        <time>2017-07-30T08:34:22.999Z</time>
      </trkpt>
      <trkpt lat="47.57404" lon="6.77918">
        <ele>392.7</ele>
        <time>2017-07-30T08:34:23.999Z</time>
      </trkpt>
      <trkpt lat="47.57407" lon="6.77922">
        <ele>392.3</ele>
        <time>2017-07-30T08:34:24.999Z</time>
      </trkpt>
      <trkpt lat="47.5741" lon="6.77925">
        <ele>392.3</ele>
        <time>2017-07-30T08:34:25.999Z</time>
      </trkpt>
      <trkpt lat="47.57413" lon="6.77929">
        <ele>392.2</ele>
        <time>2017-07-30T08:34:26.999Z</time>
      </trkpt>
      <trkpt lat="47.57415" lon="6.77935">
        <ele>392.1</ele>
        <time>2017-07-30T08:34:27.999Z</time>
      </trkpt>
      <trkpt lat="47.57417" lon="6.77938">
        <ele>392.1</ele>
        <time>2017-07-30T08:34:28.999Z</time>
      </trkpt>
      <trkpt lat="47.5742" lon="6.77941">
        <ele>391.9</ele>
        <time>2017-07-30T08:34:29.999Z</time>
      </trkpt>
      <trkpt lat="47.57423" lon="6.77944">
        <ele>391.8</ele>
        <time>2017-07-30T08:34:30.999Z</time>
      </trkpt>
      <trkpt lat="47.57426" lon="6.77946">
        <ele>391.8</ele>
        <time>2017-07-30T08:34:31.999Z</time>
      </trkpt>
      <trkpt lat="47.57428" lon="6.7795">
        <ele>391.9</ele>
        <time>2017-07-30T08:34:32.999Z</time>
      </trkpt>
      <trkpt lat="47.57433" lon="6.77956">
        <ele>391.9</ele>
        <time>2017-07-30T08:34:33.999Z</time>
      </trkpt>
      <trkpt lat="47.57436" lon="6.77959">
        <ele>391.9</ele>
        <time>2017-07-30T08:34:34.999Z</time>
      </trkpt>
      <trkpt lat="47.57439" lon="6.77963">
        <ele>391.8</ele>
        <time>2017-07-30T08:34:35.999Z</time>
      </trkpt>
      <trkpt lat="47.57443" lon="6.77965">
        <ele>391.5</ele>
        <time>2017-07-30T08:34:36.999Z</time>
      </trkpt>
      <trkpt lat="47.57447" lon="6.77968">
        <ele>391.9</ele>
        <time>2017-07-30T08:34:37.999Z</time>
      </trkpt>
      <trkpt lat="47.5745" lon="6.7797">
        <ele>391.9</ele>
        <time>2017-07-30T08:34:38.999Z</time>
      </trkpt>
      <trkpt lat="47.57454" lon="6.77973">
        <ele>392.5</ele>
        <time>2017-07-30T08:34:39.999Z</time>
      </trkpt>
      <trkpt lat="47.57459" lon="6.77975">
        <ele>393.3</ele>
        <time>2017-07-30T08:34:40.999Z</time>
      </trkpt>
      <trkpt lat="47.57462" lon="6.77976">
        <ele>393.3</ele>
        <time>2017-07-30T08:34:41.999Z</time>
      </trkpt>
      <trkpt lat="47.57466" lon="6.77978">
        <ele>393.2</ele>
        <time>2017-07-30T08:34:42.999Z</time>
      </trkpt>
      <trkpt lat="47.5747" lon="6.7798">
        <ele>392.8</ele>
        <time>2017-07-30T08:34:43.999Z</time>
      </trkpt>
      <trkpt lat="47.57474" lon="6.77983">
        <ele>392.3</ele>
        <time>2017-07-30T08:34:44.999Z</time>
      </trkpt>
      <trkpt lat="47.57478" lon="6.77985">
        <ele>392.4</ele>
        <time>2017-07-30T08:34:45.999Z</time>
      </trkpt>
      <trkpt lat="47.57481" lon="6.77987">
        <ele>392.4</ele>
        <time>2017-07-30T08:34:46.999Z</time>
      </trkpt>
      <trkpt lat="47.57485" lon="6.77988">
        <ele>393.2</ele>
        <time>2017-07-30T08:34:47.999Z</time>
      </trkpt>
      <trkpt lat="47.57488" lon="6.77989">
        <ele>393.6</ele>
        <time>2017-07-30T08:34:48.999Z</time>
      </trkpt>
      <trkpt lat="47.57492" lon="6.77991">
        <ele>394.5</ele>
        <time>2017-07-30T08:34:49.999Z</time>
      </trkpt>
      <trkpt lat="47.57495" lon="6.77992">
        <ele>395.8</ele>
        <time>2017-07-30T08:34:50.999Z</time>
      </trkpt>
      <trkpt lat="47.57498" lon="6.77992">
        <ele>395.8</ele>
        <time>2017-07-30T08:34:51.999Z</time>
      </trkpt>
      <trkpt lat="47.57501" lon="6.77993">
        <ele>395.9</ele>
        <time>2017-07-30T08:34:52.999Z</time>
      </trkpt>
      <trkpt lat="47.57503" lon="6.77994">
        <ele>395.8</ele>
        <time>2017-07-30T08:34:53.999Z</time>
      </trkpt>
      <trkpt lat="47.57505" lon="6.77995">
        <ele>395.8</ele>
        <time>2017-07-30T08:34:54.999Z</time>
      </trkpt>
      <trkpt lat="47.57507" lon="6.77996">
        <ele>395.9</ele>
        <time>2017-07-30T08:34:55.999Z</time>
      </trkpt>
      <trkpt lat="47.5751" lon="6.77998">
        <ele>395.9</ele>
        <time>2017-07-30T08:34:56.999Z</time>
      </trkpt>
      <trkpt lat="47.57513" lon="6.78">
        <ele>396</ele>
        <time>2017-07-30T08:34:57.999Z</time>
      </trkpt>
      <trkpt lat="47.57518" lon="6.77996">
        <ele>396</ele>
        <time>2017-07-30T08:34:58.999Z</time>
      </trkpt>
      <trkpt lat="47.57523" lon="6.77996">
        <ele>396</ele>
        <time>2017-07-30T08:34:59.999Z</time>
      </trkpt>
      <trkpt lat="47.57527" lon="6.77998">
        <ele>396.1</ele>
        <time>2017-07-30T08:35:00.999Z</time>
      </trkpt>
      <trkpt lat="47.57531" lon="6.78001">
        <ele>396.2</ele>
        <time>2017-07-30T08:35:01.999Z</time>
      </trkpt>
      <trkpt lat="47.57535" lon="6.78004">
        <ele>396.4</ele>
        <time>2017-07-30T08:35:02.999Z</time>
      </trkpt>
      <trkpt lat="47.57539" lon="6.78006">
        <ele>396.5</ele>
        <time>2017-07-30T08:35:03.999Z</time>
      </trkpt>
      <trkpt lat="47.57543" lon="6.78007">
        <ele>396.8</ele>
        <time>2017-07-30T08:35:04.999Z</time>
      </trkpt>
      <trkpt lat="47.57546" lon="6.78009">
        <ele>396.9</ele>
        <time>2017-07-30T08:35:05.999Z</time>
      </trkpt>
      <trkpt lat="47.57549" lon="6.78012">
        <ele>397</ele>
        <time>2017-07-30T08:35:06.999Z</time>
      </trkpt>
      <trkpt lat="47.57552" lon="6.78015">
        <ele>397.1</ele>
        <time>2017-07-30T08:35:07.999Z</time>
      </trkpt>
      <trkpt lat="47.57556" lon="6.78017">
        <ele>397.1</ele>
        <time>2017-07-30T08:35:08.999Z</time>
      </trkpt>
      <trkpt lat="47.5756" lon="6.7802">
        <ele>397.1</ele>
        <time>2017-07-30T08:35:09.999Z</time>
      </trkpt>
      <trkpt lat="47.57563" lon="6.78024">
        <ele>397.1</ele>
        <time>2017-07-30T08:35:10.999Z</time>
      </trkpt>
      <trkpt lat="47.57566" lon="6.78028">
        <ele>397</ele>
        <time>2017-07-30T08:35:11.999Z</time>
      </trkpt>
      <trkpt lat="47.57569" lon="6.78031">
        <ele>397</ele>
        <time>2017-07-30T08:35:12.999Z</time>
      </trkpt>
      <trkpt lat="47.57572" lon="6.78035">
        <ele>397</ele>
        <time>2017-07-30T08:35:13.999Z</time>
      </trkpt>
      <trkpt lat="47.57574" lon="6.78039">
        <ele>397</ele>
        <time>2017-07-30T08:35:14.999Z</time>
      </trkpt>
      <trkpt lat="47.57577" lon="6.78041">
        <ele>396.9</ele>
        <time>2017-07-30T08:35:15.999Z</time>
      </trkpt>
      <trkpt lat="47.57579" lon="6.78044">
        <ele>396.9</ele>
        <time>2017-07-30T08:35:16.999Z</time>
      </trkpt>
      <trkpt lat="47.5758" lon="6.78048">
        <ele>396.9</ele>
        <time>2017-07-30T08:35:17.999Z</time>
      </trkpt>
      <trkpt lat="47.57585" lon="6.78052">
        <ele>396.8</ele>
        <time>2017-07-30T08:35:18.999Z</time>
      </trkpt>
      <trkpt lat="47.57587" lon="6.78055">
        <ele>396.8</ele>
        <time>2017-07-30T08:35:19.999Z</time>
      </trkpt>
      <trkpt lat="47.5759" lon="6.78057">
        <ele>396.7</ele>
        <time>2017-07-30T08:35:20.999Z</time>
      </trkpt>
      <trkpt lat="47.57592" lon="6.78058">
        <ele>396.6</ele>
        <time>2017-07-30T08:35:21.999Z</time>
      </trkpt>
      <trkpt lat="47.57595" lon="6.78059">
        <ele>396.6</ele>
        <time>2017-07-30T08:35:22.999Z</time>
      </trkpt>
      <trkpt lat="47.57597" lon="6.78059">
        <ele>396.7</ele>
        <time>2017-07-30T08:35:23.999Z</time>
      </trkpt>
      <trkpt lat="47.57599" lon="6.7806">
        <ele>396.9</ele>
        <time>2017-07-30T08:35:24.999Z</time>
      </trkpt>
      <trkpt lat="47.57603" lon="6.78061">
        <ele>397</ele>
        <time>2017-07-30T08:35:25.999Z</time>
      </trkpt>
      <trkpt lat="47.57606" lon="6.78061">
        <ele>397.3</ele>
        <time>2017-07-30T08:35:26.999Z</time>
      </trkpt>
      <trkpt lat="47.57609" lon="6.78062">
        <ele>397.5</ele>
        <time>2017-07-30T08:35:27.999Z</time>
      </trkpt>
      <trkpt lat="47.57613" lon="6.78062">
        <ele>397.7</ele>
        <time>2017-07-30T08:35:28.999Z</time>
      </trkpt>
      <trkpt lat="47.57617" lon="6.78063">
        <ele>397.9</ele>
        <time>2017-07-30T08:35:29.999Z</time>
      </trkpt>
      <trkpt lat="47.57621" lon="6.78064">
        <ele>398.1</ele>
        <time>2017-07-30T08:35:30.999Z</time>
      </trkpt>
      <trkpt lat="47.57625" lon="6.78066">
        <ele>399.4</ele>
        <time>2017-07-30T08:35:31.999Z</time>
      </trkpt>
      <trkpt lat="47.57629" lon="6.78068">
        <ele>400.4</ele>
        <time>2017-07-30T08:35:32.999Z</time>
      </trkpt>
      <trkpt lat="47.57633" lon="6.7807">
        <ele>401.5</ele>
        <time>2017-07-30T08:35:33.999Z</time>
      </trkpt>
      <trkpt lat="47.57637" lon="6.78071">
        <ele>401.7</ele>
        <time>2017-07-30T08:35:34.999Z</time>
      </trkpt>
      <trkpt lat="47.57642" lon="6.78073">
        <ele>402.7</ele>
        <time>2017-07-30T08:35:35.999Z</time>
      </trkpt>
      <trkpt lat="47.57646" lon="6.78074">
        <ele>403</ele>
        <time>2017-07-30T08:35:36.999Z</time>
      </trkpt>
      <trkpt lat="47.5765" lon="6.78077">
        <ele>403.9</ele>
        <time>2017-07-30T08:35:37.999Z</time>
      </trkpt>
      <trkpt lat="47.57654" lon="6.78079">
        <ele>404</ele>
        <time>2017-07-30T08:35:38.999Z</time>
      </trkpt>
      <trkpt lat="47.57658" lon="6.78082">
        <ele>404.1</ele>
        <time>2017-07-30T08:35:39.999Z</time>
      </trkpt>
      <trkpt lat="47.57662" lon="6.78086">
        <ele>403.4</ele>
        <time>2017-07-30T08:35:40.999Z</time>
      </trkpt>
      <trkpt lat="47.57666" lon="6.78089">
        <ele>402.9</ele>
        <time>2017-07-30T08:35:41.999Z</time>
      </trkpt>
      <trkpt lat="47.5767" lon="6.78091">
        <ele>403.1</ele>
        <time>2017-07-30T08:35:42.999Z</time>
      </trkpt>
      <trkpt lat="47.57675" lon="6.78094">
        <ele>403.2</ele>
        <time>2017-07-30T08:35:43.999Z</time>
      </trkpt>
      <trkpt lat="47.57679" lon="6.78097">
        <ele>403.2</ele>
        <time>2017-07-30T08:35:44.999Z</time>
      </trkpt>
      <trkpt lat="47.57683" lon="6.781">
        <ele>402.8</ele>
        <time>2017-07-30T08:35:45.999Z</time>
      </trkpt>
      <trkpt lat="47.57687" lon="6.78102">
        <ele>402.7</ele>
        <time>2017-07-30T08:35:46.999Z</time>
      </trkpt>
      <trkpt lat="47.5769" lon="6.78106">
        <ele>402.8</ele>
        <time>2017-07-30T08:35:47.999Z</time>
      </trkpt>
      <trkpt lat="47.57693" lon="6.7811">
        <ele>402.7</ele>
        <time>2017-07-30T08:35:48.999Z</time>
      </trkpt>
      <trkpt lat="47.57696" lon="6.78113">
        <ele>402.7</ele>
        <time>2017-07-30T08:35:49.999Z</time>
      </trkpt>
      <trkpt lat="47.57699" lon="6.78116">
        <ele>402.6</ele>
        <time>2017-07-30T08:35:50.999Z</time>
      </trkpt>
      <trkpt lat="47.57702" lon="6.7812">
        <ele>402.4</ele>
        <time>2017-07-30T08:35:51.999Z</time>
      </trkpt>
      <trkpt lat="47.57704" lon="6.78123">
        <ele>402.3</ele>
        <time>2017-07-30T08:35:52.999Z</time>
      </trkpt>
      <trkpt lat="47.57706" lon="6.78126">
        <ele>402.1</ele>
        <time>2017-07-30T08:35:53.999Z</time>
      </trkpt>
      <trkpt lat="47.57709" lon="6.78128">
        <ele>402</ele>
        <time>2017-07-30T08:35:54.999Z</time>
      </trkpt>
      <trkpt lat="47.57711" lon="6.7813">
        <ele>401.8</ele>
        <time>2017-07-30T08:35:55.999Z</time>
      </trkpt>
      <trkpt lat="47.57714" lon="6.78132">
        <ele>401.7</ele>
        <time>2017-07-30T08:35:56.999Z</time>
      </trkpt>
      <trkpt lat="47.57719" lon="6.78137">
        <ele>401.4</ele>
        <time>2017-07-30T08:35:57.999Z</time>
      </trkpt>
      <trkpt lat="47.57722" lon="6.78142">
        <ele>401.2</ele>
        <time>2017-07-30T08:35:58.999Z</time>
      </trkpt>
      <trkpt lat="47.57724" lon="6.78145">
        <ele>400.9</ele>
        <time>2017-07-30T08:35:59.999Z</time>
      </trkpt>
      <trkpt lat="47.57727" lon="6.7815">
        <ele>400.8</ele>
        <time>2017-07-30T08:36:00.999Z</time>
      </trkpt>
      <trkpt lat="47.57729" lon="6.78155">
        <ele>400.7</ele>
        <time>2017-07-30T08:36:01.999Z</time>
      </trkpt>
      <trkpt lat="47.57732" lon="6.78158">
        <ele>400.6</ele>
        <time>2017-07-30T08:36:02.999Z</time>
      </trkpt>
      <trkpt lat="47.57735" lon="6.7816">
        <ele>400.4</ele>
        <time>2017-07-30T08:36:03.999Z</time>
      </trkpt>
      <trkpt lat="47.57738" lon="6.78162">
        <ele>400.4</ele>
        <time>2017-07-30T08:36:04.999Z</time>
      </trkpt>
      <trkpt lat="47.5774" lon="6.78165">
        <ele>400.2</ele>
        <time>2017-07-30T08:36:05.999Z</time>
      </trkpt>
      <trkpt lat="47.57741" lon="6.78167">
        <ele>400.1</ele>
        <time>2017-07-30T08:36:06.999Z</time>
      </trkpt>
      <trkpt lat="47.57743" lon="6.78169">
        <ele>400</ele>
        <time>2017-07-30T08:36:07.999Z</time>
      </trkpt>
      <trkpt lat="47.57747" lon="6.78171">
        <ele>399.9</ele>
        <time>2017-07-30T08:36:09.999Z</time>
      </trkpt>
      <trkpt lat="47.57749" lon="6.78172">
        <ele>400</ele>
        <time>2017-07-30T08:36:10.999Z</time>
      </trkpt>
      <trkpt lat="47.57753" lon="6.78176">
        <ele>400</ele>
        <time>2017-07-30T08:36:12.999Z</time>
      </trkpt>
      <trkpt lat="47.57756" lon="6.7818">
        <ele>400</ele>
        <time>2017-07-30T08:36:13.999Z</time>
      </trkpt>
      <trkpt lat="47.57758" lon="6.78182">
        <ele>399.9</ele>
        <time>2017-07-30T08:36:14.999Z</time>
      </trkpt>
      <trkpt lat="47.57761" lon="6.78184">
        <ele>399.8</ele>
        <time>2017-07-30T08:36:15.999Z</time>
      </trkpt>
      <trkpt lat="47.57764" lon="6.78187">
        <ele>399.8</ele>
        <time>2017-07-30T08:36:16.999Z</time>
      </trkpt>
      <trkpt lat="47.57767" lon="6.78189">
        <ele>399.7</ele>
        <time>2017-07-30T08:36:17.999Z</time>
      </trkpt>
      <trkpt lat="47.5777" lon="6.78191">
        <ele>399.7</ele>
        <time>2017-07-30T08:36:18.999Z</time>
      </trkpt>
      <trkpt lat="47.57773" lon="6.78193">
        <ele>399.6</ele>
        <time>2017-07-30T08:36:19.999Z</time>
      </trkpt>
      <trkpt lat="47.57776" lon="6.78195">
        <ele>399.6</ele>
        <time>2017-07-30T08:36:20.999Z</time>
      </trkpt>
      <trkpt lat="47.57779" lon="6.78196">
        <ele>399.6</ele>
        <time>2017-07-30T08:36:21.999Z</time>
      </trkpt>
      <trkpt lat="47.57781" lon="6.78198">
        <ele>399.6</ele>
        <time>2017-07-30T08:36:22.999Z</time>
      </trkpt>
      <trkpt lat="47.57784" lon="6.782">
        <ele>399.6</ele>
        <time>2017-07-30T08:36:23.999Z</time>
      </trkpt>
      <trkpt lat="47.57787" lon="6.78202">
        <ele>399.5</ele>
        <time>2017-07-30T08:36:24.999Z</time>
      </trkpt>
      <trkpt lat="47.5779" lon="6.78204">
        <ele>399.6</ele>
        <time>2017-07-30T08:36:25.999Z</time>
      </trkpt>
      <trkpt lat="47.57792" lon="6.78206">
        <ele>399.6</ele>
        <time>2017-07-30T08:36:26.999Z</time>
      </trkpt>
      <trkpt lat="47.57794" lon="6.78208">
        <ele>399.7</ele>
        <time>2017-07-30T08:36:27.999Z</time>
      </trkpt>
      <trkpt lat="47.57795" lon="6.7821">
        <ele>399.7</ele>
        <time>2017-07-30T08:36:28.999Z</time>
      </trkpt>
      <trkpt lat="47.57798" lon="6.78211">
        <ele>399.8</ele>
        <time>2017-07-30T08:36:29.999Z</time>
      </trkpt>
      <trkpt lat="47.57801" lon="6.78214">
        <ele>400</ele>
        <time>2017-07-30T08:36:31.999Z</time>
      </trkpt>
      <trkpt lat="47.57804" lon="6.78215">
        <ele>400</ele>
        <time>2017-07-30T08:36:32.999Z</time>
      </trkpt>
      <trkpt lat="47.57806" lon="6.78216">
        <ele>400.1</ele>
        <time>2017-07-30T08:36:33.999Z</time>
      </trkpt>
      <trkpt lat="47.57809" lon="6.78217">
        <ele>400.2</ele>
        <time>2017-07-30T08:36:34.999Z</time>
      </trkpt>
      <trkpt lat="47.57811" lon="6.78217">
        <ele>400.3</ele>
        <time>2017-07-30T08:36:35.999Z</time>
      </trkpt>
      <trkpt lat="47.57814" lon="6.78218">
        <ele>400.3</ele>
        <time>2017-07-30T08:36:36.999Z</time>
      </trkpt>
      <trkpt lat="47.57817" lon="6.78219">
        <ele>400.4</ele>
        <time>2017-07-30T08:36:37.999Z</time>
      </trkpt>
      <trkpt lat="47.57821" lon="6.78221">
        <ele>400.6</ele>
        <time>2017-07-30T08:36:38.999Z</time>
      </trkpt>
      <trkpt lat="47.57824" lon="6.78223">
        <ele>400.6</ele>
        <time>2017-07-30T08:36:39.999Z</time>
      </trkpt>
      <trkpt lat="47.57827" lon="6.78225">
        <ele>400.7</ele>
        <time>2017-07-30T08:36:40.999Z</time>
      </trkpt>
      <trkpt lat="47.5783" lon="6.78228">
        <ele>400.8</ele>
        <time>2017-07-30T08:36:41.999Z</time>
      </trkpt>
      <trkpt lat="47.57833" lon="6.78231">
        <ele>400.9</ele>
        <time>2017-07-30T08:36:42.999Z</time>
      </trkpt>
      <trkpt lat="47.57836" lon="6.78233">
        <ele>401</ele>
        <time>2017-07-30T08:36:43.999Z</time>
      </trkpt>
      <trkpt lat="47.57839" lon="6.78235">
        <ele>401.1</ele>
        <time>2017-07-30T08:36:44.999Z</time>
      </trkpt>
      <trkpt lat="47.57843" lon="6.78239">
        <ele>401.2</ele>
        <time>2017-07-30T08:36:45.999Z</time>
      </trkpt>
      <trkpt lat="47.57848" lon="6.78242">
        <ele>401.2</ele>
        <time>2017-07-30T08:36:46.999Z</time>
      </trkpt>
      <trkpt lat="47.57851" lon="6.78245">
        <ele>401.3</ele>
        <time>2017-07-30T08:36:47.999Z</time>
      </trkpt>
      <trkpt lat="47.57855" lon="6.78249">
        <ele>401.3</ele>
        <time>2017-07-30T08:36:48.999Z</time>
      </trkpt>
      <trkpt lat="47.57859" lon="6.78252">
        <ele>401.4</ele>
        <time>2017-07-30T08:36:49.999Z</time>
      </trkpt>
      <trkpt lat="47.57861" lon="6.78254">
        <ele>401.3</ele>
        <time>2017-07-30T08:36:50.999Z</time>
      </trkpt>
      <trkpt lat="47.57864" lon="6.78256">
        <ele>401.4</ele>
        <time>2017-07-30T08:36:51.999Z</time>
      </trkpt>
      <trkpt lat="47.57868" lon="6.78261">
        <ele>401.4</ele>
        <time>2017-07-30T08:36:52.999Z</time>
      </trkpt>
      <trkpt lat="47.57872" lon="6.78264">
        <ele>401.4</ele>
        <time>2017-07-30T08:36:53.999Z</time>
      </trkpt>
      <trkpt lat="47.57875" lon="6.78267">
        <ele>401.4</ele>
        <time>2017-07-30T08:36:54.999Z</time>
      </trkpt>
      <trkpt lat="47.57878" lon="6.78268">
        <ele>401.5</ele>
        <time>2017-07-30T08:36:55.999Z</time>
      </trkpt>
      <trkpt lat="47.5788" lon="6.7827">
        <ele>401.5</ele>
        <time>2017-07-30T08:36:56.999Z</time>
      </trkpt>
      <trkpt lat="47.57883" lon="6.78271">
        <ele>401.6</ele>
        <time>2017-07-30T08:36:57.999Z</time>
      </trkpt>
      <trkpt lat="47.57885" lon="6.78272">
        <ele>401.7</ele>
        <time>2017-07-30T08:36:58.999Z</time>
      </trkpt>
      <trkpt lat="47.57888" lon="6.78274">
        <ele>401.8</ele>
        <time>2017-07-30T08:36:59.999Z</time>
      </trkpt>
      <trkpt lat="47.57891" lon="6.78277">
        <ele>401.9</ele>
        <time>2017-07-30T08:37:00.999Z</time>
      </trkpt>
      <trkpt lat="47.57893" lon="6.7828">
        <ele>402</ele>
        <time>2017-07-30T08:37:01.999Z</time>
      </trkpt>
      <trkpt lat="47.57895" lon="6.78281">
        <ele>402.1</ele>
        <time>2017-07-30T08:37:02.999Z</time>
      </trkpt>
      <trkpt lat="47.57898" lon="6.78284">
        <ele>402</ele>
        <time>2017-07-30T08:37:03.999Z</time>
      </trkpt>
      <trkpt lat="47.57901" lon="6.78287">
        <ele>402</ele>
        <time>2017-07-30T08:37:04.999Z</time>
      </trkpt>
      <trkpt lat="47.57902" lon="6.7829">
        <ele>402</ele>
        <time>2017-07-30T08:37:05.999Z</time>
      </trkpt>
      <trkpt lat="47.57905" lon="6.78294">
        <ele>401.9</ele>
        <time>2017-07-30T08:37:06.999Z</time>
      </trkpt>
      <trkpt lat="47.57907" lon="6.78296">
        <ele>401.9</ele>
        <time>2017-07-30T08:37:07.999Z</time>
      </trkpt>
      <trkpt lat="47.5791" lon="6.78297">
        <ele>402</ele>
        <time>2017-07-30T08:37:09.999Z</time>
      </trkpt>
      <trkpt lat="47.57912" lon="6.783">
        <ele>401.9</ele>
        <time>2017-07-30T08:37:10.999Z</time>
      </trkpt>
      <trkpt lat="47.57909" lon="6.78302">
        <ele>401</ele>
        <time>2017-07-30T08:37:23.999Z</time>
      </trkpt>
      <trkpt lat="47.57908" lon="6.78302">
        <ele>400.9</ele>
        <time>2017-07-30T08:37:24.999Z</time>
      </trkpt>
      <trkpt lat="47.57904" lon="6.783">
        <ele>400.6</ele>
        <time>2017-07-30T08:37:30.999Z</time>
      </trkpt>
      <trkpt lat="47.57904" lon="6.78297">
        <ele>400.6</ele>
        <time>2017-07-30T08:37:31.999Z</time>
      </trkpt>
      <trkpt lat="47.57903" lon="6.78294">
        <ele>400.5</ele>
        <time>2017-07-30T08:37:32.999Z</time>
      </trkpt>
      <trkpt lat="47.57903" lon="6.78289">
        <ele>400.5</ele>
        <time>2017-07-30T08:37:33.999Z</time>
      </trkpt>
      <trkpt lat="47.57902" lon="6.78286">
        <ele>400.4</ele>
        <time>2017-07-30T08:37:34.999Z</time>
      </trkpt>
      <trkpt lat="47.57901" lon="6.78283">
        <ele>400.4</ele>
        <time>2017-07-30T08:37:35.999Z</time>
      </trkpt>
      <trkpt lat="47.57902" lon="6.78277">
        <ele>400.3</ele>
        <time>2017-07-30T08:37:38.999Z</time>
      </trkpt>
      <trkpt lat="47.579" lon="6.78274">
        <ele>400.3</ele>
        <time>2017-07-30T08:37:39.999Z</time>
      </trkpt>
      <trkpt lat="47.57901" lon="6.78268">
        <ele>398.7</ele>
        <time>2017-07-30T08:37:52.999Z</time>
      </trkpt>
      <trkpt lat="47.57901" lon="6.78266">
        <ele>398.4</ele>
        <time>2017-07-30T08:37:53.999Z</time>
      </trkpt>
      <trkpt lat="47.57898" lon="6.78262">
        <ele>397</ele>
        <time>2017-07-30T08:37:58.999Z</time>
      </trkpt>
      <trkpt lat="47.57897" lon="6.78261">
        <ele>396.7</ele>
        <time>2017-07-30T08:37:59.999Z</time>
      </trkpt>
      <trkpt lat="47.57897" lon="6.78255">
        <ele>395.6</ele>
        <time>2017-07-30T08:38:03.999Z</time>
      </trkpt>
      <trkpt lat="47.57896" lon="6.78254">
        <ele>395.3</ele>
        <time>2017-07-30T08:38:04.999Z</time>
      </trkpt>
      <trkpt lat="47.57894" lon="6.78249">
        <ele>395.1</ele>
        <time>2017-07-30T08:38:06.999Z</time>
      </trkpt>
      <trkpt lat="47.57892" lon="6.78247">
        <ele>395</ele>
        <time>2017-07-30T08:38:07.999Z</time>
      </trkpt>
      <trkpt lat="47.57891" lon="6.78243">
        <ele>394.9</ele>
        <time>2017-07-30T08:38:08.999Z</time>
      </trkpt>
      <trkpt lat="47.57891" lon="6.78238">
        <ele>394.8</ele>
        <time>2017-07-30T08:38:09.999Z</time>
      </trkpt>
      <trkpt lat="47.57892" lon="6.78233">
        <ele>394.7</ele>
        <time>2017-07-30T08:38:10.999Z</time>
      </trkpt>
      <trkpt lat="47.57892" lon="6.78229">
        <ele>394.5</ele>
        <time>2017-07-30T08:38:11.999Z</time>
      </trkpt>
      <trkpt lat="47.57892" lon="6.78224">
        <ele>394.4</ele>
        <time>2017-07-30T08:38:12.999Z</time>
      </trkpt>
      <trkpt lat="47.57892" lon="6.78221">
        <ele>394.3</ele>
        <time>2017-07-30T08:38:13.999Z</time>
      </trkpt>
      <trkpt lat="47.57893" lon="6.78218">
        <ele>394.2</ele>
        <time>2017-07-30T08:38:14.999Z</time>
      </trkpt>
      <trkpt lat="47.57895" lon="6.78215">
        <ele>394</ele>
        <time>2017-07-30T08:38:15.999Z</time>
      </trkpt>
      <trkpt lat="47.57896" lon="6.78211">
        <ele>393.9</ele>
        <time>2017-07-30T08:38:16.999Z</time>
      </trkpt>
      <trkpt lat="47.57897" lon="6.78208">
        <ele>393.7</ele>
        <time>2017-07-30T08:38:17.999Z</time>
      </trkpt>
      <trkpt lat="47.57899" lon="6.78202">
        <ele>393.4</ele>
        <time>2017-07-30T08:38:19.999Z</time>
      </trkpt>
      <trkpt lat="47.57898" lon="6.782">
        <ele>393.2</ele>
        <time>2017-07-30T08:38:20.999Z</time>
      </trkpt>
      <trkpt lat="47.57899" lon="6.78194">
        <ele>392.4</ele>
        <time>2017-07-30T08:38:23.999Z</time>
      </trkpt>
      <trkpt lat="47.57899" lon="6.78193">
        <ele>392</ele>
        <time>2017-07-30T08:38:24.999Z</time>
      </trkpt>
      <trkpt lat="47.57902" lon="6.78187">
        <ele>388.9</ele>
        <time>2017-07-30T08:38:37.999Z</time>
      </trkpt>
      <trkpt lat="47.57904" lon="6.78184">
        <ele>388.3</ele>
        <time>2017-07-30T08:38:38.999Z</time>
      </trkpt>
      <trkpt lat="47.57905" lon="6.78181">
        <ele>387</ele>
        <time>2017-07-30T08:38:40.999Z</time>
      </trkpt>
      <trkpt lat="47.57906" lon="6.78178">
        <ele>386.6</ele>
        <time>2017-07-30T08:38:41.999Z</time>
      </trkpt>
      <trkpt lat="47.57907" lon="6.78173">
        <ele>386.2</ele>
        <time>2017-07-30T08:38:42.999Z</time>
      </trkpt>
      <trkpt lat="47.57908" lon="6.78169">
        <ele>385.9</ele>
        <time>2017-07-30T08:38:43.999Z</time>
      </trkpt>
      <trkpt lat="47.5791" lon="6.78164">
        <ele>385.4</ele>
        <time>2017-07-30T08:38:45.999Z</time>
      </trkpt>
      <trkpt lat="47.57911" lon="6.7816">
        <ele>385.2</ele>
        <time>2017-07-30T08:38:46.999Z</time>
      </trkpt>
      <trkpt lat="47.57913" lon="6.78155">
        <ele>384.7</ele>
        <time>2017-07-30T08:38:48.999Z</time>
      </trkpt>
      <trkpt lat="47.57914" lon="6.78153">
        <ele>384.5</ele>
        <time>2017-07-30T08:38:49.999Z</time>
      </trkpt>
      <trkpt lat="47.57916" lon="6.78148">
        <ele>384.2</ele>
        <time>2017-07-30T08:38:51.999Z</time>
      </trkpt>
      <trkpt lat="47.57918" lon="6.78146">
        <ele>383.9</ele>
        <time>2017-07-30T08:38:52.999Z</time>
      </trkpt>
      <trkpt lat="47.5792" lon="6.78142">
        <ele>383.6</ele>
        <time>2017-07-30T08:38:53.999Z</time>
      </trkpt>
      <trkpt lat="47.5792" lon="6.78136">
        <ele>383.4</ele>
        <time>2017-07-30T08:38:54.999Z</time>
      </trkpt>
      <trkpt lat="47.57923" lon="6.78132">
        <ele>382.6</ele>
        <time>2017-07-30T08:38:56.999Z</time>
      </trkpt>
      <trkpt lat="47.57923" lon="6.7813">
        <ele>382.3</ele>
        <time>2017-07-30T08:38:57.999Z</time>
      </trkpt>
      <trkpt lat="47.57924" lon="6.78127">
        <ele>381.5</ele>
        <time>2017-07-30T08:38:59.999Z</time>
      </trkpt>
      <trkpt lat="47.57926" lon="6.78123">
        <ele>381.1</ele>
        <time>2017-07-30T08:39:00.999Z</time>
      </trkpt>
      <trkpt lat="47.57928" lon="6.78117">
        <ele>378.9</ele>
        <time>2017-07-30T08:39:26.999Z</time>
      </trkpt>
      <trkpt lat="47.5793" lon="6.78116">
        <ele>378.7</ele>
        <time>2017-07-30T08:39:27.999Z</time>
      </trkpt>
      <trkpt lat="47.57934" lon="6.78113">
        <ele>378.4</ele>
        <time>2017-07-30T08:39:28.999Z</time>
      </trkpt>
      <trkpt lat="47.57936" lon="6.78112">
        <ele>378.1</ele>
        <time>2017-07-30T08:39:29.999Z</time>
      </trkpt>
      <trkpt lat="47.57941" lon="6.78109">
        <ele>377.8</ele>
        <time>2017-07-30T08:39:30.999Z</time>
      </trkpt>
      <trkpt lat="47.57946" lon="6.78106">
        <ele>377.6</ele>
        <time>2017-07-30T08:39:31.999Z</time>
      </trkpt>
      <trkpt lat="47.5795" lon="6.78105">
        <ele>377.5</ele>
        <time>2017-07-30T08:39:32.999Z</time>
      </trkpt>
      <trkpt lat="47.57953" lon="6.78104">
        <ele>377.5</ele>
        <time>2017-07-30T08:39:33.999Z</time>
      </trkpt>
      <trkpt lat="47.5795" lon="6.78101">
        <ele>377.4</ele>
        <time>2017-07-30T08:39:44.999Z</time>
      </trkpt>
      <trkpt lat="47.57949" lon="6.78101">
        <ele>377.3</ele>
        <time>2017-07-30T08:39:45.999Z</time>
      </trkpt>
      <trkpt lat="47.57946" lon="6.78097">
        <ele>377.5</ele>
        <time>2017-07-30T08:39:53.999Z</time>
      </trkpt>
      <trkpt lat="47.57946" lon="6.78096">
        <ele>377.7</ele>
        <time>2017-07-30T08:39:54.999Z</time>
      </trkpt>
      <trkpt lat="47.57944" lon="6.78092">
        <ele>378.3</ele>
        <time>2017-07-30T08:39:57.999Z</time>
      </trkpt>
      <trkpt lat="47.57943" lon="6.78089">
        <ele>378.8</ele>
        <time>2017-07-30T08:39:58.999Z</time>
      </trkpt>
      <trkpt lat="47.5794" lon="6.78084">
        <ele>380.7</ele>
        <time>2017-07-30T08:40:02.999Z</time>
      </trkpt>
      <trkpt lat="47.57939" lon="6.78083">
        <ele>381.1</ele>
        <time>2017-07-30T08:40:03.999Z</time>
      </trkpt>
      <trkpt lat="47.57935" lon="6.78081">
        <ele>382.3</ele>
        <time>2017-07-30T08:40:06.999Z</time>
      </trkpt>
      <trkpt lat="47.57933" lon="6.78078">
        <ele>382.6</ele>
        <time>2017-07-30T08:40:07.999Z</time>
      </trkpt>
      <trkpt lat="47.57931" lon="6.78073">
        <ele>383.4</ele>
        <time>2017-07-30T08:40:09.999Z</time>
      </trkpt>
      <trkpt lat="47.5793" lon="6.7807">
        <ele>383.8</ele>
        <time>2017-07-30T08:40:10.999Z</time>
      </trkpt>
      <trkpt lat="47.57926" lon="6.78066">
        <ele>384.3</ele>
        <time>2017-07-30T08:40:12.999Z</time>
      </trkpt>
      <trkpt lat="47.57924" lon="6.78064">
        <ele>384.6</ele>
        <time>2017-07-30T08:40:13.999Z</time>
      </trkpt>
      <trkpt lat="47.57923" lon="6.78061">
        <ele>385</ele>
        <time>2017-07-30T08:40:14.999Z</time>
      </trkpt>
      <trkpt lat="47.57918" lon="6.78058">
        <ele>385.2</ele>
        <time>2017-07-30T08:40:15.999Z</time>
      </trkpt>
      <trkpt lat="47.57915" lon="6.78054">
        <ele>385.9</ele>
        <time>2017-07-30T08:40:17.999Z</time>
      </trkpt>
      <trkpt lat="47.57913" lon="6.78051">
        <ele>386.1</ele>
        <time>2017-07-30T08:40:18.999Z</time>
      </trkpt>
      <trkpt lat="47.57911" lon="6.78049">
        <ele>386.3</ele>
        <time>2017-07-30T08:40:19.999Z</time>
      </trkpt>
      <trkpt lat="47.57909" lon="6.78046">
        <ele>386.5</ele>
        <time>2017-07-30T08:40:20.999Z</time>
      </trkpt>
      <trkpt lat="47.57908" lon="6.7804">
        <ele>386.7</ele>
        <time>2017-07-30T08:40:21.999Z</time>
      </trkpt>
      <trkpt lat="47.57906" lon="6.78036">
        <ele>387</ele>
        <time>2017-07-30T08:40:22.999Z</time>
      </trkpt>
      <trkpt lat="47.57903" lon="6.78032">
        <ele>387.3</ele>
        <time>2017-07-30T08:40:23.999Z</time>
      </trkpt>
      <trkpt lat="47.57901" lon="6.78029">
        <ele>387.6</ele>
        <time>2017-07-30T08:40:24.999Z</time>
      </trkpt>
      <trkpt lat="47.57899" lon="6.78026">
        <ele>387.8</ele>
        <time>2017-07-30T08:40:25.999Z</time>
      </trkpt>
      <trkpt lat="47.57895" lon="6.78023">
        <ele>388.1</ele>
        <time>2017-07-30T08:40:26.999Z</time>
      </trkpt>
      <trkpt lat="47.57893" lon="6.78019">
        <ele>388.3</ele>
        <time>2017-07-30T08:40:27.999Z</time>
      </trkpt>
      <trkpt lat="47.5789" lon="6.78016">
        <ele>388.6</ele>
        <time>2017-07-30T08:40:28.999Z</time>
      </trkpt>
      <trkpt lat="47.57888" lon="6.78013">
        <ele>389.3</ele>
        <time>2017-07-30T08:40:30.999Z</time>
      </trkpt>
      <trkpt lat="47.57887" lon="6.78011">
        <ele>389.8</ele>
        <time>2017-07-30T08:40:31.999Z</time>
      </trkpt>
      <trkpt lat="47.57887" lon="6.78006">
        <ele>390.2</ele>
        <time>2017-07-30T08:40:32.999Z</time>
      </trkpt>
      <trkpt lat="47.57887" lon="6.77999">
        <ele>390.7</ele>
        <time>2017-07-30T08:40:33.999Z</time>
      </trkpt>
      <trkpt lat="47.5789" lon="6.77995">
        <ele>391.2</ele>
        <time>2017-07-30T08:40:34.999Z</time>
      </trkpt>
      <trkpt lat="47.57889" lon="6.7799">
        <ele>391.5</ele>
        <time>2017-07-30T08:40:35.999Z</time>
      </trkpt>
      <trkpt lat="47.57887" lon="6.77987">
        <ele>391.9</ele>
        <time>2017-07-30T08:40:36.999Z</time>
      </trkpt>
      <trkpt lat="47.57886" lon="6.77985">
        <ele>392.3</ele>
        <time>2017-07-30T08:40:37.999Z</time>
      </trkpt>
      <trkpt lat="47.57883" lon="6.77982">
        <ele>392.8</ele>
        <time>2017-07-30T08:40:39.999Z</time>
      </trkpt>
      <trkpt lat="47.57882" lon="6.77978">
        <ele>393.1</ele>
        <time>2017-07-30T08:40:40.999Z</time>
      </trkpt>
      <trkpt lat="47.57881" lon="6.77972">
        <ele>393.7</ele>
        <time>2017-07-30T08:40:43.999Z</time>
      </trkpt>
      <trkpt lat="47.5788" lon="6.77971">
        <ele>394</ele>
        <time>2017-07-30T08:40:44.999Z</time>
      </trkpt>
      <trkpt lat="47.57878" lon="6.77968">
        <ele>394.2</ele>
        <time>2017-07-30T08:40:45.999Z</time>
      </trkpt>
      <trkpt lat="47.57875" lon="6.77966">
        <ele>394.5</ele>
        <time>2017-07-30T08:40:46.999Z</time>
      </trkpt>
      <trkpt lat="47.57872" lon="6.77964">
        <ele>394.8</ele>
        <time>2017-07-30T08:40:47.999Z</time>
      </trkpt>
      <trkpt lat="47.57869" lon="6.77963">
        <ele>395.1</ele>
        <time>2017-07-30T08:40:48.999Z</time>
      </trkpt>
      <trkpt lat="47.57867" lon="6.77961">
        <ele>395.4</ele>
        <time>2017-07-30T08:40:49.999Z</time>
      </trkpt>
      <trkpt lat="47.57865" lon="6.7796">
        <ele>395.6</ele>
        <time>2017-07-30T08:40:50.999Z</time>
      </trkpt>
      <trkpt lat="47.57862" lon="6.77957">
        <ele>396.1</ele>
        <time>2017-07-30T08:40:52.999Z</time>
      </trkpt>
      <trkpt lat="47.57857" lon="6.77956">
        <ele>396.3</ele>
        <time>2017-07-30T08:40:53.999Z</time>
      </trkpt>
      <trkpt lat="47.57853" lon="6.77953">
        <ele>396.5</ele>
        <time>2017-07-30T08:40:54.999Z</time>
      </trkpt>
      <trkpt lat="47.5785" lon="6.77951">
        <ele>396.7</ele>
        <time>2017-07-30T08:40:55.999Z</time>
      </trkpt>
      <trkpt lat="47.57847" lon="6.77951">
        <ele>397.3</ele>
        <time>2017-07-30T08:40:58.999Z</time>
      </trkpt>
      <trkpt lat="47.57845" lon="6.7795">
        <ele>397.5</ele>
        <time>2017-07-30T08:40:59.999Z</time>
      </trkpt>
      <trkpt lat="47.57842" lon="6.77949">
        <ele>398.1</ele>
        <time>2017-07-30T08:41:01.999Z</time>
      </trkpt>
      <trkpt lat="47.5784" lon="6.77949">
        <ele>398.4</ele>
        <time>2017-07-30T08:41:02.999Z</time>
      </trkpt>
      <trkpt lat="47.57838" lon="6.77949">
        <ele>398.7</ele>
        <time>2017-07-30T08:41:03.999Z</time>
      </trkpt>
      <trkpt lat="47.57835" lon="6.7795">
        <ele>399</ele>
        <time>2017-07-30T08:41:04.999Z</time>
      </trkpt>
      <trkpt lat="47.57831" lon="6.77949">
        <ele>400.1</ele>
        <time>2017-07-30T08:41:08.999Z</time>
      </trkpt>
      <trkpt lat="47.57829" lon="6.77947">
        <ele>400.4</ele>
        <time>2017-07-30T08:41:09.999Z</time>
      </trkpt>
      <trkpt lat="47.57826" lon="6.77944">
        <ele>401</ele>
        <time>2017-07-30T08:41:11.999Z</time>
      </trkpt>
      <trkpt lat="47.57825" lon="6.77943">
        <ele>401.4</ele>
        <time>2017-07-30T08:41:12.999Z</time>
      </trkpt>
      <trkpt lat="47.57823" lon="6.77941">
        <ele>402.4</ele>
        <time>2017-07-30T08:41:15.999Z</time>
      </trkpt>
      <trkpt lat="47.5782" lon="6.77935">
        <ele>402.9</ele>
        <time>2017-07-30T08:41:16.999Z</time>
      </trkpt>
      <trkpt lat="47.57816" lon="6.77928">
        <ele>403.2</ele>
        <time>2017-07-30T08:41:17.999Z</time>
      </trkpt>
      <trkpt lat="47.57813" lon="6.77927">
        <ele>403.5</ele>
        <time>2017-07-30T08:41:18.999Z</time>
      </trkpt>
      <trkpt lat="47.57809" lon="6.77927">
        <ele>403.9</ele>
        <time>2017-07-30T08:41:19.999Z</time>
      </trkpt>
      <trkpt lat="47.57808" lon="6.77927">
        <ele>404.2</ele>
        <time>2017-07-30T08:41:20.999Z</time>
      </trkpt>
      <trkpt lat="47.57804" lon="6.77926">
        <ele>404.8</ele>
        <time>2017-07-30T08:41:21.999Z</time>
      </trkpt>
      <trkpt lat="47.57799" lon="6.77922">
        <ele>405.3</ele>
        <time>2017-07-30T08:41:22.999Z</time>
      </trkpt>
      <trkpt lat="47.57795" lon="6.7792">
        <ele>407.2</ele>
        <time>2017-07-30T08:41:26.999Z</time>
      </trkpt>
      <trkpt lat="47.57795" lon="6.77918">
        <ele>407.8</ele>
        <time>2017-07-30T08:41:27.999Z</time>
      </trkpt>
      <trkpt lat="47.57791" lon="6.77912">
        <ele>408.3</ele>
        <time>2017-07-30T08:41:28.999Z</time>
      </trkpt>
      <trkpt lat="47.57788" lon="6.77908">
        <ele>408.8</ele>
        <time>2017-07-30T08:41:29.999Z</time>
      </trkpt>
      <trkpt lat="47.57784" lon="6.77907">
        <ele>409.2</ele>
        <time>2017-07-30T08:41:30.999Z</time>
      </trkpt>
      <trkpt lat="47.57784" lon="6.77901">
        <ele>410.1</ele>
        <time>2017-07-30T08:41:33.999Z</time>
      </trkpt>
      <trkpt lat="47.57783" lon="6.77898">
        <ele>410.4</ele>
        <time>2017-07-30T08:41:34.999Z</time>
      </trkpt>
      <trkpt lat="47.57781" lon="6.77893">
        <ele>411.5</ele>
        <time>2017-07-30T08:41:37.999Z</time>
      </trkpt>
      <trkpt lat="47.5778" lon="6.77887">
        <ele>412</ele>
        <time>2017-07-30T08:41:38.999Z</time>
      </trkpt>
      <trkpt lat="47.57779" lon="6.77881">
        <ele>412.4</ele>
        <time>2017-07-30T08:41:39.999Z</time>
      </trkpt>
      <trkpt lat="47.57779" lon="6.77877">
        <ele>412.9</ele>
        <time>2017-07-30T08:41:40.999Z</time>
      </trkpt>
      <trkpt lat="47.57778" lon="6.77875">
        <ele>413.2</ele>
        <time>2017-07-30T08:41:41.999Z</time>
      </trkpt>
      <trkpt lat="47.57775" lon="6.77872">
        <ele>413.4</ele>
        <time>2017-07-30T08:41:42.999Z</time>
      </trkpt>
      <trkpt lat="47.57772" lon="6.77868">
        <ele>414.4</ele>
        <time>2017-07-30T08:41:46.999Z</time>
      </trkpt>
      <trkpt lat="47.57771" lon="6.77867">
        <ele>414.7</ele>
        <time>2017-07-30T08:41:47.999Z</time>
      </trkpt>
      <trkpt lat="47.5777" lon="6.77864">
        <ele>415.5</ele>
        <time>2017-07-30T08:41:50.999Z</time>
      </trkpt>
      <trkpt lat="47.57769" lon="6.77859">
        <ele>415.8</ele>
        <time>2017-07-30T08:41:51.999Z</time>
      </trkpt>
      <trkpt lat="47.57768" lon="6.77856">
        <ele>416.4</ele>
        <time>2017-07-30T08:41:53.999Z</time>
      </trkpt>
      <trkpt lat="47.57766" lon="6.77853">
        <ele>416.8</ele>
        <time>2017-07-30T08:41:54.999Z</time>
      </trkpt>
      <trkpt lat="47.57766" lon="6.77849">
        <ele>417</ele>
        <time>2017-07-30T08:41:55.999Z</time>
      </trkpt>
      <trkpt lat="47.57765" lon="6.77847">
        <ele>417.4</ele>
        <time>2017-07-30T08:41:56.999Z</time>
      </trkpt>
      <trkpt lat="47.57763" lon="6.77843">
        <ele>417.9</ele>
        <time>2017-07-30T08:41:58.999Z</time>
      </trkpt>
      <trkpt lat="47.57762" lon="6.77841">
        <ele>418.2</ele>
        <time>2017-07-30T08:41:59.999Z</time>
      </trkpt>
      <trkpt lat="47.57761" lon="6.77836">
        <ele>418.9</ele>
        <time>2017-07-30T08:42:01.999Z</time>
      </trkpt>
      <trkpt lat="47.57761" lon="6.77834">
        <ele>419.2</ele>
        <time>2017-07-30T08:42:02.999Z</time>
      </trkpt>
      <trkpt lat="47.5776" lon="6.77828">
        <ele>419.4</ele>
        <time>2017-07-30T08:42:04.999Z</time>
      </trkpt>
      <trkpt lat="47.57759" lon="6.77826">
        <ele>419.4</ele>
        <time>2017-07-30T08:42:05.999Z</time>
      </trkpt>
      <trkpt lat="47.57757" lon="6.7782">
        <ele>419.5</ele>
        <time>2017-07-30T08:42:08.999Z</time>
      </trkpt>
      <trkpt lat="47.57757" lon="6.77819">
        <ele>419.6</ele>
        <time>2017-07-30T08:42:09.999Z</time>
      </trkpt>
      <trkpt lat="47.57755" lon="6.77814">
        <ele>419.5</ele>
        <time>2017-07-30T08:42:13.999Z</time>
      </trkpt>
      <trkpt lat="47.57754" lon="6.77813">
        <ele>419.4</ele>
        <time>2017-07-30T08:42:14.999Z</time>
      </trkpt>
      <trkpt lat="47.57752" lon="6.77807">
        <ele>419.6</ele>
        <time>2017-07-30T08:42:18.999Z</time>
      </trkpt>
      <trkpt lat="47.57752" lon="6.77805">
        <ele>419.6</ele>
        <time>2017-07-30T08:42:19.999Z</time>
      </trkpt>
      <trkpt lat="47.57752" lon="6.77802">
        <ele>419.7</ele>
        <time>2017-07-30T08:42:20.999Z</time>
      </trkpt>
      <trkpt lat="47.57753" lon="6.77796">
        <ele>419.7</ele>
        <time>2017-07-30T08:42:21.999Z</time>
      </trkpt>
      <trkpt lat="47.57752" lon="6.77789">
        <ele>419.8</ele>
        <time>2017-07-30T08:42:22.999Z</time>
      </trkpt>
      <trkpt lat="47.57752" lon="6.77788">
        <ele>419.8</ele>
        <time>2017-07-30T08:42:23.999Z</time>
      </trkpt>
      <trkpt lat="47.57753" lon="6.77783">
        <ele>419.8</ele>
        <time>2017-07-30T08:42:28.999Z</time>
      </trkpt>
      <trkpt lat="47.57757" lon="6.77779">
        <ele>419.8</ele>
        <time>2017-07-30T08:42:29.999Z</time>
      </trkpt>
      <trkpt lat="47.57756" lon="6.77772">
        <ele>420.4</ele>
        <time>2017-07-30T08:42:38.999Z</time>
      </trkpt>
      <trkpt lat="47.57756" lon="6.77771">
        <ele>420.5</ele>
        <time>2017-07-30T08:42:39.999Z</time>
      </trkpt>
      <trkpt lat="47.57753" lon="6.77766">
        <ele>421.1</ele>
        <time>2017-07-30T08:42:45.999Z</time>
      </trkpt>
      <trkpt lat="47.57753" lon="6.77765">
        <ele>421.2</ele>
        <time>2017-07-30T08:42:46.999Z</time>
      </trkpt>
      <trkpt lat="47.57753" lon="6.77763">
        <ele>421.3</ele>
        <time>2017-07-30T08:42:47.999Z</time>
      </trkpt>
      <trkpt lat="47.57752" lon="6.77758">
        <ele>421.6</ele>
        <time>2017-07-30T08:42:48.999Z</time>
      </trkpt>
      <trkpt lat="47.57751" lon="6.77753">
        <ele>422.3</ele>
        <time>2017-07-30T08:42:50.999Z</time>
      </trkpt>
      <trkpt lat="47.57751" lon="6.77751">
        <ele>422.6</ele>
        <time>2017-07-30T08:42:51.999Z</time>
      </trkpt>
      <trkpt lat="47.57749" lon="6.77748">
        <ele>423.4</ele>
        <time>2017-07-30T08:42:53.999Z</time>
      </trkpt>
      <trkpt lat="47.5775" lon="6.77744">
        <ele>423.8</ele>
        <time>2017-07-30T08:42:54.999Z</time>
      </trkpt>
      <trkpt lat="47.57752" lon="6.7774">
        <ele>424.6</ele>
        <time>2017-07-30T08:42:56.999Z</time>
      </trkpt>
      <trkpt lat="47.57752" lon="6.77738">
        <ele>424.9</ele>
        <time>2017-07-30T08:42:57.999Z</time>
      </trkpt>
      <trkpt lat="47.57752" lon="6.77736">
        <ele>426.2</ele>
        <time>2017-07-30T08:43:00.999Z</time>
      </trkpt>
      <trkpt lat="47.57753" lon="6.7773">
        <ele>426.7</ele>
        <time>2017-07-30T08:43:01.999Z</time>
      </trkpt>
      <trkpt lat="47.5775" lon="6.77725">
        <ele>428.6</ele>
        <time>2017-07-30T08:43:09.999Z</time>
      </trkpt>
      <trkpt lat="47.57749" lon="6.77723">
        <ele>428.8</ele>
        <time>2017-07-30T08:43:10.999Z</time>
      </trkpt>
      <trkpt lat="47.57749" lon="6.77718">
        <ele>429.7</ele>
        <time>2017-07-30T08:43:15.999Z</time>
      </trkpt>
      <trkpt lat="47.57749" lon="6.77716">
        <ele>429.9</ele>
        <time>2017-07-30T08:43:16.999Z</time>
      </trkpt>
      <trkpt lat="47.57749" lon="6.77712">
        <ele>430.2</ele>
        <time>2017-07-30T08:43:18.999Z</time>
      </trkpt>
      <trkpt lat="47.5775" lon="6.77709">
        <ele>430.1</ele>
        <time>2017-07-30T08:43:19.999Z</time>
      </trkpt>
      <trkpt lat="47.57751" lon="6.77703">
        <ele>430</ele>
        <time>2017-07-30T08:43:20.999Z</time>
      </trkpt>
      <trkpt lat="47.57751" lon="6.777">
        <ele>430.1</ele>
        <time>2017-07-30T08:43:21.999Z</time>
      </trkpt>
      <trkpt lat="47.57751" lon="6.77694">
        <ele>430.1</ele>
        <time>2017-07-30T08:43:26.999Z</time>
      </trkpt>
      <trkpt lat="47.57751" lon="6.77692">
        <ele>430.1</ele>
        <time>2017-07-30T08:43:27.999Z</time>
      </trkpt>
      <trkpt lat="47.57752" lon="6.77691">
        <ele>430</ele>
        <time>2017-07-30T08:43:28.999Z</time>
      </trkpt>
      <trkpt lat="47.57756" lon="6.7769">
        <ele>430</ele>
        <time>2017-07-30T08:43:29.999Z</time>
      </trkpt>
      <trkpt lat="47.57759" lon="6.77686">
        <ele>430.1</ele>
        <time>2017-07-30T08:43:31.999Z</time>
      </trkpt>
      <trkpt lat="47.57759" lon="6.77684">
        <ele>430.1</ele>
        <time>2017-07-30T08:43:32.999Z</time>
      </trkpt>
      <trkpt lat="47.57759" lon="6.77679">
        <ele>430.4</ele>
        <time>2017-07-30T08:43:35.999Z</time>
      </trkpt>
      <trkpt lat="47.5776" lon="6.77677">
        <ele>430.4</ele>
        <time>2017-07-30T08:43:36.999Z</time>
      </trkpt>
      <trkpt lat="47.57764" lon="6.77678">
        <ele>430.3</ele>
        <time>2017-07-30T08:43:38.999Z</time>
      </trkpt>
      <trkpt lat="47.57765" lon="6.77677">
        <ele>430.3</ele>
        <time>2017-07-30T08:43:39.999Z</time>
      </trkpt>
      <trkpt lat="47.57764" lon="6.77671">
        <ele>430.3</ele>
        <time>2017-07-30T08:43:42.999Z</time>
      </trkpt>
      <trkpt lat="47.57765" lon="6.77669">
        <ele>430.4</ele>
        <time>2017-07-30T08:43:43.999Z</time>
      </trkpt>
      <trkpt lat="47.57767" lon="6.77665">
        <ele>430.4</ele>
        <time>2017-07-30T08:43:47.999Z</time>
      </trkpt>
      <trkpt lat="47.57768" lon="6.77664">
        <ele>430.5</ele>
        <time>2017-07-30T08:43:48.999Z</time>
      </trkpt>
      <trkpt lat="47.57771" lon="6.77661">
        <ele>430.9</ele>
        <time>2017-07-30T08:43:52.999Z</time>
      </trkpt>
      <trkpt lat="47.57773" lon="6.77655">
        <ele>431.1</ele>
        <time>2017-07-30T08:43:53.999Z</time>
      </trkpt>
      <trkpt lat="47.57773" lon="6.7765">
        <ele>432</ele>
        <time>2017-07-30T08:43:57.999Z</time>
      </trkpt>
      <trkpt lat="47.57772" lon="6.77649">
        <ele>432.2</ele>
        <time>2017-07-30T08:43:58.999Z</time>
      </trkpt>
      <trkpt lat="47.57775" lon="6.77644">
        <ele>433.1</ele>
        <time>2017-07-30T08:44:03.999Z</time>
      </trkpt>
      <trkpt lat="47.57775" lon="6.77642">
        <ele>433.2</ele>
        <time>2017-07-30T08:44:04.999Z</time>
      </trkpt>
      <trkpt lat="47.57774" lon="6.77637">
        <ele>433.9</ele>
        <time>2017-07-30T08:44:08.999Z</time>
      </trkpt>
      <trkpt lat="47.57774" lon="6.77634">
        <ele>434</ele>
        <time>2017-07-30T08:44:09.999Z</time>
      </trkpt>
      <trkpt lat="47.57774" lon="6.77628">
        <ele>434.5</ele>
        <time>2017-07-30T08:44:12.999Z</time>
      </trkpt>
      <trkpt lat="47.57774" lon="6.77627">
        <ele>434.7</ele>
        <time>2017-07-30T08:44:13.999Z</time>
      </trkpt>
      <trkpt lat="47.57775" lon="6.77623">
        <ele>435.2</ele>
        <time>2017-07-30T08:44:16.999Z</time>
      </trkpt>
      <trkpt lat="47.57777" lon="6.77617">
        <ele>435.2</ele>
        <time>2017-07-30T08:44:17.999Z</time>
      </trkpt>
      <trkpt lat="47.57778" lon="6.77611">
        <ele>435.3</ele>
        <time>2017-07-30T08:44:18.999Z</time>
      </trkpt>
      <trkpt lat="47.57778" lon="6.77609">
        <ele>435.3</ele>
        <time>2017-07-30T08:44:19.999Z</time>
      </trkpt>
      <trkpt lat="47.57777" lon="6.77603">
        <ele>436.4</ele>
        <time>2017-07-30T08:44:25.999Z</time>
      </trkpt>
      <trkpt lat="47.57778" lon="6.77601">
        <ele>436.8</ele>
        <time>2017-07-30T08:44:26.999Z</time>
      </trkpt>
      <trkpt lat="47.57779" lon="6.77596">
        <ele>438</ele>
        <time>2017-07-30T08:44:30.999Z</time>
      </trkpt>
      <trkpt lat="47.57781" lon="6.77593">
        <ele>438.1</ele>
        <time>2017-07-30T08:44:31.999Z</time>
      </trkpt>
      <trkpt lat="47.57782" lon="6.77591">
        <ele>438.3</ele>
        <time>2017-07-30T08:44:32.999Z</time>
      </trkpt>
      <trkpt lat="47.57783" lon="6.77584">
        <ele>438.4</ele>
        <time>2017-07-30T08:44:33.999Z</time>
      </trkpt>
      <trkpt lat="47.57783" lon="6.77578">
        <ele>438.5</ele>
        <time>2017-07-30T08:44:34.999Z</time>
      </trkpt>
      <trkpt lat="47.57782" lon="6.77573">
        <ele>438.6</ele>
        <time>2017-07-30T08:44:35.999Z</time>
      </trkpt>
      <trkpt lat="47.57782" lon="6.77566">
        <ele>438.8</ele>
        <time>2017-07-30T08:44:37.999Z</time>
      </trkpt>
      <trkpt lat="47.57782" lon="6.77564">
        <ele>439</ele>
        <time>2017-07-30T08:44:38.999Z</time>
      </trkpt>
      <trkpt lat="47.57783" lon="6.77559">
        <ele>439.2</ele>
        <time>2017-07-30T08:44:41.999Z</time>
      </trkpt>
      <trkpt lat="47.57783" lon="6.77556">
        <ele>439.2</ele>
        <time>2017-07-30T08:44:42.999Z</time>
      </trkpt>
      <trkpt lat="47.57783" lon="6.77551">
        <ele>439.3</ele>
        <time>2017-07-30T08:44:44.999Z</time>
      </trkpt>
      <trkpt lat="47.57784" lon="6.77548">
        <ele>439.4</ele>
        <time>2017-07-30T08:44:45.999Z</time>
      </trkpt>
      <trkpt lat="47.57784" lon="6.77542">
        <ele>439.4</ele>
        <time>2017-07-30T08:44:49.999Z</time>
      </trkpt>
      <trkpt lat="47.57784" lon="6.77541">
        <ele>439.4</ele>
        <time>2017-07-30T08:44:50.999Z</time>
      </trkpt>
      <trkpt lat="47.57784" lon="6.77536">
        <ele>439.3</ele>
        <time>2017-07-30T08:44:52.999Z</time>
      </trkpt>
      <trkpt lat="47.57784" lon="6.77533">
        <ele>439.4</ele>
        <time>2017-07-30T08:44:53.999Z</time>
      </trkpt>
      <trkpt lat="47.57783" lon="6.77528">
        <ele>439.6</ele>
        <time>2017-07-30T08:44:55.999Z</time>
      </trkpt>
      <trkpt lat="47.57782" lon="6.77525">
        <ele>439.9</ele>
        <time>2017-07-30T08:44:56.999Z</time>
      </trkpt>
      <trkpt lat="47.57782" lon="6.77521">
        <ele>440.1</ele>
        <time>2017-07-30T08:44:57.999Z</time>
      </trkpt>
      <trkpt lat="47.57781" lon="6.77517">
        <ele>440.2</ele>
        <time>2017-07-30T08:44:58.999Z</time>
      </trkpt>
      <trkpt lat="47.5778" lon="6.77511">
        <ele>440.4</ele>
        <time>2017-07-30T08:45:00.999Z</time>
      </trkpt>
      <trkpt lat="47.57782" lon="6.77509">
        <ele>440.4</ele>
        <time>2017-07-30T08:45:01.999Z</time>
      </trkpt>
      <trkpt lat="47.57786" lon="6.77507">
        <ele>439.7</ele>
        <time>2017-07-30T08:45:05.999Z</time>
      </trkpt>
      <trkpt lat="47.57787" lon="6.77506">
        <ele>439.6</ele>
        <time>2017-07-30T08:45:06.999Z</time>
      </trkpt>
      <trkpt lat="47.57788" lon="6.77503">
        <ele>437.8</ele>
        <time>2017-07-30T08:45:15.999Z</time>
      </trkpt>
      <trkpt lat="47.5779" lon="6.77501">
        <ele>437.6</ele>
        <time>2017-07-30T08:45:16.999Z</time>
      </trkpt>
      <trkpt lat="47.57793" lon="6.775">
        <ele>437.4</ele>
        <time>2017-07-30T08:45:17.999Z</time>
      </trkpt>
      <trkpt lat="47.57796" lon="6.77499">
        <ele>437.3</ele>
        <time>2017-07-30T08:45:18.999Z</time>
      </trkpt>
      <trkpt lat="47.57801" lon="6.77499">
        <ele>437.3</ele>
        <time>2017-07-30T08:45:19.999Z</time>
      </trkpt>
      <trkpt lat="47.57804" lon="6.775">
        <ele>437.2</ele>
        <time>2017-07-30T08:45:20.999Z</time>
      </trkpt>
      <trkpt lat="47.57807" lon="6.775">
        <ele>437.2</ele>
        <time>2017-07-30T08:45:21.999Z</time>
      </trkpt>
      <trkpt lat="47.5781" lon="6.775">
        <ele>437.3</ele>
        <time>2017-07-30T08:45:22.999Z</time>
      </trkpt>
      <trkpt lat="47.57813" lon="6.77502">
        <ele>437.3</ele>
        <time>2017-07-30T08:45:23.999Z</time>
      </trkpt>
      <trkpt lat="47.57815" lon="6.77503">
        <ele>437.4</ele>
        <time>2017-07-30T08:45:24.999Z</time>
      </trkpt>
      <trkpt lat="47.57815" lon="6.77506">
        <ele>437.4</ele>
        <time>2017-07-30T08:45:25.999Z</time>
      </trkpt>
      <trkpt lat="47.57816" lon="6.7751">
        <ele>437.4</ele>
        <time>2017-07-30T08:45:26.999Z</time>
      </trkpt>
      <trkpt lat="47.57816" lon="6.77514">
        <ele>437.5</ele>
        <time>2017-07-30T08:45:27.999Z</time>
      </trkpt>
      <trkpt lat="47.57815" lon="6.77517">
        <ele>437.5</ele>
        <time>2017-07-30T08:45:28.999Z</time>
      </trkpt>
      <trkpt lat="47.57813" lon="6.77522">
        <ele>437.4</ele>
        <time>2017-07-30T08:45:32.999Z</time>
      </trkpt>
      <trkpt lat="47.57811" lon="6.77523">
        <ele>437.4</ele>
        <time>2017-07-30T08:45:33.999Z</time>
      </trkpt>
      <trkpt lat="47.57808" lon="6.77524">
        <ele>437.3</ele>
        <time>2017-07-30T08:45:34.999Z</time>
      </trkpt>
      <trkpt lat="47.57805" lon="6.77525">
        <ele>437.2</ele>
        <time>2017-07-30T08:45:35.999Z</time>
      </trkpt>
      <trkpt lat="47.57802" lon="6.77527">
        <ele>437.1</ele>
        <time>2017-07-30T08:45:36.999Z</time>
      </trkpt>
      <trkpt lat="47.57798" lon="6.77527">
        <ele>437</ele>
        <time>2017-07-30T08:45:37.999Z</time>
      </trkpt>
      <trkpt lat="47.57795" lon="6.77528">
        <ele>436.8</ele>
        <time>2017-07-30T08:45:38.999Z</time>
      </trkpt>
      <trkpt lat="47.57792" lon="6.7753">
        <ele>436.8</ele>
        <time>2017-07-30T08:45:39.999Z</time>
      </trkpt>
      <trkpt lat="47.5779" lon="6.7753">
        <ele>436.8</ele>
        <time>2017-07-30T08:45:40.999Z</time>
      </trkpt>
      <trkpt lat="47.57787" lon="6.77532">
        <ele>436.8</ele>
        <time>2017-07-30T08:45:41.999Z</time>
      </trkpt>
      <trkpt lat="47.57785" lon="6.77533">
        <ele>436.9</ele>
        <time>2017-07-30T08:45:42.999Z</time>
      </trkpt>
      <trkpt lat="47.57782" lon="6.77533">
        <ele>437</ele>
        <time>2017-07-30T08:45:43.999Z</time>
      </trkpt>
      <trkpt lat="47.57779" lon="6.77532">
        <ele>437.1</ele>
        <time>2017-07-30T08:45:44.999Z</time>
      </trkpt>
      <trkpt lat="47.57777" lon="6.77531">
        <ele>437.2</ele>
        <time>2017-07-30T08:45:45.999Z</time>
      </trkpt>
      <trkpt lat="47.57774" lon="6.7753">
        <ele>437.3</ele>
        <time>2017-07-30T08:45:46.999Z</time>
      </trkpt>
      <trkpt lat="47.57771" lon="6.77529">
        <ele>437.5</ele>
        <time>2017-07-30T08:45:47.999Z</time>
      </trkpt>
      <trkpt lat="47.57769" lon="6.77528">
        <ele>437.8</ele>
        <time>2017-07-30T08:45:48.999Z</time>
      </trkpt>
      <trkpt lat="47.57765" lon="6.77528">
        <ele>438</ele>
        <time>2017-07-30T08:45:49.999Z</time>
      </trkpt>
      <trkpt lat="47.57761" lon="6.77529">
        <ele>438.6</ele>
        <time>2017-07-30T08:45:51.999Z</time>
      </trkpt>
      <trkpt lat="47.57758" lon="6.77527">
        <ele>439</ele>
        <time>2017-07-30T08:45:52.999Z</time>
      </trkpt>
      <trkpt lat="47.57754" lon="6.77526">
        <ele>442</ele>
        <time>2017-07-30T08:45:53.999Z</time>
      </trkpt>
      <trkpt lat="47.5775" lon="6.77526">
        <ele>442.3</ele>
        <time>2017-07-30T08:45:54.999Z</time>
      </trkpt>
      <trkpt lat="47.57748" lon="6.77526">
        <ele>442.4</ele>
        <time>2017-07-30T08:45:55.999Z</time>
      </trkpt>
      <trkpt lat="47.57745" lon="6.77525">
        <ele>442.6</ele>
        <time>2017-07-30T08:45:56.999Z</time>
      </trkpt>
      <trkpt lat="47.57741" lon="6.77525">
        <ele>442.9</ele>
        <time>2017-07-30T08:45:57.999Z</time>
      </trkpt>
      <trkpt lat="47.57738" lon="6.77526">
        <ele>443.2</ele>
        <time>2017-07-30T08:45:58.999Z</time>
      </trkpt>
      <trkpt lat="47.57737" lon="6.77526">
        <ele>443.5</ele>
        <time>2017-07-30T08:45:59.999Z</time>
      </trkpt>
      <trkpt lat="47.57735" lon="6.77524">
        <ele>443.8</ele>
        <time>2017-07-30T08:46:00.999Z</time>
      </trkpt>
      <trkpt lat="47.57732" lon="6.77524">
        <ele>444.1</ele>
        <time>2017-07-30T08:46:01.999Z</time>
      </trkpt>
      <trkpt lat="47.57729" lon="6.77522">
        <ele>444.4</ele>
        <time>2017-07-30T08:46:02.999Z</time>
      </trkpt>
      <trkpt lat="47.57725" lon="6.77522">
        <ele>444.8</ele>
        <time>2017-07-30T08:46:03.999Z</time>
      </trkpt>
      <trkpt lat="47.57719" lon="6.77523">
        <ele>445.1</ele>
        <time>2017-07-30T08:46:04.999Z</time>
      </trkpt>
      <trkpt lat="47.57716" lon="6.77525">
        <ele>445.5</ele>
        <time>2017-07-30T08:46:06.999Z</time>
      </trkpt>
      <trkpt lat="47.57713" lon="6.77525">
        <ele>445.7</ele>
        <time>2017-07-30T08:46:07.999Z</time>
      </trkpt>
      <trkpt lat="47.5771" lon="6.77526">
        <ele>446.1</ele>
        <time>2017-07-30T08:46:09.999Z</time>
      </trkpt>
      <trkpt lat="47.57708" lon="6.77527">
        <ele>446.3</ele>
        <time>2017-07-30T08:46:10.999Z</time>
      </trkpt>
      <trkpt lat="47.57706" lon="6.77527">
        <ele>446.3</ele>
        <time>2017-07-30T08:46:11.999Z</time>
      </trkpt>
      <trkpt lat="47.57702" lon="6.77528">
        <ele>446.5</ele>
        <time>2017-07-30T08:46:12.999Z</time>
      </trkpt>
      <trkpt lat="47.57698" lon="6.77529">
        <ele>446.7</ele>
        <time>2017-07-30T08:46:13.999Z</time>
      </trkpt>
      <trkpt lat="47.57695" lon="6.7753">
        <ele>446.9</ele>
        <time>2017-07-30T08:46:14.999Z</time>
      </trkpt>
      <trkpt lat="47.57693" lon="6.7753">
        <ele>447.1</ele>
        <time>2017-07-30T08:46:15.999Z</time>
      </trkpt>
      <trkpt lat="47.5769" lon="6.77531">
        <ele>447.4</ele>
        <time>2017-07-30T08:46:16.999Z</time>
      </trkpt>
      <trkpt lat="47.57687" lon="6.7753">
        <ele>447.6</ele>
        <time>2017-07-30T08:46:17.999Z</time>
      </trkpt>
      <trkpt lat="47.57682" lon="6.77529">
        <ele>447.7</ele>
        <time>2017-07-30T08:46:18.999Z</time>
      </trkpt>
      <trkpt lat="47.57679" lon="6.77528">
        <ele>447.8</ele>
        <time>2017-07-30T08:46:19.999Z</time>
      </trkpt>
      <trkpt lat="47.57677" lon="6.77528">
        <ele>447.9</ele>
        <time>2017-07-30T08:46:20.999Z</time>
      </trkpt>
      <trkpt lat="47.57674" lon="6.77529">
        <ele>448.2</ele>
        <time>2017-07-30T08:46:22.999Z</time>
      </trkpt>
      <trkpt lat="47.57671" lon="6.77529">
        <ele>448.3</ele>
        <time>2017-07-30T08:46:23.999Z</time>
      </trkpt>
      <trkpt lat="47.57666" lon="6.77528">
        <ele>448.4</ele>
        <time>2017-07-30T08:46:24.999Z</time>
      </trkpt>
      <trkpt lat="47.57663" lon="6.77529">
        <ele>448.6</ele>
        <time>2017-07-30T08:46:25.999Z</time>
      </trkpt>
      <trkpt lat="47.57658" lon="6.77528">
        <ele>448.7</ele>
        <time>2017-07-30T08:46:26.999Z</time>
      </trkpt>
      <trkpt lat="47.57654" lon="6.77526">
        <ele>448.9</ele>
        <time>2017-07-30T08:46:27.999Z</time>
      </trkpt>
      <trkpt lat="47.57652" lon="6.77525">
        <ele>449.1</ele>
        <time>2017-07-30T08:46:28.999Z</time>
      </trkpt>
      <trkpt lat="47.57649" lon="6.77523">
        <ele>449.3</ele>
        <time>2017-07-30T08:46:29.999Z</time>
      </trkpt>
      <trkpt lat="47.57647" lon="6.77522">
        <ele>449.5</ele>
        <time>2017-07-30T08:46:30.999Z</time>
      </trkpt>
      <trkpt lat="47.57643" lon="6.77522">
        <ele>449.7</ele>
        <time>2017-07-30T08:46:31.999Z</time>
      </trkpt>
      <trkpt lat="47.57639" lon="6.7752">
        <ele>449.8</ele>
        <time>2017-07-30T08:46:32.999Z</time>
      </trkpt>
      <trkpt lat="47.57634" lon="6.77519">
        <ele>450.1</ele>
        <time>2017-07-30T08:46:33.999Z</time>
      </trkpt>
      <trkpt lat="47.57626" lon="6.77517">
        <ele>452.7</ele>
        <time>2017-07-30T08:46:34.999Z</time>
      </trkpt>
      <trkpt lat="47.57619" lon="6.77513">
        <ele>452.9</ele>
        <time>2017-07-30T08:46:35.999Z</time>
      </trkpt>
      <trkpt lat="47.57614" lon="6.77508">
        <ele>453.1</ele>
        <time>2017-07-30T08:46:36.999Z</time>
      </trkpt>
      <trkpt lat="47.5761" lon="6.77504">
        <ele>454.3</ele>
        <time>2017-07-30T08:46:37.999Z</time>
      </trkpt>
      <trkpt lat="47.57603" lon="6.77501">
        <ele>454.4</ele>
        <time>2017-07-30T08:46:38.999Z</time>
      </trkpt>
      <trkpt lat="47.57596" lon="6.77496">
        <ele>454.5</ele>
        <time>2017-07-30T08:46:39.999Z</time>
      </trkpt>
      <trkpt lat="47.57589" lon="6.77494">
        <ele>456.1</ele>
        <time>2017-07-30T08:46:40.999Z</time>
      </trkpt>
      <trkpt lat="47.57584" lon="6.77492">
        <ele>457.4</ele>
        <time>2017-07-30T08:46:41.999Z</time>
      </trkpt>
      <trkpt lat="47.57578" lon="6.77487">
        <ele>457.5</ele>
        <time>2017-07-30T08:46:42.999Z</time>
      </trkpt>
      <trkpt lat="47.57573" lon="6.77481">
        <ele>457.7</ele>
        <time>2017-07-30T08:46:43.999Z</time>
      </trkpt>
      <trkpt lat="47.5757" lon="6.7748">
        <ele>457.8</ele>
        <time>2017-07-30T08:46:44.999Z</time>
      </trkpt>
      <trkpt lat="47.57564" lon="6.77479">
        <ele>457.9</ele>
        <time>2017-07-30T08:46:45.999Z</time>
      </trkpt>
      <trkpt lat="47.57561" lon="6.77478">
        <ele>458</ele>
        <time>2017-07-30T08:46:46.999Z</time>
      </trkpt>
      <trkpt lat="47.57559" lon="6.77476">
        <ele>458.1</ele>
        <time>2017-07-30T08:46:47.999Z</time>
      </trkpt>
      <trkpt lat="47.57557" lon="6.77474">
        <ele>458.1</ele>
        <time>2017-07-30T08:46:48.999Z</time>
      </trkpt>
      <trkpt lat="47.57553" lon="6.77472">
        <ele>458.2</ele>
        <time>2017-07-30T08:46:49.999Z</time>
      </trkpt>
      <trkpt lat="47.57551" lon="6.77468">
        <ele>458.2</ele>
        <time>2017-07-30T08:46:51.999Z</time>
      </trkpt>
      <trkpt lat="47.57549" lon="6.77464">
        <ele>458.1</ele>
        <time>2017-07-30T08:46:52.999Z</time>
      </trkpt>
      <trkpt lat="47.57549" lon="6.77463">
        <ele>458.1</ele>
        <time>2017-07-30T08:46:53.999Z</time>
      </trkpt>
      <trkpt lat="47.57546" lon="6.77458">
        <ele>458.2</ele>
        <time>2017-07-30T08:46:54.999Z</time>
      </trkpt>
      <trkpt lat="47.57543" lon="6.77455">
        <ele>457.9</ele>
        <time>2017-07-30T08:46:56.999Z</time>
      </trkpt>
      <trkpt lat="47.57541" lon="6.77454">
        <ele>457.8</ele>
        <time>2017-07-30T08:46:57.999Z</time>
      </trkpt>
      <trkpt lat="47.57539" lon="6.77451">
        <ele>457.7</ele>
        <time>2017-07-30T08:46:58.999Z</time>
      </trkpt>
      <trkpt lat="47.57537" lon="6.77448">
        <ele>457.4</ele>
        <time>2017-07-30T08:46:59.999Z</time>
      </trkpt>
      <trkpt lat="47.57534" lon="6.77446">
        <ele>457.1</ele>
        <time>2017-07-30T08:47:00.999Z</time>
      </trkpt>
      <trkpt lat="47.5753" lon="6.77442">
        <ele>456.8</ele>
        <time>2017-07-30T08:47:01.999Z</time>
      </trkpt>
      <trkpt lat="47.57526" lon="6.77438">
        <ele>454.1</ele>
        <time>2017-07-30T08:47:02.999Z</time>
      </trkpt>
      <trkpt lat="47.57521" lon="6.77436">
        <ele>453.3</ele>
        <time>2017-07-30T08:47:03.999Z</time>
      </trkpt>
      <trkpt lat="47.57515" lon="6.77428">
        <ele>452.3</ele>
        <time>2017-07-30T08:47:04.999Z</time>
      </trkpt>
      <trkpt lat="47.5751" lon="6.77419">
        <ele>452.2</ele>
        <time>2017-07-30T08:47:05.999Z</time>
      </trkpt>
      <trkpt lat="47.57507" lon="6.77415">
        <ele>452.2</ele>
        <time>2017-07-30T08:47:06.999Z</time>
      </trkpt>
      <trkpt lat="47.57504" lon="6.77409">
        <ele>452.1</ele>
        <time>2017-07-30T08:47:07.999Z</time>
      </trkpt>
      <trkpt lat="47.57497" lon="6.77403">
        <ele>452.1</ele>
        <time>2017-07-30T08:47:08.999Z</time>
      </trkpt>
      <trkpt lat="47.57492" lon="6.77396">
        <ele>452.1</ele>
        <time>2017-07-30T08:47:09.999Z</time>
      </trkpt>
      <trkpt lat="47.57489" lon="6.77387">
        <ele>452.2</ele>
        <time>2017-07-30T08:47:10.999Z</time>
      </trkpt>
      <trkpt lat="47.57487" lon="6.77384">
        <ele>452.2</ele>
        <time>2017-07-30T08:47:11.999Z</time>
      </trkpt>
      <trkpt lat="47.57484" lon="6.77378">
        <ele>452.1</ele>
        <time>2017-07-30T08:47:12.999Z</time>
      </trkpt>
      <trkpt lat="47.5748" lon="6.77369">
        <ele>452.2</ele>
        <time>2017-07-30T08:47:13.999Z</time>
      </trkpt>
      <trkpt lat="47.57477" lon="6.77359">
        <ele>452.2</ele>
        <time>2017-07-30T08:47:14.999Z</time>
      </trkpt>
      <trkpt lat="47.57475" lon="6.77354">
        <ele>452.2</ele>
        <time>2017-07-30T08:47:15.999Z</time>
      </trkpt>
      <trkpt lat="47.57473" lon="6.77348">
        <ele>452.2</ele>
        <time>2017-07-30T08:47:16.999Z</time>
      </trkpt>
      <trkpt lat="47.57469" lon="6.77338">
        <ele>452.1</ele>
        <time>2017-07-30T08:47:17.999Z</time>
      </trkpt>
      <trkpt lat="47.57466" lon="6.77334">
        <ele>452.7</ele>
        <time>2017-07-30T08:47:18.999Z</time>
      </trkpt>
      <trkpt lat="47.57463" lon="6.77329">
        <ele>452.9</ele>
        <time>2017-07-30T08:47:19.999Z</time>
      </trkpt>
      <trkpt lat="47.57461" lon="6.77325">
        <ele>453.1</ele>
        <time>2017-07-30T08:47:21.999Z</time>
      </trkpt>
      <trkpt lat="47.5746" lon="6.77324">
        <ele>453.1</ele>
        <time>2017-07-30T08:47:22.999Z</time>
      </trkpt>
      <trkpt lat="47.57455" lon="6.77322">
        <ele>453.2</ele>
        <time>2017-07-30T08:47:23.999Z</time>
      </trkpt>
      <trkpt lat="47.57452" lon="6.7732">
        <ele>453.2</ele>
        <time>2017-07-30T08:47:24.999Z</time>
      </trkpt>
      <trkpt lat="47.57448" lon="6.77317">
        <ele>453.2</ele>
        <time>2017-07-30T08:47:25.999Z</time>
      </trkpt>
      <trkpt lat="47.57446" lon="6.77314">
        <ele>453.3</ele>
        <time>2017-07-30T08:47:26.999Z</time>
      </trkpt>
      <trkpt lat="47.57442" lon="6.7731">
        <ele>452.6</ele>
        <time>2017-07-30T08:47:40.999Z</time>
      </trkpt>
      <trkpt lat="47.57442" lon="6.77309">
        <ele>452.4</ele>
        <time>2017-07-30T08:47:41.999Z</time>
      </trkpt>
      <trkpt lat="47.57439" lon="6.77305">
        <ele>450.5</ele>
        <time>2017-07-30T08:47:50.999Z</time>
      </trkpt>
      <trkpt lat="47.57438" lon="6.77304">
        <ele>450.4</ele>
        <time>2017-07-30T08:47:51.999Z</time>
      </trkpt>
      <trkpt lat="47.57434" lon="6.77302">
        <ele>450.3</ele>
        <time>2017-07-30T08:47:53.999Z</time>
      </trkpt>
      <trkpt lat="47.57433" lon="6.77302">
        <ele>450</ele>
        <time>2017-07-30T08:47:54.999Z</time>
      </trkpt>
      <trkpt lat="47.57429" lon="6.77303">
        <ele>449</ele>
        <time>2017-07-30T08:47:57.999Z</time>
      </trkpt>
      <trkpt lat="47.57429" lon="6.77304">
        <ele>448.7</ele>
        <time>2017-07-30T08:47:58.999Z</time>
      </trkpt>
      <trkpt lat="47.57427" lon="6.77304">
        <ele>448.3</ele>
        <time>2017-07-30T08:47:59.999Z</time>
      </trkpt>
      <trkpt lat="47.57423" lon="6.77304">
        <ele>448</ele>
        <time>2017-07-30T08:48:00.999Z</time>
      </trkpt>
      <trkpt lat="47.57421" lon="6.77304">
        <ele>447.6</ele>
        <time>2017-07-30T08:48:01.999Z</time>
      </trkpt>
      <trkpt lat="47.57418" lon="6.77302">
        <ele>447.3</ele>
        <time>2017-07-30T08:48:02.999Z</time>
      </trkpt>
      <trkpt lat="47.57415" lon="6.773">
        <ele>447</ele>
        <time>2017-07-30T08:48:03.999Z</time>
      </trkpt>
      <trkpt lat="47.57411" lon="6.77298">
        <ele>446.8</ele>
        <time>2017-07-30T08:48:04.999Z</time>
      </trkpt>
      <trkpt lat="47.57406" lon="6.77296">
        <ele>446.5</ele>
        <time>2017-07-30T08:48:05.999Z</time>
      </trkpt>
      <trkpt lat="47.57401" lon="6.77294">
        <ele>446.2</ele>
        <time>2017-07-30T08:48:06.999Z</time>
      </trkpt>
      <trkpt lat="47.57394" lon="6.7729">
        <ele>446</ele>
        <time>2017-07-30T08:48:07.999Z</time>
      </trkpt>
      <trkpt lat="47.57389" lon="6.77284">
        <ele>445.8</ele>
        <time>2017-07-30T08:48:08.999Z</time>
      </trkpt>
      <trkpt lat="47.57383" lon="6.77279">
        <ele>445.7</ele>
        <time>2017-07-30T08:48:09.999Z</time>
      </trkpt>
      <trkpt lat="47.57377" lon="6.77272">
        <ele>445.5</ele>
        <time>2017-07-30T08:48:10.999Z</time>
      </trkpt>
      <trkpt lat="47.57372" lon="6.77267">
        <ele>445.4</ele>
        <time>2017-07-30T08:48:11.999Z</time>
      </trkpt>
      <trkpt lat="47.57365" lon="6.77263">
        <ele>444.5</ele>
        <time>2017-07-30T08:48:12.999Z</time>
      </trkpt>
      <trkpt lat="47.57359" lon="6.77257">
        <ele>444.1</ele>
        <time>2017-07-30T08:48:13.999Z</time>
      </trkpt>
      <trkpt lat="47.57353" lon="6.77254">
        <ele>444.1</ele>
        <time>2017-07-30T08:48:14.999Z</time>
      </trkpt>
      <trkpt lat="47.5735" lon="6.77251">
        <ele>444.1</ele>
        <time>2017-07-30T08:48:15.999Z</time>
      </trkpt>
      <trkpt lat="47.57346" lon="6.7725">
        <ele>444.2</ele>
        <time>2017-07-30T08:48:16.999Z</time>
      </trkpt>
      <trkpt lat="47.57343" lon="6.77246">
        <ele>444.3</ele>
        <time>2017-07-30T08:48:17.999Z</time>
      </trkpt>
      <trkpt lat="47.5734" lon="6.77244">
        <ele>444.3</ele>
        <time>2017-07-30T08:48:18.999Z</time>
      </trkpt>
      <trkpt lat="47.57338" lon="6.77242">
        <ele>444.5</ele>
        <time>2017-07-30T08:48:19.999Z</time>
      </trkpt>
      <trkpt lat="47.57334" lon="6.7724">
        <ele>444.6</ele>
        <time>2017-07-30T08:48:20.999Z</time>
      </trkpt>
      <trkpt lat="47.5733" lon="6.77236">
        <ele>444.8</ele>
        <time>2017-07-30T08:48:21.999Z</time>
      </trkpt>
      <trkpt lat="47.57323" lon="6.77232">
        <ele>445.1</ele>
        <time>2017-07-30T08:48:22.999Z</time>
      </trkpt>
      <trkpt lat="47.57319" lon="6.77226">
        <ele>445.3</ele>
        <time>2017-07-30T08:48:23.999Z</time>
      </trkpt>
      <trkpt lat="47.57316" lon="6.77221">
        <ele>445.5</ele>
        <time>2017-07-30T08:48:24.999Z</time>
      </trkpt>
      <trkpt lat="47.57312" lon="6.77214">
        <ele>445.6</ele>
        <time>2017-07-30T08:48:25.999Z</time>
      </trkpt>
      <trkpt lat="47.57309" lon="6.7721">
        <ele>447.7</ele>
        <time>2017-07-30T08:48:26.999Z</time>
      </trkpt>
      <trkpt lat="47.57304" lon="6.77207">
        <ele>449.5</ele>
        <time>2017-07-30T08:48:27.999Z</time>
      </trkpt>
      <trkpt lat="47.573" lon="6.77203">
        <ele>450.4</ele>
        <time>2017-07-30T08:48:28.999Z</time>
      </trkpt>
      <trkpt lat="47.57297" lon="6.77196">
        <ele>450.2</ele>
        <time>2017-07-30T08:48:29.999Z</time>
      </trkpt>
      <trkpt lat="47.57294" lon="6.7719">
        <ele>450.3</ele>
        <time>2017-07-30T08:48:30.999Z</time>
      </trkpt>
      <trkpt lat="47.5729" lon="6.77184">
        <ele>450.2</ele>
        <time>2017-07-30T08:48:31.999Z</time>
      </trkpt>
      <trkpt lat="47.57286" lon="6.77181">
        <ele>450.2</ele>
        <time>2017-07-30T08:48:32.999Z</time>
      </trkpt>
      <trkpt lat="47.57282" lon="6.77176">
        <ele>450.1</ele>
        <time>2017-07-30T08:48:33.999Z</time>
      </trkpt>
      <trkpt lat="47.57279" lon="6.77171">
        <ele>450.1</ele>
        <time>2017-07-30T08:48:34.999Z</time>
      </trkpt>
      <trkpt lat="47.57276" lon="6.77166">
        <ele>450</ele>
        <time>2017-07-30T08:48:35.999Z</time>
      </trkpt>
      <trkpt lat="47.57271" lon="6.77161">
        <ele>448.3</ele>
        <time>2017-07-30T08:48:36.999Z</time>
      </trkpt>
      <trkpt lat="47.57265" lon="6.77152">
        <ele>447.8</ele>
        <time>2017-07-30T08:48:37.999Z</time>
      </trkpt>
      <trkpt lat="47.57264" lon="6.77146">
        <ele>447.8</ele>
        <time>2017-07-30T08:48:38.999Z</time>
      </trkpt>
      <trkpt lat="47.57262" lon="6.77141">
        <ele>447.9</ele>
        <time>2017-07-30T08:48:39.999Z</time>
      </trkpt>
      <trkpt lat="47.5726" lon="6.77137">
        <ele>448</ele>
        <time>2017-07-30T08:48:40.999Z</time>
      </trkpt>
      <trkpt lat="47.57258" lon="6.77133">
        <ele>448.1</ele>
        <time>2017-07-30T08:48:41.999Z</time>
      </trkpt>
      <trkpt lat="47.57254" lon="6.77131">
        <ele>448.2</ele>
        <time>2017-07-30T08:48:44.999Z</time>
      </trkpt>
      <trkpt lat="47.57252" lon="6.7713">
        <ele>448.2</ele>
        <time>2017-07-30T08:48:45.999Z</time>
      </trkpt>
      <trkpt lat="47.5725" lon="6.77129">
        <ele>448.2</ele>
        <time>2017-07-30T08:48:46.999Z</time>
      </trkpt>
      <trkpt lat="47.57247" lon="6.77129">
        <ele>448.3</ele>
        <time>2017-07-30T08:48:47.999Z</time>
      </trkpt>
      <trkpt lat="47.57241" lon="6.7713">
        <ele>448.4</ele>
        <time>2017-07-30T08:48:48.999Z</time>
      </trkpt>
      <trkpt lat="47.57237" lon="6.77131">
        <ele>448.4</ele>
        <time>2017-07-30T08:48:49.999Z</time>
      </trkpt>
      <trkpt lat="47.57234" lon="6.77131">
        <ele>448.4</ele>
        <time>2017-07-30T08:48:50.999Z</time>
      </trkpt>
      <trkpt lat="47.5723" lon="6.77129">
        <ele>448.5</ele>
        <time>2017-07-30T08:48:51.999Z</time>
      </trkpt>
      <trkpt lat="47.57229" lon="6.77127">
        <ele>448.4</ele>
        <time>2017-07-30T08:48:52.999Z</time>
      </trkpt>
      <trkpt lat="47.57226" lon="6.77127">
        <ele>447.5</ele>
        <time>2017-07-30T08:48:56.999Z</time>
      </trkpt>
      <trkpt lat="47.57223" lon="6.77124">
        <ele>447.2</ele>
        <time>2017-07-30T08:48:57.999Z</time>
      </trkpt>
      <trkpt lat="47.57221" lon="6.77124">
        <ele>446.9</ele>
        <time>2017-07-30T08:48:58.999Z</time>
      </trkpt>
      <trkpt lat="47.57216" lon="6.7712">
        <ele>446.5</ele>
        <time>2017-07-30T08:48:59.999Z</time>
      </trkpt>
      <trkpt lat="47.57211" lon="6.77118">
        <ele>446.1</ele>
        <time>2017-07-30T08:49:00.999Z</time>
      </trkpt>
      <trkpt lat="47.57208" lon="6.77119">
        <ele>441.9</ele>
        <time>2017-07-30T08:49:42.999Z</time>
      </trkpt>
      <trkpt lat="47.57205" lon="6.77122">
        <ele>441.6</ele>
        <time>2017-07-30T08:49:43.999Z</time>
      </trkpt>
      <trkpt lat="47.57204" lon="6.77124">
        <ele>441.3</ele>
        <time>2017-07-30T08:49:44.999Z</time>
      </trkpt>
      <trkpt lat="47.57202" lon="6.77127">
        <ele>441</ele>
        <time>2017-07-30T08:49:45.999Z</time>
      </trkpt>
      <trkpt lat="47.572" lon="6.77129">
        <ele>440.6</ele>
        <time>2017-07-30T08:49:46.999Z</time>
      </trkpt>
      <trkpt lat="47.57198" lon="6.77131">
        <ele>440.3</ele>
        <time>2017-07-30T08:49:47.999Z</time>
      </trkpt>
      <trkpt lat="47.57198" lon="6.77134">
        <ele>439.9</ele>
        <time>2017-07-30T08:49:48.999Z</time>
      </trkpt>
      <trkpt lat="47.57196" lon="6.77138">
        <ele>439.6</ele>
        <time>2017-07-30T08:49:49.999Z</time>
      </trkpt>
      <trkpt lat="47.57194" lon="6.7714">
        <ele>439.3</ele>
        <time>2017-07-30T08:49:50.999Z</time>
      </trkpt>
      <trkpt lat="47.57192" lon="6.77146">
        <ele>439</ele>
        <time>2017-07-30T08:49:51.999Z</time>
      </trkpt>
      <trkpt lat="47.5719" lon="6.77148">
        <ele>438.7</ele>
        <time>2017-07-30T08:49:52.999Z</time>
      </trkpt>
      <trkpt lat="47.57186" lon="6.77153">
        <ele>438.5</ele>
        <time>2017-07-30T08:49:53.999Z</time>
      </trkpt>
      <trkpt lat="47.57184" lon="6.77156">
        <ele>438.2</ele>
        <time>2017-07-30T08:49:54.999Z</time>
      </trkpt>
      <trkpt lat="47.57179" lon="6.77161">
        <ele>437.9</ele>
        <time>2017-07-30T08:49:55.999Z</time>
      </trkpt>
      <trkpt lat="47.57178" lon="6.77164">
        <ele>437.6</ele>
        <time>2017-07-30T08:49:56.999Z</time>
      </trkpt>
      <trkpt lat="47.57176" lon="6.77168">
        <ele>437.3</ele>
        <time>2017-07-30T08:49:57.999Z</time>
      </trkpt>
      <trkpt lat="47.57175" lon="6.77172">
        <ele>437</ele>
        <time>2017-07-30T08:49:58.999Z</time>
      </trkpt>
      <trkpt lat="47.57173" lon="6.77176">
        <ele>436.7</ele>
        <time>2017-07-30T08:49:59.999Z</time>
      </trkpt>
      <trkpt lat="47.57171" lon="6.77179">
        <ele>436.5</ele>
        <time>2017-07-30T08:50:00.999Z</time>
      </trkpt>
      <trkpt lat="47.5717" lon="6.77182">
        <ele>436.3</ele>
        <time>2017-07-30T08:50:01.999Z</time>
      </trkpt>
      <trkpt lat="47.57167" lon="6.77185">
        <ele>436.2</ele>
        <time>2017-07-30T08:50:02.999Z</time>
      </trkpt>
      <trkpt lat="47.57164" lon="6.77189">
        <ele>434</ele>
        <time>2017-07-30T08:50:03.999Z</time>
      </trkpt>
      <trkpt lat="47.5716" lon="6.77193">
        <ele>432.5</ele>
        <time>2017-07-30T08:50:04.999Z</time>
      </trkpt>
      <trkpt lat="47.57158" lon="6.77197">
        <ele>432.3</ele>
        <time>2017-07-30T08:50:05.999Z</time>
      </trkpt>
      <trkpt lat="47.57155" lon="6.77202">
        <ele>432.1</ele>
        <time>2017-07-30T08:50:06.999Z</time>
      </trkpt>
      <trkpt lat="47.57151" lon="6.77207">
        <ele>430</ele>
        <time>2017-07-30T08:50:07.999Z</time>
      </trkpt>
      <trkpt lat="47.57147" lon="6.77213">
        <ele>428.1</ele>
        <time>2017-07-30T08:50:08.999Z</time>
      </trkpt>
      <trkpt lat="47.5714" lon="6.77221">
        <ele>426.6</ele>
        <time>2017-07-30T08:50:09.999Z</time>
      </trkpt>
      <trkpt lat="47.57133" lon="6.7723">
        <ele>426.1</ele>
        <time>2017-07-30T08:50:10.999Z</time>
      </trkpt>
      <trkpt lat="47.57127" lon="6.77238">
        <ele>424.3</ele>
        <time>2017-07-30T08:50:11.999Z</time>
      </trkpt>
      <trkpt lat="47.57126" lon="6.77242">
        <ele>424.1</ele>
        <time>2017-07-30T08:50:12.999Z</time>
      </trkpt>
      <trkpt lat="47.57123" lon="6.77248">
        <ele>424</ele>
        <time>2017-07-30T08:50:13.999Z</time>
      </trkpt>
      <trkpt lat="47.57119" lon="6.7725">
        <ele>424.2</ele>
        <time>2017-07-30T08:50:29.999Z</time>
      </trkpt>
      <trkpt lat="47.57119" lon="6.7725">
        <ele>424.1</ele>
        <time>2017-07-30T08:50:30.999Z</time>
      </trkpt>
      <trkpt lat="47.57116" lon="6.77249">
        <ele>422.9</ele>
        <time>2017-07-30T08:50:35.999Z</time>
      </trkpt>
      <trkpt lat="47.57114" lon="6.7725">
        <ele>422.5</ele>
        <time>2017-07-30T08:50:36.999Z</time>
      </trkpt>
      <trkpt lat="47.57111" lon="6.77249">
        <ele>421.8</ele>
        <time>2017-07-30T08:50:38.999Z</time>
      </trkpt>
      <trkpt lat="47.57108" lon="6.77249">
        <ele>421.4</ele>
        <time>2017-07-30T08:50:39.999Z</time>
      </trkpt>
      <trkpt lat="47.57105" lon="6.7725">
        <ele>421.1</ele>
        <time>2017-07-30T08:50:40.999Z</time>
      </trkpt>
      <trkpt lat="47.57102" lon="6.77252">
        <ele>420.9</ele>
        <time>2017-07-30T08:50:41.999Z</time>
      </trkpt>
      <trkpt lat="47.571" lon="6.77254">
        <ele>420.6</ele>
        <time>2017-07-30T08:50:42.999Z</time>
      </trkpt>
      <trkpt lat="47.57096" lon="6.77259">
        <ele>420.3</ele>
        <time>2017-07-30T08:50:43.999Z</time>
      </trkpt>
      <trkpt lat="47.57092" lon="6.77261">
        <ele>420</ele>
        <time>2017-07-30T08:50:44.999Z</time>
      </trkpt>
      <trkpt lat="47.57088" lon="6.77262">
        <ele>419.8</ele>
        <time>2017-07-30T08:50:45.999Z</time>
      </trkpt>
      <trkpt lat="47.57085" lon="6.77262">
        <ele>419.7</ele>
        <time>2017-07-30T08:50:46.999Z</time>
      </trkpt>
      <trkpt lat="47.57081" lon="6.77264">
        <ele>419.5</ele>
        <time>2017-07-30T08:50:47.999Z</time>
      </trkpt>
      <trkpt lat="47.57078" lon="6.77265">
        <ele>419.2</ele>
        <time>2017-07-30T08:50:48.999Z</time>
      </trkpt>
      <trkpt lat="47.57074" lon="6.77268">
        <ele>416.3</ele>
        <time>2017-07-30T08:50:49.999Z</time>
      </trkpt>
      <trkpt lat="47.5707" lon="6.77272">
        <ele>414.4</ele>
        <time>2017-07-30T08:50:50.999Z</time>
      </trkpt>
      <trkpt lat="47.57064" lon="6.77275">
        <ele>412.7</ele>
        <time>2017-07-30T08:50:51.999Z</time>
      </trkpt>
      <trkpt lat="47.57059" lon="6.77279">
        <ele>412.3</ele>
        <time>2017-07-30T08:50:52.999Z</time>
      </trkpt>
      <trkpt lat="47.57054" lon="6.77283">
        <ele>412.4</ele>
        <time>2017-07-30T08:50:53.999Z</time>
      </trkpt>
      <trkpt lat="47.57051" lon="6.77287">
        <ele>412</ele>
        <time>2017-07-30T08:50:54.999Z</time>
      </trkpt>
      <trkpt lat="47.57046" lon="6.77291">
        <ele>411.2</ele>
        <time>2017-07-30T08:50:55.999Z</time>
      </trkpt>
      <trkpt lat="47.57036" lon="6.77296">
        <ele>410.5</ele>
        <time>2017-07-30T08:50:56.999Z</time>
      </trkpt>
      <trkpt lat="47.57029" lon="6.773">
        <ele>409.7</ele>
        <time>2017-07-30T08:50:57.999Z</time>
      </trkpt>
      <trkpt lat="47.57026" lon="6.77305">
        <ele>409</ele>
        <time>2017-07-30T08:50:58.999Z</time>
      </trkpt>
      <trkpt lat="47.57023" lon="6.7731">
        <ele>408.4</ele>
        <time>2017-07-30T08:50:59.999Z</time>
      </trkpt>
      <trkpt lat="47.57019" lon="6.77319">
        <ele>408.2</ele>
        <time>2017-07-30T08:51:00.999Z</time>
      </trkpt>
      <trkpt lat="47.57014" lon="6.77324">
        <ele>407.9</ele>
        <time>2017-07-30T08:51:01.999Z</time>
      </trkpt>
      <trkpt lat="47.57006" lon="6.77327">
        <ele>407.8</ele>
        <time>2017-07-30T08:51:02.999Z</time>
      </trkpt>
      <trkpt lat="47.56998" lon="6.77327">
        <ele>407.6</ele>
        <time>2017-07-30T08:51:03.999Z</time>
      </trkpt>
      <trkpt lat="47.56991" lon="6.77331">
        <ele>407</ele>
        <time>2017-07-30T08:51:04.999Z</time>
      </trkpt>
      <trkpt lat="47.56984" lon="6.77332">
        <ele>407</ele>
        <time>2017-07-30T08:51:05.999Z</time>
      </trkpt>
      <trkpt lat="47.56977" lon="6.77333">
        <ele>407.2</ele>
        <time>2017-07-30T08:51:06.999Z</time>
      </trkpt>
      <trkpt lat="47.56968" lon="6.77335">
        <ele>407.3</ele>
        <time>2017-07-30T08:51:07.999Z</time>
      </trkpt>
      <trkpt lat="47.56958" lon="6.77336">
        <ele>407.7</ele>
        <time>2017-07-30T08:51:08.999Z</time>
      </trkpt>
      <trkpt lat="47.56952" lon="6.77336">
        <ele>407.8</ele>
        <time>2017-07-30T08:51:09.999Z</time>
      </trkpt>
      <trkpt lat="47.56949" lon="6.77335">
        <ele>407.8</ele>
        <time>2017-07-30T08:51:10.999Z</time>
      </trkpt>
      <trkpt lat="47.56946" lon="6.77334">
        <ele>407.8</ele>
        <time>2017-07-30T08:51:11.999Z</time>
      </trkpt>
      <trkpt lat="47.56941" lon="6.77335">
        <ele>406.4</ele>
        <time>2017-07-30T08:51:12.999Z</time>
      </trkpt>
      <trkpt lat="47.56937" lon="6.77335">
        <ele>404.5</ele>
        <time>2017-07-30T08:51:13.999Z</time>
      </trkpt>
      <trkpt lat="47.56932" lon="6.77335">
        <ele>404.5</ele>
        <time>2017-07-30T08:51:14.999Z</time>
      </trkpt>
      <trkpt lat="47.56928" lon="6.77333">
        <ele>404.3</ele>
        <time>2017-07-30T08:51:15.999Z</time>
      </trkpt>
      <trkpt lat="47.56923" lon="6.77331">
        <ele>404.3</ele>
        <time>2017-07-30T08:51:16.999Z</time>
      </trkpt>
      <trkpt lat="47.56914" lon="6.77323">
        <ele>402.9</ele>
        <time>2017-07-30T08:51:18.999Z</time>
      </trkpt>
      <trkpt lat="47.56908" lon="6.77318">
        <ele>402.3</ele>
        <time>2017-07-30T08:51:19.999Z</time>
      </trkpt>
      <trkpt lat="47.56903" lon="6.77314">
        <ele>402.1</ele>
        <time>2017-07-30T08:51:20.999Z</time>
      </trkpt>
      <trkpt lat="47.56896" lon="6.77309">
        <ele>401.6</ele>
        <time>2017-07-30T08:51:21.999Z</time>
      </trkpt>
      <trkpt lat="47.5689" lon="6.77303">
        <ele>400.5</ele>
        <time>2017-07-30T08:51:22.999Z</time>
      </trkpt>
      <trkpt lat="47.56884" lon="6.77298">
        <ele>400</ele>
        <time>2017-07-30T08:51:23.999Z</time>
      </trkpt>
      <trkpt lat="47.56877" lon="6.77293">
        <ele>399.3</ele>
        <time>2017-07-30T08:51:24.999Z</time>
      </trkpt>
      <trkpt lat="47.56872" lon="6.77289">
        <ele>398.9</ele>
        <time>2017-07-30T08:51:25.999Z</time>
      </trkpt>
      <trkpt lat="47.56866" lon="6.77285">
        <ele>398.7</ele>
        <time>2017-07-30T08:51:26.999Z</time>
      </trkpt>
      <trkpt lat="47.5686" lon="6.77281">
        <ele>398.8</ele>
        <time>2017-07-30T08:51:27.999Z</time>
      </trkpt>
      <trkpt lat="47.56854" lon="6.77277">
        <ele>398.8</ele>
        <time>2017-07-30T08:51:28.999Z</time>
      </trkpt>
      <trkpt lat="47.56849" lon="6.77273">
        <ele>398.9</ele>
        <time>2017-07-30T08:51:29.999Z</time>
      </trkpt>
      <trkpt lat="47.56844" lon="6.77269">
        <ele>398.9</ele>
        <time>2017-07-30T08:51:30.999Z</time>
      </trkpt>
      <trkpt lat="47.56838" lon="6.77265">
        <ele>399</ele>
        <time>2017-07-30T08:51:31.999Z</time>
      </trkpt>
      <trkpt lat="47.56834" lon="6.77263">
        <ele>399</ele>
        <time>2017-07-30T08:51:32.999Z</time>
      </trkpt>
      <trkpt lat="47.56829" lon="6.7726">
        <ele>398.5</ele>
        <time>2017-07-30T08:51:33.999Z</time>
      </trkpt>
      <trkpt lat="47.56824" lon="6.77257">
        <ele>397.5</ele>
        <time>2017-07-30T08:51:34.999Z</time>
      </trkpt>
      <trkpt lat="47.56818" lon="6.77254">
        <ele>396.5</ele>
        <time>2017-07-30T08:51:35.999Z</time>
      </trkpt>
      <trkpt lat="47.56812" lon="6.7725">
        <ele>396</ele>
        <time>2017-07-30T08:51:36.999Z</time>
      </trkpt>
      <trkpt lat="47.56806" lon="6.77247">
        <ele>395.3</ele>
        <time>2017-07-30T08:51:37.999Z</time>
      </trkpt>
      <trkpt lat="47.56801" lon="6.77245">
        <ele>394.2</ele>
        <time>2017-07-30T08:51:38.999Z</time>
      </trkpt>
      <trkpt lat="47.56797" lon="6.77242">
        <ele>392.8</ele>
        <time>2017-07-30T08:51:39.999Z</time>
      </trkpt>
      <trkpt lat="47.56793" lon="6.7724">
        <ele>391.3</ele>
        <time>2017-07-30T08:51:40.999Z</time>
      </trkpt>
      <trkpt lat="47.56789" lon="6.77237">
        <ele>390.3</ele>
        <time>2017-07-30T08:51:41.999Z</time>
      </trkpt>
      <trkpt lat="47.56784" lon="6.77235">
        <ele>390.2</ele>
        <time>2017-07-30T08:51:42.999Z</time>
      </trkpt>
      <trkpt lat="47.5678" lon="6.77234">
        <ele>389.2</ele>
        <time>2017-07-30T08:51:43.999Z</time>
      </trkpt>
      <trkpt lat="47.56775" lon="6.77232">
        <ele>388.3</ele>
        <time>2017-07-30T08:51:44.999Z</time>
      </trkpt>
      <trkpt lat="47.5677" lon="6.77231">
        <ele>387.6</ele>
        <time>2017-07-30T08:51:45.999Z</time>
      </trkpt>
      <trkpt lat="47.56766" lon="6.77229">
        <ele>386.9</ele>
        <time>2017-07-30T08:51:46.999Z</time>
      </trkpt>
      <trkpt lat="47.56761" lon="6.77227">
        <ele>387.1</ele>
        <time>2017-07-30T08:51:47.999Z</time>
      </trkpt>
      <trkpt lat="47.56758" lon="6.77225">
        <ele>387.2</ele>
        <time>2017-07-30T08:51:48.999Z</time>
      </trkpt>
      <trkpt lat="47.56754" lon="6.77223">
        <ele>387.1</ele>
        <time>2017-07-30T08:51:49.999Z</time>
      </trkpt>
      <trkpt lat="47.56749" lon="6.7722">
        <ele>387.5</ele>
        <time>2017-07-30T08:51:50.999Z</time>
      </trkpt>
      <trkpt lat="47.56745" lon="6.77217">
        <ele>387</ele>
        <time>2017-07-30T08:51:51.999Z</time>
      </trkpt>
      <trkpt lat="47.56744" lon="6.77212">
        <ele>387</ele>
        <time>2017-07-30T08:51:52.999Z</time>
      </trkpt>
      <trkpt lat="47.56742" lon="6.77205">
        <ele>387</ele>
        <time>2017-07-30T08:51:53.999Z</time>
      </trkpt>
      <trkpt lat="47.56738" lon="6.77198">
        <ele>386.9</ele>
        <time>2017-07-30T08:51:54.999Z</time>
      </trkpt>
      <trkpt lat="47.56734" lon="6.77192">
        <ele>386.2</ele>
        <time>2017-07-30T08:51:55.999Z</time>
      </trkpt>
      <trkpt lat="47.5673" lon="6.77185">
        <ele>385.1</ele>
        <time>2017-07-30T08:51:56.999Z</time>
      </trkpt>
      <trkpt lat="47.56727" lon="6.77178">
        <ele>383.7</ele>
        <time>2017-07-30T08:51:57.999Z</time>
      </trkpt>
      <trkpt lat="47.56724" lon="6.77171">
        <ele>383.1</ele>
        <time>2017-07-30T08:51:58.999Z</time>
      </trkpt>
      <trkpt lat="47.56722" lon="6.77166">
        <ele>382.6</ele>
        <time>2017-07-30T08:51:59.999Z</time>
      </trkpt>
      <trkpt lat="47.56722" lon="6.77162">
        <ele>382.6</ele>
        <time>2017-07-30T08:52:00.999Z</time>
      </trkpt>
      <trkpt lat="47.5672" lon="6.77158">
        <ele>382.5</ele>
        <time>2017-07-30T08:52:01.999Z</time>
      </trkpt>
      <trkpt lat="47.56718" lon="6.77156">
        <ele>382.5</ele>
        <time>2017-07-30T08:52:02.999Z</time>
      </trkpt>
      <trkpt lat="47.56715" lon="6.77152">
        <ele>382.3</ele>
        <time>2017-07-30T08:52:05.999Z</time>
      </trkpt>
      <trkpt lat="47.56715" lon="6.77151">
        <ele>382.3</ele>
        <time>2017-07-30T08:52:06.999Z</time>
      </trkpt>
      <trkpt lat="47.56713" lon="6.7715">
        <ele>381.9</ele>
        <time>2017-07-30T08:52:16.999Z</time>
      </trkpt>
      <trkpt lat="47.56707" lon="6.77152">
        <ele>381.8</ele>
        <time>2017-07-30T08:52:17.999Z</time>
      </trkpt>
      <trkpt lat="47.56704" lon="6.77157">
        <ele>380.5</ele>
        <time>2017-07-30T08:52:18.999Z</time>
      </trkpt>
      <trkpt lat="47.56701" lon="6.77164">
        <ele>379.2</ele>
        <time>2017-07-30T08:52:19.999Z</time>
      </trkpt>
      <trkpt lat="47.56699" lon="6.77171">
        <ele>378.1</ele>
        <time>2017-07-30T08:52:20.999Z</time>
      </trkpt>
      <trkpt lat="47.56698" lon="6.77178">
        <ele>377.3</ele>
        <time>2017-07-30T08:52:21.999Z</time>
      </trkpt>
      <trkpt lat="47.56695" lon="6.77182">
        <ele>377.4</ele>
        <time>2017-07-30T08:52:22.999Z</time>
      </trkpt>
      <trkpt lat="47.5669" lon="6.77193">
        <ele>377.2</ele>
        <time>2017-07-30T08:52:24.999Z</time>
      </trkpt>
      <trkpt lat="47.56685" lon="6.77198">
        <ele>376.2</ele>
        <time>2017-07-30T08:52:25.999Z</time>
      </trkpt>
      <trkpt lat="47.56679" lon="6.77204">
        <ele>376.6</ele>
        <time>2017-07-30T08:52:26.999Z</time>
      </trkpt>
      <trkpt lat="47.56675" lon="6.7721">
        <ele>375.9</ele>
        <time>2017-07-30T08:52:27.999Z</time>
      </trkpt>
      <trkpt lat="47.5667" lon="6.77216">
        <ele>375.8</ele>
        <time>2017-07-30T08:52:28.999Z</time>
      </trkpt>
      <trkpt lat="47.56666" lon="6.77222">
        <ele>376.4</ele>
        <time>2017-07-30T08:52:29.999Z</time>
      </trkpt>
      <trkpt lat="47.56662" lon="6.77227">
        <ele>376.3</ele>
        <time>2017-07-30T08:52:30.999Z</time>
      </trkpt>
      <trkpt lat="47.56658" lon="6.77233">
        <ele>377.1</ele>
        <time>2017-07-30T08:52:31.999Z</time>
      </trkpt>
      <trkpt lat="47.56653" lon="6.77239">
        <ele>377.1</ele>
        <time>2017-07-30T08:52:32.999Z</time>
      </trkpt>
      <trkpt lat="47.56648" lon="6.77245">
        <ele>377.2</ele>
        <time>2017-07-30T08:52:33.999Z</time>
      </trkpt>
      <trkpt lat="47.56643" lon="6.77251">
        <ele>376.9</ele>
        <time>2017-07-30T08:52:34.999Z</time>
      </trkpt>
      <trkpt lat="47.56638" lon="6.77257">
        <ele>377.2</ele>
        <time>2017-07-30T08:52:35.999Z</time>
      </trkpt>
      <trkpt lat="47.56634" lon="6.77263">
        <ele>378</ele>
        <time>2017-07-30T08:52:36.999Z</time>
      </trkpt>
      <trkpt lat="47.56629" lon="6.77269">
        <ele>378.2</ele>
        <time>2017-07-30T08:52:37.999Z</time>
      </trkpt>
      <trkpt lat="47.56625" lon="6.77276">
        <ele>378.2</ele>
        <time>2017-07-30T08:52:38.999Z</time>
      </trkpt>
      <trkpt lat="47.56621" lon="6.77283">
        <ele>378.1</ele>
        <time>2017-07-30T08:52:39.999Z</time>
      </trkpt>
      <trkpt lat="47.56616" lon="6.77291">
        <ele>377.7</ele>
        <time>2017-07-30T08:52:40.999Z</time>
      </trkpt>
      <trkpt lat="47.5661" lon="6.77299">
        <ele>377.6</ele>
        <time>2017-07-30T08:52:41.999Z</time>
      </trkpt>
      <trkpt lat="47.56605" lon="6.77306">
        <ele>377.6</ele>
        <time>2017-07-30T08:52:42.999Z</time>
      </trkpt>
      <trkpt lat="47.566" lon="6.77314">
        <ele>378.1</ele>
        <time>2017-07-30T08:52:43.999Z</time>
      </trkpt>
      <trkpt lat="47.56597" lon="6.7732">
        <ele>378.6</ele>
        <time>2017-07-30T08:52:44.999Z</time>
      </trkpt>
      <trkpt lat="47.56593" lon="6.77327">
        <ele>379.3</ele>
        <time>2017-07-30T08:52:45.999Z</time>
      </trkpt>
      <trkpt lat="47.56589" lon="6.77334">
        <ele>379.5</ele>
        <time>2017-07-30T08:52:46.999Z</time>
      </trkpt>
      <trkpt lat="47.56585" lon="6.77342">
        <ele>379.9</ele>
        <time>2017-07-30T08:52:47.999Z</time>
      </trkpt>
      <trkpt lat="47.56582" lon="6.77348">
        <ele>380.8</ele>
        <time>2017-07-30T08:52:48.999Z</time>
      </trkpt>
      <trkpt lat="47.56579" lon="6.77355">
        <ele>382</ele>
        <time>2017-07-30T08:52:49.999Z</time>
      </trkpt>
      <trkpt lat="47.56576" lon="6.77361">
        <ele>382.4</ele>
        <time>2017-07-30T08:52:50.999Z</time>
      </trkpt>
      <trkpt lat="47.56572" lon="6.77366">
        <ele>382.1</ele>
        <time>2017-07-30T08:52:51.999Z</time>
      </trkpt>
      <trkpt lat="47.56569" lon="6.77371">
        <ele>382.2</ele>
        <time>2017-07-30T08:52:52.999Z</time>
      </trkpt>
      <trkpt lat="47.56566" lon="6.77376">
        <ele>382.1</ele>
        <time>2017-07-30T08:52:53.999Z</time>
      </trkpt>
      <trkpt lat="47.56562" lon="6.77381">
        <ele>381.9</ele>
        <time>2017-07-30T08:52:54.999Z</time>
      </trkpt>
      <trkpt lat="47.56559" lon="6.77386">
        <ele>381.7</ele>
        <time>2017-07-30T08:52:55.999Z</time>
      </trkpt>
      <trkpt lat="47.56555" lon="6.77391">
        <ele>381.9</ele>
        <time>2017-07-30T08:52:56.999Z</time>
      </trkpt>
      <trkpt lat="47.56552" lon="6.77396">
        <ele>381.9</ele>
        <time>2017-07-30T08:52:57.999Z</time>
      </trkpt>
      <trkpt lat="47.56549" lon="6.774">
        <ele>382</ele>
        <time>2017-07-30T08:52:58.999Z</time>
      </trkpt>
      <trkpt lat="47.56547" lon="6.77403">
        <ele>382</ele>
        <time>2017-07-30T08:52:59.999Z</time>
      </trkpt>
      <trkpt lat="47.56546" lon="6.77408">
        <ele>382</ele>
        <time>2017-07-30T08:53:00.999Z</time>
      </trkpt>
      <trkpt lat="47.56543" lon="6.77412">
        <ele>381.8</ele>
        <time>2017-07-30T08:53:01.999Z</time>
      </trkpt>
      <trkpt lat="47.56539" lon="6.77417">
        <ele>381.2</ele>
        <time>2017-07-30T08:53:02.999Z</time>
      </trkpt>
      <trkpt lat="47.56536" lon="6.77422">
        <ele>381.2</ele>
        <time>2017-07-30T08:53:03.999Z</time>
      </trkpt>
      <trkpt lat="47.56533" lon="6.77427">
        <ele>381.2</ele>
        <time>2017-07-30T08:53:04.999Z</time>
      </trkpt>
      <trkpt lat="47.56529" lon="6.77433">
        <ele>381.9</ele>
        <time>2017-07-30T08:53:05.999Z</time>
      </trkpt>
      <trkpt lat="47.56526" lon="6.77438">
        <ele>382.1</ele>
        <time>2017-07-30T08:53:06.999Z</time>
      </trkpt>
      <trkpt lat="47.56523" lon="6.77443">
        <ele>382.3</ele>
        <time>2017-07-30T08:53:07.999Z</time>
      </trkpt>
      <trkpt lat="47.5652" lon="6.77449">
        <ele>382.5</ele>
        <time>2017-07-30T08:53:08.999Z</time>
      </trkpt>
      <trkpt lat="47.56517" lon="6.77454">
        <ele>384.5</ele>
        <time>2017-07-30T08:53:09.999Z</time>
      </trkpt>
      <trkpt lat="47.56514" lon="6.77459">
        <ele>385.6</ele>
        <time>2017-07-30T08:53:10.999Z</time>
      </trkpt>
      <trkpt lat="47.5651" lon="6.77463">
        <ele>386.9</ele>
        <time>2017-07-30T08:53:11.999Z</time>
      </trkpt>
      <trkpt lat="47.56507" lon="6.77467">
        <ele>386.9</ele>
        <time>2017-07-30T08:53:12.999Z</time>
      </trkpt>
      <trkpt lat="47.56505" lon="6.7747">
        <ele>387</ele>
        <time>2017-07-30T08:53:13.999Z</time>
      </trkpt>
      <trkpt lat="47.56501" lon="6.77472">
        <ele>387</ele>
        <time>2017-07-30T08:53:14.999Z</time>
      </trkpt>
      <trkpt lat="47.56497" lon="6.77475">
        <ele>386.9</ele>
        <time>2017-07-30T08:53:15.999Z</time>
      </trkpt>
      <trkpt lat="47.56492" lon="6.77477">
        <ele>387</ele>
        <time>2017-07-30T08:53:16.999Z</time>
      </trkpt>
      <trkpt lat="47.56488" lon="6.77481">
        <ele>387.3</ele>
        <time>2017-07-30T08:53:17.999Z</time>
      </trkpt>
      <trkpt lat="47.56483" lon="6.77484">
        <ele>387.8</ele>
        <time>2017-07-30T08:53:18.999Z</time>
      </trkpt>
      <trkpt lat="47.56478" lon="6.77488">
        <ele>387.5</ele>
        <time>2017-07-30T08:53:19.999Z</time>
      </trkpt>
      <trkpt lat="47.56472" lon="6.77493">
        <ele>387.5</ele>
        <time>2017-07-30T08:53:20.999Z</time>
      </trkpt>
      <trkpt lat="47.56466" lon="6.77497">
        <ele>387.6</ele>
        <time>2017-07-30T08:53:21.999Z</time>
      </trkpt>
      <trkpt lat="47.56461" lon="6.77502">
        <ele>387.6</ele>
        <time>2017-07-30T08:53:22.999Z</time>
      </trkpt>
      <trkpt lat="47.56456" lon="6.77505">
        <ele>387</ele>
        <time>2017-07-30T08:53:23.999Z</time>
      </trkpt>
      <trkpt lat="47.56451" lon="6.77509">
        <ele>386.8</ele>
        <time>2017-07-30T08:53:24.999Z</time>
      </trkpt>
      <trkpt lat="47.56447" lon="6.77514">
        <ele>387.1</ele>
        <time>2017-07-30T08:53:25.999Z</time>
      </trkpt>
      <trkpt lat="47.56444" lon="6.77518">
        <ele>387.6</ele>
        <time>2017-07-30T08:53:26.999Z</time>
      </trkpt>
      <trkpt lat="47.56439" lon="6.77523">
        <ele>387.9</ele>
        <time>2017-07-30T08:53:27.999Z</time>
      </trkpt>
      <trkpt lat="47.56434" lon="6.77527">
        <ele>387.9</ele>
        <time>2017-07-30T08:53:28.999Z</time>
      </trkpt>
      <trkpt lat="47.56429" lon="6.77531">
        <ele>387.1</ele>
        <time>2017-07-30T08:53:29.999Z</time>
      </trkpt>
      <trkpt lat="47.56425" lon="6.77536">
        <ele>386.4</ele>
        <time>2017-07-30T08:53:30.999Z</time>
      </trkpt>
      <trkpt lat="47.56421" lon="6.77541">
        <ele>385.6</ele>
        <time>2017-07-30T08:53:31.999Z</time>
      </trkpt>
      <trkpt lat="47.56417" lon="6.77546">
        <ele>384.4</ele>
        <time>2017-07-30T08:53:32.999Z</time>
      </trkpt>
      <trkpt lat="47.56413" lon="6.7755">
        <ele>383.1</ele>
        <time>2017-07-30T08:53:33.999Z</time>
      </trkpt>
      <trkpt lat="47.56408" lon="6.77555">
        <ele>382.6</ele>
        <time>2017-07-30T08:53:34.999Z</time>
      </trkpt>
      <trkpt lat="47.56402" lon="6.77559">
        <ele>382.4</ele>
        <time>2017-07-30T08:53:35.999Z</time>
      </trkpt>
      <trkpt lat="47.56397" lon="6.77563">
        <ele>382.5</ele>
        <time>2017-07-30T08:53:36.999Z</time>
      </trkpt>
      <trkpt lat="47.56393" lon="6.77566">
        <ele>382.5</ele>
        <time>2017-07-30T08:53:37.999Z</time>
      </trkpt>
      <trkpt lat="47.56389" lon="6.77569">
        <ele>382.4</ele>
        <time>2017-07-30T08:53:38.999Z</time>
      </trkpt>
      <trkpt lat="47.56384" lon="6.77572">
        <ele>383.1</ele>
        <time>2017-07-30T08:53:39.999Z</time>
      </trkpt>
      <trkpt lat="47.56379" lon="6.77576">
        <ele>383.8</ele>
        <time>2017-07-30T08:53:40.999Z</time>
      </trkpt>
      <trkpt lat="47.56373" lon="6.77576">
        <ele>384.5</ele>
        <time>2017-07-30T08:53:41.999Z</time>
      </trkpt>
      <trkpt lat="47.56368" lon="6.77575">
        <ele>384.8</ele>
        <time>2017-07-30T08:53:42.999Z</time>
      </trkpt>
      <trkpt lat="47.56363" lon="6.77574">
        <ele>385.1</ele>
        <time>2017-07-30T08:53:43.999Z</time>
      </trkpt>
      <trkpt lat="47.56356" lon="6.77572">
        <ele>385.6</ele>
        <time>2017-07-30T08:53:44.999Z</time>
      </trkpt>
      <trkpt lat="47.5635" lon="6.7757">
        <ele>386.2</ele>
        <time>2017-07-30T08:53:45.999Z</time>
      </trkpt>
      <trkpt lat="47.56345" lon="6.77567">
        <ele>385.9</ele>
        <time>2017-07-30T08:53:46.999Z</time>
      </trkpt>
      <trkpt lat="47.56339" lon="6.77564">
        <ele>385.9</ele>
        <time>2017-07-30T08:53:47.999Z</time>
      </trkpt>
      <trkpt lat="47.56334" lon="6.77563">
        <ele>385.9</ele>
        <time>2017-07-30T08:53:48.999Z</time>
      </trkpt>
      <trkpt lat="47.56327" lon="6.77562">
        <ele>385.3</ele>
        <time>2017-07-30T08:53:49.999Z</time>
      </trkpt>
      <trkpt lat="47.56321" lon="6.77562">
        <ele>384.9</ele>
        <time>2017-07-30T08:53:50.999Z</time>
      </trkpt>
      <trkpt lat="47.56315" lon="6.77562">
        <ele>384.7</ele>
        <time>2017-07-30T08:53:51.999Z</time>
      </trkpt>
      <trkpt lat="47.56309" lon="6.77562">
        <ele>384.9</ele>
        <time>2017-07-30T08:53:52.999Z</time>
      </trkpt>
      <trkpt lat="47.56303" lon="6.77562">
        <ele>384.3</ele>
        <time>2017-07-30T08:53:53.999Z</time>
      </trkpt>
      <trkpt lat="47.56298" lon="6.77559">
        <ele>383.9</ele>
        <time>2017-07-30T08:53:54.999Z</time>
      </trkpt>
      <trkpt lat="47.56291" lon="6.77555">
        <ele>384</ele>
        <time>2017-07-30T08:53:55.999Z</time>
      </trkpt>
      <trkpt lat="47.56286" lon="6.77552">
        <ele>383.7</ele>
        <time>2017-07-30T08:53:56.999Z</time>
      </trkpt>
      <trkpt lat="47.56281" lon="6.77548">
        <ele>384</ele>
        <time>2017-07-30T08:53:57.999Z</time>
      </trkpt>
      <trkpt lat="47.56277" lon="6.77545">
        <ele>384.1</ele>
        <time>2017-07-30T08:53:58.999Z</time>
      </trkpt>
      <trkpt lat="47.56273" lon="6.77541">
        <ele>384.7</ele>
        <time>2017-07-30T08:53:59.999Z</time>
      </trkpt>
      <trkpt lat="47.56268" lon="6.77537">
        <ele>384.2</ele>
        <time>2017-07-30T08:54:00.999Z</time>
      </trkpt>
      <trkpt lat="47.56264" lon="6.77533">
        <ele>383.4</ele>
        <time>2017-07-30T08:54:01.999Z</time>
      </trkpt>
      <trkpt lat="47.56259" lon="6.77529">
        <ele>383.4</ele>
        <time>2017-07-30T08:54:02.999Z</time>
      </trkpt>
      <trkpt lat="47.56255" lon="6.77525">
        <ele>383.1</ele>
        <time>2017-07-30T08:54:03.999Z</time>
      </trkpt>
      <trkpt lat="47.56252" lon="6.77522">
        <ele>383.1</ele>
        <time>2017-07-30T08:54:04.999Z</time>
      </trkpt>
      <trkpt lat="47.56248" lon="6.77518">
        <ele>383.2</ele>
        <time>2017-07-30T08:54:05.999Z</time>
      </trkpt>
      <trkpt lat="47.56243" lon="6.77513">
        <ele>383.7</ele>
        <time>2017-07-30T08:54:06.999Z</time>
      </trkpt>
      <trkpt lat="47.56239" lon="6.77508">
        <ele>383.5</ele>
        <time>2017-07-30T08:54:07.999Z</time>
      </trkpt>
      <trkpt lat="47.56236" lon="6.77503">
        <ele>383.5</ele>
        <time>2017-07-30T08:54:08.999Z</time>
      </trkpt>
      <trkpt lat="47.56232" lon="6.77498">
        <ele>382.7</ele>
        <time>2017-07-30T08:54:09.999Z</time>
      </trkpt>
      <trkpt lat="47.56227" lon="6.77494">
        <ele>383</ele>
        <time>2017-07-30T08:54:10.999Z</time>
      </trkpt>
      <trkpt lat="47.56223" lon="6.7749">
        <ele>382.4</ele>
        <time>2017-07-30T08:54:11.999Z</time>
      </trkpt>
      <trkpt lat="47.5622" lon="6.77487">
        <ele>382.4</ele>
        <time>2017-07-30T08:54:12.999Z</time>
      </trkpt>
      <trkpt lat="47.56216" lon="6.77484">
        <ele>382.5</ele>
        <time>2017-07-30T08:54:13.999Z</time>
      </trkpt>
      <trkpt lat="47.56213" lon="6.7748">
        <ele>382.7</ele>
        <time>2017-07-30T08:54:14.999Z</time>
      </trkpt>
      <trkpt lat="47.56209" lon="6.77477">
        <ele>382.5</ele>
        <time>2017-07-30T08:54:15.999Z</time>
      </trkpt>
      <trkpt lat="47.56206" lon="6.77473">
        <ele>381.6</ele>
        <time>2017-07-30T08:54:16.999Z</time>
      </trkpt>
      <trkpt lat="47.56203" lon="6.77468">
        <ele>380.7</ele>
        <time>2017-07-30T08:54:17.999Z</time>
      </trkpt>
      <trkpt lat="47.56199" lon="6.77462">
        <ele>379.8</ele>
        <time>2017-07-30T08:54:18.999Z</time>
      </trkpt>
      <trkpt lat="47.56196" lon="6.77458">
        <ele>378.9</ele>
        <time>2017-07-30T08:54:19.999Z</time>
      </trkpt>
      <trkpt lat="47.56192" lon="6.77453">
        <ele>377.2</ele>
        <time>2017-07-30T08:54:20.999Z</time>
      </trkpt>
      <trkpt lat="47.56188" lon="6.77449">
        <ele>376</ele>
        <time>2017-07-30T08:54:21.999Z</time>
      </trkpt>
      <trkpt lat="47.56186" lon="6.77445">
        <ele>375.4</ele>
        <time>2017-07-30T08:54:22.999Z</time>
      </trkpt>
      <trkpt lat="47.56183" lon="6.77442">
        <ele>375.4</ele>
        <time>2017-07-30T08:54:23.999Z</time>
      </trkpt>
      <trkpt lat="47.56179" lon="6.77438">
        <ele>375.9</ele>
        <time>2017-07-30T08:54:24.999Z</time>
      </trkpt>
      <trkpt lat="47.56177" lon="6.77436">
        <ele>376</ele>
        <time>2017-07-30T08:54:25.999Z</time>
      </trkpt>
      <trkpt lat="47.56175" lon="6.77434">
        <ele>376.1</ele>
        <time>2017-07-30T08:54:26.999Z</time>
      </trkpt>
      <trkpt lat="47.56173" lon="6.77431">
        <ele>376.3</ele>
        <time>2017-07-30T08:54:27.999Z</time>
      </trkpt>
      <trkpt lat="47.5617" lon="6.77428">
        <ele>376.5</ele>
        <time>2017-07-30T08:54:28.999Z</time>
      </trkpt>
      <trkpt lat="47.56167" lon="6.77425">
        <ele>378.9</ele>
        <time>2017-07-30T08:54:29.999Z</time>
      </trkpt>
      <trkpt lat="47.56164" lon="6.77422">
        <ele>379</ele>
        <time>2017-07-30T08:54:30.999Z</time>
      </trkpt>
      <trkpt lat="47.56162" lon="6.7742">
        <ele>379.2</ele>
        <time>2017-07-30T08:54:31.999Z</time>
      </trkpt>
      <trkpt lat="47.56159" lon="6.77418">
        <ele>379.5</ele>
        <time>2017-07-30T08:54:32.999Z</time>
      </trkpt>
      <trkpt lat="47.56156" lon="6.77415">
        <ele>379.7</ele>
        <time>2017-07-30T08:54:33.999Z</time>
      </trkpt>
      <trkpt lat="47.56153" lon="6.77413">
        <ele>379.8</ele>
        <time>2017-07-30T08:54:34.999Z</time>
      </trkpt>
      <trkpt lat="47.56151" lon="6.7741">
        <ele>380</ele>
        <time>2017-07-30T08:54:35.999Z</time>
      </trkpt>
      <trkpt lat="47.56148" lon="6.77407">
        <ele>380</ele>
        <time>2017-07-30T08:54:36.999Z</time>
      </trkpt>
      <trkpt lat="47.56144" lon="6.77404">
        <ele>380.1</ele>
        <time>2017-07-30T08:54:37.999Z</time>
      </trkpt>
      <trkpt lat="47.56142" lon="6.77402">
        <ele>380.1</ele>
        <time>2017-07-30T08:54:38.999Z</time>
      </trkpt>
      <trkpt lat="47.5614" lon="6.77399">
        <ele>380.2</ele>
        <time>2017-07-30T08:54:39.999Z</time>
      </trkpt>
      <trkpt lat="47.56137" lon="6.77397">
        <ele>380.2</ele>
        <time>2017-07-30T08:54:40.999Z</time>
      </trkpt>
      <trkpt lat="47.56134" lon="6.77394">
        <ele>380</ele>
        <time>2017-07-30T08:54:42.999Z</time>
      </trkpt>
      <trkpt lat="47.56132" lon="6.77393">
        <ele>380</ele>
        <time>2017-07-30T08:54:43.999Z</time>
      </trkpt>
      <trkpt lat="47.5613" lon="6.77391">
        <ele>380</ele>
        <time>2017-07-30T08:54:44.999Z</time>
      </trkpt>
      <trkpt lat="47.56128" lon="6.77389">
        <ele>380</ele>
        <time>2017-07-30T08:54:45.999Z</time>
      </trkpt>
      <trkpt lat="47.56126" lon="6.77386">
        <ele>380</ele>
        <time>2017-07-30T08:54:46.999Z</time>
      </trkpt>
      <trkpt lat="47.56124" lon="6.77383">
        <ele>380</ele>
        <time>2017-07-30T08:54:47.999Z</time>
      </trkpt>
      <trkpt lat="47.56123" lon="6.77379">
        <ele>380</ele>
        <time>2017-07-30T08:54:48.999Z</time>
      </trkpt>
      <trkpt lat="47.56122" lon="6.77376">
        <ele>380</ele>
        <time>2017-07-30T08:54:49.999Z</time>
      </trkpt>
      <trkpt lat="47.5612" lon="6.77371">
        <ele>380</ele>
        <time>2017-07-30T08:54:51.999Z</time>
      </trkpt>
      <trkpt lat="47.56119" lon="6.77369">
        <ele>380.1</ele>
        <time>2017-07-30T08:54:52.999Z</time>
      </trkpt>
      <trkpt lat="47.56116" lon="6.77365">
        <ele>380.1</ele>
        <time>2017-07-30T08:54:54.999Z</time>
      </trkpt>
      <trkpt lat="47.56114" lon="6.77363">
        <ele>380.3</ele>
        <time>2017-07-30T08:54:55.999Z</time>
      </trkpt>
      <trkpt lat="47.5611" lon="6.77363">
        <ele>380.7</ele>
        <time>2017-07-30T08:54:57.999Z</time>
      </trkpt>
      <trkpt lat="47.56108" lon="6.77363">
        <ele>381</ele>
        <time>2017-07-30T08:54:58.999Z</time>
      </trkpt>
      <trkpt lat="47.56105" lon="6.77363">
        <ele>381.2</ele>
        <time>2017-07-30T08:54:59.999Z</time>
      </trkpt>
      <trkpt lat="47.56103" lon="6.77363">
        <ele>381.4</ele>
        <time>2017-07-30T08:55:00.999Z</time>
      </trkpt>
      <trkpt lat="47.56101" lon="6.77362">
        <ele>381.7</ele>
        <time>2017-07-30T08:55:01.999Z</time>
      </trkpt>
      <trkpt lat="47.56098" lon="6.77362">
        <ele>382</ele>
        <time>2017-07-30T08:55:02.999Z</time>
      </trkpt>
      <trkpt lat="47.56095" lon="6.7736">
        <ele>382.3</ele>
        <time>2017-07-30T08:55:03.999Z</time>
      </trkpt>
      <trkpt lat="47.56093" lon="6.77359">
        <ele>382.5</ele>
        <time>2017-07-30T08:55:04.999Z</time>
      </trkpt>
      <trkpt lat="47.5609" lon="6.77358">
        <ele>382.8</ele>
        <time>2017-07-30T08:55:05.999Z</time>
      </trkpt>
      <trkpt lat="47.56087" lon="6.77357">
        <ele>383.1</ele>
        <time>2017-07-30T08:55:06.999Z</time>
      </trkpt>
      <trkpt lat="47.56085" lon="6.77356">
        <ele>383.4</ele>
        <time>2017-07-30T08:55:07.999Z</time>
      </trkpt>
      <trkpt lat="47.56083" lon="6.77353">
        <ele>383.6</ele>
        <time>2017-07-30T08:55:08.999Z</time>
      </trkpt>
      <trkpt lat="47.56081" lon="6.7735">
        <ele>383.9</ele>
        <time>2017-07-30T08:55:09.999Z</time>
      </trkpt>
      <trkpt lat="47.56079" lon="6.77348">
        <ele>384.1</ele>
        <time>2017-07-30T08:55:10.999Z</time>
      </trkpt>
      <trkpt lat="47.56076" lon="6.77345">
        <ele>384.6</ele>
        <time>2017-07-30T08:55:12.999Z</time>
      </trkpt>
      <trkpt lat="47.56075" lon="6.77343">
        <ele>384.4</ele>
        <time>2017-07-30T08:55:13.999Z</time>
      </trkpt>
      <trkpt lat="47.56071" lon="6.77339">
        <ele>384.2</ele>
        <time>2017-07-30T08:55:14.999Z</time>
      </trkpt>
      <trkpt lat="47.56068" lon="6.77335">
        <ele>383.9</ele>
        <time>2017-07-30T08:55:15.999Z</time>
      </trkpt>
      <trkpt lat="47.56066" lon="6.7733">
        <ele>383.6</ele>
        <time>2017-07-30T08:55:16.999Z</time>
      </trkpt>
      <trkpt lat="47.56064" lon="6.77324">
        <ele>383.4</ele>
        <time>2017-07-30T08:55:17.999Z</time>
      </trkpt>
      <trkpt lat="47.56062" lon="6.7732">
        <ele>383.3</ele>
        <time>2017-07-30T08:55:18.999Z</time>
      </trkpt>
      <trkpt lat="47.5606" lon="6.77317">
        <ele>383.2</ele>
        <time>2017-07-30T08:55:19.999Z</time>
      </trkpt>
      <trkpt lat="47.56057" lon="6.77316">
        <ele>383.3</ele>
        <time>2017-07-30T08:55:20.999Z</time>
      </trkpt>
      <trkpt lat="47.56054" lon="6.77313">
        <ele>383.4</ele>
        <time>2017-07-30T08:55:21.999Z</time>
      </trkpt>
      <trkpt lat="47.56053" lon="6.7731">
        <ele>383.5</ele>
        <time>2017-07-30T08:55:22.999Z</time>
      </trkpt>
      <trkpt lat="47.56051" lon="6.77307">
        <ele>383.6</ele>
        <time>2017-07-30T08:55:23.999Z</time>
      </trkpt>
      <trkpt lat="47.5605" lon="6.77305">
        <ele>383.8</ele>
        <time>2017-07-30T08:55:24.999Z</time>
      </trkpt>
      <trkpt lat="47.5605" lon="6.773">
        <ele>383.9</ele>
        <time>2017-07-30T08:55:25.999Z</time>
      </trkpt>
      <trkpt lat="47.56049" lon="6.77296">
        <ele>384</ele>
        <time>2017-07-30T08:55:26.999Z</time>
      </trkpt>
      <trkpt lat="47.56048" lon="6.77291">
        <ele>384.2</ele>
        <time>2017-07-30T08:55:27.999Z</time>
      </trkpt>
      <trkpt lat="47.56047" lon="6.77287">
        <ele>384.3</ele>
        <time>2017-07-30T08:55:28.999Z</time>
      </trkpt>
      <trkpt lat="47.56045" lon="6.77284">
        <ele>384.5</ele>
        <time>2017-07-30T08:55:29.999Z</time>
      </trkpt>
      <trkpt lat="47.56043" lon="6.7728">
        <ele>384.7</ele>
        <time>2017-07-30T08:55:30.999Z</time>
      </trkpt>
      <trkpt lat="47.56041" lon="6.77276">
        <ele>384.8</ele>
        <time>2017-07-30T08:55:31.999Z</time>
      </trkpt>
      <trkpt lat="47.56039" lon="6.77274">
        <ele>385</ele>
        <time>2017-07-30T08:55:32.999Z</time>
      </trkpt>
      <trkpt lat="47.56036" lon="6.77273">
        <ele>385</ele>
        <time>2017-07-30T08:55:33.999Z</time>
      </trkpt>
      <trkpt lat="47.56033" lon="6.77272">
        <ele>385.1</ele>
        <time>2017-07-30T08:55:34.999Z</time>
      </trkpt>
      <trkpt lat="47.5603" lon="6.77272">
        <ele>385.3</ele>
        <time>2017-07-30T08:55:35.999Z</time>
      </trkpt>
      <trkpt lat="47.56026" lon="6.77273">
        <ele>385.6</ele>
        <time>2017-07-30T08:55:37.999Z</time>
      </trkpt>
      <trkpt lat="47.56023" lon="6.77275">
        <ele>385.8</ele>
        <time>2017-07-30T08:55:38.999Z</time>
      </trkpt>
      <trkpt lat="47.56021" lon="6.77277">
        <ele>385.9</ele>
        <time>2017-07-30T08:55:39.999Z</time>
      </trkpt>
      <trkpt lat="47.5602" lon="6.7728">
        <ele>386</ele>
        <time>2017-07-30T08:55:40.999Z</time>
      </trkpt>
      <trkpt lat="47.56016" lon="6.77282">
        <ele>386.3</ele>
        <time>2017-07-30T08:55:42.999Z</time>
      </trkpt>
      <trkpt lat="47.56012" lon="6.77282">
        <ele>387</ele>
        <time>2017-07-30T08:55:43.999Z</time>
      </trkpt>
      <trkpt lat="47.56009" lon="6.77282">
        <ele>387</ele>
        <time>2017-07-30T08:55:44.999Z</time>
      </trkpt>
      <trkpt lat="47.56006" lon="6.77282">
        <ele>387.2</ele>
        <time>2017-07-30T08:55:45.999Z</time>
      </trkpt>
      <trkpt lat="47.56003" lon="6.77282">
        <ele>387.3</ele>
        <time>2017-07-30T08:55:46.999Z</time>
      </trkpt>
      <trkpt lat="47.55999" lon="6.77283">
        <ele>387.4</ele>
        <time>2017-07-30T08:55:47.999Z</time>
      </trkpt>
      <trkpt lat="47.55996" lon="6.77285">
        <ele>387.5</ele>
        <time>2017-07-30T08:55:48.999Z</time>
      </trkpt>
      <trkpt lat="47.55993" lon="6.77286">
        <ele>387.7</ele>
        <time>2017-07-30T08:55:49.999Z</time>
      </trkpt>
      <trkpt lat="47.55989" lon="6.77286">
        <ele>387.9</ele>
        <time>2017-07-30T08:55:50.999Z</time>
      </trkpt>
      <trkpt lat="47.55986" lon="6.77287">
        <ele>388.1</ele>
        <time>2017-07-30T08:55:51.999Z</time>
      </trkpt>
      <trkpt lat="47.55983" lon="6.77287">
        <ele>388.3</ele>
        <time>2017-07-30T08:55:52.999Z</time>
      </trkpt>
      <trkpt lat="47.55979" lon="6.77288">
        <ele>388.5</ele>
        <time>2017-07-30T08:55:53.999Z</time>
      </trkpt>
      <trkpt lat="47.55976" lon="6.77289">
        <ele>388.8</ele>
        <time>2017-07-30T08:55:54.999Z</time>
      </trkpt>
      <trkpt lat="47.55974" lon="6.77291">
        <ele>389</ele>
        <time>2017-07-30T08:55:55.999Z</time>
      </trkpt>
      <trkpt lat="47.55971" lon="6.77293">
        <ele>389.2</ele>
        <time>2017-07-30T08:55:56.999Z</time>
      </trkpt>
      <trkpt lat="47.55968" lon="6.77294">
        <ele>389.4</ele>
        <time>2017-07-30T08:55:57.999Z</time>
      </trkpt>
      <trkpt lat="47.55965" lon="6.77295">
        <ele>389.6</ele>
        <time>2017-07-30T08:55:58.999Z</time>
      </trkpt>
      <trkpt lat="47.55961" lon="6.77296">
        <ele>389.8</ele>
        <time>2017-07-30T08:55:59.999Z</time>
      </trkpt>
      <trkpt lat="47.55958" lon="6.77297">
        <ele>390</ele>
        <time>2017-07-30T08:56:00.999Z</time>
      </trkpt>
      <trkpt lat="47.55955" lon="6.77297">
        <ele>390.1</ele>
        <time>2017-07-30T08:56:01.999Z</time>
      </trkpt>
      <trkpt lat="47.55952" lon="6.77298">
        <ele>390.2</ele>
        <time>2017-07-30T08:56:02.999Z</time>
      </trkpt>
      <trkpt lat="47.55949" lon="6.77299">
        <ele>390.3</ele>
        <time>2017-07-30T08:56:03.999Z</time>
      </trkpt>
      <trkpt lat="47.55946" lon="6.77299">
        <ele>390.4</ele>
        <time>2017-07-30T08:56:04.999Z</time>
      </trkpt>
      <trkpt lat="47.55943" lon="6.773">
        <ele>390.5</ele>
        <time>2017-07-30T08:56:05.999Z</time>
      </trkpt>
      <trkpt lat="47.5594" lon="6.77301">
        <ele>390.6</ele>
        <time>2017-07-30T08:56:06.999Z</time>
      </trkpt>
      <trkpt lat="47.55938" lon="6.77302">
        <ele>390.6</ele>
        <time>2017-07-30T08:56:07.999Z</time>
      </trkpt>
      <trkpt lat="47.55935" lon="6.77304">
        <ele>390.6</ele>
        <time>2017-07-30T08:56:08.999Z</time>
      </trkpt>
      <trkpt lat="47.55932" lon="6.77304">
        <ele>390.5</ele>
        <time>2017-07-30T08:56:09.999Z</time>
      </trkpt>
      <trkpt lat="47.55929" lon="6.77304">
        <ele>390.5</ele>
        <time>2017-07-30T08:56:10.999Z</time>
      </trkpt>
      <trkpt lat="47.55925" lon="6.77305">
        <ele>390.5</ele>
        <time>2017-07-30T08:56:11.999Z</time>
      </trkpt>
      <trkpt lat="47.55921" lon="6.77306">
        <ele>390.6</ele>
        <time>2017-07-30T08:56:12.999Z</time>
      </trkpt>
      <trkpt lat="47.55918" lon="6.77307">
        <ele>390.7</ele>
        <time>2017-07-30T08:56:13.999Z</time>
      </trkpt>
      <trkpt lat="47.55915" lon="6.77309">
        <ele>390.7</ele>
        <time>2017-07-30T08:56:14.999Z</time>
      </trkpt>
      <trkpt lat="47.55911" lon="6.77311">
        <ele>390.8</ele>
        <time>2017-07-30T08:56:15.999Z</time>
      </trkpt>
      <trkpt lat="47.55908" lon="6.77311">
        <ele>390.9</ele>
        <time>2017-07-30T08:56:16.999Z</time>
      </trkpt>
      <trkpt lat="47.55904" lon="6.77312">
        <ele>391.1</ele>
        <time>2017-07-30T08:56:17.999Z</time>
      </trkpt>
      <trkpt lat="47.55902" lon="6.77313">
        <ele>391.2</ele>
        <time>2017-07-30T08:56:18.999Z</time>
      </trkpt>
      <trkpt lat="47.55899" lon="6.77314">
        <ele>391.3</ele>
        <time>2017-07-30T08:56:19.999Z</time>
      </trkpt>
      <trkpt lat="47.55896" lon="6.77315">
        <ele>391.5</ele>
        <time>2017-07-30T08:56:20.999Z</time>
      </trkpt>
      <trkpt lat="47.55892" lon="6.77315">
        <ele>391.7</ele>
        <time>2017-07-30T08:56:22.999Z</time>
      </trkpt>
      <trkpt lat="47.5589" lon="6.77316">
        <ele>391.8</ele>
        <time>2017-07-30T08:56:23.999Z</time>
      </trkpt>
      <trkpt lat="47.55886" lon="6.77317">
        <ele>392.2</ele>
        <time>2017-07-30T08:56:25.999Z</time>
      </trkpt>
      <trkpt lat="47.55883" lon="6.77317">
        <ele>392.5</ele>
        <time>2017-07-30T08:56:26.999Z</time>
      </trkpt>
      <trkpt lat="47.55881" lon="6.77317">
        <ele>392.7</ele>
        <time>2017-07-30T08:56:27.999Z</time>
      </trkpt>
      <trkpt lat="47.55878" lon="6.77316">
        <ele>392.9</ele>
        <time>2017-07-30T08:56:28.999Z</time>
      </trkpt>
      <trkpt lat="47.55874" lon="6.77315">
        <ele>393.4</ele>
        <time>2017-07-30T08:56:30.999Z</time>
      </trkpt>
      <trkpt lat="47.55872" lon="6.77314">
        <ele>393.7</ele>
        <time>2017-07-30T08:56:31.999Z</time>
      </trkpt>
      <trkpt lat="47.55868" lon="6.77312">
        <ele>394</ele>
        <time>2017-07-30T08:56:33.999Z</time>
      </trkpt>
      <trkpt lat="47.55866" lon="6.77312">
        <ele>394.2</ele>
        <time>2017-07-30T08:56:34.999Z</time>
      </trkpt>
      <trkpt lat="47.55864" lon="6.77313">
        <ele>394.5</ele>
        <time>2017-07-30T08:56:35.999Z</time>
      </trkpt>
      <trkpt lat="47.55861" lon="6.77313">
        <ele>394.8</ele>
        <time>2017-07-30T08:56:36.999Z</time>
      </trkpt>
      <trkpt lat="47.55857" lon="6.77311">
        <ele>395.5</ele>
        <time>2017-07-30T08:56:38.999Z</time>
      </trkpt>
      <trkpt lat="47.55855" lon="6.77311">
        <ele>395.8</ele>
        <time>2017-07-30T08:56:39.999Z</time>
      </trkpt>
      <trkpt lat="47.55851" lon="6.77309">
        <ele>396.6</ele>
        <time>2017-07-30T08:56:41.999Z</time>
      </trkpt>
      <trkpt lat="47.55848" lon="6.7731">
        <ele>397</ele>
        <time>2017-07-30T08:56:42.999Z</time>
      </trkpt>
      <trkpt lat="47.55845" lon="6.7731">
        <ele>397.5</ele>
        <time>2017-07-30T08:56:43.999Z</time>
      </trkpt>
      <trkpt lat="47.55843" lon="6.7731">
        <ele>397.9</ele>
        <time>2017-07-30T08:56:44.999Z</time>
      </trkpt>
      <trkpt lat="47.55841" lon="6.77307">
        <ele>398.8</ele>
        <time>2017-07-30T08:56:46.999Z</time>
      </trkpt>
      <trkpt lat="47.55839" lon="6.77303">
        <ele>399.1</ele>
        <time>2017-07-30T08:56:47.999Z</time>
      </trkpt>
      <trkpt lat="47.55838" lon="6.773">
        <ele>399.5</ele>
        <time>2017-07-30T08:56:48.999Z</time>
      </trkpt>
      <trkpt lat="47.55836" lon="6.77296">
        <ele>399.9</ele>
        <time>2017-07-30T08:56:49.999Z</time>
      </trkpt>
      <trkpt lat="47.55834" lon="6.77293">
        <ele>400.3</ele>
        <time>2017-07-30T08:56:50.999Z</time>
      </trkpt>
      <trkpt lat="47.55833" lon="6.7729">
        <ele>400.6</ele>
        <time>2017-07-30T08:56:51.999Z</time>
      </trkpt>
      <trkpt lat="47.55831" lon="6.77286">
        <ele>401</ele>
        <time>2017-07-30T08:56:52.999Z</time>
      </trkpt>
      <trkpt lat="47.5583" lon="6.77282">
        <ele>401.3</ele>
        <time>2017-07-30T08:56:53.999Z</time>
      </trkpt>
      <trkpt lat="47.55829" lon="6.77279">
        <ele>401.6</ele>
        <time>2017-07-30T08:56:54.999Z</time>
      </trkpt>
      <trkpt lat="47.55828" lon="6.77277">
        <ele>402</ele>
        <time>2017-07-30T08:56:55.999Z</time>
      </trkpt>
      <trkpt lat="47.55827" lon="6.77273">
        <ele>402.2</ele>
        <time>2017-07-30T08:56:56.999Z</time>
      </trkpt>
      <trkpt lat="47.55826" lon="6.77269">
        <ele>402.5</ele>
        <time>2017-07-30T08:56:57.999Z</time>
      </trkpt>
      <trkpt lat="47.55824" lon="6.77265">
        <ele>402.7</ele>
        <time>2017-07-30T08:56:58.999Z</time>
      </trkpt>
      <trkpt lat="47.55823" lon="6.77262">
        <ele>403</ele>
        <time>2017-07-30T08:56:59.999Z</time>
      </trkpt>
      <trkpt lat="47.55822" lon="6.77256">
        <ele>403.5</ele>
        <time>2017-07-30T08:57:01.999Z</time>
      </trkpt>
      <trkpt lat="47.55821" lon="6.77253">
        <ele>403.8</ele>
        <time>2017-07-30T08:57:02.999Z</time>
      </trkpt>
      <trkpt lat="47.5582" lon="6.7725">
        <ele>404.1</ele>
        <time>2017-07-30T08:57:03.999Z</time>
      </trkpt>
      <trkpt lat="47.55819" lon="6.77245">
        <ele>404.5</ele>
        <time>2017-07-30T08:57:04.999Z</time>
      </trkpt>
      <trkpt lat="47.55819" lon="6.77242">
        <ele>404.8</ele>
        <time>2017-07-30T08:57:05.999Z</time>
      </trkpt>
      <trkpt lat="47.55818" lon="6.77238">
        <ele>405.2</ele>
        <time>2017-07-30T08:57:06.999Z</time>
      </trkpt>
      <trkpt lat="47.55816" lon="6.77234">
        <ele>405.5</ele>
        <time>2017-07-30T08:57:07.999Z</time>
      </trkpt>
      <trkpt lat="47.55815" lon="6.7723">
        <ele>405.9</ele>
        <time>2017-07-30T08:57:08.999Z</time>
      </trkpt>
      <trkpt lat="47.55815" lon="6.77227">
        <ele>406.3</ele>
        <time>2017-07-30T08:57:09.999Z</time>
      </trkpt>
      <trkpt lat="47.55814" lon="6.77223">
        <ele>406.6</ele>
        <time>2017-07-30T08:57:10.999Z</time>
      </trkpt>
      <trkpt lat="47.55813" lon="6.77218">
        <ele>407.4</ele>
        <time>2017-07-30T08:57:12.999Z</time>
      </trkpt>
      <trkpt lat="47.55813" lon="6.77216">
        <ele>407.8</ele>
        <time>2017-07-30T08:57:13.999Z</time>
      </trkpt>
      <trkpt lat="47.55812" lon="6.77209">
        <ele>408.8</ele>
        <time>2017-07-30T08:57:16.999Z</time>
      </trkpt>
      <trkpt lat="47.55812" lon="6.77207">
        <ele>409.2</ele>
        <time>2017-07-30T08:57:17.999Z</time>
      </trkpt>
      <trkpt lat="47.55811" lon="6.77203">
        <ele>409.6</ele>
        <time>2017-07-30T08:57:18.999Z</time>
      </trkpt>
      <trkpt lat="47.5581" lon="6.772">
        <ele>410</ele>
        <time>2017-07-30T08:57:19.999Z</time>
      </trkpt>
      <trkpt lat="47.55808" lon="6.77196">
        <ele>410.4</ele>
        <time>2017-07-30T08:57:20.999Z</time>
      </trkpt>
      <trkpt lat="47.55807" lon="6.77192">
        <ele>410.7</ele>
        <time>2017-07-30T08:57:21.999Z</time>
      </trkpt>
      <trkpt lat="47.55806" lon="6.77188">
        <ele>411</ele>
        <time>2017-07-30T08:57:22.999Z</time>
      </trkpt>
      <trkpt lat="47.55805" lon="6.77184">
        <ele>411.3</ele>
        <time>2017-07-30T08:57:23.999Z</time>
      </trkpt>
      <trkpt lat="47.55804" lon="6.7718">
        <ele>411.6</ele>
        <time>2017-07-30T08:57:24.999Z</time>
      </trkpt>
      <trkpt lat="47.55803" lon="6.77176">
        <ele>411.9</ele>
        <time>2017-07-30T08:57:25.999Z</time>
      </trkpt>
      <trkpt lat="47.55803" lon="6.77173">
        <ele>412.1</ele>
        <time>2017-07-30T08:57:26.999Z</time>
      </trkpt>
      <trkpt lat="47.55802" lon="6.77169">
        <ele>412.3</ele>
        <time>2017-07-30T08:57:27.999Z</time>
      </trkpt>
      <trkpt lat="47.55799" lon="6.77165">
        <ele>412.5</ele>
        <time>2017-07-30T08:57:29.999Z</time>
      </trkpt>
      <trkpt lat="47.55797" lon="6.77163">
        <ele>412.7</ele>
        <time>2017-07-30T08:57:30.999Z</time>
      </trkpt>
      <trkpt lat="47.55795" lon="6.77161">
        <ele>413.6</ele>
        <time>2017-07-30T08:57:42.999Z</time>
      </trkpt>
      <trkpt lat="47.55799" lon="6.7713">
        <ele>413.4</ele>
        <time>2017-07-30T08:57:43.999Z</time>
      </trkpt>
      <trkpt lat="47.55799" lon="6.7713">
        <ele>411.6</ele>
        <time>2017-07-30T08:58:05.999Z</time>
      </trkpt>
      <trkpt lat="47.55828" lon="6.77138">
        <ele>411.8</ele>
        <time>2017-07-30T08:58:06.999Z</time>
      </trkpt>
      <trkpt lat="47.55832" lon="6.77139">
        <ele>412.1</ele>
        <time>2017-07-30T08:58:07.999Z</time>
      </trkpt>
      <trkpt lat="47.55836" lon="6.77139">
        <ele>412.2</ele>
        <time>2017-07-30T08:58:08.999Z</time>
      </trkpt>
      <trkpt lat="47.55839" lon="6.77137">
        <ele>412.4</ele>
        <time>2017-07-30T08:58:09.999Z</time>
      </trkpt>
      <trkpt lat="47.55842" lon="6.77135">
        <ele>412.5</ele>
        <time>2017-07-30T08:58:10.999Z</time>
      </trkpt>
      <trkpt lat="47.55845" lon="6.77134">
        <ele>412.7</ele>
        <time>2017-07-30T08:58:11.999Z</time>
      </trkpt>
      <trkpt lat="47.55849" lon="6.77133">
        <ele>412.9</ele>
        <time>2017-07-30T08:58:12.999Z</time>
      </trkpt>
      <trkpt lat="47.55852" lon="6.77132">
        <ele>413.1</ele>
        <time>2017-07-30T08:58:13.999Z</time>
      </trkpt>
      <trkpt lat="47.55855" lon="6.7713">
        <ele>413.3</ele>
        <time>2017-07-30T08:58:14.999Z</time>
      </trkpt>
      <trkpt lat="47.55859" lon="6.77129">
        <ele>413.6</ele>
        <time>2017-07-30T08:58:16.999Z</time>
      </trkpt>
      <trkpt lat="47.55861" lon="6.77129">
        <ele>413.7</ele>
        <time>2017-07-30T08:58:17.999Z</time>
      </trkpt>
      <trkpt lat="47.55864" lon="6.7713">
        <ele>414</ele>
        <time>2017-07-30T08:58:19.999Z</time>
      </trkpt>
      <trkpt lat="47.55866" lon="6.7713">
        <ele>414.2</ele>
        <time>2017-07-30T08:58:20.999Z</time>
      </trkpt>
      <trkpt lat="47.55868" lon="6.77129">
        <ele>413.6</ele>
        <time>2017-07-30T08:58:41.999Z</time>
      </trkpt>
      <trkpt lat="47.55855" lon="6.77161">
        <ele>413.6</ele>
        <time>2017-07-30T08:58:42.999Z</time>
      </trkpt>
      <trkpt lat="47.55852" lon="6.77165">
        <ele>414.1</ele>
        <time>2017-07-30T08:58:46.999Z</time>
      </trkpt>
      <trkpt lat="47.55851" lon="6.77165">
        <ele>414.3</ele>
        <time>2017-07-30T08:58:47.999Z</time>
      </trkpt>
      <trkpt lat="47.55846" lon="6.77166">
        <ele>414.6</ele>
        <time>2017-07-30T08:58:50.999Z</time>
      </trkpt>
      <trkpt lat="47.55845" lon="6.77167">
        <ele>414.7</ele>
        <time>2017-07-30T08:58:51.999Z</time>
      </trkpt>
      <trkpt lat="47.55841" lon="6.77168">
        <ele>414.7</ele>
        <time>2017-07-30T08:58:53.999Z</time>
      </trkpt>
      <trkpt lat="47.5584" lon="6.77168">
        <ele>414.7</ele>
        <time>2017-07-30T08:58:54.999Z</time>
      </trkpt>
      <trkpt lat="47.55836" lon="6.77169">
        <ele>414.5</ele>
        <time>2017-07-30T08:58:57.999Z</time>
      </trkpt>
      <trkpt lat="47.55834" lon="6.77168">
        <ele>414.5</ele>
        <time>2017-07-30T08:58:58.999Z</time>
      </trkpt>
      <trkpt lat="47.5583" lon="6.77168">
        <ele>414.7</ele>
        <time>2017-07-30T08:59:01.999Z</time>
      </trkpt>
      <trkpt lat="47.55829" lon="6.77167">
        <ele>414.8</ele>
        <time>2017-07-30T08:59:02.999Z</time>
      </trkpt>
      <trkpt lat="47.55826" lon="6.77162">
        <ele>414.8</ele>
        <time>2017-07-30T08:59:04.999Z</time>
      </trkpt>
      <trkpt lat="47.55825" lon="6.7716">
        <ele>414.7</ele>
        <time>2017-07-30T08:59:05.999Z</time>
      </trkpt>
      <trkpt lat="47.55823" lon="6.77155">
        <ele>414.8</ele>
        <time>2017-07-30T08:59:07.999Z</time>
      </trkpt>
      <trkpt lat="47.55822" lon="6.77152">
        <ele>414.8</ele>
        <time>2017-07-30T08:59:08.999Z</time>
      </trkpt>
      <trkpt lat="47.55819" lon="6.77148">
        <ele>414.6</ele>
        <time>2017-07-30T08:59:10.999Z</time>
      </trkpt>
      <trkpt lat="47.55817" lon="6.77146">
        <ele>414.4</ele>
        <time>2017-07-30T08:59:11.999Z</time>
      </trkpt>
      <trkpt lat="47.55812" lon="6.77141">
        <ele>414.3</ele>
        <time>2017-07-30T08:59:12.999Z</time>
      </trkpt>
      <trkpt lat="47.55809" lon="6.77137">
        <ele>414.3</ele>
        <time>2017-07-30T08:59:14.999Z</time>
      </trkpt>
      <trkpt lat="47.55808" lon="6.77135">
        <ele>414.1</ele>
        <time>2017-07-30T08:59:15.999Z</time>
      </trkpt>
      <trkpt lat="47.55807" lon="6.7713">
        <ele>414.1</ele>
        <time>2017-07-30T08:59:16.999Z</time>
      </trkpt>
      <trkpt lat="47.55804" lon="6.77125">
        <ele>414.1</ele>
        <time>2017-07-30T08:59:17.999Z</time>
      </trkpt>
      <trkpt lat="47.55803" lon="6.7712">
        <ele>414.2</ele>
        <time>2017-07-30T08:59:19.999Z</time>
      </trkpt>
      <trkpt lat="47.55802" lon="6.77119">
        <ele>414.3</ele>
        <time>2017-07-30T08:59:20.999Z</time>
      </trkpt>
      <trkpt lat="47.55798" lon="6.77115">
        <ele>414.5</ele>
        <time>2017-07-30T08:59:22.999Z</time>
      </trkpt>
      <trkpt lat="47.55796" lon="6.77112">
        <ele>414.6</ele>
        <time>2017-07-30T08:59:23.999Z</time>
      </trkpt>
      <trkpt lat="47.55795" lon="6.77109">
        <ele>414.8</ele>
        <time>2017-07-30T08:59:24.999Z</time>
      </trkpt>
      <trkpt lat="47.55794" lon="6.77105">
        <ele>414.9</ele>
        <time>2017-07-30T08:59:25.999Z</time>
      </trkpt>
      <trkpt lat="47.55793" lon="6.77103">
        <ele>415</ele>
        <time>2017-07-30T08:59:26.999Z</time>
      </trkpt>
      <trkpt lat="47.55792" lon="6.77099">
        <ele>415.2</ele>
        <time>2017-07-30T08:59:27.999Z</time>
      </trkpt>
      <trkpt lat="47.5579" lon="6.77095">
        <ele>415.3</ele>
        <time>2017-07-30T08:59:28.999Z</time>
      </trkpt>
      <trkpt lat="47.5579" lon="6.77091">
        <ele>415.5</ele>
        <time>2017-07-30T08:59:29.999Z</time>
      </trkpt>
      <trkpt lat="47.55788" lon="6.77088">
        <ele>415.5</ele>
        <time>2017-07-30T08:59:30.999Z</time>
      </trkpt>
      <trkpt lat="47.55786" lon="6.77085">
        <ele>415.6</ele>
        <time>2017-07-30T08:59:31.999Z</time>
      </trkpt>
      <trkpt lat="47.55784" lon="6.77081">
        <ele>415.7</ele>
        <time>2017-07-30T08:59:32.999Z</time>
      </trkpt>
      <trkpt lat="47.55783" lon="6.77076">
        <ele>416</ele>
        <time>2017-07-30T08:59:33.999Z</time>
      </trkpt>
      <trkpt lat="47.55781" lon="6.77072">
        <ele>416.1</ele>
        <time>2017-07-30T08:59:34.999Z</time>
      </trkpt>
      <trkpt lat="47.55779" lon="6.77068">
        <ele>416.3</ele>
        <time>2017-07-30T08:59:35.999Z</time>
      </trkpt>
      <trkpt lat="47.55778" lon="6.77064">
        <ele>416.5</ele>
        <time>2017-07-30T08:59:36.999Z</time>
      </trkpt>
      <trkpt lat="47.55777" lon="6.7706">
        <ele>416.6</ele>
        <time>2017-07-30T08:59:37.999Z</time>
      </trkpt>
      <trkpt lat="47.55775" lon="6.77057">
        <ele>416.7</ele>
        <time>2017-07-30T08:59:38.999Z</time>
      </trkpt>
      <trkpt lat="47.55774" lon="6.77054">
        <ele>416.8</ele>
        <time>2017-07-30T08:59:39.999Z</time>
      </trkpt>
      <trkpt lat="47.55772" lon="6.7705">
        <ele>417</ele>
        <time>2017-07-30T08:59:40.999Z</time>
      </trkpt>
      <trkpt lat="47.5577" lon="6.77047">
        <ele>417.2</ele>
        <time>2017-07-30T08:59:41.999Z</time>
      </trkpt>
      <trkpt lat="47.55768" lon="6.77043">
        <ele>417.4</ele>
        <time>2017-07-30T08:59:42.999Z</time>
      </trkpt>
      <trkpt lat="47.55767" lon="6.7704">
        <ele>417.7</ele>
        <time>2017-07-30T08:59:43.999Z</time>
      </trkpt>
      <trkpt lat="47.55765" lon="6.77036">
        <ele>417.9</ele>
        <time>2017-07-30T08:59:44.999Z</time>
      </trkpt>
      <trkpt lat="47.55764" lon="6.77032">
        <ele>418.1</ele>
        <time>2017-07-30T08:59:45.999Z</time>
      </trkpt>
      <trkpt lat="47.55762" lon="6.77028">
        <ele>418.4</ele>
        <time>2017-07-30T08:59:46.999Z</time>
      </trkpt>
      <trkpt lat="47.55762" lon="6.77023">
        <ele>418.6</ele>
        <time>2017-07-30T08:59:47.999Z</time>
      </trkpt>
      <trkpt lat="47.55761" lon="6.77019">
        <ele>418.9</ele>
        <time>2017-07-30T08:59:49.999Z</time>
      </trkpt>
      <trkpt lat="47.5576" lon="6.77015">
        <ele>419.1</ele>
        <time>2017-07-30T08:59:50.999Z</time>
      </trkpt>
      <trkpt lat="47.5576" lon="6.77011">
        <ele>419.4</ele>
        <time>2017-07-30T08:59:51.999Z</time>
      </trkpt>
      <trkpt lat="47.55761" lon="6.77007">
        <ele>419.6</ele>
        <time>2017-07-30T08:59:52.999Z</time>
      </trkpt>
      <trkpt lat="47.55761" lon="6.77004">
        <ele>419.7</ele>
        <time>2017-07-30T08:59:53.999Z</time>
      </trkpt>
      <trkpt lat="47.55762" lon="6.77">
        <ele>419.8</ele>
        <time>2017-07-30T08:59:54.999Z</time>
      </trkpt>
      <trkpt lat="47.55763" lon="6.76993">
        <ele>419.9</ele>
        <time>2017-07-30T08:59:56.999Z</time>
      </trkpt>
      <trkpt lat="47.55763" lon="6.76989">
        <ele>420</ele>
        <time>2017-07-30T08:59:57.999Z</time>
      </trkpt>
      <trkpt lat="47.55762" lon="6.76985">
        <ele>420</ele>
        <time>2017-07-30T08:59:59.999Z</time>
      </trkpt>
      <trkpt lat="47.55761" lon="6.76982">
        <ele>419.9</ele>
        <time>2017-07-30T09:00:00.999Z</time>
      </trkpt>
      <trkpt lat="47.55761" lon="6.76979">
        <ele>419.9</ele>
        <time>2017-07-30T09:00:01.999Z</time>
      </trkpt>
      <trkpt lat="47.55761" lon="6.76975">
        <ele>420</ele>
        <time>2017-07-30T09:00:02.999Z</time>
      </trkpt>
      <trkpt lat="47.55759" lon="6.7697">
        <ele>419.9</ele>
        <time>2017-07-30T09:00:04.999Z</time>
      </trkpt>
      <trkpt lat="47.55758" lon="6.76966">
        <ele>419.8</ele>
        <time>2017-07-30T09:00:05.999Z</time>
      </trkpt>
      <trkpt lat="47.55757" lon="6.76961">
        <ele>419.7</ele>
        <time>2017-07-30T09:00:06.999Z</time>
      </trkpt>
      <trkpt lat="47.55755" lon="6.76958">
        <ele>419.7</ele>
        <time>2017-07-30T09:00:07.999Z</time>
      </trkpt>
      <trkpt lat="47.55755" lon="6.76954">
        <ele>419.7</ele>
        <time>2017-07-30T09:00:08.999Z</time>
      </trkpt>
      <trkpt lat="47.55754" lon="6.76949">
        <ele>419.6</ele>
        <time>2017-07-30T09:00:09.999Z</time>
      </trkpt>
      <trkpt lat="47.55753" lon="6.76946">
        <ele>419.5</ele>
        <time>2017-07-30T09:00:10.999Z</time>
      </trkpt>
      <trkpt lat="47.55752" lon="6.76942">
        <ele>419.4</ele>
        <time>2017-07-30T09:00:11.999Z</time>
      </trkpt>
      <trkpt lat="47.55751" lon="6.76937">
        <ele>419.2</ele>
        <time>2017-07-30T09:00:12.999Z</time>
      </trkpt>
      <trkpt lat="47.5575" lon="6.76935">
        <ele>419.1</ele>
        <time>2017-07-30T09:00:13.999Z</time>
      </trkpt>
      <trkpt lat="47.55749" lon="6.76931">
        <ele>418.9</ele>
        <time>2017-07-30T09:00:14.999Z</time>
      </trkpt>
      <trkpt lat="47.55748" lon="6.76925">
        <ele>418.8</ele>
        <time>2017-07-30T09:00:15.999Z</time>
      </trkpt>
      <trkpt lat="47.55747" lon="6.7692">
        <ele>418.6</ele>
        <time>2017-07-30T09:00:16.999Z</time>
      </trkpt>
      <trkpt lat="47.55746" lon="6.76914">
        <ele>418.6</ele>
        <time>2017-07-30T09:00:17.999Z</time>
      </trkpt>
      <trkpt lat="47.55745" lon="6.76909">
        <ele>418.4</ele>
        <time>2017-07-30T09:00:18.999Z</time>
      </trkpt>
      <trkpt lat="47.55743" lon="6.76904">
        <ele>418.4</ele>
        <time>2017-07-30T09:00:19.999Z</time>
      </trkpt>
      <trkpt lat="47.55743" lon="6.76898">
        <ele>418.4</ele>
        <time>2017-07-30T09:00:20.999Z</time>
      </trkpt>
      <trkpt lat="47.55742" lon="6.76893">
        <ele>418.3</ele>
        <time>2017-07-30T09:00:21.999Z</time>
      </trkpt>
      <trkpt lat="47.55741" lon="6.76889">
        <ele>418.1</ele>
        <time>2017-07-30T09:00:22.999Z</time>
      </trkpt>
      <trkpt lat="47.5574" lon="6.76884">
        <ele>418.1</ele>
        <time>2017-07-30T09:00:23.999Z</time>
      </trkpt>
      <trkpt lat="47.5574" lon="6.76878">
        <ele>418</ele>
        <time>2017-07-30T09:00:24.999Z</time>
      </trkpt>
      <trkpt lat="47.5574" lon="6.76873">
        <ele>418</ele>
        <time>2017-07-30T09:00:25.999Z</time>
      </trkpt>
      <trkpt lat="47.55739" lon="6.76868">
        <ele>418</ele>
        <time>2017-07-30T09:00:26.999Z</time>
      </trkpt>
      <trkpt lat="47.55738" lon="6.76863">
        <ele>417.9</ele>
        <time>2017-07-30T09:00:27.999Z</time>
      </trkpt>
      <trkpt lat="47.55738" lon="6.76859">
        <ele>417.9</ele>
        <time>2017-07-30T09:00:28.999Z</time>
      </trkpt>
      <trkpt lat="47.55737" lon="6.76854">
        <ele>417.8</ele>
        <time>2017-07-30T09:00:29.999Z</time>
      </trkpt>
      <trkpt lat="47.55736" lon="6.7685">
        <ele>417.7</ele>
        <time>2017-07-30T09:00:30.999Z</time>
      </trkpt>
      <trkpt lat="47.55735" lon="6.76847">
        <ele>417.6</ele>
        <time>2017-07-30T09:00:31.999Z</time>
      </trkpt>
      <trkpt lat="47.55734" lon="6.76844">
        <ele>417.6</ele>
        <time>2017-07-30T09:00:32.999Z</time>
      </trkpt>
      <trkpt lat="47.55734" lon="6.7684">
        <ele>417.6</ele>
        <time>2017-07-30T09:00:33.999Z</time>
      </trkpt>
      <trkpt lat="47.55733" lon="6.76836">
        <ele>417.6</ele>
        <time>2017-07-30T09:00:34.999Z</time>
      </trkpt>
      <trkpt lat="47.55732" lon="6.76832">
        <ele>417.6</ele>
        <time>2017-07-30T09:00:35.999Z</time>
      </trkpt>
      <trkpt lat="47.55731" lon="6.76827">
        <ele>417.5</ele>
        <time>2017-07-30T09:00:36.999Z</time>
      </trkpt>
      <trkpt lat="47.5573" lon="6.76824">
        <ele>417.4</ele>
        <time>2017-07-30T09:00:37.999Z</time>
      </trkpt>
      <trkpt lat="47.55729" lon="6.7682">
        <ele>417.4</ele>
        <time>2017-07-30T09:00:38.999Z</time>
      </trkpt>
      <trkpt lat="47.55728" lon="6.76817">
        <ele>417.3</ele>
        <time>2017-07-30T09:00:39.999Z</time>
      </trkpt>
      <trkpt lat="47.55728" lon="6.76812">
        <ele>417.3</ele>
        <time>2017-07-30T09:00:40.999Z</time>
      </trkpt>
      <trkpt lat="47.55727" lon="6.76808">
        <ele>417.3</ele>
        <time>2017-07-30T09:00:41.999Z</time>
      </trkpt>
      <trkpt lat="47.55726" lon="6.76805">
        <ele>417.2</ele>
        <time>2017-07-30T09:00:42.999Z</time>
      </trkpt>
      <trkpt lat="47.55725" lon="6.76802">
        <ele>417.2</ele>
        <time>2017-07-30T09:00:43.999Z</time>
      </trkpt>
      <trkpt lat="47.55724" lon="6.76798">
        <ele>417.1</ele>
        <time>2017-07-30T09:00:44.999Z</time>
      </trkpt>
      <trkpt lat="47.55723" lon="6.76795">
        <ele>417.1</ele>
        <time>2017-07-30T09:00:45.999Z</time>
      </trkpt>
      <trkpt lat="47.55722" lon="6.76792">
        <ele>417</ele>
        <time>2017-07-30T09:00:46.999Z</time>
      </trkpt>
      <trkpt lat="47.55721" lon="6.76789">
        <ele>416.9</ele>
        <time>2017-07-30T09:00:47.999Z</time>
      </trkpt>
      <trkpt lat="47.5572" lon="6.76785">
        <ele>416.9</ele>
        <time>2017-07-30T09:00:48.999Z</time>
      </trkpt>
      <trkpt lat="47.55718" lon="6.76782">
        <ele>416.9</ele>
        <time>2017-07-30T09:00:49.999Z</time>
      </trkpt>
      <trkpt lat="47.55716" lon="6.76777">
        <ele>416.7</ele>
        <time>2017-07-30T09:00:51.999Z</time>
      </trkpt>
      <trkpt lat="47.55714" lon="6.76775">
        <ele>416.7</ele>
        <time>2017-07-30T09:00:52.999Z</time>
      </trkpt>
      <trkpt lat="47.55711" lon="6.7677">
        <ele>416.6</ele>
        <time>2017-07-30T09:00:54.999Z</time>
      </trkpt>
      <trkpt lat="47.55709" lon="6.76768">
        <ele>416.6</ele>
        <time>2017-07-30T09:00:55.999Z</time>
      </trkpt>
      <trkpt lat="47.55706" lon="6.76762">
        <ele>416.6</ele>
        <time>2017-07-30T09:00:57.999Z</time>
      </trkpt>
      <trkpt lat="47.55705" lon="6.7676">
        <ele>416.6</ele>
        <time>2017-07-30T09:00:58.999Z</time>
      </trkpt>
      <trkpt lat="47.55704" lon="6.76757">
        <ele>416.5</ele>
        <time>2017-07-30T09:00:59.999Z</time>
      </trkpt>
      <trkpt lat="47.55702" lon="6.76755">
        <ele>416.5</ele>
        <time>2017-07-30T09:01:00.999Z</time>
      </trkpt>
      <trkpt lat="47.557" lon="6.76753">
        <ele>416.6</ele>
        <time>2017-07-30T09:01:01.999Z</time>
      </trkpt>
      <trkpt lat="47.55698" lon="6.76751">
        <ele>416.6</ele>
        <time>2017-07-30T09:01:02.999Z</time>
      </trkpt>
      <trkpt lat="47.55695" lon="6.7675">
        <ele>416.6</ele>
        <time>2017-07-30T09:01:03.999Z</time>
      </trkpt>
      <trkpt lat="47.55693" lon="6.76748">
        <ele>416.6</ele>
        <time>2017-07-30T09:01:04.999Z</time>
      </trkpt>
      <trkpt lat="47.5569" lon="6.76746">
        <ele>416.6</ele>
        <time>2017-07-30T09:01:05.999Z</time>
      </trkpt>
      <trkpt lat="47.55688" lon="6.76746">
        <ele>416.5</ele>
        <time>2017-07-30T09:01:06.999Z</time>
      </trkpt>
      <trkpt lat="47.55685" lon="6.76745">
        <ele>416.5</ele>
        <time>2017-07-30T09:01:07.999Z</time>
      </trkpt>
      <trkpt lat="47.55682" lon="6.76743">
        <ele>416.5</ele>
        <time>2017-07-30T09:01:08.999Z</time>
      </trkpt>
      <trkpt lat="47.55679" lon="6.76742">
        <ele>416.4</ele>
        <time>2017-07-30T09:01:09.999Z</time>
      </trkpt>
      <trkpt lat="47.55676" lon="6.76742">
        <ele>416.5</ele>
        <time>2017-07-30T09:01:10.999Z</time>
      </trkpt>
      <trkpt lat="47.55673" lon="6.76742">
        <ele>416.6</ele>
        <time>2017-07-30T09:01:11.999Z</time>
      </trkpt>
      <trkpt lat="47.5567" lon="6.76741">
        <ele>416.7</ele>
        <time>2017-07-30T09:01:12.999Z</time>
      </trkpt>
      <trkpt lat="47.55665" lon="6.76741">
        <ele>416.9</ele>
        <time>2017-07-30T09:01:14.999Z</time>
      </trkpt>
      <trkpt lat="47.55664" lon="6.76741">
        <ele>417</ele>
        <time>2017-07-30T09:01:15.999Z</time>
      </trkpt>
      <trkpt lat="47.55659" lon="6.76742">
        <ele>417.3</ele>
        <time>2017-07-30T09:01:18.999Z</time>
      </trkpt>
      <trkpt lat="47.55658" lon="6.76742">
        <ele>417.2</ele>
        <time>2017-07-30T09:01:19.999Z</time>
      </trkpt>
      <trkpt lat="47.55654" lon="6.76741">
        <ele>417</ele>
        <time>2017-07-30T09:01:22.999Z</time>
      </trkpt>
      <trkpt lat="47.55653" lon="6.76741">
        <ele>416.9</ele>
        <time>2017-07-30T09:01:23.999Z</time>
      </trkpt>
      <trkpt lat="47.55649" lon="6.76742">
        <ele>416.9</ele>
        <time>2017-07-30T09:01:27.999Z</time>
      </trkpt>
      <trkpt lat="47.55647" lon="6.76743">
        <ele>416.9</ele>
        <time>2017-07-30T09:01:28.999Z</time>
      </trkpt>
      <trkpt lat="47.55644" lon="6.76742">
        <ele>417</ele>
        <time>2017-07-30T09:01:30.999Z</time>
      </trkpt>
      <trkpt lat="47.55642" lon="6.76743">
        <ele>417</ele>
        <time>2017-07-30T09:01:31.999Z</time>
      </trkpt>
      <trkpt lat="47.5564" lon="6.76745">
        <ele>417</ele>
        <time>2017-07-30T09:01:33.999Z</time>
      </trkpt>
      <trkpt lat="47.55637" lon="6.76745">
        <ele>417</ele>
        <time>2017-07-30T09:01:34.999Z</time>
      </trkpt>
      <trkpt lat="47.55635" lon="6.76746">
        <ele>416.9</ele>
        <time>2017-07-30T09:01:35.999Z</time>
      </trkpt>
      <trkpt lat="47.55633" lon="6.76748">
        <ele>416.8</ele>
        <time>2017-07-30T09:01:36.999Z</time>
      </trkpt>
      <trkpt lat="47.5563" lon="6.76749">
        <ele>416.7</ele>
        <time>2017-07-30T09:01:37.999Z</time>
      </trkpt>
      <trkpt lat="47.55627" lon="6.76751">
        <ele>416.6</ele>
        <time>2017-07-30T09:01:38.999Z</time>
      </trkpt>
      <trkpt lat="47.55624" lon="6.76753">
        <ele>416.5</ele>
        <time>2017-07-30T09:01:39.999Z</time>
      </trkpt>
      <trkpt lat="47.55621" lon="6.76755">
        <ele>416.5</ele>
        <time>2017-07-30T09:01:40.999Z</time>
      </trkpt>
      <trkpt lat="47.55618" lon="6.76757">
        <ele>416.3</ele>
        <time>2017-07-30T09:01:41.999Z</time>
      </trkpt>
      <trkpt lat="47.55615" lon="6.76759">
        <ele>416.2</ele>
        <time>2017-07-30T09:01:42.999Z</time>
      </trkpt>
      <trkpt lat="47.55612" lon="6.76761">
        <ele>416</ele>
        <time>2017-07-30T09:01:43.999Z</time>
      </trkpt>
      <trkpt lat="47.55609" lon="6.76763">
        <ele>415.9</ele>
        <time>2017-07-30T09:01:44.999Z</time>
      </trkpt>
      <trkpt lat="47.55606" lon="6.76766">
        <ele>415.8</ele>
        <time>2017-07-30T09:01:45.999Z</time>
      </trkpt>
      <trkpt lat="47.55602" lon="6.76768">
        <ele>415.7</ele>
        <time>2017-07-30T09:01:46.999Z</time>
      </trkpt>
      <trkpt lat="47.55599" lon="6.7677">
        <ele>415.6</ele>
        <time>2017-07-30T09:01:47.999Z</time>
      </trkpt>
      <trkpt lat="47.55596" lon="6.76772">
        <ele>415.5</ele>
        <time>2017-07-30T09:01:48.999Z</time>
      </trkpt>
      <trkpt lat="47.55592" lon="6.76775">
        <ele>414.9</ele>
        <time>2017-07-30T09:01:49.999Z</time>
      </trkpt>
      <trkpt lat="47.55589" lon="6.76777">
        <ele>414.2</ele>
        <time>2017-07-30T09:01:50.999Z</time>
      </trkpt>
      <trkpt lat="47.55585" lon="6.76779">
        <ele>413.4</ele>
        <time>2017-07-30T09:01:51.999Z</time>
      </trkpt>
      <trkpt lat="47.55582" lon="6.76782">
        <ele>413.3</ele>
        <time>2017-07-30T09:01:52.999Z</time>
      </trkpt>
      <trkpt lat="47.55578" lon="6.76784">
        <ele>412.1</ele>
        <time>2017-07-30T09:01:53.999Z</time>
      </trkpt>
      <trkpt lat="47.55575" lon="6.76787">
        <ele>411.7</ele>
        <time>2017-07-30T09:01:54.999Z</time>
      </trkpt>
      <trkpt lat="47.55572" lon="6.76789">
        <ele>411.8</ele>
        <time>2017-07-30T09:01:55.999Z</time>
      </trkpt>
      <trkpt lat="47.55569" lon="6.76791">
        <ele>411.7</ele>
        <time>2017-07-30T09:01:56.999Z</time>
      </trkpt>
      <trkpt lat="47.55565" lon="6.76793">
        <ele>411.3</ele>
        <time>2017-07-30T09:01:57.999Z</time>
      </trkpt>
      <trkpt lat="47.55562" lon="6.76797">
        <ele>411.3</ele>
        <time>2017-07-30T09:01:58.999Z</time>
      </trkpt>
      <trkpt lat="47.55559" lon="6.76799">
        <ele>411.3</ele>
        <time>2017-07-30T09:01:59.999Z</time>
      </trkpt>
      <trkpt lat="47.55556" lon="6.76801">
        <ele>411.4</ele>
        <time>2017-07-30T09:02:00.999Z</time>
      </trkpt>
      <trkpt lat="47.55553" lon="6.76803">
        <ele>411.4</ele>
        <time>2017-07-30T09:02:01.999Z</time>
      </trkpt>
      <trkpt lat="47.5555" lon="6.76806">
        <ele>411.4</ele>
        <time>2017-07-30T09:02:02.999Z</time>
      </trkpt>
      <trkpt lat="47.55546" lon="6.76809">
        <ele>411.3</ele>
        <time>2017-07-30T09:02:03.999Z</time>
      </trkpt>
      <trkpt lat="47.55543" lon="6.76811">
        <ele>411.3</ele>
        <time>2017-07-30T09:02:04.999Z</time>
      </trkpt>
      <trkpt lat="47.5554" lon="6.76814">
        <ele>411.2</ele>
        <time>2017-07-30T09:02:05.999Z</time>
      </trkpt>
      <trkpt lat="47.55536" lon="6.76816">
        <ele>411.1</ele>
        <time>2017-07-30T09:02:06.999Z</time>
      </trkpt>
      <trkpt lat="47.55534" lon="6.76819">
        <ele>411</ele>
        <time>2017-07-30T09:02:07.999Z</time>
      </trkpt>
      <trkpt lat="47.55531" lon="6.76821">
        <ele>410.9</ele>
        <time>2017-07-30T09:02:08.999Z</time>
      </trkpt>
      <trkpt lat="47.55528" lon="6.76823">
        <ele>410.8</ele>
        <time>2017-07-30T09:02:09.999Z</time>
      </trkpt>
      <trkpt lat="47.55525" lon="6.76825">
        <ele>410.8</ele>
        <time>2017-07-30T09:02:10.999Z</time>
      </trkpt>
      <trkpt lat="47.55521" lon="6.76828">
        <ele>410.7</ele>
        <time>2017-07-30T09:02:11.999Z</time>
      </trkpt>
      <trkpt lat="47.55518" lon="6.7683">
        <ele>410.7</ele>
        <time>2017-07-30T09:02:12.999Z</time>
      </trkpt>
      <trkpt lat="47.55515" lon="6.76831">
        <ele>410.7</ele>
        <time>2017-07-30T09:02:13.999Z</time>
      </trkpt>
      <trkpt lat="47.55513" lon="6.76833">
        <ele>410.7</ele>
        <time>2017-07-30T09:02:14.999Z</time>
      </trkpt>
      <trkpt lat="47.5551" lon="6.76831">
        <ele>410.7</ele>
        <time>2017-07-30T09:02:16.999Z</time>
      </trkpt>
      <trkpt lat="47.55509" lon="6.76828">
        <ele>410.7</ele>
        <time>2017-07-30T09:02:17.999Z</time>
      </trkpt>
      <trkpt lat="47.55509" lon="6.76823">
        <ele>410.9</ele>
        <time>2017-07-30T09:02:19.999Z</time>
      </trkpt>
      <trkpt lat="47.5551" lon="6.76821">
        <ele>411</ele>
        <time>2017-07-30T09:02:20.999Z</time>
      </trkpt>
      <trkpt lat="47.55511" lon="6.76815">
        <ele>411</ele>
        <time>2017-07-30T09:02:22.999Z</time>
      </trkpt>
      <trkpt lat="47.5551" lon="6.76813">
        <ele>411.1</ele>
        <time>2017-07-30T09:02:23.999Z</time>
      </trkpt>
      <trkpt lat="47.55508" lon="6.76809">
        <ele>411.4</ele>
        <time>2017-07-30T09:02:26.999Z</time>
      </trkpt>
      <trkpt lat="47.55507" lon="6.76808">
        <ele>411.5</ele>
        <time>2017-07-30T09:02:27.999Z</time>
      </trkpt>
      <trkpt lat="47.55506" lon="6.76801">
        <ele>411.6</ele>
        <time>2017-07-30T09:02:29.999Z</time>
      </trkpt>
      <trkpt lat="47.55506" lon="6.76799">
        <ele>411.6</ele>
        <time>2017-07-30T09:02:30.999Z</time>
      </trkpt>
      <trkpt lat="47.55506" lon="6.76793">
        <ele>411.7</ele>
        <time>2017-07-30T09:02:32.999Z</time>
      </trkpt>
      <trkpt lat="47.55505" lon="6.76789">
        <ele>411.7</ele>
        <time>2017-07-30T09:02:33.999Z</time>
      </trkpt>
      <trkpt lat="47.55505" lon="6.76785">
        <ele>411.7</ele>
        <time>2017-07-30T09:02:34.999Z</time>
      </trkpt>
      <trkpt lat="47.55504" lon="6.76781">
        <ele>411.7</ele>
        <time>2017-07-30T09:02:35.999Z</time>
      </trkpt>
      <trkpt lat="47.55503" lon="6.76778">
        <ele>411.7</ele>
        <time>2017-07-30T09:02:36.999Z</time>
      </trkpt>
      <trkpt lat="47.55503" lon="6.76774">
        <ele>411.7</ele>
        <time>2017-07-30T09:02:37.999Z</time>
      </trkpt>
      <trkpt lat="47.55503" lon="6.76771">
        <ele>411.7</ele>
        <time>2017-07-30T09:02:38.999Z</time>
      </trkpt>
      <trkpt lat="47.55502" lon="6.76767">
        <ele>411.7</ele>
        <time>2017-07-30T09:02:39.999Z</time>
      </trkpt>
      <trkpt lat="47.55502" lon="6.76764">
        <ele>411.7</ele>
        <time>2017-07-30T09:02:40.999Z</time>
      </trkpt>
      <trkpt lat="47.55501" lon="6.7676">
        <ele>411.7</ele>
        <time>2017-07-30T09:02:41.999Z</time>
      </trkpt>
      <trkpt lat="47.555" lon="6.76757">
        <ele>411.7</ele>
        <time>2017-07-30T09:02:42.999Z</time>
      </trkpt>
      <trkpt lat="47.55499" lon="6.76753">
        <ele>411.8</ele>
        <time>2017-07-30T09:02:43.999Z</time>
      </trkpt>
      <trkpt lat="47.55498" lon="6.76748">
        <ele>411.9</ele>
        <time>2017-07-30T09:02:44.999Z</time>
      </trkpt>
      <trkpt lat="47.55497" lon="6.76744">
        <ele>412</ele>
        <time>2017-07-30T09:02:45.999Z</time>
      </trkpt>
      <trkpt lat="47.55495" lon="6.76739">
        <ele>412.1</ele>
        <time>2017-07-30T09:02:46.999Z</time>
      </trkpt>
      <trkpt lat="47.55494" lon="6.76735">
        <ele>412.2</ele>
        <time>2017-07-30T09:02:47.999Z</time>
      </trkpt>
      <trkpt lat="47.55493" lon="6.76731">
        <ele>412.3</ele>
        <time>2017-07-30T09:02:48.999Z</time>
      </trkpt>
      <trkpt lat="47.55492" lon="6.76727">
        <ele>412.4</ele>
        <time>2017-07-30T09:02:49.999Z</time>
      </trkpt>
      <trkpt lat="47.55492" lon="6.76724">
        <ele>412.4</ele>
        <time>2017-07-30T09:02:50.999Z</time>
      </trkpt>
      <trkpt lat="47.55491" lon="6.76721">
        <ele>412.5</ele>
        <time>2017-07-30T09:02:51.999Z</time>
      </trkpt>
      <trkpt lat="47.5549" lon="6.76717">
        <ele>412.6</ele>
        <time>2017-07-30T09:02:52.999Z</time>
      </trkpt>
      <trkpt lat="47.55489" lon="6.76713">
        <ele>412.7</ele>
        <time>2017-07-30T09:02:53.999Z</time>
      </trkpt>
      <trkpt lat="47.55489" lon="6.76709">
        <ele>412.7</ele>
        <time>2017-07-30T09:02:54.999Z</time>
      </trkpt>
      <trkpt lat="47.55487" lon="6.76705">
        <ele>412.8</ele>
        <time>2017-07-30T09:02:55.999Z</time>
      </trkpt>
      <trkpt lat="47.55487" lon="6.767">
        <ele>412.9</ele>
        <time>2017-07-30T09:02:56.999Z</time>
      </trkpt>
      <trkpt lat="47.55486" lon="6.76695">
        <ele>413</ele>
        <time>2017-07-30T09:02:57.999Z</time>
      </trkpt>
      <trkpt lat="47.55486" lon="6.7669">
        <ele>413.1</ele>
        <time>2017-07-30T09:02:58.999Z</time>
      </trkpt>
      <trkpt lat="47.55485" lon="6.76686">
        <ele>413.2</ele>
        <time>2017-07-30T09:02:59.999Z</time>
      </trkpt>
      <trkpt lat="47.55484" lon="6.76682">
        <ele>413.3</ele>
        <time>2017-07-30T09:03:00.999Z</time>
      </trkpt>
      <trkpt lat="47.55483" lon="6.76678">
        <ele>413.4</ele>
        <time>2017-07-30T09:03:01.999Z</time>
      </trkpt>
      <trkpt lat="47.55482" lon="6.76673">
        <ele>413.4</ele>
        <time>2017-07-30T09:03:02.999Z</time>
      </trkpt>
      <trkpt lat="47.55482" lon="6.76669">
        <ele>413.5</ele>
        <time>2017-07-30T09:03:03.999Z</time>
      </trkpt>
      <trkpt lat="47.5548" lon="6.76664">
        <ele>413.5</ele>
        <time>2017-07-30T09:03:04.999Z</time>
      </trkpt>
      <trkpt lat="47.55479" lon="6.76661">
        <ele>413.6</ele>
        <time>2017-07-30T09:03:05.999Z</time>
      </trkpt>
      <trkpt lat="47.55477" lon="6.76656">
        <ele>413.6</ele>
        <time>2017-07-30T09:03:06.999Z</time>
      </trkpt>
      <trkpt lat="47.55475" lon="6.76651">
        <ele>413.7</ele>
        <time>2017-07-30T09:03:07.999Z</time>
      </trkpt>
      <trkpt lat="47.55474" lon="6.76645">
        <ele>413.7</ele>
        <time>2017-07-30T09:03:08.999Z</time>
      </trkpt>
      <trkpt lat="47.55472" lon="6.76639">
        <ele>413.5</ele>
        <time>2017-07-30T09:03:09.999Z</time>
      </trkpt>
      <trkpt lat="47.55471" lon="6.76633">
        <ele>413.7</ele>
        <time>2017-07-30T09:03:10.999Z</time>
      </trkpt>
      <trkpt lat="47.55471" lon="6.76626">
        <ele>413.7</ele>
        <time>2017-07-30T09:03:11.999Z</time>
      </trkpt>
      <trkpt lat="47.55471" lon="6.76619">
        <ele>413.5</ele>
        <time>2017-07-30T09:03:12.999Z</time>
      </trkpt>
      <trkpt lat="47.55472" lon="6.76612">
        <ele>413.5</ele>
        <time>2017-07-30T09:03:13.999Z</time>
      </trkpt>
      <trkpt lat="47.55473" lon="6.76607">
        <ele>413.4</ele>
        <time>2017-07-30T09:03:14.999Z</time>
      </trkpt>
      <trkpt lat="47.55476" lon="6.76602">
        <ele>413.4</ele>
        <time>2017-07-30T09:03:15.999Z</time>
      </trkpt>
      <trkpt lat="47.55477" lon="6.76596">
        <ele>413.4</ele>
        <time>2017-07-30T09:03:18.999Z</time>
      </trkpt>
      <trkpt lat="47.55477" lon="6.76595">
        <ele>413.5</ele>
        <time>2017-07-30T09:03:19.999Z</time>
      </trkpt>
      <trkpt lat="47.5548" lon="6.76591">
        <ele>413.1</ele>
        <time>2017-07-30T09:03:24.999Z</time>
      </trkpt>
      <trkpt lat="47.55479" lon="6.7659">
        <ele>413</ele>
        <time>2017-07-30T09:03:25.999Z</time>
      </trkpt>
      <trkpt lat="47.55478" lon="6.76585">
        <ele>412.9</ele>
        <time>2017-07-30T09:03:27.999Z</time>
      </trkpt>
      <trkpt lat="47.55476" lon="6.76585">
        <ele>412.7</ele>
        <time>2017-07-30T09:03:28.999Z</time>
      </trkpt>
      <trkpt lat="47.55473" lon="6.7659">
        <ele>412.2</ele>
        <time>2017-07-30T09:03:31.999Z</time>
      </trkpt>
      <trkpt lat="47.55472" lon="6.76591">
        <ele>411.9</ele>
        <time>2017-07-30T09:03:32.999Z</time>
      </trkpt>
      <trkpt lat="47.55468" lon="6.76589">
        <ele>411.3</ele>
        <time>2017-07-30T09:03:36.999Z</time>
      </trkpt>
      <trkpt lat="47.55466" lon="6.76587">
        <ele>411.3</ele>
        <time>2017-07-30T09:03:37.999Z</time>
      </trkpt>
      <trkpt lat="47.55465" lon="6.76584">
        <ele>411.2</ele>
        <time>2017-07-30T09:03:39.999Z</time>
      </trkpt>
      <trkpt lat="47.55464" lon="6.76581">
        <ele>411.1</ele>
        <time>2017-07-30T09:03:40.999Z</time>
      </trkpt>
      <trkpt lat="47.55464" lon="6.76575">
        <ele>410.9</ele>
        <time>2017-07-30T09:03:43.999Z</time>
      </trkpt>
      <trkpt lat="47.55464" lon="6.76573">
        <ele>410.8</ele>
        <time>2017-07-30T09:03:44.999Z</time>
      </trkpt>
      <trkpt lat="47.55464" lon="6.76569">
        <ele>411</ele>
        <time>2017-07-30T09:03:47.999Z</time>
      </trkpt>
      <trkpt lat="47.55465" lon="6.76567">
        <ele>411</ele>
        <time>2017-07-30T09:03:48.999Z</time>
      </trkpt>
      <trkpt lat="47.55467" lon="6.76561">
        <ele>411.2</ele>
        <time>2017-07-30T09:03:51.999Z</time>
      </trkpt>
      <trkpt lat="47.55468" lon="6.7656">
        <ele>411.3</ele>
        <time>2017-07-30T09:03:52.999Z</time>
      </trkpt>
      <trkpt lat="47.5547" lon="6.76557">
        <ele>411.3</ele>
        <time>2017-07-30T09:03:53.999Z</time>
      </trkpt>
      <trkpt lat="47.55472" lon="6.76556">
        <ele>411.4</ele>
        <time>2017-07-30T09:03:54.999Z</time>
      </trkpt>
      <trkpt lat="47.55475" lon="6.76553">
        <ele>411.5</ele>
        <time>2017-07-30T09:03:56.999Z</time>
      </trkpt>
      <trkpt lat="47.55476" lon="6.7655">
        <ele>411.6</ele>
        <time>2017-07-30T09:03:57.999Z</time>
      </trkpt>
      <trkpt lat="47.55478" lon="6.76544">
        <ele>411.8</ele>
        <time>2017-07-30T09:03:59.999Z</time>
      </trkpt>
      <trkpt lat="47.55478" lon="6.76542">
        <ele>411.8</ele>
        <time>2017-07-30T09:04:00.999Z</time>
      </trkpt>
      <trkpt lat="47.5548" lon="6.76539">
        <ele>412.1</ele>
        <time>2017-07-30T09:04:03.999Z</time>
      </trkpt>
      <trkpt lat="47.55482" lon="6.76535">
        <ele>412.1</ele>
        <time>2017-07-30T09:04:04.999Z</time>
      </trkpt>
      <trkpt lat="47.55484" lon="6.76534">
        <ele>412.1</ele>
        <time>2017-07-30T09:04:05.999Z</time>
      </trkpt>
      <trkpt lat="47.55487" lon="6.7653">
        <ele>412.1</ele>
        <time>2017-07-30T09:04:06.999Z</time>
      </trkpt>
      <trkpt lat="47.5549" lon="6.76527">
        <ele>412.2</ele>
        <time>2017-07-30T09:04:09.999Z</time>
      </trkpt>
      <trkpt lat="47.5549" lon="6.76525">
        <ele>412.2</ele>
        <time>2017-07-30T09:04:10.999Z</time>
      </trkpt>
      <trkpt lat="47.55492" lon="6.76522">
        <ele>412.1</ele>
        <time>2017-07-30T09:04:12.999Z</time>
      </trkpt>
      <trkpt lat="47.55495" lon="6.76521">
        <ele>412.1</ele>
        <time>2017-07-30T09:04:13.999Z</time>
      </trkpt>
      <trkpt lat="47.55497" lon="6.76517">
        <ele>412</ele>
        <time>2017-07-30T09:04:16.999Z</time>
      </trkpt>
      <trkpt lat="47.55498" lon="6.76515">
        <ele>412.1</ele>
        <time>2017-07-30T09:04:17.999Z</time>
      </trkpt>
      <trkpt lat="47.555" lon="6.76515">
        <ele>412.1</ele>
        <time>2017-07-30T09:04:18.999Z</time>
      </trkpt>
      <trkpt lat="47.55504" lon="6.76514">
        <ele>412.1</ele>
        <time>2017-07-30T09:04:19.999Z</time>
      </trkpt>
      <trkpt lat="47.55505" lon="6.76512">
        <ele>412.1</ele>
        <time>2017-07-30T09:04:20.999Z</time>
      </trkpt>
      <trkpt lat="47.55508" lon="6.76507">
        <ele>412.1</ele>
        <time>2017-07-30T09:04:21.999Z</time>
      </trkpt>
      <trkpt lat="47.55511" lon="6.76504">
        <ele>412.3</ele>
        <time>2017-07-30T09:04:25.999Z</time>
      </trkpt>
      <trkpt lat="47.55513" lon="6.76503">
        <ele>412.5</ele>
        <time>2017-07-30T09:04:26.999Z</time>
      </trkpt>
      <trkpt lat="47.55515" lon="6.765">
        <ele>413</ele>
        <time>2017-07-30T09:04:34.999Z</time>
      </trkpt>
      <trkpt lat="47.55516" lon="6.76498">
        <ele>413.1</ele>
        <time>2017-07-30T09:04:35.999Z</time>
      </trkpt>
      <trkpt lat="47.55519" lon="6.76492">
        <ele>413.1</ele>
        <time>2017-07-30T09:04:36.999Z</time>
      </trkpt>
      <trkpt lat="47.55522" lon="6.76487">
        <ele>413.2</ele>
        <time>2017-07-30T09:04:37.999Z</time>
      </trkpt>
      <trkpt lat="47.55524" lon="6.76481">
        <ele>413.4</ele>
        <time>2017-07-30T09:04:38.999Z</time>
      </trkpt>
      <trkpt lat="47.55525" lon="6.76477">
        <ele>414</ele>
        <time>2017-07-30T09:04:42.999Z</time>
      </trkpt>
      <trkpt lat="47.55528" lon="6.76478">
        <ele>414.1</ele>
        <time>2017-07-30T09:04:43.999Z</time>
      </trkpt>
      <trkpt lat="47.55533" lon="6.76476">
        <ele>414.4</ele>
        <time>2017-07-30T09:04:44.999Z</time>
      </trkpt>
      <trkpt lat="47.55533" lon="6.7647">
        <ele>414.6</ele>
        <time>2017-07-30T09:04:45.999Z</time>
      </trkpt>
      <trkpt lat="47.55533" lon="6.76469">
        <ele>414.8</ele>
        <time>2017-07-30T09:04:46.999Z</time>
      </trkpt>
      <trkpt lat="47.55533" lon="6.76468">
        <ele>415.2</ele>
        <time>2017-07-30T09:04:47.999Z</time>
      </trkpt>
      <trkpt lat="47.55537" lon="6.76463">
        <ele>415.4</ele>
        <time>2017-07-30T09:04:48.999Z</time>
      </trkpt>
      <trkpt lat="47.5554" lon="6.76458">
        <ele>415.7</ele>
        <time>2017-07-30T09:04:49.999Z</time>
      </trkpt>
      <trkpt lat="47.55542" lon="6.76454">
        <ele>415.9</ele>
        <time>2017-07-30T09:04:50.999Z</time>
      </trkpt>
      <trkpt lat="47.55544" lon="6.7645">
        <ele>416.1</ele>
        <time>2017-07-30T09:04:51.999Z</time>
      </trkpt>
      <trkpt lat="47.55548" lon="6.76446">
        <ele>416.6</ele>
        <time>2017-07-30T09:04:54.000Z</time>
      </trkpt>
      <trkpt lat="47.55548" lon="6.76445">
        <ele>416.9</ele>
        <time>2017-07-30T09:04:54.999Z</time>
      </trkpt>
      <trkpt lat="47.55549" lon="6.76445">
        <ele>417.2</ele>
        <time>2017-07-30T09:04:55.999Z</time>
      </trkpt>
      <trkpt lat="47.55554" lon="6.76444">
        <ele>417.5</ele>
        <time>2017-07-30T09:04:57.000Z</time>
      </trkpt>
      <trkpt lat="47.55558" lon="6.76441">
        <ele>417.7</ele>
        <time>2017-07-30T09:04:58.000Z</time>
      </trkpt>
      <trkpt lat="47.55559" lon="6.7644">
        <ele>417.8</ele>
        <time>2017-07-30T09:04:59.000Z</time>
      </trkpt>
      <trkpt lat="47.55563" lon="6.76438">
        <ele>417.9</ele>
        <time>2017-07-30T09:05:00.000Z</time>
      </trkpt>
      <trkpt lat="47.55568" lon="6.76438">
        <ele>417.9</ele>
        <time>2017-07-30T09:05:01.000Z</time>
      </trkpt>
      <trkpt lat="47.55573" lon="6.76438">
        <ele>417.9</ele>
        <time>2017-07-30T09:05:02.000Z</time>
      </trkpt>
      <trkpt lat="47.55576" lon="6.76438">
        <ele>417.9</ele>
        <time>2017-07-30T09:05:03.000Z</time>
      </trkpt>
      <trkpt lat="47.55579" lon="6.76437">
        <ele>417.9</ele>
        <time>2017-07-30T09:05:04.000Z</time>
      </trkpt>
      <trkpt lat="47.55584" lon="6.76436">
        <ele>418</ele>
        <time>2017-07-30T09:05:05.000Z</time>
      </trkpt>
      <trkpt lat="47.55586" lon="6.76432">
        <ele>418.1</ele>
        <time>2017-07-30T09:05:08.000Z</time>
      </trkpt>
      <trkpt lat="47.55588" lon="6.76432">
        <ele>418.2</ele>
        <time>2017-07-30T09:05:09.000Z</time>
      </trkpt>
      <trkpt lat="47.55592" lon="6.76433">
        <ele>418.2</ele>
        <time>2017-07-30T09:05:10.000Z</time>
      </trkpt>
      <trkpt lat="47.55595" lon="6.76435">
        <ele>418.2</ele>
        <time>2017-07-30T09:05:11.000Z</time>
      </trkpt>
      <trkpt lat="47.55599" lon="6.76436">
        <ele>418.2</ele>
        <time>2017-07-30T09:05:12.000Z</time>
      </trkpt>
      <trkpt lat="47.55602" lon="6.76437">
        <ele>418.2</ele>
        <time>2017-07-30T09:05:13.000Z</time>
      </trkpt>
      <trkpt lat="47.55605" lon="6.76438">
        <ele>418.2</ele>
        <time>2017-07-30T09:05:14.000Z</time>
      </trkpt>
      <trkpt lat="47.5561" lon="6.76442">
        <ele>418.2</ele>
        <time>2017-07-30T09:05:15.000Z</time>
      </trkpt>
      <trkpt lat="47.55612" lon="6.76445">
        <ele>418.2</ele>
        <time>2017-07-30T09:05:16.000Z</time>
      </trkpt>
      <trkpt lat="47.55615" lon="6.76447">
        <ele>418.2</ele>
        <time>2017-07-30T09:05:17.000Z</time>
      </trkpt>
      <trkpt lat="47.55617" lon="6.76447">
        <ele>418.2</ele>
        <time>2017-07-30T09:05:18.000Z</time>
      </trkpt>
      <trkpt lat="47.5562" lon="6.76446">
        <ele>418.2</ele>
        <time>2017-07-30T09:05:19.000Z</time>
      </trkpt>
      <trkpt lat="47.55624" lon="6.76444">
        <ele>417.8</ele>
        <time>2017-07-30T09:05:22.000Z</time>
      </trkpt>
      <trkpt lat="47.55625" lon="6.76443">
        <ele>417.6</ele>
        <time>2017-07-30T09:05:23.000Z</time>
      </trkpt>
      <trkpt lat="47.55627" lon="6.76441">
        <ele>417.4</ele>
        <time>2017-07-30T09:05:24.000Z</time>
      </trkpt>
      <trkpt lat="47.55629" lon="6.7644">
        <ele>417.3</ele>
        <time>2017-07-30T09:05:25.000Z</time>
      </trkpt>
      <trkpt lat="47.55633" lon="6.76436">
        <ele>417</ele>
        <time>2017-07-30T09:05:27.000Z</time>
      </trkpt>
      <trkpt lat="47.55634" lon="6.76434">
        <ele>416.9</ele>
        <time>2017-07-30T09:05:28.000Z</time>
      </trkpt>
      <trkpt lat="47.55636" lon="6.76429">
        <ele>416.7</ele>
        <time>2017-07-30T09:05:32.000Z</time>
      </trkpt>
      <trkpt lat="47.55636" lon="6.76427">
        <ele>416.8</ele>
        <time>2017-07-30T09:05:33.000Z</time>
      </trkpt>
      <trkpt lat="47.55637" lon="6.76423">
        <ele>416.9</ele>
        <time>2017-07-30T09:05:35.000Z</time>
      </trkpt>
      <trkpt lat="47.55638" lon="6.7642">
        <ele>416.9</ele>
        <time>2017-07-30T09:05:36.000Z</time>
      </trkpt>
      <trkpt lat="47.55639" lon="6.76415">
        <ele>417.1</ele>
        <time>2017-07-30T09:05:38.000Z</time>
      </trkpt>
      <trkpt lat="47.5564" lon="6.76413">
        <ele>417.3</ele>
        <time>2017-07-30T09:05:39.000Z</time>
      </trkpt>
      <trkpt lat="47.5564" lon="6.76409">
        <ele>417.4</ele>
        <time>2017-07-30T09:05:40.000Z</time>
      </trkpt>
      <trkpt lat="47.55642" lon="6.76406">
        <ele>417.5</ele>
        <time>2017-07-30T09:05:41.000Z</time>
      </trkpt>
      <trkpt lat="47.55644" lon="6.76402">
        <ele>417.5</ele>
        <time>2017-07-30T09:05:42.000Z</time>
      </trkpt>
      <trkpt lat="47.55645" lon="6.76399">
        <ele>417.6</ele>
        <time>2017-07-30T09:05:43.000Z</time>
      </trkpt>
      <trkpt lat="47.55647" lon="6.76393">
        <ele>417.6</ele>
        <time>2017-07-30T09:05:45.000Z</time>
      </trkpt>
      <trkpt lat="47.55649" lon="6.76389">
        <ele>417.6</ele>
        <time>2017-07-30T09:05:46.000Z</time>
      </trkpt>
      <trkpt lat="47.5565" lon="6.76386">
        <ele>417.6</ele>
        <time>2017-07-30T09:05:47.000Z</time>
      </trkpt>
      <trkpt lat="47.55651" lon="6.76381">
        <ele>417.6</ele>
        <time>2017-07-30T09:05:48.000Z</time>
      </trkpt>
      <trkpt lat="47.55653" lon="6.76377">
        <ele>417.7</ele>
        <time>2017-07-30T09:05:49.000Z</time>
      </trkpt>
      <trkpt lat="47.55654" lon="6.76375">
        <ele>417.7</ele>
        <time>2017-07-30T09:05:50.000Z</time>
      </trkpt>
      <trkpt lat="47.55654" lon="6.76372">
        <ele>417.7</ele>
        <time>2017-07-30T09:05:51.000Z</time>
      </trkpt>
      <trkpt lat="47.55655" lon="6.76368">
        <ele>417.8</ele>
        <time>2017-07-30T09:05:52.000Z</time>
      </trkpt>
      <trkpt lat="47.55656" lon="6.76364">
        <ele>417.8</ele>
        <time>2017-07-30T09:05:53.000Z</time>
      </trkpt>
      <trkpt lat="47.55658" lon="6.76361">
        <ele>417.9</ele>
        <time>2017-07-30T09:05:54.000Z</time>
      </trkpt>
      <trkpt lat="47.5566" lon="6.76358">
        <ele>417.9</ele>
        <time>2017-07-30T09:05:55.000Z</time>
      </trkpt>
      <trkpt lat="47.55662" lon="6.76354">
        <ele>417.9</ele>
        <time>2017-07-30T09:05:56.000Z</time>
      </trkpt>
      <trkpt lat="47.55663" lon="6.76351">
        <ele>417.9</ele>
        <time>2017-07-30T09:05:57.000Z</time>
      </trkpt>
      <trkpt lat="47.55665" lon="6.76348">
        <ele>418</ele>
        <time>2017-07-30T09:05:58.000Z</time>
      </trkpt>
      <trkpt lat="47.55667" lon="6.76346">
        <ele>418</ele>
        <time>2017-07-30T09:05:59.000Z</time>
      </trkpt>
      <trkpt lat="47.55669" lon="6.76344">
        <ele>418.1</ele>
        <time>2017-07-30T09:06:00.000Z</time>
      </trkpt>
      <trkpt lat="47.55672" lon="6.7634">
        <ele>418.2</ele>
        <time>2017-07-30T09:06:02.000Z</time>
      </trkpt>
      <trkpt lat="47.55673" lon="6.76339">
        <ele>418.2</ele>
        <time>2017-07-30T09:06:03.000Z</time>
      </trkpt>
      <trkpt lat="47.55677" lon="6.76335">
        <ele>418.4</ele>
        <time>2017-07-30T09:06:05.000Z</time>
      </trkpt>
      <trkpt lat="47.55679" lon="6.76332">
        <ele>418.5</ele>
        <time>2017-07-30T09:06:06.000Z</time>
      </trkpt>
      <trkpt lat="47.55682" lon="6.76329">
        <ele>418.8</ele>
        <time>2017-07-30T09:06:08.000Z</time>
      </trkpt>
      <trkpt lat="47.55685" lon="6.76328">
        <ele>419</ele>
        <time>2017-07-30T09:06:09.000Z</time>
      </trkpt>
      <trkpt lat="47.55689" lon="6.76327">
        <ele>419.1</ele>
        <time>2017-07-30T09:06:10.000Z</time>
      </trkpt>
      <trkpt lat="47.55692" lon="6.76326">
        <ele>419.2</ele>
        <time>2017-07-30T09:06:11.000Z</time>
      </trkpt>
      <trkpt lat="47.55695" lon="6.76325">
        <ele>419.4</ele>
        <time>2017-07-30T09:06:12.000Z</time>
      </trkpt>
      <trkpt lat="47.55698" lon="6.76324">
        <ele>419.7</ele>
        <time>2017-07-30T09:06:13.000Z</time>
      </trkpt>
      <trkpt lat="47.557" lon="6.76325">
        <ele>419.9</ele>
        <time>2017-07-30T09:06:14.000Z</time>
      </trkpt>
      <trkpt lat="47.55704" lon="6.76324">
        <ele>419.9</ele>
        <time>2017-07-30T09:06:15.000Z</time>
      </trkpt>
      <trkpt lat="47.55707" lon="6.76323">
        <ele>420</ele>
        <time>2017-07-30T09:06:16.000Z</time>
      </trkpt>
      <trkpt lat="47.55709" lon="6.76323">
        <ele>420</ele>
        <time>2017-07-30T09:06:17.000Z</time>
      </trkpt>
      <trkpt lat="47.55712" lon="6.76322">
        <ele>420.2</ele>
        <time>2017-07-30T09:06:18.000Z</time>
      </trkpt>
      <trkpt lat="47.55715" lon="6.76321">
        <ele>420.2</ele>
        <time>2017-07-30T09:06:19.000Z</time>
      </trkpt>
      <trkpt lat="47.55718" lon="6.7632">
        <ele>420.3</ele>
        <time>2017-07-30T09:06:20.000Z</time>
      </trkpt>
      <trkpt lat="47.55721" lon="6.76319">
        <ele>420.5</ele>
        <time>2017-07-30T09:06:21.000Z</time>
      </trkpt>
      <trkpt lat="47.55724" lon="6.76318">
        <ele>420.6</ele>
        <time>2017-07-30T09:06:22.000Z</time>
      </trkpt>
      <trkpt lat="47.55726" lon="6.76317">
        <ele>420.7</ele>
        <time>2017-07-30T09:06:23.000Z</time>
      </trkpt>
      <trkpt lat="47.55729" lon="6.76315">
        <ele>420.9</ele>
        <time>2017-07-30T09:06:24.000Z</time>
      </trkpt>
      <trkpt lat="47.55731" lon="6.76312">
        <ele>421</ele>
        <time>2017-07-30T09:06:25.000Z</time>
      </trkpt>
      <trkpt lat="47.55735" lon="6.76308">
        <ele>421.3</ele>
        <time>2017-07-30T09:06:27.000Z</time>
      </trkpt>
      <trkpt lat="47.55736" lon="6.76305">
        <ele>421.4</ele>
        <time>2017-07-30T09:06:28.000Z</time>
      </trkpt>
      <trkpt lat="47.55738" lon="6.763">
        <ele>421.5</ele>
        <time>2017-07-30T09:06:31.000Z</time>
      </trkpt>
      <trkpt lat="47.55739" lon="6.76297">
        <ele>421.4</ele>
        <time>2017-07-30T09:06:32.000Z</time>
      </trkpt>
      <trkpt lat="47.55738" lon="6.76293">
        <ele>421.5</ele>
        <time>2017-07-30T09:06:34.000Z</time>
      </trkpt>
      <trkpt lat="47.55739" lon="6.7629">
        <ele>421.5</ele>
        <time>2017-07-30T09:06:35.000Z</time>
      </trkpt>
      <trkpt lat="47.55741" lon="6.76287">
        <ele>421.6</ele>
        <time>2017-07-30T09:06:36.000Z</time>
      </trkpt>
      <trkpt lat="47.55742" lon="6.76284">
        <ele>421.7</ele>
        <time>2017-07-30T09:06:37.000Z</time>
      </trkpt>
      <trkpt lat="47.55743" lon="6.76279">
        <ele>421.8</ele>
        <time>2017-07-30T09:06:39.000Z</time>
      </trkpt>
      <trkpt lat="47.55744" lon="6.76276">
        <ele>421.9</ele>
        <time>2017-07-30T09:06:40.000Z</time>
      </trkpt>
      <trkpt lat="47.55746" lon="6.7627">
        <ele>422.3</ele>
        <time>2017-07-30T09:06:42.000Z</time>
      </trkpt>
      <trkpt lat="47.55748" lon="6.76268">
        <ele>422.5</ele>
        <time>2017-07-30T09:06:43.000Z</time>
      </trkpt>
      <trkpt lat="47.55749" lon="6.76264">
        <ele>422.8</ele>
        <time>2017-07-30T09:06:44.000Z</time>
      </trkpt>
      <trkpt lat="47.55749" lon="6.7626">
        <ele>423.1</ele>
        <time>2017-07-30T09:06:45.000Z</time>
      </trkpt>
      <trkpt lat="47.5575" lon="6.76257">
        <ele>423.4</ele>
        <time>2017-07-30T09:06:46.000Z</time>
      </trkpt>
      <trkpt lat="47.55752" lon="6.76254">
        <ele>423.6</ele>
        <time>2017-07-30T09:06:47.000Z</time>
      </trkpt>
      <trkpt lat="47.55752" lon="6.76248">
        <ele>424</ele>
        <time>2017-07-30T09:06:49.000Z</time>
      </trkpt>
      <trkpt lat="47.55753" lon="6.76245">
        <ele>424.1</ele>
        <time>2017-07-30T09:06:50.000Z</time>
      </trkpt>
      <trkpt lat="47.55755" lon="6.7624">
        <ele>424.4</ele>
        <time>2017-07-30T09:06:52.000Z</time>
      </trkpt>
      <trkpt lat="47.55756" lon="6.76237">
        <ele>424.5</ele>
        <time>2017-07-30T09:06:53.000Z</time>
      </trkpt>
      <trkpt lat="47.55756" lon="6.76232">
        <ele>424.8</ele>
        <time>2017-07-30T09:06:55.000Z</time>
      </trkpt>
      <trkpt lat="47.55757" lon="6.76229">
        <ele>425</ele>
        <time>2017-07-30T09:06:56.000Z</time>
      </trkpt>
      <trkpt lat="47.55755" lon="6.76224">
        <ele>425.3</ele>
        <time>2017-07-30T09:06:58.000Z</time>
      </trkpt>
      <trkpt lat="47.55754" lon="6.76222">
        <ele>425.5</ele>
        <time>2017-07-30T09:06:59.000Z</time>
      </trkpt>
      <trkpt lat="47.55754" lon="6.76216">
        <ele>426</ele>
        <time>2017-07-30T09:07:03.000Z</time>
      </trkpt>
      <trkpt lat="47.55753" lon="6.76213">
        <ele>426</ele>
        <time>2017-07-30T09:07:04.000Z</time>
      </trkpt>
      <trkpt lat="47.55753" lon="6.76208">
        <ele>426.3</ele>
        <time>2017-07-30T09:07:08.000Z</time>
      </trkpt>
      <trkpt lat="47.55753" lon="6.76206">
        <ele>426.5</ele>
        <time>2017-07-30T09:07:09.000Z</time>
      </trkpt>
      <trkpt lat="47.5575" lon="6.76203">
        <ele>427.1</ele>
        <time>2017-07-30T09:07:13.000Z</time>
      </trkpt>
      <trkpt lat="47.55749" lon="6.76202">
        <ele>427.3</ele>
        <time>2017-07-30T09:07:14.000Z</time>
      </trkpt>
      <trkpt lat="47.55748" lon="6.76196">
        <ele>427.9</ele>
        <time>2017-07-30T09:07:17.000Z</time>
      </trkpt>
      <trkpt lat="47.55747" lon="6.76191">
        <ele>428.2</ele>
        <time>2017-07-30T09:07:18.000Z</time>
      </trkpt>
      <trkpt lat="47.55747" lon="6.76187">
        <ele>428.4</ele>
        <time>2017-07-30T09:07:19.000Z</time>
      </trkpt>
      <trkpt lat="47.55746" lon="6.76184">
        <ele>428.6</ele>
        <time>2017-07-30T09:07:20.000Z</time>
      </trkpt>
      <trkpt lat="47.55746" lon="6.76177">
        <ele>429</ele>
        <time>2017-07-30T09:07:22.000Z</time>
      </trkpt>
      <trkpt lat="47.55745" lon="6.76175">
        <ele>429.2</ele>
        <time>2017-07-30T09:07:23.000Z</time>
      </trkpt>
      <trkpt lat="47.55744" lon="6.76169">
        <ele>429.7</ele>
        <time>2017-07-30T09:07:25.000Z</time>
      </trkpt>
      <trkpt lat="47.55743" lon="6.76166">
        <ele>429.9</ele>
        <time>2017-07-30T09:07:26.000Z</time>
      </trkpt>
      <trkpt lat="47.55743" lon="6.7616">
        <ele>430.4</ele>
        <time>2017-07-30T09:07:28.000Z</time>
      </trkpt>
      <trkpt lat="47.55742" lon="6.76158">
        <ele>430.6</ele>
        <time>2017-07-30T09:07:29.000Z</time>
      </trkpt>
      <trkpt lat="47.55741" lon="6.76152">
        <ele>431.1</ele>
        <time>2017-07-30T09:07:32.000Z</time>
      </trkpt>
      <trkpt lat="47.55741" lon="6.7615">
        <ele>431.3</ele>
        <time>2017-07-30T09:07:33.000Z</time>
      </trkpt>
      <trkpt lat="47.55742" lon="6.76145">
        <ele>431.5</ele>
        <time>2017-07-30T09:07:34.000Z</time>
      </trkpt>
      <trkpt lat="47.55742" lon="6.76142">
        <ele>431.7</ele>
        <time>2017-07-30T09:07:35.000Z</time>
      </trkpt>
      <trkpt lat="47.5574" lon="6.76138">
        <ele>432.1</ele>
        <time>2017-07-30T09:07:37.000Z</time>
      </trkpt>
      <trkpt lat="47.5574" lon="6.76135">
        <ele>432.2</ele>
        <time>2017-07-30T09:07:38.000Z</time>
      </trkpt>
      <trkpt lat="47.55739" lon="6.76129">
        <ele>432.5</ele>
        <time>2017-07-30T09:07:40.000Z</time>
      </trkpt>
      <trkpt lat="47.55739" lon="6.76126">
        <ele>432.6</ele>
        <time>2017-07-30T09:07:41.000Z</time>
      </trkpt>
      <trkpt lat="47.55737" lon="6.76121">
        <ele>433.1</ele>
        <time>2017-07-30T09:07:44.000Z</time>
      </trkpt>
      <trkpt lat="47.55736" lon="6.76118">
        <ele>433.2</ele>
        <time>2017-07-30T09:07:45.000Z</time>
      </trkpt>
      <trkpt lat="47.55734" lon="6.76114">
        <ele>433.6</ele>
        <time>2017-07-30T09:07:48.000Z</time>
      </trkpt>
      <trkpt lat="47.55733" lon="6.76112">
        <ele>433.7</ele>
        <time>2017-07-30T09:07:49.000Z</time>
      </trkpt>
      <trkpt lat="47.55731" lon="6.7611">
        <ele>433.9</ele>
        <time>2017-07-30T09:07:51.000Z</time>
      </trkpt>
      <trkpt lat="47.55729" lon="6.76109">
        <ele>434</ele>
        <time>2017-07-30T09:07:52.000Z</time>
      </trkpt>
      <trkpt lat="47.55726" lon="6.76106">
        <ele>434.1</ele>
        <time>2017-07-30T09:07:54.000Z</time>
      </trkpt>
      <trkpt lat="47.55724" lon="6.76105">
        <ele>434.2</ele>
        <time>2017-07-30T09:07:55.000Z</time>
      </trkpt>
      <trkpt lat="47.55721" lon="6.76102">
        <ele>434.5</ele>
        <time>2017-07-30T09:07:58.000Z</time>
      </trkpt>
      <trkpt lat="47.55719" lon="6.76102">
        <ele>434.7</ele>
        <time>2017-07-30T09:07:59.000Z</time>
      </trkpt>
      <trkpt lat="47.55716" lon="6.76099">
        <ele>435.1</ele>
        <time>2017-07-30T09:08:03.000Z</time>
      </trkpt>
      <trkpt lat="47.55714" lon="6.76098">
        <ele>435.2</ele>
        <time>2017-07-30T09:08:04.000Z</time>
      </trkpt>
      <trkpt lat="47.55711" lon="6.76096">
        <ele>435.5</ele>
        <time>2017-07-30T09:08:07.000Z</time>
      </trkpt>
      <trkpt lat="47.55709" lon="6.76095">
        <ele>435.5</ele>
        <time>2017-07-30T09:08:08.000Z</time>
      </trkpt>
      <trkpt lat="47.55706" lon="6.76093">
        <ele>435.9</ele>
        <time>2017-07-30T09:08:11.000Z</time>
      </trkpt>
      <trkpt lat="47.55705" lon="6.76092">
        <ele>436.1</ele>
        <time>2017-07-30T09:08:12.000Z</time>
      </trkpt>
      <trkpt lat="47.55703" lon="6.76086">
        <ele>436.5</ele>
        <time>2017-07-30T09:08:14.000Z</time>
      </trkpt>
      <trkpt lat="47.55702" lon="6.76085">
        <ele>436.6</ele>
        <time>2017-07-30T09:08:15.000Z</time>
      </trkpt>
      <trkpt lat="47.55699" lon="6.76082">
        <ele>437.2</ele>
        <time>2017-07-30T09:08:18.000Z</time>
      </trkpt>
      <trkpt lat="47.55698" lon="6.76078">
        <ele>437.4</ele>
        <time>2017-07-30T09:08:19.000Z</time>
      </trkpt>
      <trkpt lat="47.55695" lon="6.76074">
        <ele>437.8</ele>
        <time>2017-07-30T09:08:22.000Z</time>
      </trkpt>
      <trkpt lat="47.55694" lon="6.76072">
        <ele>438</ele>
        <time>2017-07-30T09:08:23.000Z</time>
      </trkpt>
      <trkpt lat="47.55692" lon="6.76067">
        <ele>438.4</ele>
        <time>2017-07-30T09:08:26.000Z</time>
      </trkpt>
      <trkpt lat="47.55692" lon="6.76066">
        <ele>438.5</ele>
        <time>2017-07-30T09:08:27.000Z</time>
      </trkpt>
      <trkpt lat="47.55689" lon="6.76061">
        <ele>438.9</ele>
        <time>2017-07-30T09:08:30.000Z</time>
      </trkpt>
      <trkpt lat="47.55688" lon="6.76061">
        <ele>439.1</ele>
        <time>2017-07-30T09:08:31.000Z</time>
      </trkpt>
      <trkpt lat="47.55686" lon="6.76056">
        <ele>439.5</ele>
        <time>2017-07-30T09:08:34.000Z</time>
      </trkpt>
      <trkpt lat="47.55686" lon="6.76054">
        <ele>439.7</ele>
        <time>2017-07-30T09:08:35.000Z</time>
      </trkpt>
      <trkpt lat="47.55684" lon="6.76052">
        <ele>440</ele>
        <time>2017-07-30T09:08:37.000Z</time>
      </trkpt>
      <trkpt lat="47.55682" lon="6.7605">
        <ele>440.1</ele>
        <time>2017-07-30T09:08:38.000Z</time>
      </trkpt>
      <trkpt lat="47.55679" lon="6.76047">
        <ele>440.3</ele>
        <time>2017-07-30T09:08:40.000Z</time>
      </trkpt>
      <trkpt lat="47.55677" lon="6.76045">
        <ele>440.5</ele>
        <time>2017-07-30T09:08:41.000Z</time>
      </trkpt>
      <trkpt lat="47.55674" lon="6.76042">
        <ele>441</ele>
        <time>2017-07-30T09:08:45.000Z</time>
      </trkpt>
      <trkpt lat="47.55673" lon="6.76041">
        <ele>441</ele>
        <time>2017-07-30T09:08:46.000Z</time>
      </trkpt>
      <trkpt lat="47.5567" lon="6.76037">
        <ele>441.2</ele>
        <time>2017-07-30T09:08:48.000Z</time>
      </trkpt>
      <trkpt lat="47.55668" lon="6.76035">
        <ele>441.4</ele>
        <time>2017-07-30T09:08:49.000Z</time>
      </trkpt>
      <trkpt lat="47.55665" lon="6.76031">
        <ele>441.6</ele>
        <time>2017-07-30T09:08:51.000Z</time>
      </trkpt>
      <trkpt lat="47.55663" lon="6.7603">
        <ele>441.8</ele>
        <time>2017-07-30T09:08:52.000Z</time>
      </trkpt>
      <trkpt lat="47.5566" lon="6.76026">
        <ele>442.3</ele>
        <time>2017-07-30T09:08:55.000Z</time>
      </trkpt>
      <trkpt lat="47.55658" lon="6.76026">
        <ele>442.5</ele>
        <time>2017-07-30T09:08:56.000Z</time>
      </trkpt>
      <trkpt lat="47.55655" lon="6.76022">
        <ele>442.8</ele>
        <time>2017-07-30T09:08:58.000Z</time>
      </trkpt>
      <trkpt lat="47.55654" lon="6.7602">
        <ele>443</ele>
        <time>2017-07-30T09:08:59.000Z</time>
      </trkpt>
      <trkpt lat="47.55651" lon="6.76016">
        <ele>443.5</ele>
        <time>2017-07-30T09:09:02.000Z</time>
      </trkpt>
      <trkpt lat="47.5565" lon="6.76015">
        <ele>443.7</ele>
        <time>2017-07-30T09:09:03.000Z</time>
      </trkpt>
      <trkpt lat="47.55646" lon="6.76011">
        <ele>444</ele>
        <time>2017-07-30T09:09:06.000Z</time>
      </trkpt>
      <trkpt lat="47.55645" lon="6.7601">
        <ele>444</ele>
        <time>2017-07-30T09:09:07.000Z</time>
      </trkpt>
      <trkpt lat="47.55642" lon="6.76007">
        <ele>444.3</ele>
        <time>2017-07-30T09:09:10.000Z</time>
      </trkpt>
      <trkpt lat="47.5564" lon="6.76007">
        <ele>444.4</ele>
        <time>2017-07-30T09:09:11.000Z</time>
      </trkpt>
      <trkpt lat="47.55638" lon="6.76003">
        <ele>444.7</ele>
        <time>2017-07-30T09:09:13.000Z</time>
      </trkpt>
      <trkpt lat="47.55636" lon="6.76001">
        <ele>444.8</ele>
        <time>2017-07-30T09:09:14.000Z</time>
      </trkpt>
      <trkpt lat="47.55633" lon="6.75997">
        <ele>445.4</ele>
        <time>2017-07-30T09:09:18.000Z</time>
      </trkpt>
      <trkpt lat="47.55632" lon="6.75996">
        <ele>445.4</ele>
        <time>2017-07-30T09:09:19.000Z</time>
      </trkpt>
      <trkpt lat="47.55629" lon="6.75992">
        <ele>445.8</ele>
        <time>2017-07-30T09:09:23.000Z</time>
      </trkpt>
      <trkpt lat="47.55627" lon="6.75991">
        <ele>445.9</ele>
        <time>2017-07-30T09:09:24.000Z</time>
      </trkpt>
      <trkpt lat="47.55625" lon="6.75986">
        <ele>446.1</ele>
        <time>2017-07-30T09:09:26.000Z</time>
      </trkpt>
      <trkpt lat="47.55624" lon="6.75985">
        <ele>446.2</ele>
        <time>2017-07-30T09:09:27.000Z</time>
      </trkpt>
      <trkpt lat="47.5562" lon="6.75983">
        <ele>446.3</ele>
        <time>2017-07-30T09:09:32.000Z</time>
      </trkpt>
      <trkpt lat="47.5562" lon="6.75982">
        <ele>446.3</ele>
        <time>2017-07-30T09:09:33.000Z</time>
      </trkpt>
      <trkpt lat="47.55616" lon="6.75979">
        <ele>446.1</ele>
        <time>2017-07-30T09:09:37.000Z</time>
      </trkpt>
      <trkpt lat="47.55615" lon="6.75978">
        <ele>446.2</ele>
        <time>2017-07-30T09:09:38.000Z</time>
      </trkpt>
      <trkpt lat="47.55612" lon="6.75977">
        <ele>446.4</ele>
        <time>2017-07-30T09:09:40.000Z</time>
      </trkpt>
      <trkpt lat="47.5561" lon="6.75976">
        <ele>446.6</ele>
        <time>2017-07-30T09:09:41.000Z</time>
      </trkpt>
      <trkpt lat="47.55606" lon="6.75974">
        <ele>447</ele>
        <time>2017-07-30T09:09:44.000Z</time>
      </trkpt>
      <trkpt lat="47.55605" lon="6.75973">
        <ele>447.1</ele>
        <time>2017-07-30T09:09:45.000Z</time>
      </trkpt>
      <trkpt lat="47.55604" lon="6.75968">
        <ele>447.5</ele>
        <time>2017-07-30T09:09:48.000Z</time>
      </trkpt>
      <trkpt lat="47.55603" lon="6.75966">
        <ele>447.8</ele>
        <time>2017-07-30T09:09:49.000Z</time>
      </trkpt>
      <trkpt lat="47.55601" lon="6.75962">
        <ele>448.4</ele>
        <time>2017-07-30T09:09:51.000Z</time>
      </trkpt>
      <trkpt lat="47.556" lon="6.7596">
        <ele>448.7</ele>
        <time>2017-07-30T09:09:52.000Z</time>
      </trkpt>
      <trkpt lat="47.55598" lon="6.75955">
        <ele>449.5</ele>
        <time>2017-07-30T09:09:56.000Z</time>
      </trkpt>
      <trkpt lat="47.55596" lon="6.7595">
        <ele>449.8</ele>
        <time>2017-07-30T09:09:57.000Z</time>
      </trkpt>
      <trkpt lat="47.55598" lon="6.75944">
        <ele>450.6</ele>
        <time>2017-07-30T09:10:00.000Z</time>
      </trkpt>
      <trkpt lat="47.55598" lon="6.75942">
        <ele>451</ele>
        <time>2017-07-30T09:10:01.000Z</time>
      </trkpt>
      <trkpt lat="47.55601" lon="6.75937">
        <ele>451.7</ele>
        <time>2017-07-30T09:10:03.000Z</time>
      </trkpt>
      <trkpt lat="47.55603" lon="6.75931">
        <ele>452</ele>
        <time>2017-07-30T09:10:04.000Z</time>
      </trkpt>
      <trkpt lat="47.55605" lon="6.75928">
        <ele>452.4</ele>
        <time>2017-07-30T09:10:05.000Z</time>
      </trkpt>
      <trkpt lat="47.5561" lon="6.75923">
        <ele>452.8</ele>
        <time>2017-07-30T09:10:06.000Z</time>
      </trkpt>
      <trkpt lat="47.55612" lon="6.75921">
        <ele>453.1</ele>
        <time>2017-07-30T09:10:07.000Z</time>
      </trkpt>
      <trkpt lat="47.55614" lon="6.75919">
        <ele>453.4</ele>
        <time>2017-07-30T09:10:08.000Z</time>
      </trkpt>
      <trkpt lat="47.55617" lon="6.75919">
        <ele>453.6</ele>
        <time>2017-07-30T09:10:09.000Z</time>
      </trkpt>
      <trkpt lat="47.55619" lon="6.75919">
        <ele>453.8</ele>
        <time>2017-07-30T09:10:10.000Z</time>
      </trkpt>
      <trkpt lat="47.55621" lon="6.75917">
        <ele>454.1</ele>
        <time>2017-07-30T09:10:11.000Z</time>
      </trkpt>
      <trkpt lat="47.55624" lon="6.75916">
        <ele>454.4</ele>
        <time>2017-07-30T09:10:12.000Z</time>
      </trkpt>
      <trkpt lat="47.55628" lon="6.75914">
        <ele>455</ele>
        <time>2017-07-30T09:10:14.000Z</time>
      </trkpt>
      <trkpt lat="47.55629" lon="6.75912">
        <ele>455.3</ele>
        <time>2017-07-30T09:10:15.000Z</time>
      </trkpt>
      <trkpt lat="47.55633" lon="6.7591">
        <ele>456.3</ele>
        <time>2017-07-30T09:10:18.000Z</time>
      </trkpt>
      <trkpt lat="47.55635" lon="6.75909">
        <ele>456.5</ele>
        <time>2017-07-30T09:10:19.000Z</time>
      </trkpt>
      <trkpt lat="47.55638" lon="6.75907">
        <ele>456.7</ele>
        <time>2017-07-30T09:10:20.000Z</time>
      </trkpt>
      <trkpt lat="47.5564" lon="6.75906">
        <ele>457</ele>
        <time>2017-07-30T09:10:21.000Z</time>
      </trkpt>
      <trkpt lat="47.55643" lon="6.75904">
        <ele>457.3</ele>
        <time>2017-07-30T09:10:22.000Z</time>
      </trkpt>
      <trkpt lat="47.55646" lon="6.759">
        <ele>457.4</ele>
        <time>2017-07-30T09:10:23.000Z</time>
      </trkpt>
      <trkpt lat="47.55649" lon="6.75896">
        <ele>457.7</ele>
        <time>2017-07-30T09:10:25.000Z</time>
      </trkpt>
      <trkpt lat="47.55651" lon="6.75893">
        <ele>457.9</ele>
        <time>2017-07-30T09:10:26.000Z</time>
      </trkpt>
      <trkpt lat="47.55654" lon="6.75889">
        <ele>458.5</ele>
        <time>2017-07-30T09:10:29.000Z</time>
      </trkpt>
      <trkpt lat="47.55657" lon="6.75889">
        <ele>458.7</ele>
        <time>2017-07-30T09:10:30.000Z</time>
      </trkpt>
      <trkpt lat="47.5566" lon="6.75889">
        <ele>459</ele>
        <time>2017-07-30T09:10:31.000Z</time>
      </trkpt>
      <trkpt lat="47.55665" lon="6.75888">
        <ele>459.3</ele>
        <time>2017-07-30T09:10:32.000Z</time>
      </trkpt>
      <trkpt lat="47.55668" lon="6.75885">
        <ele>459.6</ele>
        <time>2017-07-30T09:10:33.000Z</time>
      </trkpt>
      <trkpt lat="47.55671" lon="6.75882">
        <ele>459.9</ele>
        <time>2017-07-30T09:10:34.000Z</time>
      </trkpt>
      <trkpt lat="47.55676" lon="6.75879">
        <ele>460.2</ele>
        <time>2017-07-30T09:10:35.000Z</time>
      </trkpt>
      <trkpt lat="47.55681" lon="6.75881">
        <ele>460.5</ele>
        <time>2017-07-30T09:10:36.000Z</time>
      </trkpt>
      <trkpt lat="47.55685" lon="6.75883">
        <ele>460.8</ele>
        <time>2017-07-30T09:10:37.000Z</time>
      </trkpt>
      <trkpt lat="47.5569" lon="6.75885">
        <ele>461.1</ele>
        <time>2017-07-30T09:10:38.000Z</time>
      </trkpt>
      <trkpt lat="47.55695" lon="6.75888">
        <ele>461.4</ele>
        <time>2017-07-30T09:10:39.000Z</time>
      </trkpt>
      <trkpt lat="47.557" lon="6.75891">
        <ele>461.7</ele>
        <time>2017-07-30T09:10:40.000Z</time>
      </trkpt>
      <trkpt lat="47.55703" lon="6.75894">
        <ele>462</ele>
        <time>2017-07-30T09:10:41.000Z</time>
      </trkpt>
      <trkpt lat="47.55706" lon="6.75894">
        <ele>462.2</ele>
        <time>2017-07-30T09:10:42.000Z</time>
      </trkpt>
      <trkpt lat="47.55713" lon="6.75893">
        <ele>462.5</ele>
        <time>2017-07-30T09:10:43.000Z</time>
      </trkpt>
      <trkpt lat="47.55716" lon="6.75891">
        <ele>462.7</ele>
        <time>2017-07-30T09:10:44.000Z</time>
      </trkpt>
      <trkpt lat="47.55719" lon="6.75889">
        <ele>463</ele>
        <time>2017-07-30T09:10:45.000Z</time>
      </trkpt>
      <trkpt lat="47.55722" lon="6.75888">
        <ele>463.3</ele>
        <time>2017-07-30T09:10:46.000Z</time>
      </trkpt>
      <trkpt lat="47.55726" lon="6.75887">
        <ele>465.9</ele>
        <time>2017-07-30T09:10:47.000Z</time>
      </trkpt>
      <trkpt lat="47.55733" lon="6.75884">
        <ele>467.6</ele>
        <time>2017-07-30T09:10:48.000Z</time>
      </trkpt>
      <trkpt lat="47.55735" lon="6.75882">
        <ele>467.8</ele>
        <time>2017-07-30T09:10:49.000Z</time>
      </trkpt>
      <trkpt lat="47.55737" lon="6.75881">
        <ele>468</ele>
        <time>2017-07-30T09:10:50.000Z</time>
      </trkpt>
      <trkpt lat="47.55741" lon="6.75881">
        <ele>468.2</ele>
        <time>2017-07-30T09:10:51.000Z</time>
      </trkpt>
      <trkpt lat="47.55747" lon="6.7588">
        <ele>468.3</ele>
        <time>2017-07-30T09:10:52.000Z</time>
      </trkpt>
      <trkpt lat="47.55753" lon="6.75877">
        <ele>468.3</ele>
        <time>2017-07-30T09:10:53.000Z</time>
      </trkpt>
      <trkpt lat="47.55756" lon="6.75876">
        <ele>468.4</ele>
        <time>2017-07-30T09:10:54.000Z</time>
      </trkpt>
      <trkpt lat="47.55762" lon="6.75872">
        <ele>468.4</ele>
        <time>2017-07-30T09:10:55.000Z</time>
      </trkpt>
      <trkpt lat="47.55765" lon="6.75871">
        <ele>468.4</ele>
        <time>2017-07-30T09:10:56.000Z</time>
      </trkpt>
      <trkpt lat="47.55768" lon="6.75869">
        <ele>468.4</ele>
        <time>2017-07-30T09:10:57.000Z</time>
      </trkpt>
      <trkpt lat="47.55771" lon="6.75868">
        <ele>468.4</ele>
        <time>2017-07-30T09:10:58.000Z</time>
      </trkpt>
      <trkpt lat="47.55774" lon="6.75867">
        <ele>468.4</ele>
        <time>2017-07-30T09:10:59.000Z</time>
      </trkpt>
      <trkpt lat="47.55776" lon="6.75865">
        <ele>468.4</ele>
        <time>2017-07-30T09:11:00.000Z</time>
      </trkpt>
      <trkpt lat="47.5578" lon="6.75861">
        <ele>468.3</ele>
        <time>2017-07-30T09:11:01.000Z</time>
      </trkpt>
      <trkpt lat="47.55782" lon="6.75859">
        <ele>468.2</ele>
        <time>2017-07-30T09:11:02.000Z</time>
      </trkpt>
      <trkpt lat="47.55784" lon="6.75857">
        <ele>468.1</ele>
        <time>2017-07-30T09:11:03.000Z</time>
      </trkpt>
      <trkpt lat="47.55788" lon="6.75857">
        <ele>468</ele>
        <time>2017-07-30T09:11:06.000Z</time>
      </trkpt>
      <trkpt lat="47.55791" lon="6.7586">
        <ele>468</ele>
        <time>2017-07-30T09:11:07.000Z</time>
      </trkpt>
      <trkpt lat="47.55795" lon="6.75861">
        <ele>467.7</ele>
        <time>2017-07-30T09:11:08.000Z</time>
      </trkpt>
      <trkpt lat="47.55796" lon="6.75865">
        <ele>467.7</ele>
        <time>2017-07-30T09:11:09.000Z</time>
      </trkpt>
      <trkpt lat="47.55799" lon="6.75863">
        <ele>460.4</ele>
        <time>2017-07-30T09:11:34.000Z</time>
      </trkpt>
      <trkpt lat="47.55801" lon="6.75863">
        <ele>460</ele>
        <time>2017-07-30T09:11:35.000Z</time>
      </trkpt>
      <trkpt lat="47.55797" lon="6.75865">
        <ele>452.3</ele>
        <time>2017-07-30T09:13:30.000Z</time>
      </trkpt>
      <trkpt lat="47.55797" lon="6.75866">
        <ele>452</ele>
        <time>2017-07-30T09:13:31.000Z</time>
      </trkpt>
      <trkpt lat="47.55798" lon="6.75872">
        <ele>450.9</ele>
        <time>2017-07-30T09:13:59.000Z</time>
      </trkpt>
      <trkpt lat="47.55798" lon="6.75874">
        <ele>450.7</ele>
        <time>2017-07-30T09:14:00.000Z</time>
      </trkpt>
      <trkpt lat="47.55796" lon="6.75879">
        <ele>450.6</ele>
        <time>2017-07-30T09:14:02.000Z</time>
      </trkpt>
      <trkpt lat="47.55795" lon="6.75881">
        <ele>450.4</ele>
        <time>2017-07-30T09:14:03.000Z</time>
      </trkpt>
      <trkpt lat="47.55793" lon="6.75885">
        <ele>450.1</ele>
        <time>2017-07-30T09:14:05.000Z</time>
      </trkpt>
      <trkpt lat="47.55791" lon="6.75885">
        <ele>450</ele>
        <time>2017-07-30T09:14:06.000Z</time>
      </trkpt>
      <trkpt lat="47.55788" lon="6.75888">
        <ele>449.8</ele>
        <time>2017-07-30T09:14:08.000Z</time>
      </trkpt>
      <trkpt lat="47.55786" lon="6.75889">
        <ele>449.6</ele>
        <time>2017-07-30T09:14:09.000Z</time>
      </trkpt>
      <trkpt lat="47.55784" lon="6.75891">
        <ele>449.5</ele>
        <time>2017-07-30T09:14:11.000Z</time>
      </trkpt>
      <trkpt lat="47.55782" lon="6.75893">
        <ele>449.5</ele>
        <time>2017-07-30T09:14:12.000Z</time>
      </trkpt>
      <trkpt lat="47.5578" lon="6.75895">
        <ele>449.5</ele>
        <time>2017-07-30T09:14:13.000Z</time>
      </trkpt>
      <trkpt lat="47.55778" lon="6.75895">
        <ele>449.5</ele>
        <time>2017-07-30T09:14:14.000Z</time>
      </trkpt>
      <trkpt lat="47.55774" lon="6.75896">
        <ele>449.6</ele>
        <time>2017-07-30T09:14:16.000Z</time>
      </trkpt>
      <trkpt lat="47.55772" lon="6.75896">
        <ele>449.7</ele>
        <time>2017-07-30T09:14:17.000Z</time>
      </trkpt>
      <trkpt lat="47.55768" lon="6.75896">
        <ele>449.9</ele>
        <time>2017-07-30T09:14:19.000Z</time>
      </trkpt>
      <trkpt lat="47.55767" lon="6.75896">
        <ele>450</ele>
        <time>2017-07-30T09:14:20.000Z</time>
      </trkpt>
      <trkpt lat="47.55764" lon="6.75897">
        <ele>450.2</ele>
        <time>2017-07-30T09:14:22.000Z</time>
      </trkpt>
      <trkpt lat="47.55762" lon="6.75898">
        <ele>450.3</ele>
        <time>2017-07-30T09:14:23.000Z</time>
      </trkpt>
      <trkpt lat="47.55759" lon="6.759">
        <ele>450.5</ele>
        <time>2017-07-30T09:14:25.000Z</time>
      </trkpt>
      <trkpt lat="47.55757" lon="6.759">
        <ele>450.6</ele>
        <time>2017-07-30T09:14:26.000Z</time>
      </trkpt>
      <trkpt lat="47.55754" lon="6.75902">
        <ele>450.8</ele>
        <time>2017-07-30T09:14:28.000Z</time>
      </trkpt>
      <trkpt lat="47.55752" lon="6.75903">
        <ele>450.9</ele>
        <time>2017-07-30T09:14:29.000Z</time>
      </trkpt>
      <trkpt lat="47.55749" lon="6.75903">
        <ele>451</ele>
        <time>2017-07-30T09:14:31.000Z</time>
      </trkpt>
      <trkpt lat="47.55747" lon="6.75904">
        <ele>451.1</ele>
        <time>2017-07-30T09:14:32.000Z</time>
      </trkpt>
      <trkpt lat="47.55743" lon="6.75906">
        <ele>451.2</ele>
        <time>2017-07-30T09:14:34.000Z</time>
      </trkpt>
      <trkpt lat="47.55741" lon="6.75907">
        <ele>451.2</ele>
        <time>2017-07-30T09:14:35.000Z</time>
      </trkpt>
      <trkpt lat="47.55739" lon="6.75908">
        <ele>451.3</ele>
        <time>2017-07-30T09:14:36.000Z</time>
      </trkpt>
      <trkpt lat="47.55737" lon="6.7591">
        <ele>451.4</ele>
        <time>2017-07-30T09:14:37.000Z</time>
      </trkpt>
      <trkpt lat="47.55733" lon="6.75911">
        <ele>451.8</ele>
        <time>2017-07-30T09:14:39.000Z</time>
      </trkpt>
      <trkpt lat="47.55731" lon="6.75911">
        <ele>452</ele>
        <time>2017-07-30T09:14:40.000Z</time>
      </trkpt>
      <trkpt lat="47.55727" lon="6.75914">
        <ele>452.5</ele>
        <time>2017-07-30T09:14:42.000Z</time>
      </trkpt>
      <trkpt lat="47.55726" lon="6.75914">
        <ele>452.8</ele>
        <time>2017-07-30T09:14:43.000Z</time>
      </trkpt>
      <trkpt lat="47.55724" lon="6.75915">
        <ele>453.1</ele>
        <time>2017-07-30T09:14:44.000Z</time>
      </trkpt>
      <trkpt lat="47.55721" lon="6.75916">
        <ele>453.5</ele>
        <time>2017-07-30T09:14:45.000Z</time>
      </trkpt>
      <trkpt lat="47.55718" lon="6.75918">
        <ele>454.2</ele>
        <time>2017-07-30T09:14:47.000Z</time>
      </trkpt>
      <trkpt lat="47.55715" lon="6.75918">
        <ele>454.6</ele>
        <time>2017-07-30T09:14:48.000Z</time>
      </trkpt>
      <trkpt lat="47.55712" lon="6.75919">
        <ele>454.9</ele>
        <time>2017-07-30T09:14:49.000Z</time>
      </trkpt>
      <trkpt lat="47.55709" lon="6.75921">
        <ele>455.3</ele>
        <time>2017-07-30T09:14:50.000Z</time>
      </trkpt>
      <trkpt lat="47.55707" lon="6.75922">
        <ele>455.6</ele>
        <time>2017-07-30T09:14:51.000Z</time>
      </trkpt>
      <trkpt lat="47.55705" lon="6.75923">
        <ele>456</ele>
        <time>2017-07-30T09:14:52.000Z</time>
      </trkpt>
      <trkpt lat="47.55702" lon="6.75924">
        <ele>456.3</ele>
        <time>2017-07-30T09:14:53.000Z</time>
      </trkpt>
      <trkpt lat="47.557" lon="6.75926">
        <ele>456.6</ele>
        <time>2017-07-30T09:14:54.000Z</time>
      </trkpt>
      <trkpt lat="47.55697" lon="6.7593">
        <ele>457.3</ele>
        <time>2017-07-30T09:14:56.000Z</time>
      </trkpt>
      <trkpt lat="47.55695" lon="6.75932">
        <ele>457.6</ele>
        <time>2017-07-30T09:14:57.000Z</time>
      </trkpt>
      <trkpt lat="47.55693" lon="6.75933">
        <ele>458</ele>
        <time>2017-07-30T09:14:58.000Z</time>
      </trkpt>
      <trkpt lat="47.55691" lon="6.75935">
        <ele>458.3</ele>
        <time>2017-07-30T09:14:59.000Z</time>
      </trkpt>
      <trkpt lat="47.55687" lon="6.75937">
        <ele>458.9</ele>
        <time>2017-07-30T09:15:01.000Z</time>
      </trkpt>
      <trkpt lat="47.55684" lon="6.75937">
        <ele>459.2</ele>
        <time>2017-07-30T09:15:02.000Z</time>
      </trkpt>
      <trkpt lat="47.55679" lon="6.7594">
        <ele>459.4</ele>
        <time>2017-07-30T09:15:03.000Z</time>
      </trkpt>
      <trkpt lat="47.55674" lon="6.75941">
        <ele>461.5</ele>
        <time>2017-07-30T09:15:04.000Z</time>
      </trkpt>
      <trkpt lat="47.55668" lon="6.75943">
        <ele>461.7</ele>
        <time>2017-07-30T09:15:05.000Z</time>
      </trkpt>
      <trkpt lat="47.55665" lon="6.75943">
        <ele>462</ele>
        <time>2017-07-30T09:15:06.000Z</time>
      </trkpt>
      <trkpt lat="47.55661" lon="6.75944">
        <ele>462.4</ele>
        <time>2017-07-30T09:15:07.000Z</time>
      </trkpt>
      <trkpt lat="47.55654" lon="6.75946">
        <ele>464.8</ele>
        <time>2017-07-30T09:15:08.000Z</time>
      </trkpt>
      <trkpt lat="47.55649" lon="6.75946">
        <ele>465</ele>
        <time>2017-07-30T09:15:09.000Z</time>
      </trkpt>
      <trkpt lat="47.55645" lon="6.75946">
        <ele>465.2</ele>
        <time>2017-07-30T09:15:10.000Z</time>
      </trkpt>
      <trkpt lat="47.55643" lon="6.75945">
        <ele>465.3</ele>
        <time>2017-07-30T09:15:11.000Z</time>
      </trkpt>
      <trkpt lat="47.55639" lon="6.75946">
        <ele>465.5</ele>
        <time>2017-07-30T09:15:13.000Z</time>
      </trkpt>
      <trkpt lat="47.55638" lon="6.75947">
        <ele>465.6</ele>
        <time>2017-07-30T09:15:14.000Z</time>
      </trkpt>
      <trkpt lat="47.55636" lon="6.75948">
        <ele>465.7</ele>
        <time>2017-07-30T09:15:15.000Z</time>
      </trkpt>
      <trkpt lat="47.55633" lon="6.75947">
        <ele>465.8</ele>
        <time>2017-07-30T09:15:16.000Z</time>
      </trkpt>
      <trkpt lat="47.5563" lon="6.75949">
        <ele>465.9</ele>
        <time>2017-07-30T09:15:17.000Z</time>
      </trkpt>
      <trkpt lat="47.55627" lon="6.75952">
        <ele>468.1</ele>
        <time>2017-07-30T09:15:18.000Z</time>
      </trkpt>
      <trkpt lat="47.55623" lon="6.75955">
        <ele>470.1</ele>
        <time>2017-07-30T09:15:19.000Z</time>
      </trkpt>
      <trkpt lat="47.5562" lon="6.75956">
        <ele>470.2</ele>
        <time>2017-07-30T09:15:20.000Z</time>
      </trkpt>
      <trkpt lat="47.55615" lon="6.75959">
        <ele>470.3</ele>
        <time>2017-07-30T09:15:21.000Z</time>
      </trkpt>
      <trkpt lat="47.55609" lon="6.75961">
        <ele>470.4</ele>
        <time>2017-07-30T09:15:22.000Z</time>
      </trkpt>
      <trkpt lat="47.55607" lon="6.75961">
        <ele>470.5</ele>
        <time>2017-07-30T09:15:23.000Z</time>
      </trkpt>
      <trkpt lat="47.55604" lon="6.7596">
        <ele>470.7</ele>
        <time>2017-07-30T09:15:24.000Z</time>
      </trkpt>
      <trkpt lat="47.556" lon="6.75959">
        <ele>471.1</ele>
        <time>2017-07-30T09:15:26.000Z</time>
      </trkpt>
      <trkpt lat="47.55597" lon="6.7596">
        <ele>471.3</ele>
        <time>2017-07-30T09:15:27.000Z</time>
      </trkpt>
      <trkpt lat="47.55594" lon="6.7596">
        <ele>471.7</ele>
        <time>2017-07-30T09:15:29.000Z</time>
      </trkpt>
      <trkpt lat="47.55591" lon="6.75959">
        <ele>471.8</ele>
        <time>2017-07-30T09:15:30.000Z</time>
      </trkpt>
      <trkpt lat="47.55587" lon="6.75959">
        <ele>473</ele>
        <time>2017-07-30T09:15:31.000Z</time>
      </trkpt>
      <trkpt lat="47.55584" lon="6.7596">
        <ele>473.1</ele>
        <time>2017-07-30T09:15:32.000Z</time>
      </trkpt>
      <trkpt lat="47.5558" lon="6.75962">
        <ele>473.2</ele>
        <time>2017-07-30T09:15:34.000Z</time>
      </trkpt>
      <trkpt lat="47.55578" lon="6.75963">
        <ele>473.2</ele>
        <time>2017-07-30T09:15:35.000Z</time>
      </trkpt>
      <trkpt lat="47.55575" lon="6.75962">
        <ele>473.3</ele>
        <time>2017-07-30T09:15:36.000Z</time>
      </trkpt>
      <trkpt lat="47.55572" lon="6.75961">
        <ele>473.4</ele>
        <time>2017-07-30T09:15:37.000Z</time>
      </trkpt>
      <trkpt lat="47.55567" lon="6.75962">
        <ele>473.5</ele>
        <time>2017-07-30T09:15:38.000Z</time>
      </trkpt>
      <trkpt lat="47.5556" lon="6.75963">
        <ele>473.6</ele>
        <time>2017-07-30T09:15:39.000Z</time>
      </trkpt>
      <trkpt lat="47.55557" lon="6.7596">
        <ele>473.7</ele>
        <time>2017-07-30T09:15:40.000Z</time>
      </trkpt>
      <trkpt lat="47.55556" lon="6.75958">
        <ele>473.8</ele>
        <time>2017-07-30T09:15:41.000Z</time>
      </trkpt>
      <trkpt lat="47.55554" lon="6.75957">
        <ele>473.8</ele>
        <time>2017-07-30T09:15:42.000Z</time>
      </trkpt>
      <trkpt lat="47.55552" lon="6.75954">
        <ele>473.8</ele>
        <time>2017-07-30T09:15:43.000Z</time>
      </trkpt>
      <trkpt lat="47.55548" lon="6.75948">
        <ele>473.6</ele>
        <time>2017-07-30T09:15:44.000Z</time>
      </trkpt>
      <trkpt lat="47.55546" lon="6.75939">
        <ele>473.5</ele>
        <time>2017-07-30T09:15:45.000Z</time>
      </trkpt>
      <trkpt lat="47.55545" lon="6.75933">
        <ele>473.4</ele>
        <time>2017-07-30T09:15:46.000Z</time>
      </trkpt>
      <trkpt lat="47.55544" lon="6.75929">
        <ele>473.3</ele>
        <time>2017-07-30T09:15:47.000Z</time>
      </trkpt>
      <trkpt lat="47.55542" lon="6.75923">
        <ele>473.2</ele>
        <time>2017-07-30T09:15:48.000Z</time>
      </trkpt>
      <trkpt lat="47.55539" lon="6.75916">
        <ele>472.9</ele>
        <time>2017-07-30T09:15:49.000Z</time>
      </trkpt>
      <trkpt lat="47.55538" lon="6.75911">
        <ele>472.7</ele>
        <time>2017-07-30T09:15:50.000Z</time>
      </trkpt>
      <trkpt lat="47.55536" lon="6.75904">
        <ele>472.6</ele>
        <time>2017-07-30T09:15:51.000Z</time>
      </trkpt>
      <trkpt lat="47.55535" lon="6.75898">
        <ele>472.4</ele>
        <time>2017-07-30T09:15:52.000Z</time>
      </trkpt>
      <trkpt lat="47.55534" lon="6.75892">
        <ele>472.2</ele>
        <time>2017-07-30T09:15:53.000Z</time>
      </trkpt>
      <trkpt lat="47.55533" lon="6.75885">
        <ele>472</ele>
        <time>2017-07-30T09:15:54.000Z</time>
      </trkpt>
      <trkpt lat="47.55531" lon="6.7588">
        <ele>471.8</ele>
        <time>2017-07-30T09:15:55.000Z</time>
      </trkpt>
      <trkpt lat="47.55529" lon="6.75876">
        <ele>471.6</ele>
        <time>2017-07-30T09:15:56.000Z</time>
      </trkpt>
      <trkpt lat="47.55526" lon="6.75875">
        <ele>471.4</ele>
        <time>2017-07-30T09:15:57.000Z</time>
      </trkpt>
      <trkpt lat="47.55523" lon="6.75875">
        <ele>471.2</ele>
        <time>2017-07-30T09:15:58.000Z</time>
      </trkpt>
      <trkpt lat="47.5552" lon="6.75875">
        <ele>471.1</ele>
        <time>2017-07-30T09:15:59.000Z</time>
      </trkpt>
      <trkpt lat="47.55518" lon="6.75877">
        <ele>471</ele>
        <time>2017-07-30T09:16:00.000Z</time>
      </trkpt>
      <trkpt lat="47.55515" lon="6.75877">
        <ele>470.9</ele>
        <time>2017-07-30T09:16:01.000Z</time>
      </trkpt>
      <trkpt lat="47.55511" lon="6.75876">
        <ele>470.6</ele>
        <time>2017-07-30T09:16:03.000Z</time>
      </trkpt>
      <trkpt lat="47.55508" lon="6.75877">
        <ele>470.5</ele>
        <time>2017-07-30T09:16:04.000Z</time>
      </trkpt>
      <trkpt lat="47.55506" lon="6.75877">
        <ele>470.4</ele>
        <time>2017-07-30T09:16:05.000Z</time>
      </trkpt>
      <trkpt lat="47.55503" lon="6.75877">
        <ele>470.2</ele>
        <time>2017-07-30T09:16:06.000Z</time>
      </trkpt>
      <trkpt lat="47.55501" lon="6.75876">
        <ele>470</ele>
        <time>2017-07-30T09:16:07.000Z</time>
      </trkpt>
      <trkpt lat="47.55499" lon="6.75875">
        <ele>469.9</ele>
        <time>2017-07-30T09:16:08.000Z</time>
      </trkpt>
      <trkpt lat="47.55496" lon="6.75875">
        <ele>469.8</ele>
        <time>2017-07-30T09:16:09.000Z</time>
      </trkpt>
      <trkpt lat="47.55494" lon="6.75876">
        <ele>469.7</ele>
        <time>2017-07-30T09:16:10.000Z</time>
      </trkpt>
      <trkpt lat="47.55491" lon="6.75876">
        <ele>469.6</ele>
        <time>2017-07-30T09:16:11.000Z</time>
      </trkpt>
      <trkpt lat="47.55488" lon="6.75877">
        <ele>469.5</ele>
        <time>2017-07-30T09:16:12.000Z</time>
      </trkpt>
      <trkpt lat="47.55485" lon="6.75878">
        <ele>469.4</ele>
        <time>2017-07-30T09:16:13.000Z</time>
      </trkpt>
      <trkpt lat="47.55482" lon="6.75879">
        <ele>469.3</ele>
        <time>2017-07-30T09:16:14.000Z</time>
      </trkpt>
      <trkpt lat="47.55479" lon="6.7588">
        <ele>469.1</ele>
        <time>2017-07-30T09:16:15.000Z</time>
      </trkpt>
      <trkpt lat="47.55476" lon="6.75881">
        <ele>469</ele>
        <time>2017-07-30T09:16:16.000Z</time>
      </trkpt>
      <trkpt lat="47.55474" lon="6.75882">
        <ele>469</ele>
        <time>2017-07-30T09:16:17.000Z</time>
      </trkpt>
      <trkpt lat="47.55472" lon="6.75882">
        <ele>468.8</ele>
        <time>2017-07-30T09:16:18.000Z</time>
      </trkpt>
      <trkpt lat="47.55469" lon="6.75882">
        <ele>468.8</ele>
        <time>2017-07-30T09:16:19.000Z</time>
      </trkpt>
      <trkpt lat="47.55467" lon="6.75882">
        <ele>468.8</ele>
        <time>2017-07-30T09:16:20.000Z</time>
      </trkpt>
      <trkpt lat="47.55464" lon="6.75883">
        <ele>468.7</ele>
        <time>2017-07-30T09:16:21.000Z</time>
      </trkpt>
      <trkpt lat="47.55462" lon="6.75883">
        <ele>468.6</ele>
        <time>2017-07-30T09:16:22.000Z</time>
      </trkpt>
      <trkpt lat="47.55459" lon="6.75883">
        <ele>468.5</ele>
        <time>2017-07-30T09:16:23.000Z</time>
      </trkpt>
      <trkpt lat="47.55457" lon="6.75884">
        <ele>468.5</ele>
        <time>2017-07-30T09:16:24.000Z</time>
      </trkpt>
      <trkpt lat="47.55452" lon="6.75885">
        <ele>468.4</ele>
        <time>2017-07-30T09:16:26.000Z</time>
      </trkpt>
      <trkpt lat="47.55449" lon="6.75886">
        <ele>468.4</ele>
        <time>2017-07-30T09:16:27.000Z</time>
      </trkpt>
      <trkpt lat="47.55446" lon="6.75887">
        <ele>468.4</ele>
        <time>2017-07-30T09:16:28.000Z</time>
      </trkpt>
      <trkpt lat="47.55444" lon="6.75888">
        <ele>468.4</ele>
        <time>2017-07-30T09:16:29.000Z</time>
      </trkpt>
      <trkpt lat="47.55441" lon="6.75889">
        <ele>468.4</ele>
        <time>2017-07-30T09:16:30.000Z</time>
      </trkpt>
      <trkpt lat="47.55438" lon="6.7589">
        <ele>468.3</ele>
        <time>2017-07-30T09:16:31.000Z</time>
      </trkpt>
      <trkpt lat="47.55435" lon="6.75891">
        <ele>468.3</ele>
        <time>2017-07-30T09:16:32.000Z</time>
      </trkpt>
      <trkpt lat="47.55433" lon="6.75892">
        <ele>468.3</ele>
        <time>2017-07-30T09:16:33.000Z</time>
      </trkpt>
      <trkpt lat="47.5543" lon="6.75893">
        <ele>468.2</ele>
        <time>2017-07-30T09:16:34.000Z</time>
      </trkpt>
      <trkpt lat="47.55428" lon="6.75894">
        <ele>468.2</ele>
        <time>2017-07-30T09:16:35.000Z</time>
      </trkpt>
      <trkpt lat="47.55426" lon="6.75895">
        <ele>468.2</ele>
        <time>2017-07-30T09:16:36.000Z</time>
      </trkpt>
      <trkpt lat="47.55424" lon="6.75895">
        <ele>468.1</ele>
        <time>2017-07-30T09:16:37.000Z</time>
      </trkpt>
      <trkpt lat="47.55421" lon="6.75896">
        <ele>468.1</ele>
        <time>2017-07-30T09:16:38.000Z</time>
      </trkpt>
      <trkpt lat="47.55417" lon="6.75897">
        <ele>468</ele>
        <time>2017-07-30T09:16:40.000Z</time>
      </trkpt>
      <trkpt lat="47.55415" lon="6.75897">
        <ele>467.9</ele>
        <time>2017-07-30T09:16:41.000Z</time>
      </trkpt>
      <trkpt lat="47.55411" lon="6.75899">
        <ele>468</ele>
        <time>2017-07-30T09:16:43.000Z</time>
      </trkpt>
      <trkpt lat="47.55408" lon="6.759">
        <ele>467.9</ele>
        <time>2017-07-30T09:16:44.000Z</time>
      </trkpt>
      <trkpt lat="47.55405" lon="6.75901">
        <ele>467.9</ele>
        <time>2017-07-30T09:16:45.000Z</time>
      </trkpt>
      <trkpt lat="47.55403" lon="6.75902">
        <ele>467.9</ele>
        <time>2017-07-30T09:16:46.000Z</time>
      </trkpt>
      <trkpt lat="47.554" lon="6.75903">
        <ele>467.9</ele>
        <time>2017-07-30T09:16:47.000Z</time>
      </trkpt>
      <trkpt lat="47.55397" lon="6.75903">
        <ele>468</ele>
        <time>2017-07-30T09:16:48.000Z</time>
      </trkpt>
      <trkpt lat="47.55394" lon="6.75904">
        <ele>468</ele>
        <time>2017-07-30T09:16:49.000Z</time>
      </trkpt>
      <trkpt lat="47.55392" lon="6.75905">
        <ele>467.9</ele>
        <time>2017-07-30T09:16:50.000Z</time>
      </trkpt>
      <trkpt lat="47.55389" lon="6.75905">
        <ele>467.9</ele>
        <time>2017-07-30T09:16:51.000Z</time>
      </trkpt>
      <trkpt lat="47.55386" lon="6.75906">
        <ele>467.9</ele>
        <time>2017-07-30T09:16:52.000Z</time>
      </trkpt>
      <trkpt lat="47.55384" lon="6.75906">
        <ele>467.9</ele>
        <time>2017-07-30T09:16:53.000Z</time>
      </trkpt>
      <trkpt lat="47.55382" lon="6.75906">
        <ele>467.9</ele>
        <time>2017-07-30T09:16:54.000Z</time>
      </trkpt>
      <trkpt lat="47.55379" lon="6.75906">
        <ele>467.9</ele>
        <time>2017-07-30T09:16:55.000Z</time>
      </trkpt>
      <trkpt lat="47.55376" lon="6.75907">
        <ele>467.9</ele>
        <time>2017-07-30T09:16:56.000Z</time>
      </trkpt>
      <trkpt lat="47.55373" lon="6.75907">
        <ele>467.9</ele>
        <time>2017-07-30T09:16:57.000Z</time>
      </trkpt>
      <trkpt lat="47.5537" lon="6.75908">
        <ele>468</ele>
        <time>2017-07-30T09:16:58.000Z</time>
      </trkpt>
      <trkpt lat="47.55368" lon="6.75908">
        <ele>468</ele>
        <time>2017-07-30T09:16:59.000Z</time>
      </trkpt>
      <trkpt lat="47.55365" lon="6.75909">
        <ele>468</ele>
        <time>2017-07-30T09:17:00.000Z</time>
      </trkpt>
      <trkpt lat="47.55361" lon="6.7591">
        <ele>468.1</ele>
        <time>2017-07-30T09:17:01.000Z</time>
      </trkpt>
      <trkpt lat="47.55358" lon="6.7591">
        <ele>468.1</ele>
        <time>2017-07-30T09:17:02.000Z</time>
      </trkpt>
      <trkpt lat="47.55356" lon="6.75911">
        <ele>468.1</ele>
        <time>2017-07-30T09:17:03.000Z</time>
      </trkpt>
      <trkpt lat="47.55353" lon="6.75911">
        <ele>468.2</ele>
        <time>2017-07-30T09:17:04.000Z</time>
      </trkpt>
      <trkpt lat="47.55349" lon="6.75912">
        <ele>468.2</ele>
        <time>2017-07-30T09:17:06.000Z</time>
      </trkpt>
      <trkpt lat="47.55347" lon="6.75911">
        <ele>468.3</ele>
        <time>2017-07-30T09:17:07.000Z</time>
      </trkpt>
      <trkpt lat="47.55343" lon="6.75913">
        <ele>468.4</ele>
        <time>2017-07-30T09:17:09.000Z</time>
      </trkpt>
      <trkpt lat="47.55341" lon="6.75915">
        <ele>468.4</ele>
        <time>2017-07-30T09:17:10.000Z</time>
      </trkpt>
      <trkpt lat="47.55339" lon="6.7592">
        <ele>468.4</ele>
        <time>2017-07-30T09:17:14.000Z</time>
      </trkpt>
      <trkpt lat="47.55339" lon="6.75921">
        <ele>468.3</ele>
        <time>2017-07-30T09:17:15.000Z</time>
      </trkpt>
      <trkpt lat="47.55339" lon="6.75926">
        <ele>468</ele>
        <time>2017-07-30T09:17:18.000Z</time>
      </trkpt>
      <trkpt lat="47.5534" lon="6.75928">
        <ele>467.9</ele>
        <time>2017-07-30T09:17:19.000Z</time>
      </trkpt>
      <trkpt lat="47.55342" lon="6.75934">
        <ele>467.8</ele>
        <time>2017-07-30T09:17:21.000Z</time>
      </trkpt>
      <trkpt lat="47.55343" lon="6.75936">
        <ele>467.8</ele>
        <time>2017-07-30T09:17:22.000Z</time>
      </trkpt>
      <trkpt lat="47.55345" lon="6.75939">
        <ele>467.8</ele>
        <time>2017-07-30T09:17:23.000Z</time>
      </trkpt>
      <trkpt lat="47.55346" lon="6.75942">
        <ele>467.8</ele>
        <time>2017-07-30T09:17:24.000Z</time>
      </trkpt>
      <trkpt lat="47.55347" lon="6.75946">
        <ele>467.8</ele>
        <time>2017-07-30T09:17:25.000Z</time>
      </trkpt>
      <trkpt lat="47.55349" lon="6.75949">
        <ele>467.8</ele>
        <time>2017-07-30T09:17:26.000Z</time>
      </trkpt>
      <trkpt lat="47.55349" lon="6.75953">
        <ele>467.8</ele>
        <time>2017-07-30T09:17:27.000Z</time>
      </trkpt>
      <trkpt lat="47.5535" lon="6.75957">
        <ele>467.8</ele>
        <time>2017-07-30T09:17:28.000Z</time>
      </trkpt>
      <trkpt lat="47.5535" lon="6.7596">
        <ele>467.9</ele>
        <time>2017-07-30T09:17:29.000Z</time>
      </trkpt>
      <trkpt lat="47.55351" lon="6.75963">
        <ele>467.9</ele>
        <time>2017-07-30T09:17:30.000Z</time>
      </trkpt>
      <trkpt lat="47.55351" lon="6.75967">
        <ele>467.9</ele>
        <time>2017-07-30T09:17:31.000Z</time>
      </trkpt>
      <trkpt lat="47.55351" lon="6.7597">
        <ele>467.9</ele>
        <time>2017-07-30T09:17:32.000Z</time>
      </trkpt>
      <trkpt lat="47.55352" lon="6.75973">
        <ele>467.9</ele>
        <time>2017-07-30T09:17:33.000Z</time>
      </trkpt>
      <trkpt lat="47.55352" lon="6.75977">
        <ele>467.9</ele>
        <time>2017-07-30T09:17:34.000Z</time>
      </trkpt>
      <trkpt lat="47.55352" lon="6.7598">
        <ele>467.9</ele>
        <time>2017-07-30T09:17:35.000Z</time>
      </trkpt>
      <trkpt lat="47.55352" lon="6.75984">
        <ele>467.9</ele>
        <time>2017-07-30T09:17:36.000Z</time>
      </trkpt>
      <trkpt lat="47.55352" lon="6.75988">
        <ele>467.9</ele>
        <time>2017-07-30T09:17:37.000Z</time>
      </trkpt>
      <trkpt lat="47.55352" lon="6.75992">
        <ele>467.8</ele>
        <time>2017-07-30T09:17:38.000Z</time>
      </trkpt>
      <trkpt lat="47.55353" lon="6.75997">
        <ele>467.8</ele>
        <time>2017-07-30T09:17:39.000Z</time>
      </trkpt>
      <trkpt lat="47.55353" lon="6.76003">
        <ele>467.7</ele>
        <time>2017-07-30T09:17:40.000Z</time>
      </trkpt>
      <trkpt lat="47.55354" lon="6.76008">
        <ele>467.7</ele>
        <time>2017-07-30T09:17:41.000Z</time>
      </trkpt>
      <trkpt lat="47.55354" lon="6.76013">
        <ele>467.6</ele>
        <time>2017-07-30T09:17:42.000Z</time>
      </trkpt>
      <trkpt lat="47.55355" lon="6.76017">
        <ele>467.6</ele>
        <time>2017-07-30T09:17:43.000Z</time>
      </trkpt>
      <trkpt lat="47.55356" lon="6.76021">
        <ele>467.7</ele>
        <time>2017-07-30T09:17:44.000Z</time>
      </trkpt>
      <trkpt lat="47.55357" lon="6.76025">
        <ele>467.7</ele>
        <time>2017-07-30T09:17:45.000Z</time>
      </trkpt>
      <trkpt lat="47.55357" lon="6.76028">
        <ele>467.7</ele>
        <time>2017-07-30T09:17:46.000Z</time>
      </trkpt>
      <trkpt lat="47.55358" lon="6.76033">
        <ele>467.8</ele>
        <time>2017-07-30T09:17:48.000Z</time>
      </trkpt>
      <trkpt lat="47.55358" lon="6.76036">
        <ele>467.8</ele>
        <time>2017-07-30T09:17:49.000Z</time>
      </trkpt>
      <trkpt lat="47.55358" lon="6.7604">
        <ele>467.8</ele>
        <time>2017-07-30T09:17:51.000Z</time>
      </trkpt>
      <trkpt lat="47.55359" lon="6.76043">
        <ele>467.8</ele>
        <time>2017-07-30T09:17:52.000Z</time>
      </trkpt>
      <trkpt lat="47.5536" lon="6.76049">
        <ele>467.9</ele>
        <time>2017-07-30T09:17:54.000Z</time>
      </trkpt>
      <trkpt lat="47.5536" lon="6.76053">
        <ele>467.9</ele>
        <time>2017-07-30T09:17:55.000Z</time>
      </trkpt>
      <trkpt lat="47.55361" lon="6.76056">
        <ele>467.9</ele>
        <time>2017-07-30T09:17:56.000Z</time>
      </trkpt>
      <trkpt lat="47.55361" lon="6.7606">
        <ele>467.9</ele>
        <time>2017-07-30T09:17:57.000Z</time>
      </trkpt>
      <trkpt lat="47.55361" lon="6.76063">
        <ele>467.8</ele>
        <time>2017-07-30T09:17:58.000Z</time>
      </trkpt>
      <trkpt lat="47.55362" lon="6.76067">
        <ele>467.8</ele>
        <time>2017-07-30T09:17:59.000Z</time>
      </trkpt>
      <trkpt lat="47.55362" lon="6.76071">
        <ele>467.7</ele>
        <time>2017-07-30T09:18:00.000Z</time>
      </trkpt>
      <trkpt lat="47.55363" lon="6.76074">
        <ele>467.5</ele>
        <time>2017-07-30T09:18:01.000Z</time>
      </trkpt>
      <trkpt lat="47.55363" lon="6.76078">
        <ele>467.4</ele>
        <time>2017-07-30T09:18:02.000Z</time>
      </trkpt>
      <trkpt lat="47.55364" lon="6.76082">
        <ele>467.2</ele>
        <time>2017-07-30T09:18:03.000Z</time>
      </trkpt>
      <trkpt lat="47.55364" lon="6.76085">
        <ele>467.1</ele>
        <time>2017-07-30T09:18:04.000Z</time>
      </trkpt>
      <trkpt lat="47.55365" lon="6.76088">
        <ele>467</ele>
        <time>2017-07-30T09:18:05.000Z</time>
      </trkpt>
      <trkpt lat="47.55365" lon="6.76095">
        <ele>466.8</ele>
        <time>2017-07-30T09:18:07.000Z</time>
      </trkpt>
      <trkpt lat="47.55366" lon="6.76098">
        <ele>466.8</ele>
        <time>2017-07-30T09:18:08.000Z</time>
      </trkpt>
      <trkpt lat="47.55366" lon="6.76102">
        <ele>466.7</ele>
        <time>2017-07-30T09:18:09.000Z</time>
      </trkpt>
      <trkpt lat="47.55367" lon="6.76106">
        <ele>466.6</ele>
        <time>2017-07-30T09:18:10.000Z</time>
      </trkpt>
      <trkpt lat="47.55368" lon="6.7611">
        <ele>466.6</ele>
        <time>2017-07-30T09:18:11.000Z</time>
      </trkpt>
      <trkpt lat="47.55368" lon="6.76114">
        <ele>466.6</ele>
        <time>2017-07-30T09:18:12.000Z</time>
      </trkpt>
      <trkpt lat="47.55368" lon="6.7612">
        <ele>466.4</ele>
        <time>2017-07-30T09:18:14.000Z</time>
      </trkpt>
      <trkpt lat="47.55367" lon="6.76123">
        <ele>466.3</ele>
        <time>2017-07-30T09:18:15.000Z</time>
      </trkpt>
      <trkpt lat="47.55367" lon="6.76127">
        <ele>466.2</ele>
        <time>2017-07-30T09:18:16.000Z</time>
      </trkpt>
      <trkpt lat="47.55367" lon="6.76131">
        <ele>466.1</ele>
        <time>2017-07-30T09:18:17.000Z</time>
      </trkpt>
      <trkpt lat="47.55366" lon="6.76136">
        <ele>466</ele>
        <time>2017-07-30T09:18:18.000Z</time>
      </trkpt>
      <trkpt lat="47.55366" lon="6.76139">
        <ele>465.9</ele>
        <time>2017-07-30T09:18:19.000Z</time>
      </trkpt>
      <trkpt lat="47.55365" lon="6.76145">
        <ele>465.7</ele>
        <time>2017-07-30T09:18:21.000Z</time>
      </trkpt>
      <trkpt lat="47.55364" lon="6.76148">
        <ele>465.6</ele>
        <time>2017-07-30T09:18:22.000Z</time>
      </trkpt>
      <trkpt lat="47.55363" lon="6.76152">
        <ele>465.4</ele>
        <time>2017-07-30T09:18:23.000Z</time>
      </trkpt>
      <trkpt lat="47.55362" lon="6.76155">
        <ele>465.3</ele>
        <time>2017-07-30T09:18:24.000Z</time>
      </trkpt>
      <trkpt lat="47.55361" lon="6.76162">
        <ele>465</ele>
        <time>2017-07-30T09:18:26.000Z</time>
      </trkpt>
      <trkpt lat="47.5536" lon="6.76168">
        <ele>464.5</ele>
        <time>2017-07-30T09:18:29.000Z</time>
      </trkpt>
      <trkpt lat="47.55359" lon="6.7617">
        <ele>464.4</ele>
        <time>2017-07-30T09:18:30.000Z</time>
      </trkpt>
      <trkpt lat="47.55355" lon="6.76168">
        <ele>463.7</ele>
        <time>2017-07-30T09:18:59.000Z</time>
      </trkpt>
      <trkpt lat="47.55355" lon="6.76167">
        <ele>463.7</ele>
        <time>2017-07-30T09:19:00.000Z</time>
      </trkpt>
      <trkpt lat="47.55353" lon="6.76173">
        <ele>462.4</ele>
        <time>2017-07-30T09:19:19.000Z</time>
      </trkpt>
      <trkpt lat="47.55352" lon="6.76175">
        <ele>462.5</ele>
        <time>2017-07-30T09:19:20.000Z</time>
      </trkpt>
      <trkpt lat="47.55352" lon="6.76181">
        <ele>461.6</ele>
        <time>2017-07-30T09:19:47.000Z</time>
      </trkpt>
      <trkpt lat="47.55353" lon="6.76182">
        <ele>461.4</ele>
        <time>2017-07-30T09:19:48.000Z</time>
      </trkpt>
      <trkpt lat="47.55352" lon="6.76188">
        <ele>462.6</ele>
        <time>2017-07-30T09:20:09.000Z</time>
      </trkpt>
      <trkpt lat="47.55352" lon="6.76189">
        <ele>462.7</ele>
        <time>2017-07-30T09:20:10.000Z</time>
      </trkpt>
      <trkpt lat="47.55354" lon="6.76185">
        <ele>463.1</ele>
        <time>2017-07-30T09:20:56.000Z</time>
      </trkpt>
      <trkpt lat="47.55355" lon="6.76183">
        <ele>462.8</ele>
        <time>2017-07-30T09:20:57.000Z</time>
      </trkpt>
      <trkpt lat="47.55357" lon="6.76179">
        <ele>460.4</ele>
        <time>2017-07-30T09:21:10.000Z</time>
      </trkpt>
      <trkpt lat="47.55358" lon="6.76178">
        <ele>460.4</ele>
        <time>2017-07-30T09:21:11.000Z</time>
      </trkpt>
      <trkpt lat="47.55362" lon="6.76174">
        <ele>460.1</ele>
        <time>2017-07-30T09:21:16.000Z</time>
      </trkpt>
      <trkpt lat="47.55362" lon="6.76172">
        <ele>459.9</ele>
        <time>2017-07-30T09:21:17.000Z</time>
      </trkpt>
      <trkpt lat="47.55364" lon="6.76167">
        <ele>459.7</ele>
        <time>2017-07-30T09:21:19.000Z</time>
      </trkpt>
      <trkpt lat="47.55364" lon="6.76165">
        <ele>459.6</ele>
        <time>2017-07-30T09:21:20.000Z</time>
      </trkpt>
      <trkpt lat="47.55365" lon="6.76158">
        <ele>459.3</ele>
        <time>2017-07-30T09:21:23.000Z</time>
      </trkpt>
      <trkpt lat="47.55365" lon="6.76156">
        <ele>459.2</ele>
        <time>2017-07-30T09:21:24.000Z</time>
      </trkpt>
      <trkpt lat="47.55366" lon="6.76151">
        <ele>459.2</ele>
        <time>2017-07-30T09:21:26.000Z</time>
      </trkpt>
      <trkpt lat="47.55366" lon="6.76149">
        <ele>459.1</ele>
        <time>2017-07-30T09:21:27.000Z</time>
      </trkpt>
      <trkpt lat="47.55368" lon="6.76143">
        <ele>459.1</ele>
        <time>2017-07-30T09:21:29.000Z</time>
      </trkpt>
      <trkpt lat="47.55368" lon="6.76141">
        <ele>459.1</ele>
        <time>2017-07-30T09:21:30.000Z</time>
      </trkpt>
      <trkpt lat="47.55369" lon="6.76136">
        <ele>459</ele>
        <time>2017-07-30T09:21:32.000Z</time>
      </trkpt>
      <trkpt lat="47.55369" lon="6.76134">
        <ele>459</ele>
        <time>2017-07-30T09:21:33.000Z</time>
      </trkpt>
      <trkpt lat="47.55368" lon="6.7613">
        <ele>459.2</ele>
        <time>2017-07-30T09:21:35.000Z</time>
      </trkpt>
      <trkpt lat="47.55368" lon="6.76127">
        <ele>459.3</ele>
        <time>2017-07-30T09:21:36.000Z</time>
      </trkpt>
      <trkpt lat="47.55367" lon="6.76121">
        <ele>459.6</ele>
        <time>2017-07-30T09:21:39.000Z</time>
      </trkpt>
      <trkpt lat="47.55367" lon="6.7612">
        <ele>459.8</ele>
        <time>2017-07-30T09:21:40.000Z</time>
      </trkpt>
      <trkpt lat="47.55366" lon="6.76115">
        <ele>460</ele>
        <time>2017-07-30T09:21:42.000Z</time>
      </trkpt>
      <trkpt lat="47.55365" lon="6.76112">
        <ele>460</ele>
        <time>2017-07-30T09:21:43.000Z</time>
      </trkpt>
      <trkpt lat="47.55364" lon="6.76107">
        <ele>460.2</ele>
        <time>2017-07-30T09:21:45.000Z</time>
      </trkpt>
      <trkpt lat="47.55364" lon="6.76105">
        <ele>460.2</ele>
        <time>2017-07-30T09:21:46.000Z</time>
      </trkpt>
      <trkpt lat="47.55362" lon="6.76101">
        <ele>460.2</ele>
        <time>2017-07-30T09:21:48.000Z</time>
      </trkpt>
      <trkpt lat="47.55362" lon="6.76098">
        <ele>460.2</ele>
        <time>2017-07-30T09:21:49.000Z</time>
      </trkpt>
      <trkpt lat="47.55361" lon="6.76093">
        <ele>460.1</ele>
        <time>2017-07-30T09:21:51.000Z</time>
      </trkpt>
      <trkpt lat="47.55361" lon="6.7609">
        <ele>460.1</ele>
        <time>2017-07-30T09:21:52.000Z</time>
      </trkpt>
      <trkpt lat="47.5536" lon="6.76085">
        <ele>460</ele>
        <time>2017-07-30T09:21:54.000Z</time>
      </trkpt>
      <trkpt lat="47.55359" lon="6.76083">
        <ele>460</ele>
        <time>2017-07-30T09:21:55.000Z</time>
      </trkpt>
      <trkpt lat="47.55359" lon="6.76078">
        <ele>459.9</ele>
        <time>2017-07-30T09:21:57.000Z</time>
      </trkpt>
      <trkpt lat="47.55359" lon="6.76075">
        <ele>459.8</ele>
        <time>2017-07-30T09:21:58.000Z</time>
      </trkpt>
      <trkpt lat="47.55358" lon="6.76072">
        <ele>459.8</ele>
        <time>2017-07-30T09:21:59.000Z</time>
      </trkpt>
      <trkpt lat="47.55357" lon="6.76068">
        <ele>459.8</ele>
        <time>2017-07-30T09:22:00.000Z</time>
      </trkpt>
      <trkpt lat="47.55357" lon="6.76063">
        <ele>459.9</ele>
        <time>2017-07-30T09:22:01.000Z</time>
      </trkpt>
      <trkpt lat="47.55357" lon="6.76057">
        <ele>459.9</ele>
        <time>2017-07-30T09:22:02.000Z</time>
      </trkpt>
      <trkpt lat="47.55356" lon="6.76051">
        <ele>459.9</ele>
        <time>2017-07-30T09:22:03.000Z</time>
      </trkpt>
      <trkpt lat="47.55357" lon="6.76046">
        <ele>460</ele>
        <time>2017-07-30T09:22:04.000Z</time>
      </trkpt>
      <trkpt lat="47.55357" lon="6.76042">
        <ele>460</ele>
        <time>2017-07-30T09:22:05.000Z</time>
      </trkpt>
      <trkpt lat="47.55357" lon="6.76035">
        <ele>460.1</ele>
        <time>2017-07-30T09:22:06.000Z</time>
      </trkpt>
      <trkpt lat="47.55356" lon="6.7603">
        <ele>460.1</ele>
        <time>2017-07-30T09:22:07.000Z</time>
      </trkpt>
      <trkpt lat="47.55356" lon="6.76027">
        <ele>460.1</ele>
        <time>2017-07-30T09:22:08.000Z</time>
      </trkpt>
      <trkpt lat="47.55356" lon="6.76022">
        <ele>460.3</ele>
        <time>2017-07-30T09:22:10.000Z</time>
      </trkpt>
      <trkpt lat="47.55356" lon="6.76019">
        <ele>460.3</ele>
        <time>2017-07-30T09:22:11.000Z</time>
      </trkpt>
      <trkpt lat="47.55356" lon="6.76015">
        <ele>460.4</ele>
        <time>2017-07-30T09:22:12.000Z</time>
      </trkpt>
      <trkpt lat="47.55356" lon="6.76012">
        <ele>460.4</ele>
        <time>2017-07-30T09:22:13.000Z</time>
      </trkpt>
      <trkpt lat="47.55355" lon="6.76009">
        <ele>460.5</ele>
        <time>2017-07-30T09:22:14.000Z</time>
      </trkpt>
      <trkpt lat="47.55355" lon="6.76005">
        <ele>460.6</ele>
        <time>2017-07-30T09:22:15.000Z</time>
      </trkpt>
      <trkpt lat="47.55354" lon="6.75999">
        <ele>460.8</ele>
        <time>2017-07-30T09:22:17.000Z</time>
      </trkpt>
      <trkpt lat="47.55353" lon="6.75995">
        <ele>460.9</ele>
        <time>2017-07-30T09:22:18.000Z</time>
      </trkpt>
      <trkpt lat="47.55352" lon="6.75992">
        <ele>461</ele>
        <time>2017-07-30T09:22:19.000Z</time>
      </trkpt>
      <trkpt lat="47.55351" lon="6.75988">
        <ele>461</ele>
        <time>2017-07-30T09:22:20.000Z</time>
      </trkpt>
      <trkpt lat="47.55351" lon="6.75983">
        <ele>461.2</ele>
        <time>2017-07-30T09:22:22.000Z</time>
      </trkpt>
      <trkpt lat="47.55351" lon="6.7598">
        <ele>461.3</ele>
        <time>2017-07-30T09:22:23.000Z</time>
      </trkpt>
      <trkpt lat="47.5535" lon="6.75978">
        <ele>461.5</ele>
        <time>2017-07-30T09:22:24.000Z</time>
      </trkpt>
      <trkpt lat="47.55349" lon="6.75972">
        <ele>461.7</ele>
        <time>2017-07-30T09:22:26.000Z</time>
      </trkpt>
      <trkpt lat="47.55348" lon="6.75966">
        <ele>462</ele>
        <time>2017-07-30T09:22:28.000Z</time>
      </trkpt>
      <trkpt lat="47.55347" lon="6.75963">
        <ele>462.1</ele>
        <time>2017-07-30T09:22:29.000Z</time>
      </trkpt>
      <trkpt lat="47.55346" lon="6.75957">
        <ele>462.3</ele>
        <time>2017-07-30T09:22:31.000Z</time>
      </trkpt>
      <trkpt lat="47.55345" lon="6.75953">
        <ele>462.5</ele>
        <time>2017-07-30T09:22:32.000Z</time>
      </trkpt>
      <trkpt lat="47.55344" lon="6.75948">
        <ele>462.5</ele>
        <time>2017-07-30T09:22:33.000Z</time>
      </trkpt>
      <trkpt lat="47.55343" lon="6.75944">
        <ele>462.6</ele>
        <time>2017-07-30T09:22:34.000Z</time>
      </trkpt>
      <trkpt lat="47.55342" lon="6.7594">
        <ele>462.6</ele>
        <time>2017-07-30T09:22:35.000Z</time>
      </trkpt>
      <trkpt lat="47.5534" lon="6.75936">
        <ele>462.5</ele>
        <time>2017-07-30T09:22:36.000Z</time>
      </trkpt>
      <trkpt lat="47.5534" lon="6.75932">
        <ele>462.5</ele>
        <time>2017-07-30T09:22:37.000Z</time>
      </trkpt>
      <trkpt lat="47.55339" lon="6.75929">
        <ele>462.5</ele>
        <time>2017-07-30T09:22:38.000Z</time>
      </trkpt>
      <trkpt lat="47.55338" lon="6.75925">
        <ele>462.6</ele>
        <time>2017-07-30T09:22:39.000Z</time>
      </trkpt>
      <trkpt lat="47.55337" lon="6.75921">
        <ele>462.6</ele>
        <time>2017-07-30T09:22:40.000Z</time>
      </trkpt>
      <trkpt lat="47.55336" lon="6.75917">
        <ele>462.7</ele>
        <time>2017-07-30T09:22:41.000Z</time>
      </trkpt>
      <trkpt lat="47.55336" lon="6.75913">
        <ele>462.7</ele>
        <time>2017-07-30T09:22:42.000Z</time>
      </trkpt>
      <trkpt lat="47.55335" lon="6.75909">
        <ele>462.7</ele>
        <time>2017-07-30T09:22:43.000Z</time>
      </trkpt>
      <trkpt lat="47.55335" lon="6.75905">
        <ele>462.7</ele>
        <time>2017-07-30T09:22:44.000Z</time>
      </trkpt>
      <trkpt lat="47.55334" lon="6.75901">
        <ele>462.7</ele>
        <time>2017-07-30T09:22:45.000Z</time>
      </trkpt>
      <trkpt lat="47.55334" lon="6.75896">
        <ele>462.7</ele>
        <time>2017-07-30T09:22:46.000Z</time>
      </trkpt>
      <trkpt lat="47.55333" lon="6.75892">
        <ele>462.7</ele>
        <time>2017-07-30T09:22:47.000Z</time>
      </trkpt>
      <trkpt lat="47.55332" lon="6.75887">
        <ele>462.8</ele>
        <time>2017-07-30T09:22:48.000Z</time>
      </trkpt>
      <trkpt lat="47.55332" lon="6.75884">
        <ele>462.8</ele>
        <time>2017-07-30T09:22:49.000Z</time>
      </trkpt>
      <trkpt lat="47.55332" lon="6.75879">
        <ele>462.8</ele>
        <time>2017-07-30T09:22:50.000Z</time>
      </trkpt>
      <trkpt lat="47.55332" lon="6.75873">
        <ele>462.9</ele>
        <time>2017-07-30T09:22:52.000Z</time>
      </trkpt>
      <trkpt lat="47.55332" lon="6.7587">
        <ele>463</ele>
        <time>2017-07-30T09:22:53.000Z</time>
      </trkpt>
      <trkpt lat="47.55332" lon="6.75866">
        <ele>463.1</ele>
        <time>2017-07-30T09:22:54.000Z</time>
      </trkpt>
      <trkpt lat="47.55331" lon="6.75862">
        <ele>463.2</ele>
        <time>2017-07-30T09:22:55.000Z</time>
      </trkpt>
      <trkpt lat="47.5533" lon="6.75858">
        <ele>463.2</ele>
        <time>2017-07-30T09:22:56.000Z</time>
      </trkpt>
      <trkpt lat="47.55329" lon="6.75856">
        <ele>463.3</ele>
        <time>2017-07-30T09:22:57.000Z</time>
      </trkpt>
      <trkpt lat="47.55325" lon="6.75852">
        <ele>463.5</ele>
        <time>2017-07-30T09:22:59.000Z</time>
      </trkpt>
      <trkpt lat="47.55322" lon="6.75853">
        <ele>463.5</ele>
        <time>2017-07-30T09:23:00.000Z</time>
      </trkpt>
      <trkpt lat="47.5532" lon="6.75854">
        <ele>463.6</ele>
        <time>2017-07-30T09:23:01.000Z</time>
      </trkpt>
      <trkpt lat="47.55316" lon="6.75855">
        <ele>463.6</ele>
        <time>2017-07-30T09:23:02.000Z</time>
      </trkpt>
      <trkpt lat="47.55313" lon="6.75855">
        <ele>463.6</ele>
        <time>2017-07-30T09:23:03.000Z</time>
      </trkpt>
      <trkpt lat="47.55309" lon="6.75856">
        <ele>463.6</ele>
        <time>2017-07-30T09:23:04.000Z</time>
      </trkpt>
      <trkpt lat="47.55305" lon="6.75857">
        <ele>463.7</ele>
        <time>2017-07-30T09:23:05.000Z</time>
      </trkpt>
      <trkpt lat="47.55302" lon="6.75858">
        <ele>463.8</ele>
        <time>2017-07-30T09:23:06.000Z</time>
      </trkpt>
      <trkpt lat="47.55298" lon="6.75859">
        <ele>463.8</ele>
        <time>2017-07-30T09:23:07.000Z</time>
      </trkpt>
      <trkpt lat="47.55293" lon="6.75859">
        <ele>463.8</ele>
        <time>2017-07-30T09:23:08.000Z</time>
      </trkpt>
      <trkpt lat="47.55289" lon="6.7586">
        <ele>463.8</ele>
        <time>2017-07-30T09:23:09.000Z</time>
      </trkpt>
      <trkpt lat="47.55284" lon="6.7586">
        <ele>463.7</ele>
        <time>2017-07-30T09:23:10.000Z</time>
      </trkpt>
      <trkpt lat="47.55279" lon="6.7586">
        <ele>463.8</ele>
        <time>2017-07-30T09:23:11.000Z</time>
      </trkpt>
      <trkpt lat="47.55275" lon="6.75861">
        <ele>463.6</ele>
        <time>2017-07-30T09:23:12.000Z</time>
      </trkpt>
      <trkpt lat="47.55271" lon="6.75861">
        <ele>463.3</ele>
        <time>2017-07-30T09:23:13.000Z</time>
      </trkpt>
      <trkpt lat="47.55267" lon="6.75862">
        <ele>463</ele>
        <time>2017-07-30T09:23:14.000Z</time>
      </trkpt>
      <trkpt lat="47.55263" lon="6.75863">
        <ele>463.1</ele>
        <time>2017-07-30T09:23:15.000Z</time>
      </trkpt>
      <trkpt lat="47.55258" lon="6.75863">
        <ele>462.9</ele>
        <time>2017-07-30T09:23:16.000Z</time>
      </trkpt>
      <trkpt lat="47.55253" lon="6.75864">
        <ele>463</ele>
        <time>2017-07-30T09:23:17.000Z</time>
      </trkpt>
      <trkpt lat="47.55248" lon="6.75865">
        <ele>462.9</ele>
        <time>2017-07-30T09:23:18.000Z</time>
      </trkpt>
      <trkpt lat="47.55243" lon="6.75866">
        <ele>463.2</ele>
        <time>2017-07-30T09:23:19.000Z</time>
      </trkpt>
      <trkpt lat="47.55238" lon="6.75867">
        <ele>463.5</ele>
        <time>2017-07-30T09:23:20.000Z</time>
      </trkpt>
      <trkpt lat="47.55234" lon="6.75869">
        <ele>463.9</ele>
        <time>2017-07-30T09:23:21.000Z</time>
      </trkpt>
      <trkpt lat="47.55229" lon="6.7587">
        <ele>464.3</ele>
        <time>2017-07-30T09:23:22.000Z</time>
      </trkpt>
      <trkpt lat="47.55226" lon="6.75871">
        <ele>464.5</ele>
        <time>2017-07-30T09:23:23.000Z</time>
      </trkpt>
      <trkpt lat="47.55221" lon="6.75871">
        <ele>464.6</ele>
        <time>2017-07-30T09:23:24.000Z</time>
      </trkpt>
      <trkpt lat="47.55213" lon="6.75873">
        <ele>463.9</ele>
        <time>2017-07-30T09:23:26.000Z</time>
      </trkpt>
      <trkpt lat="47.55208" lon="6.75876">
        <ele>463.7</ele>
        <time>2017-07-30T09:23:27.000Z</time>
      </trkpt>
      <trkpt lat="47.55204" lon="6.75879">
        <ele>463.8</ele>
        <time>2017-07-30T09:23:28.000Z</time>
      </trkpt>
      <trkpt lat="47.55199" lon="6.75883">
        <ele>463.7</ele>
        <time>2017-07-30T09:23:29.000Z</time>
      </trkpt>
      <trkpt lat="47.55194" lon="6.75884">
        <ele>463.5</ele>
        <time>2017-07-30T09:23:30.000Z</time>
      </trkpt>
      <trkpt lat="47.5519" lon="6.75885">
        <ele>463.1</ele>
        <time>2017-07-30T09:23:31.000Z</time>
      </trkpt>
      <trkpt lat="47.55184" lon="6.75887">
        <ele>462.6</ele>
        <time>2017-07-30T09:23:32.000Z</time>
      </trkpt>
      <trkpt lat="47.5518" lon="6.75888">
        <ele>462.2</ele>
        <time>2017-07-30T09:23:33.000Z</time>
      </trkpt>
      <trkpt lat="47.55176" lon="6.75889">
        <ele>461.9</ele>
        <time>2017-07-30T09:23:34.000Z</time>
      </trkpt>
      <trkpt lat="47.55171" lon="6.75891">
        <ele>461.4</ele>
        <time>2017-07-30T09:23:35.000Z</time>
      </trkpt>
      <trkpt lat="47.55167" lon="6.75892">
        <ele>461.8</ele>
        <time>2017-07-30T09:23:36.000Z</time>
      </trkpt>
      <trkpt lat="47.55163" lon="6.75894">
        <ele>462.9</ele>
        <time>2017-07-30T09:23:37.000Z</time>
      </trkpt>
      <trkpt lat="47.55158" lon="6.75895">
        <ele>462.8</ele>
        <time>2017-07-30T09:23:38.000Z</time>
      </trkpt>
      <trkpt lat="47.55153" lon="6.75897">
        <ele>462.2</ele>
        <time>2017-07-30T09:23:39.000Z</time>
      </trkpt>
      <trkpt lat="47.5515" lon="6.75897">
        <ele>462.3</ele>
        <time>2017-07-30T09:23:40.000Z</time>
      </trkpt>
      <trkpt lat="47.55146" lon="6.75899">
        <ele>462.5</ele>
        <time>2017-07-30T09:23:41.000Z</time>
      </trkpt>
      <trkpt lat="47.55141" lon="6.759">
        <ele>462.3</ele>
        <time>2017-07-30T09:23:42.000Z</time>
      </trkpt>
      <trkpt lat="47.55137" lon="6.75901">
        <ele>462.2</ele>
        <time>2017-07-30T09:23:43.000Z</time>
      </trkpt>
      <trkpt lat="47.55134" lon="6.75901">
        <ele>463</ele>
        <time>2017-07-30T09:23:44.000Z</time>
      </trkpt>
      <trkpt lat="47.5513" lon="6.75902">
        <ele>463.4</ele>
        <time>2017-07-30T09:23:45.000Z</time>
      </trkpt>
      <trkpt lat="47.55126" lon="6.75903">
        <ele>463.4</ele>
        <time>2017-07-30T09:23:46.000Z</time>
      </trkpt>
      <trkpt lat="47.55122" lon="6.75904">
        <ele>463.6</ele>
        <time>2017-07-30T09:23:47.000Z</time>
      </trkpt>
      <trkpt lat="47.55118" lon="6.75905">
        <ele>463.4</ele>
        <time>2017-07-30T09:23:48.000Z</time>
      </trkpt>
      <trkpt lat="47.55114" lon="6.75906">
        <ele>463.4</ele>
        <time>2017-07-30T09:23:49.000Z</time>
      </trkpt>
      <trkpt lat="47.5511" lon="6.75906">
        <ele>463.4</ele>
        <time>2017-07-30T09:23:50.000Z</time>
      </trkpt>
      <trkpt lat="47.55107" lon="6.75907">
        <ele>463.3</ele>
        <time>2017-07-30T09:23:51.000Z</time>
      </trkpt>
      <trkpt lat="47.55104" lon="6.75907">
        <ele>463.3</ele>
        <time>2017-07-30T09:23:52.000Z</time>
      </trkpt>
      <trkpt lat="47.55101" lon="6.75908">
        <ele>463.2</ele>
        <time>2017-07-30T09:23:53.000Z</time>
      </trkpt>
      <trkpt lat="47.55098" lon="6.75909">
        <ele>463.3</ele>
        <time>2017-07-30T09:23:54.000Z</time>
      </trkpt>
      <trkpt lat="47.55095" lon="6.7591">
        <ele>463.2</ele>
        <time>2017-07-30T09:23:55.000Z</time>
      </trkpt>
      <trkpt lat="47.55092" lon="6.7591">
        <ele>463.2</ele>
        <time>2017-07-30T09:23:56.000Z</time>
      </trkpt>
      <trkpt lat="47.55088" lon="6.7591">
        <ele>463.3</ele>
        <time>2017-07-30T09:23:58.000Z</time>
      </trkpt>
      <trkpt lat="47.55086" lon="6.7591">
        <ele>463.3</ele>
        <time>2017-07-30T09:23:59.000Z</time>
      </trkpt>
      <trkpt lat="47.55084" lon="6.75905">
        <ele>463.4</ele>
        <time>2017-07-30T09:24:02.000Z</time>
      </trkpt>
      <trkpt lat="47.55084" lon="6.75904">
        <ele>463.3</ele>
        <time>2017-07-30T09:24:03.000Z</time>
      </trkpt>
      <trkpt lat="47.55081" lon="6.759">
        <ele>463.4</ele>
        <time>2017-07-30T09:24:05.000Z</time>
      </trkpt>
      <trkpt lat="47.55079" lon="6.75896">
        <ele>463.4</ele>
        <time>2017-07-30T09:24:06.000Z</time>
      </trkpt>
      <trkpt lat="47.55078" lon="6.75893">
        <ele>463.5</ele>
        <time>2017-07-30T09:24:07.000Z</time>
      </trkpt>
      <trkpt lat="47.55076" lon="6.75889">
        <ele>463.6</ele>
        <time>2017-07-30T09:24:08.000Z</time>
      </trkpt>
      <trkpt lat="47.55074" lon="6.75886">
        <ele>463.7</ele>
        <time>2017-07-30T09:24:09.000Z</time>
      </trkpt>
      <trkpt lat="47.55073" lon="6.75883">
        <ele>463.7</ele>
        <time>2017-07-30T09:24:10.000Z</time>
      </trkpt>
      <trkpt lat="47.55072" lon="6.7588">
        <ele>463.8</ele>
        <time>2017-07-30T09:24:11.000Z</time>
      </trkpt>
      <trkpt lat="47.55071" lon="6.75877">
        <ele>463.8</ele>
        <time>2017-07-30T09:24:12.000Z</time>
      </trkpt>
      <trkpt lat="47.55069" lon="6.75873">
        <ele>463.9</ele>
        <time>2017-07-30T09:24:13.000Z</time>
      </trkpt>
      <trkpt lat="47.55068" lon="6.7587">
        <ele>463.9</ele>
        <time>2017-07-30T09:24:14.000Z</time>
      </trkpt>
      <trkpt lat="47.55067" lon="6.75866">
        <ele>463.8</ele>
        <time>2017-07-30T09:24:15.000Z</time>
      </trkpt>
      <trkpt lat="47.55066" lon="6.75863">
        <ele>463.9</ele>
        <time>2017-07-30T09:24:16.000Z</time>
      </trkpt>
      <trkpt lat="47.55064" lon="6.75859">
        <ele>463.9</ele>
        <time>2017-07-30T09:24:17.000Z</time>
      </trkpt>
      <trkpt lat="47.55063" lon="6.75855">
        <ele>464</ele>
        <time>2017-07-30T09:24:18.000Z</time>
      </trkpt>
      <trkpt lat="47.5506" lon="6.75853">
        <ele>464</ele>
        <time>2017-07-30T09:24:19.000Z</time>
      </trkpt>
      <trkpt lat="47.55057" lon="6.75852">
        <ele>464</ele>
        <time>2017-07-30T09:24:20.000Z</time>
      </trkpt>
      <trkpt lat="47.55055" lon="6.75852">
        <ele>464.1</ele>
        <time>2017-07-30T09:24:21.000Z</time>
      </trkpt>
      <trkpt lat="47.55052" lon="6.75852">
        <ele>464.2</ele>
        <time>2017-07-30T09:24:22.000Z</time>
      </trkpt>
      <trkpt lat="47.5505" lon="6.75851">
        <ele>464.3</ele>
        <time>2017-07-30T09:24:23.000Z</time>
      </trkpt>
      <trkpt lat="47.55046" lon="6.7585">
        <ele>464.4</ele>
        <time>2017-07-30T09:24:24.000Z</time>
      </trkpt>
      <trkpt lat="47.55043" lon="6.7585">
        <ele>464.5</ele>
        <time>2017-07-30T09:24:25.000Z</time>
      </trkpt>
      <trkpt lat="47.5504" lon="6.7585">
        <ele>464.6</ele>
        <time>2017-07-30T09:24:26.000Z</time>
      </trkpt>
      <trkpt lat="47.55037" lon="6.7585">
        <ele>464.6</ele>
        <time>2017-07-30T09:24:27.000Z</time>
      </trkpt>
      <trkpt lat="47.55034" lon="6.75849">
        <ele>464.7</ele>
        <time>2017-07-30T09:24:28.000Z</time>
      </trkpt>
      <trkpt lat="47.55031" lon="6.75849">
        <ele>464.7</ele>
        <time>2017-07-30T09:24:29.000Z</time>
      </trkpt>
      <trkpt lat="47.55029" lon="6.75849">
        <ele>464.8</ele>
        <time>2017-07-30T09:24:30.000Z</time>
      </trkpt>
      <trkpt lat="47.55026" lon="6.75849">
        <ele>464.9</ele>
        <time>2017-07-30T09:24:31.000Z</time>
      </trkpt>
      <trkpt lat="47.55023" lon="6.75849">
        <ele>465</ele>
        <time>2017-07-30T09:24:32.000Z</time>
      </trkpt>
      <trkpt lat="47.5502" lon="6.75849">
        <ele>465.1</ele>
        <time>2017-07-30T09:24:33.000Z</time>
      </trkpt>
      <trkpt lat="47.55017" lon="6.75849">
        <ele>465.2</ele>
        <time>2017-07-30T09:24:34.000Z</time>
      </trkpt>
      <trkpt lat="47.55014" lon="6.75848">
        <ele>465.2</ele>
        <time>2017-07-30T09:24:35.000Z</time>
      </trkpt>
      <trkpt lat="47.55011" lon="6.75847">
        <ele>465.3</ele>
        <time>2017-07-30T09:24:36.000Z</time>
      </trkpt>
      <trkpt lat="47.55008" lon="6.75845">
        <ele>465.3</ele>
        <time>2017-07-30T09:24:37.000Z</time>
      </trkpt>
      <trkpt lat="47.55005" lon="6.75843">
        <ele>465.3</ele>
        <time>2017-07-30T09:24:38.000Z</time>
      </trkpt>
      <trkpt lat="47.55003" lon="6.75839">
        <ele>465.3</ele>
        <time>2017-07-30T09:24:39.000Z</time>
      </trkpt>
      <trkpt lat="47.55001" lon="6.75836">
        <ele>465.3</ele>
        <time>2017-07-30T09:24:40.000Z</time>
      </trkpt>
      <trkpt lat="47.55" lon="6.75831">
        <ele>465.4</ele>
        <time>2017-07-30T09:24:41.000Z</time>
      </trkpt>
      <trkpt lat="47.54999" lon="6.75827">
        <ele>465.5</ele>
        <time>2017-07-30T09:24:42.000Z</time>
      </trkpt>
      <trkpt lat="47.54997" lon="6.75824">
        <ele>465.5</ele>
        <time>2017-07-30T09:24:43.000Z</time>
      </trkpt>
      <trkpt lat="47.54997" lon="6.75819">
        <ele>465.5</ele>
        <time>2017-07-30T09:24:44.000Z</time>
      </trkpt>
      <trkpt lat="47.54996" lon="6.75815">
        <ele>465.6</ele>
        <time>2017-07-30T09:24:45.000Z</time>
      </trkpt>
      <trkpt lat="47.54995" lon="6.7581">
        <ele>465.6</ele>
        <time>2017-07-30T09:24:46.000Z</time>
      </trkpt>
      <trkpt lat="47.54995" lon="6.75807">
        <ele>465.7</ele>
        <time>2017-07-30T09:24:47.000Z</time>
      </trkpt>
      <trkpt lat="47.54993" lon="6.75804">
        <ele>465.7</ele>
        <time>2017-07-30T09:24:48.000Z</time>
      </trkpt>
      <trkpt lat="47.54991" lon="6.75801">
        <ele>465.6</ele>
        <time>2017-07-30T09:24:49.000Z</time>
      </trkpt>
      <trkpt lat="47.54989" lon="6.75798">
        <ele>465.5</ele>
        <time>2017-07-30T09:24:50.000Z</time>
      </trkpt>
      <trkpt lat="47.54987" lon="6.75796">
        <ele>465.5</ele>
        <time>2017-07-30T09:24:51.000Z</time>
      </trkpt>
      <trkpt lat="47.54984" lon="6.75793">
        <ele>465.5</ele>
        <time>2017-07-30T09:24:52.000Z</time>
      </trkpt>
      <trkpt lat="47.54982" lon="6.7579">
        <ele>465.5</ele>
        <time>2017-07-30T09:24:53.000Z</time>
      </trkpt>
      <trkpt lat="47.5498" lon="6.75788">
        <ele>465.5</ele>
        <time>2017-07-30T09:24:54.000Z</time>
      </trkpt>
      <trkpt lat="47.54979" lon="6.75785">
        <ele>465.5</ele>
        <time>2017-07-30T09:24:55.000Z</time>
      </trkpt>
      <trkpt lat="47.54977" lon="6.75781">
        <ele>465.5</ele>
        <time>2017-07-30T09:24:56.000Z</time>
      </trkpt>
      <trkpt lat="47.54976" lon="6.75777">
        <ele>465.6</ele>
        <time>2017-07-30T09:24:57.000Z</time>
      </trkpt>
      <trkpt lat="47.54975" lon="6.75772">
        <ele>465.6</ele>
        <time>2017-07-30T09:24:58.000Z</time>
      </trkpt>
      <trkpt lat="47.54974" lon="6.75768">
        <ele>465.5</ele>
        <time>2017-07-30T09:24:59.000Z</time>
      </trkpt>
      <trkpt lat="47.54973" lon="6.75764">
        <ele>465.3</ele>
        <time>2017-07-30T09:25:00.000Z</time>
      </trkpt>
      <trkpt lat="47.54971" lon="6.7576">
        <ele>465.3</ele>
        <time>2017-07-30T09:25:01.000Z</time>
      </trkpt>
      <trkpt lat="47.54969" lon="6.75755">
        <ele>465.1</ele>
        <time>2017-07-30T09:25:02.000Z</time>
      </trkpt>
      <trkpt lat="47.54967" lon="6.75751">
        <ele>465</ele>
        <time>2017-07-30T09:25:03.000Z</time>
      </trkpt>
      <trkpt lat="47.54965" lon="6.75747">
        <ele>465</ele>
        <time>2017-07-30T09:25:04.000Z</time>
      </trkpt>
      <trkpt lat="47.54963" lon="6.75744">
        <ele>465</ele>
        <time>2017-07-30T09:25:05.000Z</time>
      </trkpt>
      <trkpt lat="47.54962" lon="6.75741">
        <ele>465.1</ele>
        <time>2017-07-30T09:25:06.000Z</time>
      </trkpt>
      <trkpt lat="47.5496" lon="6.75737">
        <ele>465.1</ele>
        <time>2017-07-30T09:25:07.000Z</time>
      </trkpt>
      <trkpt lat="47.54958" lon="6.75734">
        <ele>465.2</ele>
        <time>2017-07-30T09:25:08.000Z</time>
      </trkpt>
      <trkpt lat="47.54956" lon="6.7573">
        <ele>465.3</ele>
        <time>2017-07-30T09:25:09.000Z</time>
      </trkpt>
      <trkpt lat="47.54955" lon="6.75727">
        <ele>465.4</ele>
        <time>2017-07-30T09:25:10.000Z</time>
      </trkpt>
      <trkpt lat="47.54953" lon="6.75724">
        <ele>465.5</ele>
        <time>2017-07-30T09:25:11.000Z</time>
      </trkpt>
      <trkpt lat="47.54951" lon="6.75722">
        <ele>465.5</ele>
        <time>2017-07-30T09:25:12.000Z</time>
      </trkpt>
      <trkpt lat="47.54948" lon="6.75719">
        <ele>465.6</ele>
        <time>2017-07-30T09:25:13.000Z</time>
      </trkpt>
      <trkpt lat="47.54946" lon="6.75717">
        <ele>465.7</ele>
        <time>2017-07-30T09:25:14.000Z</time>
      </trkpt>
      <trkpt lat="47.54943" lon="6.75714">
        <ele>465.8</ele>
        <time>2017-07-30T09:25:15.000Z</time>
      </trkpt>
      <trkpt lat="47.54941" lon="6.75712">
        <ele>466</ele>
        <time>2017-07-30T09:25:16.000Z</time>
      </trkpt>
      <trkpt lat="47.54938" lon="6.7571">
        <ele>466.1</ele>
        <time>2017-07-30T09:25:17.000Z</time>
      </trkpt>
      <trkpt lat="47.54936" lon="6.75708">
        <ele>466.2</ele>
        <time>2017-07-30T09:25:18.000Z</time>
      </trkpt>
      <trkpt lat="47.54933" lon="6.75707">
        <ele>466.3</ele>
        <time>2017-07-30T09:25:19.000Z</time>
      </trkpt>
      <trkpt lat="47.5493" lon="6.75706">
        <ele>466.4</ele>
        <time>2017-07-30T09:25:20.000Z</time>
      </trkpt>
      <trkpt lat="47.54928" lon="6.75704">
        <ele>466.5</ele>
        <time>2017-07-30T09:25:21.000Z</time>
      </trkpt>
      <trkpt lat="47.54926" lon="6.75704">
        <ele>466.6</ele>
        <time>2017-07-30T09:25:22.000Z</time>
      </trkpt>
      <trkpt lat="47.54923" lon="6.75706">
        <ele>466.7</ele>
        <time>2017-07-30T09:25:23.000Z</time>
      </trkpt>
      <trkpt lat="47.54921" lon="6.75709">
        <ele>466.8</ele>
        <time>2017-07-30T09:25:24.000Z</time>
      </trkpt>
      <trkpt lat="47.54917" lon="6.75713">
        <ele>467</ele>
        <time>2017-07-30T09:25:26.000Z</time>
      </trkpt>
      <trkpt lat="47.54914" lon="6.75715">
        <ele>467.1</ele>
        <time>2017-07-30T09:25:27.000Z</time>
      </trkpt>
      <trkpt lat="47.54911" lon="6.75717">
        <ele>467.2</ele>
        <time>2017-07-30T09:25:28.000Z</time>
      </trkpt>
      <trkpt lat="47.54907" lon="6.7572">
        <ele>467.2</ele>
        <time>2017-07-30T09:25:29.000Z</time>
      </trkpt>
      <trkpt lat="47.54904" lon="6.75723">
        <ele>467.3</ele>
        <time>2017-07-30T09:25:30.000Z</time>
      </trkpt>
      <trkpt lat="47.54901" lon="6.75726">
        <ele>467.4</ele>
        <time>2017-07-30T09:25:31.000Z</time>
      </trkpt>
      <trkpt lat="47.54897" lon="6.75729">
        <ele>467.5</ele>
        <time>2017-07-30T09:25:32.000Z</time>
      </trkpt>
      <trkpt lat="47.54893" lon="6.75733">
        <ele>467.6</ele>
        <time>2017-07-30T09:25:33.000Z</time>
      </trkpt>
      <trkpt lat="47.5489" lon="6.75736">
        <ele>468.6</ele>
        <time>2017-07-30T09:25:34.000Z</time>
      </trkpt>
      <trkpt lat="47.54886" lon="6.75739">
        <ele>469.9</ele>
        <time>2017-07-30T09:25:35.000Z</time>
      </trkpt>
      <trkpt lat="47.54883" lon="6.75743">
        <ele>470.7</ele>
        <time>2017-07-30T09:25:36.000Z</time>
      </trkpt>
      <trkpt lat="47.54878" lon="6.75747">
        <ele>471</ele>
        <time>2017-07-30T09:25:37.000Z</time>
      </trkpt>
      <trkpt lat="47.54874" lon="6.75751">
        <ele>471.1</ele>
        <time>2017-07-30T09:25:38.000Z</time>
      </trkpt>
      <trkpt lat="47.54869" lon="6.75754">
        <ele>471.4</ele>
        <time>2017-07-30T09:25:39.000Z</time>
      </trkpt>
      <trkpt lat="47.54864" lon="6.75757">
        <ele>471.2</ele>
        <time>2017-07-30T09:25:40.000Z</time>
      </trkpt>
      <trkpt lat="47.54859" lon="6.75758">
        <ele>471.1</ele>
        <time>2017-07-30T09:25:41.000Z</time>
      </trkpt>
      <trkpt lat="47.54854" lon="6.75757">
        <ele>470.7</ele>
        <time>2017-07-30T09:25:42.000Z</time>
      </trkpt>
      <trkpt lat="47.54849" lon="6.75757">
        <ele>470.5</ele>
        <time>2017-07-30T09:25:43.000Z</time>
      </trkpt>
      <trkpt lat="47.54842" lon="6.75757">
        <ele>469.6</ele>
        <time>2017-07-30T09:25:44.000Z</time>
      </trkpt>
      <trkpt lat="47.54836" lon="6.75756">
        <ele>468.3</ele>
        <time>2017-07-30T09:25:45.000Z</time>
      </trkpt>
      <trkpt lat="47.5483" lon="6.75757">
        <ele>468.3</ele>
        <time>2017-07-30T09:25:46.000Z</time>
      </trkpt>
      <trkpt lat="47.54825" lon="6.75757">
        <ele>468.8</ele>
        <time>2017-07-30T09:25:47.000Z</time>
      </trkpt>
      <trkpt lat="47.5482" lon="6.7576">
        <ele>468.7</ele>
        <time>2017-07-30T09:25:48.000Z</time>
      </trkpt>
      <trkpt lat="47.54815" lon="6.75764">
        <ele>469</ele>
        <time>2017-07-30T09:25:49.000Z</time>
      </trkpt>
      <trkpt lat="47.54809" lon="6.75766">
        <ele>469.2</ele>
        <time>2017-07-30T09:25:50.000Z</time>
      </trkpt>
      <trkpt lat="47.54803" lon="6.75767">
        <ele>469.8</ele>
        <time>2017-07-30T09:25:51.000Z</time>
      </trkpt>
      <trkpt lat="47.54797" lon="6.7577">
        <ele>470.3</ele>
        <time>2017-07-30T09:25:52.000Z</time>
      </trkpt>
      <trkpt lat="47.54791" lon="6.75773">
        <ele>470</ele>
        <time>2017-07-30T09:25:53.000Z</time>
      </trkpt>
      <trkpt lat="47.54786" lon="6.75775">
        <ele>470.2</ele>
        <time>2017-07-30T09:25:54.000Z</time>
      </trkpt>
      <trkpt lat="47.5478" lon="6.75776">
        <ele>470.5</ele>
        <time>2017-07-30T09:25:55.000Z</time>
      </trkpt>
      <trkpt lat="47.54774" lon="6.75779">
        <ele>470.9</ele>
        <time>2017-07-30T09:25:56.000Z</time>
      </trkpt>
      <trkpt lat="47.54767" lon="6.75784">
        <ele>471.7</ele>
        <time>2017-07-30T09:25:57.000Z</time>
      </trkpt>
      <trkpt lat="47.54762" lon="6.75786">
        <ele>472.4</ele>
        <time>2017-07-30T09:25:58.000Z</time>
      </trkpt>
      <trkpt lat="47.54757" lon="6.75791">
        <ele>472.6</ele>
        <time>2017-07-30T09:25:59.000Z</time>
      </trkpt>
      <trkpt lat="47.54751" lon="6.75797">
        <ele>472.4</ele>
        <time>2017-07-30T09:26:00.000Z</time>
      </trkpt>
      <trkpt lat="47.54747" lon="6.75801">
        <ele>472.5</ele>
        <time>2017-07-30T09:26:01.000Z</time>
      </trkpt>
      <trkpt lat="47.54742" lon="6.75806">
        <ele>472.3</ele>
        <time>2017-07-30T09:26:02.000Z</time>
      </trkpt>
      <trkpt lat="47.54738" lon="6.75811">
        <ele>472.3</ele>
        <time>2017-07-30T09:26:03.000Z</time>
      </trkpt>
      <trkpt lat="47.54734" lon="6.75818">
        <ele>471.8</ele>
        <time>2017-07-30T09:26:04.000Z</time>
      </trkpt>
      <trkpt lat="47.5473" lon="6.75824">
        <ele>470.4</ele>
        <time>2017-07-30T09:26:05.000Z</time>
      </trkpt>
      <trkpt lat="47.54726" lon="6.75831">
        <ele>469.5</ele>
        <time>2017-07-30T09:26:06.000Z</time>
      </trkpt>
      <trkpt lat="47.54723" lon="6.75839">
        <ele>469.5</ele>
        <time>2017-07-30T09:26:07.000Z</time>
      </trkpt>
      <trkpt lat="47.54717" lon="6.75846">
        <ele>468.6</ele>
        <time>2017-07-30T09:26:08.000Z</time>
      </trkpt>
      <trkpt lat="47.54713" lon="6.75855">
        <ele>468.1</ele>
        <time>2017-07-30T09:26:09.000Z</time>
      </trkpt>
      <trkpt lat="47.54708" lon="6.75863">
        <ele>468</ele>
        <time>2017-07-30T09:26:10.000Z</time>
      </trkpt>
      <trkpt lat="47.54705" lon="6.75869">
        <ele>467.9</ele>
        <time>2017-07-30T09:26:11.000Z</time>
      </trkpt>
      <trkpt lat="47.54703" lon="6.75874">
        <ele>468</ele>
        <time>2017-07-30T09:26:12.000Z</time>
      </trkpt>
      <trkpt lat="47.547" lon="6.75879">
        <ele>468.2</ele>
        <time>2017-07-30T09:26:13.000Z</time>
      </trkpt>
      <trkpt lat="47.54699" lon="6.75885">
        <ele>467.9</ele>
        <time>2017-07-30T09:26:14.000Z</time>
      </trkpt>
      <trkpt lat="47.54697" lon="6.75892">
        <ele>467</ele>
        <time>2017-07-30T09:26:15.000Z</time>
      </trkpt>
      <trkpt lat="47.54694" lon="6.75896">
        <ele>466.6</ele>
        <time>2017-07-30T09:26:16.000Z</time>
      </trkpt>
      <trkpt lat="47.54692" lon="6.75901">
        <ele>465.6</ele>
        <time>2017-07-30T09:26:17.000Z</time>
      </trkpt>
      <trkpt lat="47.5469" lon="6.75908">
        <ele>464.8</ele>
        <time>2017-07-30T09:26:18.000Z</time>
      </trkpt>
      <trkpt lat="47.54689" lon="6.75913">
        <ele>464.1</ele>
        <time>2017-07-30T09:26:19.000Z</time>
      </trkpt>
      <trkpt lat="47.54687" lon="6.7592">
        <ele>464.1</ele>
        <time>2017-07-30T09:26:20.000Z</time>
      </trkpt>
      <trkpt lat="47.54685" lon="6.75928">
        <ele>463.8</ele>
        <time>2017-07-30T09:26:21.000Z</time>
      </trkpt>
      <trkpt lat="47.54682" lon="6.75935">
        <ele>462.7</ele>
        <time>2017-07-30T09:26:22.000Z</time>
      </trkpt>
      <trkpt lat="47.54682" lon="6.75941">
        <ele>462.5</ele>
        <time>2017-07-30T09:26:23.000Z</time>
      </trkpt>
      <trkpt lat="47.54682" lon="6.75948">
        <ele>461.7</ele>
        <time>2017-07-30T09:26:24.000Z</time>
      </trkpt>
      <trkpt lat="47.54679" lon="6.75966">
        <ele>459.8</ele>
        <time>2017-07-30T09:26:26.000Z</time>
      </trkpt>
      <trkpt lat="47.54677" lon="6.75975">
        <ele>458.9</ele>
        <time>2017-07-30T09:26:27.000Z</time>
      </trkpt>
      <trkpt lat="47.54677" lon="6.75985">
        <ele>458.4</ele>
        <time>2017-07-30T09:26:28.000Z</time>
      </trkpt>
      <trkpt lat="47.54676" lon="6.75993">
        <ele>457.4</ele>
        <time>2017-07-30T09:26:29.000Z</time>
      </trkpt>
      <trkpt lat="47.54676" lon="6.76001">
        <ele>456.1</ele>
        <time>2017-07-30T09:26:30.000Z</time>
      </trkpt>
      <trkpt lat="47.54676" lon="6.76009">
        <ele>455.6</ele>
        <time>2017-07-30T09:26:31.000Z</time>
      </trkpt>
      <trkpt lat="47.54677" lon="6.76017">
        <ele>455.4</ele>
        <time>2017-07-30T09:26:32.000Z</time>
      </trkpt>
      <trkpt lat="47.54677" lon="6.76025">
        <ele>454.6</ele>
        <time>2017-07-30T09:26:33.000Z</time>
      </trkpt>
      <trkpt lat="47.54677" lon="6.76034">
        <ele>455.1</ele>
        <time>2017-07-30T09:26:34.000Z</time>
      </trkpt>
      <trkpt lat="47.54677" lon="6.76047">
        <ele>455.7</ele>
        <time>2017-07-30T09:26:35.000Z</time>
      </trkpt>
      <trkpt lat="47.54676" lon="6.76059">
        <ele>456</ele>
        <time>2017-07-30T09:26:36.000Z</time>
      </trkpt>
      <trkpt lat="47.54675" lon="6.76072">
        <ele>456</ele>
        <time>2017-07-30T09:26:37.000Z</time>
      </trkpt>
      <trkpt lat="47.54674" lon="6.7608">
        <ele>455.7</ele>
        <time>2017-07-30T09:26:38.000Z</time>
      </trkpt>
      <trkpt lat="47.54674" lon="6.76089">
        <ele>455.8</ele>
        <time>2017-07-30T09:26:39.000Z</time>
      </trkpt>
      <trkpt lat="47.54672" lon="6.76099">
        <ele>455.9</ele>
        <time>2017-07-30T09:26:40.000Z</time>
      </trkpt>
      <trkpt lat="47.54671" lon="6.76105">
        <ele>455.7</ele>
        <time>2017-07-30T09:26:41.000Z</time>
      </trkpt>
      <trkpt lat="47.5467" lon="6.76111">
        <ele>455.6</ele>
        <time>2017-07-30T09:26:42.000Z</time>
      </trkpt>
      <trkpt lat="47.54669" lon="6.76116">
        <ele>456.6</ele>
        <time>2017-07-30T09:26:43.000Z</time>
      </trkpt>
      <trkpt lat="47.54669" lon="6.7612">
        <ele>456.6</ele>
        <time>2017-07-30T09:26:44.000Z</time>
      </trkpt>
      <trkpt lat="47.54669" lon="6.76124">
        <ele>456.6</ele>
        <time>2017-07-30T09:26:45.000Z</time>
      </trkpt>
      <trkpt lat="47.54667" lon="6.76129">
        <ele>456.7</ele>
        <time>2017-07-30T09:26:46.000Z</time>
      </trkpt>
      <trkpt lat="47.54666" lon="6.76136">
        <ele>456.7</ele>
        <time>2017-07-30T09:26:47.000Z</time>
      </trkpt>
      <trkpt lat="47.54667" lon="6.76143">
        <ele>456.8</ele>
        <time>2017-07-30T09:26:48.000Z</time>
      </trkpt>
      <trkpt lat="47.54669" lon="6.76147">
        <ele>456.9</ele>
        <time>2017-07-30T09:26:49.000Z</time>
      </trkpt>
      <trkpt lat="47.5467" lon="6.76151">
        <ele>456.9</ele>
        <time>2017-07-30T09:26:50.000Z</time>
      </trkpt>
      <trkpt lat="47.54671" lon="6.76154">
        <ele>456.9</ele>
        <time>2017-07-30T09:26:51.000Z</time>
      </trkpt>
      <trkpt lat="47.54671" lon="6.76158">
        <ele>456.9</ele>
        <time>2017-07-30T09:26:52.000Z</time>
      </trkpt>
      <trkpt lat="47.54673" lon="6.76162">
        <ele>457.2</ele>
        <time>2017-07-30T09:26:55.000Z</time>
      </trkpt>
      <trkpt lat="47.54674" lon="6.76166">
        <ele>457.3</ele>
        <time>2017-07-30T09:26:56.000Z</time>
      </trkpt>
      <trkpt lat="47.54673" lon="6.76171">
        <ele>457.4</ele>
        <time>2017-07-30T09:26:57.000Z</time>
      </trkpt>
      <trkpt lat="47.54671" lon="6.76175">
        <ele>459.4</ele>
        <time>2017-07-30T09:26:58.000Z</time>
      </trkpt>
      <trkpt lat="47.54668" lon="6.7618">
        <ele>461</ele>
        <time>2017-07-30T09:26:59.000Z</time>
      </trkpt>
      <trkpt lat="47.54666" lon="6.76184">
        <ele>461.1</ele>
        <time>2017-07-30T09:27:00.000Z</time>
      </trkpt>
      <trkpt lat="47.5466" lon="6.7619">
        <ele>462.5</ele>
        <time>2017-07-30T09:27:01.000Z</time>
      </trkpt>
      <trkpt lat="47.54657" lon="6.76192">
        <ele>462.6</ele>
        <time>2017-07-30T09:27:02.000Z</time>
      </trkpt>
      <trkpt lat="47.54655" lon="6.76195">
        <ele>462.6</ele>
        <time>2017-07-30T09:27:03.000Z</time>
      </trkpt>
      <trkpt lat="47.54653" lon="6.76198">
        <ele>462.6</ele>
        <time>2017-07-30T09:27:04.000Z</time>
      </trkpt>
      <trkpt lat="47.5465" lon="6.76199">
        <ele>462.9</ele>
        <time>2017-07-30T09:27:05.000Z</time>
      </trkpt>
      <trkpt lat="47.54647" lon="6.76198">
        <ele>463.3</ele>
        <time>2017-07-30T09:27:07.000Z</time>
      </trkpt>
      <trkpt lat="47.54645" lon="6.76197">
        <ele>463.6</ele>
        <time>2017-07-30T09:27:08.000Z</time>
      </trkpt>
      <trkpt lat="47.54641" lon="6.76194">
        <ele>463.9</ele>
        <time>2017-07-30T09:27:10.000Z</time>
      </trkpt>
      <trkpt lat="47.54637" lon="6.76195">
        <ele>464.1</ele>
        <time>2017-07-30T09:27:11.000Z</time>
      </trkpt>
      <trkpt lat="47.54634" lon="6.76195">
        <ele>464.4</ele>
        <time>2017-07-30T09:27:13.000Z</time>
      </trkpt>
      <trkpt lat="47.54632" lon="6.76194">
        <ele>464.5</ele>
        <time>2017-07-30T09:27:14.000Z</time>
      </trkpt>
      <trkpt lat="47.54631" lon="6.76194">
        <ele>464.6</ele>
        <time>2017-07-30T09:27:15.000Z</time>
      </trkpt>
      <trkpt lat="47.54627" lon="6.7619">
        <ele>464.7</ele>
        <time>2017-07-30T09:27:16.000Z</time>
      </trkpt>
      <trkpt lat="47.54623" lon="6.7619">
        <ele>465.2</ele>
        <time>2017-07-30T09:27:19.000Z</time>
      </trkpt>
      <trkpt lat="47.54622" lon="6.76189">
        <ele>465.4</ele>
        <time>2017-07-30T09:27:20.000Z</time>
      </trkpt>
      <trkpt lat="47.5462" lon="6.76186">
        <ele>465.6</ele>
        <time>2017-07-30T09:27:22.000Z</time>
      </trkpt>
      <trkpt lat="47.54617" lon="6.76184">
        <ele>465.8</ele>
        <time>2017-07-30T09:27:23.000Z</time>
      </trkpt>
      <trkpt lat="47.54614" lon="6.76179">
        <ele>465.8</ele>
        <time>2017-07-30T09:27:24.000Z</time>
      </trkpt>
      <trkpt lat="47.54609" lon="6.7617">
        <ele>465.9</ele>
        <time>2017-07-30T09:27:26.000Z</time>
      </trkpt>
      <trkpt lat="47.54606" lon="6.76163">
        <ele>466</ele>
        <time>2017-07-30T09:27:27.000Z</time>
      </trkpt>
      <trkpt lat="47.54603" lon="6.76157">
        <ele>466</ele>
        <time>2017-07-30T09:27:28.000Z</time>
      </trkpt>
      <trkpt lat="47.54601" lon="6.76152">
        <ele>465.9</ele>
        <time>2017-07-30T09:27:29.000Z</time>
      </trkpt>
      <trkpt lat="47.54599" lon="6.76147">
        <ele>465.9</ele>
        <time>2017-07-30T09:27:30.000Z</time>
      </trkpt>
      <trkpt lat="47.54597" lon="6.76143">
        <ele>465.8</ele>
        <time>2017-07-30T09:27:31.000Z</time>
      </trkpt>
      <trkpt lat="47.54595" lon="6.76139">
        <ele>465.7</ele>
        <time>2017-07-30T09:27:32.000Z</time>
      </trkpt>
      <trkpt lat="47.54593" lon="6.76136">
        <ele>465.6</ele>
        <time>2017-07-30T09:27:33.000Z</time>
      </trkpt>
      <trkpt lat="47.54592" lon="6.76133">
        <ele>465.5</ele>
        <time>2017-07-30T09:27:34.000Z</time>
      </trkpt>
      <trkpt lat="47.54591" lon="6.76128">
        <ele>465.5</ele>
        <time>2017-07-30T09:27:35.000Z</time>
      </trkpt>
      <trkpt lat="47.5459" lon="6.76125">
        <ele>465.3</ele>
        <time>2017-07-30T09:27:36.000Z</time>
      </trkpt>
      <trkpt lat="47.54588" lon="6.76121">
        <ele>465.2</ele>
        <time>2017-07-30T09:27:37.000Z</time>
      </trkpt>
      <trkpt lat="47.54587" lon="6.76116">
        <ele>465.2</ele>
        <time>2017-07-30T09:27:38.000Z</time>
      </trkpt>
      <trkpt lat="47.54587" lon="6.76112">
        <ele>465.1</ele>
        <time>2017-07-30T09:27:39.000Z</time>
      </trkpt>
      <trkpt lat="47.54586" lon="6.76109">
        <ele>465</ele>
        <time>2017-07-30T09:27:40.000Z</time>
      </trkpt>
      <trkpt lat="47.54584" lon="6.76106">
        <ele>464.9</ele>
        <time>2017-07-30T09:27:41.000Z</time>
      </trkpt>
      <trkpt lat="47.54583" lon="6.76103">
        <ele>464.8</ele>
        <time>2017-07-30T09:27:42.000Z</time>
      </trkpt>
      <trkpt lat="47.54582" lon="6.761">
        <ele>464.7</ele>
        <time>2017-07-30T09:27:43.000Z</time>
      </trkpt>
      <trkpt lat="47.54581" lon="6.76097">
        <ele>464.7</ele>
        <time>2017-07-30T09:27:44.000Z</time>
      </trkpt>
      <trkpt lat="47.5458" lon="6.76092">
        <ele>464.6</ele>
        <time>2017-07-30T09:27:46.000Z</time>
      </trkpt>
      <trkpt lat="47.54579" lon="6.76088">
        <ele>464.5</ele>
        <time>2017-07-30T09:27:47.000Z</time>
      </trkpt>
      <trkpt lat="47.54578" lon="6.76082">
        <ele>464.4</ele>
        <time>2017-07-30T09:27:49.000Z</time>
      </trkpt>
      <trkpt lat="47.54578" lon="6.76078">
        <ele>464.3</ele>
        <time>2017-07-30T09:27:50.000Z</time>
      </trkpt>
      <trkpt lat="47.54575" lon="6.76074">
        <ele>464.2</ele>
        <time>2017-07-30T09:27:52.000Z</time>
      </trkpt>
      <trkpt lat="47.54574" lon="6.76071">
        <ele>464.1</ele>
        <time>2017-07-30T09:27:53.000Z</time>
      </trkpt>
      <trkpt lat="47.54573" lon="6.76068">
        <ele>464.1</ele>
        <time>2017-07-30T09:27:54.000Z</time>
      </trkpt>
      <trkpt lat="47.54572" lon="6.76065">
        <ele>464.1</ele>
        <time>2017-07-30T09:27:55.000Z</time>
      </trkpt>
      <trkpt lat="47.5457" lon="6.76063">
        <ele>464</ele>
        <time>2017-07-30T09:27:56.000Z</time>
      </trkpt>
      <trkpt lat="47.54568" lon="6.7606">
        <ele>464</ele>
        <time>2017-07-30T09:27:57.000Z</time>
      </trkpt>
      <trkpt lat="47.54567" lon="6.76057">
        <ele>464.1</ele>
        <time>2017-07-30T09:27:58.000Z</time>
      </trkpt>
      <trkpt lat="47.54566" lon="6.76054">
        <ele>464.1</ele>
        <time>2017-07-30T09:27:59.000Z</time>
      </trkpt>
      <trkpt lat="47.54564" lon="6.76048">
        <ele>464.1</ele>
        <time>2017-07-30T09:28:01.000Z</time>
      </trkpt>
      <trkpt lat="47.54563" lon="6.76046">
        <ele>464</ele>
        <time>2017-07-30T09:28:02.000Z</time>
      </trkpt>
      <trkpt lat="47.54561" lon="6.7604">
        <ele>463.9</ele>
        <time>2017-07-30T09:28:04.000Z</time>
      </trkpt>
      <trkpt lat="47.5456" lon="6.76038">
        <ele>463.8</ele>
        <time>2017-07-30T09:28:05.000Z</time>
      </trkpt>
      <trkpt lat="47.54557" lon="6.76033">
        <ele>463.8</ele>
        <time>2017-07-30T09:28:07.000Z</time>
      </trkpt>
      <trkpt lat="47.54556" lon="6.7603">
        <ele>463.9</ele>
        <time>2017-07-30T09:28:08.000Z</time>
      </trkpt>
      <trkpt lat="47.54554" lon="6.76027">
        <ele>463.9</ele>
        <time>2017-07-30T09:28:09.000Z</time>
      </trkpt>
      <trkpt lat="47.54553" lon="6.76023">
        <ele>463.9</ele>
        <time>2017-07-30T09:28:10.000Z</time>
      </trkpt>
      <trkpt lat="47.54552" lon="6.7602">
        <ele>464</ele>
        <time>2017-07-30T09:28:11.000Z</time>
      </trkpt>
      <trkpt lat="47.54551" lon="6.76017">
        <ele>464</ele>
        <time>2017-07-30T09:28:12.000Z</time>
      </trkpt>
      <trkpt lat="47.5455" lon="6.76015">
        <ele>464.1</ele>
        <time>2017-07-30T09:28:13.000Z</time>
      </trkpt>
      <trkpt lat="47.54548" lon="6.76012">
        <ele>464.2</ele>
        <time>2017-07-30T09:28:14.000Z</time>
      </trkpt>
      <trkpt lat="47.54546" lon="6.76007">
        <ele>464.2</ele>
        <time>2017-07-30T09:28:15.000Z</time>
      </trkpt>
      <trkpt lat="47.54545" lon="6.76004">
        <ele>464.4</ele>
        <time>2017-07-30T09:28:16.000Z</time>
      </trkpt>
      <trkpt lat="47.54543" lon="6.76001">
        <ele>464.5</ele>
        <time>2017-07-30T09:28:17.000Z</time>
      </trkpt>
      <trkpt lat="47.54542" lon="6.75998">
        <ele>464.6</ele>
        <time>2017-07-30T09:28:18.000Z</time>
      </trkpt>
      <trkpt lat="47.54541" lon="6.75994">
        <ele>464.8</ele>
        <time>2017-07-30T09:28:19.000Z</time>
      </trkpt>
      <trkpt lat="47.54539" lon="6.7599">
        <ele>465</ele>
        <time>2017-07-30T09:28:20.000Z</time>
      </trkpt>
      <trkpt lat="47.54538" lon="6.75987">
        <ele>465.1</ele>
        <time>2017-07-30T09:28:21.000Z</time>
      </trkpt>
      <trkpt lat="47.54537" lon="6.75982">
        <ele>465.3</ele>
        <time>2017-07-30T09:28:22.000Z</time>
      </trkpt>
      <trkpt lat="47.54535" lon="6.75977">
        <ele>465.4</ele>
        <time>2017-07-30T09:28:23.000Z</time>
      </trkpt>
      <trkpt lat="47.54533" lon="6.75972">
        <ele>465.5</ele>
        <time>2017-07-30T09:28:24.000Z</time>
      </trkpt>
      <trkpt lat="47.54531" lon="6.75967">
        <ele>465.5</ele>
        <time>2017-07-30T09:28:25.000Z</time>
      </trkpt>
      <trkpt lat="47.5453" lon="6.75964">
        <ele>465.6</ele>
        <time>2017-07-30T09:28:26.000Z</time>
      </trkpt>
      <trkpt lat="47.54527" lon="6.75957">
        <ele>465.7</ele>
        <time>2017-07-30T09:28:27.000Z</time>
      </trkpt>
      <trkpt lat="47.54525" lon="6.75954">
        <ele>465.7</ele>
        <time>2017-07-30T09:28:28.000Z</time>
      </trkpt>
      <trkpt lat="47.54523" lon="6.75949">
        <ele>465.8</ele>
        <time>2017-07-30T09:28:29.000Z</time>
      </trkpt>
      <trkpt lat="47.54521" lon="6.75945">
        <ele>465.9</ele>
        <time>2017-07-30T09:28:30.000Z</time>
      </trkpt>
      <trkpt lat="47.54519" lon="6.75941">
        <ele>466.1</ele>
        <time>2017-07-30T09:28:31.000Z</time>
      </trkpt>
      <trkpt lat="47.54518" lon="6.75937">
        <ele>466.1</ele>
        <time>2017-07-30T09:28:32.000Z</time>
      </trkpt>
      <trkpt lat="47.54517" lon="6.75932">
        <ele>466.2</ele>
        <time>2017-07-30T09:28:33.000Z</time>
      </trkpt>
      <trkpt lat="47.54515" lon="6.75928">
        <ele>466.4</ele>
        <time>2017-07-30T09:28:34.000Z</time>
      </trkpt>
      <trkpt lat="47.54514" lon="6.75924">
        <ele>466.4</ele>
        <time>2017-07-30T09:28:35.000Z</time>
      </trkpt>
      <trkpt lat="47.54513" lon="6.75919">
        <ele>466.5</ele>
        <time>2017-07-30T09:28:36.000Z</time>
      </trkpt>
      <trkpt lat="47.54512" lon="6.75916">
        <ele>466.7</ele>
        <time>2017-07-30T09:28:37.000Z</time>
      </trkpt>
      <trkpt lat="47.54511" lon="6.75912">
        <ele>466.8</ele>
        <time>2017-07-30T09:28:38.000Z</time>
      </trkpt>
      <trkpt lat="47.54509" lon="6.75909">
        <ele>466.9</ele>
        <time>2017-07-30T09:28:39.000Z</time>
      </trkpt>
      <trkpt lat="47.54508" lon="6.75906">
        <ele>467.1</ele>
        <time>2017-07-30T09:28:40.000Z</time>
      </trkpt>
      <trkpt lat="47.54506" lon="6.75902">
        <ele>467.2</ele>
        <time>2017-07-30T09:28:41.000Z</time>
      </trkpt>
      <trkpt lat="47.54505" lon="6.75898">
        <ele>467.3</ele>
        <time>2017-07-30T09:28:42.000Z</time>
      </trkpt>
      <trkpt lat="47.54503" lon="6.75895">
        <ele>467.5</ele>
        <time>2017-07-30T09:28:43.000Z</time>
      </trkpt>
      <trkpt lat="47.54502" lon="6.75892">
        <ele>467.6</ele>
        <time>2017-07-30T09:28:44.000Z</time>
      </trkpt>
      <trkpt lat="47.545" lon="6.75888">
        <ele>467.7</ele>
        <time>2017-07-30T09:28:45.000Z</time>
      </trkpt>
      <trkpt lat="47.54499" lon="6.75883">
        <ele>467.9</ele>
        <time>2017-07-30T09:28:46.000Z</time>
      </trkpt>
      <trkpt lat="47.54498" lon="6.75881">
        <ele>468</ele>
        <time>2017-07-30T09:28:47.000Z</time>
      </trkpt>
      <trkpt lat="47.54497" lon="6.75878">
        <ele>468.2</ele>
        <time>2017-07-30T09:28:48.000Z</time>
      </trkpt>
      <trkpt lat="47.54495" lon="6.75874">
        <ele>468.3</ele>
        <time>2017-07-30T09:28:49.000Z</time>
      </trkpt>
      <trkpt lat="47.54494" lon="6.75871">
        <ele>468.3</ele>
        <time>2017-07-30T09:28:50.000Z</time>
      </trkpt>
      <trkpt lat="47.54492" lon="6.75867">
        <ele>468.2</ele>
        <time>2017-07-30T09:28:51.000Z</time>
      </trkpt>
      <trkpt lat="47.54491" lon="6.75863">
        <ele>468.3</ele>
        <time>2017-07-30T09:28:52.000Z</time>
      </trkpt>
      <trkpt lat="47.54489" lon="6.7586">
        <ele>468.4</ele>
        <time>2017-07-30T09:28:53.000Z</time>
      </trkpt>
      <trkpt lat="47.54488" lon="6.75855">
        <ele>468.6</ele>
        <time>2017-07-30T09:28:54.000Z</time>
      </trkpt>
      <trkpt lat="47.54486" lon="6.75851">
        <ele>468.7</ele>
        <time>2017-07-30T09:28:55.000Z</time>
      </trkpt>
      <trkpt lat="47.54485" lon="6.75848">
        <ele>468.9</ele>
        <time>2017-07-30T09:28:56.000Z</time>
      </trkpt>
      <trkpt lat="47.54484" lon="6.75845">
        <ele>469</ele>
        <time>2017-07-30T09:28:57.000Z</time>
      </trkpt>
      <trkpt lat="47.54482" lon="6.75841">
        <ele>469.1</ele>
        <time>2017-07-30T09:28:58.000Z</time>
      </trkpt>
      <trkpt lat="47.54481" lon="6.75838">
        <ele>469.1</ele>
        <time>2017-07-30T09:28:59.000Z</time>
      </trkpt>
      <trkpt lat="47.5448" lon="6.75835">
        <ele>469.2</ele>
        <time>2017-07-30T09:29:00.000Z</time>
      </trkpt>
      <trkpt lat="47.54479" lon="6.75831">
        <ele>469.3</ele>
        <time>2017-07-30T09:29:01.000Z</time>
      </trkpt>
      <trkpt lat="47.54478" lon="6.75828">
        <ele>469.4</ele>
        <time>2017-07-30T09:29:02.000Z</time>
      </trkpt>
      <trkpt lat="47.54477" lon="6.75824">
        <ele>469.5</ele>
        <time>2017-07-30T09:29:03.000Z</time>
      </trkpt>
      <trkpt lat="47.54475" lon="6.75819">
        <ele>469.7</ele>
        <time>2017-07-30T09:29:05.000Z</time>
      </trkpt>
      <trkpt lat="47.54474" lon="6.75816">
        <ele>469.8</ele>
        <time>2017-07-30T09:29:06.000Z</time>
      </trkpt>
      <trkpt lat="47.54473" lon="6.7581">
        <ele>470.2</ele>
        <time>2017-07-30T09:29:08.000Z</time>
      </trkpt>
      <trkpt lat="47.54472" lon="6.75807">
        <ele>470.4</ele>
        <time>2017-07-30T09:29:09.000Z</time>
      </trkpt>
      <trkpt lat="47.54471" lon="6.75801">
        <ele>470.7</ele>
        <time>2017-07-30T09:29:11.000Z</time>
      </trkpt>
      <trkpt lat="47.5447" lon="6.75798">
        <ele>470.8</ele>
        <time>2017-07-30T09:29:12.000Z</time>
      </trkpt>
      <trkpt lat="47.54468" lon="6.75794">
        <ele>471.1</ele>
        <time>2017-07-30T09:29:14.000Z</time>
      </trkpt>
      <trkpt lat="47.54467" lon="6.75791">
        <ele>471.1</ele>
        <time>2017-07-30T09:29:15.000Z</time>
      </trkpt>
      <trkpt lat="47.54466" lon="6.75788">
        <ele>471.1</ele>
        <time>2017-07-30T09:29:16.000Z</time>
      </trkpt>
      <trkpt lat="47.54465" lon="6.75785">
        <ele>471.2</ele>
        <time>2017-07-30T09:29:17.000Z</time>
      </trkpt>
      <trkpt lat="47.54464" lon="6.75782">
        <ele>471.2</ele>
        <time>2017-07-30T09:29:18.000Z</time>
      </trkpt>
      <trkpt lat="47.54462" lon="6.75779">
        <ele>471.3</ele>
        <time>2017-07-30T09:29:19.000Z</time>
      </trkpt>
      <trkpt lat="47.5446" lon="6.75776">
        <ele>471.4</ele>
        <time>2017-07-30T09:29:20.000Z</time>
      </trkpt>
      <trkpt lat="47.54459" lon="6.75772">
        <ele>471.6</ele>
        <time>2017-07-30T09:29:21.000Z</time>
      </trkpt>
      <trkpt lat="47.54458" lon="6.75768">
        <ele>471.8</ele>
        <time>2017-07-30T09:29:22.000Z</time>
      </trkpt>
      <trkpt lat="47.54457" lon="6.75765">
        <ele>472</ele>
        <time>2017-07-30T09:29:23.000Z</time>
      </trkpt>
      <trkpt lat="47.54455" lon="6.7576">
        <ele>472.5</ele>
        <time>2017-07-30T09:29:25.000Z</time>
      </trkpt>
      <trkpt lat="47.54454" lon="6.75758">
        <ele>472.7</ele>
        <time>2017-07-30T09:29:26.000Z</time>
      </trkpt>
      <trkpt lat="47.54453" lon="6.75756">
        <ele>473.1</ele>
        <time>2017-07-30T09:29:27.000Z</time>
      </trkpt>
      <trkpt lat="47.5445" lon="6.75753">
        <ele>473.3</ele>
        <time>2017-07-30T09:29:28.000Z</time>
      </trkpt>
      <trkpt lat="47.54446" lon="6.75751">
        <ele>474.1</ele>
        <time>2017-07-30T09:29:31.000Z</time>
      </trkpt>
      <trkpt lat="47.54444" lon="6.7575">
        <ele>474.3</ele>
        <time>2017-07-30T09:29:32.000Z</time>
      </trkpt>
      <trkpt lat="47.54441" lon="6.75749">
        <ele>474.8</ele>
        <time>2017-07-30T09:29:34.000Z</time>
      </trkpt>
      <trkpt lat="47.54439" lon="6.75749">
        <ele>475</ele>
        <time>2017-07-30T09:29:35.000Z</time>
      </trkpt>
      <trkpt lat="47.54435" lon="6.75748">
        <ele>475.4</ele>
        <time>2017-07-30T09:29:37.000Z</time>
      </trkpt>
      <trkpt lat="47.54434" lon="6.75749">
        <ele>475.5</ele>
        <time>2017-07-30T09:29:38.000Z</time>
      </trkpt>
      <trkpt lat="47.54431" lon="6.75749">
        <ele>475.7</ele>
        <time>2017-07-30T09:29:39.000Z</time>
      </trkpt>
      <trkpt lat="47.54429" lon="6.7575">
        <ele>475.8</ele>
        <time>2017-07-30T09:29:40.000Z</time>
      </trkpt>
      <trkpt lat="47.54426" lon="6.75752">
        <ele>476</ele>
        <time>2017-07-30T09:29:41.000Z</time>
      </trkpt>
      <trkpt lat="47.54423" lon="6.75752">
        <ele>476.2</ele>
        <time>2017-07-30T09:29:42.000Z</time>
      </trkpt>
      <trkpt lat="47.5442" lon="6.75751">
        <ele>476.3</ele>
        <time>2017-07-30T09:29:43.000Z</time>
      </trkpt>
      <trkpt lat="47.54417" lon="6.75753">
        <ele>476.3</ele>
        <time>2017-07-30T09:29:44.000Z</time>
      </trkpt>
      <trkpt lat="47.54414" lon="6.75754">
        <ele>476.4</ele>
        <time>2017-07-30T09:29:45.000Z</time>
      </trkpt>
      <trkpt lat="47.54411" lon="6.75755">
        <ele>476.4</ele>
        <time>2017-07-30T09:29:46.000Z</time>
      </trkpt>
      <trkpt lat="47.54408" lon="6.75754">
        <ele>476.5</ele>
        <time>2017-07-30T09:29:47.000Z</time>
      </trkpt>
      <trkpt lat="47.54405" lon="6.75755">
        <ele>476.6</ele>
        <time>2017-07-30T09:29:48.000Z</time>
      </trkpt>
      <trkpt lat="47.54402" lon="6.75755">
        <ele>476.6</ele>
        <time>2017-07-30T09:29:49.000Z</time>
      </trkpt>
      <trkpt lat="47.54397" lon="6.75757">
        <ele>476.6</ele>
        <time>2017-07-30T09:29:50.000Z</time>
      </trkpt>
      <trkpt lat="47.54394" lon="6.75757">
        <ele>476.6</ele>
        <time>2017-07-30T09:29:51.000Z</time>
      </trkpt>
      <trkpt lat="47.5439" lon="6.75758">
        <ele>476.6</ele>
        <time>2017-07-30T09:29:52.000Z</time>
      </trkpt>
      <trkpt lat="47.54386" lon="6.75759">
        <ele>476.6</ele>
        <time>2017-07-30T09:29:53.000Z</time>
      </trkpt>
      <trkpt lat="47.54383" lon="6.75761">
        <ele>476.7</ele>
        <time>2017-07-30T09:29:54.000Z</time>
      </trkpt>
      <trkpt lat="47.5438" lon="6.75763">
        <ele>476.7</ele>
        <time>2017-07-30T09:29:55.000Z</time>
      </trkpt>
      <trkpt lat="47.54376" lon="6.75765">
        <ele>477</ele>
        <time>2017-07-30T09:29:56.000Z</time>
      </trkpt>
      <trkpt lat="47.54371" lon="6.75767">
        <ele>477.7</ele>
        <time>2017-07-30T09:29:57.000Z</time>
      </trkpt>
      <trkpt lat="47.54367" lon="6.75769">
        <ele>477.8</ele>
        <time>2017-07-30T09:29:58.000Z</time>
      </trkpt>
      <trkpt lat="47.5436" lon="6.75772">
        <ele>477.8</ele>
        <time>2017-07-30T09:29:59.000Z</time>
      </trkpt>
      <trkpt lat="47.54355" lon="6.75778">
        <ele>478</ele>
        <time>2017-07-30T09:30:00.000Z</time>
      </trkpt>
      <trkpt lat="47.54351" lon="6.75783">
        <ele>479.4</ele>
        <time>2017-07-30T09:30:01.000Z</time>
      </trkpt>
      <trkpt lat="47.54348" lon="6.75786">
        <ele>479.6</ele>
        <time>2017-07-30T09:30:02.000Z</time>
      </trkpt>
      <trkpt lat="47.54345" lon="6.75788">
        <ele>479.6</ele>
        <time>2017-07-30T09:30:03.000Z</time>
      </trkpt>
      <trkpt lat="47.54342" lon="6.7579">
        <ele>479.7</ele>
        <time>2017-07-30T09:30:04.000Z</time>
      </trkpt>
      <trkpt lat="47.54338" lon="6.75792">
        <ele>479.7</ele>
        <time>2017-07-30T09:30:05.000Z</time>
      </trkpt>
      <trkpt lat="47.54334" lon="6.75795">
        <ele>479.8</ele>
        <time>2017-07-30T09:30:06.000Z</time>
      </trkpt>
      <trkpt lat="47.54327" lon="6.75798">
        <ele>479.8</ele>
        <time>2017-07-30T09:30:07.000Z</time>
      </trkpt>
      <trkpt lat="47.54322" lon="6.758">
        <ele>479.8</ele>
        <time>2017-07-30T09:30:08.000Z</time>
      </trkpt>
      <trkpt lat="47.54319" lon="6.75801">
        <ele>479.8</ele>
        <time>2017-07-30T09:30:09.000Z</time>
      </trkpt>
      <trkpt lat="47.54315" lon="6.75802">
        <ele>479.8</ele>
        <time>2017-07-30T09:30:10.000Z</time>
      </trkpt>
      <trkpt lat="47.54313" lon="6.75804">
        <ele>479.9</ele>
        <time>2017-07-30T09:30:11.000Z</time>
      </trkpt>
      <trkpt lat="47.54313" lon="6.75808">
        <ele>480</ele>
        <time>2017-07-30T09:30:12.000Z</time>
      </trkpt>
      <trkpt lat="47.5431" lon="6.75813">
        <ele>480.2</ele>
        <time>2017-07-30T09:30:14.000Z</time>
      </trkpt>
      <trkpt lat="47.54308" lon="6.75815">
        <ele>480.4</ele>
        <time>2017-07-30T09:30:15.000Z</time>
      </trkpt>
      <trkpt lat="47.54306" lon="6.75818">
        <ele>480.6</ele>
        <time>2017-07-30T09:30:16.000Z</time>
      </trkpt>
      <trkpt lat="47.54304" lon="6.7582">
        <ele>480.7</ele>
        <time>2017-07-30T09:30:17.000Z</time>
      </trkpt>
      <trkpt lat="47.54303" lon="6.75823">
        <ele>480.8</ele>
        <time>2017-07-30T09:30:18.000Z</time>
      </trkpt>
      <trkpt lat="47.543" lon="6.75826">
        <ele>480.9</ele>
        <time>2017-07-30T09:30:19.000Z</time>
      </trkpt>
      <trkpt lat="47.54296" lon="6.75829">
        <ele>481.1</ele>
        <time>2017-07-30T09:30:20.000Z</time>
      </trkpt>
      <trkpt lat="47.5429" lon="6.75832">
        <ele>481.2</ele>
        <time>2017-07-30T09:30:21.000Z</time>
      </trkpt>
      <trkpt lat="47.54288" lon="6.75834">
        <ele>481.3</ele>
        <time>2017-07-30T09:30:22.000Z</time>
      </trkpt>
      <trkpt lat="47.54285" lon="6.75836">
        <ele>481.4</ele>
        <time>2017-07-30T09:30:23.000Z</time>
      </trkpt>
      <trkpt lat="47.54283" lon="6.75838">
        <ele>481.5</ele>
        <time>2017-07-30T09:30:24.000Z</time>
      </trkpt>
      <trkpt lat="47.54281" lon="6.7584">
        <ele>481.5</ele>
        <time>2017-07-30T09:30:25.000Z</time>
      </trkpt>
      <trkpt lat="47.54277" lon="6.75841">
        <ele>481.6</ele>
        <time>2017-07-30T09:30:27.000Z</time>
      </trkpt>
      <trkpt lat="47.54274" lon="6.75841">
        <ele>481.7</ele>
        <time>2017-07-30T09:30:28.000Z</time>
      </trkpt>
      <trkpt lat="47.54271" lon="6.75841">
        <ele>481.7</ele>
        <time>2017-07-30T09:30:29.000Z</time>
      </trkpt>
      <trkpt lat="47.54269" lon="6.75842">
        <ele>481.8</ele>
        <time>2017-07-30T09:30:30.000Z</time>
      </trkpt>
      <trkpt lat="47.54266" lon="6.75843">
        <ele>481.8</ele>
        <time>2017-07-30T09:30:31.000Z</time>
      </trkpt>
      <trkpt lat="47.54263" lon="6.75845">
        <ele>481.8</ele>
        <time>2017-07-30T09:30:32.000Z</time>
      </trkpt>
      <trkpt lat="47.54261" lon="6.75846">
        <ele>481.8</ele>
        <time>2017-07-30T09:30:33.000Z</time>
      </trkpt>
      <trkpt lat="47.54259" lon="6.75847">
        <ele>481.8</ele>
        <time>2017-07-30T09:30:34.000Z</time>
      </trkpt>
      <trkpt lat="47.54256" lon="6.75848">
        <ele>481.8</ele>
        <time>2017-07-30T09:30:35.000Z</time>
      </trkpt>
      <trkpt lat="47.54252" lon="6.7585">
        <ele>481.8</ele>
        <time>2017-07-30T09:30:36.000Z</time>
      </trkpt>
      <trkpt lat="47.54249" lon="6.75851">
        <ele>481.8</ele>
        <time>2017-07-30T09:30:37.000Z</time>
      </trkpt>
      <trkpt lat="47.54247" lon="6.75851">
        <ele>481.9</ele>
        <time>2017-07-30T09:30:38.000Z</time>
      </trkpt>
      <trkpt lat="47.54244" lon="6.75852">
        <ele>482</ele>
        <time>2017-07-30T09:30:39.000Z</time>
      </trkpt>
      <trkpt lat="47.54241" lon="6.75853">
        <ele>482.1</ele>
        <time>2017-07-30T09:30:40.000Z</time>
      </trkpt>
      <trkpt lat="47.54237" lon="6.75854">
        <ele>482.2</ele>
        <time>2017-07-30T09:30:41.000Z</time>
      </trkpt>
      <trkpt lat="47.54235" lon="6.75854">
        <ele>482.4</ele>
        <time>2017-07-30T09:30:42.000Z</time>
      </trkpt>
      <trkpt lat="47.54231" lon="6.75854">
        <ele>482.5</ele>
        <time>2017-07-30T09:30:43.000Z</time>
      </trkpt>
      <trkpt lat="47.54229" lon="6.75853">
        <ele>482.7</ele>
        <time>2017-07-30T09:30:44.000Z</time>
      </trkpt>
      <trkpt lat="47.54227" lon="6.75854">
        <ele>482.8</ele>
        <time>2017-07-30T09:30:45.000Z</time>
      </trkpt>
      <trkpt lat="47.54224" lon="6.75854">
        <ele>483.1</ele>
        <time>2017-07-30T09:30:46.000Z</time>
      </trkpt>
      <trkpt lat="47.54221" lon="6.75853">
        <ele>483.3</ele>
        <time>2017-07-30T09:30:47.000Z</time>
      </trkpt>
      <trkpt lat="47.54218" lon="6.75852">
        <ele>483.4</ele>
        <time>2017-07-30T09:30:48.000Z</time>
      </trkpt>
      <trkpt lat="47.54215" lon="6.75852">
        <ele>483.6</ele>
        <time>2017-07-30T09:30:49.000Z</time>
      </trkpt>
      <trkpt lat="47.54212" lon="6.75852">
        <ele>483.8</ele>
        <time>2017-07-30T09:30:50.000Z</time>
      </trkpt>
      <trkpt lat="47.54209" lon="6.75851">
        <ele>484</ele>
        <time>2017-07-30T09:30:51.000Z</time>
      </trkpt>
      <trkpt lat="47.54205" lon="6.75851">
        <ele>484.1</ele>
        <time>2017-07-30T09:30:52.000Z</time>
      </trkpt>
      <trkpt lat="47.54203" lon="6.75851">
        <ele>484.2</ele>
        <time>2017-07-30T09:30:53.000Z</time>
      </trkpt>
      <trkpt lat="47.542" lon="6.75851">
        <ele>484.3</ele>
        <time>2017-07-30T09:30:54.000Z</time>
      </trkpt>
      <trkpt lat="47.54197" lon="6.7585">
        <ele>484.3</ele>
        <time>2017-07-30T09:30:55.000Z</time>
      </trkpt>
      <trkpt lat="47.54194" lon="6.75849">
        <ele>484.3</ele>
        <time>2017-07-30T09:30:56.000Z</time>
      </trkpt>
      <trkpt lat="47.54191" lon="6.75849">
        <ele>484.5</ele>
        <time>2017-07-30T09:30:57.000Z</time>
      </trkpt>
      <trkpt lat="47.54188" lon="6.75849">
        <ele>484.5</ele>
        <time>2017-07-30T09:30:58.000Z</time>
      </trkpt>
      <trkpt lat="47.54185" lon="6.75848">
        <ele>484.6</ele>
        <time>2017-07-30T09:30:59.000Z</time>
      </trkpt>
      <trkpt lat="47.54181" lon="6.75847">
        <ele>484.6</ele>
        <time>2017-07-30T09:31:00.000Z</time>
      </trkpt>
      <trkpt lat="47.54178" lon="6.75847">
        <ele>484.6</ele>
        <time>2017-07-30T09:31:01.000Z</time>
      </trkpt>
      <trkpt lat="47.54174" lon="6.75845">
        <ele>484.6</ele>
        <time>2017-07-30T09:31:02.000Z</time>
      </trkpt>
      <trkpt lat="47.5417" lon="6.75842">
        <ele>484.5</ele>
        <time>2017-07-30T09:31:03.000Z</time>
      </trkpt>
      <trkpt lat="47.54167" lon="6.75838">
        <ele>484.5</ele>
        <time>2017-07-30T09:31:04.000Z</time>
      </trkpt>
      <trkpt lat="47.54165" lon="6.75832">
        <ele>484.4</ele>
        <time>2017-07-30T09:31:05.000Z</time>
      </trkpt>
      <trkpt lat="47.54163" lon="6.75828">
        <ele>484.3</ele>
        <time>2017-07-30T09:31:06.000Z</time>
      </trkpt>
      <trkpt lat="47.54161" lon="6.75824">
        <ele>484.2</ele>
        <time>2017-07-30T09:31:07.000Z</time>
      </trkpt>
      <trkpt lat="47.54158" lon="6.7582">
        <ele>484.1</ele>
        <time>2017-07-30T09:31:08.000Z</time>
      </trkpt>
      <trkpt lat="47.54156" lon="6.75817">
        <ele>484</ele>
        <time>2017-07-30T09:31:09.000Z</time>
      </trkpt>
      <trkpt lat="47.54155" lon="6.75814">
        <ele>483.9</ele>
        <time>2017-07-30T09:31:10.000Z</time>
      </trkpt>
      <trkpt lat="47.54152" lon="6.75809">
        <ele>483.8</ele>
        <time>2017-07-30T09:31:11.000Z</time>
      </trkpt>
      <trkpt lat="47.5415" lon="6.75805">
        <ele>483.6</ele>
        <time>2017-07-30T09:31:12.000Z</time>
      </trkpt>
      <trkpt lat="47.54148" lon="6.758">
        <ele>483.5</ele>
        <time>2017-07-30T09:31:13.000Z</time>
      </trkpt>
      <trkpt lat="47.54145" lon="6.75796">
        <ele>483.3</ele>
        <time>2017-07-30T09:31:14.000Z</time>
      </trkpt>
      <trkpt lat="47.54144" lon="6.75792">
        <ele>483.2</ele>
        <time>2017-07-30T09:31:15.000Z</time>
      </trkpt>
      <trkpt lat="47.54141" lon="6.75788">
        <ele>483.1</ele>
        <time>2017-07-30T09:31:16.000Z</time>
      </trkpt>
      <trkpt lat="47.54139" lon="6.75784">
        <ele>482.9</ele>
        <time>2017-07-30T09:31:17.000Z</time>
      </trkpt>
      <trkpt lat="47.54137" lon="6.75781">
        <ele>482.9</ele>
        <time>2017-07-30T09:31:18.000Z</time>
      </trkpt>
      <trkpt lat="47.54136" lon="6.75776">
        <ele>482.8</ele>
        <time>2017-07-30T09:31:19.000Z</time>
      </trkpt>
      <trkpt lat="47.54134" lon="6.7577">
        <ele>482.8</ele>
        <time>2017-07-30T09:31:20.000Z</time>
      </trkpt>
      <trkpt lat="47.54132" lon="6.75765">
        <ele>482.7</ele>
        <time>2017-07-30T09:31:21.000Z</time>
      </trkpt>
      <trkpt lat="47.5413" lon="6.7576">
        <ele>482.7</ele>
        <time>2017-07-30T09:31:22.000Z</time>
      </trkpt>
      <trkpt lat="47.54128" lon="6.75755">
        <ele>482.7</ele>
        <time>2017-07-30T09:31:23.000Z</time>
      </trkpt>
      <trkpt lat="47.54127" lon="6.7575">
        <ele>482.7</ele>
        <time>2017-07-30T09:31:24.000Z</time>
      </trkpt>
      <trkpt lat="47.54125" lon="6.75745">
        <ele>482.7</ele>
        <time>2017-07-30T09:31:25.000Z</time>
      </trkpt>
      <trkpt lat="47.54124" lon="6.75741">
        <ele>482.7</ele>
        <time>2017-07-30T09:31:26.000Z</time>
      </trkpt>
      <trkpt lat="47.54122" lon="6.75737">
        <ele>482.7</ele>
        <time>2017-07-30T09:31:27.000Z</time>
      </trkpt>
      <trkpt lat="47.54121" lon="6.75733">
        <ele>482.7</ele>
        <time>2017-07-30T09:31:28.000Z</time>
      </trkpt>
      <trkpt lat="47.54119" lon="6.75729">
        <ele>482.7</ele>
        <time>2017-07-30T09:31:29.000Z</time>
      </trkpt>
      <trkpt lat="47.54117" lon="6.75724">
        <ele>482.6</ele>
        <time>2017-07-30T09:31:30.000Z</time>
      </trkpt>
      <trkpt lat="47.54115" lon="6.75719">
        <ele>482.5</ele>
        <time>2017-07-30T09:31:31.000Z</time>
      </trkpt>
      <trkpt lat="47.54114" lon="6.75714">
        <ele>482.4</ele>
        <time>2017-07-30T09:31:32.000Z</time>
      </trkpt>
      <trkpt lat="47.54112" lon="6.75709">
        <ele>482.3</ele>
        <time>2017-07-30T09:31:33.000Z</time>
      </trkpt>
      <trkpt lat="47.54111" lon="6.75705">
        <ele>482.2</ele>
        <time>2017-07-30T09:31:34.000Z</time>
      </trkpt>
      <trkpt lat="47.54109" lon="6.757">
        <ele>482.1</ele>
        <time>2017-07-30T09:31:35.000Z</time>
      </trkpt>
      <trkpt lat="47.54107" lon="6.75695">
        <ele>481.5</ele>
        <time>2017-07-30T09:31:36.000Z</time>
      </trkpt>
      <trkpt lat="47.54104" lon="6.75689">
        <ele>481.6</ele>
        <time>2017-07-30T09:31:37.000Z</time>
      </trkpt>
      <trkpt lat="47.54102" lon="6.75683">
        <ele>481.7</ele>
        <time>2017-07-30T09:31:38.000Z</time>
      </trkpt>
      <trkpt lat="47.541" lon="6.75678">
        <ele>481.7</ele>
        <time>2017-07-30T09:31:39.000Z</time>
      </trkpt>
      <trkpt lat="47.54098" lon="6.75673">
        <ele>481.8</ele>
        <time>2017-07-30T09:31:40.000Z</time>
      </trkpt>
      <trkpt lat="47.54097" lon="6.75669">
        <ele>481.8</ele>
        <time>2017-07-30T09:31:41.000Z</time>
      </trkpt>
      <trkpt lat="47.54095" lon="6.75665">
        <ele>481.9</ele>
        <time>2017-07-30T09:31:42.000Z</time>
      </trkpt>
      <trkpt lat="47.54093" lon="6.7566">
        <ele>482</ele>
        <time>2017-07-30T09:31:43.000Z</time>
      </trkpt>
      <trkpt lat="47.54091" lon="6.75656">
        <ele>482.1</ele>
        <time>2017-07-30T09:31:44.000Z</time>
      </trkpt>
      <trkpt lat="47.54088" lon="6.75651">
        <ele>482.1</ele>
        <time>2017-07-30T09:31:45.000Z</time>
      </trkpt>
      <trkpt lat="47.54086" lon="6.75646">
        <ele>482.8</ele>
        <time>2017-07-30T09:31:46.000Z</time>
      </trkpt>
      <trkpt lat="47.54084" lon="6.75641">
        <ele>483.7</ele>
        <time>2017-07-30T09:31:47.000Z</time>
      </trkpt>
      <trkpt lat="47.54081" lon="6.75636">
        <ele>483.7</ele>
        <time>2017-07-30T09:31:48.000Z</time>
      </trkpt>
      <trkpt lat="47.54078" lon="6.75631">
        <ele>483.6</ele>
        <time>2017-07-30T09:31:49.000Z</time>
      </trkpt>
      <trkpt lat="47.54075" lon="6.75626">
        <ele>484.7</ele>
        <time>2017-07-30T09:31:50.000Z</time>
      </trkpt>
      <trkpt lat="47.54073" lon="6.75621">
        <ele>485.2</ele>
        <time>2017-07-30T09:31:51.000Z</time>
      </trkpt>
      <trkpt lat="47.5407" lon="6.75615">
        <ele>485.5</ele>
        <time>2017-07-30T09:31:52.000Z</time>
      </trkpt>
      <trkpt lat="47.54068" lon="6.7561">
        <ele>485.6</ele>
        <time>2017-07-30T09:31:53.000Z</time>
      </trkpt>
      <trkpt lat="47.54066" lon="6.75605">
        <ele>485</ele>
        <time>2017-07-30T09:31:54.000Z</time>
      </trkpt>
      <trkpt lat="47.54063" lon="6.75599">
        <ele>485</ele>
        <time>2017-07-30T09:31:55.000Z</time>
      </trkpt>
      <trkpt lat="47.54061" lon="6.75594">
        <ele>485</ele>
        <time>2017-07-30T09:31:56.000Z</time>
      </trkpt>
      <trkpt lat="47.54058" lon="6.75589">
        <ele>484.7</ele>
        <time>2017-07-30T09:31:57.000Z</time>
      </trkpt>
      <trkpt lat="47.54056" lon="6.75584">
        <ele>484.7</ele>
        <time>2017-07-30T09:31:58.000Z</time>
      </trkpt>
      <trkpt lat="47.54053" lon="6.7558">
        <ele>484.7</ele>
        <time>2017-07-30T09:31:59.000Z</time>
      </trkpt>
      <trkpt lat="47.54051" lon="6.75577">
        <ele>485.5</ele>
        <time>2017-07-30T09:32:00.000Z</time>
      </trkpt>
      <trkpt lat="47.54048" lon="6.75573">
        <ele>486.6</ele>
        <time>2017-07-30T09:32:01.000Z</time>
      </trkpt>
      <trkpt lat="47.54045" lon="6.75567">
        <ele>486.9</ele>
        <time>2017-07-30T09:32:02.000Z</time>
      </trkpt>
      <trkpt lat="47.54043" lon="6.75562">
        <ele>486.5</ele>
        <time>2017-07-30T09:32:03.000Z</time>
      </trkpt>
      <trkpt lat="47.54041" lon="6.75557">
        <ele>486.5</ele>
        <time>2017-07-30T09:32:04.000Z</time>
      </trkpt>
      <trkpt lat="47.54039" lon="6.75552">
        <ele>486.2</ele>
        <time>2017-07-30T09:32:05.000Z</time>
      </trkpt>
      <trkpt lat="47.54036" lon="6.75549">
        <ele>486.3</ele>
        <time>2017-07-30T09:32:06.000Z</time>
      </trkpt>
      <trkpt lat="47.54033" lon="6.75545">
        <ele>486.4</ele>
        <time>2017-07-30T09:32:07.000Z</time>
      </trkpt>
      <trkpt lat="47.5403" lon="6.75541">
        <ele>486.2</ele>
        <time>2017-07-30T09:32:08.000Z</time>
      </trkpt>
      <trkpt lat="47.54027" lon="6.75536">
        <ele>486</ele>
        <time>2017-07-30T09:32:09.000Z</time>
      </trkpt>
      <trkpt lat="47.54023" lon="6.75531">
        <ele>485.7</ele>
        <time>2017-07-30T09:32:10.000Z</time>
      </trkpt>
      <trkpt lat="47.54021" lon="6.75527">
        <ele>485.8</ele>
        <time>2017-07-30T09:32:11.000Z</time>
      </trkpt>
      <trkpt lat="47.54018" lon="6.75522">
        <ele>485.9</ele>
        <time>2017-07-30T09:32:12.000Z</time>
      </trkpt>
      <trkpt lat="47.54015" lon="6.75519">
        <ele>485.9</ele>
        <time>2017-07-30T09:32:13.000Z</time>
      </trkpt>
      <trkpt lat="47.54012" lon="6.75514">
        <ele>486.2</ele>
        <time>2017-07-30T09:32:14.000Z</time>
      </trkpt>
      <trkpt lat="47.54011" lon="6.75507">
        <ele>485.4</ele>
        <time>2017-07-30T09:32:15.000Z</time>
      </trkpt>
      <trkpt lat="47.54008" lon="6.75502">
        <ele>485.3</ele>
        <time>2017-07-30T09:32:16.000Z</time>
      </trkpt>
      <trkpt lat="47.54006" lon="6.75498">
        <ele>484.9</ele>
        <time>2017-07-30T09:32:17.000Z</time>
      </trkpt>
      <trkpt lat="47.54003" lon="6.75493">
        <ele>485</ele>
        <time>2017-07-30T09:32:18.000Z</time>
      </trkpt>
      <trkpt lat="47.54" lon="6.75489">
        <ele>485.3</ele>
        <time>2017-07-30T09:32:19.000Z</time>
      </trkpt>
      <trkpt lat="47.53997" lon="6.75486">
        <ele>485.3</ele>
        <time>2017-07-30T09:32:20.000Z</time>
      </trkpt>
      <trkpt lat="47.53994" lon="6.75484">
        <ele>485.7</ele>
        <time>2017-07-30T09:32:21.000Z</time>
      </trkpt>
      <trkpt lat="47.53991" lon="6.7548">
        <ele>486.1</ele>
        <time>2017-07-30T09:32:22.000Z</time>
      </trkpt>
      <trkpt lat="47.53988" lon="6.75475">
        <ele>486.3</ele>
        <time>2017-07-30T09:32:23.000Z</time>
      </trkpt>
      <trkpt lat="47.53985" lon="6.7547">
        <ele>485.9</ele>
        <time>2017-07-30T09:32:24.000Z</time>
      </trkpt>
      <trkpt lat="47.53982" lon="6.75466">
        <ele>486.7</ele>
        <time>2017-07-30T09:32:25.000Z</time>
      </trkpt>
      <trkpt lat="47.53978" lon="6.75461">
        <ele>486.8</ele>
        <time>2017-07-30T09:32:26.000Z</time>
      </trkpt>
      <trkpt lat="47.53975" lon="6.75455">
        <ele>487.1</ele>
        <time>2017-07-30T09:32:27.000Z</time>
      </trkpt>
      <trkpt lat="47.53971" lon="6.75451">
        <ele>487.1</ele>
        <time>2017-07-30T09:32:28.000Z</time>
      </trkpt>
      <trkpt lat="47.53967" lon="6.75447">
        <ele>486.9</ele>
        <time>2017-07-30T09:32:29.000Z</time>
      </trkpt>
      <trkpt lat="47.53963" lon="6.75442">
        <ele>487.2</ele>
        <time>2017-07-30T09:32:30.000Z</time>
      </trkpt>
      <trkpt lat="47.5396" lon="6.75435">
        <ele>487.2</ele>
        <time>2017-07-30T09:32:31.000Z</time>
      </trkpt>
      <trkpt lat="47.53957" lon="6.75429">
        <ele>487.2</ele>
        <time>2017-07-30T09:32:32.000Z</time>
      </trkpt>
      <trkpt lat="47.53954" lon="6.75424">
        <ele>486.5</ele>
        <time>2017-07-30T09:32:33.000Z</time>
      </trkpt>
      <trkpt lat="47.53952" lon="6.75418">
        <ele>485.6</ele>
        <time>2017-07-30T09:32:34.000Z</time>
      </trkpt>
      <trkpt lat="47.53949" lon="6.75412">
        <ele>484.6</ele>
        <time>2017-07-30T09:32:35.000Z</time>
      </trkpt>
      <trkpt lat="47.53946" lon="6.75406">
        <ele>484.1</ele>
        <time>2017-07-30T09:32:36.000Z</time>
      </trkpt>
      <trkpt lat="47.53944" lon="6.75401">
        <ele>483.7</ele>
        <time>2017-07-30T09:32:37.000Z</time>
      </trkpt>
      <trkpt lat="47.53941" lon="6.75395">
        <ele>483.3</ele>
        <time>2017-07-30T09:32:38.000Z</time>
      </trkpt>
      <trkpt lat="47.53938" lon="6.75388">
        <ele>483.1</ele>
        <time>2017-07-30T09:32:39.000Z</time>
      </trkpt>
      <trkpt lat="47.53934" lon="6.75381">
        <ele>482.6</ele>
        <time>2017-07-30T09:32:40.000Z</time>
      </trkpt>
      <trkpt lat="47.53931" lon="6.75373">
        <ele>482.5</ele>
        <time>2017-07-30T09:32:41.000Z</time>
      </trkpt>
      <trkpt lat="47.53926" lon="6.75367">
        <ele>482.1</ele>
        <time>2017-07-30T09:32:42.000Z</time>
      </trkpt>
      <trkpt lat="47.53923" lon="6.7536">
        <ele>482.7</ele>
        <time>2017-07-30T09:32:43.000Z</time>
      </trkpt>
      <trkpt lat="47.53919" lon="6.75354">
        <ele>482.9</ele>
        <time>2017-07-30T09:32:44.000Z</time>
      </trkpt>
      <trkpt lat="47.53916" lon="6.75348">
        <ele>483.5</ele>
        <time>2017-07-30T09:32:45.000Z</time>
      </trkpt>
      <trkpt lat="47.53914" lon="6.75342">
        <ele>483.4</ele>
        <time>2017-07-30T09:32:46.000Z</time>
      </trkpt>
      <trkpt lat="47.53911" lon="6.75336">
        <ele>483.6</ele>
        <time>2017-07-30T09:32:47.000Z</time>
      </trkpt>
      <trkpt lat="47.53908" lon="6.75331">
        <ele>483.9</ele>
        <time>2017-07-30T09:32:48.000Z</time>
      </trkpt>
      <trkpt lat="47.53905" lon="6.75326">
        <ele>484</ele>
        <time>2017-07-30T09:32:49.000Z</time>
      </trkpt>
      <trkpt lat="47.53901" lon="6.7532">
        <ele>484.1</ele>
        <time>2017-07-30T09:32:50.000Z</time>
      </trkpt>
      <trkpt lat="47.53898" lon="6.75315">
        <ele>484.6</ele>
        <time>2017-07-30T09:32:51.000Z</time>
      </trkpt>
      <trkpt lat="47.53894" lon="6.75308">
        <ele>485</ele>
        <time>2017-07-30T09:32:52.000Z</time>
      </trkpt>
      <trkpt lat="47.5389" lon="6.753">
        <ele>485.1</ele>
        <time>2017-07-30T09:32:53.000Z</time>
      </trkpt>
      <trkpt lat="47.53886" lon="6.75292">
        <ele>485</ele>
        <time>2017-07-30T09:32:54.000Z</time>
      </trkpt>
      <trkpt lat="47.53882" lon="6.75285">
        <ele>485.1</ele>
        <time>2017-07-30T09:32:55.000Z</time>
      </trkpt>
      <trkpt lat="47.53878" lon="6.75279">
        <ele>485.3</ele>
        <time>2017-07-30T09:32:56.000Z</time>
      </trkpt>
      <trkpt lat="47.53874" lon="6.75273">
        <ele>485.4</ele>
        <time>2017-07-30T09:32:57.000Z</time>
      </trkpt>
      <trkpt lat="47.5387" lon="6.75267">
        <ele>486</ele>
        <time>2017-07-30T09:32:58.000Z</time>
      </trkpt>
      <trkpt lat="47.53866" lon="6.75262">
        <ele>486.2</ele>
        <time>2017-07-30T09:32:59.000Z</time>
      </trkpt>
      <trkpt lat="47.53862" lon="6.75256">
        <ele>486.8</ele>
        <time>2017-07-30T09:33:00.000Z</time>
      </trkpt>
      <trkpt lat="47.53857" lon="6.7525">
        <ele>486.8</ele>
        <time>2017-07-30T09:33:01.000Z</time>
      </trkpt>
      <trkpt lat="47.53853" lon="6.75246">
        <ele>487.1</ele>
        <time>2017-07-30T09:33:02.000Z</time>
      </trkpt>
      <trkpt lat="47.5385" lon="6.75242">
        <ele>487.6</ele>
        <time>2017-07-30T09:33:03.000Z</time>
      </trkpt>
      <trkpt lat="47.53846" lon="6.75237">
        <ele>488.7</ele>
        <time>2017-07-30T09:33:04.000Z</time>
      </trkpt>
      <trkpt lat="47.53843" lon="6.75231">
        <ele>488.9</ele>
        <time>2017-07-30T09:33:05.000Z</time>
      </trkpt>
      <trkpt lat="47.53838" lon="6.75226">
        <ele>489.6</ele>
        <time>2017-07-30T09:33:06.000Z</time>
      </trkpt>
      <trkpt lat="47.53833" lon="6.75219">
        <ele>490.6</ele>
        <time>2017-07-30T09:33:07.000Z</time>
      </trkpt>
      <trkpt lat="47.53828" lon="6.75213">
        <ele>491.7</ele>
        <time>2017-07-30T09:33:08.000Z</time>
      </trkpt>
      <trkpt lat="47.53825" lon="6.75207">
        <ele>492.4</ele>
        <time>2017-07-30T09:33:09.000Z</time>
      </trkpt>
      <trkpt lat="47.53822" lon="6.75201">
        <ele>492</ele>
        <time>2017-07-30T09:33:10.000Z</time>
      </trkpt>
      <trkpt lat="47.53818" lon="6.75198">
        <ele>491</ele>
        <time>2017-07-30T09:33:11.000Z</time>
      </trkpt>
      <trkpt lat="47.53814" lon="6.75194">
        <ele>490.6</ele>
        <time>2017-07-30T09:33:12.000Z</time>
      </trkpt>
      <trkpt lat="47.5381" lon="6.75189">
        <ele>489.4</ele>
        <time>2017-07-30T09:33:13.000Z</time>
      </trkpt>
      <trkpt lat="47.53807" lon="6.75182">
        <ele>488.2</ele>
        <time>2017-07-30T09:33:14.000Z</time>
      </trkpt>
      <trkpt lat="47.53804" lon="6.75177">
        <ele>486.8</ele>
        <time>2017-07-30T09:33:15.000Z</time>
      </trkpt>
      <trkpt lat="47.53801" lon="6.75173">
        <ele>486</ele>
        <time>2017-07-30T09:33:16.000Z</time>
      </trkpt>
      <trkpt lat="47.53798" lon="6.75169">
        <ele>485.5</ele>
        <time>2017-07-30T09:33:17.000Z</time>
      </trkpt>
      <trkpt lat="47.53795" lon="6.75164">
        <ele>484.9</ele>
        <time>2017-07-30T09:33:18.000Z</time>
      </trkpt>
      <trkpt lat="47.53791" lon="6.75159">
        <ele>484.4</ele>
        <time>2017-07-30T09:33:19.000Z</time>
      </trkpt>
      <trkpt lat="47.53788" lon="6.75154">
        <ele>484.3</ele>
        <time>2017-07-30T09:33:20.000Z</time>
      </trkpt>
      <trkpt lat="47.53785" lon="6.75149">
        <ele>484.7</ele>
        <time>2017-07-30T09:33:21.000Z</time>
      </trkpt>
      <trkpt lat="47.53782" lon="6.75143">
        <ele>485.1</ele>
        <time>2017-07-30T09:33:22.000Z</time>
      </trkpt>
      <trkpt lat="47.53779" lon="6.75138">
        <ele>484.9</ele>
        <time>2017-07-30T09:33:23.000Z</time>
      </trkpt>
      <trkpt lat="47.53776" lon="6.75132">
        <ele>484.7</ele>
        <time>2017-07-30T09:33:24.000Z</time>
      </trkpt>
      <trkpt lat="47.53772" lon="6.75127">
        <ele>484.4</ele>
        <time>2017-07-30T09:33:25.000Z</time>
      </trkpt>
      <trkpt lat="47.53769" lon="6.7512">
        <ele>484.6</ele>
        <time>2017-07-30T09:33:26.000Z</time>
      </trkpt>
      <trkpt lat="47.53765" lon="6.75114">
        <ele>484.4</ele>
        <time>2017-07-30T09:33:27.000Z</time>
      </trkpt>
      <trkpt lat="47.53762" lon="6.75108">
        <ele>484.3</ele>
        <time>2017-07-30T09:33:28.000Z</time>
      </trkpt>
      <trkpt lat="47.53759" lon="6.75101">
        <ele>484.4</ele>
        <time>2017-07-30T09:33:29.000Z</time>
      </trkpt>
      <trkpt lat="47.53756" lon="6.75097">
        <ele>484.3</ele>
        <time>2017-07-30T09:33:30.000Z</time>
      </trkpt>
      <trkpt lat="47.53752" lon="6.75093">
        <ele>484.2</ele>
        <time>2017-07-30T09:33:31.000Z</time>
      </trkpt>
      <trkpt lat="47.53749" lon="6.75088">
        <ele>484.4</ele>
        <time>2017-07-30T09:33:32.000Z</time>
      </trkpt>
      <trkpt lat="47.53746" lon="6.75083">
        <ele>484.5</ele>
        <time>2017-07-30T09:33:33.000Z</time>
      </trkpt>
      <trkpt lat="47.53742" lon="6.75079">
        <ele>484.5</ele>
        <time>2017-07-30T09:33:34.000Z</time>
      </trkpt>
      <trkpt lat="47.5374" lon="6.75072">
        <ele>484.6</ele>
        <time>2017-07-30T09:33:35.000Z</time>
      </trkpt>
      <trkpt lat="47.53737" lon="6.75068">
        <ele>484.7</ele>
        <time>2017-07-30T09:33:36.000Z</time>
      </trkpt>
      <trkpt lat="47.53734" lon="6.75067">
        <ele>484.7</ele>
        <time>2017-07-30T09:33:37.000Z</time>
      </trkpt>
      <trkpt lat="47.53731" lon="6.75066">
        <ele>484.7</ele>
        <time>2017-07-30T09:33:38.000Z</time>
      </trkpt>
      <trkpt lat="47.53729" lon="6.75068">
        <ele>484.7</ele>
        <time>2017-07-30T09:33:39.000Z</time>
      </trkpt>
      <trkpt lat="47.53727" lon="6.75072">
        <ele>484.6</ele>
        <time>2017-07-30T09:33:43.000Z</time>
      </trkpt>
      <trkpt lat="47.53726" lon="6.75074">
        <ele>484.6</ele>
        <time>2017-07-30T09:33:44.000Z</time>
      </trkpt>
      <trkpt lat="47.53725" lon="6.75079">
        <ele>484.6</ele>
        <time>2017-07-30T09:33:46.000Z</time>
      </trkpt>
      <trkpt lat="47.53723" lon="6.75082">
        <ele>484.5</ele>
        <time>2017-07-30T09:33:47.000Z</time>
      </trkpt>
      <trkpt lat="47.53721" lon="6.75086">
        <ele>484.5</ele>
        <time>2017-07-30T09:33:48.000Z</time>
      </trkpt>
      <trkpt lat="47.53718" lon="6.7509">
        <ele>484.6</ele>
        <time>2017-07-30T09:33:49.000Z</time>
      </trkpt>
      <trkpt lat="47.53716" lon="6.75094">
        <ele>484.5</ele>
        <time>2017-07-30T09:33:50.000Z</time>
      </trkpt>
      <trkpt lat="47.53714" lon="6.75101">
        <ele>484.4</ele>
        <time>2017-07-30T09:33:51.000Z</time>
      </trkpt>
      <trkpt lat="47.53711" lon="6.75109">
        <ele>484.3</ele>
        <time>2017-07-30T09:33:52.000Z</time>
      </trkpt>
      <trkpt lat="47.53708" lon="6.75116">
        <ele>484.2</ele>
        <time>2017-07-30T09:33:53.000Z</time>
      </trkpt>
      <trkpt lat="47.53706" lon="6.75121">
        <ele>484</ele>
        <time>2017-07-30T09:33:54.000Z</time>
      </trkpt>
      <trkpt lat="47.53704" lon="6.75126">
        <ele>483.9</ele>
        <time>2017-07-30T09:33:55.000Z</time>
      </trkpt>
      <trkpt lat="47.53702" lon="6.75131">
        <ele>483.7</ele>
        <time>2017-07-30T09:33:56.000Z</time>
      </trkpt>
      <trkpt lat="47.53699" lon="6.75137">
        <ele>482.2</ele>
        <time>2017-07-30T09:33:57.000Z</time>
      </trkpt>
      <trkpt lat="47.53696" lon="6.75144">
        <ele>480.6</ele>
        <time>2017-07-30T09:33:58.000Z</time>
      </trkpt>
      <trkpt lat="47.53692" lon="6.75151">
        <ele>479.2</ele>
        <time>2017-07-30T09:33:59.000Z</time>
      </trkpt>
      <trkpt lat="47.53689" lon="6.75158">
        <ele>478.4</ele>
        <time>2017-07-30T09:34:00.000Z</time>
      </trkpt>
      <trkpt lat="47.53687" lon="6.75166">
        <ele>478</ele>
        <time>2017-07-30T09:34:01.000Z</time>
      </trkpt>
      <trkpt lat="47.53684" lon="6.75172">
        <ele>478.1</ele>
        <time>2017-07-30T09:34:02.000Z</time>
      </trkpt>
      <trkpt lat="47.5368" lon="6.75178">
        <ele>478.6</ele>
        <time>2017-07-30T09:34:03.000Z</time>
      </trkpt>
      <trkpt lat="47.53679" lon="6.75185">
        <ele>478.6</ele>
        <time>2017-07-30T09:34:04.000Z</time>
      </trkpt>
      <trkpt lat="47.53678" lon="6.75193">
        <ele>478.7</ele>
        <time>2017-07-30T09:34:05.000Z</time>
      </trkpt>
      <trkpt lat="47.53678" lon="6.75199">
        <ele>478.7</ele>
        <time>2017-07-30T09:34:06.000Z</time>
      </trkpt>
      <trkpt lat="47.53678" lon="6.75205">
        <ele>478.9</ele>
        <time>2017-07-30T09:34:07.000Z</time>
      </trkpt>
      <trkpt lat="47.53675" lon="6.75211">
        <ele>478.9</ele>
        <time>2017-07-30T09:34:08.000Z</time>
      </trkpt>
      <trkpt lat="47.53669" lon="6.75216">
        <ele>478.9</ele>
        <time>2017-07-30T09:34:09.000Z</time>
      </trkpt>
      <trkpt lat="47.53661" lon="6.75221">
        <ele>479.1</ele>
        <time>2017-07-30T09:34:10.000Z</time>
      </trkpt>
      <trkpt lat="47.53657" lon="6.75222">
        <ele>479.2</ele>
        <time>2017-07-30T09:34:11.000Z</time>
      </trkpt>
      <trkpt lat="47.53653" lon="6.75224">
        <ele>479.4</ele>
        <time>2017-07-30T09:34:12.000Z</time>
      </trkpt>
      <trkpt lat="47.53649" lon="6.75226">
        <ele>479.4</ele>
        <time>2017-07-30T09:34:13.000Z</time>
      </trkpt>
      <trkpt lat="47.53646" lon="6.75228">
        <ele>479.4</ele>
        <time>2017-07-30T09:34:14.000Z</time>
      </trkpt>
      <trkpt lat="47.53641" lon="6.75232">
        <ele>479.6</ele>
        <time>2017-07-30T09:34:15.000Z</time>
      </trkpt>
      <trkpt lat="47.53637" lon="6.75235">
        <ele>478.7</ele>
        <time>2017-07-30T09:34:16.000Z</time>
      </trkpt>
      <trkpt lat="47.53631" lon="6.75237">
        <ele>478.7</ele>
        <time>2017-07-30T09:34:17.000Z</time>
      </trkpt>
      <trkpt lat="47.53629" lon="6.75238">
        <ele>478.7</ele>
        <time>2017-07-30T09:34:18.000Z</time>
      </trkpt>
      <trkpt lat="47.53626" lon="6.75239">
        <ele>478.6</ele>
        <time>2017-07-30T09:34:19.000Z</time>
      </trkpt>
      <trkpt lat="47.53623" lon="6.75241">
        <ele>478.5</ele>
        <time>2017-07-30T09:34:20.000Z</time>
      </trkpt>
      <trkpt lat="47.53619" lon="6.75244">
        <ele>478.5</ele>
        <time>2017-07-30T09:34:21.000Z</time>
      </trkpt>
      <trkpt lat="47.53614" lon="6.75248">
        <ele>478.5</ele>
        <time>2017-07-30T09:34:22.000Z</time>
      </trkpt>
      <trkpt lat="47.53611" lon="6.75249">
        <ele>478.4</ele>
        <time>2017-07-30T09:34:23.000Z</time>
      </trkpt>
      <trkpt lat="47.53605" lon="6.75253">
        <ele>478.4</ele>
        <time>2017-07-30T09:34:24.000Z</time>
      </trkpt>
      <trkpt lat="47.53602" lon="6.75254">
        <ele>478.3</ele>
        <time>2017-07-30T09:34:25.000Z</time>
      </trkpt>
      <trkpt lat="47.53597" lon="6.75259">
        <ele>478.3</ele>
        <time>2017-07-30T09:34:26.000Z</time>
      </trkpt>
      <trkpt lat="47.53594" lon="6.7526">
        <ele>478.2</ele>
        <time>2017-07-30T09:34:27.000Z</time>
      </trkpt>
      <trkpt lat="47.53591" lon="6.75262">
        <ele>478.1</ele>
        <time>2017-07-30T09:34:28.000Z</time>
      </trkpt>
      <trkpt lat="47.53584" lon="6.75265">
        <ele>476.5</ele>
        <time>2017-07-30T09:34:29.000Z</time>
      </trkpt>
      <trkpt lat="47.53578" lon="6.75268">
        <ele>475</ele>
        <time>2017-07-30T09:34:30.000Z</time>
      </trkpt>
      <trkpt lat="47.5357" lon="6.75273">
        <ele>474.1</ele>
        <time>2017-07-30T09:34:31.000Z</time>
      </trkpt>
      <trkpt lat="47.53563" lon="6.75276">
        <ele>474.1</ele>
        <time>2017-07-30T09:34:32.000Z</time>
      </trkpt>
      <trkpt lat="47.53553" lon="6.75278">
        <ele>473.7</ele>
        <time>2017-07-30T09:34:33.000Z</time>
      </trkpt>
      <trkpt lat="47.53543" lon="6.75282">
        <ele>473.7</ele>
        <time>2017-07-30T09:34:34.000Z</time>
      </trkpt>
      <trkpt lat="47.53534" lon="6.75285">
        <ele>473.5</ele>
        <time>2017-07-30T09:34:35.000Z</time>
      </trkpt>
      <trkpt lat="47.53524" lon="6.75288">
        <ele>473.6</ele>
        <time>2017-07-30T09:34:36.000Z</time>
      </trkpt>
      <trkpt lat="47.53517" lon="6.7529">
        <ele>474</ele>
        <time>2017-07-30T09:34:37.000Z</time>
      </trkpt>
      <trkpt lat="47.5351" lon="6.75293">
        <ele>473.5</ele>
        <time>2017-07-30T09:34:38.000Z</time>
      </trkpt>
      <trkpt lat="47.53503" lon="6.75295">
        <ele>473.1</ele>
        <time>2017-07-30T09:34:39.000Z</time>
      </trkpt>
      <trkpt lat="47.53497" lon="6.75294">
        <ele>472.3</ele>
        <time>2017-07-30T09:34:40.000Z</time>
      </trkpt>
      <trkpt lat="47.5349" lon="6.75294">
        <ele>471.8</ele>
        <time>2017-07-30T09:34:41.000Z</time>
      </trkpt>
      <trkpt lat="47.53483" lon="6.75294">
        <ele>470.2</ele>
        <time>2017-07-30T09:34:42.000Z</time>
      </trkpt>
      <trkpt lat="47.53478" lon="6.75294">
        <ele>469.9</ele>
        <time>2017-07-30T09:34:43.000Z</time>
      </trkpt>
      <trkpt lat="47.53473" lon="6.75295">
        <ele>469.5</ele>
        <time>2017-07-30T09:34:44.000Z</time>
      </trkpt>
      <trkpt lat="47.53468" lon="6.75295">
        <ele>469.4</ele>
        <time>2017-07-30T09:34:45.000Z</time>
      </trkpt>
      <trkpt lat="47.53463" lon="6.75295">
        <ele>469.6</ele>
        <time>2017-07-30T09:34:46.000Z</time>
      </trkpt>
      <trkpt lat="47.53456" lon="6.75296">
        <ele>469.7</ele>
        <time>2017-07-30T09:34:47.000Z</time>
      </trkpt>
      <trkpt lat="47.5345" lon="6.75297">
        <ele>469.5</ele>
        <time>2017-07-30T09:34:48.000Z</time>
      </trkpt>
      <trkpt lat="47.53444" lon="6.75298">
        <ele>469.1</ele>
        <time>2017-07-30T09:34:49.000Z</time>
      </trkpt>
      <trkpt lat="47.53437" lon="6.75298">
        <ele>467.9</ele>
        <time>2017-07-30T09:34:50.000Z</time>
      </trkpt>
      <trkpt lat="47.53431" lon="6.75298">
        <ele>467.5</ele>
        <time>2017-07-30T09:34:51.000Z</time>
      </trkpt>
      <trkpt lat="47.53425" lon="6.75299">
        <ele>466.6</ele>
        <time>2017-07-30T09:34:52.000Z</time>
      </trkpt>
      <trkpt lat="47.53419" lon="6.753">
        <ele>466.6</ele>
        <time>2017-07-30T09:34:53.000Z</time>
      </trkpt>
      <trkpt lat="47.53412" lon="6.75302">
        <ele>466.4</ele>
        <time>2017-07-30T09:34:54.000Z</time>
      </trkpt>
      <trkpt lat="47.53406" lon="6.75304">
        <ele>465.7</ele>
        <time>2017-07-30T09:34:55.000Z</time>
      </trkpt>
      <trkpt lat="47.53399" lon="6.75306">
        <ele>465.8</ele>
        <time>2017-07-30T09:34:56.000Z</time>
      </trkpt>
      <trkpt lat="47.53394" lon="6.75307">
        <ele>465.2</ele>
        <time>2017-07-30T09:34:57.000Z</time>
      </trkpt>
      <trkpt lat="47.53388" lon="6.7531">
        <ele>464.6</ele>
        <time>2017-07-30T09:34:58.000Z</time>
      </trkpt>
      <trkpt lat="47.53382" lon="6.75313">
        <ele>463.8</ele>
        <time>2017-07-30T09:34:59.000Z</time>
      </trkpt>
      <trkpt lat="47.53374" lon="6.75318">
        <ele>462.5</ele>
        <time>2017-07-30T09:35:00.000Z</time>
      </trkpt>
      <trkpt lat="47.53367" lon="6.75322">
        <ele>461.4</ele>
        <time>2017-07-30T09:35:01.000Z</time>
      </trkpt>
      <trkpt lat="47.53361" lon="6.75326">
        <ele>460.7</ele>
        <time>2017-07-30T09:35:02.000Z</time>
      </trkpt>
      <trkpt lat="47.53353" lon="6.75329">
        <ele>460</ele>
        <time>2017-07-30T09:35:03.000Z</time>
      </trkpt>
      <trkpt lat="47.53345" lon="6.75331">
        <ele>459.3</ele>
        <time>2017-07-30T09:35:04.000Z</time>
      </trkpt>
      <trkpt lat="47.53339" lon="6.75333">
        <ele>459.4</ele>
        <time>2017-07-30T09:35:05.000Z</time>
      </trkpt>
      <trkpt lat="47.53332" lon="6.75335">
        <ele>459.7</ele>
        <time>2017-07-30T09:35:06.000Z</time>
      </trkpt>
      <trkpt lat="47.53324" lon="6.75337">
        <ele>458.7</ele>
        <time>2017-07-30T09:35:07.000Z</time>
      </trkpt>
      <trkpt lat="47.53312" lon="6.7534">
        <ele>457</ele>
        <time>2017-07-30T09:35:08.000Z</time>
      </trkpt>
      <trkpt lat="47.53303" lon="6.75346">
        <ele>455.4</ele>
        <time>2017-07-30T09:35:09.000Z</time>
      </trkpt>
      <trkpt lat="47.53295" lon="6.75351">
        <ele>453.9</ele>
        <time>2017-07-30T09:35:10.000Z</time>
      </trkpt>
      <trkpt lat="47.53286" lon="6.75357">
        <ele>453.1</ele>
        <time>2017-07-30T09:35:11.000Z</time>
      </trkpt>
      <trkpt lat="47.53278" lon="6.75362">
        <ele>453.2</ele>
        <time>2017-07-30T09:35:12.000Z</time>
      </trkpt>
      <trkpt lat="47.5327" lon="6.75367">
        <ele>452.6</ele>
        <time>2017-07-30T09:35:13.000Z</time>
      </trkpt>
      <trkpt lat="47.53266" lon="6.75372">
        <ele>452.2</ele>
        <time>2017-07-30T09:35:14.000Z</time>
      </trkpt>
      <trkpt lat="47.53261" lon="6.75376">
        <ele>451.4</ele>
        <time>2017-07-30T09:35:15.000Z</time>
      </trkpt>
      <trkpt lat="47.53256" lon="6.75382">
        <ele>450.6</ele>
        <time>2017-07-30T09:35:16.000Z</time>
      </trkpt>
      <trkpt lat="47.53252" lon="6.7539">
        <ele>450.2</ele>
        <time>2017-07-30T09:35:17.000Z</time>
      </trkpt>
      <trkpt lat="47.53247" lon="6.75398">
        <ele>450</ele>
        <time>2017-07-30T09:35:18.000Z</time>
      </trkpt>
      <trkpt lat="47.53242" lon="6.75403">
        <ele>449.9</ele>
        <time>2017-07-30T09:35:19.000Z</time>
      </trkpt>
      <trkpt lat="47.53239" lon="6.75403">
        <ele>449.7</ele>
        <time>2017-07-30T09:35:20.000Z</time>
      </trkpt>
      <trkpt lat="47.53235" lon="6.75401">
        <ele>449.6</ele>
        <time>2017-07-30T09:35:21.000Z</time>
      </trkpt>
      <trkpt lat="47.53231" lon="6.75399">
        <ele>449.3</ele>
        <time>2017-07-30T09:35:22.000Z</time>
      </trkpt>
      <trkpt lat="47.53226" lon="6.75398">
        <ele>449.1</ele>
        <time>2017-07-30T09:35:23.000Z</time>
      </trkpt>
      <trkpt lat="47.53221" lon="6.75396">
        <ele>447.5</ele>
        <time>2017-07-30T09:35:24.000Z</time>
      </trkpt>
      <trkpt lat="47.53217" lon="6.75394">
        <ele>447.4</ele>
        <time>2017-07-30T09:35:25.000Z</time>
      </trkpt>
      <trkpt lat="47.53212" lon="6.75394">
        <ele>447.3</ele>
        <time>2017-07-30T09:35:26.000Z</time>
      </trkpt>
      <trkpt lat="47.53208" lon="6.75394">
        <ele>447.1</ele>
        <time>2017-07-30T09:35:27.000Z</time>
      </trkpt>
      <trkpt lat="47.53204" lon="6.7539">
        <ele>446.9</ele>
        <time>2017-07-30T09:35:28.000Z</time>
      </trkpt>
      <trkpt lat="47.53201" lon="6.75388">
        <ele>446.8</ele>
        <time>2017-07-30T09:35:29.000Z</time>
      </trkpt>
      <trkpt lat="47.53198" lon="6.75389">
        <ele>446.8</ele>
        <time>2017-07-30T09:35:30.000Z</time>
      </trkpt>
      <trkpt lat="47.53194" lon="6.7539">
        <ele>446.7</ele>
        <time>2017-07-30T09:35:31.000Z</time>
      </trkpt>
      <trkpt lat="47.5319" lon="6.75389">
        <ele>446.6</ele>
        <time>2017-07-30T09:35:32.000Z</time>
      </trkpt>
      <trkpt lat="47.53185" lon="6.75388">
        <ele>445.7</ele>
        <time>2017-07-30T09:35:33.000Z</time>
      </trkpt>
      <trkpt lat="47.53179" lon="6.75387">
        <ele>445.2</ele>
        <time>2017-07-30T09:35:34.000Z</time>
      </trkpt>
      <trkpt lat="47.53174" lon="6.75385">
        <ele>444.5</ele>
        <time>2017-07-30T09:35:35.000Z</time>
      </trkpt>
      <trkpt lat="47.53167" lon="6.75383">
        <ele>443.4</ele>
        <time>2017-07-30T09:35:36.000Z</time>
      </trkpt>
      <trkpt lat="47.53161" lon="6.75381">
        <ele>442.5</ele>
        <time>2017-07-30T09:35:37.000Z</time>
      </trkpt>
      <trkpt lat="47.53154" lon="6.75378">
        <ele>442.2</ele>
        <time>2017-07-30T09:35:38.000Z</time>
      </trkpt>
      <trkpt lat="47.53146" lon="6.75376">
        <ele>442.1</ele>
        <time>2017-07-30T09:35:39.000Z</time>
      </trkpt>
      <trkpt lat="47.53138" lon="6.75374">
        <ele>442</ele>
        <time>2017-07-30T09:35:40.000Z</time>
      </trkpt>
      <trkpt lat="47.53129" lon="6.75371">
        <ele>441.7</ele>
        <time>2017-07-30T09:35:41.000Z</time>
      </trkpt>
      <trkpt lat="47.53121" lon="6.75369">
        <ele>441.2</ele>
        <time>2017-07-30T09:35:42.000Z</time>
      </trkpt>
      <trkpt lat="47.53113" lon="6.75366">
        <ele>441.1</ele>
        <time>2017-07-30T09:35:43.000Z</time>
      </trkpt>
      <trkpt lat="47.53104" lon="6.75364">
        <ele>441</ele>
        <time>2017-07-30T09:35:44.000Z</time>
      </trkpt>
      <trkpt lat="47.53094" lon="6.75362">
        <ele>441.3</ele>
        <time>2017-07-30T09:35:45.000Z</time>
      </trkpt>
      <trkpt lat="47.53086" lon="6.75359">
        <ele>441.3</ele>
        <time>2017-07-30T09:35:46.000Z</time>
      </trkpt>
      <trkpt lat="47.53079" lon="6.75356">
        <ele>440.7</ele>
        <time>2017-07-30T09:35:47.000Z</time>
      </trkpt>
      <trkpt lat="47.53071" lon="6.75354">
        <ele>440.3</ele>
        <time>2017-07-30T09:35:48.000Z</time>
      </trkpt>
      <trkpt lat="47.53065" lon="6.75354">
        <ele>439.8</ele>
        <time>2017-07-30T09:35:49.000Z</time>
      </trkpt>
      <trkpt lat="47.53059" lon="6.75352">
        <ele>438.9</ele>
        <time>2017-07-30T09:35:50.000Z</time>
      </trkpt>
      <trkpt lat="47.53054" lon="6.7535">
        <ele>438.6</ele>
        <time>2017-07-30T09:35:51.000Z</time>
      </trkpt>
      <trkpt lat="47.53048" lon="6.75347">
        <ele>437.1</ele>
        <time>2017-07-30T09:35:52.000Z</time>
      </trkpt>
      <trkpt lat="47.53042" lon="6.75345">
        <ele>435.4</ele>
        <time>2017-07-30T09:35:53.000Z</time>
      </trkpt>
      <trkpt lat="47.53036" lon="6.75342">
        <ele>434.1</ele>
        <time>2017-07-30T09:35:54.000Z</time>
      </trkpt>
      <trkpt lat="47.53033" lon="6.75341">
        <ele>434</ele>
        <time>2017-07-30T09:35:55.000Z</time>
      </trkpt>
      <trkpt lat="47.5303" lon="6.75341">
        <ele>433.9</ele>
        <time>2017-07-30T09:35:56.000Z</time>
      </trkpt>
      <trkpt lat="47.53026" lon="6.75341">
        <ele>434</ele>
        <time>2017-07-30T09:35:58.000Z</time>
      </trkpt>
      <trkpt lat="47.53024" lon="6.75341">
        <ele>434</ele>
        <time>2017-07-30T09:35:59.000Z</time>
      </trkpt>
      <trkpt lat="47.53021" lon="6.75337">
        <ele>434</ele>
        <time>2017-07-30T09:36:02.000Z</time>
      </trkpt>
      <trkpt lat="47.53018" lon="6.75336">
        <ele>434</ele>
        <time>2017-07-30T09:36:03.000Z</time>
      </trkpt>
      <trkpt lat="47.53016" lon="6.75334">
        <ele>434</ele>
        <time>2017-07-30T09:36:04.000Z</time>
      </trkpt>
      <trkpt lat="47.53013" lon="6.75334">
        <ele>433.9</ele>
        <time>2017-07-30T09:36:05.000Z</time>
      </trkpt>
      <trkpt lat="47.5301" lon="6.75333">
        <ele>433.9</ele>
        <time>2017-07-30T09:36:06.000Z</time>
      </trkpt>
      <trkpt lat="47.53007" lon="6.75332">
        <ele>433.8</ele>
        <time>2017-07-30T09:36:07.000Z</time>
      </trkpt>
      <trkpt lat="47.53004" lon="6.75331">
        <ele>433.8</ele>
        <time>2017-07-30T09:36:08.000Z</time>
      </trkpt>
      <trkpt lat="47.53" lon="6.75331">
        <ele>433.7</ele>
        <time>2017-07-30T09:36:09.000Z</time>
      </trkpt>
      <trkpt lat="47.52997" lon="6.75331">
        <ele>433.8</ele>
        <time>2017-07-30T09:36:10.000Z</time>
      </trkpt>
      <trkpt lat="47.52993" lon="6.75331">
        <ele>433.9</ele>
        <time>2017-07-30T09:36:11.000Z</time>
      </trkpt>
      <trkpt lat="47.5299" lon="6.7533">
        <ele>434</ele>
        <time>2017-07-30T09:36:12.000Z</time>
      </trkpt>
      <trkpt lat="47.52988" lon="6.7533">
        <ele>434</ele>
        <time>2017-07-30T09:36:13.000Z</time>
      </trkpt>
      <trkpt lat="47.52985" lon="6.75331">
        <ele>434.2</ele>
        <time>2017-07-30T09:36:14.000Z</time>
      </trkpt>
      <trkpt lat="47.52983" lon="6.7533">
        <ele>434.4</ele>
        <time>2017-07-30T09:36:15.000Z</time>
      </trkpt>
      <trkpt lat="47.52979" lon="6.75329">
        <ele>434.9</ele>
        <time>2017-07-30T09:36:17.000Z</time>
      </trkpt>
      <trkpt lat="47.52977" lon="6.75329">
        <ele>435.2</ele>
        <time>2017-07-30T09:36:18.000Z</time>
      </trkpt>
      <trkpt lat="47.52973" lon="6.75328">
        <ele>435.6</ele>
        <time>2017-07-30T09:36:20.000Z</time>
      </trkpt>
      <trkpt lat="47.52972" lon="6.75327">
        <ele>435.8</ele>
        <time>2017-07-30T09:36:21.000Z</time>
      </trkpt>
      <trkpt lat="47.52972" lon="6.75327">
        <ele>436.7</ele>
        <time>2017-07-30T09:36:31.000Z</time>
      </trkpt>
      <trkpt lat="47.52955" lon="6.75321">
        <ele>436.6</ele>
        <time>2017-07-30T09:36:32.000Z</time>
      </trkpt>
      <trkpt lat="47.52955" lon="6.75321">
        <ele>437.3</ele>
        <time>2017-07-30T09:36:53.000Z</time>
      </trkpt>
      <trkpt lat="47.52938" lon="6.75301">
        <ele>437.2</ele>
        <time>2017-07-30T09:36:54.000Z</time>
      </trkpt>
      <trkpt lat="47.52938" lon="6.75301">
        <ele>437.9</ele>
        <time>2017-07-30T09:37:03.000Z</time>
      </trkpt>
      <trkpt lat="47.5292" lon="6.75285">
        <ele>437.9</ele>
        <time>2017-07-30T09:37:04.000Z</time>
      </trkpt>
      <trkpt lat="47.5292" lon="6.75285">
        <ele>437.7</ele>
        <time>2017-07-30T09:37:10.000Z</time>
      </trkpt>
      <trkpt lat="47.52912" lon="6.75286">
        <ele>437.6</ele>
        <time>2017-07-30T09:37:11.000Z</time>
      </trkpt>
      <trkpt lat="47.52909" lon="6.75285">
        <ele>437.7</ele>
        <time>2017-07-30T09:37:13.000Z</time>
      </trkpt>
      <trkpt lat="47.52907" lon="6.75285">
        <ele>437.7</ele>
        <time>2017-07-30T09:37:14.000Z</time>
      </trkpt>
      <trkpt lat="47.52904" lon="6.75285">
        <ele>437.7</ele>
        <time>2017-07-30T09:37:16.000Z</time>
      </trkpt>
      <trkpt lat="47.52902" lon="6.75284">
        <ele>437.6</ele>
        <time>2017-07-30T09:37:17.000Z</time>
      </trkpt>
      <trkpt lat="47.529" lon="6.75284">
        <ele>437.7</ele>
        <time>2017-07-30T09:37:18.000Z</time>
      </trkpt>
      <trkpt lat="47.52897" lon="6.75283">
        <ele>437.7</ele>
        <time>2017-07-30T09:37:19.000Z</time>
      </trkpt>
      <trkpt lat="47.52894" lon="6.75282">
        <ele>437.7</ele>
        <time>2017-07-30T09:37:20.000Z</time>
      </trkpt>
      <trkpt lat="47.52891" lon="6.7528">
        <ele>437.8</ele>
        <time>2017-07-30T09:37:21.000Z</time>
      </trkpt>
      <trkpt lat="47.52888" lon="6.75279">
        <ele>437.8</ele>
        <time>2017-07-30T09:37:22.000Z</time>
      </trkpt>
      <trkpt lat="47.52882" lon="6.75276">
        <ele>437.9</ele>
        <time>2017-07-30T09:37:23.000Z</time>
      </trkpt>
      <trkpt lat="47.52878" lon="6.75274">
        <ele>437.9</ele>
        <time>2017-07-30T09:37:24.000Z</time>
      </trkpt>
      <trkpt lat="47.52875" lon="6.75274">
        <ele>437.9</ele>
        <time>2017-07-30T09:37:25.000Z</time>
      </trkpt>
      <trkpt lat="47.52872" lon="6.75273">
        <ele>438.1</ele>
        <time>2017-07-30T09:37:27.000Z</time>
      </trkpt>
      <trkpt lat="47.5287" lon="6.75272">
        <ele>438.2</ele>
        <time>2017-07-30T09:37:28.000Z</time>
      </trkpt>
      <trkpt lat="47.52867" lon="6.75271">
        <ele>438.2</ele>
        <time>2017-07-30T09:37:29.000Z</time>
      </trkpt>
      <trkpt lat="47.52865" lon="6.75271">
        <ele>438.3</ele>
        <time>2017-07-30T09:37:30.000Z</time>
      </trkpt>
      <trkpt lat="47.52862" lon="6.7527">
        <ele>438.4</ele>
        <time>2017-07-30T09:37:32.000Z</time>
      </trkpt>
      <trkpt lat="47.52859" lon="6.75269">
        <ele>438.6</ele>
        <time>2017-07-30T09:37:33.000Z</time>
      </trkpt>
      <trkpt lat="47.52856" lon="6.75269">
        <ele>438.8</ele>
        <time>2017-07-30T09:37:34.000Z</time>
      </trkpt>
      <trkpt lat="47.52854" lon="6.75268">
        <ele>439</ele>
        <time>2017-07-30T09:37:35.000Z</time>
      </trkpt>
      <trkpt lat="47.52851" lon="6.75268">
        <ele>439.1</ele>
        <time>2017-07-30T09:37:36.000Z</time>
      </trkpt>
      <trkpt lat="47.52849" lon="6.75267">
        <ele>439.2</ele>
        <time>2017-07-30T09:37:37.000Z</time>
      </trkpt>
      <trkpt lat="47.52847" lon="6.75265">
        <ele>439.3</ele>
        <time>2017-07-30T09:37:38.000Z</time>
      </trkpt>
      <trkpt lat="47.52844" lon="6.75263">
        <ele>439.3</ele>
        <time>2017-07-30T09:37:39.000Z</time>
      </trkpt>
      <trkpt lat="47.52841" lon="6.75261">
        <ele>439.3</ele>
        <time>2017-07-30T09:37:40.000Z</time>
      </trkpt>
      <trkpt lat="47.52837" lon="6.75258">
        <ele>439.2</ele>
        <time>2017-07-30T09:37:41.000Z</time>
      </trkpt>
      <trkpt lat="47.52835" lon="6.75256">
        <ele>439.2</ele>
        <time>2017-07-30T09:37:42.000Z</time>
      </trkpt>
      <trkpt lat="47.52833" lon="6.75255">
        <ele>439.4</ele>
        <time>2017-07-30T09:37:43.000Z</time>
      </trkpt>
      <trkpt lat="47.5283" lon="6.75253">
        <ele>439.5</ele>
        <time>2017-07-30T09:37:44.000Z</time>
      </trkpt>
      <trkpt lat="47.52828" lon="6.7525">
        <ele>439.6</ele>
        <time>2017-07-30T09:37:45.000Z</time>
      </trkpt>
      <trkpt lat="47.52825" lon="6.75245">
        <ele>440.3</ele>
        <time>2017-07-30T09:37:55.000Z</time>
      </trkpt>
      <trkpt lat="47.52809" lon="6.75236">
        <ele>440.4</ele>
        <time>2017-07-30T09:37:56.000Z</time>
      </trkpt>
      <trkpt lat="47.52806" lon="6.75235">
        <ele>440.3</ele>
        <time>2017-07-30T09:37:57.000Z</time>
      </trkpt>
      <trkpt lat="47.52804" lon="6.75234">
        <ele>440.4</ele>
        <time>2017-07-30T09:37:58.000Z</time>
      </trkpt>
      <trkpt lat="47.52801" lon="6.75232">
        <ele>440.5</ele>
        <time>2017-07-30T09:37:59.000Z</time>
      </trkpt>
      <trkpt lat="47.52798" lon="6.7523">
        <ele>440.6</ele>
        <time>2017-07-30T09:38:00.000Z</time>
      </trkpt>
      <trkpt lat="47.52795" lon="6.75227">
        <ele>440.9</ele>
        <time>2017-07-30T09:38:02.000Z</time>
      </trkpt>
      <trkpt lat="47.52793" lon="6.75226">
        <ele>441.2</ele>
        <time>2017-07-30T09:38:03.000Z</time>
      </trkpt>
      <trkpt lat="47.52793" lon="6.75226">
        <ele>442</ele>
        <time>2017-07-30T09:38:06.000Z</time>
      </trkpt>
      <trkpt lat="47.52784" lon="6.75223">
        <ele>442.2</ele>
        <time>2017-07-30T09:38:07.000Z</time>
      </trkpt>
      <trkpt lat="47.5278" lon="6.75224">
        <ele>442.2</ele>
        <time>2017-07-30T09:38:08.000Z</time>
      </trkpt>
      <trkpt lat="47.52778" lon="6.75223">
        <ele>442.3</ele>
        <time>2017-07-30T09:38:09.000Z</time>
      </trkpt>
      <trkpt lat="47.52774" lon="6.75222">
        <ele>442.5</ele>
        <time>2017-07-30T09:38:11.000Z</time>
      </trkpt>
      <trkpt lat="47.52772" lon="6.75221">
        <ele>442.7</ele>
        <time>2017-07-30T09:38:12.000Z</time>
      </trkpt>
      <trkpt lat="47.52769" lon="6.75219">
        <ele>443</ele>
        <time>2017-07-30T09:38:14.000Z</time>
      </trkpt>
      <trkpt lat="47.52767" lon="6.75219">
        <ele>443.1</ele>
        <time>2017-07-30T09:38:15.000Z</time>
      </trkpt>
      <trkpt lat="47.52764" lon="6.75219">
        <ele>443.3</ele>
        <time>2017-07-30T09:38:16.000Z</time>
      </trkpt>
      <trkpt lat="47.52762" lon="6.75219">
        <ele>443.6</ele>
        <time>2017-07-30T09:38:17.000Z</time>
      </trkpt>
      <trkpt lat="47.52758" lon="6.75218">
        <ele>443.9</ele>
        <time>2017-07-30T09:38:19.000Z</time>
      </trkpt>
      <trkpt lat="47.52755" lon="6.75216">
        <ele>444</ele>
        <time>2017-07-30T09:38:20.000Z</time>
      </trkpt>
      <trkpt lat="47.52752" lon="6.75215">
        <ele>444.2</ele>
        <time>2017-07-30T09:38:21.000Z</time>
      </trkpt>
      <trkpt lat="47.52749" lon="6.75214">
        <ele>444.4</ele>
        <time>2017-07-30T09:38:22.000Z</time>
      </trkpt>
      <trkpt lat="47.52746" lon="6.75212">
        <ele>444.5</ele>
        <time>2017-07-30T09:38:23.000Z</time>
      </trkpt>
      <trkpt lat="47.52742" lon="6.7521">
        <ele>444.8</ele>
        <time>2017-07-30T09:38:24.000Z</time>
      </trkpt>
      <trkpt lat="47.52739" lon="6.75209">
        <ele>445</ele>
        <time>2017-07-30T09:38:25.000Z</time>
      </trkpt>
      <trkpt lat="47.52736" lon="6.75209">
        <ele>445.2</ele>
        <time>2017-07-30T09:38:26.000Z</time>
      </trkpt>
      <trkpt lat="47.52733" lon="6.75208">
        <ele>445.4</ele>
        <time>2017-07-30T09:38:27.000Z</time>
      </trkpt>
      <trkpt lat="47.52729" lon="6.75207">
        <ele>445.6</ele>
        <time>2017-07-30T09:38:28.000Z</time>
      </trkpt>
      <trkpt lat="47.52724" lon="6.75206">
        <ele>445.7</ele>
        <time>2017-07-30T09:38:29.000Z</time>
      </trkpt>
      <trkpt lat="47.52721" lon="6.75203">
        <ele>445.9</ele>
        <time>2017-07-30T09:38:30.000Z</time>
      </trkpt>
      <trkpt lat="47.52718" lon="6.75201">
        <ele>446</ele>
        <time>2017-07-30T09:38:31.000Z</time>
      </trkpt>
      <trkpt lat="47.52716" lon="6.75206">
        <ele>446.8</ele>
        <time>2017-07-30T09:38:39.000Z</time>
      </trkpt>
      <trkpt lat="47.52715" lon="6.75208">
        <ele>446.8</ele>
        <time>2017-07-30T09:38:40.000Z</time>
      </trkpt>
      <trkpt lat="47.52713" lon="6.75211">
        <ele>447</ele>
        <time>2017-07-30T09:38:41.000Z</time>
      </trkpt>
      <trkpt lat="47.52712" lon="6.75214">
        <ele>447.1</ele>
        <time>2017-07-30T09:38:42.000Z</time>
      </trkpt>
      <trkpt lat="47.52712" lon="6.75214">
        <ele>447.2</ele>
        <time>2017-07-30T09:38:43.000Z</time>
      </trkpt>
      <trkpt lat="47.52704" lon="6.75226">
        <ele>447.7</ele>
        <time>2017-07-30T09:38:44.000Z</time>
      </trkpt>
      <trkpt lat="47.52704" lon="6.75226">
        <ele>448.4</ele>
        <time>2017-07-30T09:38:45.000Z</time>
      </trkpt>
      <trkpt lat="47.52696" lon="6.75241">
        <ele>448.7</ele>
        <time>2017-07-30T09:38:46.000Z</time>
      </trkpt>
      <trkpt lat="47.52693" lon="6.75248">
        <ele>448.3</ele>
        <time>2017-07-30T09:38:47.000Z</time>
      </trkpt>
      <trkpt lat="47.5269" lon="6.75255">
        <ele>448.5</ele>
        <time>2017-07-30T09:38:48.000Z</time>
      </trkpt>
      <trkpt lat="47.52688" lon="6.75262">
        <ele>448.7</ele>
        <time>2017-07-30T09:38:49.000Z</time>
      </trkpt>
      <trkpt lat="47.52687" lon="6.75269">
        <ele>449.6</ele>
        <time>2017-07-30T09:38:50.000Z</time>
      </trkpt>
      <trkpt lat="47.52687" lon="6.75276">
        <ele>450.5</ele>
        <time>2017-07-30T09:38:51.000Z</time>
      </trkpt>
      <trkpt lat="47.52688" lon="6.75282">
        <ele>450.5</ele>
        <time>2017-07-30T09:38:52.000Z</time>
      </trkpt>
      <trkpt lat="47.52688" lon="6.75285">
        <ele>450.4</ele>
        <time>2017-07-30T09:38:53.000Z</time>
      </trkpt>
      <trkpt lat="47.52688" lon="6.7529">
        <ele>450.3</ele>
        <time>2017-07-30T09:38:54.000Z</time>
      </trkpt>
      <trkpt lat="47.52687" lon="6.75298">
        <ele>450.1</ele>
        <time>2017-07-30T09:38:55.000Z</time>
      </trkpt>
      <trkpt lat="47.52686" lon="6.75307">
        <ele>447.9</ele>
        <time>2017-07-30T09:38:56.000Z</time>
      </trkpt>
      <trkpt lat="47.52686" lon="6.75315">
        <ele>446.4</ele>
        <time>2017-07-30T09:38:57.000Z</time>
      </trkpt>
      <trkpt lat="47.52686" lon="6.75322">
        <ele>444.3</ele>
        <time>2017-07-30T09:38:58.000Z</time>
      </trkpt>
      <trkpt lat="47.52686" lon="6.75328">
        <ele>443.1</ele>
        <time>2017-07-30T09:38:59.000Z</time>
      </trkpt>
      <trkpt lat="47.52686" lon="6.75337">
        <ele>442.2</ele>
        <time>2017-07-30T09:39:00.000Z</time>
      </trkpt>
      <trkpt lat="47.52684" lon="6.75347">
        <ele>441.4</ele>
        <time>2017-07-30T09:39:01.000Z</time>
      </trkpt>
      <trkpt lat="47.52681" lon="6.75356">
        <ele>440.8</ele>
        <time>2017-07-30T09:39:02.000Z</time>
      </trkpt>
      <trkpt lat="47.52679" lon="6.75363">
        <ele>440</ele>
        <time>2017-07-30T09:39:03.000Z</time>
      </trkpt>
      <trkpt lat="47.52677" lon="6.75368">
        <ele>440</ele>
        <time>2017-07-30T09:39:04.000Z</time>
      </trkpt>
      <trkpt lat="47.52676" lon="6.75374">
        <ele>439.9</ele>
        <time>2017-07-30T09:39:05.000Z</time>
      </trkpt>
      <trkpt lat="47.52674" lon="6.75382">
        <ele>439.9</ele>
        <time>2017-07-30T09:39:06.000Z</time>
      </trkpt>
      <trkpt lat="47.52673" lon="6.75393">
        <ele>440.6</ele>
        <time>2017-07-30T09:39:07.000Z</time>
      </trkpt>
      <trkpt lat="47.52673" lon="6.75405">
        <ele>441.8</ele>
        <time>2017-07-30T09:39:08.000Z</time>
      </trkpt>
      <trkpt lat="47.52673" lon="6.75417">
        <ele>442.8</ele>
        <time>2017-07-30T09:39:09.000Z</time>
      </trkpt>
      <trkpt lat="47.52674" lon="6.75433">
        <ele>444.1</ele>
        <time>2017-07-30T09:39:10.000Z</time>
      </trkpt>
      <trkpt lat="47.52673" lon="6.75447">
        <ele>445.1</ele>
        <time>2017-07-30T09:39:11.000Z</time>
      </trkpt>
      <trkpt lat="47.52669" lon="6.75456">
        <ele>446.2</ele>
        <time>2017-07-30T09:39:12.000Z</time>
      </trkpt>
      <trkpt lat="47.52663" lon="6.75468">
        <ele>446</ele>
        <time>2017-07-30T09:39:13.000Z</time>
      </trkpt>
      <trkpt lat="47.52657" lon="6.75475">
        <ele>445.7</ele>
        <time>2017-07-30T09:39:14.000Z</time>
      </trkpt>
      <trkpt lat="47.52649" lon="6.75481">
        <ele>445.4</ele>
        <time>2017-07-30T09:39:15.000Z</time>
      </trkpt>
      <trkpt lat="47.52641" lon="6.75486">
        <ele>445.3</ele>
        <time>2017-07-30T09:39:16.000Z</time>
      </trkpt>
      <trkpt lat="47.52631" lon="6.7549">
        <ele>444</ele>
        <time>2017-07-30T09:39:17.000Z</time>
      </trkpt>
      <trkpt lat="47.52625" lon="6.75491">
        <ele>442.3</ele>
        <time>2017-07-30T09:39:18.000Z</time>
      </trkpt>
      <trkpt lat="47.52621" lon="6.75493">
        <ele>442.1</ele>
        <time>2017-07-30T09:39:19.000Z</time>
      </trkpt>
      <trkpt lat="47.52619" lon="6.75494">
        <ele>441.8</ele>
        <time>2017-07-30T09:39:20.000Z</time>
      </trkpt>
      <trkpt lat="47.52617" lon="6.75494">
        <ele>441.6</ele>
        <time>2017-07-30T09:39:21.000Z</time>
      </trkpt>
      <trkpt lat="47.52614" lon="6.75494">
        <ele>441.4</ele>
        <time>2017-07-30T09:39:22.000Z</time>
      </trkpt>
      <trkpt lat="47.52611" lon="6.75492">
        <ele>440.3</ele>
        <time>2017-07-30T09:39:27.000Z</time>
      </trkpt>
      <trkpt lat="47.52601" lon="6.75509">
        <ele>439.9</ele>
        <time>2017-07-30T09:39:28.000Z</time>
      </trkpt>
      <trkpt lat="47.526" lon="6.75512">
        <ele>439.6</ele>
        <time>2017-07-30T09:39:29.000Z</time>
      </trkpt>
      <trkpt lat="47.52599" lon="6.75518">
        <ele>438.1</ele>
        <time>2017-07-30T09:39:30.000Z</time>
      </trkpt>
      <trkpt lat="47.52598" lon="6.75526">
        <ele>436.8</ele>
        <time>2017-07-30T09:39:31.000Z</time>
      </trkpt>
      <trkpt lat="47.52597" lon="6.75534">
        <ele>436.9</ele>
        <time>2017-07-30T09:39:32.000Z</time>
      </trkpt>
      <trkpt lat="47.52595" lon="6.75543">
        <ele>437.2</ele>
        <time>2017-07-30T09:39:33.000Z</time>
      </trkpt>
      <trkpt lat="47.52594" lon="6.75552">
        <ele>436.3</ele>
        <time>2017-07-30T09:39:34.000Z</time>
      </trkpt>
      <trkpt lat="47.5259" lon="6.75557">
        <ele>435.7</ele>
        <time>2017-07-30T09:39:35.000Z</time>
      </trkpt>
      <trkpt lat="47.52586" lon="6.75563">
        <ele>435.3</ele>
        <time>2017-07-30T09:39:36.000Z</time>
      </trkpt>
      <trkpt lat="47.52582" lon="6.75569">
        <ele>434.8</ele>
        <time>2017-07-30T09:39:37.000Z</time>
      </trkpt>
      <trkpt lat="47.52576" lon="6.75578">
        <ele>433.3</ele>
        <time>2017-07-30T09:39:38.000Z</time>
      </trkpt>
      <trkpt lat="47.5257" lon="6.75586">
        <ele>431.6</ele>
        <time>2017-07-30T09:39:39.000Z</time>
      </trkpt>
      <trkpt lat="47.52566" lon="6.75593">
        <ele>428.9</ele>
        <time>2017-07-30T09:39:40.000Z</time>
      </trkpt>
      <trkpt lat="47.52566" lon="6.75593">
        <ele>428.9</ele>
        <time>2017-07-30T09:39:41.000Z</time>
      </trkpt>
      <trkpt lat="47.52554" lon="6.75609">
        <ele>428.8</ele>
        <time>2017-07-30T09:39:42.000Z</time>
      </trkpt>
      <trkpt lat="47.52554" lon="6.75609">
        <ele>428</ele>
        <time>2017-07-30T09:39:44.000Z</time>
      </trkpt>
      <trkpt lat="47.52543" lon="6.75625">
        <ele>427.6</ele>
        <time>2017-07-30T09:39:45.000Z</time>
      </trkpt>
      <trkpt lat="47.52539" lon="6.75628">
        <ele>427</ele>
        <time>2017-07-30T09:39:47.000Z</time>
      </trkpt>
      <trkpt lat="47.52539" lon="6.75629">
        <ele>426.4</ele>
        <time>2017-07-30T09:39:48.000Z</time>
      </trkpt>
      <trkpt lat="47.5254" lon="6.75633">
        <ele>425.3</ele>
        <time>2017-07-30T09:39:50.000Z</time>
      </trkpt>
      <trkpt lat="47.52542" lon="6.75635">
        <ele>424.7</ele>
        <time>2017-07-30T09:39:51.000Z</time>
      </trkpt>
      <trkpt lat="47.52544" lon="6.75637">
        <ele>424.2</ele>
        <time>2017-07-30T09:39:52.000Z</time>
      </trkpt>
      <trkpt lat="47.52546" lon="6.75639">
        <ele>423.7</ele>
        <time>2017-07-30T09:39:53.000Z</time>
      </trkpt>
      <trkpt lat="47.52549" lon="6.75642">
        <ele>418.4</ele>
        <time>2017-07-30T09:39:54.000Z</time>
      </trkpt>
      <trkpt lat="47.5255" lon="6.75642">
        <ele>414.4</ele>
        <time>2017-07-30T09:39:55.000Z</time>
      </trkpt>
      <trkpt lat="47.52554" lon="6.75643">
        <ele>409.5</ele>
        <time>2017-07-30T09:39:56.000Z</time>
      </trkpt>
      <trkpt lat="47.52559" lon="6.75645">
        <ele>406.3</ele>
        <time>2017-07-30T09:39:57.000Z</time>
      </trkpt>
      <trkpt lat="47.52564" lon="6.75646">
        <ele>404.2</ele>
        <time>2017-07-30T09:39:58.000Z</time>
      </trkpt>
      <trkpt lat="47.52569" lon="6.75649">
        <ele>401.9</ele>
        <time>2017-07-30T09:39:59.000Z</time>
      </trkpt>
      <trkpt lat="47.52575" lon="6.75653">
        <ele>400.9</ele>
        <time>2017-07-30T09:40:00.000Z</time>
      </trkpt>
      <trkpt lat="47.5258" lon="6.75657">
        <ele>399.3</ele>
        <time>2017-07-30T09:40:01.000Z</time>
      </trkpt>
      <trkpt lat="47.52583" lon="6.75663">
        <ele>397.3</ele>
        <time>2017-07-30T09:40:02.000Z</time>
      </trkpt>
      <trkpt lat="47.52586" lon="6.75667">
        <ele>395.4</ele>
        <time>2017-07-30T09:40:03.000Z</time>
      </trkpt>
      <trkpt lat="47.52589" lon="6.75671">
        <ele>394</ele>
        <time>2017-07-30T09:40:04.000Z</time>
      </trkpt>
      <trkpt lat="47.52591" lon="6.75675">
        <ele>393.2</ele>
        <time>2017-07-30T09:40:05.000Z</time>
      </trkpt>
      <trkpt lat="47.52594" lon="6.75679">
        <ele>391.6</ele>
        <time>2017-07-30T09:40:06.000Z</time>
      </trkpt>
      <trkpt lat="47.52597" lon="6.75684">
        <ele>390.7</ele>
        <time>2017-07-30T09:40:07.000Z</time>
      </trkpt>
      <trkpt lat="47.526" lon="6.75689">
        <ele>389.6</ele>
        <time>2017-07-30T09:40:08.000Z</time>
      </trkpt>
      <trkpt lat="47.52602" lon="6.75693">
        <ele>389.2</ele>
        <time>2017-07-30T09:40:09.000Z</time>
      </trkpt>
      <trkpt lat="47.52605" lon="6.75698">
        <ele>388.4</ele>
        <time>2017-07-30T09:40:10.000Z</time>
      </trkpt>
      <trkpt lat="47.52608" lon="6.75702">
        <ele>388.1</ele>
        <time>2017-07-30T09:40:11.000Z</time>
      </trkpt>
      <trkpt lat="47.5261" lon="6.75706">
        <ele>388.7</ele>
        <time>2017-07-30T09:40:12.000Z</time>
      </trkpt>
      <trkpt lat="47.52612" lon="6.75712">
        <ele>388.8</ele>
        <time>2017-07-30T09:40:13.000Z</time>
      </trkpt>
      <trkpt lat="47.52614" lon="6.75717">
        <ele>389.6</ele>
        <time>2017-07-30T09:40:14.000Z</time>
      </trkpt>
      <trkpt lat="47.52617" lon="6.75721">
        <ele>389.6</ele>
        <time>2017-07-30T09:40:15.000Z</time>
      </trkpt>
      <trkpt lat="47.52619" lon="6.75725">
        <ele>388.9</ele>
        <time>2017-07-30T09:40:16.000Z</time>
      </trkpt>
      <trkpt lat="47.52622" lon="6.75728">
        <ele>388.6</ele>
        <time>2017-07-30T09:40:17.000Z</time>
      </trkpt>
      <trkpt lat="47.52625" lon="6.75732">
        <ele>389.2</ele>
        <time>2017-07-30T09:40:18.000Z</time>
      </trkpt>
      <trkpt lat="47.52628" lon="6.75736">
        <ele>389.9</ele>
        <time>2017-07-30T09:40:19.000Z</time>
      </trkpt>
      <trkpt lat="47.52631" lon="6.75739">
        <ele>390.8</ele>
        <time>2017-07-30T09:40:20.000Z</time>
      </trkpt>
      <trkpt lat="47.52635" lon="6.75743">
        <ele>391.8</ele>
        <time>2017-07-30T09:40:21.000Z</time>
      </trkpt>
      <trkpt lat="47.52638" lon="6.75748">
        <ele>392.9</ele>
        <time>2017-07-30T09:40:22.000Z</time>
      </trkpt>
      <trkpt lat="47.52641" lon="6.75753">
        <ele>393.8</ele>
        <time>2017-07-30T09:40:23.000Z</time>
      </trkpt>
      <trkpt lat="47.52644" lon="6.75758">
        <ele>395.4</ele>
        <time>2017-07-30T09:40:24.000Z</time>
      </trkpt>
      <trkpt lat="47.52647" lon="6.75762">
        <ele>396.3</ele>
        <time>2017-07-30T09:40:25.000Z</time>
      </trkpt>
      <trkpt lat="47.52652" lon="6.75767">
        <ele>397.5</ele>
        <time>2017-07-30T09:40:26.000Z</time>
      </trkpt>
      <trkpt lat="47.52654" lon="6.75774">
        <ele>398.4</ele>
        <time>2017-07-30T09:40:27.000Z</time>
      </trkpt>
      <trkpt lat="47.52657" lon="6.75781">
        <ele>399.1</ele>
        <time>2017-07-30T09:40:28.000Z</time>
      </trkpt>
      <trkpt lat="47.5266" lon="6.75788">
        <ele>400.3</ele>
        <time>2017-07-30T09:40:29.000Z</time>
      </trkpt>
      <trkpt lat="47.52662" lon="6.75794">
        <ele>399.7</ele>
        <time>2017-07-30T09:40:30.000Z</time>
      </trkpt>
      <trkpt lat="47.52665" lon="6.75797">
        <ele>399.5</ele>
        <time>2017-07-30T09:40:31.000Z</time>
      </trkpt>
      <trkpt lat="47.52668" lon="6.75803">
        <ele>399</ele>
        <time>2017-07-30T09:40:32.000Z</time>
      </trkpt>
      <trkpt lat="47.52671" lon="6.75808">
        <ele>398.3</ele>
        <time>2017-07-30T09:40:33.000Z</time>
      </trkpt>
      <trkpt lat="47.52674" lon="6.75813">
        <ele>397.7</ele>
        <time>2017-07-30T09:40:34.000Z</time>
      </trkpt>
      <trkpt lat="47.52677" lon="6.75818">
        <ele>397.3</ele>
        <time>2017-07-30T09:40:35.000Z</time>
      </trkpt>
      <trkpt lat="47.5268" lon="6.75825">
        <ele>397.5</ele>
        <time>2017-07-30T09:40:36.000Z</time>
      </trkpt>
      <trkpt lat="47.52682" lon="6.75831">
        <ele>397.5</ele>
        <time>2017-07-30T09:40:37.000Z</time>
      </trkpt>
      <trkpt lat="47.52684" lon="6.75837">
        <ele>397.4</ele>
        <time>2017-07-30T09:40:38.000Z</time>
      </trkpt>
      <trkpt lat="47.52686" lon="6.75843">
        <ele>396.9</ele>
        <time>2017-07-30T09:40:39.000Z</time>
      </trkpt>
      <trkpt lat="47.52688" lon="6.75847">
        <ele>396.2</ele>
        <time>2017-07-30T09:40:40.000Z</time>
      </trkpt>
      <trkpt lat="47.5269" lon="6.75852">
        <ele>396.2</ele>
        <time>2017-07-30T09:40:41.000Z</time>
      </trkpt>
      <trkpt lat="47.52692" lon="6.75858">
        <ele>395.9</ele>
        <time>2017-07-30T09:40:42.000Z</time>
      </trkpt>
      <trkpt lat="47.52694" lon="6.75864">
        <ele>395.9</ele>
        <time>2017-07-30T09:40:43.000Z</time>
      </trkpt>
      <trkpt lat="47.52695" lon="6.75869">
        <ele>395.9</ele>
        <time>2017-07-30T09:40:44.000Z</time>
      </trkpt>
      <trkpt lat="47.52697" lon="6.75875">
        <ele>395.9</ele>
        <time>2017-07-30T09:40:45.000Z</time>
      </trkpt>
      <trkpt lat="47.52699" lon="6.7588">
        <ele>395.9</ele>
        <time>2017-07-30T09:40:46.000Z</time>
      </trkpt>
      <trkpt lat="47.527" lon="6.75886">
        <ele>395.9</ele>
        <time>2017-07-30T09:40:47.000Z</time>
      </trkpt>
      <trkpt lat="47.52702" lon="6.75892">
        <ele>395.9</ele>
        <time>2017-07-30T09:40:48.000Z</time>
      </trkpt>
      <trkpt lat="47.52703" lon="6.75895">
        <ele>395.9</ele>
        <time>2017-07-30T09:40:49.000Z</time>
      </trkpt>
      <trkpt lat="47.52705" lon="6.75901">
        <ele>395.9</ele>
        <time>2017-07-30T09:40:50.000Z</time>
      </trkpt>
      <trkpt lat="47.52706" lon="6.75907">
        <ele>396.6</ele>
        <time>2017-07-30T09:40:51.000Z</time>
      </trkpt>
      <trkpt lat="47.52708" lon="6.75913">
        <ele>397.2</ele>
        <time>2017-07-30T09:40:52.000Z</time>
      </trkpt>
      <trkpt lat="47.52709" lon="6.75918">
        <ele>397.2</ele>
        <time>2017-07-30T09:40:53.000Z</time>
      </trkpt>
      <trkpt lat="47.5271" lon="6.75924">
        <ele>397.3</ele>
        <time>2017-07-30T09:40:54.000Z</time>
      </trkpt>
      <trkpt lat="47.52712" lon="6.7593">
        <ele>397.8</ele>
        <time>2017-07-30T09:40:55.000Z</time>
      </trkpt>
      <trkpt lat="47.52712" lon="6.75935">
        <ele>397.8</ele>
        <time>2017-07-30T09:40:56.000Z</time>
      </trkpt>
      <trkpt lat="47.52713" lon="6.7594">
        <ele>397.7</ele>
        <time>2017-07-30T09:40:57.000Z</time>
      </trkpt>
      <trkpt lat="47.52714" lon="6.75944">
        <ele>397.7</ele>
        <time>2017-07-30T09:40:58.000Z</time>
      </trkpt>
      <trkpt lat="47.52715" lon="6.75949">
        <ele>397.7</ele>
        <time>2017-07-30T09:40:59.000Z</time>
      </trkpt>
      <trkpt lat="47.52716" lon="6.75954">
        <ele>397.8</ele>
        <time>2017-07-30T09:41:00.000Z</time>
      </trkpt>
      <trkpt lat="47.52717" lon="6.75959">
        <ele>397.9</ele>
        <time>2017-07-30T09:41:01.000Z</time>
      </trkpt>
      <trkpt lat="47.52718" lon="6.75964">
        <ele>398</ele>
        <time>2017-07-30T09:41:02.000Z</time>
      </trkpt>
      <trkpt lat="47.52719" lon="6.75969">
        <ele>398</ele>
        <time>2017-07-30T09:41:03.000Z</time>
      </trkpt>
      <trkpt lat="47.5272" lon="6.75974">
        <ele>398</ele>
        <time>2017-07-30T09:41:04.000Z</time>
      </trkpt>
      <trkpt lat="47.52722" lon="6.75976">
        <ele>398.1</ele>
        <time>2017-07-30T09:41:05.000Z</time>
      </trkpt>
      <trkpt lat="47.52725" lon="6.75978">
        <ele>398.7</ele>
        <time>2017-07-30T09:41:06.000Z</time>
      </trkpt>
      <trkpt lat="47.52727" lon="6.75979">
        <ele>398.7</ele>
        <time>2017-07-30T09:41:07.000Z</time>
      </trkpt>
      <trkpt lat="47.5273" lon="6.7598">
        <ele>398.8</ele>
        <time>2017-07-30T09:41:07.999Z</time>
      </trkpt>
      <trkpt lat="47.52733" lon="6.75981">
        <ele>398.9</ele>
        <time>2017-07-30T09:41:08.999Z</time>
      </trkpt>
      <trkpt lat="47.52735" lon="6.75982">
        <ele>399.1</ele>
        <time>2017-07-30T09:41:09.999Z</time>
      </trkpt>
      <trkpt lat="47.52738" lon="6.75982">
        <ele>399.1</ele>
        <time>2017-07-30T09:41:10.999Z</time>
      </trkpt>
      <trkpt lat="47.52741" lon="6.75982">
        <ele>399.3</ele>
        <time>2017-07-30T09:41:11.999Z</time>
      </trkpt>
      <trkpt lat="47.52746" lon="6.75983">
        <ele>400.2</ele>
        <time>2017-07-30T09:41:12.999Z</time>
      </trkpt>
      <trkpt lat="47.5275" lon="6.75983">
        <ele>400.4</ele>
        <time>2017-07-30T09:41:13.999Z</time>
      </trkpt>
      <trkpt lat="47.52753" lon="6.75984">
        <ele>400.5</ele>
        <time>2017-07-30T09:41:14.999Z</time>
      </trkpt>
      <trkpt lat="47.52756" lon="6.75985">
        <ele>400.7</ele>
        <time>2017-07-30T09:41:15.999Z</time>
      </trkpt>
      <trkpt lat="47.52758" lon="6.75986">
        <ele>400.8</ele>
        <time>2017-07-30T09:41:16.999Z</time>
      </trkpt>
      <trkpt lat="47.52761" lon="6.75988">
        <ele>400.9</ele>
        <time>2017-07-30T09:41:17.999Z</time>
      </trkpt>
      <trkpt lat="47.52763" lon="6.75991">
        <ele>400.9</ele>
        <time>2017-07-30T09:41:18.999Z</time>
      </trkpt>
      <trkpt lat="47.52766" lon="6.75995">
        <ele>401</ele>
        <time>2017-07-30T09:41:19.999Z</time>
      </trkpt>
      <trkpt lat="47.52769" lon="6.75999">
        <ele>401.1</ele>
        <time>2017-07-30T09:41:20.999Z</time>
      </trkpt>
      <trkpt lat="47.52772" lon="6.76003">
        <ele>401.2</ele>
        <time>2017-07-30T09:41:21.999Z</time>
      </trkpt>
      <trkpt lat="47.52775" lon="6.76008">
        <ele>401.3</ele>
        <time>2017-07-30T09:41:22.999Z</time>
      </trkpt>
      <trkpt lat="47.52777" lon="6.76012">
        <ele>401.4</ele>
        <time>2017-07-30T09:41:23.999Z</time>
      </trkpt>
      <trkpt lat="47.52779" lon="6.76016">
        <ele>401.4</ele>
        <time>2017-07-30T09:41:24.999Z</time>
      </trkpt>
      <trkpt lat="47.52781" lon="6.76021">
        <ele>401.9</ele>
        <time>2017-07-30T09:41:25.999Z</time>
      </trkpt>
      <trkpt lat="47.52783" lon="6.76027">
        <ele>402.7</ele>
        <time>2017-07-30T09:41:26.999Z</time>
      </trkpt>
      <trkpt lat="47.52785" lon="6.76033">
        <ele>403.2</ele>
        <time>2017-07-30T09:41:27.999Z</time>
      </trkpt>
      <trkpt lat="47.52787" lon="6.76037">
        <ele>403.3</ele>
        <time>2017-07-30T09:41:28.999Z</time>
      </trkpt>
      <trkpt lat="47.52788" lon="6.76043">
        <ele>403.7</ele>
        <time>2017-07-30T09:41:29.999Z</time>
      </trkpt>
      <trkpt lat="47.52789" lon="6.76049">
        <ele>403.8</ele>
        <time>2017-07-30T09:41:30.999Z</time>
      </trkpt>
      <trkpt lat="47.5279" lon="6.76055">
        <ele>403.8</ele>
        <time>2017-07-30T09:41:31.999Z</time>
      </trkpt>
      <trkpt lat="47.5279" lon="6.76059">
        <ele>403.9</ele>
        <time>2017-07-30T09:41:32.999Z</time>
      </trkpt>
      <trkpt lat="47.52791" lon="6.76064">
        <ele>403.7</ele>
        <time>2017-07-30T09:41:33.999Z</time>
      </trkpt>
      <trkpt lat="47.52793" lon="6.76069">
        <ele>404.1</ele>
        <time>2017-07-30T09:41:34.999Z</time>
      </trkpt>
      <trkpt lat="47.52794" lon="6.76074">
        <ele>404.3</ele>
        <time>2017-07-30T09:41:35.999Z</time>
      </trkpt>
      <trkpt lat="47.52795" lon="6.7608">
        <ele>404.3</ele>
        <time>2017-07-30T09:41:36.999Z</time>
      </trkpt>
      <trkpt lat="47.52796" lon="6.76086">
        <ele>404.3</ele>
        <time>2017-07-30T09:41:37.999Z</time>
      </trkpt>
      <trkpt lat="47.52798" lon="6.76093">
        <ele>403.9</ele>
        <time>2017-07-30T09:41:38.999Z</time>
      </trkpt>
      <trkpt lat="47.52799" lon="6.76099">
        <ele>404.4</ele>
        <time>2017-07-30T09:41:39.999Z</time>
      </trkpt>
      <trkpt lat="47.52801" lon="6.76104">
        <ele>404.4</ele>
        <time>2017-07-30T09:41:40.999Z</time>
      </trkpt>
      <trkpt lat="47.52802" lon="6.76109">
        <ele>404.4</ele>
        <time>2017-07-30T09:41:41.999Z</time>
      </trkpt>
      <trkpt lat="47.52803" lon="6.76115">
        <ele>403.8</ele>
        <time>2017-07-30T09:41:42.999Z</time>
      </trkpt>
      <trkpt lat="47.52804" lon="6.76119">
        <ele>403.8</ele>
        <time>2017-07-30T09:41:43.999Z</time>
      </trkpt>
      <trkpt lat="47.52805" lon="6.76122">
        <ele>403.8</ele>
        <time>2017-07-30T09:41:44.999Z</time>
      </trkpt>
      <trkpt lat="47.52806" lon="6.76127">
        <ele>403.7</ele>
        <time>2017-07-30T09:41:45.999Z</time>
      </trkpt>
      <trkpt lat="47.52808" lon="6.76132">
        <ele>403.6</ele>
        <time>2017-07-30T09:41:46.999Z</time>
      </trkpt>
      <trkpt lat="47.52809" lon="6.76138">
        <ele>403.5</ele>
        <time>2017-07-30T09:41:47.999Z</time>
      </trkpt>
      <trkpt lat="47.52811" lon="6.76144">
        <ele>403.6</ele>
        <time>2017-07-30T09:41:48.999Z</time>
      </trkpt>
      <trkpt lat="47.52812" lon="6.76148">
        <ele>403.4</ele>
        <time>2017-07-30T09:41:49.999Z</time>
      </trkpt>
      <trkpt lat="47.52813" lon="6.76153">
        <ele>403.4</ele>
        <time>2017-07-30T09:41:50.999Z</time>
      </trkpt>
      <trkpt lat="47.52814" lon="6.76156">
        <ele>403.5</ele>
        <time>2017-07-30T09:41:51.999Z</time>
      </trkpt>
      <trkpt lat="47.52815" lon="6.7616">
        <ele>403.4</ele>
        <time>2017-07-30T09:41:52.999Z</time>
      </trkpt>
      <trkpt lat="47.52817" lon="6.76166">
        <ele>403.4</ele>
        <time>2017-07-30T09:41:53.999Z</time>
      </trkpt>
      <trkpt lat="47.52818" lon="6.7617">
        <ele>403.4</ele>
        <time>2017-07-30T09:41:54.999Z</time>
      </trkpt>
      <trkpt lat="47.52819" lon="6.76176">
        <ele>403.4</ele>
        <time>2017-07-30T09:41:55.999Z</time>
      </trkpt>
      <trkpt lat="47.52821" lon="6.7618">
        <ele>403.3</ele>
        <time>2017-07-30T09:41:56.999Z</time>
      </trkpt>
      <trkpt lat="47.52822" lon="6.76184">
        <ele>403.5</ele>
        <time>2017-07-30T09:41:57.999Z</time>
      </trkpt>
      <trkpt lat="47.52824" lon="6.76189">
        <ele>403.5</ele>
        <time>2017-07-30T09:41:58.999Z</time>
      </trkpt>
      <trkpt lat="47.52825" lon="6.76193">
        <ele>403.6</ele>
        <time>2017-07-30T09:41:59.999Z</time>
      </trkpt>
      <trkpt lat="47.52827" lon="6.76199">
        <ele>403.5</ele>
        <time>2017-07-30T09:42:00.999Z</time>
      </trkpt>
      <trkpt lat="47.52828" lon="6.76204">
        <ele>403.5</ele>
        <time>2017-07-30T09:42:01.999Z</time>
      </trkpt>
      <trkpt lat="47.5283" lon="6.7621">
        <ele>403.1</ele>
        <time>2017-07-30T09:42:02.999Z</time>
      </trkpt>
      <trkpt lat="47.52831" lon="6.76215">
        <ele>402.6</ele>
        <time>2017-07-30T09:42:03.999Z</time>
      </trkpt>
      <trkpt lat="47.52832" lon="6.7622">
        <ele>402.3</ele>
        <time>2017-07-30T09:42:04.999Z</time>
      </trkpt>
      <trkpt lat="47.52834" lon="6.76226">
        <ele>402.4</ele>
        <time>2017-07-30T09:42:05.999Z</time>
      </trkpt>
      <trkpt lat="47.52835" lon="6.76231">
        <ele>402.6</ele>
        <time>2017-07-30T09:42:06.999Z</time>
      </trkpt>
      <trkpt lat="47.52836" lon="6.76236">
        <ele>402.6</ele>
        <time>2017-07-30T09:42:07.999Z</time>
      </trkpt>
      <trkpt lat="47.52838" lon="6.76241">
        <ele>402.5</ele>
        <time>2017-07-30T09:42:08.999Z</time>
      </trkpt>
      <trkpt lat="47.52839" lon="6.76247">
        <ele>402.3</ele>
        <time>2017-07-30T09:42:09.999Z</time>
      </trkpt>
      <trkpt lat="47.52841" lon="6.76253">
        <ele>402.2</ele>
        <time>2017-07-30T09:42:10.999Z</time>
      </trkpt>
      <trkpt lat="47.52843" lon="6.76259">
        <ele>401.9</ele>
        <time>2017-07-30T09:42:11.999Z</time>
      </trkpt>
      <trkpt lat="47.52845" lon="6.76264">
        <ele>402</ele>
        <time>2017-07-30T09:42:12.999Z</time>
      </trkpt>
      <trkpt lat="47.52847" lon="6.76271">
        <ele>402.3</ele>
        <time>2017-07-30T09:42:13.999Z</time>
      </trkpt>
      <trkpt lat="47.5285" lon="6.76278">
        <ele>402.5</ele>
        <time>2017-07-30T09:42:14.999Z</time>
      </trkpt>
      <trkpt lat="47.52852" lon="6.76286">
        <ele>402.3</ele>
        <time>2017-07-30T09:42:15.999Z</time>
      </trkpt>
      <trkpt lat="47.52855" lon="6.76292">
        <ele>402.3</ele>
        <time>2017-07-30T09:42:16.999Z</time>
      </trkpt>
      <trkpt lat="47.52857" lon="6.76299">
        <ele>402.2</ele>
        <time>2017-07-30T09:42:17.999Z</time>
      </trkpt>
      <trkpt lat="47.5286" lon="6.76306">
        <ele>402.4</ele>
        <time>2017-07-30T09:42:18.999Z</time>
      </trkpt>
      <trkpt lat="47.52863" lon="6.76313">
        <ele>402.6</ele>
        <time>2017-07-30T09:42:19.999Z</time>
      </trkpt>
      <trkpt lat="47.52865" lon="6.7632">
        <ele>402.9</ele>
        <time>2017-07-30T09:42:20.999Z</time>
      </trkpt>
      <trkpt lat="47.52868" lon="6.76327">
        <ele>402.8</ele>
        <time>2017-07-30T09:42:21.999Z</time>
      </trkpt>
      <trkpt lat="47.5287" lon="6.76335">
        <ele>402.7</ele>
        <time>2017-07-30T09:42:22.999Z</time>
      </trkpt>
      <trkpt lat="47.52872" lon="6.76341">
        <ele>402.6</ele>
        <time>2017-07-30T09:42:23.999Z</time>
      </trkpt>
      <trkpt lat="47.52874" lon="6.76347">
        <ele>402.3</ele>
        <time>2017-07-30T09:42:24.999Z</time>
      </trkpt>
      <trkpt lat="47.52877" lon="6.76354">
        <ele>402.3</ele>
        <time>2017-07-30T09:42:25.999Z</time>
      </trkpt>
      <trkpt lat="47.52879" lon="6.7636">
        <ele>402.4</ele>
        <time>2017-07-30T09:42:26.999Z</time>
      </trkpt>
      <trkpt lat="47.52881" lon="6.76367">
        <ele>401.7</ele>
        <time>2017-07-30T09:42:27.999Z</time>
      </trkpt>
      <trkpt lat="47.52883" lon="6.76372">
        <ele>401.3</ele>
        <time>2017-07-30T09:42:28.999Z</time>
      </trkpt>
      <trkpt lat="47.52885" lon="6.76376">
        <ele>401.4</ele>
        <time>2017-07-30T09:42:29.999Z</time>
      </trkpt>
      <trkpt lat="47.52887" lon="6.7638">
        <ele>402.3</ele>
        <time>2017-07-30T09:42:30.999Z</time>
      </trkpt>
      <trkpt lat="47.52889" lon="6.76385">
        <ele>403.2</ele>
        <time>2017-07-30T09:42:31.999Z</time>
      </trkpt>
      <trkpt lat="47.52891" lon="6.76391">
        <ele>404.2</ele>
        <time>2017-07-30T09:42:32.999Z</time>
      </trkpt>
      <trkpt lat="47.52893" lon="6.76397">
        <ele>404.6</ele>
        <time>2017-07-30T09:42:33.999Z</time>
      </trkpt>
      <trkpt lat="47.52894" lon="6.76403">
        <ele>404.1</ele>
        <time>2017-07-30T09:42:34.999Z</time>
      </trkpt>
      <trkpt lat="47.52896" lon="6.76409">
        <ele>403.8</ele>
        <time>2017-07-30T09:42:35.999Z</time>
      </trkpt>
      <trkpt lat="47.52898" lon="6.76415">
        <ele>403.6</ele>
        <time>2017-07-30T09:42:36.999Z</time>
      </trkpt>
      <trkpt lat="47.52901" lon="6.76424">
        <ele>403.6</ele>
        <time>2017-07-30T09:42:37.999Z</time>
      </trkpt>
      <trkpt lat="47.52902" lon="6.76432">
        <ele>403.5</ele>
        <time>2017-07-30T09:42:38.999Z</time>
      </trkpt>
      <trkpt lat="47.52903" lon="6.7644">
        <ele>403.2</ele>
        <time>2017-07-30T09:42:39.999Z</time>
      </trkpt>
      <trkpt lat="47.52906" lon="6.76447">
        <ele>403.4</ele>
        <time>2017-07-30T09:42:40.999Z</time>
      </trkpt>
      <trkpt lat="47.52908" lon="6.76455">
        <ele>403.7</ele>
        <time>2017-07-30T09:42:41.999Z</time>
      </trkpt>
      <trkpt lat="47.52911" lon="6.76461">
        <ele>403.5</ele>
        <time>2017-07-30T09:42:42.999Z</time>
      </trkpt>
      <trkpt lat="47.52913" lon="6.76468">
        <ele>402.9</ele>
        <time>2017-07-30T09:42:43.999Z</time>
      </trkpt>
      <trkpt lat="47.52914" lon="6.76474">
        <ele>402.7</ele>
        <time>2017-07-30T09:42:44.999Z</time>
      </trkpt>
      <trkpt lat="47.52916" lon="6.7648">
        <ele>402.7</ele>
        <time>2017-07-30T09:42:45.999Z</time>
      </trkpt>
      <trkpt lat="47.52918" lon="6.76488">
        <ele>402.8</ele>
        <time>2017-07-30T09:42:46.999Z</time>
      </trkpt>
      <trkpt lat="47.52919" lon="6.76494">
        <ele>402.6</ele>
        <time>2017-07-30T09:42:47.999Z</time>
      </trkpt>
      <trkpt lat="47.52921" lon="6.765">
        <ele>402.2</ele>
        <time>2017-07-30T09:42:48.999Z</time>
      </trkpt>
      <trkpt lat="47.52922" lon="6.76505">
        <ele>402.2</ele>
        <time>2017-07-30T09:42:49.999Z</time>
      </trkpt>
      <trkpt lat="47.52922" lon="6.76509">
        <ele>402.3</ele>
        <time>2017-07-30T09:42:50.999Z</time>
      </trkpt>
      <trkpt lat="47.52923" lon="6.76514">
        <ele>402.3</ele>
        <time>2017-07-30T09:42:51.999Z</time>
      </trkpt>
      <trkpt lat="47.52923" lon="6.76521">
        <ele>402.4</ele>
        <time>2017-07-30T09:42:52.999Z</time>
      </trkpt>
      <trkpt lat="47.52923" lon="6.76527">
        <ele>403.3</ele>
        <time>2017-07-30T09:42:53.999Z</time>
      </trkpt>
      <trkpt lat="47.52923" lon="6.76533">
        <ele>404.2</ele>
        <time>2017-07-30T09:42:54.999Z</time>
      </trkpt>
      <trkpt lat="47.52923" lon="6.76539">
        <ele>405.1</ele>
        <time>2017-07-30T09:42:55.999Z</time>
      </trkpt>
      <trkpt lat="47.52923" lon="6.76547">
        <ele>406.2</ele>
        <time>2017-07-30T09:42:56.999Z</time>
      </trkpt>
      <trkpt lat="47.52923" lon="6.76554">
        <ele>407.2</ele>
        <time>2017-07-30T09:42:57.999Z</time>
      </trkpt>
      <trkpt lat="47.52923" lon="6.76561">
        <ele>407.8</ele>
        <time>2017-07-30T09:42:58.999Z</time>
      </trkpt>
      <trkpt lat="47.52922" lon="6.76569">
        <ele>407.1</ele>
        <time>2017-07-30T09:42:59.999Z</time>
      </trkpt>
      <trkpt lat="47.52922" lon="6.76576">
        <ele>406</ele>
        <time>2017-07-30T09:43:00.999Z</time>
      </trkpt>
      <trkpt lat="47.52921" lon="6.76583">
        <ele>405.8</ele>
        <time>2017-07-30T09:43:01.999Z</time>
      </trkpt>
      <trkpt lat="47.52921" lon="6.76591">
        <ele>405.3</ele>
        <time>2017-07-30T09:43:02.999Z</time>
      </trkpt>
      <trkpt lat="47.52921" lon="6.76599">
        <ele>405.4</ele>
        <time>2017-07-30T09:43:03.999Z</time>
      </trkpt>
      <trkpt lat="47.52922" lon="6.76606">
        <ele>405.6</ele>
        <time>2017-07-30T09:43:04.999Z</time>
      </trkpt>
      <trkpt lat="47.52922" lon="6.76613">
        <ele>405.3</ele>
        <time>2017-07-30T09:43:05.999Z</time>
      </trkpt>
      <trkpt lat="47.52923" lon="6.7662">
        <ele>405.6</ele>
        <time>2017-07-30T09:43:06.999Z</time>
      </trkpt>
      <trkpt lat="47.52924" lon="6.76625">
        <ele>405.6</ele>
        <time>2017-07-30T09:43:07.999Z</time>
      </trkpt>
      <trkpt lat="47.52926" lon="6.76631">
        <ele>405.7</ele>
        <time>2017-07-30T09:43:08.999Z</time>
      </trkpt>
      <trkpt lat="47.52927" lon="6.76635">
        <ele>406.4</ele>
        <time>2017-07-30T09:43:09.999Z</time>
      </trkpt>
      <trkpt lat="47.52928" lon="6.76641">
        <ele>406.4</ele>
        <time>2017-07-30T09:43:10.999Z</time>
      </trkpt>
      <trkpt lat="47.52929" lon="6.76646">
        <ele>406.5</ele>
        <time>2017-07-30T09:43:11.999Z</time>
      </trkpt>
      <trkpt lat="47.5293" lon="6.76649">
        <ele>406.4</ele>
        <time>2017-07-30T09:43:12.999Z</time>
      </trkpt>
      <trkpt lat="47.52931" lon="6.76654">
        <ele>406.4</ele>
        <time>2017-07-30T09:43:14.999Z</time>
      </trkpt>
      <trkpt lat="47.52934" lon="6.76658">
        <ele>406.2</ele>
        <time>2017-07-30T09:43:15.999Z</time>
      </trkpt>
      <trkpt lat="47.52937" lon="6.76661">
        <ele>406.2</ele>
        <time>2017-07-30T09:43:16.999Z</time>
      </trkpt>
      <trkpt lat="47.52938" lon="6.76665">
        <ele>406.1</ele>
        <time>2017-07-30T09:43:17.999Z</time>
      </trkpt>
      <trkpt lat="47.52938" lon="6.76671">
        <ele>406.1</ele>
        <time>2017-07-30T09:43:18.999Z</time>
      </trkpt>
      <trkpt lat="47.52938" lon="6.76678">
        <ele>406.1</ele>
        <time>2017-07-30T09:43:19.999Z</time>
      </trkpt>
      <trkpt lat="47.52939" lon="6.76685">
        <ele>406.1</ele>
        <time>2017-07-30T09:43:20.999Z</time>
      </trkpt>
      <trkpt lat="47.5294" lon="6.76691">
        <ele>406.1</ele>
        <time>2017-07-30T09:43:21.999Z</time>
      </trkpt>
      <trkpt lat="47.52939" lon="6.76697">
        <ele>406.1</ele>
        <time>2017-07-30T09:43:22.999Z</time>
      </trkpt>
      <trkpt lat="47.52938" lon="6.76703">
        <ele>406.1</ele>
        <time>2017-07-30T09:43:23.999Z</time>
      </trkpt>
      <trkpt lat="47.52938" lon="6.76711">
        <ele>406.2</ele>
        <time>2017-07-30T09:43:24.999Z</time>
      </trkpt>
      <trkpt lat="47.52938" lon="6.76719">
        <ele>406.2</ele>
        <time>2017-07-30T09:43:25.999Z</time>
      </trkpt>
      <trkpt lat="47.52937" lon="6.76726">
        <ele>406.3</ele>
        <time>2017-07-30T09:43:26.999Z</time>
      </trkpt>
      <trkpt lat="47.52936" lon="6.76734">
        <ele>406.4</ele>
        <time>2017-07-30T09:43:27.999Z</time>
      </trkpt>
      <trkpt lat="47.52935" lon="6.76739">
        <ele>406.5</ele>
        <time>2017-07-30T09:43:28.999Z</time>
      </trkpt>
      <trkpt lat="47.52935" lon="6.76744">
        <ele>406.6</ele>
        <time>2017-07-30T09:43:29.999Z</time>
      </trkpt>
      <trkpt lat="47.52934" lon="6.7675">
        <ele>408.2</ele>
        <time>2017-07-30T09:43:30.999Z</time>
      </trkpt>
      <trkpt lat="47.52934" lon="6.76754">
        <ele>408.2</ele>
        <time>2017-07-30T09:43:31.999Z</time>
      </trkpt>
      <trkpt lat="47.52932" lon="6.76756">
        <ele>408.4</ele>
        <time>2017-07-30T09:43:32.999Z</time>
      </trkpt>
      <trkpt lat="47.52931" lon="6.7676">
        <ele>408.6</ele>
        <time>2017-07-30T09:43:33.999Z</time>
      </trkpt>
      <trkpt lat="47.52928" lon="6.76765">
        <ele>408.8</ele>
        <time>2017-07-30T09:43:34.999Z</time>
      </trkpt>
      <trkpt lat="47.52926" lon="6.7677">
        <ele>409</ele>
        <time>2017-07-30T09:43:35.999Z</time>
      </trkpt>
      <trkpt lat="47.52925" lon="6.76777">
        <ele>409.3</ele>
        <time>2017-07-30T09:43:36.999Z</time>
      </trkpt>
      <trkpt lat="47.52924" lon="6.76783">
        <ele>409.5</ele>
        <time>2017-07-30T09:43:37.999Z</time>
      </trkpt>
      <trkpt lat="47.52923" lon="6.7679">
        <ele>409.7</ele>
        <time>2017-07-30T09:43:38.999Z</time>
      </trkpt>
      <trkpt lat="47.52922" lon="6.76796">
        <ele>409.8</ele>
        <time>2017-07-30T09:43:39.999Z</time>
      </trkpt>
      <trkpt lat="47.52922" lon="6.76802">
        <ele>409.8</ele>
        <time>2017-07-30T09:43:40.999Z</time>
      </trkpt>
      <trkpt lat="47.52921" lon="6.76809">
        <ele>409.8</ele>
        <time>2017-07-30T09:43:41.999Z</time>
      </trkpt>
      <trkpt lat="47.5292" lon="6.76815">
        <ele>409.8</ele>
        <time>2017-07-30T09:43:42.999Z</time>
      </trkpt>
      <trkpt lat="47.52918" lon="6.76819">
        <ele>409.7</ele>
        <time>2017-07-30T09:43:43.999Z</time>
      </trkpt>
      <trkpt lat="47.52916" lon="6.76822">
        <ele>409.7</ele>
        <time>2017-07-30T09:43:44.999Z</time>
      </trkpt>
      <trkpt lat="47.52914" lon="6.76825">
        <ele>409.6</ele>
        <time>2017-07-30T09:43:45.999Z</time>
      </trkpt>
      <trkpt lat="47.52911" lon="6.76828">
        <ele>409.9</ele>
        <time>2017-07-30T09:43:49.999Z</time>
      </trkpt>
      <trkpt lat="47.52906" lon="6.76831">
        <ele>410</ele>
        <time>2017-07-30T09:43:50.999Z</time>
      </trkpt>
      <trkpt lat="47.52906" lon="6.76831">
        <ele>410.4</ele>
        <time>2017-07-30T09:43:53.999Z</time>
      </trkpt>
      <trkpt lat="47.52894" lon="6.76832">
        <ele>410.4</ele>
        <time>2017-07-30T09:43:54.999Z</time>
      </trkpt>
      <trkpt lat="47.52894" lon="6.76832">
        <ele>410.8</ele>
        <time>2017-07-30T09:43:57.999Z</time>
      </trkpt>
      <trkpt lat="47.52882" lon="6.76831">
        <ele>410.9</ele>
        <time>2017-07-30T09:43:58.999Z</time>
      </trkpt>
      <trkpt lat="47.52882" lon="6.76831">
        <ele>411</ele>
        <time>2017-07-30T09:43:59.999Z</time>
      </trkpt>
      <trkpt lat="47.52876" lon="6.76831">
        <ele>411.1</ele>
        <time>2017-07-30T09:44:00.999Z</time>
      </trkpt>
      <trkpt lat="47.52872" lon="6.76832">
        <ele>411.1</ele>
        <time>2017-07-30T09:44:01.999Z</time>
      </trkpt>
      <trkpt lat="47.52868" lon="6.76832">
        <ele>411.2</ele>
        <time>2017-07-30T09:44:02.999Z</time>
      </trkpt>
      <trkpt lat="47.52864" lon="6.76834">
        <ele>411.4</ele>
        <time>2017-07-30T09:44:04.999Z</time>
      </trkpt>
      <trkpt lat="47.52862" lon="6.76834">
        <ele>411.5</ele>
        <time>2017-07-30T09:44:05.999Z</time>
      </trkpt>
      <trkpt lat="47.5286" lon="6.76835">
        <ele>411.6</ele>
        <time>2017-07-30T09:44:06.999Z</time>
      </trkpt>
      <trkpt lat="47.52858" lon="6.76836">
        <ele>411.7</ele>
        <time>2017-07-30T09:44:07.999Z</time>
      </trkpt>
      <trkpt lat="47.52853" lon="6.76836">
        <ele>411.9</ele>
        <time>2017-07-30T09:44:09.999Z</time>
      </trkpt>
      <trkpt lat="47.52851" lon="6.76836">
        <ele>411.9</ele>
        <time>2017-07-30T09:44:10.999Z</time>
      </trkpt>
      <trkpt lat="47.52849" lon="6.76837">
        <ele>412.2</ele>
        <time>2017-07-30T09:44:12.999Z</time>
      </trkpt>
      <trkpt lat="47.52847" lon="6.76838">
        <ele>412.3</ele>
        <time>2017-07-30T09:44:13.999Z</time>
      </trkpt>
      <trkpt lat="47.52843" lon="6.76839">
        <ele>412.6</ele>
        <time>2017-07-30T09:44:15.999Z</time>
      </trkpt>
      <trkpt lat="47.52841" lon="6.76839">
        <ele>412.7</ele>
        <time>2017-07-30T09:44:16.999Z</time>
      </trkpt>
      <trkpt lat="47.52837" lon="6.76839">
        <ele>412.9</ele>
        <time>2017-07-30T09:44:18.999Z</time>
      </trkpt>
      <trkpt lat="47.52835" lon="6.7684">
        <ele>413.1</ele>
        <time>2017-07-30T09:44:19.999Z</time>
      </trkpt>
      <trkpt lat="47.52832" lon="6.76841">
        <ele>413.3</ele>
        <time>2017-07-30T09:44:21.999Z</time>
      </trkpt>
      <trkpt lat="47.5283" lon="6.76841">
        <ele>413.4</ele>
        <time>2017-07-30T09:44:22.999Z</time>
      </trkpt>
      <trkpt lat="47.52826" lon="6.76842">
        <ele>413.8</ele>
        <time>2017-07-30T09:44:24.999Z</time>
      </trkpt>
      <trkpt lat="47.52824" lon="6.76843">
        <ele>414</ele>
        <time>2017-07-30T09:44:25.999Z</time>
      </trkpt>
      <trkpt lat="47.5282" lon="6.76845">
        <ele>414.4</ele>
        <time>2017-07-30T09:44:27.999Z</time>
      </trkpt>
      <trkpt lat="47.52818" lon="6.76846">
        <ele>414.7</ele>
        <time>2017-07-30T09:44:28.999Z</time>
      </trkpt>
      <trkpt lat="47.52816" lon="6.76846">
        <ele>414.8</ele>
        <time>2017-07-30T09:44:29.999Z</time>
      </trkpt>
      <trkpt lat="47.52814" lon="6.76847">
        <ele>415</ele>
        <time>2017-07-30T09:44:30.999Z</time>
      </trkpt>
      <trkpt lat="47.5281" lon="6.7685">
        <ele>415.4</ele>
        <time>2017-07-30T09:44:32.999Z</time>
      </trkpt>
      <trkpt lat="47.52808" lon="6.76851">
        <ele>415.7</ele>
        <time>2017-07-30T09:44:33.999Z</time>
      </trkpt>
      <trkpt lat="47.52804" lon="6.76853">
        <ele>416.2</ele>
        <time>2017-07-30T09:44:35.999Z</time>
      </trkpt>
      <trkpt lat="47.52803" lon="6.76854">
        <ele>416.4</ele>
        <time>2017-07-30T09:44:36.999Z</time>
      </trkpt>
      <trkpt lat="47.528" lon="6.76855">
        <ele>416.6</ele>
        <time>2017-07-30T09:44:37.999Z</time>
      </trkpt>
      <trkpt lat="47.52798" lon="6.76856">
        <ele>416.8</ele>
        <time>2017-07-30T09:44:38.999Z</time>
      </trkpt>
      <trkpt lat="47.52794" lon="6.76857">
        <ele>417.3</ele>
        <time>2017-07-30T09:44:40.999Z</time>
      </trkpt>
      <trkpt lat="47.52792" lon="6.76858">
        <ele>417.4</ele>
        <time>2017-07-30T09:44:41.999Z</time>
      </trkpt>
      <trkpt lat="47.52788" lon="6.7686">
        <ele>417.3</ele>
        <time>2017-07-30T09:44:43.999Z</time>
      </trkpt>
      <trkpt lat="47.52786" lon="6.76861">
        <ele>417.3</ele>
        <time>2017-07-30T09:44:44.999Z</time>
      </trkpt>
      <trkpt lat="47.52784" lon="6.76862">
        <ele>417.3</ele>
        <time>2017-07-30T09:44:45.999Z</time>
      </trkpt>
      <trkpt lat="47.5278" lon="6.76862">
        <ele>417.4</ele>
        <time>2017-07-30T09:44:46.999Z</time>
      </trkpt>
      <trkpt lat="47.52777" lon="6.76864">
        <ele>417.4</ele>
        <time>2017-07-30T09:44:48.999Z</time>
      </trkpt>
      <trkpt lat="47.52775" lon="6.76864">
        <ele>417.5</ele>
        <time>2017-07-30T09:44:49.999Z</time>
      </trkpt>
      <trkpt lat="47.52771" lon="6.76865">
        <ele>417.7</ele>
        <time>2017-07-30T09:44:51.999Z</time>
      </trkpt>
      <trkpt lat="47.52769" lon="6.76865">
        <ele>417.8</ele>
        <time>2017-07-30T09:44:52.999Z</time>
      </trkpt>
      <trkpt lat="47.52764" lon="6.76866">
        <ele>418.2</ele>
        <time>2017-07-30T09:44:55.999Z</time>
      </trkpt>
      <trkpt lat="47.52762" lon="6.76867">
        <ele>418.3</ele>
        <time>2017-07-30T09:44:56.999Z</time>
      </trkpt>
      <trkpt lat="47.52759" lon="6.76868">
        <ele>418.5</ele>
        <time>2017-07-30T09:44:57.999Z</time>
      </trkpt>
      <trkpt lat="47.52757" lon="6.76869">
        <ele>418.6</ele>
        <time>2017-07-30T09:44:58.999Z</time>
      </trkpt>
      <trkpt lat="47.52755" lon="6.76869">
        <ele>418.7</ele>
        <time>2017-07-30T09:44:59.999Z</time>
      </trkpt>
      <trkpt lat="47.52752" lon="6.7687">
        <ele>418.8</ele>
        <time>2017-07-30T09:45:00.999Z</time>
      </trkpt>
      <trkpt lat="47.52748" lon="6.76871">
        <ele>419.1</ele>
        <time>2017-07-30T09:45:02.999Z</time>
      </trkpt>
      <trkpt lat="47.52746" lon="6.76871">
        <ele>419.2</ele>
        <time>2017-07-30T09:45:03.999Z</time>
      </trkpt>
      <trkpt lat="47.52743" lon="6.76872">
        <ele>419.5</ele>
        <time>2017-07-30T09:45:05.999Z</time>
      </trkpt>
      <trkpt lat="47.52741" lon="6.76872">
        <ele>419.6</ele>
        <time>2017-07-30T09:45:06.999Z</time>
      </trkpt>
      <trkpt lat="47.52738" lon="6.76874">
        <ele>419.9</ele>
        <time>2017-07-30T09:45:08.999Z</time>
      </trkpt>
      <trkpt lat="47.52736" lon="6.76875">
        <ele>420.1</ele>
        <time>2017-07-30T09:45:09.999Z</time>
      </trkpt>
      <trkpt lat="47.52733" lon="6.76876">
        <ele>420.4</ele>
        <time>2017-07-30T09:45:11.999Z</time>
      </trkpt>
      <trkpt lat="47.52731" lon="6.76877">
        <ele>420.6</ele>
        <time>2017-07-30T09:45:12.999Z</time>
      </trkpt>
      <trkpt lat="47.52727" lon="6.76878">
        <ele>421</ele>
        <time>2017-07-30T09:45:14.999Z</time>
      </trkpt>
      <trkpt lat="47.52724" lon="6.76879">
        <ele>421.2</ele>
        <time>2017-07-30T09:45:15.999Z</time>
      </trkpt>
      <trkpt lat="47.52721" lon="6.7688">
        <ele>421.3</ele>
        <time>2017-07-30T09:45:16.999Z</time>
      </trkpt>
      <trkpt lat="47.52719" lon="6.76881">
        <ele>421.5</ele>
        <time>2017-07-30T09:45:17.999Z</time>
      </trkpt>
      <trkpt lat="47.52716" lon="6.76882">
        <ele>421.7</ele>
        <time>2017-07-30T09:45:18.999Z</time>
      </trkpt>
      <trkpt lat="47.52714" lon="6.76883">
        <ele>421.9</ele>
        <time>2017-07-30T09:45:19.999Z</time>
      </trkpt>
      <trkpt lat="47.52712" lon="6.76884">
        <ele>422.2</ele>
        <time>2017-07-30T09:45:20.999Z</time>
      </trkpt>
      <trkpt lat="47.52709" lon="6.76885">
        <ele>422.4</ele>
        <time>2017-07-30T09:45:21.999Z</time>
      </trkpt>
      <trkpt lat="47.52707" lon="6.76886">
        <ele>422.7</ele>
        <time>2017-07-30T09:45:22.999Z</time>
      </trkpt>
      <trkpt lat="47.52704" lon="6.76887">
        <ele>422.9</ele>
        <time>2017-07-30T09:45:23.999Z</time>
      </trkpt>
      <trkpt lat="47.52702" lon="6.76888">
        <ele>423.1</ele>
        <time>2017-07-30T09:45:24.999Z</time>
      </trkpt>
      <trkpt lat="47.52699" lon="6.76888">
        <ele>423.3</ele>
        <time>2017-07-30T09:45:25.999Z</time>
      </trkpt>
      <trkpt lat="47.52697" lon="6.76892">
        <ele>423.6</ele>
        <time>2017-07-30T09:45:27.999Z</time>
      </trkpt>
      <trkpt lat="47.52696" lon="6.76893">
        <ele>423.7</ele>
        <time>2017-07-30T09:45:28.999Z</time>
      </trkpt>
      <trkpt lat="47.52693" lon="6.76895">
        <ele>424</ele>
        <time>2017-07-30T09:45:30.999Z</time>
      </trkpt>
      <trkpt lat="47.52691" lon="6.76895">
        <ele>424.1</ele>
        <time>2017-07-30T09:45:31.999Z</time>
      </trkpt>
      <trkpt lat="47.52689" lon="6.76897">
        <ele>424.4</ele>
        <time>2017-07-30T09:45:33.999Z</time>
      </trkpt>
      <trkpt lat="47.52687" lon="6.76897">
        <ele>424.6</ele>
        <time>2017-07-30T09:45:34.999Z</time>
      </trkpt>
      <trkpt lat="47.52682" lon="6.76898">
        <ele>424.9</ele>
        <time>2017-07-30T09:45:36.999Z</time>
      </trkpt>
      <trkpt lat="47.5268" lon="6.76898">
        <ele>425.1</ele>
        <time>2017-07-30T09:45:37.999Z</time>
      </trkpt>
      <trkpt lat="47.52676" lon="6.76897">
        <ele>425.6</ele>
        <time>2017-07-30T09:45:39.999Z</time>
      </trkpt>
      <trkpt lat="47.52675" lon="6.76897">
        <ele>425.8</ele>
        <time>2017-07-30T09:45:40.999Z</time>
      </trkpt>
      <trkpt lat="47.52671" lon="6.76897">
        <ele>426.8</ele>
        <time>2017-07-30T09:45:43.999Z</time>
      </trkpt>
      <trkpt lat="47.5267" lon="6.76897">
        <ele>427.1</ele>
        <time>2017-07-30T09:45:44.999Z</time>
      </trkpt>
      <trkpt lat="47.52666" lon="6.76897">
        <ele>427.6</ele>
        <time>2017-07-30T09:45:46.999Z</time>
      </trkpt>
      <trkpt lat="47.52664" lon="6.76898">
        <ele>427.9</ele>
        <time>2017-07-30T09:45:47.999Z</time>
      </trkpt>
      <trkpt lat="47.52662" lon="6.76898">
        <ele>428.2</ele>
        <time>2017-07-30T09:45:48.999Z</time>
      </trkpt>
      <trkpt lat="47.5266" lon="6.76898">
        <ele>428.5</ele>
        <time>2017-07-30T09:45:49.999Z</time>
      </trkpt>
      <trkpt lat="47.52655" lon="6.76898">
        <ele>429.2</ele>
        <time>2017-07-30T09:45:51.999Z</time>
      </trkpt>
      <trkpt lat="47.52653" lon="6.76897">
        <ele>429.5</ele>
        <time>2017-07-30T09:45:52.999Z</time>
      </trkpt>
      <trkpt lat="47.5265" lon="6.76897">
        <ele>429.6</ele>
        <time>2017-07-30T09:45:53.999Z</time>
      </trkpt>
      <trkpt lat="47.52648" lon="6.76897">
        <ele>429.9</ele>
        <time>2017-07-30T09:45:54.999Z</time>
      </trkpt>
      <trkpt lat="47.52643" lon="6.76897">
        <ele>430.3</ele>
        <time>2017-07-30T09:45:56.999Z</time>
      </trkpt>
      <trkpt lat="47.52641" lon="6.76896">
        <ele>430.6</ele>
        <time>2017-07-30T09:45:57.999Z</time>
      </trkpt>
      <trkpt lat="47.52638" lon="6.76895">
        <ele>431.1</ele>
        <time>2017-07-30T09:45:59.999Z</time>
      </trkpt>
      <trkpt lat="47.52636" lon="6.76895">
        <ele>431.3</ele>
        <time>2017-07-30T09:46:00.999Z</time>
      </trkpt>
      <trkpt lat="47.52633" lon="6.76895">
        <ele>431.7</ele>
        <time>2017-07-30T09:46:02.999Z</time>
      </trkpt>
      <trkpt lat="47.52631" lon="6.76895">
        <ele>431.8</ele>
        <time>2017-07-30T09:46:03.999Z</time>
      </trkpt>
      <trkpt lat="47.52627" lon="6.76894">
        <ele>432.2</ele>
        <time>2017-07-30T09:46:05.999Z</time>
      </trkpt>
      <trkpt lat="47.52625" lon="6.76893">
        <ele>432.4</ele>
        <time>2017-07-30T09:46:06.999Z</time>
      </trkpt>
      <trkpt lat="47.52622" lon="6.76892">
        <ele>432.6</ele>
        <time>2017-07-30T09:46:08.999Z</time>
      </trkpt>
      <trkpt lat="47.52619" lon="6.76892">
        <ele>432.8</ele>
        <time>2017-07-30T09:46:09.999Z</time>
      </trkpt>
      <trkpt lat="47.52614" lon="6.76892">
        <ele>432.9</ele>
        <time>2017-07-30T09:46:10.999Z</time>
      </trkpt>
      <trkpt lat="47.52611" lon="6.76892">
        <ele>433</ele>
        <time>2017-07-30T09:46:11.999Z</time>
      </trkpt>
      <trkpt lat="47.52609" lon="6.76892">
        <ele>433.2</ele>
        <time>2017-07-30T09:46:12.999Z</time>
      </trkpt>
      <trkpt lat="47.52606" lon="6.76892">
        <ele>433.4</ele>
        <time>2017-07-30T09:46:13.999Z</time>
      </trkpt>
      <trkpt lat="47.52604" lon="6.76892">
        <ele>433.6</ele>
        <time>2017-07-30T09:46:14.999Z</time>
      </trkpt>
      <trkpt lat="47.52599" lon="6.76891">
        <ele>434.1</ele>
        <time>2017-07-30T09:46:16.999Z</time>
      </trkpt>
      <trkpt lat="47.52598" lon="6.7689">
        <ele>434.4</ele>
        <time>2017-07-30T09:46:17.999Z</time>
      </trkpt>
      <trkpt lat="47.52594" lon="6.7689">
        <ele>435.3</ele>
        <time>2017-07-30T09:46:20.999Z</time>
      </trkpt>
      <trkpt lat="47.52592" lon="6.76891">
        <ele>435.5</ele>
        <time>2017-07-30T09:46:21.999Z</time>
      </trkpt>
      <trkpt lat="47.52589" lon="6.76893">
        <ele>435.9</ele>
        <time>2017-07-30T09:46:23.999Z</time>
      </trkpt>
      <trkpt lat="47.52586" lon="6.76893">
        <ele>436.2</ele>
        <time>2017-07-30T09:46:24.999Z</time>
      </trkpt>
      <trkpt lat="47.52584" lon="6.76893">
        <ele>436.4</ele>
        <time>2017-07-30T09:46:25.999Z</time>
      </trkpt>
      <trkpt lat="47.52582" lon="6.76894">
        <ele>436.6</ele>
        <time>2017-07-30T09:46:26.999Z</time>
      </trkpt>
      <trkpt lat="47.52578" lon="6.76894">
        <ele>436.9</ele>
        <time>2017-07-30T09:46:28.999Z</time>
      </trkpt>
      <trkpt lat="47.52576" lon="6.76893">
        <ele>437</ele>
        <time>2017-07-30T09:46:29.999Z</time>
      </trkpt>
      <trkpt lat="47.52572" lon="6.76892">
        <ele>437.4</ele>
        <time>2017-07-30T09:46:31.999Z</time>
      </trkpt>
      <trkpt lat="47.5257" lon="6.76892">
        <ele>437.5</ele>
        <time>2017-07-30T09:46:32.999Z</time>
      </trkpt>
      <trkpt lat="47.52566" lon="6.76891">
        <ele>437.8</ele>
        <time>2017-07-30T09:46:34.999Z</time>
      </trkpt>
      <trkpt lat="47.52565" lon="6.7689">
        <ele>438</ele>
        <time>2017-07-30T09:46:35.999Z</time>
      </trkpt>
      <trkpt lat="47.52562" lon="6.76888">
        <ele>438.4</ele>
        <time>2017-07-30T09:46:37.999Z</time>
      </trkpt>
      <trkpt lat="47.5256" lon="6.76887">
        <ele>438.6</ele>
        <time>2017-07-30T09:46:38.999Z</time>
      </trkpt>
      <trkpt lat="47.52556" lon="6.76888">
        <ele>439.1</ele>
        <time>2017-07-30T09:46:41.999Z</time>
      </trkpt>
      <trkpt lat="47.52554" lon="6.76888">
        <ele>439.3</ele>
        <time>2017-07-30T09:46:42.999Z</time>
      </trkpt>
      <trkpt lat="47.5255" lon="6.76889">
        <ele>440</ele>
        <time>2017-07-30T09:46:45.999Z</time>
      </trkpt>
      <trkpt lat="47.52549" lon="6.76888">
        <ele>440.3</ele>
        <time>2017-07-30T09:46:46.999Z</time>
      </trkpt>
      <trkpt lat="47.52546" lon="6.76888">
        <ele>440.7</ele>
        <time>2017-07-30T09:46:48.999Z</time>
      </trkpt>
      <trkpt lat="47.52544" lon="6.76887">
        <ele>440.9</ele>
        <time>2017-07-30T09:46:49.999Z</time>
      </trkpt>
      <trkpt lat="47.52541" lon="6.76887">
        <ele>441.5</ele>
        <time>2017-07-30T09:46:51.999Z</time>
      </trkpt>
      <trkpt lat="47.52539" lon="6.76887">
        <ele>441.9</ele>
        <time>2017-07-30T09:46:52.999Z</time>
      </trkpt>
      <trkpt lat="47.52537" lon="6.76888">
        <ele>442.3</ele>
        <time>2017-07-30T09:46:54.999Z</time>
      </trkpt>
      <trkpt lat="47.52535" lon="6.76888">
        <ele>442.4</ele>
        <time>2017-07-30T09:46:55.999Z</time>
      </trkpt>
      <trkpt lat="47.52532" lon="6.76888">
        <ele>442.9</ele>
        <time>2017-07-30T09:46:57.999Z</time>
      </trkpt>
      <trkpt lat="47.5253" lon="6.76888">
        <ele>443.1</ele>
        <time>2017-07-30T09:46:58.999Z</time>
      </trkpt>
      <trkpt lat="47.52527" lon="6.7689">
        <ele>443.5</ele>
        <time>2017-07-30T09:47:00.999Z</time>
      </trkpt>
      <trkpt lat="47.52526" lon="6.7689">
        <ele>443.8</ele>
        <time>2017-07-30T09:47:01.999Z</time>
      </trkpt>
      <trkpt lat="47.52522" lon="6.76893">
        <ele>444.1</ele>
        <time>2017-07-30T09:47:03.999Z</time>
      </trkpt>
      <trkpt lat="47.5252" lon="6.76894">
        <ele>444.3</ele>
        <time>2017-07-30T09:47:04.999Z</time>
      </trkpt>
      <trkpt lat="47.52517" lon="6.76896">
        <ele>444.6</ele>
        <time>2017-07-30T09:47:06.999Z</time>
      </trkpt>
      <trkpt lat="47.52516" lon="6.76896">
        <ele>444.8</ele>
        <time>2017-07-30T09:47:07.999Z</time>
      </trkpt>
      <trkpt lat="47.52512" lon="6.76897">
        <ele>445.6</ele>
        <time>2017-07-30T09:47:10.999Z</time>
      </trkpt>
      <trkpt lat="47.52511" lon="6.76897">
        <ele>445.8</ele>
        <time>2017-07-30T09:47:11.999Z</time>
      </trkpt>
      <trkpt lat="47.52507" lon="6.76897">
        <ele>446.4</ele>
        <time>2017-07-30T09:47:13.999Z</time>
      </trkpt>
      <trkpt lat="47.52505" lon="6.76897">
        <ele>446.7</ele>
        <time>2017-07-30T09:47:14.999Z</time>
      </trkpt>
      <trkpt lat="47.52503" lon="6.76898">
        <ele>447</ele>
        <time>2017-07-30T09:47:15.999Z</time>
      </trkpt>
      <trkpt lat="47.52501" lon="6.76897">
        <ele>447.2</ele>
        <time>2017-07-30T09:47:16.999Z</time>
      </trkpt>
      <trkpt lat="47.52497" lon="6.76898">
        <ele>447.8</ele>
        <time>2017-07-30T09:47:18.999Z</time>
      </trkpt>
      <trkpt lat="47.52495" lon="6.76899">
        <ele>448.1</ele>
        <time>2017-07-30T09:47:19.999Z</time>
      </trkpt>
      <trkpt lat="47.52491" lon="6.76899">
        <ele>448.6</ele>
        <time>2017-07-30T09:47:21.999Z</time>
      </trkpt>
      <trkpt lat="47.52489" lon="6.76899">
        <ele>448.9</ele>
        <time>2017-07-30T09:47:22.999Z</time>
      </trkpt>
      <trkpt lat="47.52486" lon="6.76902">
        <ele>449.7</ele>
        <time>2017-07-30T09:47:25.999Z</time>
      </trkpt>
      <trkpt lat="47.52485" lon="6.76903">
        <ele>450.1</ele>
        <time>2017-07-30T09:47:26.999Z</time>
      </trkpt>
      <trkpt lat="47.52483" lon="6.76907">
        <ele>450.7</ele>
        <time>2017-07-30T09:47:28.999Z</time>
      </trkpt>
      <trkpt lat="47.52483" lon="6.76909">
        <ele>451</ele>
        <time>2017-07-30T09:47:29.999Z</time>
      </trkpt>
      <trkpt lat="47.5248" lon="6.76914">
        <ele>451.5</ele>
        <time>2017-07-30T09:47:31.999Z</time>
      </trkpt>
      <trkpt lat="47.52478" lon="6.76916">
        <ele>451.7</ele>
        <time>2017-07-30T09:47:32.999Z</time>
      </trkpt>
      <trkpt lat="47.52475" lon="6.7692">
        <ele>452.2</ele>
        <time>2017-07-30T09:47:34.999Z</time>
      </trkpt>
      <trkpt lat="47.52474" lon="6.76922">
        <ele>452.5</ele>
        <time>2017-07-30T09:47:35.999Z</time>
      </trkpt>
      <trkpt lat="47.52473" lon="6.76925">
        <ele>452.7</ele>
        <time>2017-07-30T09:47:36.999Z</time>
      </trkpt>
      <trkpt lat="47.52471" lon="6.76928">
        <ele>453</ele>
        <time>2017-07-30T09:47:37.999Z</time>
      </trkpt>
      <trkpt lat="47.52469" lon="6.76932">
        <ele>453.2</ele>
        <time>2017-07-30T09:47:38.999Z</time>
      </trkpt>
      <trkpt lat="47.52467" lon="6.76935">
        <ele>453.5</ele>
        <time>2017-07-30T09:47:39.999Z</time>
      </trkpt>
      <trkpt lat="47.52465" lon="6.76939">
        <ele>453.9</ele>
        <time>2017-07-30T09:47:40.999Z</time>
      </trkpt>
      <trkpt lat="47.52464" lon="6.76943">
        <ele>454.3</ele>
        <time>2017-07-30T09:47:41.999Z</time>
      </trkpt>
      <trkpt lat="47.52461" lon="6.76948">
        <ele>454.6</ele>
        <time>2017-07-30T09:47:42.999Z</time>
      </trkpt>
      <trkpt lat="47.52459" lon="6.76954">
        <ele>458.2</ele>
        <time>2017-07-30T09:47:43.999Z</time>
      </trkpt>
      <trkpt lat="47.52456" lon="6.7696">
        <ele>460.6</ele>
        <time>2017-07-30T09:47:44.999Z</time>
      </trkpt>
      <trkpt lat="47.52454" lon="6.76964">
        <ele>460.8</ele>
        <time>2017-07-30T09:47:45.999Z</time>
      </trkpt>
      <trkpt lat="47.52452" lon="6.76969">
        <ele>461</ele>
        <time>2017-07-30T09:47:46.999Z</time>
      </trkpt>
      <trkpt lat="47.52449" lon="6.76975">
        <ele>462.4</ele>
        <time>2017-07-30T09:47:47.999Z</time>
      </trkpt>
      <trkpt lat="47.52446" lon="6.76982">
        <ele>463.8</ele>
        <time>2017-07-30T09:47:48.999Z</time>
      </trkpt>
      <trkpt lat="47.52444" lon="6.76989">
        <ele>464.9</ele>
        <time>2017-07-30T09:47:49.999Z</time>
      </trkpt>
      <trkpt lat="47.5244" lon="6.76995">
        <ele>465.1</ele>
        <time>2017-07-30T09:47:50.999Z</time>
      </trkpt>
      <trkpt lat="47.52438" lon="6.77">
        <ele>465.7</ele>
        <time>2017-07-30T09:47:51.999Z</time>
      </trkpt>
      <trkpt lat="47.52435" lon="6.77005">
        <ele>465.9</ele>
        <time>2017-07-30T09:47:52.999Z</time>
      </trkpt>
      <trkpt lat="47.52432" lon="6.77013">
        <ele>465.7</ele>
        <time>2017-07-30T09:47:53.999Z</time>
      </trkpt>
      <trkpt lat="47.52429" lon="6.7702">
        <ele>465.3</ele>
        <time>2017-07-30T09:47:54.999Z</time>
      </trkpt>
      <trkpt lat="47.52426" lon="6.77028">
        <ele>465</ele>
        <time>2017-07-30T09:47:55.999Z</time>
      </trkpt>
      <trkpt lat="47.52423" lon="6.77036">
        <ele>464.3</ele>
        <time>2017-07-30T09:47:56.999Z</time>
      </trkpt>
      <trkpt lat="47.52421" lon="6.77043">
        <ele>464.1</ele>
        <time>2017-07-30T09:47:57.999Z</time>
      </trkpt>
      <trkpt lat="47.52418" lon="6.77052">
        <ele>463.8</ele>
        <time>2017-07-30T09:47:58.999Z</time>
      </trkpt>
      <trkpt lat="47.52414" lon="6.77061">
        <ele>463.5</ele>
        <time>2017-07-30T09:47:59.999Z</time>
      </trkpt>
      <trkpt lat="47.52409" lon="6.77072">
        <ele>462.9</ele>
        <time>2017-07-30T09:48:00.999Z</time>
      </trkpt>
      <trkpt lat="47.52405" lon="6.77079">
        <ele>462</ele>
        <time>2017-07-30T09:48:01.999Z</time>
      </trkpt>
      <trkpt lat="47.52403" lon="6.77088">
        <ele>460.9</ele>
        <time>2017-07-30T09:48:02.999Z</time>
      </trkpt>
      <trkpt lat="47.524" lon="6.77097">
        <ele>459.4</ele>
        <time>2017-07-30T09:48:03.999Z</time>
      </trkpt>
      <trkpt lat="47.52397" lon="6.77105">
        <ele>458.4</ele>
        <time>2017-07-30T09:48:04.999Z</time>
      </trkpt>
      <trkpt lat="47.52394" lon="6.77109">
        <ele>458.4</ele>
        <time>2017-07-30T09:48:05.999Z</time>
      </trkpt>
      <trkpt lat="47.52392" lon="6.77112">
        <ele>458.3</ele>
        <time>2017-07-30T09:48:06.999Z</time>
      </trkpt>
      <trkpt lat="47.5239" lon="6.77115">
        <ele>458.3</ele>
        <time>2017-07-30T09:48:07.999Z</time>
      </trkpt>
      <trkpt lat="47.52388" lon="6.77119">
        <ele>458.3</ele>
        <time>2017-07-30T09:48:08.999Z</time>
      </trkpt>
      <trkpt lat="47.52386" lon="6.77123">
        <ele>458.2</ele>
        <time>2017-07-30T09:48:09.999Z</time>
      </trkpt>
      <trkpt lat="47.52383" lon="6.77127">
        <ele>458.2</ele>
        <time>2017-07-30T09:48:10.999Z</time>
      </trkpt>
      <trkpt lat="47.5238" lon="6.77135">
        <ele>458.1</ele>
        <time>2017-07-30T09:48:11.999Z</time>
      </trkpt>
      <trkpt lat="47.52376" lon="6.77141">
        <ele>458.1</ele>
        <time>2017-07-30T09:48:12.999Z</time>
      </trkpt>
      <trkpt lat="47.52373" lon="6.77148">
        <ele>456.9</ele>
        <time>2017-07-30T09:48:13.999Z</time>
      </trkpt>
      <trkpt lat="47.5237" lon="6.77154">
        <ele>456.5</ele>
        <time>2017-07-30T09:48:14.999Z</time>
      </trkpt>
      <trkpt lat="47.52368" lon="6.77159">
        <ele>456</ele>
        <time>2017-07-30T09:48:15.999Z</time>
      </trkpt>
      <trkpt lat="47.52365" lon="6.77167">
        <ele>455.8</ele>
        <time>2017-07-30T09:48:16.999Z</time>
      </trkpt>
      <trkpt lat="47.52363" lon="6.77178">
        <ele>456.3</ele>
        <time>2017-07-30T09:48:17.999Z</time>
      </trkpt>
      <trkpt lat="47.52359" lon="6.77192">
        <ele>457.1</ele>
        <time>2017-07-30T09:48:18.999Z</time>
      </trkpt>
      <trkpt lat="47.52354" lon="6.77203">
        <ele>458</ele>
        <time>2017-07-30T09:48:19.999Z</time>
      </trkpt>
      <trkpt lat="47.52348" lon="6.77216">
        <ele>458.4</ele>
        <time>2017-07-30T09:48:20.999Z</time>
      </trkpt>
      <trkpt lat="47.52347" lon="6.77226">
        <ele>458.8</ele>
        <time>2017-07-30T09:48:21.999Z</time>
      </trkpt>
      <trkpt lat="47.52345" lon="6.77237">
        <ele>458.1</ele>
        <time>2017-07-30T09:48:22.999Z</time>
      </trkpt>
      <trkpt lat="47.52342" lon="6.77245">
        <ele>456.8</ele>
        <time>2017-07-30T09:48:23.999Z</time>
      </trkpt>
      <trkpt lat="47.52341" lon="6.77254">
        <ele>455.2</ele>
        <time>2017-07-30T09:48:24.999Z</time>
      </trkpt>
      <trkpt lat="47.52339" lon="6.77264">
        <ele>453.6</ele>
        <time>2017-07-30T09:48:25.999Z</time>
      </trkpt>
      <trkpt lat="47.52338" lon="6.77275">
        <ele>452.5</ele>
        <time>2017-07-30T09:48:26.999Z</time>
      </trkpt>
      <trkpt lat="47.52337" lon="6.77287">
        <ele>450.7</ele>
        <time>2017-07-30T09:48:27.999Z</time>
      </trkpt>
      <trkpt lat="47.52336" lon="6.773">
        <ele>448.4</ele>
        <time>2017-07-30T09:48:28.999Z</time>
      </trkpt>
      <trkpt lat="47.52335" lon="6.77309">
        <ele>446.7</ele>
        <time>2017-07-30T09:48:29.999Z</time>
      </trkpt>
      <trkpt lat="47.52336" lon="6.77316">
        <ele>445.7</ele>
        <time>2017-07-30T09:48:30.999Z</time>
      </trkpt>
      <trkpt lat="47.52338" lon="6.77323">
        <ele>445.4</ele>
        <time>2017-07-30T09:48:31.999Z</time>
      </trkpt>
      <trkpt lat="47.52341" lon="6.77331">
        <ele>444.6</ele>
        <time>2017-07-30T09:48:32.999Z</time>
      </trkpt>
      <trkpt lat="47.52344" lon="6.7734">
        <ele>444.8</ele>
        <time>2017-07-30T09:48:33.999Z</time>
      </trkpt>
      <trkpt lat="47.52347" lon="6.77351">
        <ele>444.7</ele>
        <time>2017-07-30T09:48:34.999Z</time>
      </trkpt>
      <trkpt lat="47.5235" lon="6.7736">
        <ele>444.1</ele>
        <time>2017-07-30T09:48:35.999Z</time>
      </trkpt>
      <trkpt lat="47.52353" lon="6.7737">
        <ele>443.5</ele>
        <time>2017-07-30T09:48:36.999Z</time>
      </trkpt>
      <trkpt lat="47.52354" lon="6.77376">
        <ele>442.7</ele>
        <time>2017-07-30T09:48:37.999Z</time>
      </trkpt>
      <trkpt lat="47.52355" lon="6.7738">
        <ele>442.6</ele>
        <time>2017-07-30T09:48:38.999Z</time>
      </trkpt>
      <trkpt lat="47.52357" lon="6.77384">
        <ele>442.5</ele>
        <time>2017-07-30T09:48:39.999Z</time>
      </trkpt>
      <trkpt lat="47.52359" lon="6.77386">
        <ele>442.5</ele>
        <time>2017-07-30T09:48:40.999Z</time>
      </trkpt>
      <trkpt lat="47.52363" lon="6.77391">
        <ele>442.4</ele>
        <time>2017-07-30T09:48:41.999Z</time>
      </trkpt>
      <trkpt lat="47.52367" lon="6.77397">
        <ele>442.5</ele>
        <time>2017-07-30T09:48:42.999Z</time>
      </trkpt>
      <trkpt lat="47.52372" lon="6.77402">
        <ele>442.6</ele>
        <time>2017-07-30T09:48:43.999Z</time>
      </trkpt>
      <trkpt lat="47.52378" lon="6.77408">
        <ele>443</ele>
        <time>2017-07-30T09:48:44.999Z</time>
      </trkpt>
      <trkpt lat="47.52384" lon="6.77412">
        <ele>443.9</ele>
        <time>2017-07-30T09:48:45.999Z</time>
      </trkpt>
      <trkpt lat="47.52389" lon="6.77417">
        <ele>445</ele>
        <time>2017-07-30T09:48:46.999Z</time>
      </trkpt>
      <trkpt lat="47.52396" lon="6.77422">
        <ele>446.3</ele>
        <time>2017-07-30T09:48:47.999Z</time>
      </trkpt>
      <trkpt lat="47.52402" lon="6.77427">
        <ele>447</ele>
        <time>2017-07-30T09:48:48.999Z</time>
      </trkpt>
      <trkpt lat="47.52407" lon="6.77431">
        <ele>447.6</ele>
        <time>2017-07-30T09:48:49.999Z</time>
      </trkpt>
      <trkpt lat="47.52411" lon="6.77435">
        <ele>447.7</ele>
        <time>2017-07-30T09:48:51.999Z</time>
      </trkpt>
      <trkpt lat="47.52412" lon="6.77439">
        <ele>447.8</ele>
        <time>2017-07-30T09:48:52.999Z</time>
      </trkpt>
      <trkpt lat="47.52412" lon="6.77445">
        <ele>447.8</ele>
        <time>2017-07-30T09:48:53.999Z</time>
      </trkpt>
      <trkpt lat="47.5241" lon="6.77451">
        <ele>447.8</ele>
        <time>2017-07-30T09:48:54.999Z</time>
      </trkpt>
      <trkpt lat="47.52408" lon="6.77457">
        <ele>447.8</ele>
        <time>2017-07-30T09:48:55.999Z</time>
      </trkpt>
      <trkpt lat="47.52407" lon="6.7746">
        <ele>447.8</ele>
        <time>2017-07-30T09:48:56.999Z</time>
      </trkpt>
      <trkpt lat="47.52404" lon="6.77464">
        <ele>447.7</ele>
        <time>2017-07-30T09:48:57.999Z</time>
      </trkpt>
      <trkpt lat="47.52401" lon="6.77467">
        <ele>447.6</ele>
        <time>2017-07-30T09:48:58.999Z</time>
      </trkpt>
      <trkpt lat="47.52397" lon="6.7747">
        <ele>447.5</ele>
        <time>2017-07-30T09:48:59.999Z</time>
      </trkpt>
      <trkpt lat="47.52394" lon="6.77473">
        <ele>447.4</ele>
        <time>2017-07-30T09:49:00.999Z</time>
      </trkpt>
      <trkpt lat="47.5239" lon="6.77476">
        <ele>445.8</ele>
        <time>2017-07-30T09:49:01.999Z</time>
      </trkpt>
      <trkpt lat="47.52385" lon="6.7748">
        <ele>444.8</ele>
        <time>2017-07-30T09:49:02.999Z</time>
      </trkpt>
      <trkpt lat="47.5238" lon="6.77483">
        <ele>443.7</ele>
        <time>2017-07-30T09:49:03.999Z</time>
      </trkpt>
      <trkpt lat="47.52375" lon="6.77487">
        <ele>442.8</ele>
        <time>2017-07-30T09:49:04.999Z</time>
      </trkpt>
      <trkpt lat="47.5237" lon="6.7749">
        <ele>441.4</ele>
        <time>2017-07-30T09:49:05.999Z</time>
      </trkpt>
      <trkpt lat="47.52365" lon="6.77493">
        <ele>440.8</ele>
        <time>2017-07-30T09:49:06.999Z</time>
      </trkpt>
      <trkpt lat="47.52361" lon="6.77496">
        <ele>440.8</ele>
        <time>2017-07-30T09:49:07.999Z</time>
      </trkpt>
      <trkpt lat="47.52357" lon="6.775">
        <ele>440.4</ele>
        <time>2017-07-30T09:49:08.999Z</time>
      </trkpt>
      <trkpt lat="47.52353" lon="6.77503">
        <ele>439.9</ele>
        <time>2017-07-30T09:49:09.999Z</time>
      </trkpt>
      <trkpt lat="47.52349" lon="6.77505">
        <ele>438.7</ele>
        <time>2017-07-30T09:49:10.999Z</time>
      </trkpt>
      <trkpt lat="47.52345" lon="6.77507">
        <ele>438</ele>
        <time>2017-07-30T09:49:11.999Z</time>
      </trkpt>
      <trkpt lat="47.5234" lon="6.7751">
        <ele>438.3</ele>
        <time>2017-07-30T09:49:12.999Z</time>
      </trkpt>
      <trkpt lat="47.52336" lon="6.77514">
        <ele>439.3</ele>
        <time>2017-07-30T09:49:13.999Z</time>
      </trkpt>
      <trkpt lat="47.52331" lon="6.77518">
        <ele>440.1</ele>
        <time>2017-07-30T09:49:14.999Z</time>
      </trkpt>
      <trkpt lat="47.52326" lon="6.77522">
        <ele>440.9</ele>
        <time>2017-07-30T09:49:15.999Z</time>
      </trkpt>
      <trkpt lat="47.52321" lon="6.77526">
        <ele>441.5</ele>
        <time>2017-07-30T09:49:16.999Z</time>
      </trkpt>
      <trkpt lat="47.52316" lon="6.77529">
        <ele>441.4</ele>
        <time>2017-07-30T09:49:17.999Z</time>
      </trkpt>
      <trkpt lat="47.52311" lon="6.77532">
        <ele>441.4</ele>
        <time>2017-07-30T09:49:18.999Z</time>
      </trkpt>
      <trkpt lat="47.52305" lon="6.77536">
        <ele>441.4</ele>
        <time>2017-07-30T09:49:19.999Z</time>
      </trkpt>
      <trkpt lat="47.52299" lon="6.77541">
        <ele>440.9</ele>
        <time>2017-07-30T09:49:20.999Z</time>
      </trkpt>
      <trkpt lat="47.52293" lon="6.77544">
        <ele>441</ele>
        <time>2017-07-30T09:49:21.999Z</time>
      </trkpt>
      <trkpt lat="47.52288" lon="6.77548">
        <ele>440.8</ele>
        <time>2017-07-30T09:49:22.999Z</time>
      </trkpt>
      <trkpt lat="47.52283" lon="6.77551">
        <ele>441</ele>
        <time>2017-07-30T09:49:23.999Z</time>
      </trkpt>
      <trkpt lat="47.52277" lon="6.77554">
        <ele>441</ele>
        <time>2017-07-30T09:49:24.999Z</time>
      </trkpt>
      <trkpt lat="47.52272" lon="6.77556">
        <ele>440.5</ele>
        <time>2017-07-30T09:49:25.999Z</time>
      </trkpt>
      <trkpt lat="47.52267" lon="6.77559">
        <ele>440</ele>
        <time>2017-07-30T09:49:26.999Z</time>
      </trkpt>
      <trkpt lat="47.52262" lon="6.77563">
        <ele>439.7</ele>
        <time>2017-07-30T09:49:27.999Z</time>
      </trkpt>
      <trkpt lat="47.52256" lon="6.77566">
        <ele>438.9</ele>
        <time>2017-07-30T09:49:28.999Z</time>
      </trkpt>
      <trkpt lat="47.52251" lon="6.7757">
        <ele>438.5</ele>
        <time>2017-07-30T09:49:29.999Z</time>
      </trkpt>
      <trkpt lat="47.52244" lon="6.77574">
        <ele>437.8</ele>
        <time>2017-07-30T09:49:30.999Z</time>
      </trkpt>
      <trkpt lat="47.52237" lon="6.77578">
        <ele>437.3</ele>
        <time>2017-07-30T09:49:31.999Z</time>
      </trkpt>
      <trkpt lat="47.5223" lon="6.77583">
        <ele>436.2</ele>
        <time>2017-07-30T09:49:32.999Z</time>
      </trkpt>
      <trkpt lat="47.52223" lon="6.77587">
        <ele>436.2</ele>
        <time>2017-07-30T09:49:33.999Z</time>
      </trkpt>
      <trkpt lat="47.52217" lon="6.77591">
        <ele>436.4</ele>
        <time>2017-07-30T09:49:34.999Z</time>
      </trkpt>
      <trkpt lat="47.52212" lon="6.77595">
        <ele>436.3</ele>
        <time>2017-07-30T09:49:35.999Z</time>
      </trkpt>
      <trkpt lat="47.52206" lon="6.77599">
        <ele>436.1</ele>
        <time>2017-07-30T09:49:36.999Z</time>
      </trkpt>
      <trkpt lat="47.52201" lon="6.77603">
        <ele>436.1</ele>
        <time>2017-07-30T09:49:37.999Z</time>
      </trkpt>
      <trkpt lat="47.52195" lon="6.77608">
        <ele>436.1</ele>
        <time>2017-07-30T09:49:38.999Z</time>
      </trkpt>
      <trkpt lat="47.52192" lon="6.77611">
        <ele>436</ele>
        <time>2017-07-30T09:49:39.999Z</time>
      </trkpt>
      <trkpt lat="47.52186" lon="6.77615">
        <ele>435.7</ele>
        <time>2017-07-30T09:49:40.999Z</time>
      </trkpt>
      <trkpt lat="47.52181" lon="6.77619">
        <ele>436</ele>
        <time>2017-07-30T09:49:41.999Z</time>
      </trkpt>
      <trkpt lat="47.52176" lon="6.77622">
        <ele>435.8</ele>
        <time>2017-07-30T09:49:42.999Z</time>
      </trkpt>
      <trkpt lat="47.52171" lon="6.77626">
        <ele>435.9</ele>
        <time>2017-07-30T09:49:43.999Z</time>
      </trkpt>
      <trkpt lat="47.52166" lon="6.7763">
        <ele>435.5</ele>
        <time>2017-07-30T09:49:44.999Z</time>
      </trkpt>
      <trkpt lat="47.52162" lon="6.77634">
        <ele>435.5</ele>
        <time>2017-07-30T09:49:45.999Z</time>
      </trkpt>
      <trkpt lat="47.52157" lon="6.77637">
        <ele>435.8</ele>
        <time>2017-07-30T09:49:46.999Z</time>
      </trkpt>
      <trkpt lat="47.52152" lon="6.7764">
        <ele>437</ele>
        <time>2017-07-30T09:49:47.999Z</time>
      </trkpt>
      <trkpt lat="47.52148" lon="6.77642">
        <ele>437.4</ele>
        <time>2017-07-30T09:49:48.999Z</time>
      </trkpt>
      <trkpt lat="47.52144" lon="6.77645">
        <ele>436.9</ele>
        <time>2017-07-30T09:49:49.999Z</time>
      </trkpt>
      <trkpt lat="47.52139" lon="6.77647">
        <ele>436.6</ele>
        <time>2017-07-30T09:49:50.999Z</time>
      </trkpt>
      <trkpt lat="47.52135" lon="6.7765">
        <ele>436.9</ele>
        <time>2017-07-30T09:49:51.999Z</time>
      </trkpt>
      <trkpt lat="47.52131" lon="6.77652">
        <ele>437</ele>
        <time>2017-07-30T09:49:52.999Z</time>
      </trkpt>
      <trkpt lat="47.52127" lon="6.77655">
        <ele>437.1</ele>
        <time>2017-07-30T09:49:53.999Z</time>
      </trkpt>
      <trkpt lat="47.52124" lon="6.77657">
        <ele>437.2</ele>
        <time>2017-07-30T09:49:54.999Z</time>
      </trkpt>
      <trkpt lat="47.5212" lon="6.7766">
        <ele>436.6</ele>
        <time>2017-07-30T09:49:55.999Z</time>
      </trkpt>
      <trkpt lat="47.52116" lon="6.77662">
        <ele>436.8</ele>
        <time>2017-07-30T09:49:56.999Z</time>
      </trkpt>
      <trkpt lat="47.52112" lon="6.77665">
        <ele>436.6</ele>
        <time>2017-07-30T09:49:57.999Z</time>
      </trkpt>
      <trkpt lat="47.52108" lon="6.77667">
        <ele>436.6</ele>
        <time>2017-07-30T09:49:58.999Z</time>
      </trkpt>
      <trkpt lat="47.52104" lon="6.7767">
        <ele>436.2</ele>
        <time>2017-07-30T09:49:59.999Z</time>
      </trkpt>
      <trkpt lat="47.521" lon="6.77672">
        <ele>436.4</ele>
        <time>2017-07-30T09:50:00.999Z</time>
      </trkpt>
      <trkpt lat="47.52095" lon="6.77674">
        <ele>436.5</ele>
        <time>2017-07-30T09:50:01.999Z</time>
      </trkpt>
      <trkpt lat="47.52093" lon="6.7767">
        <ele>436.6</ele>
        <time>2017-07-30T09:50:02.999Z</time>
      </trkpt>
      <trkpt lat="47.52093" lon="6.77664">
        <ele>437.4</ele>
        <time>2017-07-30T09:50:03.999Z</time>
      </trkpt>
      <trkpt lat="47.52094" lon="6.77656">
        <ele>437.3</ele>
        <time>2017-07-30T09:50:04.999Z</time>
      </trkpt>
      <trkpt lat="47.52094" lon="6.77648">
        <ele>437</ele>
        <time>2017-07-30T09:50:05.999Z</time>
      </trkpt>
      <trkpt lat="47.52093" lon="6.77642">
        <ele>437.2</ele>
        <time>2017-07-30T09:50:06.999Z</time>
      </trkpt>
      <trkpt lat="47.52093" lon="6.77633">
        <ele>437</ele>
        <time>2017-07-30T09:50:07.999Z</time>
      </trkpt>
      <trkpt lat="47.52093" lon="6.77626">
        <ele>437.3</ele>
        <time>2017-07-30T09:50:08.999Z</time>
      </trkpt>
      <trkpt lat="47.52093" lon="6.7762">
        <ele>437.7</ele>
        <time>2017-07-30T09:50:09.999Z</time>
      </trkpt>
      <trkpt lat="47.52093" lon="6.77612">
        <ele>438</ele>
        <time>2017-07-30T09:50:10.999Z</time>
      </trkpt>
      <trkpt lat="47.52093" lon="6.77606">
        <ele>438.3</ele>
        <time>2017-07-30T09:50:11.999Z</time>
      </trkpt>
      <trkpt lat="47.52093" lon="6.77599">
        <ele>439</ele>
        <time>2017-07-30T09:50:12.999Z</time>
      </trkpt>
      <trkpt lat="47.52094" lon="6.77592">
        <ele>439.9</ele>
        <time>2017-07-30T09:50:13.999Z</time>
      </trkpt>
      <trkpt lat="47.52094" lon="6.77583">
        <ele>439.6</ele>
        <time>2017-07-30T09:50:14.999Z</time>
      </trkpt>
      <trkpt lat="47.52094" lon="6.77576">
        <ele>439.5</ele>
        <time>2017-07-30T09:50:15.999Z</time>
      </trkpt>
      <trkpt lat="47.52094" lon="6.77569">
        <ele>439.5</ele>
        <time>2017-07-30T09:50:16.999Z</time>
      </trkpt>
      <trkpt lat="47.52092" lon="6.77563">
        <ele>439.2</ele>
        <time>2017-07-30T09:50:17.999Z</time>
      </trkpt>
      <trkpt lat="47.5209" lon="6.77559">
        <ele>438.1</ele>
        <time>2017-07-30T09:50:18.999Z</time>
      </trkpt>
      <trkpt lat="47.52086" lon="6.77555">
        <ele>437.3</ele>
        <time>2017-07-30T09:50:19.999Z</time>
      </trkpt>
      <trkpt lat="47.52083" lon="6.77553">
        <ele>436.3</ele>
        <time>2017-07-30T09:50:20.999Z</time>
      </trkpt>
      <trkpt lat="47.52078" lon="6.77552">
        <ele>436.4</ele>
        <time>2017-07-30T09:50:21.999Z</time>
      </trkpt>
      <trkpt lat="47.52074" lon="6.7755">
        <ele>436.6</ele>
        <time>2017-07-30T09:50:22.999Z</time>
      </trkpt>
      <trkpt lat="47.52069" lon="6.77549">
        <ele>437.3</ele>
        <time>2017-07-30T09:50:23.999Z</time>
      </trkpt>
      <trkpt lat="47.52064" lon="6.77548">
        <ele>438</ele>
        <time>2017-07-30T09:50:24.999Z</time>
      </trkpt>
      <trkpt lat="47.52059" lon="6.77547">
        <ele>438.8</ele>
        <time>2017-07-30T09:50:25.999Z</time>
      </trkpt>
      <trkpt lat="47.52054" lon="6.77546">
        <ele>439.9</ele>
        <time>2017-07-30T09:50:26.999Z</time>
      </trkpt>
      <trkpt lat="47.52049" lon="6.77546">
        <ele>440.9</ele>
        <time>2017-07-30T09:50:27.999Z</time>
      </trkpt>
      <trkpt lat="47.52044" lon="6.77544">
        <ele>441.6</ele>
        <time>2017-07-30T09:50:28.999Z</time>
      </trkpt>
      <trkpt lat="47.5204" lon="6.77543">
        <ele>442.2</ele>
        <time>2017-07-30T09:50:29.999Z</time>
      </trkpt>
      <trkpt lat="47.52035" lon="6.77542">
        <ele>442.3</ele>
        <time>2017-07-30T09:50:30.999Z</time>
      </trkpt>
      <trkpt lat="47.52031" lon="6.77541">
        <ele>442.6</ele>
        <time>2017-07-30T09:50:31.999Z</time>
      </trkpt>
      <trkpt lat="47.52027" lon="6.77539">
        <ele>442.6</ele>
        <time>2017-07-30T09:50:32.999Z</time>
      </trkpt>
      <trkpt lat="47.52023" lon="6.77536">
        <ele>442.2</ele>
        <time>2017-07-30T09:50:33.999Z</time>
      </trkpt>
      <trkpt lat="47.52019" lon="6.77535">
        <ele>441.6</ele>
        <time>2017-07-30T09:50:34.999Z</time>
      </trkpt>
      <trkpt lat="47.52014" lon="6.77533">
        <ele>441.3</ele>
        <time>2017-07-30T09:50:35.999Z</time>
      </trkpt>
      <trkpt lat="47.52008" lon="6.77531">
        <ele>441.2</ele>
        <time>2017-07-30T09:50:36.999Z</time>
      </trkpt>
      <trkpt lat="47.52002" lon="6.7753">
        <ele>440.8</ele>
        <time>2017-07-30T09:50:37.999Z</time>
      </trkpt>
      <trkpt lat="47.51997" lon="6.77528">
        <ele>440.8</ele>
        <time>2017-07-30T09:50:38.999Z</time>
      </trkpt>
      <trkpt lat="47.51992" lon="6.77526">
        <ele>440.6</ele>
        <time>2017-07-30T09:50:39.999Z</time>
      </trkpt>
      <trkpt lat="47.51987" lon="6.77525">
        <ele>440.9</ele>
        <time>2017-07-30T09:50:40.999Z</time>
      </trkpt>
      <trkpt lat="47.51984" lon="6.77524">
        <ele>440.9</ele>
        <time>2017-07-30T09:50:41.999Z</time>
      </trkpt>
      <trkpt lat="47.5198" lon="6.77524">
        <ele>440.9</ele>
        <time>2017-07-30T09:50:42.999Z</time>
      </trkpt>
      <trkpt lat="47.51977" lon="6.77524">
        <ele>440.7</ele>
        <time>2017-07-30T09:50:43.999Z</time>
      </trkpt>
      <trkpt lat="47.51973" lon="6.77524">
        <ele>440.5</ele>
        <time>2017-07-30T09:50:44.999Z</time>
      </trkpt>
      <trkpt lat="47.51967" lon="6.77526">
        <ele>440.8</ele>
        <time>2017-07-30T09:50:45.999Z</time>
      </trkpt>
      <trkpt lat="47.51962" lon="6.77527">
        <ele>441.1</ele>
        <time>2017-07-30T09:50:46.999Z</time>
      </trkpt>
      <trkpt lat="47.51958" lon="6.77526">
        <ele>441.1</ele>
        <time>2017-07-30T09:50:47.999Z</time>
      </trkpt>
      <trkpt lat="47.51954" lon="6.77525">
        <ele>440.6</ele>
        <time>2017-07-30T09:50:48.999Z</time>
      </trkpt>
      <trkpt lat="47.51949" lon="6.77524">
        <ele>441</ele>
        <time>2017-07-30T09:50:49.999Z</time>
      </trkpt>
      <trkpt lat="47.51945" lon="6.77523">
        <ele>440.2</ele>
        <time>2017-07-30T09:50:50.999Z</time>
      </trkpt>
      <trkpt lat="47.51942" lon="6.77523">
        <ele>440.1</ele>
        <time>2017-07-30T09:50:51.999Z</time>
      </trkpt>
      <trkpt lat="47.51939" lon="6.77521">
        <ele>440.6</ele>
        <time>2017-07-30T09:50:52.999Z</time>
      </trkpt>
      <trkpt lat="47.51935" lon="6.7752">
        <ele>440.7</ele>
        <time>2017-07-30T09:50:53.999Z</time>
      </trkpt>
      <trkpt lat="47.51931" lon="6.77518">
        <ele>441.1</ele>
        <time>2017-07-30T09:50:54.999Z</time>
      </trkpt>
      <trkpt lat="47.51927" lon="6.77518">
        <ele>441.4</ele>
        <time>2017-07-30T09:50:55.999Z</time>
      </trkpt>
      <trkpt lat="47.51923" lon="6.77516">
        <ele>441.5</ele>
        <time>2017-07-30T09:50:56.999Z</time>
      </trkpt>
      <trkpt lat="47.51919" lon="6.77515">
        <ele>442</ele>
        <time>2017-07-30T09:50:57.999Z</time>
      </trkpt>
      <trkpt lat="47.51915" lon="6.77515">
        <ele>442.3</ele>
        <time>2017-07-30T09:50:58.999Z</time>
      </trkpt>
      <trkpt lat="47.5191" lon="6.77514">
        <ele>442</ele>
        <time>2017-07-30T09:50:59.999Z</time>
      </trkpt>
      <trkpt lat="47.51904" lon="6.77513">
        <ele>441.8</ele>
        <time>2017-07-30T09:51:00.999Z</time>
      </trkpt>
      <trkpt lat="47.519" lon="6.77512">
        <ele>441.3</ele>
        <time>2017-07-30T09:51:01.999Z</time>
      </trkpt>
      <trkpt lat="47.51895" lon="6.77511">
        <ele>440.2</ele>
        <time>2017-07-30T09:51:02.999Z</time>
      </trkpt>
      <trkpt lat="47.51889" lon="6.7751">
        <ele>439.1</ele>
        <time>2017-07-30T09:51:03.999Z</time>
      </trkpt>
      <trkpt lat="47.51886" lon="6.7751">
        <ele>438.6</ele>
        <time>2017-07-30T09:51:04.999Z</time>
      </trkpt>
      <trkpt lat="47.5188" lon="6.77509">
        <ele>438.8</ele>
        <time>2017-07-30T09:51:05.999Z</time>
      </trkpt>
      <trkpt lat="47.51875" lon="6.77507">
        <ele>439.5</ele>
        <time>2017-07-30T09:51:06.999Z</time>
      </trkpt>
      <trkpt lat="47.5187" lon="6.77506">
        <ele>440</ele>
        <time>2017-07-30T09:51:07.999Z</time>
      </trkpt>
      <trkpt lat="47.51865" lon="6.77505">
        <ele>440.7</ele>
        <time>2017-07-30T09:51:08.999Z</time>
      </trkpt>
      <trkpt lat="47.5186" lon="6.77506">
        <ele>440.9</ele>
        <time>2017-07-30T09:51:09.999Z</time>
      </trkpt>
      <trkpt lat="47.51855" lon="6.77507">
        <ele>441.1</ele>
        <time>2017-07-30T09:51:10.999Z</time>
      </trkpt>
      <trkpt lat="47.51851" lon="6.77508">
        <ele>441</ele>
        <time>2017-07-30T09:51:11.999Z</time>
      </trkpt>
      <trkpt lat="47.51846" lon="6.77508">
        <ele>440.7</ele>
        <time>2017-07-30T09:51:12.999Z</time>
      </trkpt>
      <trkpt lat="47.51842" lon="6.77508">
        <ele>440.2</ele>
        <time>2017-07-30T09:51:13.999Z</time>
      </trkpt>
      <trkpt lat="47.51837" lon="6.77507">
        <ele>438.9</ele>
        <time>2017-07-30T09:51:14.999Z</time>
      </trkpt>
      <trkpt lat="47.51833" lon="6.77508">
        <ele>438.2</ele>
        <time>2017-07-30T09:51:15.999Z</time>
      </trkpt>
      <trkpt lat="47.51829" lon="6.77507">
        <ele>437.8</ele>
        <time>2017-07-30T09:51:16.999Z</time>
      </trkpt>
      <trkpt lat="47.51826" lon="6.77506">
        <ele>437.7</ele>
        <time>2017-07-30T09:51:17.999Z</time>
      </trkpt>
      <trkpt lat="47.51823" lon="6.77504">
        <ele>437.7</ele>
        <time>2017-07-30T09:51:18.999Z</time>
      </trkpt>
      <trkpt lat="47.51821" lon="6.77504">
        <ele>437.5</ele>
        <time>2017-07-30T09:51:19.999Z</time>
      </trkpt>
      <trkpt lat="47.51817" lon="6.77502">
        <ele>437.3</ele>
        <time>2017-07-30T09:51:21.999Z</time>
      </trkpt>
      <trkpt lat="47.51814" lon="6.775">
        <ele>437.3</ele>
        <time>2017-07-30T09:51:22.999Z</time>
      </trkpt>
      <trkpt lat="47.51811" lon="6.77499">
        <ele>437.2</ele>
        <time>2017-07-30T09:51:23.999Z</time>
      </trkpt>
      <trkpt lat="47.51809" lon="6.77498">
        <ele>437.2</ele>
        <time>2017-07-30T09:51:24.999Z</time>
      </trkpt>
      <trkpt lat="47.51805" lon="6.77496">
        <ele>437.3</ele>
        <time>2017-07-30T09:51:26.999Z</time>
      </trkpt>
      <trkpt lat="47.51803" lon="6.77495">
        <ele>437.3</ele>
        <time>2017-07-30T09:51:27.999Z</time>
      </trkpt>
      <trkpt lat="47.51801" lon="6.77494">
        <ele>437.4</ele>
        <time>2017-07-30T09:51:28.999Z</time>
      </trkpt>
      <trkpt lat="47.51799" lon="6.77493">
        <ele>437.2</ele>
        <time>2017-07-30T09:51:29.999Z</time>
      </trkpt>
      <trkpt lat="47.51796" lon="6.77493">
        <ele>437.2</ele>
        <time>2017-07-30T09:51:30.999Z</time>
      </trkpt>
      <trkpt lat="47.51793" lon="6.77494">
        <ele>437.2</ele>
        <time>2017-07-30T09:51:31.999Z</time>
      </trkpt>
      <trkpt lat="47.51794" lon="6.77495">
        <ele>437.4</ele>
        <time>2017-07-30T09:51:34.999Z</time>
      </trkpt>
      <trkpt lat="47.518" lon="6.77495">
        <ele>437.9</ele>
        <time>2017-07-30T09:51:35.999Z</time>
      </trkpt>
      <trkpt lat="47.51804" lon="6.77492">
        <ele>437.7</ele>
        <time>2017-07-30T09:51:36.999Z</time>
      </trkpt>
      <trkpt lat="47.51807" lon="6.77488">
        <ele>437.2</ele>
        <time>2017-07-30T09:51:37.999Z</time>
      </trkpt>
      <trkpt lat="47.51808" lon="6.77479">
        <ele>436.8</ele>
        <time>2017-07-30T09:51:38.999Z</time>
      </trkpt>
      <trkpt lat="47.51808" lon="6.77474">
        <ele>436</ele>
        <time>2017-07-30T09:51:39.999Z</time>
      </trkpt>
      <trkpt lat="47.51808" lon="6.7747">
        <ele>436</ele>
        <time>2017-07-30T09:51:40.999Z</time>
      </trkpt>
      <trkpt lat="47.51808" lon="6.77468">
        <ele>435.5</ele>
        <time>2017-07-30T09:51:46.999Z</time>
      </trkpt>
      <trkpt lat="47.5181" lon="6.77478">
        <ele>435.4</ele>
        <time>2017-07-30T09:51:47.999Z</time>
      </trkpt>
      <trkpt lat="47.51806" lon="6.77477">
        <ele>435.4</ele>
        <time>2017-07-30T09:51:49.999Z</time>
      </trkpt>
      <trkpt lat="47.51804" lon="6.77475">
        <ele>435.4</ele>
        <time>2017-07-30T09:51:50.999Z</time>
      </trkpt>
      <trkpt lat="47.51804" lon="6.77475">
        <ele>436.6</ele>
        <time>2017-07-30T09:54:37.999Z</time>
      </trkpt>
      <trkpt lat="47.51801" lon="6.7747">
        <ele>436.6</ele>
        <time>2017-07-30T09:54:38.999Z</time>
      </trkpt>
      <trkpt lat="47.51804" lon="6.77473">
        <ele>432.5</ele>
        <time>2017-07-30T09:56:11.999Z</time>
      </trkpt>
      <trkpt lat="47.51805" lon="6.77474">
        <ele>432.3</ele>
        <time>2017-07-30T09:56:12.999Z</time>
      </trkpt>
      <trkpt lat="47.51802" lon="6.77479">
        <ele>434.6</ele>
        <time>2017-07-30T09:56:43.999Z</time>
      </trkpt>
      <trkpt lat="47.51801" lon="6.7748">
        <ele>434.6</ele>
        <time>2017-07-30T09:56:44.999Z</time>
      </trkpt>
      <trkpt lat="47.51801" lon="6.77475">
        <ele>437.1</ele>
        <time>2017-07-30T10:03:40.999Z</time>
      </trkpt>
    </trkseg>
  </trk>
</gpx>